<?xml version="1.0" encoding="UTF-8"?>
<gpx version="1.1" creator="https://www.youtrack.es" xsi:schemaLocation="http://www.topografix.com/GPX/1/1 http://www.topografix.com/GPX/1/1/gpx.xsd http://www.garmin.com/xmlschemas/GpxExtensions/v3 http://www.garmin.com/xmlschemas/GpxExtensionsv3.xsd http://www.garmin.com/xmlschemas/TrackPointExtension/v1 http://www.garmin.com/xmlschemas/TrackPointExtensionv1.xsd" xmlns:gpxtpx="http://www.garmin.com/xmlschemas/TrackPointExtension/v1" xmlns:gpxx="http://www.garmin.com/xmlschemas/GpxExtensions/v3" xmlns:xsi="http://www.w3.org/2001/XMLSchema-instance">
  <metadata>
    <link href="https://www.youtrack.es">
      <text>YouTrack.es</text>
    </link>
    <time>2026-05-08T11:07:50Z</time>
  </metadata>
  <trk>
    <src>https://www.youtrack.es</src>
    <link href="https://www.youtrack.es/ruta/15698-vuelta-al-bisaurin-en-2-dias">
      <text>YouTrack.es</text>
    </link>
    <trkseg>
      <trkpt lat="42.834541" lon="-.711329">
        <ele>1145.046</ele>
        <time>2020-09-05T08:20:08Z</time>
      </trkpt>
      <trkpt lat="42.83441" lon="-.711262">
        <ele>1145.088</ele>
        <time>2020-09-05T08:20:39Z</time>
      </trkpt>
      <trkpt lat="42.834475" lon="-.711288">
        <ele>1145.016</ele>
        <time>2020-09-05T08:21:11Z</time>
      </trkpt>
      <trkpt lat="42.834416" lon="-.711266">
        <ele>1145.008</ele>
        <time>2020-09-05T08:21:24Z</time>
      </trkpt>
      <trkpt lat="42.834429" lon="-.711326">
        <ele>1145.019</ele>
        <time>2020-09-05T08:22:16Z</time>
      </trkpt>
      <trkpt lat="42.839345" lon="-.710103">
        <ele>1145.080</ele>
        <time>2020-09-05T08:29:33Z</time>
      </trkpt>
      <trkpt lat="42.839407" lon="-.710179">
        <ele>1145.016</ele>
        <time>2020-09-05T08:29:34Z</time>
      </trkpt>
      <trkpt lat="42.839454" lon="-.710254">
        <ele>1145.074</ele>
        <time>2020-09-05T08:29:35Z</time>
      </trkpt>
      <trkpt lat="42.839486" lon="-.710298">
        <ele>1145.015</ele>
        <time>2020-09-05T08:29:36Z</time>
      </trkpt>
      <trkpt lat="42.839555" lon="-.710368">
        <ele>1145.062</ele>
        <time>2020-09-05T08:29:38Z</time>
      </trkpt>
      <trkpt lat="42.83959" lon="-.710433">
        <ele>1145.038</ele>
        <time>2020-09-05T08:29:40Z</time>
      </trkpt>
      <trkpt lat="42.839637" lon="-.710499">
        <ele>1145.068</ele>
        <time>2020-09-05T08:29:42Z</time>
      </trkpt>
      <trkpt lat="42.839599" lon="-.71045">
        <ele>1145.085</ele>
        <time>2020-09-05T08:29:46Z</time>
      </trkpt>
      <trkpt lat="42.839643" lon="-.710483">
        <ele>1145.089</ele>
        <time>2020-09-05T08:29:49Z</time>
      </trkpt>
      <trkpt lat="42.839691" lon="-.710524">
        <ele>1145.017</ele>
        <time>2020-09-05T08:29:51Z</time>
      </trkpt>
      <trkpt lat="42.839691" lon="-.710524">
        <ele>1145.008</ele>
        <time>2020-09-05T08:29:51Z</time>
      </trkpt>
      <trkpt lat="42.839728" lon="-.71056">
        <ele>1141.233</ele>
        <time>2020-09-05T08:29:53Z</time>
      </trkpt>
      <trkpt lat="42.839778" lon="-.710604">
        <ele>1139.014</ele>
        <time>2020-09-05T08:29:56Z</time>
      </trkpt>
      <trkpt lat="42.839827" lon="-.710641">
        <ele>1137.710</ele>
        <time>2020-09-05T08:29:58Z</time>
      </trkpt>
      <trkpt lat="42.839877" lon="-.710674">
        <ele>1137.128</ele>
        <time>2020-09-05T08:30:03Z</time>
      </trkpt>
      <trkpt lat="42.839927" lon="-.710697">
        <ele>1136.819</ele>
        <time>2020-09-05T08:30:09Z</time>
      </trkpt>
      <trkpt lat="42.839972" lon="-.710713">
        <ele>1136.746</ele>
        <time>2020-09-05T08:30:14Z</time>
      </trkpt>
      <trkpt lat="42.840018" lon="-.710727">
        <ele>1136.742</ele>
        <time>2020-09-05T08:30:18Z</time>
      </trkpt>
      <trkpt lat="42.840064" lon="-.710705">
        <ele>1136.872</ele>
        <time>2020-09-05T08:30:25Z</time>
      </trkpt>
      <trkpt lat="42.840103" lon="-.71067">
        <ele>1136.985</ele>
        <time>2020-09-05T08:30:30Z</time>
      </trkpt>
      <trkpt lat="42.840153" lon="-.710639">
        <ele>1137.089</ele>
        <time>2020-09-05T08:30:36Z</time>
      </trkpt>
      <trkpt lat="42.840205" lon="-.710633">
        <ele>1137.017</ele>
        <time>2020-09-05T08:30:40Z</time>
      </trkpt>
      <trkpt lat="42.840259" lon="-.710645">
        <ele>1137.008</ele>
        <time>2020-09-05T08:30:44Z</time>
      </trkpt>
      <trkpt lat="42.840307" lon="-.71066">
        <ele>1137.083</ele>
        <time>2020-09-05T08:30:47Z</time>
      </trkpt>
      <trkpt lat="42.840307" lon="-.71066">
        <ele>1137.094</ele>
        <time>2020-09-05T08:30:47Z</time>
      </trkpt>
      <trkpt lat="42.840357" lon="-.710662">
        <ele>1137.090</ele>
        <time>2020-09-05T08:30:50Z</time>
      </trkpt>
      <trkpt lat="42.840404" lon="-.710654">
        <ele>1137.168</ele>
        <time>2020-09-05T08:30:54Z</time>
      </trkpt>
      <trkpt lat="42.840404" lon="-.710654">
        <ele>1137.169</ele>
        <time>2020-09-05T08:30:54Z</time>
      </trkpt>
      <trkpt lat="42.840452" lon="-.710651">
        <ele>1137.296</ele>
        <time>2020-09-05T08:30:58Z</time>
      </trkpt>
      <trkpt lat="42.840499" lon="-.710655">
        <ele>1137.892</ele>
        <time>2020-09-05T08:31:02Z</time>
      </trkpt>
      <trkpt lat="42.840548" lon="-.710662">
        <ele>1139.012</ele>
        <time>2020-09-05T08:31:06Z</time>
      </trkpt>
      <trkpt lat="42.840602" lon="-.71066">
        <ele>1140.175</ele>
        <time>2020-09-05T08:31:11Z</time>
      </trkpt>
      <trkpt lat="42.840652" lon="-.710636">
        <ele>1140.828</ele>
        <time>2020-09-05T08:31:14Z</time>
      </trkpt>
      <trkpt lat="42.840707" lon="-.710622">
        <ele>1141.620</ele>
        <time>2020-09-05T08:31:18Z</time>
      </trkpt>
      <trkpt lat="42.840707" lon="-.710622">
        <ele>1141.608</ele>
        <time>2020-09-05T08:31:18Z</time>
      </trkpt>
      <trkpt lat="42.84076" lon="-.710611">
        <ele>1141.812</ele>
        <time>2020-09-05T08:31:22Z</time>
      </trkpt>
      <trkpt lat="42.840809" lon="-.710623">
        <ele>1142.013</ele>
        <time>2020-09-05T08:31:26Z</time>
      </trkpt>
      <trkpt lat="42.840849" lon="-.710655">
        <ele>1142.069</ele>
        <time>2020-09-05T08:31:29Z</time>
      </trkpt>
      <trkpt lat="42.840889" lon="-.710693">
        <ele>1142.497</ele>
        <time>2020-09-05T08:31:31Z</time>
      </trkpt>
      <trkpt lat="42.840929" lon="-.710735">
        <ele>1142.938</ele>
        <time>2020-09-05T08:31:33Z</time>
      </trkpt>
      <trkpt lat="42.840929" lon="-.710735">
        <ele>1142.935</ele>
        <time>2020-09-05T08:31:33Z</time>
      </trkpt>
      <trkpt lat="42.840969" lon="-.710773">
        <ele>1143.031</ele>
        <time>2020-09-05T08:31:36Z</time>
      </trkpt>
      <trkpt lat="42.841006" lon="-.71082">
        <ele>1143.241</ele>
        <time>2020-09-05T08:31:39Z</time>
      </trkpt>
      <trkpt lat="42.841006" lon="-.71082">
        <ele>1143.299</ele>
        <time>2020-09-05T08:31:39Z</time>
      </trkpt>
      <trkpt lat="42.841035" lon="-.710876">
        <ele>1143.307</ele>
        <time>2020-09-05T08:31:43Z</time>
      </trkpt>
      <trkpt lat="42.841069" lon="-.710931">
        <ele>1143.527</ele>
        <time>2020-09-05T08:31:46Z</time>
      </trkpt>
      <trkpt lat="42.841106" lon="-.710968">
        <ele>1143.708</ele>
        <time>2020-09-05T08:31:52Z</time>
      </trkpt>
      <trkpt lat="42.841149" lon="-.710991">
        <ele>1144.074</ele>
        <time>2020-09-05T08:31:57Z</time>
      </trkpt>
      <trkpt lat="42.841192" lon="-.71101">
        <ele>1144.645</ele>
        <time>2020-09-05T08:32:03Z</time>
      </trkpt>
      <trkpt lat="42.841238" lon="-.711015">
        <ele>1145.191</ele>
        <time>2020-09-05T08:32:09Z</time>
      </trkpt>
      <trkpt lat="42.841283" lon="-.711008">
        <ele>1145.979</ele>
        <time>2020-09-05T08:32:14Z</time>
      </trkpt>
      <trkpt lat="42.841283" lon="-.711008">
        <ele>1145.970</ele>
        <time>2020-09-05T08:32:14Z</time>
      </trkpt>
      <trkpt lat="42.841331" lon="-.71102">
        <ele>1146.267</ele>
        <time>2020-09-05T08:32:19Z</time>
      </trkpt>
      <trkpt lat="42.84138" lon="-.711042">
        <ele>1146.583</ele>
        <time>2020-09-05T08:32:23Z</time>
      </trkpt>
      <trkpt lat="42.841425" lon="-.711059">
        <ele>1146.763</ele>
        <time>2020-09-05T08:32:25Z</time>
      </trkpt>
      <trkpt lat="42.841479" lon="-.711075">
        <ele>1146.979</ele>
        <time>2020-09-05T08:32:29Z</time>
      </trkpt>
      <trkpt lat="42.841528" lon="-.711077">
        <ele>1147.205</ele>
        <time>2020-09-05T08:32:32Z</time>
      </trkpt>
      <trkpt lat="42.841575" lon="-.711073">
        <ele>1149.125</ele>
        <time>2020-09-05T08:32:35Z</time>
      </trkpt>
      <trkpt lat="42.841624" lon="-.711064">
        <ele>1153.208</ele>
        <time>2020-09-05T08:32:39Z</time>
      </trkpt>
      <trkpt lat="42.841624" lon="-.711064">
        <ele>1153.212</ele>
        <time>2020-09-05T08:32:39Z</time>
      </trkpt>
      <trkpt lat="42.841668" lon="-.711044">
        <ele>1155.643</ele>
        <time>2020-09-05T08:32:43Z</time>
      </trkpt>
      <trkpt lat="42.841709" lon="-.711002">
        <ele>1157.669</ele>
        <time>2020-09-05T08:32:47Z</time>
      </trkpt>
      <trkpt lat="42.841748" lon="-.710962">
        <ele>1159.017</ele>
        <time>2020-09-05T08:32:50Z</time>
      </trkpt>
      <trkpt lat="42.841783" lon="-.71092">
        <ele>1159.958</ele>
        <time>2020-09-05T08:32:55Z</time>
      </trkpt>
      <trkpt lat="42.84182" lon="-.710871">
        <ele>1159.825</ele>
        <time>2020-09-05T08:33:01Z</time>
      </trkpt>
      <trkpt lat="42.841863" lon="-.710838">
        <ele>1159.081</ele>
        <time>2020-09-05T08:33:05Z</time>
      </trkpt>
      <trkpt lat="42.841915" lon="-.710811">
        <ele>1156.881</ele>
        <time>2020-09-05T08:33:09Z</time>
      </trkpt>
      <trkpt lat="42.841915" lon="-.710811">
        <ele>1156.862</ele>
        <time>2020-09-05T08:33:09Z</time>
      </trkpt>
      <trkpt lat="42.841966" lon="-.710784">
        <ele>1155.883</ele>
        <time>2020-09-05T08:33:13Z</time>
      </trkpt>
      <trkpt lat="42.842019" lon="-.710751">
        <ele>1155.011</ele>
        <time>2020-09-05T08:33:17Z</time>
      </trkpt>
      <trkpt lat="42.842065" lon="-.710723">
        <ele>1153.908</ele>
        <time>2020-09-05T08:33:21Z</time>
      </trkpt>
      <trkpt lat="42.842108" lon="-.710706">
        <ele>1152.921</ele>
        <time>2020-09-05T08:33:24Z</time>
      </trkpt>
      <trkpt lat="42.842157" lon="-.710677">
        <ele>1152.232</ele>
        <time>2020-09-05T08:33:28Z</time>
      </trkpt>
      <trkpt lat="42.842204" lon="-.710648">
        <ele>1151.888</ele>
        <time>2020-09-05T08:33:31Z</time>
      </trkpt>
      <trkpt lat="42.842249" lon="-.710627">
        <ele>1151.596</ele>
        <time>2020-09-05T08:33:35Z</time>
      </trkpt>
      <trkpt lat="42.842296" lon="-.710598">
        <ele>1151.517</ele>
        <time>2020-09-05T08:33:40Z</time>
      </trkpt>
      <trkpt lat="42.84234" lon="-.710569">
        <ele>1151.664</ele>
        <time>2020-09-05T08:33:44Z</time>
      </trkpt>
      <trkpt lat="42.842387" lon="-.710541">
        <ele>1151.970</ele>
        <time>2020-09-05T08:33:49Z</time>
      </trkpt>
      <trkpt lat="42.842433" lon="-.710512">
        <ele>1152.470</ele>
        <time>2020-09-05T08:33:55Z</time>
      </trkpt>
      <trkpt lat="42.842478" lon="-.710484">
        <ele>1153.011</ele>
        <time>2020-09-05T08:34:01Z</time>
      </trkpt>
      <trkpt lat="42.842517" lon="-.710443">
        <ele>1153.521</ele>
        <time>2020-09-05T08:34:04Z</time>
      </trkpt>
      <trkpt lat="42.842572" lon="-.710443">
        <ele>1153.703</ele>
        <time>2020-09-05T08:34:08Z</time>
      </trkpt>
      <trkpt lat="42.842623" lon="-.710437">
        <ele>1153.908</ele>
        <time>2020-09-05T08:34:12Z</time>
      </trkpt>
      <trkpt lat="42.842678" lon="-.710431">
        <ele>1153.776</ele>
        <time>2020-09-05T08:34:16Z</time>
      </trkpt>
      <trkpt lat="42.842729" lon="-.710436">
        <ele>1153.737</ele>
        <time>2020-09-05T08:34:21Z</time>
      </trkpt>
      <trkpt lat="42.84278" lon="-.710434">
        <ele>1153.973</ele>
        <time>2020-09-05T08:34:26Z</time>
      </trkpt>
      <trkpt lat="42.842825" lon="-.710434">
        <ele>1154.061</ele>
        <time>2020-09-05T08:34:31Z</time>
      </trkpt>
      <trkpt lat="42.842871" lon="-.710434">
        <ele>1154.072</ele>
        <time>2020-09-05T08:34:37Z</time>
      </trkpt>
      <trkpt lat="42.842916" lon="-.710452">
        <ele>1153.879</ele>
        <time>2020-09-05T08:34:48Z</time>
      </trkpt>
      <trkpt lat="42.842916" lon="-.710452">
        <ele>1153.835</ele>
        <time>2020-09-05T08:34:48Z</time>
      </trkpt>
      <trkpt lat="42.842939" lon="-.710375">
        <ele>1153.895</ele>
        <time>2020-09-05T08:34:51Z</time>
      </trkpt>
      <trkpt lat="42.842965" lon="-.71032">
        <ele>1153.923</ele>
        <time>2020-09-05T08:34:54Z</time>
      </trkpt>
      <trkpt lat="42.84301" lon="-.710299">
        <ele>1154.383</ele>
        <time>2020-09-05T08:34:59Z</time>
      </trkpt>
      <trkpt lat="42.843058" lon="-.710304">
        <ele>1154.711</ele>
        <time>2020-09-05T08:35:03Z</time>
      </trkpt>
      <trkpt lat="42.843103" lon="-.710317">
        <ele>1155.408</ele>
        <time>2020-09-05T08:35:08Z</time>
      </trkpt>
      <trkpt lat="42.843134" lon="-.710365">
        <ele>1159.387</ele>
        <time>2020-09-05T08:35:13Z</time>
      </trkpt>
      <trkpt lat="42.843134" lon="-.710365">
        <ele>1159.388</ele>
        <time>2020-09-05T08:35:13Z</time>
      </trkpt>
      <trkpt lat="42.843171" lon="-.710413">
        <ele>1161.284</ele>
        <time>2020-09-05T08:35:17Z</time>
      </trkpt>
      <trkpt lat="42.843218" lon="-.710433">
        <ele>1163.132</ele>
        <time>2020-09-05T08:35:21Z</time>
      </trkpt>
      <trkpt lat="42.843218" lon="-.710433">
        <ele>1163.193</ele>
        <time>2020-09-05T08:35:21Z</time>
      </trkpt>
      <trkpt lat="42.843263" lon="-.710442">
        <ele>1163.880</ele>
        <time>2020-09-05T08:35:25Z</time>
      </trkpt>
      <trkpt lat="42.84331" lon="-.710437">
        <ele>1166.176</ele>
        <time>2020-09-05T08:35:29Z</time>
      </trkpt>
      <trkpt lat="42.843351" lon="-.710463">
        <ele>1169.246</ele>
        <time>2020-09-05T08:35:34Z</time>
      </trkpt>
      <trkpt lat="42.843388" lon="-.710512">
        <ele>1171.462</ele>
        <time>2020-09-05T08:35:40Z</time>
      </trkpt>
      <trkpt lat="42.843415" lon="-.710567">
        <ele>1173.583</ele>
        <time>2020-09-05T08:35:47Z</time>
      </trkpt>
      <trkpt lat="42.843454" lon="-.710606">
        <ele>1176.311</ele>
        <time>2020-09-05T08:35:51Z</time>
      </trkpt>
      <trkpt lat="42.843508" lon="-.71062">
        <ele>1177.508</ele>
        <time>2020-09-05T08:35:55Z</time>
      </trkpt>
      <trkpt lat="42.843557" lon="-.710602">
        <ele>1178.341</ele>
        <time>2020-09-05T08:36:00Z</time>
      </trkpt>
      <trkpt lat="42.843603" lon="-.71058">
        <ele>1178.772</ele>
        <time>2020-09-05T08:36:04Z</time>
      </trkpt>
      <trkpt lat="42.843647" lon="-.710547">
        <ele>1177.758</ele>
        <time>2020-09-05T08:36:09Z</time>
      </trkpt>
      <trkpt lat="42.843704" lon="-.710524">
        <ele>1175.356</ele>
        <time>2020-09-05T08:36:13Z</time>
      </trkpt>
      <trkpt lat="42.843756" lon="-.710512">
        <ele>1172.887</ele>
        <time>2020-09-05T08:36:16Z</time>
      </trkpt>
      <trkpt lat="42.843804" lon="-.710492">
        <ele>1170.444</ele>
        <time>2020-09-05T08:36:20Z</time>
      </trkpt>
      <trkpt lat="42.843855" lon="-.710471">
        <ele>1167.790</ele>
        <time>2020-09-05T08:36:24Z</time>
      </trkpt>
      <trkpt lat="42.843904" lon="-.71044">
        <ele>1164.950</ele>
        <time>2020-09-05T08:36:27Z</time>
      </trkpt>
      <trkpt lat="42.843945" lon="-.710403">
        <ele>1161.055</ele>
        <time>2020-09-05T08:36:30Z</time>
      </trkpt>
      <trkpt lat="42.843945" lon="-.710403">
        <ele>1161.007</ele>
        <time>2020-09-05T08:36:30Z</time>
      </trkpt>
      <trkpt lat="42.843985" lon="-.710371">
        <ele>1159.717</ele>
        <time>2020-09-05T08:36:33Z</time>
      </trkpt>
      <trkpt lat="42.84403" lon="-.710339">
        <ele>1158.508</ele>
        <time>2020-09-05T08:36:37Z</time>
      </trkpt>
      <trkpt lat="42.844066" lon="-.710298">
        <ele>1156.670</ele>
        <time>2020-09-05T08:36:41Z</time>
      </trkpt>
      <trkpt lat="42.844101" lon="-.710251">
        <ele>1154.651</ele>
        <time>2020-09-05T08:36:45Z</time>
      </trkpt>
      <trkpt lat="42.844141" lon="-.710212">
        <ele>1152.887</ele>
        <time>2020-09-05T08:36:48Z</time>
      </trkpt>
      <trkpt lat="42.844183" lon="-.710182">
        <ele>1151.225</ele>
        <time>2020-09-05T08:36:53Z</time>
      </trkpt>
      <trkpt lat="42.844224" lon="-.710156">
        <ele>1149.666</ele>
        <time>2020-09-05T08:36:58Z</time>
      </trkpt>
      <trkpt lat="42.84427" lon="-.71013">
        <ele>1148.113</ele>
        <time>2020-09-05T08:37:05Z</time>
      </trkpt>
      <trkpt lat="42.844316" lon="-.710138">
        <ele>1147.339</ele>
        <time>2020-09-05T08:37:10Z</time>
      </trkpt>
      <trkpt lat="42.844362" lon="-.710149">
        <ele>1147.059</ele>
        <time>2020-09-05T08:37:14Z</time>
      </trkpt>
      <trkpt lat="42.844409" lon="-.710154">
        <ele>1146.961</ele>
        <time>2020-09-05T08:37:17Z</time>
      </trkpt>
      <trkpt lat="42.844462" lon="-.710172">
        <ele>1149.721</ele>
        <time>2020-09-05T08:37:21Z</time>
      </trkpt>
      <trkpt lat="42.844462" lon="-.710172">
        <ele>1149.713</ele>
        <time>2020-09-05T08:37:21Z</time>
      </trkpt>
      <trkpt lat="42.844508" lon="-.710191">
        <ele>1151.008</ele>
        <time>2020-09-05T08:37:23Z</time>
      </trkpt>
      <trkpt lat="42.844551" lon="-.710208">
        <ele>1152.481</ele>
        <time>2020-09-05T08:37:25Z</time>
      </trkpt>
      <trkpt lat="42.844603" lon="-.710218">
        <ele>1153.422</ele>
        <time>2020-09-05T08:37:28Z</time>
      </trkpt>
      <trkpt lat="42.844648" lon="-.710229">
        <ele>1154.028</ele>
        <time>2020-09-05T08:37:33Z</time>
      </trkpt>
      <trkpt lat="42.844693" lon="-.710231">
        <ele>1154.446</ele>
        <time>2020-09-05T08:37:38Z</time>
      </trkpt>
      <trkpt lat="42.844742" lon="-.710222">
        <ele>1155.187</ele>
        <time>2020-09-05T08:37:43Z</time>
      </trkpt>
      <trkpt lat="42.844742" lon="-.710222">
        <ele>1155.194</ele>
        <time>2020-09-05T08:37:43Z</time>
      </trkpt>
      <trkpt lat="42.844793" lon="-.710213">
        <ele>1156.240</ele>
        <time>2020-09-05T08:37:49Z</time>
      </trkpt>
      <trkpt lat="42.844793" lon="-.710213">
        <ele>1156.240</ele>
        <time>2020-09-05T08:37:49Z</time>
      </trkpt>
      <trkpt lat="42.844839" lon="-.710217">
        <ele>1156.719</ele>
        <time>2020-09-05T08:37:52Z</time>
      </trkpt>
      <trkpt lat="42.844885" lon="-.710232">
        <ele>1157.709</ele>
        <time>2020-09-05T08:37:55Z</time>
      </trkpt>
      <trkpt lat="42.844935" lon="-.710244">
        <ele>1158.419</ele>
        <time>2020-09-05T08:37:59Z</time>
      </trkpt>
      <trkpt lat="42.844983" lon="-.710257">
        <ele>1158.908</ele>
        <time>2020-09-05T08:38:03Z</time>
      </trkpt>
      <trkpt lat="42.845029" lon="-.710268">
        <ele>1159.326</ele>
        <time>2020-09-05T08:38:07Z</time>
      </trkpt>
      <trkpt lat="42.845083" lon="-.710281">
        <ele>1160.047</ele>
        <time>2020-09-05T08:38:12Z</time>
      </trkpt>
      <trkpt lat="42.845135" lon="-.710296">
        <ele>1161.233</ele>
        <time>2020-09-05T08:38:15Z</time>
      </trkpt>
      <trkpt lat="42.845187" lon="-.710311">
        <ele>1161.961</ele>
        <time>2020-09-05T08:38:19Z</time>
      </trkpt>
      <trkpt lat="42.84525" lon="-.710327">
        <ele>1162.392</ele>
        <time>2020-09-05T08:38:27Z</time>
      </trkpt>
      <trkpt lat="42.845302" lon="-.710302">
        <ele>1162.559</ele>
        <time>2020-09-05T08:38:28Z</time>
      </trkpt>
      <trkpt lat="42.845349" lon="-.710265">
        <ele>1162.685</ele>
        <time>2020-09-05T08:38:30Z</time>
      </trkpt>
      <trkpt lat="42.845394" lon="-.710244">
        <ele>1162.625</ele>
        <time>2020-09-05T08:38:37Z</time>
      </trkpt>
      <trkpt lat="42.845444" lon="-.71024">
        <ele>1162.591</ele>
        <time>2020-09-05T08:38:42Z</time>
      </trkpt>
      <trkpt lat="42.845495" lon="-.710234">
        <ele>1162.481</ele>
        <time>2020-09-05T08:38:46Z</time>
      </trkpt>
      <trkpt lat="42.845541" lon="-.710212">
        <ele>1162.319</ele>
        <time>2020-09-05T08:38:50Z</time>
      </trkpt>
      <trkpt lat="42.845581" lon="-.710182">
        <ele>1162.308</ele>
        <time>2020-09-05T08:38:55Z</time>
      </trkpt>
      <trkpt lat="42.845619" lon="-.710148">
        <ele>1162.344</ele>
        <time>2020-09-05T08:38:58Z</time>
      </trkpt>
      <trkpt lat="42.845662" lon="-.710118">
        <ele>1162.235</ele>
        <time>2020-09-05T08:39:02Z</time>
      </trkpt>
      <trkpt lat="42.845704" lon="-.710088">
        <ele>1162.111</ele>
        <time>2020-09-05T08:39:06Z</time>
      </trkpt>
      <trkpt lat="42.84574" lon="-.710047">
        <ele>1161.929</ele>
        <time>2020-09-05T08:39:11Z</time>
      </trkpt>
      <trkpt lat="42.84577" lon="-.71">
        <ele>1161.630</ele>
        <time>2020-09-05T08:39:15Z</time>
      </trkpt>
      <trkpt lat="42.845793" lon="-.709941">
        <ele>1161.497</ele>
        <time>2020-09-05T08:39:19Z</time>
      </trkpt>
      <trkpt lat="42.845819" lon="-.709886">
        <ele>1161.143</ele>
        <time>2020-09-05T08:39:24Z</time>
      </trkpt>
      <trkpt lat="42.845861" lon="-.709854">
        <ele>1160.913</ele>
        <time>2020-09-05T08:39:29Z</time>
      </trkpt>
      <trkpt lat="42.845904" lon="-.709826">
        <ele>1160.742</ele>
        <time>2020-09-05T08:39:33Z</time>
      </trkpt>
      <trkpt lat="42.845945" lon="-.709789">
        <ele>1160.622</ele>
        <time>2020-09-05T08:39:37Z</time>
      </trkpt>
      <trkpt lat="42.845967" lon="-.709732">
        <ele>1160.514</ele>
        <time>2020-09-05T08:39:40Z</time>
      </trkpt>
      <trkpt lat="42.845983" lon="-.709663">
        <ele>1160.408</ele>
        <time>2020-09-05T08:39:43Z</time>
      </trkpt>
      <trkpt lat="42.845992" lon="-.709603">
        <ele>1160.499</ele>
        <time>2020-09-05T08:39:46Z</time>
      </trkpt>
      <trkpt lat="42.846003" lon="-.70954">
        <ele>1160.450</ele>
        <time>2020-09-05T08:39:49Z</time>
      </trkpt>
      <trkpt lat="42.846026" lon="-.709479">
        <ele>1160.336</ele>
        <time>2020-09-05T08:39:55Z</time>
      </trkpt>
      <trkpt lat="42.846051" lon="-.709428">
        <ele>1160.154</ele>
        <time>2020-09-05T08:39:59Z</time>
      </trkpt>
      <trkpt lat="42.846095" lon="-.709387">
        <ele>1159.925</ele>
        <time>2020-09-05T08:40:04Z</time>
      </trkpt>
      <trkpt lat="42.846132" lon="-.709345">
        <ele>1159.682</ele>
        <time>2020-09-05T08:40:07Z</time>
      </trkpt>
      <trkpt lat="42.84617" lon="-.709301">
        <ele>1159.348</ele>
        <time>2020-09-05T08:40:11Z</time>
      </trkpt>
      <trkpt lat="42.846211" lon="-.709264">
        <ele>1159.068</ele>
        <time>2020-09-05T08:40:14Z</time>
      </trkpt>
      <trkpt lat="42.846249" lon="-.709226">
        <ele>1158.918</ele>
        <time>2020-09-05T08:40:17Z</time>
      </trkpt>
      <trkpt lat="42.846278" lon="-.709172">
        <ele>1159.098</ele>
        <time>2020-09-05T08:40:20Z</time>
      </trkpt>
      <trkpt lat="42.846302" lon="-.709116">
        <ele>1158.417</ele>
        <time>2020-09-05T08:40:23Z</time>
      </trkpt>
      <trkpt lat="42.846335" lon="-.709063">
        <ele>1157.408</ele>
        <time>2020-09-05T08:40:28Z</time>
      </trkpt>
      <trkpt lat="42.846375" lon="-.709022">
        <ele>1157.316</ele>
        <time>2020-09-05T08:40:32Z</time>
      </trkpt>
      <trkpt lat="42.846416" lon="-.708984">
        <ele>1157.227</ele>
        <time>2020-09-05T08:40:36Z</time>
      </trkpt>
      <trkpt lat="42.846459" lon="-.708949">
        <ele>1157.083</ele>
        <time>2020-09-05T08:40:40Z</time>
      </trkpt>
      <trkpt lat="42.846508" lon="-.708922">
        <ele>1156.741</ele>
        <time>2020-09-05T08:40:46Z</time>
      </trkpt>
      <trkpt lat="42.846549" lon="-.708896">
        <ele>1156.762</ele>
        <time>2020-09-05T08:40:55Z</time>
      </trkpt>
      <trkpt lat="42.84662" lon="-.708928">
        <ele>1156.819</ele>
        <time>2020-09-05T08:41:08Z</time>
      </trkpt>
      <trkpt lat="42.846664" lon="-.708962">
        <ele>1157.275</ele>
        <time>2020-09-05T08:41:16Z</time>
      </trkpt>
      <trkpt lat="42.846684" lon="-.708896">
        <ele>1158.015</ele>
        <time>2020-09-05T08:41:24Z</time>
      </trkpt>
      <trkpt lat="42.846695" lon="-.70883">
        <ele>1159.239</ele>
        <time>2020-09-05T08:41:29Z</time>
      </trkpt>
      <trkpt lat="42.846698" lon="-.708759">
        <ele>1160.701</ele>
        <time>2020-09-05T08:41:33Z</time>
      </trkpt>
      <trkpt lat="42.846698" lon="-.708693">
        <ele>1161.921</ele>
        <time>2020-09-05T08:41:36Z</time>
      </trkpt>
      <trkpt lat="42.846701" lon="-.708629">
        <ele>1162.708</ele>
        <time>2020-09-05T08:41:39Z</time>
      </trkpt>
      <trkpt lat="42.846714" lon="-.708566">
        <ele>1162.658</ele>
        <time>2020-09-05T08:41:44Z</time>
      </trkpt>
      <trkpt lat="42.846725" lon="-.708504">
        <ele>1162.029</ele>
        <time>2020-09-05T08:41:48Z</time>
      </trkpt>
      <trkpt lat="42.846737" lon="-.708437">
        <ele>1160.865</ele>
        <time>2020-09-05T08:41:52Z</time>
      </trkpt>
      <trkpt lat="42.846769" lon="-.708389">
        <ele>1159.943</ele>
        <time>2020-09-05T08:41:57Z</time>
      </trkpt>
      <trkpt lat="42.846818" lon="-.708377">
        <ele>1158.774</ele>
        <time>2020-09-05T08:42:02Z</time>
      </trkpt>
      <trkpt lat="42.846872" lon="-.708357">
        <ele>1157.781</ele>
        <time>2020-09-05T08:42:05Z</time>
      </trkpt>
      <trkpt lat="42.846914" lon="-.708317">
        <ele>1157.057</ele>
        <time>2020-09-05T08:42:09Z</time>
      </trkpt>
      <trkpt lat="42.846944" lon="-.70827">
        <ele>1156.427</ele>
        <time>2020-09-05T08:42:12Z</time>
      </trkpt>
      <trkpt lat="42.846974" lon="-.708216">
        <ele>1156.021</ele>
        <time>2020-09-05T08:42:17Z</time>
      </trkpt>
      <trkpt lat="42.847018" lon="-.708191">
        <ele>1156.141</ele>
        <time>2020-09-05T08:42:21Z</time>
      </trkpt>
      <trkpt lat="42.847065" lon="-.70819">
        <ele>1156.605</ele>
        <time>2020-09-05T08:42:24Z</time>
      </trkpt>
      <trkpt lat="42.847115" lon="-.708184">
        <ele>1156.908</ele>
        <time>2020-09-05T08:42:28Z</time>
      </trkpt>
      <trkpt lat="42.847167" lon="-.708188">
        <ele>1157.127</ele>
        <time>2020-09-05T08:42:32Z</time>
      </trkpt>
      <trkpt lat="42.847205" lon="-.708225">
        <ele>1157.478</ele>
        <time>2020-09-05T08:42:36Z</time>
      </trkpt>
      <trkpt lat="42.847244" lon="-.708261">
        <ele>1158.054</ele>
        <time>2020-09-05T08:42:40Z</time>
      </trkpt>
      <trkpt lat="42.847287" lon="-.708283">
        <ele>1158.582</ele>
        <time>2020-09-05T08:42:44Z</time>
      </trkpt>
      <trkpt lat="42.847336" lon="-.708282">
        <ele>1159.033</ele>
        <time>2020-09-05T08:42:50Z</time>
      </trkpt>
      <trkpt lat="42.847384" lon="-.708295">
        <ele>1159.540</ele>
        <time>2020-09-05T08:42:54Z</time>
      </trkpt>
      <trkpt lat="42.847432" lon="-.708314">
        <ele>1160.076</ele>
        <time>2020-09-05T08:42:58Z</time>
      </trkpt>
      <trkpt lat="42.84748" lon="-.70833">
        <ele>1160.536</ele>
        <time>2020-09-05T08:43:01Z</time>
      </trkpt>
      <trkpt lat="42.847525" lon="-.708342">
        <ele>1161.786</ele>
        <time>2020-09-05T08:43:05Z</time>
      </trkpt>
      <trkpt lat="42.847573" lon="-.708339">
        <ele>1163.360</ele>
        <time>2020-09-05T08:43:08Z</time>
      </trkpt>
      <trkpt lat="42.847619" lon="-.708323">
        <ele>1164.626</ele>
        <time>2020-09-05T08:43:14Z</time>
      </trkpt>
      <trkpt lat="42.847661" lon="-.708346">
        <ele>1166.208</ele>
        <time>2020-09-05T08:43:19Z</time>
      </trkpt>
      <trkpt lat="42.847703" lon="-.708378">
        <ele>1167.713</ele>
        <time>2020-09-05T08:43:24Z</time>
      </trkpt>
      <trkpt lat="42.847742" lon="-.708414">
        <ele>1168.974</ele>
        <time>2020-09-05T08:43:27Z</time>
      </trkpt>
      <trkpt lat="42.84778" lon="-.708455">
        <ele>1169.830</ele>
        <time>2020-09-05T08:43:32Z</time>
      </trkpt>
      <trkpt lat="42.847824" lon="-.708482">
        <ele>1170.888</ele>
        <time>2020-09-05T08:43:38Z</time>
      </trkpt>
      <trkpt lat="42.847868" lon="-.708468">
        <ele>1171.559</ele>
        <time>2020-09-05T08:43:43Z</time>
      </trkpt>
      <trkpt lat="42.847911" lon="-.708427">
        <ele>1172.866</ele>
        <time>2020-09-05T08:43:47Z</time>
      </trkpt>
      <trkpt lat="42.847941" lon="-.708377">
        <ele>1173.922</ele>
        <time>2020-09-05T08:43:50Z</time>
      </trkpt>
      <trkpt lat="42.84798" lon="-.708339">
        <ele>1175.232</ele>
        <time>2020-09-05T08:43:55Z</time>
      </trkpt>
      <trkpt lat="42.84802" lon="-.708304">
        <ele>1176.377</ele>
        <time>2020-09-05T08:43:59Z</time>
      </trkpt>
      <trkpt lat="42.848061" lon="-.708273">
        <ele>1177.361</ele>
        <time>2020-09-05T08:44:04Z</time>
      </trkpt>
      <trkpt lat="42.848116" lon="-.708259">
        <ele>1178.627</ele>
        <time>2020-09-05T08:44:08Z</time>
      </trkpt>
      <trkpt lat="42.848168" lon="-.708263">
        <ele>1179.408</ele>
        <time>2020-09-05T08:44:10Z</time>
      </trkpt>
      <trkpt lat="42.848219" lon="-.70827">
        <ele>1180.142</ele>
        <time>2020-09-05T08:44:13Z</time>
      </trkpt>
      <trkpt lat="42.848265" lon="-.708271">
        <ele>1181.293</ele>
        <time>2020-09-05T08:44:16Z</time>
      </trkpt>
      <trkpt lat="42.84831" lon="-.708259">
        <ele>1182.349</ele>
        <time>2020-09-05T08:44:19Z</time>
      </trkpt>
      <trkpt lat="42.848364" lon="-.708233">
        <ele>1183.217</ele>
        <time>2020-09-05T08:44:23Z</time>
      </trkpt>
      <trkpt lat="42.848407" lon="-.708204">
        <ele>1183.978</ele>
        <time>2020-09-05T08:44:26Z</time>
      </trkpt>
      <trkpt lat="42.848454" lon="-.708174">
        <ele>1184.775</ele>
        <time>2020-09-05T08:44:31Z</time>
      </trkpt>
      <trkpt lat="42.848496" lon="-.708141">
        <ele>1185.751</ele>
        <time>2020-09-05T08:44:36Z</time>
      </trkpt>
      <trkpt lat="42.848527" lon="-.708086">
        <ele>1185.771</ele>
        <time>2020-09-05T08:44:40Z</time>
      </trkpt>
      <trkpt lat="42.848565" lon="-.708045">
        <ele>1185.272</ele>
        <time>2020-09-05T08:44:44Z</time>
      </trkpt>
      <trkpt lat="42.848606" lon="-.708006">
        <ele>1185.113</ele>
        <time>2020-09-05T08:44:49Z</time>
      </trkpt>
      <trkpt lat="42.848642" lon="-.70796">
        <ele>1184.914</ele>
        <time>2020-09-05T08:44:53Z</time>
      </trkpt>
      <trkpt lat="42.848674" lon="-.707909">
        <ele>1184.908</ele>
        <time>2020-09-05T08:44:57Z</time>
      </trkpt>
      <trkpt lat="42.848707" lon="-.70786">
        <ele>1185.082</ele>
        <time>2020-09-05T08:45:01Z</time>
      </trkpt>
      <trkpt lat="42.848733" lon="-.707808">
        <ele>1185.373</ele>
        <time>2020-09-05T08:45:05Z</time>
      </trkpt>
      <trkpt lat="42.848754" lon="-.707745">
        <ele>1185.569</ele>
        <time>2020-09-05T08:45:09Z</time>
      </trkpt>
      <trkpt lat="42.848781" lon="-.707681">
        <ele>1185.617</ele>
        <time>2020-09-05T08:45:13Z</time>
      </trkpt>
      <trkpt lat="42.848808" lon="-.707632">
        <ele>1185.678</ele>
        <time>2020-09-05T08:45:18Z</time>
      </trkpt>
      <trkpt lat="42.848852" lon="-.707589">
        <ele>1185.645</ele>
        <time>2020-09-05T08:45:22Z</time>
      </trkpt>
      <trkpt lat="42.848888" lon="-.707547">
        <ele>1185.661</ele>
        <time>2020-09-05T08:45:27Z</time>
      </trkpt>
      <trkpt lat="42.84892" lon="-.7075">
        <ele>1185.411</ele>
        <time>2020-09-05T08:45:31Z</time>
      </trkpt>
      <trkpt lat="42.848942" lon="-.707437">
        <ele>1185.066</ele>
        <time>2020-09-05T08:45:34Z</time>
      </trkpt>
      <trkpt lat="42.848946" lon="-.707375">
        <ele>1184.529</ele>
        <time>2020-09-05T08:45:39Z</time>
      </trkpt>
      <trkpt lat="42.848962" lon="-.707314">
        <ele>1184.121</ele>
        <time>2020-09-05T08:45:44Z</time>
      </trkpt>
      <trkpt lat="42.848995" lon="-.707267">
        <ele>1183.508</ele>
        <time>2020-09-05T08:45:51Z</time>
      </trkpt>
      <trkpt lat="42.848997" lon="-.707193">
        <ele>1183.151</ele>
        <time>2020-09-05T08:45:56Z</time>
      </trkpt>
      <trkpt lat="42.848995" lon="-.707129">
        <ele>1183.082</ele>
        <time>2020-09-05T08:45:59Z</time>
      </trkpt>
      <trkpt lat="42.849004" lon="-.707065">
        <ele>1183.018</ele>
        <time>2020-09-05T08:46:03Z</time>
      </trkpt>
      <trkpt lat="42.849022" lon="-.707007">
        <ele>1183.176</ele>
        <time>2020-09-05T08:46:08Z</time>
      </trkpt>
      <trkpt lat="42.849039" lon="-.706944">
        <ele>1183.397</ele>
        <time>2020-09-05T08:46:14Z</time>
      </trkpt>
      <trkpt lat="42.849033" lon="-.706875">
        <ele>1183.754</ele>
        <time>2020-09-05T08:46:19Z</time>
      </trkpt>
      <trkpt lat="42.849022" lon="-.706804">
        <ele>1184.260</ele>
        <time>2020-09-05T08:46:24Z</time>
      </trkpt>
      <trkpt lat="42.849001" lon="-.706726">
        <ele>1185.930</ele>
        <time>2020-09-05T08:46:29Z</time>
      </trkpt>
      <trkpt lat="42.848984" lon="-.70666">
        <ele>1187.153</ele>
        <time>2020-09-05T08:46:32Z</time>
      </trkpt>
      <trkpt lat="42.848969" lon="-.706597">
        <ele>1187.904</ele>
        <time>2020-09-05T08:46:35Z</time>
      </trkpt>
      <trkpt lat="42.848958" lon="-.706533">
        <ele>1188.814</ele>
        <time>2020-09-05T08:46:39Z</time>
      </trkpt>
      <trkpt lat="42.848947" lon="-.706467">
        <ele>1190.408</ele>
        <time>2020-09-05T08:46:43Z</time>
      </trkpt>
      <trkpt lat="42.848935" lon="-.706402">
        <ele>1192.270</ele>
        <time>2020-09-05T08:46:46Z</time>
      </trkpt>
      <trkpt lat="42.848913" lon="-.706338">
        <ele>1194.271</ele>
        <time>2020-09-05T08:46:51Z</time>
      </trkpt>
      <trkpt lat="42.848911" lon="-.706272">
        <ele>1195.887</ele>
        <time>2020-09-05T08:46:56Z</time>
      </trkpt>
      <trkpt lat="42.848923" lon="-.706206">
        <ele>1197.875</ele>
        <time>2020-09-05T08:47:11Z</time>
      </trkpt>
      <trkpt lat="42.848957" lon="-.706152">
        <ele>1199.456</ele>
        <time>2020-09-05T08:47:14Z</time>
      </trkpt>
      <trkpt lat="42.848985" lon="-.706093">
        <ele>1200.373</ele>
        <time>2020-09-05T08:47:18Z</time>
      </trkpt>
      <trkpt lat="42.84899" lon="-.706025">
        <ele>1200.299</ele>
        <time>2020-09-05T08:47:21Z</time>
      </trkpt>
      <trkpt lat="42.848983" lon="-.705953">
        <ele>1200.399</ele>
        <time>2020-09-05T08:47:24Z</time>
      </trkpt>
      <trkpt lat="42.848986" lon="-.70589">
        <ele>1200.244</ele>
        <time>2020-09-05T08:47:27Z</time>
      </trkpt>
      <trkpt lat="42.848995" lon="-.705816">
        <ele>1199.905</ele>
        <time>2020-09-05T08:47:32Z</time>
      </trkpt>
      <trkpt lat="42.848999" lon="-.705743">
        <ele>1199.515</ele>
        <time>2020-09-05T08:47:36Z</time>
      </trkpt>
      <trkpt lat="42.848982" lon="-.705678">
        <ele>1199.308</ele>
        <time>2020-09-05T08:47:41Z</time>
      </trkpt>
      <trkpt lat="42.848954" lon="-.70562">
        <ele>1199.199</ele>
        <time>2020-09-05T08:47:46Z</time>
      </trkpt>
      <trkpt lat="42.848934" lon="-.705561">
        <ele>1198.520</ele>
        <time>2020-09-05T08:47:50Z</time>
      </trkpt>
      <trkpt lat="42.848921" lon="-.7055">
        <ele>1197.886</ele>
        <time>2020-09-05T08:47:53Z</time>
      </trkpt>
      <trkpt lat="42.848905" lon="-.705439">
        <ele>1197.094</ele>
        <time>2020-09-05T08:47:57Z</time>
      </trkpt>
      <trkpt lat="42.848898" lon="-.705365">
        <ele>1195.565</ele>
        <time>2020-09-05T08:48:02Z</time>
      </trkpt>
      <trkpt lat="42.848903" lon="-.705304">
        <ele>1194.342</ele>
        <time>2020-09-05T08:48:06Z</time>
      </trkpt>
      <trkpt lat="42.848912" lon="-.705238">
        <ele>1193.138</ele>
        <time>2020-09-05T08:48:12Z</time>
      </trkpt>
      <trkpt lat="42.848919" lon="-.705176">
        <ele>1192.348</ele>
        <time>2020-09-05T08:48:17Z</time>
      </trkpt>
      <trkpt lat="42.84893" lon="-.705114">
        <ele>1191.415</ele>
        <time>2020-09-05T08:48:22Z</time>
      </trkpt>
      <trkpt lat="42.848956" lon="-.705061">
        <ele>1190.365</ele>
        <time>2020-09-05T08:48:28Z</time>
      </trkpt>
      <trkpt lat="42.848995" lon="-.705027">
        <ele>1189.411</ele>
        <time>2020-09-05T08:48:31Z</time>
      </trkpt>
      <trkpt lat="42.849033" lon="-.704992">
        <ele>1188.608</ele>
        <time>2020-09-05T08:48:35Z</time>
      </trkpt>
      <trkpt lat="42.849064" lon="-.704945">
        <ele>1187.726</ele>
        <time>2020-09-05T08:48:38Z</time>
      </trkpt>
      <trkpt lat="42.84909" lon="-.704874">
        <ele>1186.817</ele>
        <time>2020-09-05T08:48:42Z</time>
      </trkpt>
      <trkpt lat="42.849122" lon="-.704814">
        <ele>1186.083</ele>
        <time>2020-09-05T08:48:45Z</time>
      </trkpt>
      <trkpt lat="42.849157" lon="-.704758">
        <ele>1185.161</ele>
        <time>2020-09-05T08:48:49Z</time>
      </trkpt>
      <trkpt lat="42.849187" lon="-.70471">
        <ele>1184.532</ele>
        <time>2020-09-05T08:48:52Z</time>
      </trkpt>
      <trkpt lat="42.849229" lon="-.704655">
        <ele>1183.979</ele>
        <time>2020-09-05T08:48:56Z</time>
      </trkpt>
      <trkpt lat="42.849268" lon="-.704615">
        <ele>1183.355</ele>
        <time>2020-09-05T08:48:59Z</time>
      </trkpt>
      <trkpt lat="42.849305" lon="-.704579">
        <ele>1182.695</ele>
        <time>2020-09-05T08:49:02Z</time>
      </trkpt>
      <trkpt lat="42.84935" lon="-.704558">
        <ele>1182.157</ele>
        <time>2020-09-05T08:49:06Z</time>
      </trkpt>
      <trkpt lat="42.849397" lon="-.704536">
        <ele>1181.700</ele>
        <time>2020-09-05T08:49:10Z</time>
      </trkpt>
      <trkpt lat="42.849442" lon="-.704512">
        <ele>1181.320</ele>
        <time>2020-09-05T08:49:13Z</time>
      </trkpt>
      <trkpt lat="42.849484" lon="-.704487">
        <ele>1181.008</ele>
        <time>2020-09-05T08:49:17Z</time>
      </trkpt>
      <trkpt lat="42.84953" lon="-.704449">
        <ele>1181.310</ele>
        <time>2020-09-05T08:49:23Z</time>
      </trkpt>
      <trkpt lat="42.849564" lon="-.704395">
        <ele>1182.391</ele>
        <time>2020-09-05T08:49:27Z</time>
      </trkpt>
      <trkpt lat="42.849608" lon="-.704357">
        <ele>1183.567</ele>
        <time>2020-09-05T08:49:33Z</time>
      </trkpt>
      <trkpt lat="42.84965" lon="-.704325">
        <ele>1184.455</ele>
        <time>2020-09-05T08:49:38Z</time>
      </trkpt>
      <trkpt lat="42.849699" lon="-.704312">
        <ele>1185.656</ele>
        <time>2020-09-05T08:49:42Z</time>
      </trkpt>
      <trkpt lat="42.849745" lon="-.704297">
        <ele>1186.553</ele>
        <time>2020-09-05T08:49:45Z</time>
      </trkpt>
      <trkpt lat="42.84979" lon="-.704288">
        <ele>1187.399</ele>
        <time>2020-09-05T08:49:49Z</time>
      </trkpt>
      <trkpt lat="42.849836" lon="-.704288">
        <ele>1188.369</ele>
        <time>2020-09-05T08:49:52Z</time>
      </trkpt>
      <trkpt lat="42.849886" lon="-.704291">
        <ele>1189.779</ele>
        <time>2020-09-05T08:49:56Z</time>
      </trkpt>
      <trkpt lat="42.849934" lon="-.704266">
        <ele>1191.005</ele>
        <time>2020-09-05T08:50:00Z</time>
      </trkpt>
      <trkpt lat="42.849981" lon="-.704242">
        <ele>1192.025</ele>
        <time>2020-09-05T08:50:03Z</time>
      </trkpt>
      <trkpt lat="42.850027" lon="-.704216">
        <ele>1192.808</ele>
        <time>2020-09-05T08:50:07Z</time>
      </trkpt>
      <trkpt lat="42.850063" lon="-.704176">
        <ele>1193.472</ele>
        <time>2020-09-05T08:50:13Z</time>
      </trkpt>
      <trkpt lat="42.850102" lon="-.704145">
        <ele>1194.573</ele>
        <time>2020-09-05T08:50:18Z</time>
      </trkpt>
      <trkpt lat="42.850152" lon="-.704139">
        <ele>1196.379</ele>
        <time>2020-09-05T08:50:22Z</time>
      </trkpt>
      <trkpt lat="42.850196" lon="-.704114">
        <ele>1197.397</ele>
        <time>2020-09-05T08:50:26Z</time>
      </trkpt>
      <trkpt lat="42.850242" lon="-.704094">
        <ele>1198.178</ele>
        <time>2020-09-05T08:50:29Z</time>
      </trkpt>
      <trkpt lat="42.85029" lon="-.704073">
        <ele>1198.865</ele>
        <time>2020-09-05T08:50:31Z</time>
      </trkpt>
      <trkpt lat="42.850335" lon="-.704048">
        <ele>1199.671</ele>
        <time>2020-09-05T08:50:34Z</time>
      </trkpt>
      <trkpt lat="42.850381" lon="-.70401">
        <ele>1200.271</ele>
        <time>2020-09-05T08:50:38Z</time>
      </trkpt>
      <trkpt lat="42.850423" lon="-.703974">
        <ele>1200.928</ele>
        <time>2020-09-05T08:50:42Z</time>
      </trkpt>
      <trkpt lat="42.850467" lon="-.703953">
        <ele>1201.989</ele>
        <time>2020-09-05T08:50:46Z</time>
      </trkpt>
      <trkpt lat="42.850515" lon="-.703938">
        <ele>1202.317</ele>
        <time>2020-09-05T08:50:49Z</time>
      </trkpt>
      <trkpt lat="42.850561" lon="-.70392">
        <ele>1202.808</ele>
        <time>2020-09-05T08:50:52Z</time>
      </trkpt>
      <trkpt lat="42.850608" lon="-.703897">
        <ele>1203.357</ele>
        <time>2020-09-05T08:50:57Z</time>
      </trkpt>
      <trkpt lat="42.850659" lon="-.703876">
        <ele>1204.038</ele>
        <time>2020-09-05T08:51:01Z</time>
      </trkpt>
      <trkpt lat="42.850699" lon="-.703843">
        <ele>1204.694</ele>
        <time>2020-09-05T08:51:04Z</time>
      </trkpt>
      <trkpt lat="42.850734" lon="-.703797">
        <ele>1205.832</ele>
        <time>2020-09-05T08:51:09Z</time>
      </trkpt>
      <trkpt lat="42.85076" lon="-.70374">
        <ele>1206.883</ele>
        <time>2020-09-05T08:51:13Z</time>
      </trkpt>
      <trkpt lat="42.850792" lon="-.703691">
        <ele>1206.740</ele>
        <time>2020-09-05T08:51:17Z</time>
      </trkpt>
      <trkpt lat="42.850832" lon="-.703654">
        <ele>1205.326</ele>
        <time>2020-09-05T08:51:21Z</time>
      </trkpt>
      <trkpt lat="42.85087" lon="-.703619">
        <ele>1204.426</ele>
        <time>2020-09-05T08:51:24Z</time>
      </trkpt>
      <trkpt lat="42.850907" lon="-.703577">
        <ele>1203.762</ele>
        <time>2020-09-05T08:51:29Z</time>
      </trkpt>
      <trkpt lat="42.850944" lon="-.703529">
        <ele>1202.683</ele>
        <time>2020-09-05T08:51:34Z</time>
      </trkpt>
      <trkpt lat="42.850979" lon="-.703484">
        <ele>1201.911</ele>
        <time>2020-09-05T08:51:37Z</time>
      </trkpt>
      <trkpt lat="42.851016" lon="-.70344">
        <ele>1201.408</ele>
        <time>2020-09-05T08:51:41Z</time>
      </trkpt>
      <trkpt lat="42.851053" lon="-.703403">
        <ele>1200.811</ele>
        <time>2020-09-05T08:51:45Z</time>
      </trkpt>
      <trkpt lat="42.851091" lon="-.70336">
        <ele>1198.272</ele>
        <time>2020-09-05T08:51:50Z</time>
      </trkpt>
      <trkpt lat="42.851126" lon="-.70332">
        <ele>1195.578</ele>
        <time>2020-09-05T08:51:54Z</time>
      </trkpt>
      <trkpt lat="42.851153" lon="-.703266">
        <ele>1193.456</ele>
        <time>2020-09-05T08:51:58Z</time>
      </trkpt>
      <trkpt lat="42.851179" lon="-.703208">
        <ele>1192.247</ele>
        <time>2020-09-05T08:52:03Z</time>
      </trkpt>
      <trkpt lat="42.851183" lon="-.703143">
        <ele>1191.354</ele>
        <time>2020-09-05T08:52:07Z</time>
      </trkpt>
      <trkpt lat="42.851194" lon="-.703071">
        <ele>1190.710</ele>
        <time>2020-09-05T08:52:11Z</time>
      </trkpt>
      <trkpt lat="42.851213" lon="-.703008">
        <ele>1190.320</ele>
        <time>2020-09-05T08:52:14Z</time>
      </trkpt>
      <trkpt lat="42.851238" lon="-.702957">
        <ele>1190.218</ele>
        <time>2020-09-05T08:52:19Z</time>
      </trkpt>
      <trkpt lat="42.851271" lon="-.702909">
        <ele>1191.498</ele>
        <time>2020-09-05T08:52:24Z</time>
      </trkpt>
      <trkpt lat="42.851307" lon="-.702866">
        <ele>1192.517</ele>
        <time>2020-09-05T08:52:29Z</time>
      </trkpt>
      <trkpt lat="42.851338" lon="-.702814">
        <ele>1193.508</ele>
        <time>2020-09-05T08:52:34Z</time>
      </trkpt>
      <trkpt lat="42.851354" lon="-.702753">
        <ele>1194.256</ele>
        <time>2020-09-05T08:52:38Z</time>
      </trkpt>
      <trkpt lat="42.851362" lon="-.702691">
        <ele>1194.857</ele>
        <time>2020-09-05T08:52:41Z</time>
      </trkpt>
      <trkpt lat="42.851364" lon="-.702629">
        <ele>1195.383</ele>
        <time>2020-09-05T08:52:44Z</time>
      </trkpt>
      <trkpt lat="42.851356" lon="-.702561">
        <ele>1195.291</ele>
        <time>2020-09-05T08:52:49Z</time>
      </trkpt>
      <trkpt lat="42.851343" lon="-.702498">
        <ele>1196.042</ele>
        <time>2020-09-05T08:52:52Z</time>
      </trkpt>
      <trkpt lat="42.851348" lon="-.70243">
        <ele>1196.119</ele>
        <time>2020-09-05T08:52:57Z</time>
      </trkpt>
      <trkpt lat="42.85136" lon="-.702367">
        <ele>1195.865</ele>
        <time>2020-09-05T08:53:02Z</time>
      </trkpt>
      <trkpt lat="42.851361" lon="-.702301">
        <ele>1195.615</ele>
        <time>2020-09-05T08:53:06Z</time>
      </trkpt>
      <trkpt lat="42.851366" lon="-.702237">
        <ele>1195.015</ele>
        <time>2020-09-05T08:53:10Z</time>
      </trkpt>
      <trkpt lat="42.851381" lon="-.702173">
        <ele>1194.765</ele>
        <time>2020-09-05T08:53:13Z</time>
      </trkpt>
      <trkpt lat="42.851395" lon="-.70211">
        <ele>1194.411</ele>
        <time>2020-09-05T08:53:17Z</time>
      </trkpt>
      <trkpt lat="42.851395" lon="-.702045">
        <ele>1194.108</ele>
        <time>2020-09-05T08:53:21Z</time>
      </trkpt>
      <trkpt lat="42.851383" lon="-.701981">
        <ele>1193.896</ele>
        <time>2020-09-05T08:53:24Z</time>
      </trkpt>
      <trkpt lat="42.851369" lon="-.701919">
        <ele>1193.657</ele>
        <time>2020-09-05T08:53:27Z</time>
      </trkpt>
      <trkpt lat="42.851367" lon="-.701852">
        <ele>1193.413</ele>
        <time>2020-09-05T08:53:30Z</time>
      </trkpt>
      <trkpt lat="42.851375" lon="-.701786">
        <ele>1193.151</ele>
        <time>2020-09-05T08:53:35Z</time>
      </trkpt>
      <trkpt lat="42.851402" lon="-.701728">
        <ele>1192.952</ele>
        <time>2020-09-05T08:53:39Z</time>
      </trkpt>
      <trkpt lat="42.851427" lon="-.701674">
        <ele>1192.859</ele>
        <time>2020-09-05T08:53:43Z</time>
      </trkpt>
      <trkpt lat="42.851441" lon="-.701608">
        <ele>1193.395</ele>
        <time>2020-09-05T08:53:47Z</time>
      </trkpt>
      <trkpt lat="42.851455" lon="-.701542">
        <ele>1194.175</ele>
        <time>2020-09-05T08:53:51Z</time>
      </trkpt>
      <trkpt lat="42.851471" lon="-.701484">
        <ele>1194.717</ele>
        <time>2020-09-05T08:53:56Z</time>
      </trkpt>
      <trkpt lat="42.851484" lon="-.701415">
        <ele>1194.687</ele>
        <time>2020-09-05T08:54:00Z</time>
      </trkpt>
      <trkpt lat="42.851494" lon="-.701354">
        <ele>1194.615</ele>
        <time>2020-09-05T08:54:03Z</time>
      </trkpt>
      <trkpt lat="42.851508" lon="-.701294">
        <ele>1195.208</ele>
        <time>2020-09-05T08:54:06Z</time>
      </trkpt>
      <trkpt lat="42.851519" lon="-.701229">
        <ele>1196.046</ele>
        <time>2020-09-05T08:54:13Z</time>
      </trkpt>
      <trkpt lat="42.851537" lon="-.701172">
        <ele>1197.787</ele>
        <time>2020-09-05T08:54:18Z</time>
      </trkpt>
      <trkpt lat="42.851551" lon="-.701109">
        <ele>1199.483</ele>
        <time>2020-09-05T08:54:23Z</time>
      </trkpt>
      <trkpt lat="42.851561" lon="-.701048">
        <ele>1201.171</ele>
        <time>2020-09-05T08:54:26Z</time>
      </trkpt>
      <trkpt lat="42.851561" lon="-.700982">
        <ele>1202.722</ele>
        <time>2020-09-05T08:54:29Z</time>
      </trkpt>
      <trkpt lat="42.851562" lon="-.700909">
        <ele>1203.939</ele>
        <time>2020-09-05T08:54:33Z</time>
      </trkpt>
      <trkpt lat="42.851565" lon="-.700847">
        <ele>1205.235</ele>
        <time>2020-09-05T08:54:37Z</time>
      </trkpt>
      <trkpt lat="42.851559" lon="-.700778">
        <ele>1206.795</ele>
        <time>2020-09-05T08:54:41Z</time>
      </trkpt>
      <trkpt lat="42.851557" lon="-.700711">
        <ele>1207.854</ele>
        <time>2020-09-05T08:54:44Z</time>
      </trkpt>
      <trkpt lat="42.851554" lon="-.700648">
        <ele>1208.756</ele>
        <time>2020-09-05T08:54:48Z</time>
      </trkpt>
      <trkpt lat="42.851545" lon="-.700585">
        <ele>1209.611</ele>
        <time>2020-09-05T08:54:52Z</time>
      </trkpt>
      <trkpt lat="42.851533" lon="-.700526">
        <ele>1210.608</ele>
        <time>2020-09-05T08:54:56Z</time>
      </trkpt>
      <trkpt lat="42.851539" lon="-.70046">
        <ele>1211.680</ele>
        <time>2020-09-05T08:55:01Z</time>
      </trkpt>
      <trkpt lat="42.851539" lon="-.700396">
        <ele>1212.781</ele>
        <time>2020-09-05T08:55:06Z</time>
      </trkpt>
      <trkpt lat="42.851541" lon="-.700331">
        <ele>1213.597</ele>
        <time>2020-09-05T08:55:11Z</time>
      </trkpt>
      <trkpt lat="42.851557" lon="-.700272">
        <ele>1214.235</ele>
        <time>2020-09-05T08:55:16Z</time>
      </trkpt>
      <trkpt lat="42.851558" lon="-.700207">
        <ele>1214.796</ele>
        <time>2020-09-05T08:55:20Z</time>
      </trkpt>
      <trkpt lat="42.851561" lon="-.700132">
        <ele>1215.143</ele>
        <time>2020-09-05T08:55:24Z</time>
      </trkpt>
      <trkpt lat="42.851571" lon="-.700065">
        <ele>1215.929</ele>
        <time>2020-09-05T08:55:28Z</time>
      </trkpt>
      <trkpt lat="42.851584" lon="-.700005">
        <ele>1216.899</ele>
        <time>2020-09-05T08:55:31Z</time>
      </trkpt>
      <trkpt lat="42.851597" lon="-.699936">
        <ele>1217.587</ele>
        <time>2020-09-05T08:55:34Z</time>
      </trkpt>
      <trkpt lat="42.85161" lon="-.699876">
        <ele>1218.042</ele>
        <time>2020-09-05T08:55:37Z</time>
      </trkpt>
      <trkpt lat="42.85163" lon="-.699815">
        <ele>1218.526</ele>
        <time>2020-09-05T08:55:42Z</time>
      </trkpt>
      <trkpt lat="42.851642" lon="-.699753">
        <ele>1219.208</ele>
        <time>2020-09-05T08:55:46Z</time>
      </trkpt>
      <trkpt lat="42.851644" lon="-.699692">
        <ele>1219.653</ele>
        <time>2020-09-05T08:55:50Z</time>
      </trkpt>
      <trkpt lat="42.851662" lon="-.699631">
        <ele>1219.434</ele>
        <time>2020-09-05T08:55:54Z</time>
      </trkpt>
      <trkpt lat="42.85168" lon="-.699571">
        <ele>1218.670</ele>
        <time>2020-09-05T08:55:59Z</time>
      </trkpt>
      <trkpt lat="42.851697" lon="-.699513">
        <ele>1217.928</ele>
        <time>2020-09-05T08:56:05Z</time>
      </trkpt>
      <trkpt lat="42.851708" lon="-.699452">
        <ele>1217.519</ele>
        <time>2020-09-05T08:56:09Z</time>
      </trkpt>
      <trkpt lat="42.851722" lon="-.699392">
        <ele>1217.486</ele>
        <time>2020-09-05T08:56:13Z</time>
      </trkpt>
      <trkpt lat="42.851733" lon="-.699332">
        <ele>1217.462</ele>
        <time>2020-09-05T08:56:18Z</time>
      </trkpt>
      <trkpt lat="42.851738" lon="-.699259">
        <ele>1216.932</ele>
        <time>2020-09-05T08:56:22Z</time>
      </trkpt>
      <trkpt lat="42.851748" lon="-.699199">
        <ele>1216.497</ele>
        <time>2020-09-05T08:56:26Z</time>
      </trkpt>
      <trkpt lat="42.851766" lon="-.699143">
        <ele>1215.923</ele>
        <time>2020-09-05T08:56:30Z</time>
      </trkpt>
      <trkpt lat="42.851784" lon="-.699077">
        <ele>1215.525</ele>
        <time>2020-09-05T08:56:35Z</time>
      </trkpt>
      <trkpt lat="42.851809" lon="-.699024">
        <ele>1215.208</ele>
        <time>2020-09-05T08:56:41Z</time>
      </trkpt>
      <trkpt lat="42.851839" lon="-.698978">
        <ele>1215.064</ele>
        <time>2020-09-05T08:56:45Z</time>
      </trkpt>
      <trkpt lat="42.851866" lon="-.698923">
        <ele>1214.725</ele>
        <time>2020-09-05T08:56:51Z</time>
      </trkpt>
      <trkpt lat="42.851908" lon="-.698887">
        <ele>1215.191</ele>
        <time>2020-09-05T08:56:57Z</time>
      </trkpt>
      <trkpt lat="42.851931" lon="-.698833">
        <ele>1215.979</ele>
        <time>2020-09-05T08:57:01Z</time>
      </trkpt>
      <trkpt lat="42.851941" lon="-.698769">
        <ele>1216.690</ele>
        <time>2020-09-05T08:57:03Z</time>
      </trkpt>
      <trkpt lat="42.851941" lon="-.698703">
        <ele>1217.097</ele>
        <time>2020-09-05T08:57:06Z</time>
      </trkpt>
      <trkpt lat="42.851934" lon="-.69863">
        <ele>1217.383</ele>
        <time>2020-09-05T08:57:10Z</time>
      </trkpt>
      <trkpt lat="42.851935" lon="-.698563">
        <ele>1217.523</ele>
        <time>2020-09-05T08:57:13Z</time>
      </trkpt>
      <trkpt lat="42.851932" lon="-.6985">
        <ele>1218.452</ele>
        <time>2020-09-05T08:57:16Z</time>
      </trkpt>
      <trkpt lat="42.851934" lon="-.698435">
        <ele>1219.153</ele>
        <time>2020-09-05T08:57:19Z</time>
      </trkpt>
      <trkpt lat="42.851952" lon="-.698368">
        <ele>1220.408</ele>
        <time>2020-09-05T08:57:24Z</time>
      </trkpt>
      <trkpt lat="42.851976" lon="-.698314">
        <ele>1221.308</ele>
        <time>2020-09-05T08:57:28Z</time>
      </trkpt>
      <trkpt lat="42.852001" lon="-.698261">
        <ele>1222.010</ele>
        <time>2020-09-05T08:57:33Z</time>
      </trkpt>
      <trkpt lat="42.852028" lon="-.698209">
        <ele>1222.621</ele>
        <time>2020-09-05T08:57:39Z</time>
      </trkpt>
      <trkpt lat="42.852046" lon="-.698153">
        <ele>1223.147</ele>
        <time>2020-09-05T08:57:44Z</time>
      </trkpt>
      <trkpt lat="42.852051" lon="-.698081">
        <ele>1224.095</ele>
        <time>2020-09-05T08:57:48Z</time>
      </trkpt>
      <trkpt lat="42.852059" lon="-.698011">
        <ele>1224.646</ele>
        <time>2020-09-05T08:57:51Z</time>
      </trkpt>
      <trkpt lat="42.852074" lon="-.697943">
        <ele>1226.093</ele>
        <time>2020-09-05T08:57:56Z</time>
      </trkpt>
      <trkpt lat="42.85209" lon="-.697878">
        <ele>1227.249</ele>
        <time>2020-09-05T08:58:00Z</time>
      </trkpt>
      <trkpt lat="42.852108" lon="-.697812">
        <ele>1228.099</ele>
        <time>2020-09-05T08:58:04Z</time>
      </trkpt>
      <trkpt lat="42.852124" lon="-.69775">
        <ele>1228.614</ele>
        <time>2020-09-05T08:58:08Z</time>
      </trkpt>
      <trkpt lat="42.852141" lon="-.697684">
        <ele>1228.554</ele>
        <time>2020-09-05T08:58:11Z</time>
      </trkpt>
      <trkpt lat="42.852164" lon="-.697625">
        <ele>1228.409</ele>
        <time>2020-09-05T08:58:15Z</time>
      </trkpt>
      <trkpt lat="42.852195" lon="-.697578">
        <ele>1227.708</ele>
        <time>2020-09-05T08:58:19Z</time>
      </trkpt>
      <trkpt lat="42.852236" lon="-.697551">
        <ele>1227.096</ele>
        <time>2020-09-05T08:58:24Z</time>
      </trkpt>
      <trkpt lat="42.852278" lon="-.697521">
        <ele>1225.827</ele>
        <time>2020-09-05T08:58:28Z</time>
      </trkpt>
      <trkpt lat="42.852321" lon="-.697495">
        <ele>1225.073</ele>
        <time>2020-09-05T08:58:32Z</time>
      </trkpt>
      <trkpt lat="42.852366" lon="-.697465">
        <ele>1224.531</ele>
        <time>2020-09-05T08:58:37Z</time>
      </trkpt>
      <trkpt lat="42.852405" lon="-.69742">
        <ele>1224.882</ele>
        <time>2020-09-05T08:58:43Z</time>
      </trkpt>
      <trkpt lat="42.852435" lon="-.697373">
        <ele>1225.479</ele>
        <time>2020-09-05T08:58:48Z</time>
      </trkpt>
      <trkpt lat="42.852467" lon="-.697323">
        <ele>1226.225</ele>
        <time>2020-09-05T08:58:52Z</time>
      </trkpt>
      <trkpt lat="42.852503" lon="-.697285">
        <ele>1227.375</ele>
        <time>2020-09-05T08:58:56Z</time>
      </trkpt>
      <trkpt lat="42.852537" lon="-.697231">
        <ele>1228.935</ele>
        <time>2020-09-05T08:59:00Z</time>
      </trkpt>
      <trkpt lat="42.852558" lon="-.697173">
        <ele>1230.186</ele>
        <time>2020-09-05T08:59:03Z</time>
      </trkpt>
      <trkpt lat="42.852578" lon="-.697115">
        <ele>1230.814</ele>
        <time>2020-09-05T08:59:08Z</time>
      </trkpt>
      <trkpt lat="42.852599" lon="-.697058">
        <ele>1231.208</ele>
        <time>2020-09-05T08:59:13Z</time>
      </trkpt>
      <trkpt lat="42.852621" lon="-.697002">
        <ele>1230.128</ele>
        <time>2020-09-05T08:59:18Z</time>
      </trkpt>
      <trkpt lat="42.852658" lon="-.696965">
        <ele>1228.689</ele>
        <time>2020-09-05T08:59:22Z</time>
      </trkpt>
      <trkpt lat="42.852697" lon="-.696934">
        <ele>1227.525</ele>
        <time>2020-09-05T08:59:27Z</time>
      </trkpt>
      <trkpt lat="42.85272" lon="-.696874">
        <ele>1227.723</ele>
        <time>2020-09-05T08:59:31Z</time>
      </trkpt>
      <trkpt lat="42.852727" lon="-.6968">
        <ele>1227.744</ele>
        <time>2020-09-05T08:59:35Z</time>
      </trkpt>
      <trkpt lat="42.852737" lon="-.696736">
        <ele>1227.551</ele>
        <time>2020-09-05T08:59:39Z</time>
      </trkpt>
      <trkpt lat="42.852744" lon="-.696663">
        <ele>1227.327</ele>
        <time>2020-09-05T08:59:44Z</time>
      </trkpt>
      <trkpt lat="42.852747" lon="-.69659">
        <ele>1227.817</ele>
        <time>2020-09-05T08:59:48Z</time>
      </trkpt>
      <trkpt lat="42.852757" lon="-.696526">
        <ele>1228.055</ele>
        <time>2020-09-05T08:59:52Z</time>
      </trkpt>
      <trkpt lat="42.852785" lon="-.696468">
        <ele>1227.907</ele>
        <time>2020-09-05T08:59:55Z</time>
      </trkpt>
      <trkpt lat="42.85281" lon="-.696412">
        <ele>1228.017</ele>
        <time>2020-09-05T09:00:00Z</time>
      </trkpt>
      <trkpt lat="42.852822" lon="-.696345">
        <ele>1228.608</ele>
        <time>2020-09-05T09:00:04Z</time>
      </trkpt>
      <trkpt lat="42.852822" lon="-.696278">
        <ele>1229.140</ele>
        <time>2020-09-05T09:00:08Z</time>
      </trkpt>
      <trkpt lat="42.852828" lon="-.696204">
        <ele>1229.631</ele>
        <time>2020-09-05T09:00:13Z</time>
      </trkpt>
      <trkpt lat="42.852841" lon="-.696139">
        <ele>1229.947</ele>
        <time>2020-09-05T09:00:17Z</time>
      </trkpt>
      <trkpt lat="42.852858" lon="-.696078">
        <ele>1230.275</ele>
        <time>2020-09-05T09:00:21Z</time>
      </trkpt>
      <trkpt lat="42.852874" lon="-.696014">
        <ele>1231.086</ele>
        <time>2020-09-05T09:00:26Z</time>
      </trkpt>
      <trkpt lat="42.852896" lon="-.69596">
        <ele>1231.523</ele>
        <time>2020-09-05T09:00:41Z</time>
      </trkpt>
      <trkpt lat="42.852916" lon="-.695905">
        <ele>1231.789</ele>
        <time>2020-09-05T09:01:02Z</time>
      </trkpt>
      <trkpt lat="42.85287" lon="-.695942">
        <ele>1231.669</ele>
        <time>2020-09-05T09:02:02Z</time>
      </trkpt>
      <trkpt lat="42.85283" lon="-.69589">
        <ele>1231.799</ele>
        <time>2020-09-05T09:03:59Z</time>
      </trkpt>
      <trkpt lat="42.852813" lon="-.69583">
        <ele>1233.507</ele>
        <time>2020-09-05T09:05:35Z</time>
      </trkpt>
      <trkpt lat="42.852817" lon="-.695766">
        <ele>1234.727</ele>
        <time>2020-09-05T09:05:50Z</time>
      </trkpt>
      <trkpt lat="42.85281" lon="-.69569">
        <ele>1235.608</ele>
        <time>2020-09-05T09:05:55Z</time>
      </trkpt>
      <trkpt lat="42.852803" lon="-.695624">
        <ele>1236.224</ele>
        <time>2020-09-05T09:06:00Z</time>
      </trkpt>
      <trkpt lat="42.852807" lon="-.695558">
        <ele>1236.575</ele>
        <time>2020-09-05T09:06:06Z</time>
      </trkpt>
      <trkpt lat="42.852812" lon="-.695494">
        <ele>1236.831</ele>
        <time>2020-09-05T09:06:11Z</time>
      </trkpt>
      <trkpt lat="42.852798" lon="-.695434">
        <ele>1237.029</ele>
        <time>2020-09-05T09:06:16Z</time>
      </trkpt>
      <trkpt lat="42.852779" lon="-.695378">
        <ele>1237.250</ele>
        <time>2020-09-05T09:06:21Z</time>
      </trkpt>
      <trkpt lat="42.852766" lon="-.695316">
        <ele>1237.487</ele>
        <time>2020-09-05T09:06:25Z</time>
      </trkpt>
      <trkpt lat="42.852763" lon="-.695247">
        <ele>1237.513</ele>
        <time>2020-09-05T09:06:28Z</time>
      </trkpt>
      <trkpt lat="42.852766" lon="-.695179">
        <ele>1237.523</ele>
        <time>2020-09-05T09:06:32Z</time>
      </trkpt>
      <trkpt lat="42.852785" lon="-.695117">
        <ele>1237.626</ele>
        <time>2020-09-05T09:06:36Z</time>
      </trkpt>
      <trkpt lat="42.852797" lon="-.695045">
        <ele>1237.747</ele>
        <time>2020-09-05T09:06:40Z</time>
      </trkpt>
      <trkpt lat="42.852804" lon="-.694977">
        <ele>1237.711</ele>
        <time>2020-09-05T09:06:44Z</time>
      </trkpt>
      <trkpt lat="42.852803" lon="-.694915">
        <ele>1237.708</ele>
        <time>2020-09-05T09:06:48Z</time>
      </trkpt>
      <trkpt lat="42.852805" lon="-.694851">
        <ele>1237.827</ele>
        <time>2020-09-05T09:06:52Z</time>
      </trkpt>
      <trkpt lat="42.852805" lon="-.694789">
        <ele>1237.968</ele>
        <time>2020-09-05T09:06:55Z</time>
      </trkpt>
      <trkpt lat="42.852802" lon="-.694725">
        <ele>1238.064</ele>
        <time>2020-09-05T09:07:00Z</time>
      </trkpt>
      <trkpt lat="42.852803" lon="-.69466">
        <ele>1238.142</ele>
        <time>2020-09-05T09:07:03Z</time>
      </trkpt>
      <trkpt lat="42.852805" lon="-.694592">
        <ele>1238.353</ele>
        <time>2020-09-05T09:07:07Z</time>
      </trkpt>
      <trkpt lat="42.852819" lon="-.69453">
        <ele>1238.410</ele>
        <time>2020-09-05T09:07:10Z</time>
      </trkpt>
      <trkpt lat="42.852839" lon="-.694471">
        <ele>1238.846</ele>
        <time>2020-09-05T09:07:14Z</time>
      </trkpt>
      <trkpt lat="42.852855" lon="-.694413">
        <ele>1239.486</ele>
        <time>2020-09-05T09:07:17Z</time>
      </trkpt>
      <trkpt lat="42.852879" lon="-.694358">
        <ele>1240.165</ele>
        <time>2020-09-05T09:07:21Z</time>
      </trkpt>
      <trkpt lat="42.852908" lon="-.694303">
        <ele>1240.668</ele>
        <time>2020-09-05T09:07:25Z</time>
      </trkpt>
      <trkpt lat="42.85294" lon="-.694252">
        <ele>1241.414</ele>
        <time>2020-09-05T09:07:29Z</time>
      </trkpt>
      <trkpt lat="42.852971" lon="-.694208">
        <ele>1242.508</ele>
        <time>2020-09-05T09:07:33Z</time>
      </trkpt>
      <trkpt lat="42.853006" lon="-.694156">
        <ele>1243.771</ele>
        <time>2020-09-05T09:07:37Z</time>
      </trkpt>
      <trkpt lat="42.853028" lon="-.694093">
        <ele>1244.432</ele>
        <time>2020-09-05T09:07:42Z</time>
      </trkpt>
      <trkpt lat="42.85304" lon="-.694026">
        <ele>1245.068</ele>
        <time>2020-09-05T09:07:46Z</time>
      </trkpt>
      <trkpt lat="42.853051" lon="-.693966">
        <ele>1245.396</ele>
        <time>2020-09-05T09:07:51Z</time>
      </trkpt>
      <trkpt lat="42.853059" lon="-.693905">
        <ele>1245.767</ele>
        <time>2020-09-05T09:07:55Z</time>
      </trkpt>
      <trkpt lat="42.853068" lon="-.693831">
        <ele>1246.254</ele>
        <time>2020-09-05T09:07:59Z</time>
      </trkpt>
      <trkpt lat="42.853068" lon="-.69376">
        <ele>1246.650</ele>
        <time>2020-09-05T09:08:04Z</time>
      </trkpt>
      <trkpt lat="42.853063" lon="-.693692">
        <ele>1246.950</ele>
        <time>2020-09-05T09:08:09Z</time>
      </trkpt>
      <trkpt lat="42.853059" lon="-.693631">
        <ele>1247.131</ele>
        <time>2020-09-05T09:08:12Z</time>
      </trkpt>
      <trkpt lat="42.853059" lon="-.693568">
        <ele>1247.261</ele>
        <time>2020-09-05T09:08:15Z</time>
      </trkpt>
      <trkpt lat="42.85306" lon="-.693505">
        <ele>1247.207</ele>
        <time>2020-09-05T09:08:19Z</time>
      </trkpt>
      <trkpt lat="42.85305" lon="-.693442">
        <ele>1247.208</ele>
        <time>2020-09-05T09:08:22Z</time>
      </trkpt>
      <trkpt lat="42.853054" lon="-.69338">
        <ele>1247.358</ele>
        <time>2020-09-05T09:08:25Z</time>
      </trkpt>
      <trkpt lat="42.853064" lon="-.693317">
        <ele>1247.529</ele>
        <time>2020-09-05T09:08:28Z</time>
      </trkpt>
      <trkpt lat="42.85307" lon="-.693253">
        <ele>1247.895</ele>
        <time>2020-09-05T09:08:32Z</time>
      </trkpt>
      <trkpt lat="42.853076" lon="-.69319">
        <ele>1248.093</ele>
        <time>2020-09-05T09:08:36Z</time>
      </trkpt>
      <trkpt lat="42.853085" lon="-.69313">
        <ele>1248.174</ele>
        <time>2020-09-05T09:08:40Z</time>
      </trkpt>
      <trkpt lat="42.85309" lon="-.69306">
        <ele>1248.181</ele>
        <time>2020-09-05T09:08:48Z</time>
      </trkpt>
      <trkpt lat="42.853114" lon="-.692993">
        <ele>1248.127</ele>
        <time>2020-09-05T09:08:53Z</time>
      </trkpt>
      <trkpt lat="42.853134" lon="-.692926">
        <ele>1248.027</ele>
        <time>2020-09-05T09:08:57Z</time>
      </trkpt>
      <trkpt lat="42.853153" lon="-.692859">
        <ele>1247.977</ele>
        <time>2020-09-05T09:09:01Z</time>
      </trkpt>
      <trkpt lat="42.853169" lon="-.692783">
        <ele>1247.561</ele>
        <time>2020-09-05T09:09:05Z</time>
      </trkpt>
      <trkpt lat="42.853183" lon="-.692709">
        <ele>1247.427</ele>
        <time>2020-09-05T09:09:09Z</time>
      </trkpt>
      <trkpt lat="42.853199" lon="-.692648">
        <ele>1247.508</ele>
        <time>2020-09-05T09:09:14Z</time>
      </trkpt>
      <trkpt lat="42.853206" lon="-.692582">
        <ele>1247.412</ele>
        <time>2020-09-05T09:09:18Z</time>
      </trkpt>
      <trkpt lat="42.853208" lon="-.692514">
        <ele>1247.363</ele>
        <time>2020-09-05T09:09:22Z</time>
      </trkpt>
      <trkpt lat="42.853199" lon="-.692453">
        <ele>1247.119</ele>
        <time>2020-09-05T09:09:26Z</time>
      </trkpt>
      <trkpt lat="42.853192" lon="-.692382">
        <ele>1246.917</ele>
        <time>2020-09-05T09:09:32Z</time>
      </trkpt>
      <trkpt lat="42.853182" lon="-.692308">
        <ele>1246.818</ele>
        <time>2020-09-05T09:09:36Z</time>
      </trkpt>
      <trkpt lat="42.85318" lon="-.69224">
        <ele>1247.015</ele>
        <time>2020-09-05T09:09:40Z</time>
      </trkpt>
      <trkpt lat="42.853183" lon="-.692171">
        <ele>1247.321</ele>
        <time>2020-09-05T09:09:44Z</time>
      </trkpt>
      <trkpt lat="42.853184" lon="-.6921">
        <ele>1247.471</ele>
        <time>2020-09-05T09:09:48Z</time>
      </trkpt>
      <trkpt lat="42.85318" lon="-.692023">
        <ele>1247.342</ele>
        <time>2020-09-05T09:09:52Z</time>
      </trkpt>
      <trkpt lat="42.85318" lon="-.691955">
        <ele>1247.122</ele>
        <time>2020-09-05T09:09:55Z</time>
      </trkpt>
      <trkpt lat="42.853186" lon="-.691893">
        <ele>1247.014</ele>
        <time>2020-09-05T09:09:58Z</time>
      </trkpt>
      <trkpt lat="42.853197" lon="-.691831">
        <ele>1246.808</ele>
        <time>2020-09-05T09:10:02Z</time>
      </trkpt>
      <trkpt lat="42.853211" lon="-.691769">
        <ele>1246.699</ele>
        <time>2020-09-05T09:10:06Z</time>
      </trkpt>
      <trkpt lat="42.853228" lon="-.691711">
        <ele>1246.490</ele>
        <time>2020-09-05T09:10:11Z</time>
      </trkpt>
      <trkpt lat="42.853232" lon="-.691642">
        <ele>1246.166</ele>
        <time>2020-09-05T09:10:15Z</time>
      </trkpt>
      <trkpt lat="42.853229" lon="-.691576">
        <ele>1245.914</ele>
        <time>2020-09-05T09:10:19Z</time>
      </trkpt>
      <trkpt lat="42.853229" lon="-.691514">
        <ele>1245.645</ele>
        <time>2020-09-05T09:10:23Z</time>
      </trkpt>
      <trkpt lat="42.853227" lon="-.691446">
        <ele>1245.342</ele>
        <time>2020-09-05T09:10:26Z</time>
      </trkpt>
      <trkpt lat="42.853229" lon="-.691377">
        <ele>1245.198</ele>
        <time>2020-09-05T09:10:31Z</time>
      </trkpt>
      <trkpt lat="42.853232" lon="-.691303">
        <ele>1245.088</ele>
        <time>2020-09-05T09:10:35Z</time>
      </trkpt>
      <trkpt lat="42.853229" lon="-.691239">
        <ele>1245.021</ele>
        <time>2020-09-05T09:10:38Z</time>
      </trkpt>
      <trkpt lat="42.853224" lon="-.691174">
        <ele>1245.041</ele>
        <time>2020-09-05T09:10:43Z</time>
      </trkpt>
      <trkpt lat="42.853221" lon="-.691111">
        <ele>1245.105</ele>
        <time>2020-09-05T09:10:47Z</time>
      </trkpt>
      <trkpt lat="42.853221" lon="-.691047">
        <ele>1245.208</ele>
        <time>2020-09-05T09:10:51Z</time>
      </trkpt>
      <trkpt lat="42.853226" lon="-.690979">
        <ele>1245.257</ele>
        <time>2020-09-05T09:10:55Z</time>
      </trkpt>
      <trkpt lat="42.853242" lon="-.690918">
        <ele>1245.498</ele>
        <time>2020-09-05T09:10:59Z</time>
      </trkpt>
      <trkpt lat="42.853253" lon="-.690843">
        <ele>1245.624</ele>
        <time>2020-09-05T09:11:03Z</time>
      </trkpt>
      <trkpt lat="42.853252" lon="-.690774">
        <ele>1245.942</ele>
        <time>2020-09-05T09:11:09Z</time>
      </trkpt>
      <trkpt lat="42.853243" lon="-.690708">
        <ele>1246.183</ele>
        <time>2020-09-05T09:11:13Z</time>
      </trkpt>
      <trkpt lat="42.853243" lon="-.690643">
        <ele>1246.110</ele>
        <time>2020-09-05T09:11:17Z</time>
      </trkpt>
      <trkpt lat="42.853245" lon="-.690579">
        <ele>1245.996</ele>
        <time>2020-09-05T09:11:21Z</time>
      </trkpt>
      <trkpt lat="42.853253" lon="-.690509">
        <ele>1245.636</ele>
        <time>2020-09-05T09:11:26Z</time>
      </trkpt>
      <trkpt lat="42.853259" lon="-.690438">
        <ele>1245.596</ele>
        <time>2020-09-05T09:11:30Z</time>
      </trkpt>
      <trkpt lat="42.853262" lon="-.690375">
        <ele>1245.731</ele>
        <time>2020-09-05T09:11:33Z</time>
      </trkpt>
      <trkpt lat="42.853262" lon="-.690314">
        <ele>1245.924</ele>
        <time>2020-09-05T09:11:36Z</time>
      </trkpt>
      <trkpt lat="42.853262" lon="-.690244">
        <ele>1246.208</ele>
        <time>2020-09-05T09:11:39Z</time>
      </trkpt>
      <trkpt lat="42.853263" lon="-.690179">
        <ele>1246.674</ele>
        <time>2020-09-05T09:11:42Z</time>
      </trkpt>
      <trkpt lat="42.853266" lon="-.690105">
        <ele>1247.065</ele>
        <time>2020-09-05T09:11:45Z</time>
      </trkpt>
      <trkpt lat="42.853267" lon="-.690032">
        <ele>1247.461</ele>
        <time>2020-09-05T09:11:48Z</time>
      </trkpt>
      <trkpt lat="42.853274" lon="-.689961">
        <ele>1247.729</ele>
        <time>2020-09-05T09:11:51Z</time>
      </trkpt>
      <trkpt lat="42.853279" lon="-.6899">
        <ele>1247.990</ele>
        <time>2020-09-05T09:11:54Z</time>
      </trkpt>
      <trkpt lat="42.853272" lon="-.689826">
        <ele>1248.027</ele>
        <time>2020-09-05T09:11:58Z</time>
      </trkpt>
      <trkpt lat="42.853276" lon="-.689757">
        <ele>1248.233</ele>
        <time>2020-09-05T09:12:02Z</time>
      </trkpt>
      <trkpt lat="42.853282" lon="-.689695">
        <ele>1248.643</ele>
        <time>2020-09-05T09:12:06Z</time>
      </trkpt>
      <trkpt lat="42.853284" lon="-.689632">
        <ele>1249.291</ele>
        <time>2020-09-05T09:12:11Z</time>
      </trkpt>
      <trkpt lat="42.853281" lon="-.689563">
        <ele>1249.781</ele>
        <time>2020-09-05T09:12:17Z</time>
      </trkpt>
      <trkpt lat="42.85328" lon="-.689498">
        <ele>1250.019</ele>
        <time>2020-09-05T09:12:20Z</time>
      </trkpt>
      <trkpt lat="42.853274" lon="-.689422">
        <ele>1250.308</ele>
        <time>2020-09-05T09:12:24Z</time>
      </trkpt>
      <trkpt lat="42.853266" lon="-.689357">
        <ele>1250.784</ele>
        <time>2020-09-05T09:12:27Z</time>
      </trkpt>
      <trkpt lat="42.853253" lon="-.689291">
        <ele>1251.265</ele>
        <time>2020-09-05T09:12:31Z</time>
      </trkpt>
      <trkpt lat="42.853247" lon="-.689227">
        <ele>1251.791</ele>
        <time>2020-09-05T09:12:35Z</time>
      </trkpt>
      <trkpt lat="42.853244" lon="-.689165">
        <ele>1252.279</ele>
        <time>2020-09-05T09:12:39Z</time>
      </trkpt>
      <trkpt lat="42.853245" lon="-.689101">
        <ele>1252.680</ele>
        <time>2020-09-05T09:12:43Z</time>
      </trkpt>
      <trkpt lat="42.85325" lon="-.689037">
        <ele>1253.017</ele>
        <time>2020-09-05T09:12:48Z</time>
      </trkpt>
      <trkpt lat="42.853253" lon="-.688968">
        <ele>1253.493</ele>
        <time>2020-09-05T09:12:51Z</time>
      </trkpt>
      <trkpt lat="42.853258" lon="-.688899">
        <ele>1253.873</ele>
        <time>2020-09-05T09:12:55Z</time>
      </trkpt>
      <trkpt lat="42.853259" lon="-.688833">
        <ele>1254.157</ele>
        <time>2020-09-05T09:12:58Z</time>
      </trkpt>
      <trkpt lat="42.853257" lon="-.688765">
        <ele>1254.200</ele>
        <time>2020-09-05T09:13:01Z</time>
      </trkpt>
      <trkpt lat="42.853253" lon="-.688696">
        <ele>1254.320</ele>
        <time>2020-09-05T09:13:05Z</time>
      </trkpt>
      <trkpt lat="42.853251" lon="-.688634">
        <ele>1254.508</ele>
        <time>2020-09-05T09:13:09Z</time>
      </trkpt>
      <trkpt lat="42.853244" lon="-.688569">
        <ele>1254.730</ele>
        <time>2020-09-05T09:13:13Z</time>
      </trkpt>
      <trkpt lat="42.853238" lon="-.6885">
        <ele>1254.841</ele>
        <time>2020-09-05T09:13:17Z</time>
      </trkpt>
      <trkpt lat="42.853232" lon="-.688425">
        <ele>1254.937</ele>
        <time>2020-09-05T09:13:21Z</time>
      </trkpt>
      <trkpt lat="42.85323" lon="-.688356">
        <ele>1255.015</ele>
        <time>2020-09-05T09:13:25Z</time>
      </trkpt>
      <trkpt lat="42.853227" lon="-.688288">
        <ele>1255.116</ele>
        <time>2020-09-05T09:13:29Z</time>
      </trkpt>
      <trkpt lat="42.853219" lon="-.688226">
        <ele>1255.243</ele>
        <time>2020-09-05T09:13:34Z</time>
      </trkpt>
      <trkpt lat="42.853214" lon="-.688156">
        <ele>1255.379</ele>
        <time>2020-09-05T09:13:39Z</time>
      </trkpt>
      <trkpt lat="42.853205" lon="-.688081">
        <ele>1255.499</ele>
        <time>2020-09-05T09:13:43Z</time>
      </trkpt>
      <trkpt lat="42.853198" lon="-.688019">
        <ele>1255.286</ele>
        <time>2020-09-05T09:13:46Z</time>
      </trkpt>
      <trkpt lat="42.853197" lon="-.687946">
        <ele>1255.060</ele>
        <time>2020-09-05T09:13:50Z</time>
      </trkpt>
      <trkpt lat="42.853198" lon="-.687876">
        <ele>1255.026</ele>
        <time>2020-09-05T09:13:54Z</time>
      </trkpt>
      <trkpt lat="42.853204" lon="-.687811">
        <ele>1255.008</ele>
        <time>2020-09-05T09:14:00Z</time>
      </trkpt>
      <trkpt lat="42.853198" lon="-.687747">
        <ele>1255.093</ele>
        <time>2020-09-05T09:14:04Z</time>
      </trkpt>
      <trkpt lat="42.853196" lon="-.687671">
        <ele>1254.934</ele>
        <time>2020-09-05T09:14:07Z</time>
      </trkpt>
      <trkpt lat="42.853193" lon="-.687597">
        <ele>1254.690</ele>
        <time>2020-09-05T09:14:10Z</time>
      </trkpt>
      <trkpt lat="42.853186" lon="-.68752">
        <ele>1254.268</ele>
        <time>2020-09-05T09:14:14Z</time>
      </trkpt>
      <trkpt lat="42.853182" lon="-.687455">
        <ele>1254.129</ele>
        <time>2020-09-05T09:14:18Z</time>
      </trkpt>
      <trkpt lat="42.853176" lon="-.687388">
        <ele>1254.066</ele>
        <time>2020-09-05T09:14:23Z</time>
      </trkpt>
      <trkpt lat="42.853168" lon="-.687322">
        <ele>1253.942</ele>
        <time>2020-09-05T09:14:28Z</time>
      </trkpt>
      <trkpt lat="42.853162" lon="-.687258">
        <ele>1253.982</ele>
        <time>2020-09-05T09:14:32Z</time>
      </trkpt>
      <trkpt lat="42.853155" lon="-.687189">
        <ele>1253.862</ele>
        <time>2020-09-05T09:14:36Z</time>
      </trkpt>
      <trkpt lat="42.853145" lon="-.687125">
        <ele>1253.883</ele>
        <time>2020-09-05T09:14:39Z</time>
      </trkpt>
      <trkpt lat="42.853137" lon="-.687063">
        <ele>1254.011</ele>
        <time>2020-09-05T09:14:43Z</time>
      </trkpt>
      <trkpt lat="42.853129" lon="-.687">
        <ele>1254.208</ele>
        <time>2020-09-05T09:14:47Z</time>
      </trkpt>
      <trkpt lat="42.853127" lon="-.686938">
        <ele>1254.381</ele>
        <time>2020-09-05T09:14:52Z</time>
      </trkpt>
      <trkpt lat="42.853129" lon="-.686871">
        <ele>1254.332</ele>
        <time>2020-09-05T09:14:56Z</time>
      </trkpt>
      <trkpt lat="42.853126" lon="-.686796">
        <ele>1254.238</ele>
        <time>2020-09-05T09:15:00Z</time>
      </trkpt>
      <trkpt lat="42.853127" lon="-.686732">
        <ele>1254.186</ele>
        <time>2020-09-05T09:15:03Z</time>
      </trkpt>
      <trkpt lat="42.853136" lon="-.686668">
        <ele>1254.087</ele>
        <time>2020-09-05T09:15:07Z</time>
      </trkpt>
      <trkpt lat="42.853143" lon="-.686598">
        <ele>1254.054</ele>
        <time>2020-09-05T09:15:11Z</time>
      </trkpt>
      <trkpt lat="42.853147" lon="-.686535">
        <ele>1253.850</ele>
        <time>2020-09-05T09:15:15Z</time>
      </trkpt>
      <trkpt lat="42.853159" lon="-.68647">
        <ele>1253.690</ele>
        <time>2020-09-05T09:15:18Z</time>
      </trkpt>
      <trkpt lat="42.853169" lon="-.686409">
        <ele>1253.622</ele>
        <time>2020-09-05T09:15:24Z</time>
      </trkpt>
      <trkpt lat="42.853158" lon="-.686342">
        <ele>1253.662</ele>
        <time>2020-09-05T09:15:28Z</time>
      </trkpt>
      <trkpt lat="42.853144" lon="-.686281">
        <ele>1253.508</ele>
        <time>2020-09-05T09:15:32Z</time>
      </trkpt>
      <trkpt lat="42.853138" lon="-.686213">
        <ele>1253.408</ele>
        <time>2020-09-05T09:15:36Z</time>
      </trkpt>
      <trkpt lat="42.853149" lon="-.686149">
        <ele>1253.297</ele>
        <time>2020-09-05T09:15:39Z</time>
      </trkpt>
      <trkpt lat="42.853154" lon="-.686082">
        <ele>1253.088</ele>
        <time>2020-09-05T09:15:44Z</time>
      </trkpt>
      <trkpt lat="42.853143" lon="-.68601">
        <ele>1252.924</ele>
        <time>2020-09-05T09:15:48Z</time>
      </trkpt>
      <trkpt lat="42.853127" lon="-.68594">
        <ele>1252.892</ele>
        <time>2020-09-05T09:15:52Z</time>
      </trkpt>
      <trkpt lat="42.85312" lon="-.685873">
        <ele>1252.863</ele>
        <time>2020-09-05T09:15:55Z</time>
      </trkpt>
      <trkpt lat="42.853117" lon="-.68581">
        <ele>1252.790</ele>
        <time>2020-09-05T09:15:58Z</time>
      </trkpt>
      <trkpt lat="42.853116" lon="-.685737">
        <ele>1252.656</ele>
        <time>2020-09-05T09:16:02Z</time>
      </trkpt>
      <trkpt lat="42.853113" lon="-.685668">
        <ele>1252.596</ele>
        <time>2020-09-05T09:16:07Z</time>
      </trkpt>
      <trkpt lat="42.853111" lon="-.685597">
        <ele>1252.391</ele>
        <time>2020-09-05T09:16:11Z</time>
      </trkpt>
      <trkpt lat="42.853114" lon="-.685529">
        <ele>1252.381</ele>
        <time>2020-09-05T09:16:16Z</time>
      </trkpt>
      <trkpt lat="42.853115" lon="-.685467">
        <ele>1252.319</ele>
        <time>2020-09-05T09:16:19Z</time>
      </trkpt>
      <trkpt lat="42.853107" lon="-.685396">
        <ele>1252.208</ele>
        <time>2020-09-05T09:16:24Z</time>
      </trkpt>
      <trkpt lat="42.853099" lon="-.685335">
        <ele>1252.144</ele>
        <time>2020-09-05T09:16:28Z</time>
      </trkpt>
      <trkpt lat="42.853087" lon="-.68527">
        <ele>1252.145</ele>
        <time>2020-09-05T09:16:31Z</time>
      </trkpt>
      <trkpt lat="42.853082" lon="-.685201">
        <ele>1252.051</ele>
        <time>2020-09-05T09:16:36Z</time>
      </trkpt>
      <trkpt lat="42.85308" lon="-.685138">
        <ele>1251.929</ele>
        <time>2020-09-05T09:16:40Z</time>
      </trkpt>
      <trkpt lat="42.853077" lon="-.685074">
        <ele>1251.860</ele>
        <time>2020-09-05T09:16:44Z</time>
      </trkpt>
      <trkpt lat="42.853078" lon="-.685012">
        <ele>1251.737</ele>
        <time>2020-09-05T09:16:48Z</time>
      </trkpt>
      <trkpt lat="42.853089" lon="-.684951">
        <ele>1251.693</ele>
        <time>2020-09-05T09:16:51Z</time>
      </trkpt>
      <trkpt lat="42.853092" lon="-.684881">
        <ele>1251.573</ele>
        <time>2020-09-05T09:16:55Z</time>
      </trkpt>
      <trkpt lat="42.853098" lon="-.684811">
        <ele>1251.481</ele>
        <time>2020-09-05T09:16:59Z</time>
      </trkpt>
      <trkpt lat="42.853098" lon="-.684744">
        <ele>1251.361</ele>
        <time>2020-09-05T09:17:03Z</time>
      </trkpt>
      <trkpt lat="42.853089" lon="-.684671">
        <ele>1251.217</ele>
        <time>2020-09-05T09:17:08Z</time>
      </trkpt>
      <trkpt lat="42.853074" lon="-.684607">
        <ele>1251.408</ele>
        <time>2020-09-05T09:17:12Z</time>
      </trkpt>
      <trkpt lat="42.853068" lon="-.684542">
        <ele>1251.633</ele>
        <time>2020-09-05T09:17:16Z</time>
      </trkpt>
      <trkpt lat="42.853059" lon="-.684474">
        <ele>1251.734</ele>
        <time>2020-09-05T09:17:20Z</time>
      </trkpt>
      <trkpt lat="42.853051" lon="-.684406">
        <ele>1251.980</ele>
        <time>2020-09-05T09:17:24Z</time>
      </trkpt>
      <trkpt lat="42.853044" lon="-.684338">
        <ele>1252.158</ele>
        <time>2020-09-05T09:17:28Z</time>
      </trkpt>
      <trkpt lat="42.853039" lon="-.684271">
        <ele>1252.259</ele>
        <time>2020-09-05T09:17:32Z</time>
      </trkpt>
      <trkpt lat="42.853036" lon="-.684197">
        <ele>1252.496</ele>
        <time>2020-09-05T09:17:36Z</time>
      </trkpt>
      <trkpt lat="42.85303" lon="-.68413">
        <ele>1252.592</ele>
        <time>2020-09-05T09:17:39Z</time>
      </trkpt>
      <trkpt lat="42.853023" lon="-.684063">
        <ele>1252.632</ele>
        <time>2020-09-05T09:17:42Z</time>
      </trkpt>
      <trkpt lat="42.853016" lon="-.683998">
        <ele>1252.772</ele>
        <time>2020-09-05T09:17:45Z</time>
      </trkpt>
      <trkpt lat="42.85301" lon="-.683935">
        <ele>1253.013</ele>
        <time>2020-09-05T09:17:49Z</time>
      </trkpt>
      <trkpt lat="42.853004" lon="-.683872">
        <ele>1253.214</ele>
        <time>2020-09-05T09:17:54Z</time>
      </trkpt>
      <trkpt lat="42.852996" lon="-.683802">
        <ele>1253.408</ele>
        <time>2020-09-05T09:17:58Z</time>
      </trkpt>
      <trkpt lat="42.852992" lon="-.683731">
        <ele>1253.782</ele>
        <time>2020-09-05T09:18:02Z</time>
      </trkpt>
      <trkpt lat="42.852996" lon="-.683657">
        <ele>1254.013</ele>
        <time>2020-09-05T09:18:07Z</time>
      </trkpt>
      <trkpt lat="42.852999" lon="-.683594">
        <ele>1254.289</ele>
        <time>2020-09-05T09:18:11Z</time>
      </trkpt>
      <trkpt lat="42.852999" lon="-.683532">
        <ele>1254.357</ele>
        <time>2020-09-05T09:18:15Z</time>
      </trkpt>
      <trkpt lat="42.852987" lon="-.683473">
        <ele>1254.498</ele>
        <time>2020-09-05T09:18:19Z</time>
      </trkpt>
      <trkpt lat="42.852978" lon="-.683407">
        <ele>1254.615</ele>
        <time>2020-09-05T09:18:23Z</time>
      </trkpt>
      <trkpt lat="42.85298" lon="-.683339">
        <ele>1254.881</ele>
        <time>2020-09-05T09:18:27Z</time>
      </trkpt>
      <trkpt lat="42.852981" lon="-.683277">
        <ele>1254.941</ele>
        <time>2020-09-05T09:18:31Z</time>
      </trkpt>
      <trkpt lat="42.852971" lon="-.683207">
        <ele>1255.087</ele>
        <time>2020-09-05T09:18:37Z</time>
      </trkpt>
      <trkpt lat="42.852962" lon="-.683145">
        <ele>1255.142</ele>
        <time>2020-09-05T09:18:41Z</time>
      </trkpt>
      <trkpt lat="42.852954" lon="-.683081">
        <ele>1255.226</ele>
        <time>2020-09-05T09:18:44Z</time>
      </trkpt>
      <trkpt lat="42.85295" lon="-.683013">
        <ele>1255.308</ele>
        <time>2020-09-05T09:18:48Z</time>
      </trkpt>
      <trkpt lat="42.852946" lon="-.682944">
        <ele>1255.483</ele>
        <time>2020-09-05T09:18:51Z</time>
      </trkpt>
      <trkpt lat="42.852941" lon="-.682881">
        <ele>1255.434</ele>
        <time>2020-09-05T09:18:54Z</time>
      </trkpt>
      <trkpt lat="42.852934" lon="-.682814">
        <ele>1255.460</ele>
        <time>2020-09-05T09:18:57Z</time>
      </trkpt>
      <trkpt lat="42.852935" lon="-.68275">
        <ele>1255.578</ele>
        <time>2020-09-05T09:19:01Z</time>
      </trkpt>
      <trkpt lat="42.852939" lon="-.682671">
        <ele>1255.719</ele>
        <time>2020-09-05T09:19:05Z</time>
      </trkpt>
      <trkpt lat="42.852941" lon="-.682602">
        <ele>1255.876</ele>
        <time>2020-09-05T09:19:09Z</time>
      </trkpt>
      <trkpt lat="42.852937" lon="-.682535">
        <ele>1255.912</ele>
        <time>2020-09-05T09:19:13Z</time>
      </trkpt>
      <trkpt lat="42.852928" lon="-.682468">
        <ele>1256.022</ele>
        <time>2020-09-05T09:19:17Z</time>
      </trkpt>
      <trkpt lat="42.852911" lon="-.682404">
        <ele>1256.174</ele>
        <time>2020-09-05T09:19:22Z</time>
      </trkpt>
      <trkpt lat="42.852893" lon="-.682347">
        <ele>1256.656</ele>
        <time>2020-09-05T09:20:05Z</time>
      </trkpt>
      <trkpt lat="42.852887" lon="-.682274">
        <ele>1256.921</ele>
        <time>2020-09-05T09:20:09Z</time>
      </trkpt>
      <trkpt lat="42.852873" lon="-.682212">
        <ele>1257.208</ele>
        <time>2020-09-05T09:20:13Z</time>
      </trkpt>
      <trkpt lat="42.852863" lon="-.682144">
        <ele>1257.532</ele>
        <time>2020-09-05T09:20:18Z</time>
      </trkpt>
      <trkpt lat="42.852857" lon="-.682082">
        <ele>1257.733</ele>
        <time>2020-09-05T09:20:21Z</time>
      </trkpt>
      <trkpt lat="42.852843" lon="-.682015">
        <ele>1257.899</ele>
        <time>2020-09-05T09:20:24Z</time>
      </trkpt>
      <trkpt lat="42.852828" lon="-.68195">
        <ele>1257.977</ele>
        <time>2020-09-05T09:20:27Z</time>
      </trkpt>
      <trkpt lat="42.852813" lon="-.681876">
        <ele>1258.068</ele>
        <time>2020-09-05T09:20:31Z</time>
      </trkpt>
      <trkpt lat="42.852792" lon="-.681819">
        <ele>1258.255</ele>
        <time>2020-09-05T09:20:35Z</time>
      </trkpt>
      <trkpt lat="42.85277" lon="-.681762">
        <ele>1258.421</ele>
        <time>2020-09-05T09:20:39Z</time>
      </trkpt>
      <trkpt lat="42.852744" lon="-.681708">
        <ele>1258.881</ele>
        <time>2020-09-05T09:20:44Z</time>
      </trkpt>
      <trkpt lat="42.852729" lon="-.681645">
        <ele>1259.253</ele>
        <time>2020-09-05T09:20:48Z</time>
      </trkpt>
      <trkpt lat="42.852723" lon="-.681582">
        <ele>1259.604</ele>
        <time>2020-09-05T09:20:52Z</time>
      </trkpt>
      <trkpt lat="42.852721" lon="-.681512">
        <ele>1260.014</ele>
        <time>2020-09-05T09:20:57Z</time>
      </trkpt>
      <trkpt lat="42.85272" lon="-.681444">
        <ele>1260.408</ele>
        <time>2020-09-05T09:21:00Z</time>
      </trkpt>
      <trkpt lat="42.852716" lon="-.681378">
        <ele>1260.750</ele>
        <time>2020-09-05T09:21:05Z</time>
      </trkpt>
      <trkpt lat="42.852706" lon="-.681315">
        <ele>1261.151</ele>
        <time>2020-09-05T09:21:08Z</time>
      </trkpt>
      <trkpt lat="42.852694" lon="-.681255">
        <ele>1261.457</ele>
        <time>2020-09-05T09:21:12Z</time>
      </trkpt>
      <trkpt lat="42.852677" lon="-.681195">
        <ele>1261.635</ele>
        <time>2020-09-05T09:21:15Z</time>
      </trkpt>
      <trkpt lat="42.852659" lon="-.681124">
        <ele>1262.026</ele>
        <time>2020-09-05T09:21:19Z</time>
      </trkpt>
      <trkpt lat="42.852641" lon="-.681058">
        <ele>1262.393</ele>
        <time>2020-09-05T09:21:24Z</time>
      </trkpt>
      <trkpt lat="42.852623" lon="-.680997">
        <ele>1262.689</ele>
        <time>2020-09-05T09:21:27Z</time>
      </trkpt>
      <trkpt lat="42.852605" lon="-.680928">
        <ele>1262.939</ele>
        <time>2020-09-05T09:21:32Z</time>
      </trkpt>
      <trkpt lat="42.852589" lon="-.680871">
        <ele>1263.183</ele>
        <time>2020-09-05T09:21:36Z</time>
      </trkpt>
      <trkpt lat="42.852578" lon="-.680803">
        <ele>1263.425</ele>
        <time>2020-09-05T09:21:41Z</time>
      </trkpt>
      <trkpt lat="42.852561" lon="-.680737">
        <ele>1263.817</ele>
        <time>2020-09-05T09:21:45Z</time>
      </trkpt>
      <trkpt lat="42.852533" lon="-.680671">
        <ele>1264.408</ele>
        <time>2020-09-05T09:21:49Z</time>
      </trkpt>
      <trkpt lat="42.852519" lon="-.680607">
        <ele>1265.363</ele>
        <time>2020-09-05T09:21:53Z</time>
      </trkpt>
      <trkpt lat="42.852504" lon="-.680546">
        <ele>1266.154</ele>
        <time>2020-09-05T09:21:57Z</time>
      </trkpt>
      <trkpt lat="42.852487" lon="-.680486">
        <ele>1266.810</ele>
        <time>2020-09-05T09:22:00Z</time>
      </trkpt>
      <trkpt lat="42.852472" lon="-.680425">
        <ele>1267.478</ele>
        <time>2020-09-05T09:22:04Z</time>
      </trkpt>
      <trkpt lat="42.852457" lon="-.680352">
        <ele>1268.179</ele>
        <time>2020-09-05T09:22:08Z</time>
      </trkpt>
      <trkpt lat="42.852451" lon="-.680285">
        <ele>1268.766</ele>
        <time>2020-09-05T09:22:11Z</time>
      </trkpt>
      <trkpt lat="42.852436" lon="-.680224">
        <ele>1269.022</ele>
        <time>2020-09-05T09:22:15Z</time>
      </trkpt>
      <trkpt lat="42.852422" lon="-.680162">
        <ele>1269.342</ele>
        <time>2020-09-05T09:22:18Z</time>
      </trkpt>
      <trkpt lat="42.852404" lon="-.680096">
        <ele>1269.919</ele>
        <time>2020-09-05T09:22:23Z</time>
      </trkpt>
      <trkpt lat="42.852382" lon="-.680031">
        <ele>1270.609</ele>
        <time>2020-09-05T09:22:28Z</time>
      </trkpt>
      <trkpt lat="42.852356" lon="-.679972">
        <ele>1271.319</ele>
        <time>2020-09-05T09:22:32Z</time>
      </trkpt>
      <trkpt lat="42.852338" lon="-.679915">
        <ele>1272.208</ele>
        <time>2020-09-05T09:22:36Z</time>
      </trkpt>
      <trkpt lat="42.85233" lon="-.679843">
        <ele>1273.136</ele>
        <time>2020-09-05T09:22:41Z</time>
      </trkpt>
      <trkpt lat="42.852323" lon="-.679771">
        <ele>1273.867</ele>
        <time>2020-09-05T09:22:45Z</time>
      </trkpt>
      <trkpt lat="42.852309" lon="-.679707">
        <ele>1274.763</ele>
        <time>2020-09-05T09:22:49Z</time>
      </trkpt>
      <trkpt lat="42.85229" lon="-.67965">
        <ele>1275.611</ele>
        <time>2020-09-05T09:22:53Z</time>
      </trkpt>
      <trkpt lat="42.852269" lon="-.67959">
        <ele>1276.222</ele>
        <time>2020-09-05T09:22:58Z</time>
      </trkpt>
      <trkpt lat="42.852251" lon="-.67953">
        <ele>1276.629</ele>
        <time>2020-09-05T09:23:02Z</time>
      </trkpt>
      <trkpt lat="42.852229" lon="-.679471">
        <ele>1276.965</ele>
        <time>2020-09-05T09:23:06Z</time>
      </trkpt>
      <trkpt lat="42.852209" lon="-.679408">
        <ele>1277.185</ele>
        <time>2020-09-05T09:23:09Z</time>
      </trkpt>
      <trkpt lat="42.85219" lon="-.679349">
        <ele>1277.286</ele>
        <time>2020-09-05T09:23:13Z</time>
      </trkpt>
      <trkpt lat="42.852174" lon="-.679285">
        <ele>1277.360</ele>
        <time>2020-09-05T09:23:17Z</time>
      </trkpt>
      <trkpt lat="42.852158" lon="-.679219">
        <ele>1277.526</ele>
        <time>2020-09-05T09:23:21Z</time>
      </trkpt>
      <trkpt lat="42.852144" lon="-.679158">
        <ele>1277.708</ele>
        <time>2020-09-05T09:23:24Z</time>
      </trkpt>
      <trkpt lat="42.852131" lon="-.679088">
        <ele>1277.813</ele>
        <time>2020-09-05T09:23:28Z</time>
      </trkpt>
      <trkpt lat="42.852115" lon="-.67903">
        <ele>1277.914</ele>
        <time>2020-09-05T09:23:31Z</time>
      </trkpt>
      <trkpt lat="42.85209" lon="-.678954">
        <ele>1278.020</ele>
        <time>2020-09-05T09:23:35Z</time>
      </trkpt>
      <trkpt lat="42.852072" lon="-.678888">
        <ele>1278.298</ele>
        <time>2020-09-05T09:23:39Z</time>
      </trkpt>
      <trkpt lat="42.85206" lon="-.678825">
        <ele>1278.539</ele>
        <time>2020-09-05T09:23:44Z</time>
      </trkpt>
      <trkpt lat="42.852043" lon="-.678759">
        <ele>1279.056</ele>
        <time>2020-09-05T09:23:48Z</time>
      </trkpt>
      <trkpt lat="42.852021" lon="-.678698">
        <ele>1279.552</ele>
        <time>2020-09-05T09:23:53Z</time>
      </trkpt>
      <trkpt lat="42.851997" lon="-.678634">
        <ele>1280.012</ele>
        <time>2020-09-05T09:23:57Z</time>
      </trkpt>
      <trkpt lat="42.851974" lon="-.678576">
        <ele>1280.375</ele>
        <time>2020-09-05T09:24:01Z</time>
      </trkpt>
      <trkpt lat="42.851953" lon="-.67852">
        <ele>1280.528</ele>
        <time>2020-09-05T09:24:05Z</time>
      </trkpt>
      <trkpt lat="42.851935" lon="-.678457">
        <ele>1280.620</ele>
        <time>2020-09-05T09:24:08Z</time>
      </trkpt>
      <trkpt lat="42.851925" lon="-.678388">
        <ele>1280.808</ele>
        <time>2020-09-05T09:24:12Z</time>
      </trkpt>
      <trkpt lat="42.851918" lon="-.678319">
        <ele>1280.932</ele>
        <time>2020-09-05T09:24:16Z</time>
      </trkpt>
      <trkpt lat="42.851904" lon="-.678244">
        <ele>1281.263</ele>
        <time>2020-09-05T09:24:21Z</time>
      </trkpt>
      <trkpt lat="42.851896" lon="-.678178">
        <ele>1281.569</ele>
        <time>2020-09-05T09:24:25Z</time>
      </trkpt>
      <trkpt lat="42.851887" lon="-.678114">
        <ele>1281.977</ele>
        <time>2020-09-05T09:24:29Z</time>
      </trkpt>
      <trkpt lat="42.851871" lon="-.678045">
        <ele>1282.288</ele>
        <time>2020-09-05T09:24:33Z</time>
      </trkpt>
      <trkpt lat="42.851854" lon="-.677971">
        <ele>1282.575</ele>
        <time>2020-09-05T09:24:37Z</time>
      </trkpt>
      <trkpt lat="42.851837" lon="-.67789">
        <ele>1282.711</ele>
        <time>2020-09-05T09:24:42Z</time>
      </trkpt>
      <trkpt lat="42.851815" lon="-.677827">
        <ele>1283.731</ele>
        <time>2020-09-05T09:24:46Z</time>
      </trkpt>
      <trkpt lat="42.851797" lon="-.677769">
        <ele>1284.473</ele>
        <time>2020-09-05T09:24:48Z</time>
      </trkpt>
      <trkpt lat="42.851778" lon="-.67771">
        <ele>1284.985</ele>
        <time>2020-09-05T09:24:52Z</time>
      </trkpt>
      <trkpt lat="42.85176" lon="-.677651">
        <ele>1285.313</ele>
        <time>2020-09-05T09:24:55Z</time>
      </trkpt>
      <trkpt lat="42.851742" lon="-.677588">
        <ele>1285.808</ele>
        <time>2020-09-05T09:25:00Z</time>
      </trkpt>
      <trkpt lat="42.851736" lon="-.677525">
        <ele>1286.252</ele>
        <time>2020-09-05T09:25:04Z</time>
      </trkpt>
      <trkpt lat="42.85173" lon="-.677461">
        <ele>1286.583</ele>
        <time>2020-09-05T09:25:08Z</time>
      </trkpt>
      <trkpt lat="42.851708" lon="-.677398">
        <ele>1286.789</ele>
        <time>2020-09-05T09:25:12Z</time>
      </trkpt>
      <trkpt lat="42.851687" lon="-.677338">
        <ele>1286.887</ele>
        <time>2020-09-05T09:25:16Z</time>
      </trkpt>
      <trkpt lat="42.851665" lon="-.677271">
        <ele>1286.848</ele>
        <time>2020-09-05T09:25:20Z</time>
      </trkpt>
      <trkpt lat="42.851644" lon="-.677216">
        <ele>1286.735</ele>
        <time>2020-09-05T09:25:23Z</time>
      </trkpt>
      <trkpt lat="42.851617" lon="-.67716">
        <ele>1286.751</ele>
        <time>2020-09-05T09:25:27Z</time>
      </trkpt>
      <trkpt lat="42.851591" lon="-.677105">
        <ele>1286.591</ele>
        <time>2020-09-05T09:25:31Z</time>
      </trkpt>
      <trkpt lat="42.851574" lon="-.67704">
        <ele>1286.497</ele>
        <time>2020-09-05T09:25:35Z</time>
      </trkpt>
      <trkpt lat="42.851561" lon="-.676972">
        <ele>1286.423</ele>
        <time>2020-09-05T09:25:39Z</time>
      </trkpt>
      <trkpt lat="42.851549" lon="-.676912">
        <ele>1286.325</ele>
        <time>2020-09-05T09:25:42Z</time>
      </trkpt>
      <trkpt lat="42.851536" lon="-.676846">
        <ele>1286.208</ele>
        <time>2020-09-05T09:25:47Z</time>
      </trkpt>
      <trkpt lat="42.851526" lon="-.676781">
        <ele>1286.144</ele>
        <time>2020-09-05T09:25:52Z</time>
      </trkpt>
      <trkpt lat="42.851502" lon="-.676723">
        <ele>1286.195</ele>
        <time>2020-09-05T09:25:56Z</time>
      </trkpt>
      <trkpt lat="42.851483" lon="-.676655">
        <ele>1286.261</ele>
        <time>2020-09-05T09:26:01Z</time>
      </trkpt>
      <trkpt lat="42.851469" lon="-.676582">
        <ele>1286.249</ele>
        <time>2020-09-05T09:26:06Z</time>
      </trkpt>
      <trkpt lat="42.851446" lon="-.676522">
        <ele>1286.360</ele>
        <time>2020-09-05T09:26:10Z</time>
      </trkpt>
      <trkpt lat="42.851422" lon="-.676464">
        <ele>1286.517</ele>
        <time>2020-09-05T09:26:15Z</time>
      </trkpt>
      <trkpt lat="42.851398" lon="-.676402">
        <ele>1286.843</ele>
        <time>2020-09-05T09:26:19Z</time>
      </trkpt>
      <trkpt lat="42.851377" lon="-.676343">
        <ele>1287.073</ele>
        <time>2020-09-05T09:26:22Z</time>
      </trkpt>
      <trkpt lat="42.85135" lon="-.676288">
        <ele>1287.347</ele>
        <time>2020-09-05T09:26:27Z</time>
      </trkpt>
      <trkpt lat="42.85132" lon="-.676232">
        <ele>1287.729</ele>
        <time>2020-09-05T09:26:32Z</time>
      </trkpt>
      <trkpt lat="42.851304" lon="-.676169">
        <ele>1288.021</ele>
        <time>2020-09-05T09:26:36Z</time>
      </trkpt>
      <trkpt lat="42.851283" lon="-.676114">
        <ele>1288.208</ele>
        <time>2020-09-05T09:26:39Z</time>
      </trkpt>
      <trkpt lat="42.851265" lon="-.676052">
        <ele>1288.469</ele>
        <time>2020-09-05T09:26:42Z</time>
      </trkpt>
      <trkpt lat="42.85125" lon="-.675993">
        <ele>1288.540</ele>
        <time>2020-09-05T09:26:47Z</time>
      </trkpt>
      <trkpt lat="42.851225" lon="-.67594">
        <ele>1288.576</ele>
        <time>2020-09-05T09:26:51Z</time>
      </trkpt>
      <trkpt lat="42.851203" lon="-.675883">
        <ele>1288.554</ele>
        <time>2020-09-05T09:26:54Z</time>
      </trkpt>
      <trkpt lat="42.851181" lon="-.675821">
        <ele>1288.515</ele>
        <time>2020-09-05T09:26:59Z</time>
      </trkpt>
      <trkpt lat="42.85116" lon="-.675761">
        <ele>1288.452</ele>
        <time>2020-09-05T09:27:03Z</time>
      </trkpt>
      <trkpt lat="42.851143" lon="-.675701">
        <ele>1288.338</ele>
        <time>2020-09-05T09:27:06Z</time>
      </trkpt>
      <trkpt lat="42.85114" lon="-.675635">
        <ele>1288.118</ele>
        <time>2020-09-05T09:27:10Z</time>
      </trkpt>
      <trkpt lat="42.851134" lon="-.67557">
        <ele>1287.959</ele>
        <time>2020-09-05T09:27:14Z</time>
      </trkpt>
      <trkpt lat="42.851126" lon="-.675503">
        <ele>1287.703</ele>
        <time>2020-09-05T09:27:17Z</time>
      </trkpt>
      <trkpt lat="42.85111" lon="-.675434">
        <ele>1287.423</ele>
        <time>2020-09-05T09:27:22Z</time>
      </trkpt>
      <trkpt lat="42.851092" lon="-.675368">
        <ele>1287.008</ele>
        <time>2020-09-05T09:27:27Z</time>
      </trkpt>
      <trkpt lat="42.851068" lon="-.675309">
        <ele>1286.460</ele>
        <time>2020-09-05T09:27:31Z</time>
      </trkpt>
      <trkpt lat="42.851039" lon="-.675253">
        <ele>1285.981</ele>
        <time>2020-09-05T09:27:36Z</time>
      </trkpt>
      <trkpt lat="42.851008" lon="-.675197">
        <ele>1285.517</ele>
        <time>2020-09-05T09:27:40Z</time>
      </trkpt>
      <trkpt lat="42.850979" lon="-.675145">
        <ele>1285.045</ele>
        <time>2020-09-05T09:27:44Z</time>
      </trkpt>
      <trkpt lat="42.85095" lon="-.675093">
        <ele>1284.736</ele>
        <time>2020-09-05T09:27:49Z</time>
      </trkpt>
      <trkpt lat="42.850921" lon="-.675033">
        <ele>1284.673</ele>
        <time>2020-09-05T09:27:54Z</time>
      </trkpt>
      <trkpt lat="42.850898" lon="-.674975">
        <ele>1284.629</ele>
        <time>2020-09-05T09:27:57Z</time>
      </trkpt>
      <trkpt lat="42.850874" lon="-.67492">
        <ele>1284.789</ele>
        <time>2020-09-05T09:28:01Z</time>
      </trkpt>
      <trkpt lat="42.85085" lon="-.674864">
        <ele>1284.848</ele>
        <time>2020-09-05T09:28:05Z</time>
      </trkpt>
      <trkpt lat="42.850826" lon="-.674809">
        <ele>1287.161</ele>
        <time>2020-09-05T09:28:09Z</time>
      </trkpt>
      <trkpt lat="42.850802" lon="-.674745">
        <ele>1288.617</ele>
        <time>2020-09-05T09:28:13Z</time>
      </trkpt>
      <trkpt lat="42.85079" lon="-.674685">
        <ele>1289.608</ele>
        <time>2020-09-05T09:28:16Z</time>
      </trkpt>
      <trkpt lat="42.850769" lon="-.674628">
        <ele>1290.419</ele>
        <time>2020-09-05T09:28:20Z</time>
      </trkpt>
      <trkpt lat="42.85075" lon="-.674568">
        <ele>1291.010</ele>
        <time>2020-09-05T09:28:24Z</time>
      </trkpt>
      <trkpt lat="42.850745" lon="-.674502">
        <ele>1291.416</ele>
        <time>2020-09-05T09:28:29Z</time>
      </trkpt>
      <trkpt lat="42.850756" lon="-.674437">
        <ele>1290.174</ele>
        <time>2020-09-05T09:29:01Z</time>
      </trkpt>
      <trkpt lat="42.850731" lon="-.674385">
        <ele>1289.315</ele>
        <time>2020-09-05T09:29:04Z</time>
      </trkpt>
      <trkpt lat="42.850705" lon="-.674333">
        <ele>1288.932</ele>
        <time>2020-09-05T09:29:08Z</time>
      </trkpt>
      <trkpt lat="42.850679" lon="-.674278">
        <ele>1288.858</ele>
        <time>2020-09-05T09:29:12Z</time>
      </trkpt>
      <trkpt lat="42.850654" lon="-.67422">
        <ele>1288.898</ele>
        <time>2020-09-05T09:29:16Z</time>
      </trkpt>
      <trkpt lat="42.85063" lon="-.674161">
        <ele>1288.945</ele>
        <time>2020-09-05T09:29:20Z</time>
      </trkpt>
      <trkpt lat="42.8506" lon="-.674102">
        <ele>1289.047</ele>
        <time>2020-09-05T09:29:25Z</time>
      </trkpt>
      <trkpt lat="42.850578" lon="-.674045">
        <ele>1289.011</ele>
        <time>2020-09-05T09:29:28Z</time>
      </trkpt>
      <trkpt lat="42.850558" lon="-.673989">
        <ele>1289.008</ele>
        <time>2020-09-05T09:29:31Z</time>
      </trkpt>
      <trkpt lat="42.850537" lon="-.673926">
        <ele>1288.919</ele>
        <time>2020-09-05T09:29:35Z</time>
      </trkpt>
      <trkpt lat="42.850519" lon="-.673869">
        <ele>1288.970</ele>
        <time>2020-09-05T09:29:39Z</time>
      </trkpt>
      <trkpt lat="42.850486" lon="-.673809">
        <ele>1288.886</ele>
        <time>2020-09-05T09:29:43Z</time>
      </trkpt>
      <trkpt lat="42.850461" lon="-.673755">
        <ele>1288.634</ele>
        <time>2020-09-05T09:29:47Z</time>
      </trkpt>
      <trkpt lat="42.850446" lon="-.673695">
        <ele>1288.365</ele>
        <time>2020-09-05T09:29:51Z</time>
      </trkpt>
      <trkpt lat="42.850428" lon="-.673633">
        <ele>1288.162</ele>
        <time>2020-09-05T09:29:55Z</time>
      </trkpt>
      <trkpt lat="42.850398" lon="-.673583">
        <ele>1288.088</ele>
        <time>2020-09-05T09:29:59Z</time>
      </trkpt>
      <trkpt lat="42.850359" lon="-.673548">
        <ele>1288.128</ele>
        <time>2020-09-05T09:30:03Z</time>
      </trkpt>
      <trkpt lat="42.850333" lon="-.673497">
        <ele>1288.377</ele>
        <time>2020-09-05T09:30:08Z</time>
      </trkpt>
      <trkpt lat="42.850309" lon="-.673443">
        <ele>1288.661</ele>
        <time>2020-09-05T09:30:15Z</time>
      </trkpt>
      <trkpt lat="42.850285" lon="-.673385">
        <ele>1288.927</ele>
        <time>2020-09-05T09:30:20Z</time>
      </trkpt>
      <trkpt lat="42.850264" lon="-.67332">
        <ele>1289.208</ele>
        <time>2020-09-05T09:30:25Z</time>
      </trkpt>
      <trkpt lat="42.850245" lon="-.673262">
        <ele>1289.422</ele>
        <time>2020-09-05T09:30:29Z</time>
      </trkpt>
      <trkpt lat="42.850226" lon="-.673194">
        <ele>1289.513</ele>
        <time>2020-09-05T09:30:33Z</time>
      </trkpt>
      <trkpt lat="42.850204" lon="-.673137">
        <ele>1289.769</ele>
        <time>2020-09-05T09:30:37Z</time>
      </trkpt>
      <trkpt lat="42.850183" lon="-.673081">
        <ele>1289.957</ele>
        <time>2020-09-05T09:30:42Z</time>
      </trkpt>
      <trkpt lat="42.850143" lon="-.67304">
        <ele>1290.288</ele>
        <time>2020-09-05T09:30:46Z</time>
      </trkpt>
      <trkpt lat="42.850104" lon="-.673004">
        <ele>1290.575</ele>
        <time>2020-09-05T09:30:51Z</time>
      </trkpt>
      <trkpt lat="42.850066" lon="-.672956">
        <ele>1290.861</ele>
        <time>2020-09-05T09:30:56Z</time>
      </trkpt>
      <trkpt lat="42.850033" lon="-.672911">
        <ele>1291.011</ele>
        <time>2020-09-05T09:31:00Z</time>
      </trkpt>
      <trkpt lat="42.850001" lon="-.672858">
        <ele>1291.372</ele>
        <time>2020-09-05T09:31:05Z</time>
      </trkpt>
      <trkpt lat="42.849976" lon="-.6728">
        <ele>1291.613</ele>
        <time>2020-09-05T09:31:12Z</time>
      </trkpt>
      <trkpt lat="42.849945" lon="-.672755">
        <ele>1292.014</ele>
        <time>2020-09-05T09:31:19Z</time>
      </trkpt>
      <trkpt lat="42.849913" lon="-.672708">
        <ele>1292.308</ele>
        <time>2020-09-05T09:31:24Z</time>
      </trkpt>
      <trkpt lat="42.849883" lon="-.672661">
        <ele>1292.512</ele>
        <time>2020-09-05T09:31:29Z</time>
      </trkpt>
      <trkpt lat="42.849847" lon="-.672616">
        <ele>1292.663</ele>
        <time>2020-09-05T09:31:34Z</time>
      </trkpt>
      <trkpt lat="42.849815" lon="-.672565">
        <ele>1292.739</ele>
        <time>2020-09-05T09:31:38Z</time>
      </trkpt>
      <trkpt lat="42.849791" lon="-.672504">
        <ele>1292.917</ele>
        <time>2020-09-05T09:31:43Z</time>
      </trkpt>
      <trkpt lat="42.849759" lon="-.672455">
        <ele>1293.198</ele>
        <time>2020-09-05T09:31:48Z</time>
      </trkpt>
      <trkpt lat="42.849719" lon="-.672412">
        <ele>1293.365</ele>
        <time>2020-09-05T09:31:52Z</time>
      </trkpt>
      <trkpt lat="42.849683" lon="-.672362">
        <ele>1293.621</ele>
        <time>2020-09-05T09:31:57Z</time>
      </trkpt>
      <trkpt lat="42.849655" lon="-.672312">
        <ele>1293.991</ele>
        <time>2020-09-05T09:32:00Z</time>
      </trkpt>
      <trkpt lat="42.849627" lon="-.67226">
        <ele>1294.111</ele>
        <time>2020-09-05T09:32:05Z</time>
      </trkpt>
      <trkpt lat="42.849599" lon="-.672211">
        <ele>1294.321</ele>
        <time>2020-09-05T09:32:09Z</time>
      </trkpt>
      <trkpt lat="42.849571" lon="-.672149">
        <ele>1294.503</ele>
        <time>2020-09-05T09:32:14Z</time>
      </trkpt>
      <trkpt lat="42.84954" lon="-.672101">
        <ele>1294.708</ele>
        <time>2020-09-05T09:32:19Z</time>
      </trkpt>
      <trkpt lat="42.849508" lon="-.672048">
        <ele>1294.926</ele>
        <time>2020-09-05T09:32:23Z</time>
      </trkpt>
      <trkpt lat="42.849491" lon="-.671988">
        <ele>1293.657</ele>
        <time>2020-09-05T09:32:37Z</time>
      </trkpt>
      <trkpt lat="42.849449" lon="-.671946">
        <ele>1293.433</ele>
        <time>2020-09-05T09:32:56Z</time>
      </trkpt>
      <trkpt lat="42.849406" lon="-.671909">
        <ele>1293.481</ele>
        <time>2020-09-05T09:33:01Z</time>
      </trkpt>
      <trkpt lat="42.849364" lon="-.671876">
        <ele>1293.692</ele>
        <time>2020-09-05T09:33:05Z</time>
      </trkpt>
      <trkpt lat="42.849328" lon="-.671836">
        <ele>1295.189</ele>
        <time>2020-09-05T09:33:09Z</time>
      </trkpt>
      <trkpt lat="42.849294" lon="-.671791">
        <ele>1296.325</ele>
        <time>2020-09-05T09:33:14Z</time>
      </trkpt>
      <trkpt lat="42.849259" lon="-.671735">
        <ele>1297.185</ele>
        <time>2020-09-05T09:33:18Z</time>
      </trkpt>
      <trkpt lat="42.849231" lon="-.671684">
        <ele>1297.879</ele>
        <time>2020-09-05T09:33:23Z</time>
      </trkpt>
      <trkpt lat="42.849205" lon="-.671628">
        <ele>1298.405</ele>
        <time>2020-09-05T09:33:27Z</time>
      </trkpt>
      <trkpt lat="42.849173" lon="-.671569">
        <ele>1298.925</ele>
        <time>2020-09-05T09:33:32Z</time>
      </trkpt>
      <trkpt lat="42.849145" lon="-.67152">
        <ele>1299.408</ele>
        <time>2020-09-05T09:33:36Z</time>
      </trkpt>
      <trkpt lat="42.849113" lon="-.671476">
        <ele>1300.052</ele>
        <time>2020-09-05T09:33:41Z</time>
      </trkpt>
      <trkpt lat="42.84908" lon="-.671425">
        <ele>1300.683</ele>
        <time>2020-09-05T09:33:45Z</time>
      </trkpt>
      <trkpt lat="42.849052" lon="-.671372">
        <ele>1301.299</ele>
        <time>2020-09-05T09:33:49Z</time>
      </trkpt>
      <trkpt lat="42.849023" lon="-.671325">
        <ele>1301.817</ele>
        <time>2020-09-05T09:33:54Z</time>
      </trkpt>
      <trkpt lat="42.84899" lon="-.671281">
        <ele>1302.338</ele>
        <time>2020-09-05T09:33:58Z</time>
      </trkpt>
      <trkpt lat="42.84895" lon="-.671239">
        <ele>1302.835</ele>
        <time>2020-09-05T09:34:02Z</time>
      </trkpt>
      <trkpt lat="42.84892" lon="-.67119">
        <ele>1303.441</ele>
        <time>2020-09-05T09:34:07Z</time>
      </trkpt>
      <trkpt lat="42.848892" lon="-.671139">
        <ele>1303.971</ele>
        <time>2020-09-05T09:34:12Z</time>
      </trkpt>
      <trkpt lat="42.848857" lon="-.671093">
        <ele>1304.543</ele>
        <time>2020-09-05T09:34:16Z</time>
      </trkpt>
      <trkpt lat="42.848822" lon="-.671046">
        <ele>1305.164</ele>
        <time>2020-09-05T09:34:20Z</time>
      </trkpt>
      <trkpt lat="42.848784" lon="-.670998">
        <ele>1305.710</ele>
        <time>2020-09-05T09:34:25Z</time>
      </trkpt>
      <trkpt lat="42.848755" lon="-.67095">
        <ele>1306.108</ele>
        <time>2020-09-05T09:34:29Z</time>
      </trkpt>
      <trkpt lat="42.84872" lon="-.670904">
        <ele>1306.679</ele>
        <time>2020-09-05T09:34:34Z</time>
      </trkpt>
      <trkpt lat="42.848687" lon="-.670849">
        <ele>1307.230</ele>
        <time>2020-09-05T09:34:38Z</time>
      </trkpt>
      <trkpt lat="42.848659" lon="-.670791">
        <ele>1307.846</ele>
        <time>2020-09-05T09:34:43Z</time>
      </trkpt>
      <trkpt lat="42.84863" lon="-.670732">
        <ele>1308.644</ele>
        <time>2020-09-05T09:34:48Z</time>
      </trkpt>
      <trkpt lat="42.848601" lon="-.670677">
        <ele>1309.425</ele>
        <time>2020-09-05T09:34:53Z</time>
      </trkpt>
      <trkpt lat="42.848574" lon="-.670624">
        <ele>1310.162</ele>
        <time>2020-09-05T09:34:59Z</time>
      </trkpt>
      <trkpt lat="42.848548" lon="-.670573">
        <ele>1310.948</ele>
        <time>2020-09-05T09:35:03Z</time>
      </trkpt>
      <trkpt lat="42.848512" lon="-.670524">
        <ele>1311.648</ele>
        <time>2020-09-05T09:35:08Z</time>
      </trkpt>
      <trkpt lat="42.848502" lon="-.670461">
        <ele>1312.678</ele>
        <time>2020-09-05T09:35:22Z</time>
      </trkpt>
      <trkpt lat="42.848472" lon="-.670413">
        <ele>1313.133</ele>
        <time>2020-09-05T09:35:26Z</time>
      </trkpt>
      <trkpt lat="42.848444" lon="-.670362">
        <ele>1313.426</ele>
        <time>2020-09-05T09:35:30Z</time>
      </trkpt>
      <trkpt lat="42.84841" lon="-.67032">
        <ele>1313.708</ele>
        <time>2020-09-05T09:35:34Z</time>
      </trkpt>
      <trkpt lat="42.848374" lon="-.670275">
        <ele>1313.992</ele>
        <time>2020-09-05T09:35:37Z</time>
      </trkpt>
      <trkpt lat="42.848337" lon="-.670227">
        <ele>1314.023</ele>
        <time>2020-09-05T09:35:41Z</time>
      </trkpt>
      <trkpt lat="42.848303" lon="-.670175">
        <ele>1314.699</ele>
        <time>2020-09-05T09:35:44Z</time>
      </trkpt>
      <trkpt lat="42.848269" lon="-.670129">
        <ele>1314.947</ele>
        <time>2020-09-05T09:35:48Z</time>
      </trkpt>
      <trkpt lat="42.848232" lon="-.670083">
        <ele>1315.068</ele>
        <time>2020-09-05T09:35:51Z</time>
      </trkpt>
      <trkpt lat="42.848196" lon="-.670026">
        <ele>1315.075</ele>
        <time>2020-09-05T09:35:56Z</time>
      </trkpt>
      <trkpt lat="42.848162" lon="-.669977">
        <ele>1315.011</ele>
        <time>2020-09-05T09:36:01Z</time>
      </trkpt>
      <trkpt lat="42.84813" lon="-.66993">
        <ele>1315.111</ele>
        <time>2020-09-05T09:36:05Z</time>
      </trkpt>
      <trkpt lat="42.848089" lon="-.669885">
        <ele>1315.447</ele>
        <time>2020-09-05T09:36:10Z</time>
      </trkpt>
      <trkpt lat="42.848058" lon="-.669833">
        <ele>1315.529</ele>
        <time>2020-09-05T09:36:14Z</time>
      </trkpt>
      <trkpt lat="42.848031" lon="-.669781">
        <ele>1315.521</ele>
        <time>2020-09-05T09:36:18Z</time>
      </trkpt>
      <trkpt lat="42.848002" lon="-.669728">
        <ele>1315.608</ele>
        <time>2020-09-05T09:36:23Z</time>
      </trkpt>
      <trkpt lat="42.847966" lon="-.669685">
        <ele>1315.699</ele>
        <time>2020-09-05T09:36:27Z</time>
      </trkpt>
      <trkpt lat="42.847929" lon="-.669634">
        <ele>1315.680</ele>
        <time>2020-09-05T09:36:31Z</time>
      </trkpt>
      <trkpt lat="42.847898" lon="-.669584">
        <ele>1315.616</ele>
        <time>2020-09-05T09:36:35Z</time>
      </trkpt>
      <trkpt lat="42.847858" lon="-.669524">
        <ele>1315.754</ele>
        <time>2020-09-05T09:36:39Z</time>
      </trkpt>
      <trkpt lat="42.847825" lon="-.669466">
        <ele>1316.075</ele>
        <time>2020-09-05T09:36:43Z</time>
      </trkpt>
      <trkpt lat="42.847792" lon="-.669412">
        <ele>1316.342</ele>
        <time>2020-09-05T09:36:47Z</time>
      </trkpt>
      <trkpt lat="42.847759" lon="-.669366">
        <ele>1316.458</ele>
        <time>2020-09-05T09:36:51Z</time>
      </trkpt>
      <trkpt lat="42.847723" lon="-.66932">
        <ele>1316.478</ele>
        <time>2020-09-05T09:36:55Z</time>
      </trkpt>
      <trkpt lat="42.847683" lon="-.669264">
        <ele>1316.592</ele>
        <time>2020-09-05T09:36:59Z</time>
      </trkpt>
      <trkpt lat="42.847648" lon="-.669211">
        <ele>1316.873</ele>
        <time>2020-09-05T09:37:02Z</time>
      </trkpt>
      <trkpt lat="42.84761" lon="-.669156">
        <ele>1316.920</ele>
        <time>2020-09-05T09:37:06Z</time>
      </trkpt>
      <trkpt lat="42.847587" lon="-.6691">
        <ele>1317.308</ele>
        <time>2020-09-05T09:37:11Z</time>
      </trkpt>
      <trkpt lat="42.847565" lon="-.669035">
        <ele>1319.874</ele>
        <time>2020-09-05T09:37:14Z</time>
      </trkpt>
      <trkpt lat="42.847546" lon="-.668972">
        <ele>1321.625</ele>
        <time>2020-09-05T09:37:17Z</time>
      </trkpt>
      <trkpt lat="42.847523" lon="-.668903">
        <ele>1322.961</ele>
        <time>2020-09-05T09:37:20Z</time>
      </trkpt>
      <trkpt lat="42.847504" lon="-.668841">
        <ele>1323.939</ele>
        <time>2020-09-05T09:37:23Z</time>
      </trkpt>
      <trkpt lat="42.847487" lon="-.668774">
        <ele>1324.850</ele>
        <time>2020-09-05T09:37:27Z</time>
      </trkpt>
      <trkpt lat="42.84747" lon="-.668707">
        <ele>1325.587</ele>
        <time>2020-09-05T09:37:31Z</time>
      </trkpt>
      <trkpt lat="42.847456" lon="-.668647">
        <ele>1326.113</ele>
        <time>2020-09-05T09:37:34Z</time>
      </trkpt>
      <trkpt lat="42.847442" lon="-.668581">
        <ele>1326.673</ele>
        <time>2020-09-05T09:37:37Z</time>
      </trkpt>
      <trkpt lat="42.847435" lon="-.668505">
        <ele>1327.191</ele>
        <time>2020-09-05T09:37:42Z</time>
      </trkpt>
      <trkpt lat="42.847432" lon="-.668441">
        <ele>1327.581</ele>
        <time>2020-09-05T09:37:46Z</time>
      </trkpt>
      <trkpt lat="42.847425" lon="-.668378">
        <ele>1328.019</ele>
        <time>2020-09-05T09:37:50Z</time>
      </trkpt>
      <trkpt lat="42.847409" lon="-.668318">
        <ele>1328.408</ele>
        <time>2020-09-05T09:37:54Z</time>
      </trkpt>
      <trkpt lat="42.847389" lon="-.668249">
        <ele>1329.214</ele>
        <time>2020-09-05T09:37:58Z</time>
      </trkpt>
      <trkpt lat="42.847373" lon="-.668184">
        <ele>1329.615</ele>
        <time>2020-09-05T09:38:02Z</time>
      </trkpt>
      <trkpt lat="42.847361" lon="-.668116">
        <ele>1330.081</ele>
        <time>2020-09-05T09:38:06Z</time>
      </trkpt>
      <trkpt lat="42.847351" lon="-.668053">
        <ele>1330.459</ele>
        <time>2020-09-05T09:38:09Z</time>
      </trkpt>
      <trkpt lat="42.847348" lon="-.667986">
        <ele>1330.670</ele>
        <time>2020-09-05T09:38:13Z</time>
      </trkpt>
      <trkpt lat="42.847346" lon="-.667918">
        <ele>1330.747</ele>
        <time>2020-09-05T09:38:16Z</time>
      </trkpt>
      <trkpt lat="42.847337" lon="-.667851">
        <ele>1330.513</ele>
        <time>2020-09-05T09:38:20Z</time>
      </trkpt>
      <trkpt lat="42.84732" lon="-.667784">
        <ele>1330.463</ele>
        <time>2020-09-05T09:38:25Z</time>
      </trkpt>
      <trkpt lat="42.84731" lon="-.667717">
        <ele>1330.414</ele>
        <time>2020-09-05T09:38:29Z</time>
      </trkpt>
      <trkpt lat="42.847299" lon="-.667655">
        <ele>1330.654</ele>
        <time>2020-09-05T09:38:33Z</time>
      </trkpt>
      <trkpt lat="42.847292" lon="-.667591">
        <ele>1331.009</ele>
        <time>2020-09-05T09:38:37Z</time>
      </trkpt>
      <trkpt lat="42.847277" lon="-.667518">
        <ele>1331.508</ele>
        <time>2020-09-05T09:38:42Z</time>
      </trkpt>
      <trkpt lat="42.847263" lon="-.667452">
        <ele>1331.856</ele>
        <time>2020-09-05T09:38:47Z</time>
      </trkpt>
      <trkpt lat="42.847249" lon="-.667388">
        <ele>1331.957</ele>
        <time>2020-09-05T09:38:50Z</time>
      </trkpt>
      <trkpt lat="42.847236" lon="-.667328">
        <ele>1331.993</ele>
        <time>2020-09-05T09:38:54Z</time>
      </trkpt>
      <trkpt lat="42.847218" lon="-.667258">
        <ele>1332.221</ele>
        <time>2020-09-05T09:38:57Z</time>
      </trkpt>
      <trkpt lat="42.84721" lon="-.667195">
        <ele>1333.022</ele>
        <time>2020-09-05T09:39:00Z</time>
      </trkpt>
      <trkpt lat="42.847214" lon="-.667131">
        <ele>1333.739</ele>
        <time>2020-09-05T09:39:04Z</time>
      </trkpt>
      <trkpt lat="42.847223" lon="-.667068">
        <ele>1334.125</ele>
        <time>2020-09-05T09:39:10Z</time>
      </trkpt>
      <trkpt lat="42.847216" lon="-.667007">
        <ele>1334.235</ele>
        <time>2020-09-05T09:39:14Z</time>
      </trkpt>
      <trkpt lat="42.847197" lon="-.666942">
        <ele>1334.468</ele>
        <time>2020-09-05T09:39:18Z</time>
      </trkpt>
      <trkpt lat="42.847173" lon="-.666863">
        <ele>1334.642</ele>
        <time>2020-09-05T09:39:21Z</time>
      </trkpt>
      <trkpt lat="42.847139" lon="-.666788">
        <ele>1334.826</ele>
        <time>2020-09-05T09:39:24Z</time>
      </trkpt>
      <trkpt lat="42.847101" lon="-.666708">
        <ele>1334.808</ele>
        <time>2020-09-05T09:39:26Z</time>
      </trkpt>
      <trkpt lat="42.847073" lon="-.666649">
        <ele>1334.981</ele>
        <time>2020-09-05T09:39:29Z</time>
      </trkpt>
      <trkpt lat="42.847053" lon="-.666592">
        <ele>1335.092</ele>
        <time>2020-09-05T09:39:34Z</time>
      </trkpt>
      <trkpt lat="42.847034" lon="-.666532">
        <ele>1335.078</ele>
        <time>2020-09-05T09:39:40Z</time>
      </trkpt>
      <trkpt lat="42.84702" lon="-.666468">
        <ele>1335.046</ele>
        <time>2020-09-05T09:39:45Z</time>
      </trkpt>
      <trkpt lat="42.847002" lon="-.666397">
        <ele>1335.027</ele>
        <time>2020-09-05T09:39:49Z</time>
      </trkpt>
      <trkpt lat="42.846994" lon="-.666332">
        <ele>1335.164</ele>
        <time>2020-09-05T09:39:53Z</time>
      </trkpt>
      <trkpt lat="42.846987" lon="-.666269">
        <ele>1335.230</ele>
        <time>2020-09-05T09:39:56Z</time>
      </trkpt>
      <trkpt lat="42.84698" lon="-.666201">
        <ele>1335.360</ele>
        <time>2020-09-05T09:40:00Z</time>
      </trkpt>
      <trkpt lat="42.84698" lon="-.666201">
        <ele>1335.349</ele>
        <time>2020-09-05T09:40:00Z</time>
      </trkpt>
      <trkpt lat="42.846972" lon="-.666135">
        <ele>1335.402</ele>
        <time>2020-09-05T09:40:03Z</time>
      </trkpt>
      <trkpt lat="42.846955" lon="-.666054">
        <ele>1335.722</ele>
        <time>2020-09-05T09:40:07Z</time>
      </trkpt>
      <trkpt lat="42.846937" lon="-.665985">
        <ele>1336.008</ele>
        <time>2020-09-05T09:40:10Z</time>
      </trkpt>
      <trkpt lat="42.846932" lon="-.66592">
        <ele>1336.319</ele>
        <time>2020-09-05T09:40:13Z</time>
      </trkpt>
      <trkpt lat="42.846926" lon="-.665858">
        <ele>1336.980</ele>
        <time>2020-09-05T09:40:17Z</time>
      </trkpt>
      <trkpt lat="42.84692" lon="-.665797">
        <ele>1337.446</ele>
        <time>2020-09-05T09:40:21Z</time>
      </trkpt>
      <trkpt lat="42.846897" lon="-.665731">
        <ele>1338.274</ele>
        <time>2020-09-05T09:40:26Z</time>
      </trkpt>
      <trkpt lat="42.846877" lon="-.665665">
        <ele>1338.945</ele>
        <time>2020-09-05T09:40:30Z</time>
      </trkpt>
      <trkpt lat="42.846846" lon="-.665611">
        <ele>1339.142</ele>
        <time>2020-09-05T09:40:35Z</time>
      </trkpt>
      <trkpt lat="42.846812" lon="-.665564">
        <ele>1339.348</ele>
        <time>2020-09-05T09:40:39Z</time>
      </trkpt>
      <trkpt lat="42.846779" lon="-.665512">
        <ele>1339.588</ele>
        <time>2020-09-05T09:40:43Z</time>
      </trkpt>
      <trkpt lat="42.846751" lon="-.665463">
        <ele>1339.754</ele>
        <time>2020-09-05T09:40:46Z</time>
      </trkpt>
      <trkpt lat="42.846724" lon="-.665413">
        <ele>1340.056</ele>
        <time>2020-09-05T09:40:50Z</time>
      </trkpt>
      <trkpt lat="42.8467" lon="-.665357">
        <ele>1340.011</ele>
        <time>2020-09-05T09:40:56Z</time>
      </trkpt>
      <trkpt lat="42.84667" lon="-.665302">
        <ele>1339.808</ele>
        <time>2020-09-05T09:41:00Z</time>
      </trkpt>
      <trkpt lat="42.846631" lon="-.665252">
        <ele>1339.890</ele>
        <time>2020-09-05T09:41:05Z</time>
      </trkpt>
      <trkpt lat="42.846597" lon="-.66521">
        <ele>1339.971</ele>
        <time>2020-09-05T09:41:08Z</time>
      </trkpt>
      <trkpt lat="42.846561" lon="-.665159">
        <ele>1340.247</ele>
        <time>2020-09-05T09:41:11Z</time>
      </trkpt>
      <trkpt lat="42.846533" lon="-.66511">
        <ele>1340.385</ele>
        <time>2020-09-05T09:41:15Z</time>
      </trkpt>
      <trkpt lat="42.846502" lon="-.665048">
        <ele>1340.156</ele>
        <time>2020-09-05T09:41:19Z</time>
      </trkpt>
      <trkpt lat="42.846471" lon="-.665003">
        <ele>1340.063</ele>
        <time>2020-09-05T09:41:22Z</time>
      </trkpt>
      <trkpt lat="42.846436" lon="-.664946">
        <ele>1340.049</ele>
        <time>2020-09-05T09:41:26Z</time>
      </trkpt>
      <trkpt lat="42.846408" lon="-.664895">
        <ele>1340.179</ele>
        <time>2020-09-05T09:41:29Z</time>
      </trkpt>
      <trkpt lat="42.846387" lon="-.664838">
        <ele>1340.111</ele>
        <time>2020-09-05T09:41:32Z</time>
      </trkpt>
      <trkpt lat="42.846371" lon="-.664777">
        <ele>1340.121</ele>
        <time>2020-09-05T09:41:37Z</time>
      </trkpt>
      <trkpt lat="42.846358" lon="-.664714">
        <ele>1340.203</ele>
        <time>2020-09-05T09:41:42Z</time>
      </trkpt>
      <trkpt lat="42.846318" lon="-.664676">
        <ele>1340.308</ele>
        <time>2020-09-05T09:41:46Z</time>
      </trkpt>
      <trkpt lat="42.846283" lon="-.664634">
        <ele>1340.456</ele>
        <time>2020-09-05T09:41:50Z</time>
      </trkpt>
      <trkpt lat="42.846248" lon="-.664577">
        <ele>1340.747</ele>
        <time>2020-09-05T09:41:54Z</time>
      </trkpt>
      <trkpt lat="42.846213" lon="-.66453">
        <ele>1340.923</ele>
        <time>2020-09-05T09:42:00Z</time>
      </trkpt>
      <trkpt lat="42.846181" lon="-.664479">
        <ele>1340.871</ele>
        <time>2020-09-05T09:42:04Z</time>
      </trkpt>
      <trkpt lat="42.846146" lon="-.664429">
        <ele>1340.882</ele>
        <time>2020-09-05T09:42:08Z</time>
      </trkpt>
      <trkpt lat="42.846116" lon="-.664381">
        <ele>1340.839</ele>
        <time>2020-09-05T09:42:11Z</time>
      </trkpt>
      <trkpt lat="42.846087" lon="-.664329">
        <ele>1340.855</ele>
        <time>2020-09-05T09:42:14Z</time>
      </trkpt>
      <trkpt lat="42.846065" lon="-.664271">
        <ele>1340.845</ele>
        <time>2020-09-05T09:42:17Z</time>
      </trkpt>
      <trkpt lat="42.846044" lon="-.664202">
        <ele>1340.842</ele>
        <time>2020-09-05T09:42:20Z</time>
      </trkpt>
      <trkpt lat="42.846023" lon="-.664135">
        <ele>1340.822</ele>
        <time>2020-09-05T09:42:24Z</time>
      </trkpt>
      <trkpt lat="42.846013" lon="-.664074">
        <ele>1340.714</ele>
        <time>2020-09-05T09:42:29Z</time>
      </trkpt>
      <trkpt lat="42.846008" lon="-.664011">
        <ele>1340.808</ele>
        <time>2020-09-05T09:42:33Z</time>
      </trkpt>
      <trkpt lat="42.846006" lon="-.663934">
        <ele>1341.069</ele>
        <time>2020-09-05T09:42:38Z</time>
      </trkpt>
      <trkpt lat="42.846011" lon="-.663865">
        <ele>1341.470</ele>
        <time>2020-09-05T09:42:42Z</time>
      </trkpt>
      <trkpt lat="42.846014" lon="-.663787">
        <ele>1341.546</ele>
        <time>2020-09-05T09:42:45Z</time>
      </trkpt>
      <trkpt lat="42.846009" lon="-.663721">
        <ele>1341.664</ele>
        <time>2020-09-05T09:42:47Z</time>
      </trkpt>
      <trkpt lat="42.846005" lon="-.66364">
        <ele>1341.745</ele>
        <time>2020-09-05T09:42:50Z</time>
      </trkpt>
      <trkpt lat="42.845992" lon="-.663575">
        <ele>1341.652</ele>
        <time>2020-09-05T09:42:55Z</time>
      </trkpt>
      <trkpt lat="42.845972" lon="-.663517">
        <ele>1341.488</ele>
        <time>2020-09-05T09:43:00Z</time>
      </trkpt>
      <trkpt lat="42.845955" lon="-.663457">
        <ele>1341.388</ele>
        <time>2020-09-05T09:43:04Z</time>
      </trkpt>
      <trkpt lat="42.845928" lon="-.663393">
        <ele>1341.346</ele>
        <time>2020-09-05T09:43:08Z</time>
      </trkpt>
      <trkpt lat="42.845896" lon="-.663336">
        <ele>1341.488</ele>
        <time>2020-09-05T09:43:12Z</time>
      </trkpt>
      <trkpt lat="42.845857" lon="-.663269">
        <ele>1341.316</ele>
        <time>2020-09-05T09:43:15Z</time>
      </trkpt>
      <trkpt lat="42.845832" lon="-.66321">
        <ele>1341.308</ele>
        <time>2020-09-05T09:43:18Z</time>
      </trkpt>
      <trkpt lat="42.845789" lon="-.663234">
        <ele>1341.449</ele>
        <time>2020-09-05T09:43:30Z</time>
      </trkpt>
      <trkpt lat="42.845744" lon="-.663186">
        <ele>1341.350</ele>
        <time>2020-09-05T09:43:36Z</time>
      </trkpt>
      <trkpt lat="42.845709" lon="-.663138">
        <ele>1341.256</ele>
        <time>2020-09-05T09:43:40Z</time>
      </trkpt>
      <trkpt lat="42.84568" lon="-.663083">
        <ele>1341.284</ele>
        <time>2020-09-05T09:43:43Z</time>
      </trkpt>
      <trkpt lat="42.845644" lon="-.663031">
        <ele>1341.355</ele>
        <time>2020-09-05T09:43:47Z</time>
      </trkpt>
      <trkpt lat="42.845614" lon="-.66298">
        <ele>1341.432</ele>
        <time>2020-09-05T09:43:50Z</time>
      </trkpt>
      <trkpt lat="42.845583" lon="-.662924">
        <ele>1341.428</ele>
        <time>2020-09-05T09:43:54Z</time>
      </trkpt>
      <trkpt lat="42.845555" lon="-.662863">
        <ele>1341.588</ele>
        <time>2020-09-05T09:43:57Z</time>
      </trkpt>
      <trkpt lat="42.845539" lon="-.662801">
        <ele>1341.667</ele>
        <time>2020-09-05T09:43:59Z</time>
      </trkpt>
      <trkpt lat="42.845498" lon="-.662753">
        <ele>1341.781</ele>
        <time>2020-09-05T09:44:03Z</time>
      </trkpt>
      <trkpt lat="42.845453" lon="-.662729">
        <ele>1341.319</ele>
        <time>2020-09-05T09:44:08Z</time>
      </trkpt>
      <trkpt lat="42.845423" lon="-.662677">
        <ele>1339.708</ele>
        <time>2020-09-05T09:44:13Z</time>
      </trkpt>
      <trkpt lat="42.845423" lon="-.662677">
        <ele>1339.731</ele>
        <time>2020-09-05T09:44:13Z</time>
      </trkpt>
      <trkpt lat="42.845402" lon="-.662618">
        <ele>1339.592</ele>
        <time>2020-09-05T09:44:16Z</time>
      </trkpt>
      <trkpt lat="42.845392" lon="-.662553">
        <ele>1339.248</ele>
        <time>2020-09-05T09:44:21Z</time>
      </trkpt>
      <trkpt lat="42.845374" lon="-.662494">
        <ele>1338.896</ele>
        <time>2020-09-05T09:44:35Z</time>
      </trkpt>
      <trkpt lat="42.845329" lon="-.662459">
        <ele>1338.567</ele>
        <time>2020-09-05T09:44:40Z</time>
      </trkpt>
      <trkpt lat="42.845282" lon="-.662423">
        <ele>1338.144</ele>
        <time>2020-09-05T09:44:43Z</time>
      </trkpt>
      <trkpt lat="42.845243" lon="-.66239">
        <ele>1337.890</ele>
        <time>2020-09-05T09:44:46Z</time>
      </trkpt>
      <trkpt lat="42.845205" lon="-.662347">
        <ele>1337.850</ele>
        <time>2020-09-05T09:44:49Z</time>
      </trkpt>
      <trkpt lat="42.845169" lon="-.6623">
        <ele>1337.923</ele>
        <time>2020-09-05T09:44:52Z</time>
      </trkpt>
      <trkpt lat="42.84516" lon="-.662238">
        <ele>1338.383</ele>
        <time>2020-09-05T09:44:56Z</time>
      </trkpt>
      <trkpt lat="42.845148" lon="-.662164">
        <ele>1338.911</ele>
        <time>2020-09-05T09:45:00Z</time>
      </trkpt>
      <trkpt lat="42.845118" lon="-.662097">
        <ele>1339.708</ele>
        <time>2020-09-05T09:45:04Z</time>
      </trkpt>
      <trkpt lat="42.845086" lon="-.662052">
        <ele>1340.677</ele>
        <time>2020-09-05T09:45:08Z</time>
      </trkpt>
      <trkpt lat="42.845048" lon="-.662016">
        <ele>1341.648</ele>
        <time>2020-09-05T09:45:12Z</time>
      </trkpt>
      <trkpt lat="42.84501" lon="-.661973">
        <ele>1342.514</ele>
        <time>2020-09-05T09:45:16Z</time>
      </trkpt>
      <trkpt lat="42.844969" lon="-.661934">
        <ele>1343.352</ele>
        <time>2020-09-05T09:45:20Z</time>
      </trkpt>
      <trkpt lat="42.844927" lon="-.661903">
        <ele>1344.153</ele>
        <time>2020-09-05T09:45:24Z</time>
      </trkpt>
      <trkpt lat="42.844897" lon="-.66185">
        <ele>1344.690</ele>
        <time>2020-09-05T09:45:29Z</time>
      </trkpt>
      <trkpt lat="42.844866" lon="-.661805">
        <ele>1345.046</ele>
        <time>2020-09-05T09:45:32Z</time>
      </trkpt>
      <trkpt lat="42.844833" lon="-.661759">
        <ele>1345.446</ele>
        <time>2020-09-05T09:45:36Z</time>
      </trkpt>
      <trkpt lat="42.844795" lon="-.66171">
        <ele>1346.087</ele>
        <time>2020-09-05T09:45:40Z</time>
      </trkpt>
      <trkpt lat="42.844753" lon="-.661661">
        <ele>1347.142</ele>
        <time>2020-09-05T09:45:46Z</time>
      </trkpt>
      <trkpt lat="42.844719" lon="-.661614">
        <ele>1348.026</ele>
        <time>2020-09-05T09:45:50Z</time>
      </trkpt>
      <trkpt lat="42.84469" lon="-.661562">
        <ele>1348.808</ele>
        <time>2020-09-05T09:45:55Z</time>
      </trkpt>
      <trkpt lat="42.844661" lon="-.66151">
        <ele>1349.543</ele>
        <time>2020-09-05T09:45:59Z</time>
      </trkpt>
      <trkpt lat="42.844631" lon="-.661451">
        <ele>1349.984</ele>
        <time>2020-09-05T09:46:03Z</time>
      </trkpt>
      <trkpt lat="42.844603" lon="-.661394">
        <ele>1350.060</ele>
        <time>2020-09-05T09:46:06Z</time>
      </trkpt>
      <trkpt lat="42.844581" lon="-.661337">
        <ele>1349.868</ele>
        <time>2020-09-05T09:46:10Z</time>
      </trkpt>
      <trkpt lat="42.844562" lon="-.661276">
        <ele>1350.049</ele>
        <time>2020-09-05T09:46:14Z</time>
      </trkpt>
      <trkpt lat="42.844536" lon="-.661219">
        <ele>1350.026</ele>
        <time>2020-09-05T09:46:18Z</time>
      </trkpt>
      <trkpt lat="42.844512" lon="-.661166">
        <ele>1349.912</ele>
        <time>2020-09-05T09:46:23Z</time>
      </trkpt>
      <trkpt lat="42.844486" lon="-.661107">
        <ele>1349.752</ele>
        <time>2020-09-05T09:46:27Z</time>
      </trkpt>
      <trkpt lat="42.844457" lon="-.661048">
        <ele>1349.741</ele>
        <time>2020-09-05T09:46:32Z</time>
      </trkpt>
      <trkpt lat="42.844427" lon="-.660987">
        <ele>1349.581</ele>
        <time>2020-09-05T09:46:36Z</time>
      </trkpt>
      <trkpt lat="42.844399" lon="-.660923">
        <ele>1349.309</ele>
        <time>2020-09-05T09:46:40Z</time>
      </trkpt>
      <trkpt lat="42.844378" lon="-.660855">
        <ele>1349.008</ele>
        <time>2020-09-05T09:46:44Z</time>
      </trkpt>
      <trkpt lat="42.844355" lon="-.660802">
        <ele>1348.539</ele>
        <time>2020-09-05T09:46:48Z</time>
      </trkpt>
      <trkpt lat="42.844321" lon="-.660747">
        <ele>1347.910</ele>
        <time>2020-09-05T09:46:53Z</time>
      </trkpt>
      <trkpt lat="42.844288" lon="-.660696">
        <ele>1347.586</ele>
        <time>2020-09-05T09:46:58Z</time>
      </trkpt>
      <trkpt lat="42.844264" lon="-.660642">
        <ele>1347.354</ele>
        <time>2020-09-05T09:47:02Z</time>
      </trkpt>
      <trkpt lat="42.844243" lon="-.66058">
        <ele>1347.045</ele>
        <time>2020-09-05T09:47:05Z</time>
      </trkpt>
      <trkpt lat="42.84422" lon="-.660521">
        <ele>1346.872</ele>
        <time>2020-09-05T09:47:10Z</time>
      </trkpt>
      <trkpt lat="42.844202" lon="-.660464">
        <ele>1346.798</ele>
        <time>2020-09-05T09:47:14Z</time>
      </trkpt>
      <trkpt lat="42.844182" lon="-.660405">
        <ele>1346.648</ele>
        <time>2020-09-05T09:47:17Z</time>
      </trkpt>
      <trkpt lat="42.844164" lon="-.660343">
        <ele>1346.511</ele>
        <time>2020-09-05T09:47:21Z</time>
      </trkpt>
      <trkpt lat="42.844137" lon="-.660285">
        <ele>1346.621</ele>
        <time>2020-09-05T09:47:25Z</time>
      </trkpt>
      <trkpt lat="42.844101" lon="-.66024">
        <ele>1346.603</ele>
        <time>2020-09-05T09:47:29Z</time>
      </trkpt>
      <trkpt lat="42.844066" lon="-.660197">
        <ele>1346.608</ele>
        <time>2020-09-05T09:47:33Z</time>
      </trkpt>
      <trkpt lat="42.844026" lon="-.660144">
        <ele>1346.766</ele>
        <time>2020-09-05T09:47:37Z</time>
      </trkpt>
      <trkpt lat="42.843995" lon="-.660091">
        <ele>1346.867</ele>
        <time>2020-09-05T09:47:41Z</time>
      </trkpt>
      <trkpt lat="42.843962" lon="-.660038">
        <ele>1346.863</ele>
        <time>2020-09-05T09:47:46Z</time>
      </trkpt>
      <trkpt lat="42.843933" lon="-.659987">
        <ele>1346.871</ele>
        <time>2020-09-05T09:47:50Z</time>
      </trkpt>
      <trkpt lat="42.843907" lon="-.659927">
        <ele>1346.862</ele>
        <time>2020-09-05T09:47:54Z</time>
      </trkpt>
      <trkpt lat="42.843895" lon="-.659856">
        <ele>1346.999</ele>
        <time>2020-09-05T09:47:58Z</time>
      </trkpt>
      <trkpt lat="42.843893" lon="-.659792">
        <ele>1347.015</ele>
        <time>2020-09-05T09:48:01Z</time>
      </trkpt>
      <trkpt lat="42.843887" lon="-.659727">
        <ele>1347.165</ele>
        <time>2020-09-05T09:48:05Z</time>
      </trkpt>
      <trkpt lat="42.843872" lon="-.659668">
        <ele>1347.497</ele>
        <time>2020-09-05T09:48:08Z</time>
      </trkpt>
      <trkpt lat="42.843846" lon="-.659613">
        <ele>1347.723</ele>
        <time>2020-09-05T09:48:11Z</time>
      </trkpt>
      <trkpt lat="42.84382" lon="-.659556">
        <ele>1347.925</ele>
        <time>2020-09-05T09:48:14Z</time>
      </trkpt>
      <trkpt lat="42.843798" lon="-.659496">
        <ele>1348.008</ele>
        <time>2020-09-05T09:48:17Z</time>
      </trkpt>
      <trkpt lat="42.843785" lon="-.659434">
        <ele>1347.854</ele>
        <time>2020-09-05T09:48:21Z</time>
      </trkpt>
      <trkpt lat="42.84377" lon="-.659369">
        <ele>1347.725</ele>
        <time>2020-09-05T09:48:25Z</time>
      </trkpt>
      <trkpt lat="42.843743" lon="-.659314">
        <ele>1347.811</ele>
        <time>2020-09-05T09:48:28Z</time>
      </trkpt>
      <trkpt lat="42.843715" lon="-.659251">
        <ele>1347.979</ele>
        <time>2020-09-05T09:48:32Z</time>
      </trkpt>
      <trkpt lat="42.843689" lon="-.6592">
        <ele>1348.050</ele>
        <time>2020-09-05T09:48:36Z</time>
      </trkpt>
      <trkpt lat="42.843656" lon="-.659151">
        <ele>1348.267</ele>
        <time>2020-09-05T09:48:40Z</time>
      </trkpt>
      <trkpt lat="42.843625" lon="-.659103">
        <ele>1348.323</ele>
        <time>2020-09-05T09:48:44Z</time>
      </trkpt>
      <trkpt lat="42.843599" lon="-.659044">
        <ele>1348.653</ele>
        <time>2020-09-05T09:48:49Z</time>
      </trkpt>
      <trkpt lat="42.843571" lon="-.658995">
        <ele>1347.482</ele>
        <time>2020-09-05T09:49:07Z</time>
      </trkpt>
      <trkpt lat="42.843546" lon="-.658943">
        <ele>1346.643</ele>
        <time>2020-09-05T09:49:11Z</time>
      </trkpt>
      <trkpt lat="42.843521" lon="-.658885">
        <ele>1346.017</ele>
        <time>2020-09-05T09:49:15Z</time>
      </trkpt>
      <trkpt lat="42.843501" lon="-.658828">
        <ele>1345.808</ele>
        <time>2020-09-05T09:49:18Z</time>
      </trkpt>
      <trkpt lat="42.843474" lon="-.658777">
        <ele>1345.873</ele>
        <time>2020-09-05T09:49:22Z</time>
      </trkpt>
      <trkpt lat="42.843439" lon="-.65872">
        <ele>1345.814</ele>
        <time>2020-09-05T09:49:26Z</time>
      </trkpt>
      <trkpt lat="42.843405" lon="-.658667">
        <ele>1345.930</ele>
        <time>2020-09-05T09:49:30Z</time>
      </trkpt>
      <trkpt lat="42.843382" lon="-.658611">
        <ele>1345.958</ele>
        <time>2020-09-05T09:49:34Z</time>
      </trkpt>
      <trkpt lat="42.843356" lon="-.658551">
        <ele>1345.849</ele>
        <time>2020-09-05T09:49:38Z</time>
      </trkpt>
      <trkpt lat="42.843324" lon="-.658491">
        <ele>1345.726</ele>
        <time>2020-09-05T09:49:41Z</time>
      </trkpt>
      <trkpt lat="42.84329" lon="-.658439">
        <ele>1345.642</ele>
        <time>2020-09-05T09:49:45Z</time>
      </trkpt>
      <trkpt lat="42.843249" lon="-.658385">
        <ele>1345.422</ele>
        <time>2020-09-05T09:49:49Z</time>
      </trkpt>
      <trkpt lat="42.843216" lon="-.658335">
        <ele>1345.518</ele>
        <time>2020-09-05T09:49:53Z</time>
      </trkpt>
      <trkpt lat="42.843191" lon="-.658276">
        <ele>1345.898</ele>
        <time>2020-09-05T09:49:57Z</time>
      </trkpt>
      <trkpt lat="42.843163" lon="-.658223">
        <ele>1345.917</ele>
        <time>2020-09-05T09:50:02Z</time>
      </trkpt>
      <trkpt lat="42.843128" lon="-.658174">
        <ele>1345.908</ele>
        <time>2020-09-05T09:50:06Z</time>
      </trkpt>
      <trkpt lat="42.843103" lon="-.658117">
        <ele>1346.176</ele>
        <time>2020-09-05T09:50:11Z</time>
      </trkpt>
      <trkpt lat="42.843074" lon="-.658064">
        <ele>1346.387</ele>
        <time>2020-09-05T09:50:15Z</time>
      </trkpt>
      <trkpt lat="42.843041" lon="-.658013">
        <ele>1346.643</ele>
        <time>2020-09-05T09:50:19Z</time>
      </trkpt>
      <trkpt lat="42.843007" lon="-.65797">
        <ele>1346.971</ele>
        <time>2020-09-05T09:50:23Z</time>
      </trkpt>
      <trkpt lat="42.842975" lon="-.657925">
        <ele>1347.382</ele>
        <time>2020-09-05T09:50:27Z</time>
      </trkpt>
      <trkpt lat="42.842936" lon="-.65788">
        <ele>1347.769</ele>
        <time>2020-09-05T09:50:30Z</time>
      </trkpt>
      <trkpt lat="42.842903" lon="-.657837">
        <ele>1348.035</ele>
        <time>2020-09-05T09:50:34Z</time>
      </trkpt>
      <trkpt lat="42.842869" lon="-.657788">
        <ele>1348.485</ele>
        <time>2020-09-05T09:50:38Z</time>
      </trkpt>
      <trkpt lat="42.842836" lon="-.657743">
        <ele>1348.793</ele>
        <time>2020-09-05T09:50:42Z</time>
      </trkpt>
      <trkpt lat="42.842801" lon="-.657701">
        <ele>1349.065</ele>
        <time>2020-09-05T09:50:46Z</time>
      </trkpt>
      <trkpt lat="42.842763" lon="-.65766">
        <ele>1349.421</ele>
        <time>2020-09-05T09:50:49Z</time>
      </trkpt>
      <trkpt lat="42.842723" lon="-.657619">
        <ele>1349.708</ele>
        <time>2020-09-05T09:50:53Z</time>
      </trkpt>
      <trkpt lat="42.842689" lon="-.657577">
        <ele>1349.764</ele>
        <time>2020-09-05T09:50:56Z</time>
      </trkpt>
      <trkpt lat="42.842656" lon="-.657533">
        <ele>1349.895</ele>
        <time>2020-09-05T09:51:00Z</time>
      </trkpt>
      <trkpt lat="42.842625" lon="-.657485">
        <ele>1350.021</ele>
        <time>2020-09-05T09:51:03Z</time>
      </trkpt>
      <trkpt lat="42.842599" lon="-.657434">
        <ele>1350.449</ele>
        <time>2020-09-05T09:51:07Z</time>
      </trkpt>
      <trkpt lat="42.84257" lon="-.657384">
        <ele>1350.750</ele>
        <time>2020-09-05T09:51:10Z</time>
      </trkpt>
      <trkpt lat="42.842534" lon="-.657341">
        <ele>1351.087</ele>
        <time>2020-09-05T09:51:14Z</time>
      </trkpt>
      <trkpt lat="42.842493" lon="-.657299">
        <ele>1351.183</ele>
        <time>2020-09-05T09:51:18Z</time>
      </trkpt>
      <trkpt lat="42.84245" lon="-.657256">
        <ele>1351.133</ele>
        <time>2020-09-05T09:51:22Z</time>
      </trkpt>
      <trkpt lat="42.842404" lon="-.657232">
        <ele>1350.891</ele>
        <time>2020-09-05T09:51:27Z</time>
      </trkpt>
      <trkpt lat="42.842365" lon="-.65719">
        <ele>1350.281</ele>
        <time>2020-09-05T09:51:32Z</time>
      </trkpt>
      <trkpt lat="42.842327" lon="-.657149">
        <ele>1349.919</ele>
        <time>2020-09-05T09:51:35Z</time>
      </trkpt>
      <trkpt lat="42.842285" lon="-.657119">
        <ele>1349.908</ele>
        <time>2020-09-05T09:51:39Z</time>
      </trkpt>
      <trkpt lat="42.842242" lon="-.657093">
        <ele>1350.114</ele>
        <time>2020-09-05T09:51:42Z</time>
      </trkpt>
      <trkpt lat="42.842195" lon="-.657084">
        <ele>1350.865</ele>
        <time>2020-09-05T09:51:47Z</time>
      </trkpt>
      <trkpt lat="42.842149" lon="-.657069">
        <ele>1351.591</ele>
        <time>2020-09-05T09:51:51Z</time>
      </trkpt>
      <trkpt lat="42.842105" lon="-.657046">
        <ele>1352.239</ele>
        <time>2020-09-05T09:51:54Z</time>
      </trkpt>
      <trkpt lat="42.842056" lon="-.65702">
        <ele>1352.920</ele>
        <time>2020-09-05T09:51:58Z</time>
      </trkpt>
      <trkpt lat="42.842014" lon="-.656996">
        <ele>1353.957</ele>
        <time>2020-09-05T09:52:02Z</time>
      </trkpt>
      <trkpt lat="42.841972" lon="-.656968">
        <ele>1354.993</ele>
        <time>2020-09-05T09:52:05Z</time>
      </trkpt>
      <trkpt lat="42.841925" lon="-.656935">
        <ele>1356.163</ele>
        <time>2020-09-05T09:52:08Z</time>
      </trkpt>
      <trkpt lat="42.841885" lon="-.656894">
        <ele>1357.195</ele>
        <time>2020-09-05T09:52:12Z</time>
      </trkpt>
      <trkpt lat="42.841857" lon="-.656841">
        <ele>1358.049</ele>
        <time>2020-09-05T09:52:16Z</time>
      </trkpt>
      <trkpt lat="42.841831" lon="-.656786">
        <ele>1358.823</ele>
        <time>2020-09-05T09:52:20Z</time>
      </trkpt>
      <trkpt lat="42.841797" lon="-.65673">
        <ele>1359.408</ele>
        <time>2020-09-05T09:52:24Z</time>
      </trkpt>
      <trkpt lat="42.841764" lon="-.656678">
        <ele>1360.034</ele>
        <time>2020-09-05T09:52:28Z</time>
      </trkpt>
      <trkpt lat="42.841738" lon="-.656627">
        <ele>1360.665</ele>
        <time>2020-09-05T09:52:31Z</time>
      </trkpt>
      <trkpt lat="42.841699" lon="-.656591">
        <ele>1361.421</ele>
        <time>2020-09-05T09:52:35Z</time>
      </trkpt>
      <trkpt lat="42.841659" lon="-.656546">
        <ele>1362.399</ele>
        <time>2020-09-05T09:52:39Z</time>
      </trkpt>
      <trkpt lat="42.841626" lon="-.656502">
        <ele>1363.040</ele>
        <time>2020-09-05T09:52:42Z</time>
      </trkpt>
      <trkpt lat="42.841595" lon="-.656453">
        <ele>1363.657</ele>
        <time>2020-09-05T09:52:46Z</time>
      </trkpt>
      <trkpt lat="42.841561" lon="-.656405">
        <ele>1364.173</ele>
        <time>2020-09-05T09:52:49Z</time>
      </trkpt>
      <trkpt lat="42.841522" lon="-.656363">
        <ele>1364.593</ele>
        <time>2020-09-05T09:52:54Z</time>
      </trkpt>
      <trkpt lat="42.841477" lon="-.656326">
        <ele>1365.157</ele>
        <time>2020-09-05T09:52:58Z</time>
      </trkpt>
      <trkpt lat="42.841431" lon="-.656301">
        <ele>1366.000</ele>
        <time>2020-09-05T09:53:02Z</time>
      </trkpt>
      <trkpt lat="42.84139" lon="-.656271">
        <ele>1366.820</ele>
        <time>2020-09-05T09:53:05Z</time>
      </trkpt>
      <trkpt lat="42.841349" lon="-.656224">
        <ele>1367.608</ele>
        <time>2020-09-05T09:53:09Z</time>
      </trkpt>
      <trkpt lat="42.841323" lon="-.656166">
        <ele>1368.140</ele>
        <time>2020-09-05T09:53:13Z</time>
      </trkpt>
      <trkpt lat="42.841279" lon="-.656129">
        <ele>1368.521</ele>
        <time>2020-09-05T09:53:17Z</time>
      </trkpt>
      <trkpt lat="42.841244" lon="-.65608">
        <ele>1368.847</ele>
        <time>2020-09-05T09:53:20Z</time>
      </trkpt>
      <trkpt lat="42.841213" lon="-.656035">
        <ele>1369.285</ele>
        <time>2020-09-05T09:53:23Z</time>
      </trkpt>
      <trkpt lat="42.841182" lon="-.655984">
        <ele>1369.636</ele>
        <time>2020-09-05T09:53:27Z</time>
      </trkpt>
      <trkpt lat="42.841164" lon="-.655925">
        <ele>1369.913</ele>
        <time>2020-09-05T09:53:31Z</time>
      </trkpt>
      <trkpt lat="42.841143" lon="-.655867">
        <ele>1370.029</ele>
        <time>2020-09-05T09:53:37Z</time>
      </trkpt>
      <trkpt lat="42.841119" lon="-.655806">
        <ele>1370.469</ele>
        <time>2020-09-05T09:53:42Z</time>
      </trkpt>
      <trkpt lat="42.8411" lon="-.65575">
        <ele>1370.786</ele>
        <time>2020-09-05T09:53:46Z</time>
      </trkpt>
      <trkpt lat="42.841083" lon="-.655689">
        <ele>1371.060</ele>
        <time>2020-09-05T09:53:49Z</time>
      </trkpt>
      <trkpt lat="42.841063" lon="-.655629">
        <ele>1371.326</ele>
        <time>2020-09-05T09:53:52Z</time>
      </trkpt>
      <trkpt lat="42.841047" lon="-.655564">
        <ele>1371.708</ele>
        <time>2020-09-05T09:53:56Z</time>
      </trkpt>
      <trkpt lat="42.84102" lon="-.655505">
        <ele>1372.133</ele>
        <time>2020-09-05T09:54:00Z</time>
      </trkpt>
      <trkpt lat="42.84099" lon="-.655446">
        <ele>1372.394</ele>
        <time>2020-09-05T09:54:03Z</time>
      </trkpt>
      <trkpt lat="42.840958" lon="-.655398">
        <ele>1372.430</ele>
        <time>2020-09-05T09:54:07Z</time>
      </trkpt>
      <trkpt lat="42.840922" lon="-.655354">
        <ele>1372.618</ele>
        <time>2020-09-05T09:54:10Z</time>
      </trkpt>
      <trkpt lat="42.840884" lon="-.655313">
        <ele>1372.769</ele>
        <time>2020-09-05T09:54:15Z</time>
      </trkpt>
      <trkpt lat="42.840854" lon="-.655266">
        <ele>1372.816</ele>
        <time>2020-09-05T09:54:22Z</time>
      </trkpt>
      <trkpt lat="42.840822" lon="-.655219">
        <ele>1372.832</ele>
        <time>2020-09-05T09:54:30Z</time>
      </trkpt>
      <trkpt lat="42.840799" lon="-.655155">
        <ele>1372.712</ele>
        <time>2020-09-05T09:54:35Z</time>
      </trkpt>
      <trkpt lat="42.840777" lon="-.655091">
        <ele>1372.612</ele>
        <time>2020-09-05T09:54:40Z</time>
      </trkpt>
      <trkpt lat="42.840759" lon="-.655033">
        <ele>1372.532</ele>
        <time>2020-09-05T09:54:43Z</time>
      </trkpt>
      <trkpt lat="42.840753" lon="-.654956">
        <ele>1372.305</ele>
        <time>2020-09-05T09:54:47Z</time>
      </trkpt>
      <trkpt lat="42.840758" lon="-.654889">
        <ele>1372.108</ele>
        <time>2020-09-05T09:54:50Z</time>
      </trkpt>
      <trkpt lat="42.84076" lon="-.654814">
        <ele>1371.966</ele>
        <time>2020-09-05T09:54:54Z</time>
      </trkpt>
      <trkpt lat="42.84077" lon="-.654748">
        <ele>1371.787</ele>
        <time>2020-09-05T09:54:57Z</time>
      </trkpt>
      <trkpt lat="42.84078" lon="-.654673">
        <ele>1371.583</ele>
        <time>2020-09-05T09:55:01Z</time>
      </trkpt>
      <trkpt lat="42.84079" lon="-.654603">
        <ele>1371.231</ele>
        <time>2020-09-05T09:55:05Z</time>
      </trkpt>
      <trkpt lat="42.8408" lon="-.654538">
        <ele>1371.062</ele>
        <time>2020-09-05T09:55:09Z</time>
      </trkpt>
      <trkpt lat="42.840816" lon="-.654479">
        <ele>1370.719</ele>
        <time>2020-09-05T09:55:13Z</time>
      </trkpt>
      <trkpt lat="42.84083" lon="-.654416">
        <ele>1370.345</ele>
        <time>2020-09-05T09:55:19Z</time>
      </trkpt>
      <trkpt lat="42.840826" lon="-.654346">
        <ele>1370.075</ele>
        <time>2020-09-05T09:55:23Z</time>
      </trkpt>
      <trkpt lat="42.840815" lon="-.654277">
        <ele>1369.695</ele>
        <time>2020-09-05T09:55:27Z</time>
      </trkpt>
      <trkpt lat="42.840811" lon="-.654214">
        <ele>1369.349</ele>
        <time>2020-09-05T09:55:31Z</time>
      </trkpt>
      <trkpt lat="42.8408" lon="-.654152">
        <ele>1369.023</ele>
        <time>2020-09-05T09:55:35Z</time>
      </trkpt>
      <trkpt lat="42.840789" lon="-.654092">
        <ele>1368.608</ele>
        <time>2020-09-05T09:55:39Z</time>
      </trkpt>
      <trkpt lat="42.840774" lon="-.654033">
        <ele>1368.274</ele>
        <time>2020-09-05T09:55:42Z</time>
      </trkpt>
      <trkpt lat="42.840763" lon="-.653973">
        <ele>1367.975</ele>
        <time>2020-09-05T09:55:46Z</time>
      </trkpt>
      <trkpt lat="42.840762" lon="-.65391">
        <ele>1367.521</ele>
        <time>2020-09-05T09:55:49Z</time>
      </trkpt>
      <trkpt lat="42.840768" lon="-.653841">
        <ele>1367.239</ele>
        <time>2020-09-05T09:55:55Z</time>
      </trkpt>
      <trkpt lat="42.840747" lon="-.653787">
        <ele>1366.960</ele>
        <time>2020-09-05T09:55:59Z</time>
      </trkpt>
      <trkpt lat="42.840715" lon="-.653742">
        <ele>1366.767</ele>
        <time>2020-09-05T09:56:02Z</time>
      </trkpt>
      <trkpt lat="42.840683" lon="-.653697">
        <ele>1366.593</ele>
        <time>2020-09-05T09:56:07Z</time>
      </trkpt>
      <trkpt lat="42.840664" lon="-.653632">
        <ele>1366.523</ele>
        <time>2020-09-05T09:56:12Z</time>
      </trkpt>
      <trkpt lat="42.840648" lon="-.653569">
        <ele>1366.693</ele>
        <time>2020-09-05T09:56:16Z</time>
      </trkpt>
      <trkpt lat="42.84063" lon="-.65351">
        <ele>1366.865</ele>
        <time>2020-09-05T09:56:20Z</time>
      </trkpt>
      <trkpt lat="42.840608" lon="-.653453">
        <ele>1367.121</ele>
        <time>2020-09-05T09:56:24Z</time>
      </trkpt>
      <trkpt lat="42.840587" lon="-.653396">
        <ele>1367.208</ele>
        <time>2020-09-05T09:56:27Z</time>
      </trkpt>
      <trkpt lat="42.840559" lon="-.653338">
        <ele>1367.354</ele>
        <time>2020-09-05T09:56:31Z</time>
      </trkpt>
      <trkpt lat="42.840531" lon="-.653288">
        <ele>1367.525</ele>
        <time>2020-09-05T09:56:35Z</time>
      </trkpt>
      <trkpt lat="42.840495" lon="-.653236">
        <ele>1368.061</ele>
        <time>2020-09-05T09:56:40Z</time>
      </trkpt>
      <trkpt lat="42.840468" lon="-.653184">
        <ele>1368.819</ele>
        <time>2020-09-05T09:56:45Z</time>
      </trkpt>
      <trkpt lat="42.840448" lon="-.653126">
        <ele>1369.690</ele>
        <time>2020-09-05T09:56:49Z</time>
      </trkpt>
      <trkpt lat="42.84043" lon="-.653066">
        <ele>1370.097</ele>
        <time>2020-09-05T09:56:54Z</time>
      </trkpt>
      <trkpt lat="42.840409" lon="-.653004">
        <ele>1370.353</ele>
        <time>2020-09-05T09:56:59Z</time>
      </trkpt>
      <trkpt lat="42.840373" lon="-.652954">
        <ele>1370.743</ele>
        <time>2020-09-05T09:57:03Z</time>
      </trkpt>
      <trkpt lat="42.840345" lon="-.652893">
        <ele>1371.289</ele>
        <time>2020-09-05T09:57:08Z</time>
      </trkpt>
      <trkpt lat="42.840335" lon="-.65283">
        <ele>1371.706</ele>
        <time>2020-09-05T09:57:12Z</time>
      </trkpt>
      <trkpt lat="42.84033" lon="-.65276">
        <ele>1372.126</ele>
        <time>2020-09-05T09:57:17Z</time>
      </trkpt>
      <trkpt lat="42.840323" lon="-.652698">
        <ele>1372.408</ele>
        <time>2020-09-05T09:57:21Z</time>
      </trkpt>
      <trkpt lat="42.840323" lon="-.652634">
        <ele>1372.873</ele>
        <time>2020-09-05T09:57:25Z</time>
      </trkpt>
      <trkpt lat="42.840321" lon="-.65257">
        <ele>1373.124</ele>
        <time>2020-09-05T09:57:29Z</time>
      </trkpt>
      <trkpt lat="42.840309" lon="-.652506">
        <ele>1373.410</ele>
        <time>2020-09-05T09:57:33Z</time>
      </trkpt>
      <trkpt lat="42.840296" lon="-.652447">
        <ele>1373.788</ele>
        <time>2020-09-05T09:57:37Z</time>
      </trkpt>
      <trkpt lat="42.840281" lon="-.652379">
        <ele>1374.219</ele>
        <time>2020-09-05T09:57:43Z</time>
      </trkpt>
      <trkpt lat="42.840259" lon="-.652319">
        <ele>1374.716</ele>
        <time>2020-09-05T09:57:48Z</time>
      </trkpt>
      <trkpt lat="42.840257" lon="-.652256">
        <ele>1375.042</ele>
        <time>2020-09-05T09:58:07Z</time>
      </trkpt>
      <trkpt lat="42.840257" lon="-.652189">
        <ele>1375.272</ele>
        <time>2020-09-05T09:58:11Z</time>
      </trkpt>
      <trkpt lat="42.840241" lon="-.652121">
        <ele>1375.461</ele>
        <time>2020-09-05T09:58:15Z</time>
      </trkpt>
      <trkpt lat="42.840222" lon="-.65206">
        <ele>1375.621</ele>
        <time>2020-09-05T09:58:19Z</time>
      </trkpt>
      <trkpt lat="42.840193" lon="-.652012">
        <ele>1375.813</ele>
        <time>2020-09-05T09:58:23Z</time>
      </trkpt>
      <trkpt lat="42.840163" lon="-.651959">
        <ele>1375.908</ele>
        <time>2020-09-05T09:58:27Z</time>
      </trkpt>
      <trkpt lat="42.840133" lon="-.651912">
        <ele>1376.031</ele>
        <time>2020-09-05T09:58:31Z</time>
      </trkpt>
      <trkpt lat="42.840099" lon="-.651864">
        <ele>1376.122</ele>
        <time>2020-09-05T09:58:34Z</time>
      </trkpt>
      <trkpt lat="42.840067" lon="-.651819">
        <ele>1376.298</ele>
        <time>2020-09-05T09:58:38Z</time>
      </trkpt>
      <trkpt lat="42.840033" lon="-.651773">
        <ele>1376.256</ele>
        <time>2020-09-05T09:58:42Z</time>
      </trkpt>
      <trkpt lat="42.839998" lon="-.651729">
        <ele>1376.297</ele>
        <time>2020-09-05T09:58:47Z</time>
      </trkpt>
      <trkpt lat="42.839967" lon="-.651681">
        <ele>1376.554</ele>
        <time>2020-09-05T09:58:51Z</time>
      </trkpt>
      <trkpt lat="42.839941" lon="-.651631">
        <ele>1376.930</ele>
        <time>2020-09-05T09:58:55Z</time>
      </trkpt>
      <trkpt lat="42.839912" lon="-.651583">
        <ele>1377.980</ele>
        <time>2020-09-05T09:58:58Z</time>
      </trkpt>
      <trkpt lat="42.839892" lon="-.651527">
        <ele>1379.326</ele>
        <time>2020-09-05T09:59:02Z</time>
      </trkpt>
      <trkpt lat="42.839888" lon="-.651464">
        <ele>1380.847</ele>
        <time>2020-09-05T09:59:06Z</time>
      </trkpt>
      <trkpt lat="42.839891" lon="-.651398">
        <ele>1382.011</ele>
        <time>2020-09-05T09:59:12Z</time>
      </trkpt>
      <trkpt lat="42.839882" lon="-.651329">
        <ele>1383.208</ele>
        <time>2020-09-05T09:59:16Z</time>
      </trkpt>
      <trkpt lat="42.839871" lon="-.651261">
        <ele>1384.587</ele>
        <time>2020-09-05T09:59:20Z</time>
      </trkpt>
      <trkpt lat="42.839856" lon="-.651196">
        <ele>1385.718</ele>
        <time>2020-09-05T09:59:25Z</time>
      </trkpt>
      <trkpt lat="42.839821" lon="-.651147">
        <ele>1386.724</ele>
        <time>2020-09-05T09:59:30Z</time>
      </trkpt>
      <trkpt lat="42.839784" lon="-.65111">
        <ele>1387.532</ele>
        <time>2020-09-05T09:59:33Z</time>
      </trkpt>
      <trkpt lat="42.83974" lon="-.651075">
        <ele>1388.343</ele>
        <time>2020-09-05T09:59:39Z</time>
      </trkpt>
      <trkpt lat="42.839698" lon="-.651045">
        <ele>1389.240</ele>
        <time>2020-09-05T09:59:43Z</time>
      </trkpt>
      <trkpt lat="42.83966" lon="-.651003">
        <ele>1390.016</ele>
        <time>2020-09-05T09:59:48Z</time>
      </trkpt>
      <trkpt lat="42.839625" lon="-.650963">
        <ele>1390.996</ele>
        <time>2020-09-05T09:59:51Z</time>
      </trkpt>
      <trkpt lat="42.839587" lon="-.650929">
        <ele>1391.798</ele>
        <time>2020-09-05T09:59:55Z</time>
      </trkpt>
      <trkpt lat="42.839544" lon="-.650892">
        <ele>1392.415</ele>
        <time>2020-09-05T09:59:58Z</time>
      </trkpt>
      <trkpt lat="42.839503" lon="-.65085">
        <ele>1393.126</ele>
        <time>2020-09-05T10:00:02Z</time>
      </trkpt>
      <trkpt lat="42.839461" lon="-.65081">
        <ele>1393.908</ele>
        <time>2020-09-05T10:00:06Z</time>
      </trkpt>
      <trkpt lat="42.839424" lon="-.650775">
        <ele>1394.564</ele>
        <time>2020-09-05T10:00:10Z</time>
      </trkpt>
      <trkpt lat="42.839387" lon="-.650728">
        <ele>1395.135</ele>
        <time>2020-09-05T10:00:14Z</time>
      </trkpt>
      <trkpt lat="42.839355" lon="-.650677">
        <ele>1395.661</ele>
        <time>2020-09-05T10:00:19Z</time>
      </trkpt>
      <trkpt lat="42.839328" lon="-.650615">
        <ele>1396.129</ele>
        <time>2020-09-05T10:00:23Z</time>
      </trkpt>
      <trkpt lat="42.839308" lon="-.65055">
        <ele>1396.590</ele>
        <time>2020-09-05T10:00:27Z</time>
      </trkpt>
      <trkpt lat="42.839273" lon="-.650498">
        <ele>1397.017</ele>
        <time>2020-09-05T10:00:32Z</time>
      </trkpt>
      <trkpt lat="42.839242" lon="-.65045">
        <ele>1397.473</ele>
        <time>2020-09-05T10:00:36Z</time>
      </trkpt>
      <trkpt lat="42.839211" lon="-.6504">
        <ele>1397.873</ele>
        <time>2020-09-05T10:00:39Z</time>
      </trkpt>
      <trkpt lat="42.839177" lon="-.65035">
        <ele>1398.181</ele>
        <time>2020-09-05T10:00:43Z</time>
      </trkpt>
      <trkpt lat="42.839142" lon="-.65031">
        <ele>1398.561</ele>
        <time>2020-09-05T10:00:47Z</time>
      </trkpt>
      <trkpt lat="42.839104" lon="-.65026">
        <ele>1398.917</ele>
        <time>2020-09-05T10:00:51Z</time>
      </trkpt>
      <trkpt lat="42.839079" lon="-.650201">
        <ele>1399.208</ele>
        <time>2020-09-05T10:00:55Z</time>
      </trkpt>
      <trkpt lat="42.839054" lon="-.650143">
        <ele>1399.593</ele>
        <time>2020-09-05T10:00:58Z</time>
      </trkpt>
      <trkpt lat="42.839027" lon="-.650083">
        <ele>1399.814</ele>
        <time>2020-09-05T10:01:03Z</time>
      </trkpt>
      <trkpt lat="42.838991" lon="-.650033">
        <ele>1400.130</ele>
        <time>2020-09-05T10:01:07Z</time>
      </trkpt>
      <trkpt lat="42.838959" lon="-.649982">
        <ele>1400.458</ele>
        <time>2020-09-05T10:01:11Z</time>
      </trkpt>
      <trkpt lat="42.838934" lon="-.649914">
        <ele>1400.729</ele>
        <time>2020-09-05T10:01:16Z</time>
      </trkpt>
      <trkpt lat="42.838917" lon="-.64985">
        <ele>1400.936</ele>
        <time>2020-09-05T10:01:20Z</time>
      </trkpt>
      <trkpt lat="42.838905" lon="-.649786">
        <ele>1401.282</ele>
        <time>2020-09-05T10:01:24Z</time>
      </trkpt>
      <trkpt lat="42.83889" lon="-.649721">
        <ele>1401.422</ele>
        <time>2020-09-05T10:01:28Z</time>
      </trkpt>
      <trkpt lat="42.838871" lon="-.649662">
        <ele>1401.631</ele>
        <time>2020-09-05T10:01:31Z</time>
      </trkpt>
      <trkpt lat="42.838856" lon="-.649596">
        <ele>1401.861</ele>
        <time>2020-09-05T10:01:36Z</time>
      </trkpt>
      <trkpt lat="42.83885" lon="-.649534">
        <ele>1402.007</ele>
        <time>2020-09-05T10:01:40Z</time>
      </trkpt>
      <trkpt lat="42.838829" lon="-.649477">
        <ele>1402.208</ele>
        <time>2020-09-05T10:01:45Z</time>
      </trkpt>
      <trkpt lat="42.838804" lon="-.649423">
        <ele>1402.538</ele>
        <time>2020-09-05T10:01:50Z</time>
      </trkpt>
      <trkpt lat="42.838785" lon="-.64936">
        <ele>1402.829</ele>
        <time>2020-09-05T10:01:55Z</time>
      </trkpt>
      <trkpt lat="42.83877" lon="-.649302">
        <ele>1402.875</ele>
        <time>2020-09-05T10:02:00Z</time>
      </trkpt>
      <trkpt lat="42.838742" lon="-.649252">
        <ele>1402.883</ele>
        <time>2020-09-05T10:02:03Z</time>
      </trkpt>
      <trkpt lat="42.838708" lon="-.649209">
        <ele>1402.784</ele>
        <time>2020-09-05T10:02:06Z</time>
      </trkpt>
      <trkpt lat="42.838672" lon="-.649163">
        <ele>1402.581</ele>
        <time>2020-09-05T10:02:10Z</time>
      </trkpt>
      <trkpt lat="42.838633" lon="-.649128">
        <ele>1402.437</ele>
        <time>2020-09-05T10:02:14Z</time>
      </trkpt>
      <trkpt lat="42.838594" lon="-.649087">
        <ele>1401.917</ele>
        <time>2020-09-05T10:02:18Z</time>
      </trkpt>
      <trkpt lat="42.838554" lon="-.649037">
        <ele>1401.142</ele>
        <time>2020-09-05T10:02:22Z</time>
      </trkpt>
      <trkpt lat="42.838527" lon="-.648985">
        <ele>1400.622</ele>
        <time>2020-09-05T10:02:26Z</time>
      </trkpt>
      <trkpt lat="42.83851" lon="-.648927">
        <ele>1400.314</ele>
        <time>2020-09-05T10:02:31Z</time>
      </trkpt>
      <trkpt lat="42.838509" lon="-.648858">
        <ele>1400.108</ele>
        <time>2020-09-05T10:02:35Z</time>
      </trkpt>
      <trkpt lat="42.838505" lon="-.648793">
        <ele>1400.039</ele>
        <time>2020-09-05T10:02:39Z</time>
      </trkpt>
      <trkpt lat="42.8385" lon="-.648723">
        <ele>1400.040</ele>
        <time>2020-09-05T10:02:43Z</time>
      </trkpt>
      <trkpt lat="42.838489" lon="-.648662">
        <ele>1400.176</ele>
        <time>2020-09-05T10:02:48Z</time>
      </trkpt>
      <trkpt lat="42.838473" lon="-.648601">
        <ele>1400.274</ele>
        <time>2020-09-05T10:02:53Z</time>
      </trkpt>
      <trkpt lat="42.838452" lon="-.648547">
        <ele>1400.355</ele>
        <time>2020-09-05T10:02:57Z</time>
      </trkpt>
      <trkpt lat="42.838428" lon="-.64849">
        <ele>1400.532</ele>
        <time>2020-09-05T10:03:01Z</time>
      </trkpt>
      <trkpt lat="42.838397" lon="-.648439">
        <ele>1400.878</ele>
        <time>2020-09-05T10:03:06Z</time>
      </trkpt>
      <trkpt lat="42.838365" lon="-.648385">
        <ele>1401.118</ele>
        <time>2020-09-05T10:03:11Z</time>
      </trkpt>
      <trkpt lat="42.838325" lon="-.648336">
        <ele>1401.467</ele>
        <time>2020-09-05T10:03:15Z</time>
      </trkpt>
      <trkpt lat="42.838291" lon="-.648295">
        <ele>1401.781</ele>
        <time>2020-09-05T10:03:18Z</time>
      </trkpt>
      <trkpt lat="42.838254" lon="-.648251">
        <ele>1402.019</ele>
        <time>2020-09-05T10:03:22Z</time>
      </trkpt>
      <trkpt lat="42.838217" lon="-.648207">
        <ele>1402.108</ele>
        <time>2020-09-05T10:03:26Z</time>
      </trkpt>
      <trkpt lat="42.83817" lon="-.648165">
        <ele>1402.411</ele>
        <time>2020-09-05T10:03:30Z</time>
      </trkpt>
      <trkpt lat="42.838136" lon="-.648122">
        <ele>1402.692</ele>
        <time>2020-09-05T10:03:33Z</time>
      </trkpt>
      <trkpt lat="42.838104" lon="-.648078">
        <ele>1402.848</ele>
        <time>2020-09-05T10:03:36Z</time>
      </trkpt>
      <trkpt lat="42.838078" lon="-.648022">
        <ele>1403.086</ele>
        <time>2020-09-05T10:03:40Z</time>
      </trkpt>
      <trkpt lat="42.83806" lon="-.647962">
        <ele>1403.267</ele>
        <time>2020-09-05T10:03:44Z</time>
      </trkpt>
      <trkpt lat="42.838047" lon="-.6479">
        <ele>1403.464</ele>
        <time>2020-09-05T10:03:47Z</time>
      </trkpt>
      <trkpt lat="42.838036" lon="-.647831">
        <ele>1403.680</ele>
        <time>2020-09-05T10:03:52Z</time>
      </trkpt>
      <trkpt lat="42.838029" lon="-.647762">
        <ele>1403.890</ele>
        <time>2020-09-05T10:03:56Z</time>
      </trkpt>
      <trkpt lat="42.838025" lon="-.647692">
        <ele>1404.017</ele>
        <time>2020-09-05T10:04:00Z</time>
      </trkpt>
      <trkpt lat="42.838016" lon="-.647629">
        <ele>1404.287</ele>
        <time>2020-09-05T10:04:04Z</time>
      </trkpt>
      <trkpt lat="42.838001" lon="-.647569">
        <ele>1404.515</ele>
        <time>2020-09-05T10:04:08Z</time>
      </trkpt>
      <trkpt lat="42.83799" lon="-.647505">
        <ele>1404.908</ele>
        <time>2020-09-05T10:04:13Z</time>
      </trkpt>
      <trkpt lat="42.837976" lon="-.647442">
        <ele>1405.366</ele>
        <time>2020-09-05T10:04:18Z</time>
      </trkpt>
      <trkpt lat="42.837946" lon="-.647383">
        <ele>1405.747</ele>
        <time>2020-09-05T10:04:23Z</time>
      </trkpt>
      <trkpt lat="42.837916" lon="-.647329">
        <ele>1406.113</ele>
        <time>2020-09-05T10:04:28Z</time>
      </trkpt>
      <trkpt lat="42.837883" lon="-.647287">
        <ele>1406.521</ele>
        <time>2020-09-05T10:04:32Z</time>
      </trkpt>
      <trkpt lat="42.837841" lon="-.647245">
        <ele>1406.962</ele>
        <time>2020-09-05T10:04:37Z</time>
      </trkpt>
      <trkpt lat="42.837801" lon="-.647207">
        <ele>1407.489</ele>
        <time>2020-09-05T10:04:41Z</time>
      </trkpt>
      <trkpt lat="42.837763" lon="-.64716">
        <ele>1407.935</ele>
        <time>2020-09-05T10:04:46Z</time>
      </trkpt>
      <trkpt lat="42.837729" lon="-.64711">
        <ele>1408.415</ele>
        <time>2020-09-05T10:04:50Z</time>
      </trkpt>
      <trkpt lat="42.837697" lon="-.647064">
        <ele>1408.911</ele>
        <time>2020-09-05T10:04:54Z</time>
      </trkpt>
      <trkpt lat="42.837667" lon="-.647004">
        <ele>1409.521</ele>
        <time>2020-09-05T10:04:58Z</time>
      </trkpt>
      <trkpt lat="42.837643" lon="-.646939">
        <ele>1410.003</ele>
        <time>2020-09-05T10:05:02Z</time>
      </trkpt>
      <trkpt lat="42.837623" lon="-.646884">
        <ele>1410.408</ele>
        <time>2020-09-05T10:05:05Z</time>
      </trkpt>
      <trkpt lat="42.837606" lon="-.646823">
        <ele>1410.826</ele>
        <time>2020-09-05T10:05:09Z</time>
      </trkpt>
      <trkpt lat="42.837594" lon="-.646763">
        <ele>1411.217</ele>
        <time>2020-09-05T10:05:16Z</time>
      </trkpt>
      <trkpt lat="42.837602" lon="-.646698">
        <ele>1411.673</ele>
        <time>2020-09-05T10:05:21Z</time>
      </trkpt>
      <trkpt lat="42.837601" lon="-.64663">
        <ele>1412.321</ele>
        <time>2020-09-05T10:05:27Z</time>
      </trkpt>
      <trkpt lat="42.837622" lon="-.646567">
        <ele>1412.912</ele>
        <time>2020-09-05T10:05:32Z</time>
      </trkpt>
      <trkpt lat="42.837633" lon="-.646504">
        <ele>1413.379</ele>
        <time>2020-09-05T10:05:37Z</time>
      </trkpt>
      <trkpt lat="42.837665" lon="-.646441">
        <ele>1413.235</ele>
        <time>2020-09-05T10:05:42Z</time>
      </trkpt>
      <trkpt lat="42.837688" lon="-.646387">
        <ele>1412.935</ele>
        <time>2020-09-05T10:05:46Z</time>
      </trkpt>
      <trkpt lat="42.8377" lon="-.64631">
        <ele>1412.868</ele>
        <time>2020-09-05T10:05:50Z</time>
      </trkpt>
      <trkpt lat="42.837702" lon="-.64624">
        <ele>1412.842</ele>
        <time>2020-09-05T10:05:54Z</time>
      </trkpt>
      <trkpt lat="42.837701" lon="-.64617">
        <ele>1413.026</ele>
        <time>2020-09-05T10:05:57Z</time>
      </trkpt>
      <trkpt lat="42.837702" lon="-.646101">
        <ele>1413.208</ele>
        <time>2020-09-05T10:06:00Z</time>
      </trkpt>
      <trkpt lat="42.837696" lon="-.64604">
        <ele>1413.411</ele>
        <time>2020-09-05T10:06:04Z</time>
      </trkpt>
      <trkpt lat="42.837689" lon="-.645976">
        <ele>1413.482</ele>
        <time>2020-09-05T10:06:08Z</time>
      </trkpt>
      <trkpt lat="42.837687" lon="-.645911">
        <ele>1413.548</ele>
        <time>2020-09-05T10:06:13Z</time>
      </trkpt>
      <trkpt lat="42.837683" lon="-.645849">
        <ele>1413.626</ele>
        <time>2020-09-05T10:06:18Z</time>
      </trkpt>
      <trkpt lat="42.837681" lon="-.645784">
        <ele>1414.097</ele>
        <time>2020-09-05T10:06:24Z</time>
      </trkpt>
      <trkpt lat="42.837676" lon="-.645723">
        <ele>1414.594</ele>
        <time>2020-09-05T10:06:28Z</time>
      </trkpt>
      <trkpt lat="42.837664" lon="-.645651">
        <ele>1415.060</ele>
        <time>2020-09-05T10:06:32Z</time>
      </trkpt>
      <trkpt lat="42.837652" lon="-.645586">
        <ele>1415.410</ele>
        <time>2020-09-05T10:06:35Z</time>
      </trkpt>
      <trkpt lat="42.837639" lon="-.645517">
        <ele>1415.842</ele>
        <time>2020-09-05T10:06:38Z</time>
      </trkpt>
      <trkpt lat="42.837621" lon="-.645458">
        <ele>1416.122</ele>
        <time>2020-09-05T10:06:41Z</time>
      </trkpt>
      <trkpt lat="42.837602" lon="-.645394">
        <ele>1416.414</ele>
        <time>2020-09-05T10:06:44Z</time>
      </trkpt>
      <trkpt lat="42.837578" lon="-.645338">
        <ele>1416.708</ele>
        <time>2020-09-05T10:06:47Z</time>
      </trkpt>
      <trkpt lat="42.837551" lon="-.645272">
        <ele>1417.179</ele>
        <time>2020-09-05T10:06:52Z</time>
      </trkpt>
      <trkpt lat="42.837526" lon="-.645213">
        <ele>1417.660</ele>
        <time>2020-09-05T10:06:58Z</time>
      </trkpt>
      <trkpt lat="42.837495" lon="-.645152">
        <ele>1418.216</ele>
        <time>2020-09-05T10:07:03Z</time>
      </trkpt>
      <trkpt lat="42.837481" lon="-.645093">
        <ele>1418.674</ele>
        <time>2020-09-05T10:07:07Z</time>
      </trkpt>
      <trkpt lat="42.837475" lon="-.64503">
        <ele>1419.025</ele>
        <time>2020-09-05T10:07:11Z</time>
      </trkpt>
      <trkpt lat="42.837466" lon="-.644967">
        <ele>1419.312</ele>
        <time>2020-09-05T10:07:14Z</time>
      </trkpt>
      <trkpt lat="42.837463" lon="-.644905">
        <ele>1419.758</ele>
        <time>2020-09-05T10:07:18Z</time>
      </trkpt>
      <trkpt lat="42.837454" lon="-.644844">
        <ele>1420.448</ele>
        <time>2020-09-05T10:07:23Z</time>
      </trkpt>
      <trkpt lat="42.837447" lon="-.644783">
        <ele>1421.262</ele>
        <time>2020-09-05T10:07:28Z</time>
      </trkpt>
      <trkpt lat="42.837438" lon="-.644718">
        <ele>1422.183</ele>
        <time>2020-09-05T10:07:32Z</time>
      </trkpt>
      <trkpt lat="42.837429" lon="-.644645">
        <ele>1422.811</ele>
        <time>2020-09-05T10:07:36Z</time>
      </trkpt>
      <trkpt lat="42.837423" lon="-.64458">
        <ele>1423.408</ele>
        <time>2020-09-05T10:07:39Z</time>
      </trkpt>
      <trkpt lat="42.837409" lon="-.644516">
        <ele>1423.881</ele>
        <time>2020-09-05T10:07:44Z</time>
      </trkpt>
      <trkpt lat="42.837401" lon="-.644449">
        <ele>1424.112</ele>
        <time>2020-09-05T10:07:48Z</time>
      </trkpt>
      <trkpt lat="42.837392" lon="-.644385">
        <ele>1424.588</ele>
        <time>2020-09-05T10:07:52Z</time>
      </trkpt>
      <trkpt lat="42.837385" lon="-.644323">
        <ele>1425.286</ele>
        <time>2020-09-05T10:07:57Z</time>
      </trkpt>
      <trkpt lat="42.837371" lon="-.644258">
        <ele>1425.847</ele>
        <time>2020-09-05T10:08:01Z</time>
      </trkpt>
      <trkpt lat="42.837351" lon="-.644198">
        <ele>1426.444</ele>
        <time>2020-09-05T10:08:05Z</time>
      </trkpt>
      <trkpt lat="42.837331" lon="-.644136">
        <ele>1426.540</ele>
        <time>2020-09-05T10:08:09Z</time>
      </trkpt>
      <trkpt lat="42.837318" lon="-.644072">
        <ele>1426.910</ele>
        <time>2020-09-05T10:08:14Z</time>
      </trkpt>
      <trkpt lat="42.837294" lon="-.644009">
        <ele>1427.351</ele>
        <time>2020-09-05T10:08:18Z</time>
      </trkpt>
      <trkpt lat="42.837267" lon="-.643957">
        <ele>1427.801</ele>
        <time>2020-09-05T10:08:22Z</time>
      </trkpt>
      <trkpt lat="42.837254" lon="-.643893">
        <ele>1428.211</ele>
        <time>2020-09-05T10:08:27Z</time>
      </trkpt>
      <trkpt lat="42.83724" lon="-.643826">
        <ele>1428.608</ele>
        <time>2020-09-05T10:08:31Z</time>
      </trkpt>
      <trkpt lat="42.837218" lon="-.643767">
        <ele>1429.140</ele>
        <time>2020-09-05T10:08:35Z</time>
      </trkpt>
      <trkpt lat="42.837204" lon="-.643703">
        <ele>1429.981</ele>
        <time>2020-09-05T10:08:40Z</time>
      </trkpt>
      <trkpt lat="42.837184" lon="-.643647">
        <ele>1430.677</ele>
        <time>2020-09-05T10:08:44Z</time>
      </trkpt>
      <trkpt lat="42.837163" lon="-.643586">
        <ele>1431.235</ele>
        <time>2020-09-05T10:08:49Z</time>
      </trkpt>
      <trkpt lat="42.83715" lon="-.643522">
        <ele>1431.856</ele>
        <time>2020-09-05T10:08:53Z</time>
      </trkpt>
      <trkpt lat="42.837134" lon="-.643451">
        <ele>1432.313</ele>
        <time>2020-09-05T10:08:58Z</time>
      </trkpt>
      <trkpt lat="42.837111" lon="-.643396">
        <ele>1432.969</ele>
        <time>2020-09-05T10:09:03Z</time>
      </trkpt>
      <trkpt lat="42.837093" lon="-.643336">
        <ele>1433.819</ele>
        <time>2020-09-05T10:09:10Z</time>
      </trkpt>
      <trkpt lat="42.837082" lon="-.643272">
        <ele>1434.769</ele>
        <time>2020-09-05T10:09:17Z</time>
      </trkpt>
      <trkpt lat="42.837056" lon="-.643206">
        <ele>1435.504</ele>
        <time>2020-09-05T10:09:21Z</time>
      </trkpt>
      <trkpt lat="42.837034" lon="-.643148">
        <ele>1436.324</ele>
        <time>2020-09-05T10:09:25Z</time>
      </trkpt>
      <trkpt lat="42.837015" lon="-.643075">
        <ele>1436.908</ele>
        <time>2020-09-05T10:09:29Z</time>
      </trkpt>
      <trkpt lat="42.837005" lon="-.643012">
        <ele>1437.521</ele>
        <time>2020-09-05T10:09:34Z</time>
      </trkpt>
      <trkpt lat="42.83699" lon="-.642954">
        <ele>1438.062</ele>
        <time>2020-09-05T10:09:37Z</time>
      </trkpt>
      <trkpt lat="42.836963" lon="-.642898">
        <ele>1438.468</ele>
        <time>2020-09-05T10:09:41Z</time>
      </trkpt>
      <trkpt lat="42.836934" lon="-.642845">
        <ele>1438.766</ele>
        <time>2020-09-05T10:09:45Z</time>
      </trkpt>
      <trkpt lat="42.8369" lon="-.642796">
        <ele>1438.967</ele>
        <time>2020-09-05T10:09:50Z</time>
      </trkpt>
      <trkpt lat="42.836863" lon="-.642751">
        <ele>1439.264</ele>
        <time>2020-09-05T10:09:54Z</time>
      </trkpt>
      <trkpt lat="42.836832" lon="-.642701">
        <ele>1439.760</ele>
        <time>2020-09-05T10:09:58Z</time>
      </trkpt>
      <trkpt lat="42.836801" lon="-.642652">
        <ele>1440.340</ele>
        <time>2020-09-05T10:10:03Z</time>
      </trkpt>
      <trkpt lat="42.836778" lon="-.642596">
        <ele>1440.961</ele>
        <time>2020-09-05T10:10:07Z</time>
      </trkpt>
      <trkpt lat="42.836754" lon="-.642525">
        <ele>1441.721</ele>
        <time>2020-09-05T10:10:12Z</time>
      </trkpt>
      <trkpt lat="42.836732" lon="-.642462">
        <ele>1442.413</ele>
        <time>2020-09-05T10:10:16Z</time>
      </trkpt>
      <trkpt lat="42.836709" lon="-.642404">
        <ele>1443.108</ele>
        <time>2020-09-05T10:10:21Z</time>
      </trkpt>
      <trkpt lat="42.836686" lon="-.642348">
        <ele>1443.791</ele>
        <time>2020-09-05T10:10:25Z</time>
      </trkpt>
      <trkpt lat="42.836653" lon="-.642295">
        <ele>1444.482</ele>
        <time>2020-09-05T10:10:30Z</time>
      </trkpt>
      <trkpt lat="42.83662" lon="-.642247">
        <ele>1445.268</ele>
        <time>2020-09-05T10:10:34Z</time>
      </trkpt>
      <trkpt lat="42.836588" lon="-.642197">
        <ele>1445.966</ele>
        <time>2020-09-05T10:10:39Z</time>
      </trkpt>
      <trkpt lat="42.836562" lon="-.642145">
        <ele>1446.617</ele>
        <time>2020-09-05T10:10:43Z</time>
      </trkpt>
      <trkpt lat="42.836533" lon="-.642092">
        <ele>1447.474</ele>
        <time>2020-09-05T10:10:49Z</time>
      </trkpt>
      <trkpt lat="42.836497" lon="-.642042">
        <ele>1448.310</ele>
        <time>2020-09-05T10:10:55Z</time>
      </trkpt>
      <trkpt lat="42.836466" lon="-.641991">
        <ele>1449.130</ele>
        <time>2020-09-05T10:11:00Z</time>
      </trkpt>
      <trkpt lat="42.836431" lon="-.641944">
        <ele>1449.982</ele>
        <time>2020-09-05T10:11:05Z</time>
      </trkpt>
      <trkpt lat="42.8364" lon="-.64189">
        <ele>1451.143</ele>
        <time>2020-09-05T10:11:17Z</time>
      </trkpt>
      <trkpt lat="42.836366" lon="-.64184">
        <ele>1452.017</ele>
        <time>2020-09-05T10:11:22Z</time>
      </trkpt>
      <trkpt lat="42.836337" lon="-.641785">
        <ele>1452.808</ele>
        <time>2020-09-05T10:11:26Z</time>
      </trkpt>
      <trkpt lat="42.836309" lon="-.641732">
        <ele>1453.553</ele>
        <time>2020-09-05T10:11:29Z</time>
      </trkpt>
      <trkpt lat="42.836281" lon="-.641679">
        <ele>1454.164</ele>
        <time>2020-09-05T10:11:34Z</time>
      </trkpt>
      <trkpt lat="42.836253" lon="-.641622">
        <ele>1454.750</ele>
        <time>2020-09-05T10:11:39Z</time>
      </trkpt>
      <trkpt lat="42.836228" lon="-.641569">
        <ele>1455.298</ele>
        <time>2020-09-05T10:11:43Z</time>
      </trkpt>
      <trkpt lat="42.836206" lon="-.641509">
        <ele>1456.089</ele>
        <time>2020-09-05T10:12:04Z</time>
      </trkpt>
      <trkpt lat="42.83618" lon="-.641454">
        <ele>1456.636</ele>
        <time>2020-09-05T10:12:08Z</time>
      </trkpt>
      <trkpt lat="42.836152" lon="-.641403">
        <ele>1457.082</ele>
        <time>2020-09-05T10:12:12Z</time>
      </trkpt>
      <trkpt lat="42.836126" lon="-.641341">
        <ele>1457.382</ele>
        <time>2020-09-05T10:12:16Z</time>
      </trkpt>
      <trkpt lat="42.836111" lon="-.64128">
        <ele>1457.613</ele>
        <time>2020-09-05T10:12:20Z</time>
      </trkpt>
      <trkpt lat="42.836088" lon="-.641226">
        <ele>1457.843</ele>
        <time>2020-09-05T10:12:25Z</time>
      </trkpt>
      <trkpt lat="42.836059" lon="-.641157">
        <ele>1458.107</ele>
        <time>2020-09-05T10:12:29Z</time>
      </trkpt>
      <trkpt lat="42.836037" lon="-.641096">
        <ele>1458.308</ele>
        <time>2020-09-05T10:12:33Z</time>
      </trkpt>
      <trkpt lat="42.836017" lon="-.641032">
        <ele>1458.556</ele>
        <time>2020-09-05T10:12:37Z</time>
      </trkpt>
      <trkpt lat="42.835992" lon="-.640976">
        <ele>1458.817</ele>
        <time>2020-09-05T10:12:42Z</time>
      </trkpt>
      <trkpt lat="42.835966" lon="-.640924">
        <ele>1459.263</ele>
        <time>2020-09-05T10:12:47Z</time>
      </trkpt>
      <trkpt lat="42.835948" lon="-.640862">
        <ele>1459.731</ele>
        <time>2020-09-05T10:12:53Z</time>
      </trkpt>
      <trkpt lat="42.835935" lon="-.640797">
        <ele>1459.562</ele>
        <time>2020-09-05T10:13:08Z</time>
      </trkpt>
      <trkpt lat="42.835915" lon="-.640732">
        <ele>1459.119</ele>
        <time>2020-09-05T10:13:15Z</time>
      </trkpt>
      <trkpt lat="42.835883" lon="-.640685">
        <ele>1458.595</ele>
        <time>2020-09-05T10:13:20Z</time>
      </trkpt>
      <trkpt lat="42.835847" lon="-.640625">
        <ele>1458.095</ele>
        <time>2020-09-05T10:13:26Z</time>
      </trkpt>
      <trkpt lat="42.835816" lon="-.640574">
        <ele>1457.611</ele>
        <time>2020-09-05T10:13:31Z</time>
      </trkpt>
      <trkpt lat="42.835783" lon="-.640532">
        <ele>1457.321</ele>
        <time>2020-09-05T10:13:35Z</time>
      </trkpt>
      <trkpt lat="42.835741" lon="-.640493">
        <ele>1457.103</ele>
        <time>2020-09-05T10:13:40Z</time>
      </trkpt>
      <trkpt lat="42.835704" lon="-.640454">
        <ele>1457.008</ele>
        <time>2020-09-05T10:13:44Z</time>
      </trkpt>
      <trkpt lat="42.835668" lon="-.640412">
        <ele>1457.076</ele>
        <time>2020-09-05T10:13:47Z</time>
      </trkpt>
      <trkpt lat="42.835637" lon="-.640364">
        <ele>1457.067</ele>
        <time>2020-09-05T10:13:51Z</time>
      </trkpt>
      <trkpt lat="42.835608" lon="-.640317">
        <ele>1457.043</ele>
        <time>2020-09-05T10:13:55Z</time>
      </trkpt>
      <trkpt lat="42.835579" lon="-.640264">
        <ele>1457.061</ele>
        <time>2020-09-05T10:13:59Z</time>
      </trkpt>
      <trkpt lat="42.835553" lon="-.640204">
        <ele>1456.892</ele>
        <time>2020-09-05T10:14:05Z</time>
      </trkpt>
      <trkpt lat="42.835519" lon="-.640152">
        <ele>1456.629</ele>
        <time>2020-09-05T10:14:09Z</time>
      </trkpt>
      <trkpt lat="42.835481" lon="-.640109">
        <ele>1456.515</ele>
        <time>2020-09-05T10:14:13Z</time>
      </trkpt>
      <trkpt lat="42.835437" lon="-.640056">
        <ele>1456.315</ele>
        <time>2020-09-05T10:14:17Z</time>
      </trkpt>
      <trkpt lat="42.835398" lon="-.640011">
        <ele>1456.277</ele>
        <time>2020-09-05T10:14:21Z</time>
      </trkpt>
      <trkpt lat="42.835362" lon="-.639967">
        <ele>1456.261</ele>
        <time>2020-09-05T10:14:27Z</time>
      </trkpt>
      <trkpt lat="42.835332" lon="-.639919">
        <ele>1456.227</ele>
        <time>2020-09-05T10:14:31Z</time>
      </trkpt>
      <trkpt lat="42.835296" lon="-.639879">
        <ele>1456.308</ele>
        <time>2020-09-05T10:14:35Z</time>
      </trkpt>
      <trkpt lat="42.835257" lon="-.639845">
        <ele>1456.462</ele>
        <time>2020-09-05T10:14:39Z</time>
      </trkpt>
      <trkpt lat="42.835217" lon="-.639804">
        <ele>1456.553</ele>
        <time>2020-09-05T10:14:44Z</time>
      </trkpt>
      <trkpt lat="42.835182" lon="-.639762">
        <ele>1456.649</ele>
        <time>2020-09-05T10:14:48Z</time>
      </trkpt>
      <trkpt lat="42.835153" lon="-.639714">
        <ele>1456.667</ele>
        <time>2020-09-05T10:14:53Z</time>
      </trkpt>
      <trkpt lat="42.835171" lon="-.639656">
        <ele>1455.618</ele>
        <time>2020-09-05T10:15:19Z</time>
      </trkpt>
      <trkpt lat="42.835197" lon="-.6396">
        <ele>1453.845</ele>
        <time>2020-09-05T10:15:37Z</time>
      </trkpt>
      <trkpt lat="42.835237" lon="-.639571">
        <ele>1452.691</ele>
        <time>2020-09-05T10:15:54Z</time>
      </trkpt>
      <trkpt lat="42.835191" lon="-.639559">
        <ele>1452.111</ele>
        <time>2020-09-05T10:16:18Z</time>
      </trkpt>
      <trkpt lat="42.835161" lon="-.63964">
        <ele>1449.061</ele>
        <time>2020-09-05T10:18:12Z</time>
      </trkpt>
      <trkpt lat="42.835145" lon="-.639699">
        <ele>1445.021</ele>
        <time>2020-09-05T10:20:10Z</time>
      </trkpt>
      <trkpt lat="42.835182" lon="-.639658">
        <ele>1442.713</ele>
        <time>2020-09-05T10:20:27Z</time>
      </trkpt>
      <trkpt lat="42.835149" lon="-.639609">
        <ele>1440.408</ele>
        <time>2020-09-05T10:21:18Z</time>
      </trkpt>
      <trkpt lat="42.835119" lon="-.639562">
        <ele>1439.061</ele>
        <time>2020-09-05T10:21:21Z</time>
      </trkpt>
      <trkpt lat="42.835088" lon="-.639508">
        <ele>1438.142</ele>
        <time>2020-09-05T10:21:24Z</time>
      </trkpt>
      <trkpt lat="42.835061" lon="-.639458">
        <ele>1437.558</ele>
        <time>2020-09-05T10:21:28Z</time>
      </trkpt>
      <trkpt lat="42.835031" lon="-.639408">
        <ele>1437.316</ele>
        <time>2020-09-05T10:21:33Z</time>
      </trkpt>
      <trkpt lat="42.83502" lon="-.639345">
        <ele>1437.267</ele>
        <time>2020-09-05T10:21:52Z</time>
      </trkpt>
      <trkpt lat="42.834992" lon="-.63929">
        <ele>1437.624</ele>
        <time>2020-09-05T10:21:57Z</time>
      </trkpt>
      <trkpt lat="42.834969" lon="-.639228">
        <ele>1438.150</ele>
        <time>2020-09-05T10:22:02Z</time>
      </trkpt>
      <trkpt lat="42.834938" lon="-.639176">
        <ele>1438.630</ele>
        <time>2020-09-05T10:22:05Z</time>
      </trkpt>
      <trkpt lat="42.834907" lon="-.639121">
        <ele>1439.196</ele>
        <time>2020-09-05T10:22:09Z</time>
      </trkpt>
      <trkpt lat="42.834888" lon="-.639064">
        <ele>1439.631</ele>
        <time>2020-09-05T10:22:13Z</time>
      </trkpt>
      <trkpt lat="42.834856" lon="-.639012">
        <ele>1440.224</ele>
        <time>2020-09-05T10:22:17Z</time>
      </trkpt>
      <trkpt lat="42.834831" lon="-.638958">
        <ele>1440.808</ele>
        <time>2020-09-05T10:22:22Z</time>
      </trkpt>
      <trkpt lat="42.834808" lon="-.638901">
        <ele>1441.564</ele>
        <time>2020-09-05T10:22:26Z</time>
      </trkpt>
      <trkpt lat="42.834787" lon="-.638846">
        <ele>1442.245</ele>
        <time>2020-09-05T10:22:29Z</time>
      </trkpt>
      <trkpt lat="42.834763" lon="-.638786">
        <ele>1443.031</ele>
        <time>2020-09-05T10:22:34Z</time>
      </trkpt>
      <trkpt lat="42.834735" lon="-.638737">
        <ele>1443.779</ele>
        <time>2020-09-05T10:22:38Z</time>
      </trkpt>
      <trkpt lat="42.834706" lon="-.638686">
        <ele>1444.370</ele>
        <time>2020-09-05T10:22:42Z</time>
      </trkpt>
      <trkpt lat="42.834674" lon="-.63864">
        <ele>1445.077</ele>
        <time>2020-09-05T10:22:47Z</time>
      </trkpt>
      <trkpt lat="42.834642" lon="-.638591">
        <ele>1445.893</ele>
        <time>2020-09-05T10:22:52Z</time>
      </trkpt>
      <trkpt lat="42.83461" lon="-.638545">
        <ele>1446.553</ele>
        <time>2020-09-05T10:22:56Z</time>
      </trkpt>
      <trkpt lat="42.834581" lon="-.638495">
        <ele>1447.364</ele>
        <time>2020-09-05T10:23:01Z</time>
      </trkpt>
      <trkpt lat="42.834552" lon="-.638442">
        <ele>1447.906</ele>
        <time>2020-09-05T10:23:06Z</time>
      </trkpt>
      <trkpt lat="42.834526" lon="-.638384">
        <ele>1448.516</ele>
        <time>2020-09-05T10:23:10Z</time>
      </trkpt>
      <trkpt lat="42.834494" lon="-.638328">
        <ele>1449.008</ele>
        <time>2020-09-05T10:23:15Z</time>
      </trkpt>
      <trkpt lat="42.834463" lon="-.638275">
        <ele>1449.431</ele>
        <time>2020-09-05T10:23:20Z</time>
      </trkpt>
      <trkpt lat="42.834434" lon="-.638225">
        <ele>1449.962</ele>
        <time>2020-09-05T10:23:24Z</time>
      </trkpt>
      <trkpt lat="42.834406" lon="-.638176">
        <ele>1450.598</ele>
        <time>2020-09-05T10:23:28Z</time>
      </trkpt>
      <trkpt lat="42.834379" lon="-.63812">
        <ele>1451.146</ele>
        <time>2020-09-05T10:23:34Z</time>
      </trkpt>
      <trkpt lat="42.83435" lon="-.638069">
        <ele>1451.587</ele>
        <time>2020-09-05T10:23:39Z</time>
      </trkpt>
      <trkpt lat="42.834315" lon="-.638019">
        <ele>1451.824</ele>
        <time>2020-09-05T10:23:44Z</time>
      </trkpt>
      <trkpt lat="42.834278" lon="-.637973">
        <ele>1452.120</ele>
        <time>2020-09-05T10:23:48Z</time>
      </trkpt>
      <trkpt lat="42.834238" lon="-.637935">
        <ele>1452.560</ele>
        <time>2020-09-05T10:23:53Z</time>
      </trkpt>
      <trkpt lat="42.834195" lon="-.637899">
        <ele>1452.848</ele>
        <time>2020-09-05T10:23:58Z</time>
      </trkpt>
      <trkpt lat="42.834153" lon="-.63786">
        <ele>1453.061</ele>
        <time>2020-09-05T10:24:03Z</time>
      </trkpt>
      <trkpt lat="42.834113" lon="-.63783">
        <ele>1453.217</ele>
        <time>2020-09-05T10:24:07Z</time>
      </trkpt>
      <trkpt lat="42.834071" lon="-.637802">
        <ele>1453.408</ele>
        <time>2020-09-05T10:24:11Z</time>
      </trkpt>
      <trkpt lat="42.834028" lon="-.637783">
        <ele>1453.789</ele>
        <time>2020-09-05T10:24:16Z</time>
      </trkpt>
      <trkpt lat="42.833983" lon="-.637761">
        <ele>1454.150</ele>
        <time>2020-09-05T10:24:21Z</time>
      </trkpt>
      <trkpt lat="42.833938" lon="-.637737">
        <ele>1454.486</ele>
        <time>2020-09-05T10:24:26Z</time>
      </trkpt>
      <trkpt lat="42.833897" lon="-.63771">
        <ele>1454.734</ele>
        <time>2020-09-05T10:24:31Z</time>
      </trkpt>
      <trkpt lat="42.833848" lon="-.637692">
        <ele>1455.095</ele>
        <time>2020-09-05T10:24:36Z</time>
      </trkpt>
      <trkpt lat="42.833805" lon="-.637665">
        <ele>1455.232</ele>
        <time>2020-09-05T10:24:41Z</time>
      </trkpt>
      <trkpt lat="42.833763" lon="-.637641">
        <ele>1455.498</ele>
        <time>2020-09-05T10:24:44Z</time>
      </trkpt>
      <trkpt lat="42.833723" lon="-.637608">
        <ele>1455.768</ele>
        <time>2020-09-05T10:24:49Z</time>
      </trkpt>
      <trkpt lat="42.833697" lon="-.637557">
        <ele>1456.124</ele>
        <time>2020-09-05T10:24:54Z</time>
      </trkpt>
      <trkpt lat="42.833664" lon="-.637512">
        <ele>1456.604</ele>
        <time>2020-09-05T10:25:00Z</time>
      </trkpt>
      <trkpt lat="42.833628" lon="-.637468">
        <ele>1457.114</ele>
        <time>2020-09-05T10:25:04Z</time>
      </trkpt>
      <trkpt lat="42.83359" lon="-.637434">
        <ele>1457.508</ele>
        <time>2020-09-05T10:25:08Z</time>
      </trkpt>
      <trkpt lat="42.833549" lon="-.637402">
        <ele>1457.927</ele>
        <time>2020-09-05T10:25:12Z</time>
      </trkpt>
      <trkpt lat="42.833506" lon="-.637366">
        <ele>1458.248</ele>
        <time>2020-09-05T10:25:17Z</time>
      </trkpt>
      <trkpt lat="42.833461" lon="-.637347">
        <ele>1458.644</ele>
        <time>2020-09-05T10:25:21Z</time>
      </trkpt>
      <trkpt lat="42.833414" lon="-.637317">
        <ele>1459.012</ele>
        <time>2020-09-05T10:25:27Z</time>
      </trkpt>
      <trkpt lat="42.833368" lon="-.637294">
        <ele>1459.453</ele>
        <time>2020-09-05T10:25:32Z</time>
      </trkpt>
      <trkpt lat="42.833322" lon="-.637266">
        <ele>1459.880</ele>
        <time>2020-09-05T10:25:36Z</time>
      </trkpt>
      <trkpt lat="42.833286" lon="-.637222">
        <ele>1460.256</ele>
        <time>2020-09-05T10:25:41Z</time>
      </trkpt>
      <trkpt lat="42.833258" lon="-.637165">
        <ele>1460.646</ele>
        <time>2020-09-05T10:25:46Z</time>
      </trkpt>
      <trkpt lat="42.833222" lon="-.637118">
        <ele>1461.073</ele>
        <time>2020-09-05T10:25:51Z</time>
      </trkpt>
      <trkpt lat="42.833188" lon="-.637077">
        <ele>1461.485</ele>
        <time>2020-09-05T10:25:55Z</time>
      </trkpt>
      <trkpt lat="42.83315" lon="-.637035">
        <ele>1461.813</ele>
        <time>2020-09-05T10:26:02Z</time>
      </trkpt>
      <trkpt lat="42.833113" lon="-.636987">
        <ele>1462.408</ele>
        <time>2020-09-05T10:26:08Z</time>
      </trkpt>
      <trkpt lat="42.833076" lon="-.636942">
        <ele>1463.082</ele>
        <time>2020-09-05T10:26:13Z</time>
      </trkpt>
      <trkpt lat="42.83305" lon="-.636892">
        <ele>1463.963</ele>
        <time>2020-09-05T10:26:20Z</time>
      </trkpt>
      <trkpt lat="42.833019" lon="-.636839">
        <ele>1464.849</ele>
        <time>2020-09-05T10:26:25Z</time>
      </trkpt>
      <trkpt lat="42.833008" lon="-.636778">
        <ele>1465.787</ele>
        <time>2020-09-05T10:26:29Z</time>
      </trkpt>
      <trkpt lat="42.832989" lon="-.636719">
        <ele>1466.688</ele>
        <time>2020-09-05T10:26:34Z</time>
      </trkpt>
      <trkpt lat="42.832966" lon="-.636659">
        <ele>1467.615</ele>
        <time>2020-09-05T10:26:39Z</time>
      </trkpt>
      <trkpt lat="42.832949" lon="-.6366">
        <ele>1468.621</ele>
        <time>2020-09-05T10:26:45Z</time>
      </trkpt>
      <trkpt lat="42.832931" lon="-.636543">
        <ele>1469.461</ele>
        <time>2020-09-05T10:26:49Z</time>
      </trkpt>
      <trkpt lat="42.832926" lon="-.63648">
        <ele>1470.124</ele>
        <time>2020-09-05T10:26:53Z</time>
      </trkpt>
      <trkpt lat="42.83291" lon="-.636422">
        <ele>1470.704</ele>
        <time>2020-09-05T10:26:57Z</time>
      </trkpt>
      <trkpt lat="42.832882" lon="-.636372">
        <ele>1471.314</ele>
        <time>2020-09-05T10:27:02Z</time>
      </trkpt>
      <trkpt lat="42.832853" lon="-.63632">
        <ele>1471.908</ele>
        <time>2020-09-05T10:27:07Z</time>
      </trkpt>
      <trkpt lat="42.83283" lon="-.63626">
        <ele>1472.557</ele>
        <time>2020-09-05T10:27:13Z</time>
      </trkpt>
      <trkpt lat="42.8328" lon="-.636205">
        <ele>1473.178</ele>
        <time>2020-09-05T10:27:18Z</time>
      </trkpt>
      <trkpt lat="42.832775" lon="-.636143">
        <ele>1473.684</ele>
        <time>2020-09-05T10:27:23Z</time>
      </trkpt>
      <trkpt lat="42.832751" lon="-.636085">
        <ele>1474.232</ele>
        <time>2020-09-05T10:27:28Z</time>
      </trkpt>
      <trkpt lat="42.832714" lon="-.636038">
        <ele>1474.783</ele>
        <time>2020-09-05T10:27:33Z</time>
      </trkpt>
      <trkpt lat="42.832691" lon="-.635981">
        <ele>1475.230</ele>
        <time>2020-09-05T10:27:37Z</time>
      </trkpt>
      <trkpt lat="42.832678" lon="-.635915">
        <ele>1475.736</ele>
        <time>2020-09-05T10:27:43Z</time>
      </trkpt>
      <trkpt lat="42.832672" lon="-.635849">
        <ele>1476.356</ele>
        <time>2020-09-05T10:27:47Z</time>
      </trkpt>
      <trkpt lat="42.832662" lon="-.635788">
        <ele>1476.872</ele>
        <time>2020-09-05T10:27:51Z</time>
      </trkpt>
      <trkpt lat="42.83266" lon="-.635718">
        <ele>1477.313</ele>
        <time>2020-09-05T10:27:55Z</time>
      </trkpt>
      <trkpt lat="42.832674" lon="-.635654">
        <ele>1477.914</ele>
        <time>2020-09-05T10:27:59Z</time>
      </trkpt>
      <trkpt lat="42.832689" lon="-.635587">
        <ele>1478.608</ele>
        <time>2020-09-05T10:28:04Z</time>
      </trkpt>
      <trkpt lat="42.832678" lon="-.635522">
        <ele>1479.252</ele>
        <time>2020-09-05T10:28:09Z</time>
      </trkpt>
      <trkpt lat="42.832666" lon="-.63546">
        <ele>1480.063</ele>
        <time>2020-09-05T10:28:13Z</time>
      </trkpt>
      <trkpt lat="42.83266" lon="-.635392">
        <ele>1480.979</ele>
        <time>2020-09-05T10:28:19Z</time>
      </trkpt>
      <trkpt lat="42.832651" lon="-.635324">
        <ele>1481.847</ele>
        <time>2020-09-05T10:28:24Z</time>
      </trkpt>
      <trkpt lat="42.832628" lon="-.635267">
        <ele>1482.898</ele>
        <time>2020-09-05T10:28:30Z</time>
      </trkpt>
      <trkpt lat="42.832609" lon="-.635206">
        <ele>1483.785</ele>
        <time>2020-09-05T10:28:35Z</time>
      </trkpt>
      <trkpt lat="42.832593" lon="-.635145">
        <ele>1484.661</ele>
        <time>2020-09-05T10:28:41Z</time>
      </trkpt>
      <trkpt lat="42.832573" lon="-.635088">
        <ele>1485.451</ele>
        <time>2020-09-05T10:28:45Z</time>
      </trkpt>
      <trkpt lat="42.832562" lon="-.635027">
        <ele>1486.217</ele>
        <time>2020-09-05T10:28:50Z</time>
      </trkpt>
      <trkpt lat="42.832562" lon="-.634962">
        <ele>1487.087</ele>
        <time>2020-09-05T10:28:56Z</time>
      </trkpt>
      <trkpt lat="42.832548" lon="-.6349">
        <ele>1487.815</ele>
        <time>2020-09-05T10:29:01Z</time>
      </trkpt>
      <trkpt lat="42.832533" lon="-.63484">
        <ele>1488.708</ele>
        <time>2020-09-05T10:29:05Z</time>
      </trkpt>
      <trkpt lat="42.832517" lon="-.634776">
        <ele>1489.696</ele>
        <time>2020-09-05T10:29:11Z</time>
      </trkpt>
      <trkpt lat="42.832501" lon="-.634715">
        <ele>1490.587</ele>
        <time>2020-09-05T10:29:15Z</time>
      </trkpt>
      <trkpt lat="42.832468" lon="-.634666">
        <ele>1491.343</ele>
        <time>2020-09-05T10:29:19Z</time>
      </trkpt>
      <trkpt lat="42.83244" lon="-.634615">
        <ele>1492.191</ele>
        <time>2020-09-05T10:29:25Z</time>
      </trkpt>
      <trkpt lat="42.832409" lon="-.634563">
        <ele>1492.982</ele>
        <time>2020-09-05T10:29:30Z</time>
      </trkpt>
      <trkpt lat="42.832383" lon="-.634509">
        <ele>1493.659</ele>
        <time>2020-09-05T10:29:34Z</time>
      </trkpt>
      <trkpt lat="42.832349" lon="-.634456">
        <ele>1494.335</ele>
        <time>2020-09-05T10:29:39Z</time>
      </trkpt>
      <trkpt lat="42.832323" lon="-.634404">
        <ele>1494.975</ele>
        <time>2020-09-05T10:29:43Z</time>
      </trkpt>
      <trkpt lat="42.832304" lon="-.634347">
        <ele>1495.585</ele>
        <time>2020-09-05T10:29:47Z</time>
      </trkpt>
      <trkpt lat="42.83228" lon="-.634285">
        <ele>1496.289</ele>
        <time>2020-09-05T10:29:52Z</time>
      </trkpt>
      <trkpt lat="42.832265" lon="-.634222">
        <ele>1496.817</ele>
        <time>2020-09-05T10:29:56Z</time>
      </trkpt>
      <trkpt lat="42.832247" lon="-.634165">
        <ele>1497.308</ele>
        <time>2020-09-05T10:30:00Z</time>
      </trkpt>
      <trkpt lat="42.832222" lon="-.634107">
        <ele>1498.233</ele>
        <time>2020-09-05T10:30:05Z</time>
      </trkpt>
      <trkpt lat="42.832194" lon="-.634056">
        <ele>1498.954</ele>
        <time>2020-09-05T10:30:09Z</time>
      </trkpt>
      <trkpt lat="42.832173" lon="-.633997">
        <ele>1499.750</ele>
        <time>2020-09-05T10:30:13Z</time>
      </trkpt>
      <trkpt lat="42.832156" lon="-.633939">
        <ele>1500.568</ele>
        <time>2020-09-05T10:30:17Z</time>
      </trkpt>
      <trkpt lat="42.832133" lon="-.633877">
        <ele>1501.359</ele>
        <time>2020-09-05T10:30:22Z</time>
      </trkpt>
      <trkpt lat="42.832121" lon="-.633809">
        <ele>1502.196</ele>
        <time>2020-09-05T10:30:27Z</time>
      </trkpt>
      <trkpt lat="42.832116" lon="-.633744">
        <ele>1502.822</ele>
        <time>2020-09-05T10:30:32Z</time>
      </trkpt>
      <trkpt lat="42.832101" lon="-.633683">
        <ele>1503.522</ele>
        <time>2020-09-05T10:30:37Z</time>
      </trkpt>
      <trkpt lat="42.83208" lon="-.633624">
        <ele>1504.292</ele>
        <time>2020-09-05T10:30:42Z</time>
      </trkpt>
      <trkpt lat="42.832057" lon="-.633567">
        <ele>1505.073</ele>
        <time>2020-09-05T10:30:48Z</time>
      </trkpt>
      <trkpt lat="42.832026" lon="-.63352">
        <ele>1505.920</ele>
        <time>2020-09-05T10:30:54Z</time>
      </trkpt>
      <trkpt lat="42.832003" lon="-.633467">
        <ele>1506.808</ele>
        <time>2020-09-05T10:30:58Z</time>
      </trkpt>
      <trkpt lat="42.83198" lon="-.63341">
        <ele>1507.654</ele>
        <time>2020-09-05T10:31:03Z</time>
      </trkpt>
      <trkpt lat="42.831957" lon="-.633353">
        <ele>1508.365</ele>
        <time>2020-09-05T10:31:07Z</time>
      </trkpt>
      <trkpt lat="42.831937" lon="-.633288">
        <ele>1509.071</ele>
        <time>2020-09-05T10:31:12Z</time>
      </trkpt>
      <trkpt lat="42.831923" lon="-.633227">
        <ele>1509.539</ele>
        <time>2020-09-05T10:31:20Z</time>
      </trkpt>
      <trkpt lat="42.831909" lon="-.633164">
        <ele>1510.110</ele>
        <time>2020-09-05T10:31:25Z</time>
      </trkpt>
      <trkpt lat="42.831902" lon="-.633094">
        <ele>1510.697</ele>
        <time>2020-09-05T10:31:30Z</time>
      </trkpt>
      <trkpt lat="42.831895" lon="-.63303">
        <ele>1511.363</ele>
        <time>2020-09-05T10:31:35Z</time>
      </trkpt>
      <trkpt lat="42.831888" lon="-.632968">
        <ele>1512.173</ele>
        <time>2020-09-05T10:31:44Z</time>
      </trkpt>
      <trkpt lat="42.831871" lon="-.632909">
        <ele>1512.834</ele>
        <time>2020-09-05T10:31:49Z</time>
      </trkpt>
      <trkpt lat="42.831862" lon="-.632846">
        <ele>1513.355</ele>
        <time>2020-09-05T10:31:54Z</time>
      </trkpt>
      <trkpt lat="42.831855" lon="-.632785">
        <ele>1513.810</ele>
        <time>2020-09-05T10:31:57Z</time>
      </trkpt>
      <trkpt lat="42.831847" lon="-.63272">
        <ele>1514.308</ele>
        <time>2020-09-05T10:32:01Z</time>
      </trkpt>
      <trkpt lat="42.831849" lon="-.632658">
        <ele>1514.788</ele>
        <time>2020-09-05T10:32:04Z</time>
      </trkpt>
      <trkpt lat="42.831839" lon="-.632587">
        <ele>1515.189</ele>
        <time>2020-09-05T10:32:08Z</time>
      </trkpt>
      <trkpt lat="42.831823" lon="-.632525">
        <ele>1515.685</ele>
        <time>2020-09-05T10:32:14Z</time>
      </trkpt>
      <trkpt lat="42.831794" lon="-.63247">
        <ele>1516.183</ele>
        <time>2020-09-05T10:32:18Z</time>
      </trkpt>
      <trkpt lat="42.831766" lon="-.632414">
        <ele>1516.624</ele>
        <time>2020-09-05T10:32:23Z</time>
      </trkpt>
      <trkpt lat="42.831742" lon="-.632357">
        <ele>1517.171</ele>
        <time>2020-09-05T10:32:27Z</time>
      </trkpt>
      <trkpt lat="42.831721" lon="-.632291">
        <ele>1517.657</ele>
        <time>2020-09-05T10:32:32Z</time>
      </trkpt>
      <trkpt lat="42.831707" lon="-.632229">
        <ele>1518.297</ele>
        <time>2020-09-05T10:32:40Z</time>
      </trkpt>
      <trkpt lat="42.831692" lon="-.632162">
        <ele>1518.444</ele>
        <time>2020-09-05T10:32:50Z</time>
      </trkpt>
      <trkpt lat="42.831678" lon="-.632101">
        <ele>1518.505</ele>
        <time>2020-09-05T10:32:54Z</time>
      </trkpt>
      <trkpt lat="42.831663" lon="-.632036">
        <ele>1518.515</ele>
        <time>2020-09-05T10:32:58Z</time>
      </trkpt>
      <trkpt lat="42.831663" lon="-.63197">
        <ele>1518.508</ele>
        <time>2020-09-05T10:33:02Z</time>
      </trkpt>
      <trkpt lat="42.831672" lon="-.631908">
        <ele>1518.569</ele>
        <time>2020-09-05T10:33:06Z</time>
      </trkpt>
      <trkpt lat="42.831682" lon="-.631848">
        <ele>1518.560</ele>
        <time>2020-09-05T10:33:10Z</time>
      </trkpt>
      <trkpt lat="42.831688" lon="-.631786">
        <ele>1518.456</ele>
        <time>2020-09-05T10:33:14Z</time>
      </trkpt>
      <trkpt lat="42.831689" lon="-.631724">
        <ele>1518.544</ele>
        <time>2020-09-05T10:33:20Z</time>
      </trkpt>
      <trkpt lat="42.831673" lon="-.631665">
        <ele>1518.465</ele>
        <time>2020-09-05T10:33:26Z</time>
      </trkpt>
      <trkpt lat="42.831658" lon="-.631601">
        <ele>1518.362</ele>
        <time>2020-09-05T10:33:32Z</time>
      </trkpt>
      <trkpt lat="42.831667" lon="-.631536">
        <ele>1518.278</ele>
        <time>2020-09-05T10:33:38Z</time>
      </trkpt>
      <trkpt lat="42.8317" lon="-.631486">
        <ele>1518.258</ele>
        <time>2020-09-05T10:33:47Z</time>
      </trkpt>
      <trkpt lat="42.83173" lon="-.63144">
        <ele>1518.227</ele>
        <time>2020-09-05T10:33:54Z</time>
      </trkpt>
      <trkpt lat="42.831713" lon="-.631376">
        <ele>1518.468</ele>
        <time>2020-09-05T10:34:04Z</time>
      </trkpt>
      <trkpt lat="42.831675" lon="-.631333">
        <ele>1518.714</ele>
        <time>2020-09-05T10:34:13Z</time>
      </trkpt>
      <trkpt lat="42.831631" lon="-.631311">
        <ele>1518.908</ele>
        <time>2020-09-05T10:34:19Z</time>
      </trkpt>
      <trkpt lat="42.831609" lon="-.631256">
        <ele>1519.177</ele>
        <time>2020-09-05T10:34:28Z</time>
      </trkpt>
      <trkpt lat="42.831586" lon="-.631203">
        <ele>1519.888</ele>
        <time>2020-09-05T10:34:42Z</time>
      </trkpt>
      <trkpt lat="42.831558" lon="-.631153">
        <ele>1520.084</ele>
        <time>2020-09-05T10:34:50Z</time>
      </trkpt>
      <trkpt lat="42.831569" lon="-.631091">
        <ele>1520.232</ele>
        <time>2020-09-05T10:35:03Z</time>
      </trkpt>
      <trkpt lat="42.831564" lon="-.631026">
        <ele>1520.743</ele>
        <time>2020-09-05T10:35:20Z</time>
      </trkpt>
      <trkpt lat="42.831515" lon="-.631006">
        <ele>1521.280</ele>
        <time>2020-09-05T10:35:26Z</time>
      </trkpt>
      <trkpt lat="42.83147" lon="-.631016">
        <ele>1521.926</ele>
        <time>2020-09-05T10:35:44Z</time>
      </trkpt>
      <trkpt lat="42.831492" lon="-.630959">
        <ele>1525.986</ele>
        <time>2020-09-05T10:36:57Z</time>
      </trkpt>
      <trkpt lat="42.83154" lon="-.630943">
        <ele>1529.997</ele>
        <time>2020-09-05T10:37:05Z</time>
      </trkpt>
      <trkpt lat="42.831586" lon="-.630932">
        <ele>1533.923</ele>
        <time>2020-09-05T10:37:10Z</time>
      </trkpt>
      <trkpt lat="42.831632" lon="-.630895">
        <ele>1537.125</ele>
        <time>2020-09-05T10:37:16Z</time>
      </trkpt>
      <trkpt lat="42.831682" lon="-.630876">
        <ele>1539.308</ele>
        <time>2020-09-05T10:37:22Z</time>
      </trkpt>
      <trkpt lat="42.831724" lon="-.630854">
        <ele>1541.044</ele>
        <time>2020-09-05T10:37:28Z</time>
      </trkpt>
      <trkpt lat="42.831734" lon="-.63079">
        <ele>1542.555</ele>
        <time>2020-09-05T10:37:36Z</time>
      </trkpt>
      <trkpt lat="42.83175" lon="-.630732">
        <ele>1543.861</ele>
        <time>2020-09-05T10:37:42Z</time>
      </trkpt>
      <trkpt lat="42.831752" lon="-.630668">
        <ele>1545.259</ele>
        <time>2020-09-05T10:37:52Z</time>
      </trkpt>
      <trkpt lat="42.831709" lon="-.630648">
        <ele>1546.770</ele>
        <time>2020-09-05T10:38:00Z</time>
      </trkpt>
      <trkpt lat="42.831666" lon="-.630621">
        <ele>1548.187</ele>
        <time>2020-09-05T10:38:05Z</time>
      </trkpt>
      <trkpt lat="42.831662" lon="-.630559">
        <ele>1549.783</ele>
        <time>2020-09-05T10:38:16Z</time>
      </trkpt>
      <trkpt lat="42.831631" lon="-.630506">
        <ele>1551.393</ele>
        <time>2020-09-05T10:38:23Z</time>
      </trkpt>
      <trkpt lat="42.831591" lon="-.630469">
        <ele>1552.761</ele>
        <time>2020-09-05T10:38:36Z</time>
      </trkpt>
      <trkpt lat="42.831549" lon="-.630495">
        <ele>1553.821</ele>
        <time>2020-09-05T10:38:41Z</time>
      </trkpt>
      <trkpt lat="42.831505" lon="-.630511">
        <ele>1554.813</ele>
        <time>2020-09-05T10:38:46Z</time>
      </trkpt>
      <trkpt lat="42.831467" lon="-.630544">
        <ele>1555.808</ele>
        <time>2020-09-05T10:38:52Z</time>
      </trkpt>
      <trkpt lat="42.83143" lon="-.630504">
        <ele>1557.161</ele>
        <time>2020-09-05T10:39:01Z</time>
      </trkpt>
      <trkpt lat="42.831454" lon="-.630448">
        <ele>1558.212</ele>
        <time>2020-09-05T10:39:09Z</time>
      </trkpt>
      <trkpt lat="42.83147" lon="-.630389">
        <ele>1559.128</ele>
        <time>2020-09-05T10:39:15Z</time>
      </trkpt>
      <trkpt lat="42.831429" lon="-.630355">
        <ele>1560.216</ele>
        <time>2020-09-05T10:39:23Z</time>
      </trkpt>
      <trkpt lat="42.831434" lon="-.63029">
        <ele>1561.367</ele>
        <time>2020-09-05T10:39:32Z</time>
      </trkpt>
      <trkpt lat="42.831451" lon="-.630231">
        <ele>1562.744</ele>
        <time>2020-09-05T10:39:42Z</time>
      </trkpt>
      <trkpt lat="42.831482" lon="-.630184">
        <ele>1563.910</ele>
        <time>2020-09-05T10:39:51Z</time>
      </trkpt>
      <trkpt lat="42.831527" lon="-.630159">
        <ele>1565.030</ele>
        <time>2020-09-05T10:39:59Z</time>
      </trkpt>
      <trkpt lat="42.831507" lon="-.630102">
        <ele>1565.971</ele>
        <time>2020-09-05T10:40:05Z</time>
      </trkpt>
      <trkpt lat="42.831475" lon="-.630051">
        <ele>1566.741</ele>
        <time>2020-09-05T10:40:15Z</time>
      </trkpt>
      <trkpt lat="42.83144" lon="-.63001">
        <ele>1567.715</ele>
        <time>2020-09-05T10:40:28Z</time>
      </trkpt>
      <trkpt lat="42.831416" lon="-.629952">
        <ele>1568.608</ele>
        <time>2020-09-05T10:40:39Z</time>
      </trkpt>
      <trkpt lat="42.83138" lon="-.629906">
        <ele>1569.242</ele>
        <time>2020-09-05T10:40:48Z</time>
      </trkpt>
      <trkpt lat="42.831345" lon="-.629948">
        <ele>1570.353</ele>
        <time>2020-09-05T10:41:01Z</time>
      </trkpt>
      <trkpt lat="42.831337" lon="-.629885">
        <ele>1571.799</ele>
        <time>2020-09-05T10:41:18Z</time>
      </trkpt>
      <trkpt lat="42.831347" lon="-.629825">
        <ele>1573.287</ele>
        <time>2020-09-05T10:41:29Z</time>
      </trkpt>
      <trkpt lat="42.831324" lon="-.629764">
        <ele>1574.888</ele>
        <time>2020-09-05T10:41:42Z</time>
      </trkpt>
      <trkpt lat="42.831277" lon="-.62976">
        <ele>1577.055</ele>
        <time>2020-09-05T10:41:55Z</time>
      </trkpt>
      <trkpt lat="42.831237" lon="-.629795">
        <ele>1579.281</ele>
        <time>2020-09-05T10:42:02Z</time>
      </trkpt>
      <trkpt lat="42.831218" lon="-.629738">
        <ele>1582.521</ele>
        <time>2020-09-05T10:42:22Z</time>
      </trkpt>
      <trkpt lat="42.8312" lon="-.629679">
        <ele>1585.396</ele>
        <time>2020-09-05T10:42:32Z</time>
      </trkpt>
      <trkpt lat="42.831182" lon="-.629622">
        <ele>1587.431</ele>
        <time>2020-09-05T10:42:39Z</time>
      </trkpt>
      <trkpt lat="42.83115" lon="-.629576">
        <ele>1589.224</ele>
        <time>2020-09-05T10:42:45Z</time>
      </trkpt>
      <trkpt lat="42.831115" lon="-.629531">
        <ele>1590.708</ele>
        <time>2020-09-05T10:42:50Z</time>
      </trkpt>
      <trkpt lat="42.831072" lon="-.629513">
        <ele>1592.164</ele>
        <time>2020-09-05T10:42:56Z</time>
      </trkpt>
      <trkpt lat="42.831027" lon="-.629522">
        <ele>1593.355</ele>
        <time>2020-09-05T10:43:03Z</time>
      </trkpt>
      <trkpt lat="42.831014" lon="-.629463">
        <ele>1594.621</ele>
        <time>2020-09-05T10:43:13Z</time>
      </trkpt>
      <trkpt lat="42.831017" lon="-.629401">
        <ele>1595.949</ele>
        <time>2020-09-05T10:43:21Z</time>
      </trkpt>
      <trkpt lat="42.831038" lon="-.629343">
        <ele>1597.350</ele>
        <time>2020-09-05T10:43:30Z</time>
      </trkpt>
      <trkpt lat="42.831074" lon="-.629304">
        <ele>1598.787</ele>
        <time>2020-09-05T10:43:39Z</time>
      </trkpt>
      <trkpt lat="42.83106" lon="-.629242">
        <ele>1599.963</ele>
        <time>2020-09-05T10:43:45Z</time>
      </trkpt>
      <trkpt lat="42.831023" lon="-.629192">
        <ele>1601.333</ele>
        <time>2020-09-05T10:43:55Z</time>
      </trkpt>
      <trkpt lat="42.83098" lon="-.629167">
        <ele>1602.596</ele>
        <time>2020-09-05T10:44:01Z</time>
      </trkpt>
      <trkpt lat="42.830945" lon="-.629127">
        <ele>1603.831</ele>
        <time>2020-09-05T10:44:13Z</time>
      </trkpt>
      <trkpt lat="42.830949" lon="-.629063">
        <ele>1604.924</ele>
        <time>2020-09-05T10:44:18Z</time>
      </trkpt>
      <trkpt lat="42.830922" lon="-.629013">
        <ele>1606.008</ele>
        <time>2020-09-05T10:44:33Z</time>
      </trkpt>
      <trkpt lat="42.830918" lon="-.628947">
        <ele>1606.964</ele>
        <time>2020-09-05T10:44:41Z</time>
      </trkpt>
      <trkpt lat="42.83094" lon="-.628892">
        <ele>1607.965</ele>
        <time>2020-09-05T10:44:51Z</time>
      </trkpt>
      <trkpt lat="42.830911" lon="-.628841">
        <ele>1608.791</ele>
        <time>2020-09-05T10:45:04Z</time>
      </trkpt>
      <trkpt lat="42.830886" lon="-.628788">
        <ele>1609.129</ele>
        <time>2020-09-05T10:45:10Z</time>
      </trkpt>
      <trkpt lat="42.830885" lon="-.628723">
        <ele>1609.560</ele>
        <time>2020-09-05T10:45:30Z</time>
      </trkpt>
      <trkpt lat="42.830883" lon="-.628661">
        <ele>1610.027</ele>
        <time>2020-09-05T10:45:34Z</time>
      </trkpt>
      <trkpt lat="42.830889" lon="-.628594">
        <ele>1610.593</ele>
        <time>2020-09-05T10:45:38Z</time>
      </trkpt>
      <trkpt lat="42.830885" lon="-.628529">
        <ele>1611.183</ele>
        <time>2020-09-05T10:45:43Z</time>
      </trkpt>
      <trkpt lat="42.830879" lon="-.628461">
        <ele>1611.557</ele>
        <time>2020-09-05T10:45:51Z</time>
      </trkpt>
      <trkpt lat="42.830906" lon="-.628409">
        <ele>1611.800</ele>
        <time>2020-09-05T10:46:07Z</time>
      </trkpt>
      <trkpt lat="42.830931" lon="-.628352">
        <ele>1612.120</ele>
        <time>2020-09-05T10:46:13Z</time>
      </trkpt>
      <trkpt lat="42.830941" lon="-.628283">
        <ele>1612.208</ele>
        <time>2020-09-05T10:46:19Z</time>
      </trkpt>
      <trkpt lat="42.830945" lon="-.62821">
        <ele>1612.580</ele>
        <time>2020-09-05T10:46:24Z</time>
      </trkpt>
      <trkpt lat="42.83096" lon="-.628147">
        <ele>1612.981</ele>
        <time>2020-09-05T10:46:41Z</time>
      </trkpt>
      <trkpt lat="42.831004" lon="-.628159">
        <ele>1613.177</ele>
        <time>2020-09-05T10:47:41Z</time>
      </trkpt>
      <trkpt lat="42.831056" lon="-.628179">
        <ele>1612.575</ele>
        <time>2020-09-05T10:48:04Z</time>
      </trkpt>
      <trkpt lat="42.831093" lon="-.628237">
        <ele>1612.666</ele>
        <time>2020-09-05T10:48:34Z</time>
      </trkpt>
      <trkpt lat="42.83114" lon="-.628235">
        <ele>1614.653</ele>
        <time>2020-09-05T10:48:49Z</time>
      </trkpt>
      <trkpt lat="42.831174" lon="-.628187">
        <ele>1616.469</ele>
        <time>2020-09-05T10:48:57Z</time>
      </trkpt>
      <trkpt lat="42.831215" lon="-.628158">
        <ele>1617.689</ele>
        <time>2020-09-05T10:49:03Z</time>
      </trkpt>
      <trkpt lat="42.831262" lon="-.628151">
        <ele>1618.242</ele>
        <time>2020-09-05T10:49:06Z</time>
      </trkpt>
      <trkpt lat="42.831311" lon="-.628143">
        <ele>1618.622</ele>
        <time>2020-09-05T10:49:11Z</time>
      </trkpt>
      <trkpt lat="42.831358" lon="-.628127">
        <ele>1618.914</ele>
        <time>2020-09-05T10:49:16Z</time>
      </trkpt>
      <trkpt lat="42.831394" lon="-.628088">
        <ele>1619.208</ele>
        <time>2020-09-05T10:49:21Z</time>
      </trkpt>
      <trkpt lat="42.831445" lon="-.628088">
        <ele>1619.839</ele>
        <time>2020-09-05T10:49:28Z</time>
      </trkpt>
      <trkpt lat="42.831475" lon="-.628136">
        <ele>1620.490</ele>
        <time>2020-09-05T10:49:35Z</time>
      </trkpt>
      <trkpt lat="42.831511" lon="-.62818">
        <ele>1621.116</ele>
        <time>2020-09-05T10:49:43Z</time>
      </trkpt>
      <trkpt lat="42.831557" lon="-.62817">
        <ele>1621.524</ele>
        <time>2020-09-05T10:49:53Z</time>
      </trkpt>
      <trkpt lat="42.831599" lon="-.628139">
        <ele>1621.895</ele>
        <time>2020-09-05T10:49:59Z</time>
      </trkpt>
      <trkpt lat="42.831622" lon="-.628078">
        <ele>1621.972</ele>
        <time>2020-09-05T10:50:04Z</time>
      </trkpt>
      <trkpt lat="42.831613" lon="-.628017">
        <ele>1622.028</ele>
        <time>2020-09-05T10:50:09Z</time>
      </trkpt>
      <trkpt lat="42.831617" lon="-.627953">
        <ele>1622.128</ele>
        <time>2020-09-05T10:50:14Z</time>
      </trkpt>
      <trkpt lat="42.831659" lon="-.627921">
        <ele>1621.938</ele>
        <time>2020-09-05T10:50:24Z</time>
      </trkpt>
      <trkpt lat="42.831707" lon="-.627916">
        <ele>1621.570</ele>
        <time>2020-09-05T10:50:29Z</time>
      </trkpt>
      <trkpt lat="42.831754" lon="-.627937">
        <ele>1621.117</ele>
        <time>2020-09-05T10:50:34Z</time>
      </trkpt>
      <trkpt lat="42.831802" lon="-.627944">
        <ele>1620.608</ele>
        <time>2020-09-05T10:50:43Z</time>
      </trkpt>
      <trkpt lat="42.831845" lon="-.627922">
        <ele>1620.278</ele>
        <time>2020-09-05T10:50:50Z</time>
      </trkpt>
      <trkpt lat="42.831889" lon="-.627894">
        <ele>1619.839</ele>
        <time>2020-09-05T10:50:55Z</time>
      </trkpt>
      <trkpt lat="42.831921" lon="-.627847">
        <ele>1619.485</ele>
        <time>2020-09-05T10:51:01Z</time>
      </trkpt>
      <trkpt lat="42.831964" lon="-.627823">
        <ele>1619.053</ele>
        <time>2020-09-05T10:51:09Z</time>
      </trkpt>
      <trkpt lat="42.832004" lon="-.62779">
        <ele>1618.764</ele>
        <time>2020-09-05T10:51:13Z</time>
      </trkpt>
      <trkpt lat="42.832045" lon="-.627759">
        <ele>1618.631</ele>
        <time>2020-09-05T10:51:27Z</time>
      </trkpt>
      <trkpt lat="42.832072" lon="-.62771">
        <ele>1618.777</ele>
        <time>2020-09-05T10:51:35Z</time>
      </trkpt>
      <trkpt lat="42.832114" lon="-.627678">
        <ele>1617.967</ele>
        <time>2020-09-05T10:52:36Z</time>
      </trkpt>
      <trkpt lat="42.83211" lon="-.627615">
        <ele>1616.726</ele>
        <time>2020-09-05T10:53:12Z</time>
      </trkpt>
      <trkpt lat="42.832147" lon="-.627578">
        <ele>1615.947</ele>
        <time>2020-09-05T10:53:24Z</time>
      </trkpt>
      <trkpt lat="42.832193" lon="-.627562">
        <ele>1614.811</ele>
        <time>2020-09-05T10:54:20Z</time>
      </trkpt>
      <trkpt lat="42.832233" lon="-.627529">
        <ele>1614.108</ele>
        <time>2020-09-05T10:54:25Z</time>
      </trkpt>
      <trkpt lat="42.832275" lon="-.627502">
        <ele>1613.227</ele>
        <time>2020-09-05T10:54:37Z</time>
      </trkpt>
      <trkpt lat="42.832323" lon="-.627504">
        <ele>1612.428</ele>
        <time>2020-09-05T10:54:43Z</time>
      </trkpt>
      <trkpt lat="42.83237" lon="-.627497">
        <ele>1611.434</ele>
        <time>2020-09-05T10:55:03Z</time>
      </trkpt>
      <trkpt lat="42.832417" lon="-.62751">
        <ele>1610.982</ele>
        <time>2020-09-05T10:55:10Z</time>
      </trkpt>
      <trkpt lat="42.832465" lon="-.627495">
        <ele>1610.593</ele>
        <time>2020-09-05T10:55:14Z</time>
      </trkpt>
      <trkpt lat="42.832507" lon="-.627469">
        <ele>1610.050</ele>
        <time>2020-09-05T10:55:19Z</time>
      </trkpt>
      <trkpt lat="42.832509" lon="-.627407">
        <ele>1607.486</ele>
        <time>2020-09-05T10:56:10Z</time>
      </trkpt>
      <trkpt lat="42.832478" lon="-.627464">
        <ele>1605.726</ele>
        <time>2020-09-05T10:57:01Z</time>
      </trkpt>
      <trkpt lat="42.832432" lon="-.627481">
        <ele>1604.519</ele>
        <time>2020-09-05T10:57:12Z</time>
      </trkpt>
      <trkpt lat="42.832387" lon="-.627496">
        <ele>1603.909</ele>
        <time>2020-09-05T10:57:16Z</time>
      </trkpt>
      <trkpt lat="42.832332" lon="-.627497">
        <ele>1603.719</ele>
        <time>2020-09-05T10:57:21Z</time>
      </trkpt>
      <trkpt lat="42.832284" lon="-.627482">
        <ele>1603.608</ele>
        <time>2020-09-05T10:57:26Z</time>
      </trkpt>
      <trkpt lat="42.832233" lon="-.627484">
        <ele>1603.756</ele>
        <time>2020-09-05T10:57:31Z</time>
      </trkpt>
      <trkpt lat="42.832187" lon="-.627495">
        <ele>1604.087</ele>
        <time>2020-09-05T10:57:37Z</time>
      </trkpt>
      <trkpt lat="42.832143" lon="-.627515">
        <ele>1604.453</ele>
        <time>2020-09-05T10:57:42Z</time>
      </trkpt>
      <trkpt lat="42.83209" lon="-.627523">
        <ele>1604.991</ele>
        <time>2020-09-05T10:57:47Z</time>
      </trkpt>
      <trkpt lat="42.832042" lon="-.627532">
        <ele>1605.422</ele>
        <time>2020-09-05T10:57:51Z</time>
      </trkpt>
      <trkpt lat="42.831999" lon="-.627497">
        <ele>1605.919</ele>
        <time>2020-09-05T10:57:59Z</time>
      </trkpt>
      <trkpt lat="42.831954" lon="-.627504">
        <ele>1606.425</ele>
        <time>2020-09-05T10:58:03Z</time>
      </trkpt>
      <trkpt lat="42.83191" lon="-.627521">
        <ele>1607.075</ele>
        <time>2020-09-05T10:58:41Z</time>
      </trkpt>
      <trkpt lat="42.831864" lon="-.627519">
        <ele>1607.586</ele>
        <time>2020-09-05T10:58:46Z</time>
      </trkpt>
      <trkpt lat="42.831818" lon="-.62752">
        <ele>1608.060</ele>
        <time>2020-09-05T10:58:51Z</time>
      </trkpt>
      <trkpt lat="42.831772" lon="-.627506">
        <ele>1608.926</ele>
        <time>2020-09-05T10:58:59Z</time>
      </trkpt>
      <trkpt lat="42.831725" lon="-.627492">
        <ele>1609.808</ele>
        <time>2020-09-05T10:59:06Z</time>
      </trkpt>
      <trkpt lat="42.831676" lon="-.627504">
        <ele>1610.693</ele>
        <time>2020-09-05T10:59:11Z</time>
      </trkpt>
      <trkpt lat="42.83163" lon="-.627502">
        <ele>1611.234</ele>
        <time>2020-09-05T10:59:15Z</time>
      </trkpt>
      <trkpt lat="42.831573" lon="-.627511">
        <ele>1611.640</ele>
        <time>2020-09-05T10:59:19Z</time>
      </trkpt>
      <trkpt lat="42.831533" lon="-.627481">
        <ele>1611.728</ele>
        <time>2020-09-05T10:59:24Z</time>
      </trkpt>
      <trkpt lat="42.83151" lon="-.627548">
        <ele>1611.329</ele>
        <time>2020-09-05T10:59:53Z</time>
      </trkpt>
      <trkpt lat="42.831467" lon="-.627581">
        <ele>1610.926</ele>
        <time>2020-09-05T10:59:59Z</time>
      </trkpt>
      <trkpt lat="42.831422" lon="-.627609">
        <ele>1611.062</ele>
        <time>2020-09-05T11:00:04Z</time>
      </trkpt>
      <trkpt lat="42.831377" lon="-.627634">
        <ele>1611.412</ele>
        <time>2020-09-05T11:00:09Z</time>
      </trkpt>
      <trkpt lat="42.831325" lon="-.627645">
        <ele>1611.782</ele>
        <time>2020-09-05T11:00:14Z</time>
      </trkpt>
      <trkpt lat="42.831271" lon="-.627637">
        <ele>1611.743</ele>
        <time>2020-09-05T11:00:18Z</time>
      </trkpt>
      <trkpt lat="42.831219" lon="-.627623">
        <ele>1611.617</ele>
        <time>2020-09-05T11:00:21Z</time>
      </trkpt>
      <trkpt lat="42.831169" lon="-.627615">
        <ele>1611.508</ele>
        <time>2020-09-05T11:00:25Z</time>
      </trkpt>
      <trkpt lat="42.831115" lon="-.627615">
        <ele>1611.573</ele>
        <time>2020-09-05T11:00:30Z</time>
      </trkpt>
      <trkpt lat="42.83107" lon="-.627605">
        <ele>1611.484</ele>
        <time>2020-09-05T11:00:35Z</time>
      </trkpt>
      <trkpt lat="42.831019" lon="-.627598">
        <ele>1611.220</ele>
        <time>2020-09-05T11:00:39Z</time>
      </trkpt>
      <trkpt lat="42.830972" lon="-.627594">
        <ele>1611.168</ele>
        <time>2020-09-05T11:00:43Z</time>
      </trkpt>
      <trkpt lat="42.830924" lon="-.62759">
        <ele>1611.039</ele>
        <time>2020-09-05T11:00:46Z</time>
      </trkpt>
      <trkpt lat="42.830876" lon="-.627579">
        <ele>1610.846</ele>
        <time>2020-09-05T11:00:50Z</time>
      </trkpt>
      <trkpt lat="42.830823" lon="-.627575">
        <ele>1610.732</ele>
        <time>2020-09-05T11:00:56Z</time>
      </trkpt>
      <trkpt lat="42.830775" lon="-.627555">
        <ele>1610.612</ele>
        <time>2020-09-05T11:00:59Z</time>
      </trkpt>
      <trkpt lat="42.830733" lon="-.627533">
        <ele>1610.411</ele>
        <time>2020-09-05T11:01:03Z</time>
      </trkpt>
      <trkpt lat="42.830681" lon="-.627504">
        <ele>1610.321</ele>
        <time>2020-09-05T11:01:07Z</time>
      </trkpt>
      <trkpt lat="42.83064" lon="-.627474">
        <ele>1610.103</ele>
        <time>2020-09-05T11:01:11Z</time>
      </trkpt>
      <trkpt lat="42.830596" lon="-.627448">
        <ele>1610.008</ele>
        <time>2020-09-05T11:01:15Z</time>
      </trkpt>
      <trkpt lat="42.830548" lon="-.627431">
        <ele>1610.036</ele>
        <time>2020-09-05T11:01:19Z</time>
      </trkpt>
      <trkpt lat="42.830499" lon="-.627425">
        <ele>1609.937</ele>
        <time>2020-09-05T11:01:22Z</time>
      </trkpt>
      <trkpt lat="42.830455" lon="-.627407">
        <ele>1609.833</ele>
        <time>2020-09-05T11:01:26Z</time>
      </trkpt>
      <trkpt lat="42.830428" lon="-.627357">
        <ele>1609.671</ele>
        <time>2020-09-05T11:01:30Z</time>
      </trkpt>
      <trkpt lat="42.830401" lon="-.627299">
        <ele>1609.352</ele>
        <time>2020-09-05T11:01:35Z</time>
      </trkpt>
      <trkpt lat="42.830378" lon="-.627241">
        <ele>1609.049</ele>
        <time>2020-09-05T11:01:40Z</time>
      </trkpt>
      <trkpt lat="42.830334" lon="-.627206">
        <ele>1608.825</ele>
        <time>2020-09-05T11:01:44Z</time>
      </trkpt>
      <trkpt lat="42.830295" lon="-.627164">
        <ele>1608.685</ele>
        <time>2020-09-05T11:01:49Z</time>
      </trkpt>
      <trkpt lat="42.830287" lon="-.627099">
        <ele>1607.339</ele>
        <time>2020-09-05T11:02:30Z</time>
      </trkpt>
      <trkpt lat="42.830243" lon="-.627061">
        <ele>1606.301</ele>
        <time>2020-09-05T11:02:35Z</time>
      </trkpt>
      <trkpt lat="42.830213" lon="-.627011">
        <ele>1605.221</ele>
        <time>2020-09-05T11:02:40Z</time>
      </trkpt>
      <trkpt lat="42.830168" lon="-.627031">
        <ele>1604.208</ele>
        <time>2020-09-05T11:02:54Z</time>
      </trkpt>
      <trkpt lat="42.830119" lon="-.627027">
        <ele>1603.328</ele>
        <time>2020-09-05T11:02:59Z</time>
      </trkpt>
      <trkpt lat="42.830069" lon="-.627029">
        <ele>1602.579</ele>
        <time>2020-09-05T11:03:03Z</time>
      </trkpt>
      <trkpt lat="42.830023" lon="-.627036">
        <ele>1601.735</ele>
        <time>2020-09-05T11:03:07Z</time>
      </trkpt>
      <trkpt lat="42.829978" lon="-.62704">
        <ele>1601.093</ele>
        <time>2020-09-05T11:03:11Z</time>
      </trkpt>
      <trkpt lat="42.829923" lon="-.627046">
        <ele>1600.164</ele>
        <time>2020-09-05T11:03:16Z</time>
      </trkpt>
      <trkpt lat="42.829877" lon="-.627071">
        <ele>1599.151</ele>
        <time>2020-09-05T11:03:29Z</time>
      </trkpt>
      <trkpt lat="42.829825" lon="-.627069">
        <ele>1598.697</ele>
        <time>2020-09-05T11:03:34Z</time>
      </trkpt>
      <trkpt lat="42.829779" lon="-.627042">
        <ele>1598.437</ele>
        <time>2020-09-05T11:03:37Z</time>
      </trkpt>
      <trkpt lat="42.829734" lon="-.627031">
        <ele>1598.381</ele>
        <time>2020-09-05T11:03:41Z</time>
      </trkpt>
      <trkpt lat="42.829688" lon="-.627009">
        <ele>1598.361</ele>
        <time>2020-09-05T11:03:44Z</time>
      </trkpt>
      <trkpt lat="42.829641" lon="-.626985">
        <ele>1598.417</ele>
        <time>2020-09-05T11:03:48Z</time>
      </trkpt>
      <trkpt lat="42.829596" lon="-.626991">
        <ele>1598.408</ele>
        <time>2020-09-05T11:03:52Z</time>
      </trkpt>
      <trkpt lat="42.829547" lon="-.626992">
        <ele>1598.153</ele>
        <time>2020-09-05T11:04:04Z</time>
      </trkpt>
      <trkpt lat="42.829501" lon="-.627004">
        <ele>1597.854</ele>
        <time>2020-09-05T11:04:08Z</time>
      </trkpt>
      <trkpt lat="42.829456" lon="-.627018">
        <ele>1597.490</ele>
        <time>2020-09-05T11:04:11Z</time>
      </trkpt>
      <trkpt lat="42.829408" lon="-.627032">
        <ele>1596.978</ele>
        <time>2020-09-05T11:04:15Z</time>
      </trkpt>
      <trkpt lat="42.829355" lon="-.627046">
        <ele>1596.319</ele>
        <time>2020-09-05T11:04:20Z</time>
      </trkpt>
      <trkpt lat="42.829308" lon="-.627054">
        <ele>1595.686</ele>
        <time>2020-09-05T11:04:25Z</time>
      </trkpt>
      <trkpt lat="42.829252" lon="-.627046">
        <ele>1595.292</ele>
        <time>2020-09-05T11:04:30Z</time>
      </trkpt>
      <trkpt lat="42.829207" lon="-.627036">
        <ele>1595.042</ele>
        <time>2020-09-05T11:04:34Z</time>
      </trkpt>
      <trkpt lat="42.829157" lon="-.627029">
        <ele>1595.027</ele>
        <time>2020-09-05T11:04:38Z</time>
      </trkpt>
      <trkpt lat="42.829111" lon="-.627022">
        <ele>1595.168</ele>
        <time>2020-09-05T11:04:41Z</time>
      </trkpt>
      <trkpt lat="42.829063" lon="-.62701">
        <ele>1595.614</ele>
        <time>2020-09-05T11:04:46Z</time>
      </trkpt>
      <trkpt lat="42.829018" lon="-.626998">
        <ele>1596.108</ele>
        <time>2020-09-05T11:04:50Z</time>
      </trkpt>
      <trkpt lat="42.828969" lon="-.626987">
        <ele>1596.747</ele>
        <time>2020-09-05T11:04:53Z</time>
      </trkpt>
      <trkpt lat="42.828922" lon="-.626965">
        <ele>1597.698</ele>
        <time>2020-09-05T11:04:58Z</time>
      </trkpt>
      <trkpt lat="42.828876" lon="-.626953">
        <ele>1598.474</ele>
        <time>2020-09-05T11:05:02Z</time>
      </trkpt>
      <trkpt lat="42.828829" lon="-.62694">
        <ele>1599.152</ele>
        <time>2020-09-05T11:05:06Z</time>
      </trkpt>
      <trkpt lat="42.828785" lon="-.626913">
        <ele>1599.783</ele>
        <time>2020-09-05T11:05:11Z</time>
      </trkpt>
      <trkpt lat="42.828743" lon="-.626877">
        <ele>1600.250</ele>
        <time>2020-09-05T11:05:15Z</time>
      </trkpt>
      <trkpt lat="42.828694" lon="-.626844">
        <ele>1600.756</ele>
        <time>2020-09-05T11:05:20Z</time>
      </trkpt>
      <trkpt lat="42.828652" lon="-.626814">
        <ele>1601.246</ele>
        <time>2020-09-05T11:05:25Z</time>
      </trkpt>
      <trkpt lat="42.828606" lon="-.626787">
        <ele>1601.527</ele>
        <time>2020-09-05T11:05:29Z</time>
      </trkpt>
      <trkpt lat="42.828554" lon="-.626761">
        <ele>1601.868</ele>
        <time>2020-09-05T11:05:33Z</time>
      </trkpt>
      <trkpt lat="42.828503" lon="-.626754">
        <ele>1602.114</ele>
        <time>2020-09-05T11:05:37Z</time>
      </trkpt>
      <trkpt lat="42.82846" lon="-.626737">
        <ele>1602.408</ele>
        <time>2020-09-05T11:05:41Z</time>
      </trkpt>
      <trkpt lat="42.828416" lon="-.626683">
        <ele>1602.887</ele>
        <time>2020-09-05T11:05:45Z</time>
      </trkpt>
      <trkpt lat="42.828375" lon="-.626651">
        <ele>1603.198</ele>
        <time>2020-09-05T11:05:49Z</time>
      </trkpt>
      <trkpt lat="42.828326" lon="-.626629">
        <ele>1603.594</ele>
        <time>2020-09-05T11:05:53Z</time>
      </trkpt>
      <trkpt lat="42.82828" lon="-.626598">
        <ele>1603.982</ele>
        <time>2020-09-05T11:05:57Z</time>
      </trkpt>
      <trkpt lat="42.828239" lon="-.626568">
        <ele>1604.163</ele>
        <time>2020-09-05T11:06:01Z</time>
      </trkpt>
      <trkpt lat="42.828193" lon="-.626547">
        <ele>1603.980</ele>
        <time>2020-09-05T11:06:05Z</time>
      </trkpt>
      <trkpt lat="42.828142" lon="-.626542">
        <ele>1602.966</ele>
        <time>2020-09-05T11:06:11Z</time>
      </trkpt>
      <trkpt lat="42.828103" lon="-.626499">
        <ele>1601.826</ele>
        <time>2020-09-05T11:06:17Z</time>
      </trkpt>
      <trkpt lat="42.828062" lon="-.626449">
        <ele>1600.615</ele>
        <time>2020-09-05T11:06:21Z</time>
      </trkpt>
      <trkpt lat="42.82802" lon="-.62641">
        <ele>1599.265</ele>
        <time>2020-09-05T11:06:26Z</time>
      </trkpt>
      <trkpt lat="42.827975" lon="-.62638">
        <ele>1598.311</ele>
        <time>2020-09-05T11:06:30Z</time>
      </trkpt>
      <trkpt lat="42.827931" lon="-.626346">
        <ele>1597.808</ele>
        <time>2020-09-05T11:06:34Z</time>
      </trkpt>
      <trkpt lat="42.827887" lon="-.626322">
        <ele>1596.926</ele>
        <time>2020-09-05T11:06:39Z</time>
      </trkpt>
      <trkpt lat="42.827841" lon="-.626329">
        <ele>1595.657</ele>
        <time>2020-09-05T11:06:44Z</time>
      </trkpt>
      <trkpt lat="42.827797" lon="-.626355">
        <ele>1593.993</ele>
        <time>2020-09-05T11:06:50Z</time>
      </trkpt>
      <trkpt lat="42.827753" lon="-.626382">
        <ele>1592.431</ele>
        <time>2020-09-05T11:06:55Z</time>
      </trkpt>
      <trkpt lat="42.827709" lon="-.626398">
        <ele>1591.662</ele>
        <time>2020-09-05T11:06:59Z</time>
      </trkpt>
      <trkpt lat="42.827664" lon="-.626421">
        <ele>1591.189</ele>
        <time>2020-09-05T11:07:03Z</time>
      </trkpt>
      <trkpt lat="42.827616" lon="-.62643">
        <ele>1591.085</ele>
        <time>2020-09-05T11:07:07Z</time>
      </trkpt>
      <trkpt lat="42.827568" lon="-.62644">
        <ele>1591.315</ele>
        <time>2020-09-05T11:07:11Z</time>
      </trkpt>
      <trkpt lat="42.827521" lon="-.626447">
        <ele>1591.889</ele>
        <time>2020-09-05T11:07:15Z</time>
      </trkpt>
      <trkpt lat="42.827482" lon="-.62648">
        <ele>1592.406</ele>
        <time>2020-09-05T11:07:22Z</time>
      </trkpt>
      <trkpt lat="42.827453" lon="-.626415">
        <ele>1594.826</ele>
        <time>2020-09-05T11:08:06Z</time>
      </trkpt>
      <trkpt lat="42.827408" lon="-.626425">
        <ele>1594.508</ele>
        <time>2020-09-05T11:09:26Z</time>
      </trkpt>
      <trkpt lat="42.827357" lon="-.62645">
        <ele>1594.053</ele>
        <time>2020-09-05T11:09:31Z</time>
      </trkpt>
      <trkpt lat="42.827319" lon="-.626485">
        <ele>1593.624</ele>
        <time>2020-09-05T11:09:35Z</time>
      </trkpt>
      <trkpt lat="42.827277" lon="-.626517">
        <ele>1593.330</ele>
        <time>2020-09-05T11:09:38Z</time>
      </trkpt>
      <trkpt lat="42.827233" lon="-.626544">
        <ele>1593.228</ele>
        <time>2020-09-05T11:09:42Z</time>
      </trkpt>
      <trkpt lat="42.827188" lon="-.626561">
        <ele>1593.219</ele>
        <time>2020-09-05T11:09:45Z</time>
      </trkpt>
      <trkpt lat="42.827137" lon="-.626541">
        <ele>1593.226</ele>
        <time>2020-09-05T11:09:49Z</time>
      </trkpt>
      <trkpt lat="42.827089" lon="-.626525">
        <ele>1593.322</ele>
        <time>2020-09-05T11:09:52Z</time>
      </trkpt>
      <trkpt lat="42.827047" lon="-.626497">
        <ele>1593.772</ele>
        <time>2020-09-05T11:09:57Z</time>
      </trkpt>
      <trkpt lat="42.827002" lon="-.626488">
        <ele>1594.016</ele>
        <time>2020-09-05T11:10:02Z</time>
      </trkpt>
      <trkpt lat="42.826953" lon="-.626461">
        <ele>1594.276</ele>
        <time>2020-09-05T11:10:06Z</time>
      </trkpt>
      <trkpt lat="42.82691" lon="-.626435">
        <ele>1594.513</ele>
        <time>2020-09-05T11:10:10Z</time>
      </trkpt>
      <trkpt lat="42.826874" lon="-.626396">
        <ele>1594.808</ele>
        <time>2020-09-05T11:10:15Z</time>
      </trkpt>
      <trkpt lat="42.826837" lon="-.626346">
        <ele>1594.936</ele>
        <time>2020-09-05T11:10:20Z</time>
      </trkpt>
      <trkpt lat="42.8268" lon="-.626295">
        <ele>1595.047</ele>
        <time>2020-09-05T11:10:24Z</time>
      </trkpt>
      <trkpt lat="42.826751" lon="-.626267">
        <ele>1595.093</ele>
        <time>2020-09-05T11:10:29Z</time>
      </trkpt>
      <trkpt lat="42.826709" lon="-.626239">
        <ele>1595.091</ele>
        <time>2020-09-05T11:10:33Z</time>
      </trkpt>
      <trkpt lat="42.826664" lon="-.626212">
        <ele>1594.942</ele>
        <time>2020-09-05T11:10:38Z</time>
      </trkpt>
      <trkpt lat="42.82663" lon="-.626166">
        <ele>1594.849</ele>
        <time>2020-09-05T11:10:44Z</time>
      </trkpt>
      <trkpt lat="42.826597" lon="-.626121">
        <ele>1594.835</ele>
        <time>2020-09-05T11:10:49Z</time>
      </trkpt>
      <trkpt lat="42.826556" lon="-.626081">
        <ele>1594.845</ele>
        <time>2020-09-05T11:10:54Z</time>
      </trkpt>
      <trkpt lat="42.826514" lon="-.626047">
        <ele>1594.971</ele>
        <time>2020-09-05T11:10:58Z</time>
      </trkpt>
      <trkpt lat="42.826476" lon="-.626013">
        <ele>1595.041</ele>
        <time>2020-09-05T11:11:01Z</time>
      </trkpt>
      <trkpt lat="42.826431" lon="-.625974">
        <ele>1595.315</ele>
        <time>2020-09-05T11:11:05Z</time>
      </trkpt>
      <trkpt lat="42.826389" lon="-.625931">
        <ele>1595.608</ele>
        <time>2020-09-05T11:11:09Z</time>
      </trkpt>
      <trkpt lat="42.826352" lon="-.625895">
        <ele>1595.792</ele>
        <time>2020-09-05T11:11:14Z</time>
      </trkpt>
      <trkpt lat="42.82631" lon="-.625869">
        <ele>1595.693</ele>
        <time>2020-09-05T11:11:20Z</time>
      </trkpt>
      <trkpt lat="42.826258" lon="-.625864">
        <ele>1595.259</ele>
        <time>2020-09-05T11:11:26Z</time>
      </trkpt>
      <trkpt lat="42.82621" lon="-.625886">
        <ele>1594.877</ele>
        <time>2020-09-05T11:11:31Z</time>
      </trkpt>
      <trkpt lat="42.826163" lon="-.625905">
        <ele>1594.548</ele>
        <time>2020-09-05T11:11:35Z</time>
      </trkpt>
      <trkpt lat="42.826111" lon="-.625908">
        <ele>1594.155</ele>
        <time>2020-09-05T11:11:39Z</time>
      </trkpt>
      <trkpt lat="42.826067" lon="-.625925">
        <ele>1593.711</ele>
        <time>2020-09-05T11:11:44Z</time>
      </trkpt>
      <trkpt lat="42.826014" lon="-.62591">
        <ele>1593.691</ele>
        <time>2020-09-05T11:11:50Z</time>
      </trkpt>
      <trkpt lat="42.825965" lon="-.625882">
        <ele>1593.463</ele>
        <time>2020-09-05T11:11:53Z</time>
      </trkpt>
      <trkpt lat="42.825925" lon="-.625854">
        <ele>1593.244</ele>
        <time>2020-09-05T11:11:57Z</time>
      </trkpt>
      <trkpt lat="42.825884" lon="-.625828">
        <ele>1592.818</ele>
        <time>2020-09-05T11:12:01Z</time>
      </trkpt>
      <trkpt lat="42.825837" lon="-.625825">
        <ele>1592.108</ele>
        <time>2020-09-05T11:12:07Z</time>
      </trkpt>
      <trkpt lat="42.825787" lon="-.625813">
        <ele>1591.541</ele>
        <time>2020-09-05T11:12:12Z</time>
      </trkpt>
      <trkpt lat="42.825738" lon="-.625783">
        <ele>1590.742</ele>
        <time>2020-09-05T11:12:16Z</time>
      </trkpt>
      <trkpt lat="42.825689" lon="-.625765">
        <ele>1589.828</ele>
        <time>2020-09-05T11:12:20Z</time>
      </trkpt>
      <trkpt lat="42.825645" lon="-.625735">
        <ele>1588.866</ele>
        <time>2020-09-05T11:12:25Z</time>
      </trkpt>
      <trkpt lat="42.825596" lon="-.625706">
        <ele>1587.657</ele>
        <time>2020-09-05T11:12:29Z</time>
      </trkpt>
      <trkpt lat="42.825549" lon="-.625682">
        <ele>1586.584</ele>
        <time>2020-09-05T11:12:33Z</time>
      </trkpt>
      <trkpt lat="42.825504" lon="-.625671">
        <ele>1585.390</ele>
        <time>2020-09-05T11:12:37Z</time>
      </trkpt>
      <trkpt lat="42.825462" lon="-.625648">
        <ele>1584.280</ele>
        <time>2020-09-05T11:12:40Z</time>
      </trkpt>
      <trkpt lat="42.825423" lon="-.625615">
        <ele>1583.249</ele>
        <time>2020-09-05T11:12:45Z</time>
      </trkpt>
      <trkpt lat="42.82538" lon="-.625579">
        <ele>1581.902</ele>
        <time>2020-09-05T11:12:50Z</time>
      </trkpt>
      <trkpt lat="42.825329" lon="-.625559">
        <ele>1580.822</ele>
        <time>2020-09-05T11:12:55Z</time>
      </trkpt>
      <trkpt lat="42.825279" lon="-.625549">
        <ele>1579.908</ele>
        <time>2020-09-05T11:13:00Z</time>
      </trkpt>
      <trkpt lat="42.825247" lon="-.625494">
        <ele>1579.059</ele>
        <time>2020-09-05T11:13:05Z</time>
      </trkpt>
      <trkpt lat="42.825217" lon="-.625444">
        <ele>1578.220</ele>
        <time>2020-09-05T11:13:09Z</time>
      </trkpt>
      <trkpt lat="42.825183" lon="-.625401">
        <ele>1577.556</ele>
        <time>2020-09-05T11:13:14Z</time>
      </trkpt>
      <trkpt lat="42.82514" lon="-.625363">
        <ele>1576.814</ele>
        <time>2020-09-05T11:13:17Z</time>
      </trkpt>
      <trkpt lat="42.825096" lon="-.625331">
        <ele>1576.215</ele>
        <time>2020-09-05T11:13:21Z</time>
      </trkpt>
      <trkpt lat="42.825051" lon="-.625305">
        <ele>1575.582</ele>
        <time>2020-09-05T11:13:24Z</time>
      </trkpt>
      <trkpt lat="42.825" lon="-.625289">
        <ele>1574.798</ele>
        <time>2020-09-05T11:13:29Z</time>
      </trkpt>
      <trkpt lat="42.824955" lon="-.625278">
        <ele>1573.868</ele>
        <time>2020-09-05T11:13:32Z</time>
      </trkpt>
      <trkpt lat="42.824908" lon="-.625262">
        <ele>1572.719</ele>
        <time>2020-09-05T11:13:37Z</time>
      </trkpt>
      <trkpt lat="42.824866" lon="-.625237">
        <ele>1571.809</ele>
        <time>2020-09-05T11:13:41Z</time>
      </trkpt>
      <trkpt lat="42.824823" lon="-.625205">
        <ele>1571.019</ele>
        <time>2020-09-05T11:13:45Z</time>
      </trkpt>
      <trkpt lat="42.824787" lon="-.625164">
        <ele>1570.308</ele>
        <time>2020-09-05T11:13:50Z</time>
      </trkpt>
      <trkpt lat="42.824745" lon="-.625131">
        <ele>1569.766</ele>
        <time>2020-09-05T11:13:54Z</time>
      </trkpt>
      <trkpt lat="42.824701" lon="-.625102">
        <ele>1569.377</ele>
        <time>2020-09-05T11:13:58Z</time>
      </trkpt>
      <trkpt lat="42.824658" lon="-.625063">
        <ele>1569.123</ele>
        <time>2020-09-05T11:14:02Z</time>
      </trkpt>
      <trkpt lat="42.824632" lon="-.625011">
        <ele>1569.661</ele>
        <time>2020-09-05T11:14:09Z</time>
      </trkpt>
      <trkpt lat="42.824586" lon="-.625009">
        <ele>1571.732</ele>
        <time>2020-09-05T11:14:33Z</time>
      </trkpt>
      <trkpt lat="42.824538" lon="-.624974">
        <ele>1573.349</ele>
        <time>2020-09-05T11:14:47Z</time>
      </trkpt>
      <trkpt lat="42.824495" lon="-.624931">
        <ele>1574.245</ele>
        <time>2020-09-05T11:14:52Z</time>
      </trkpt>
      <trkpt lat="42.824446" lon="-.624909">
        <ele>1574.665</ele>
        <time>2020-09-05T11:14:57Z</time>
      </trkpt>
      <trkpt lat="42.824402" lon="-.624887">
        <ele>1574.729</ele>
        <time>2020-09-05T11:15:01Z</time>
      </trkpt>
      <trkpt lat="42.824359" lon="-.62486">
        <ele>1574.700</ele>
        <time>2020-09-05T11:15:05Z</time>
      </trkpt>
      <trkpt lat="42.824316" lon="-.624832">
        <ele>1574.520</ele>
        <time>2020-09-05T11:15:09Z</time>
      </trkpt>
      <trkpt lat="42.824275" lon="-.624801">
        <ele>1574.208</ele>
        <time>2020-09-05T11:15:13Z</time>
      </trkpt>
      <trkpt lat="42.824233" lon="-.624772">
        <ele>1573.877</ele>
        <time>2020-09-05T11:15:18Z</time>
      </trkpt>
      <trkpt lat="42.824191" lon="-.624746">
        <ele>1573.668</ele>
        <time>2020-09-05T11:15:23Z</time>
      </trkpt>
      <trkpt lat="42.824144" lon="-.624714">
        <ele>1573.274</ele>
        <time>2020-09-05T11:15:27Z</time>
      </trkpt>
      <trkpt lat="42.824094" lon="-.624681">
        <ele>1573.182</ele>
        <time>2020-09-05T11:15:32Z</time>
      </trkpt>
      <trkpt lat="42.824049" lon="-.624692">
        <ele>1574.983</ele>
        <time>2020-09-05T11:15:39Z</time>
      </trkpt>
      <trkpt lat="42.823996" lon="-.624685">
        <ele>1575.960</ele>
        <time>2020-09-05T11:15:44Z</time>
      </trkpt>
      <trkpt lat="42.823955" lon="-.624649">
        <ele>1576.556</ele>
        <time>2020-09-05T11:15:48Z</time>
      </trkpt>
      <trkpt lat="42.823917" lon="-.624609">
        <ele>1576.646</ele>
        <time>2020-09-05T11:15:52Z</time>
      </trkpt>
      <trkpt lat="42.823874" lon="-.624578">
        <ele>1576.417</ele>
        <time>2020-09-05T11:15:56Z</time>
      </trkpt>
      <trkpt lat="42.823828" lon="-.624559">
        <ele>1575.987</ele>
        <time>2020-09-05T11:16:00Z</time>
      </trkpt>
      <trkpt lat="42.823783" lon="-.624545">
        <ele>1575.315</ele>
        <time>2020-09-05T11:16:04Z</time>
      </trkpt>
      <trkpt lat="42.823737" lon="-.624525">
        <ele>1574.908</ele>
        <time>2020-09-05T11:16:09Z</time>
      </trkpt>
      <trkpt lat="42.823691" lon="-.624515">
        <ele>1574.226</ele>
        <time>2020-09-05T11:16:14Z</time>
      </trkpt>
      <trkpt lat="42.823646" lon="-.624509">
        <ele>1573.647</ele>
        <time>2020-09-05T11:16:18Z</time>
      </trkpt>
      <trkpt lat="42.823597" lon="-.624493">
        <ele>1573.013</ele>
        <time>2020-09-05T11:16:25Z</time>
      </trkpt>
      <trkpt lat="42.823551" lon="-.624482">
        <ele>1572.521</ele>
        <time>2020-09-05T11:16:30Z</time>
      </trkpt>
      <trkpt lat="42.823503" lon="-.624459">
        <ele>1572.392</ele>
        <time>2020-09-05T11:16:34Z</time>
      </trkpt>
      <trkpt lat="42.823458" lon="-.624452">
        <ele>1572.149</ele>
        <time>2020-09-05T11:16:38Z</time>
      </trkpt>
      <trkpt lat="42.823408" lon="-.624455">
        <ele>1571.935</ele>
        <time>2020-09-05T11:16:42Z</time>
      </trkpt>
      <trkpt lat="42.823361" lon="-.62445">
        <ele>1571.765</ele>
        <time>2020-09-05T11:16:47Z</time>
      </trkpt>
      <trkpt lat="42.823312" lon="-.624446">
        <ele>1571.621</ele>
        <time>2020-09-05T11:16:51Z</time>
      </trkpt>
      <trkpt lat="42.823266" lon="-.624441">
        <ele>1571.541</ele>
        <time>2020-09-05T11:16:55Z</time>
      </trkpt>
      <trkpt lat="42.823218" lon="-.624444">
        <ele>1571.505</ele>
        <time>2020-09-05T11:16:59Z</time>
      </trkpt>
      <trkpt lat="42.823174" lon="-.62446">
        <ele>1571.608</ele>
        <time>2020-09-05T11:17:04Z</time>
      </trkpt>
      <trkpt lat="42.823129" lon="-.624488">
        <ele>1571.617</ele>
        <time>2020-09-05T11:17:10Z</time>
      </trkpt>
      <trkpt lat="42.823081" lon="-.624483">
        <ele>1571.278</ele>
        <time>2020-09-05T11:17:17Z</time>
      </trkpt>
      <trkpt lat="42.823031" lon="-.624482">
        <ele>1570.824</ele>
        <time>2020-09-05T11:17:22Z</time>
      </trkpt>
      <trkpt lat="42.822987" lon="-.624459">
        <ele>1570.522</ele>
        <time>2020-09-05T11:17:26Z</time>
      </trkpt>
      <trkpt lat="42.822941" lon="-.624436">
        <ele>1570.163</ele>
        <time>2020-09-05T11:17:31Z</time>
      </trkpt>
      <trkpt lat="42.822896" lon="-.62442">
        <ele>1569.860</ele>
        <time>2020-09-05T11:17:35Z</time>
      </trkpt>
      <trkpt lat="42.822847" lon="-.624419">
        <ele>1569.426</ele>
        <time>2020-09-05T11:17:40Z</time>
      </trkpt>
      <trkpt lat="42.822802" lon="-.624425">
        <ele>1569.066</ele>
        <time>2020-09-05T11:17:45Z</time>
      </trkpt>
      <trkpt lat="42.822762" lon="-.62446">
        <ele>1569.493</ele>
        <time>2020-09-05T11:17:57Z</time>
      </trkpt>
      <trkpt lat="42.822722" lon="-.624492">
        <ele>1569.765</ele>
        <time>2020-09-05T11:18:02Z</time>
      </trkpt>
      <trkpt lat="42.822676" lon="-.624528">
        <ele>1570.021</ele>
        <time>2020-09-05T11:18:07Z</time>
      </trkpt>
      <trkpt lat="42.822634" lon="-.624561">
        <ele>1570.308</ele>
        <time>2020-09-05T11:18:12Z</time>
      </trkpt>
      <trkpt lat="42.822588" lon="-.624569">
        <ele>1570.634</ele>
        <time>2020-09-05T11:18:17Z</time>
      </trkpt>
      <trkpt lat="42.822531" lon="-.624583">
        <ele>1570.985</ele>
        <time>2020-09-05T11:18:22Z</time>
      </trkpt>
      <trkpt lat="42.822483" lon="-.624587">
        <ele>1571.291</ele>
        <time>2020-09-05T11:18:25Z</time>
      </trkpt>
      <trkpt lat="42.822437" lon="-.624598">
        <ele>1571.679</ele>
        <time>2020-09-05T11:18:29Z</time>
      </trkpt>
      <trkpt lat="42.822389" lon="-.624604">
        <ele>1571.930</ele>
        <time>2020-09-05T11:18:33Z</time>
      </trkpt>
      <trkpt lat="42.822342" lon="-.624605">
        <ele>1572.247</ele>
        <time>2020-09-05T11:18:36Z</time>
      </trkpt>
      <trkpt lat="42.822294" lon="-.624607">
        <ele>1572.453</ele>
        <time>2020-09-05T11:18:40Z</time>
      </trkpt>
      <trkpt lat="42.822248" lon="-.624606">
        <ele>1572.793</ele>
        <time>2020-09-05T11:18:44Z</time>
      </trkpt>
      <trkpt lat="42.822197" lon="-.624604">
        <ele>1573.262</ele>
        <time>2020-09-05T11:18:48Z</time>
      </trkpt>
      <trkpt lat="42.822145" lon="-.624599">
        <ele>1573.783</ele>
        <time>2020-09-05T11:18:51Z</time>
      </trkpt>
      <trkpt lat="42.8221" lon="-.624591">
        <ele>1574.111</ele>
        <time>2020-09-05T11:18:54Z</time>
      </trkpt>
      <trkpt lat="42.822053" lon="-.624573">
        <ele>1574.608</ele>
        <time>2020-09-05T11:18:58Z</time>
      </trkpt>
      <trkpt lat="42.821992" lon="-.624577">
        <ele>1575.021</ele>
        <time>2020-09-05T11:19:03Z</time>
      </trkpt>
      <trkpt lat="42.821937" lon="-.624598">
        <ele>1575.452</ele>
        <time>2020-09-05T11:19:07Z</time>
      </trkpt>
      <trkpt lat="42.821896" lon="-.62463">
        <ele>1575.918</ele>
        <time>2020-09-05T11:19:11Z</time>
      </trkpt>
      <trkpt lat="42.821841" lon="-.624632">
        <ele>1576.436</ele>
        <time>2020-09-05T11:19:16Z</time>
      </trkpt>
      <trkpt lat="42.821804" lon="-.624676">
        <ele>1577.427</ele>
        <time>2020-09-05T11:19:26Z</time>
      </trkpt>
      <trkpt lat="42.821767" lon="-.624714">
        <ele>1578.264</ele>
        <time>2020-09-05T11:19:31Z</time>
      </trkpt>
      <trkpt lat="42.821717" lon="-.62474">
        <ele>1578.990</ele>
        <time>2020-09-05T11:19:36Z</time>
      </trkpt>
      <trkpt lat="42.821673" lon="-.624764">
        <ele>1579.430</ele>
        <time>2020-09-05T11:19:40Z</time>
      </trkpt>
      <trkpt lat="42.821627" lon="-.624772">
        <ele>1579.834</ele>
        <time>2020-09-05T11:19:44Z</time>
      </trkpt>
      <trkpt lat="42.821575" lon="-.624775">
        <ele>1580.155</ele>
        <time>2020-09-05T11:19:49Z</time>
      </trkpt>
      <trkpt lat="42.821529" lon="-.624785">
        <ele>1580.310</ele>
        <time>2020-09-05T11:19:52Z</time>
      </trkpt>
      <trkpt lat="42.821484" lon="-.624796">
        <ele>1580.408</ele>
        <time>2020-09-05T11:19:55Z</time>
      </trkpt>
      <trkpt lat="42.821432" lon="-.624797">
        <ele>1580.418</ele>
        <time>2020-09-05T11:19:59Z</time>
      </trkpt>
      <trkpt lat="42.821381" lon="-.62481">
        <ele>1580.419</ele>
        <time>2020-09-05T11:20:04Z</time>
      </trkpt>
      <trkpt lat="42.821338" lon="-.624833">
        <ele>1580.555</ele>
        <time>2020-09-05T11:20:08Z</time>
      </trkpt>
      <trkpt lat="42.821293" lon="-.624827">
        <ele>1580.523</ele>
        <time>2020-09-05T11:20:12Z</time>
      </trkpt>
      <trkpt lat="42.821244" lon="-.624825">
        <ele>1580.534</ele>
        <time>2020-09-05T11:20:16Z</time>
      </trkpt>
      <trkpt lat="42.821212" lon="-.624871">
        <ele>1580.731</ele>
        <time>2020-09-05T11:20:20Z</time>
      </trkpt>
      <trkpt lat="42.821199" lon="-.624934">
        <ele>1581.027</ele>
        <time>2020-09-05T11:20:24Z</time>
      </trkpt>
      <trkpt lat="42.821154" lon="-.624949">
        <ele>1581.487</ele>
        <time>2020-09-05T11:20:35Z</time>
      </trkpt>
      <trkpt lat="42.821113" lon="-.624915">
        <ele>1581.749</ele>
        <time>2020-09-05T11:20:39Z</time>
      </trkpt>
      <trkpt lat="42.82107" lon="-.624894">
        <ele>1581.902</ele>
        <time>2020-09-05T11:20:43Z</time>
      </trkpt>
      <trkpt lat="42.821023" lon="-.624879">
        <ele>1581.922</ele>
        <time>2020-09-05T11:20:47Z</time>
      </trkpt>
      <trkpt lat="42.82098" lon="-.624855">
        <ele>1582.108</ele>
        <time>2020-09-05T11:20:52Z</time>
      </trkpt>
      <trkpt lat="42.820932" lon="-.624842">
        <ele>1582.449</ele>
        <time>2020-09-05T11:20:57Z</time>
      </trkpt>
      <trkpt lat="42.820887" lon="-.624859">
        <ele>1582.830</ele>
        <time>2020-09-05T11:21:02Z</time>
      </trkpt>
      <trkpt lat="42.820839" lon="-.624859">
        <ele>1582.516</ele>
        <time>2020-09-05T11:21:38Z</time>
      </trkpt>
      <trkpt lat="42.820781" lon="-.624844">
        <ele>1582.264</ele>
        <time>2020-09-05T11:21:43Z</time>
      </trkpt>
      <trkpt lat="42.820729" lon="-.624843">
        <ele>1581.825</ele>
        <time>2020-09-05T11:21:46Z</time>
      </trkpt>
      <trkpt lat="42.820684" lon="-.624854">
        <ele>1581.452</ele>
        <time>2020-09-05T11:21:50Z</time>
      </trkpt>
      <trkpt lat="42.820636" lon="-.624852">
        <ele>1581.238</ele>
        <time>2020-09-05T11:21:55Z</time>
      </trkpt>
      <trkpt lat="42.820583" lon="-.624851">
        <ele>1580.828</ele>
        <time>2020-09-05T11:22:00Z</time>
      </trkpt>
      <trkpt lat="42.820538" lon="-.624842">
        <ele>1580.757</ele>
        <time>2020-09-05T11:22:14Z</time>
      </trkpt>
      <trkpt lat="42.820491" lon="-.624838">
        <ele>1580.600</ele>
        <time>2020-09-05T11:22:20Z</time>
      </trkpt>
      <trkpt lat="42.820446" lon="-.624859">
        <ele>1580.620</ele>
        <time>2020-09-05T11:22:26Z</time>
      </trkpt>
      <trkpt lat="42.820399" lon="-.624858">
        <ele>1580.808</ele>
        <time>2020-09-05T11:22:32Z</time>
      </trkpt>
      <trkpt lat="42.820363" lon="-.62482">
        <ele>1581.050</ele>
        <time>2020-09-05T11:22:38Z</time>
      </trkpt>
      <trkpt lat="42.820329" lon="-.624779">
        <ele>1581.351</ele>
        <time>2020-09-05T11:22:49Z</time>
      </trkpt>
      <trkpt lat="42.820282" lon="-.624763">
        <ele>1581.767</ele>
        <time>2020-09-05T11:23:04Z</time>
      </trkpt>
      <trkpt lat="42.820239" lon="-.624724">
        <ele>1581.935</ele>
        <time>2020-09-05T11:23:09Z</time>
      </trkpt>
      <trkpt lat="42.820204" lon="-.624682">
        <ele>1582.046</ele>
        <time>2020-09-05T11:23:12Z</time>
      </trkpt>
      <trkpt lat="42.820175" lon="-.624626">
        <ele>1582.143</ele>
        <time>2020-09-05T11:23:18Z</time>
      </trkpt>
      <trkpt lat="42.820157" lon="-.624563">
        <ele>1582.299</ele>
        <time>2020-09-05T11:23:24Z</time>
      </trkpt>
      <trkpt lat="42.820137" lon="-.624507">
        <ele>1582.839</ele>
        <time>2020-09-05T11:23:35Z</time>
      </trkpt>
      <trkpt lat="42.820102" lon="-.624458">
        <ele>1583.463</ele>
        <time>2020-09-05T11:23:40Z</time>
      </trkpt>
      <trkpt lat="42.820084" lon="-.624395">
        <ele>1583.944</ele>
        <time>2020-09-05T11:23:45Z</time>
      </trkpt>
      <trkpt lat="42.820081" lon="-.624328">
        <ele>1584.518</ele>
        <time>2020-09-05T11:23:50Z</time>
      </trkpt>
      <trkpt lat="42.820054" lon="-.624262">
        <ele>1585.208</ele>
        <time>2020-09-05T11:23:58Z</time>
      </trkpt>
      <trkpt lat="42.820021" lon="-.624206">
        <ele>1585.851</ele>
        <time>2020-09-05T11:24:03Z</time>
      </trkpt>
      <trkpt lat="42.819976" lon="-.624175">
        <ele>1586.382</ele>
        <time>2020-09-05T11:24:07Z</time>
      </trkpt>
      <trkpt lat="42.819923" lon="-.624166">
        <ele>1586.538</ele>
        <time>2020-09-05T11:24:11Z</time>
      </trkpt>
      <trkpt lat="42.819874" lon="-.624146">
        <ele>1586.856</ele>
        <time>2020-09-05T11:24:15Z</time>
      </trkpt>
      <trkpt lat="42.819826" lon="-.624132">
        <ele>1587.097</ele>
        <time>2020-09-05T11:24:19Z</time>
      </trkpt>
      <trkpt lat="42.819779" lon="-.62413">
        <ele>1587.184</ele>
        <time>2020-09-05T11:24:23Z</time>
      </trkpt>
      <trkpt lat="42.819725" lon="-.624109">
        <ele>1587.320</ele>
        <time>2020-09-05T11:24:29Z</time>
      </trkpt>
      <trkpt lat="42.819681" lon="-.624092">
        <ele>1587.460</ele>
        <time>2020-09-05T11:24:34Z</time>
      </trkpt>
      <trkpt lat="42.819641" lon="-.624055">
        <ele>1587.698</ele>
        <time>2020-09-05T11:24:40Z</time>
      </trkpt>
      <trkpt lat="42.819597" lon="-.624031">
        <ele>1588.015</ele>
        <time>2020-09-05T11:24:44Z</time>
      </trkpt>
      <trkpt lat="42.819547" lon="-.624031">
        <ele>1588.326</ele>
        <time>2020-09-05T11:24:48Z</time>
      </trkpt>
      <trkpt lat="42.819497" lon="-.624045">
        <ele>1589.008</ele>
        <time>2020-09-05T11:24:52Z</time>
      </trkpt>
      <trkpt lat="42.819448" lon="-.62405">
        <ele>1589.844</ele>
        <time>2020-09-05T11:24:56Z</time>
      </trkpt>
      <trkpt lat="42.819403" lon="-.624046">
        <ele>1590.885</ele>
        <time>2020-09-05T11:24:59Z</time>
      </trkpt>
      <trkpt lat="42.819357" lon="-.624057">
        <ele>1591.751</ele>
        <time>2020-09-05T11:25:02Z</time>
      </trkpt>
      <trkpt lat="42.819311" lon="-.624064">
        <ele>1592.559</ele>
        <time>2020-09-05T11:25:06Z</time>
      </trkpt>
      <trkpt lat="42.819258" lon="-.624058">
        <ele>1593.040</ele>
        <time>2020-09-05T11:25:10Z</time>
      </trkpt>
      <trkpt lat="42.819208" lon="-.624037">
        <ele>1593.627</ele>
        <time>2020-09-05T11:25:14Z</time>
      </trkpt>
      <trkpt lat="42.819162" lon="-.624031">
        <ele>1594.153</ele>
        <time>2020-09-05T11:25:17Z</time>
      </trkpt>
      <trkpt lat="42.819114" lon="-.624036">
        <ele>1594.833</ele>
        <time>2020-09-05T11:25:21Z</time>
      </trkpt>
      <trkpt lat="42.819064" lon="-.624031">
        <ele>1595.335</ele>
        <time>2020-09-05T11:25:25Z</time>
      </trkpt>
      <trkpt lat="42.819016" lon="-.624024">
        <ele>1595.886</ele>
        <time>2020-09-05T11:25:28Z</time>
      </trkpt>
      <trkpt lat="42.818966" lon="-.624019">
        <ele>1596.714</ele>
        <time>2020-09-05T11:25:32Z</time>
      </trkpt>
      <trkpt lat="42.818916" lon="-.624012">
        <ele>1597.808</ele>
        <time>2020-09-05T11:25:35Z</time>
      </trkpt>
      <trkpt lat="42.818868" lon="-.624006">
        <ele>1598.948</ele>
        <time>2020-09-05T11:25:38Z</time>
      </trkpt>
      <trkpt lat="42.818823" lon="-.624001">
        <ele>1599.999</ele>
        <time>2020-09-05T11:25:41Z</time>
      </trkpt>
      <trkpt lat="42.818775" lon="-.62399">
        <ele>1601.295</ele>
        <time>2020-09-05T11:25:45Z</time>
      </trkpt>
      <trkpt lat="42.818726" lon="-.623975">
        <ele>1602.563</ele>
        <time>2020-09-05T11:25:49Z</time>
      </trkpt>
      <trkpt lat="42.818674" lon="-.623967">
        <ele>1603.834</ele>
        <time>2020-09-05T11:25:53Z</time>
      </trkpt>
      <trkpt lat="42.818626" lon="-.623961">
        <ele>1605.391</ele>
        <time>2020-09-05T11:25:56Z</time>
      </trkpt>
      <trkpt lat="42.81858" lon="-.62396">
        <ele>1606.747</ele>
        <time>2020-09-05T11:26:00Z</time>
      </trkpt>
      <trkpt lat="42.818532" lon="-.623961">
        <ele>1607.917</ele>
        <time>2020-09-05T11:26:03Z</time>
      </trkpt>
      <trkpt lat="42.818485" lon="-.623963">
        <ele>1609.316</ele>
        <time>2020-09-05T11:26:07Z</time>
      </trkpt>
      <trkpt lat="42.818434" lon="-.623967">
        <ele>1610.576</ele>
        <time>2020-09-05T11:26:10Z</time>
      </trkpt>
      <trkpt lat="42.818388" lon="-.623974">
        <ele>1611.513</ele>
        <time>2020-09-05T11:26:14Z</time>
      </trkpt>
      <trkpt lat="42.818338" lon="-.623975">
        <ele>1613.008</ele>
        <time>2020-09-05T11:26:18Z</time>
      </trkpt>
      <trkpt lat="42.818289" lon="-.623969">
        <ele>1614.516</ele>
        <time>2020-09-05T11:26:22Z</time>
      </trkpt>
      <trkpt lat="42.818237" lon="-.623957">
        <ele>1616.177</ele>
        <time>2020-09-05T11:26:26Z</time>
      </trkpt>
      <trkpt lat="42.818189" lon="-.623945">
        <ele>1617.823</ele>
        <time>2020-09-05T11:26:30Z</time>
      </trkpt>
      <trkpt lat="42.818133" lon="-.623941">
        <ele>1619.471</ele>
        <time>2020-09-05T11:26:35Z</time>
      </trkpt>
      <trkpt lat="42.818082" lon="-.62394">
        <ele>1620.752</ele>
        <time>2020-09-05T11:26:39Z</time>
      </trkpt>
      <trkpt lat="42.818032" lon="-.623929">
        <ele>1621.669</ele>
        <time>2020-09-05T11:26:43Z</time>
      </trkpt>
      <trkpt lat="42.817983" lon="-.623908">
        <ele>1622.495</ele>
        <time>2020-09-05T11:26:46Z</time>
      </trkpt>
      <trkpt lat="42.817939" lon="-.623879">
        <ele>1623.145</ele>
        <time>2020-09-05T11:26:51Z</time>
      </trkpt>
      <trkpt lat="42.817889" lon="-.623862">
        <ele>1623.548</ele>
        <time>2020-09-05T11:26:55Z</time>
      </trkpt>
      <trkpt lat="42.817841" lon="-.623843">
        <ele>1623.861</ele>
        <time>2020-09-05T11:27:00Z</time>
      </trkpt>
      <trkpt lat="42.8178" lon="-.623817">
        <ele>1624.017</ele>
        <time>2020-09-05T11:27:03Z</time>
      </trkpt>
      <trkpt lat="42.817745" lon="-.623786">
        <ele>1623.908</ele>
        <time>2020-09-05T11:27:07Z</time>
      </trkpt>
      <trkpt lat="42.817698" lon="-.623755">
        <ele>1623.999</ele>
        <time>2020-09-05T11:27:11Z</time>
      </trkpt>
      <trkpt lat="42.817652" lon="-.62373">
        <ele>1623.690</ele>
        <time>2020-09-05T11:27:15Z</time>
      </trkpt>
      <trkpt lat="42.817609" lon="-.623748">
        <ele>1622.926</ele>
        <time>2020-09-05T11:27:20Z</time>
      </trkpt>
      <trkpt lat="42.817567" lon="-.623724">
        <ele>1622.174</ele>
        <time>2020-09-05T11:27:26Z</time>
      </trkpt>
      <trkpt lat="42.817546" lon="-.623666">
        <ele>1621.475</ele>
        <time>2020-09-05T11:27:31Z</time>
      </trkpt>
      <trkpt lat="42.817506" lon="-.623616">
        <ele>1621.072</ele>
        <time>2020-09-05T11:27:36Z</time>
      </trkpt>
      <trkpt lat="42.817463" lon="-.623581">
        <ele>1620.628</ele>
        <time>2020-09-05T11:27:40Z</time>
      </trkpt>
      <trkpt lat="42.817421" lon="-.623554">
        <ele>1620.238</ele>
        <time>2020-09-05T11:27:43Z</time>
      </trkpt>
      <trkpt lat="42.817378" lon="-.623513">
        <ele>1619.838</ele>
        <time>2020-09-05T11:27:47Z</time>
      </trkpt>
      <trkpt lat="42.817334" lon="-.623483">
        <ele>1619.770</ele>
        <time>2020-09-05T11:27:50Z</time>
      </trkpt>
      <trkpt lat="42.817279" lon="-.623449">
        <ele>1619.517</ele>
        <time>2020-09-05T11:27:54Z</time>
      </trkpt>
      <trkpt lat="42.817233" lon="-.623422">
        <ele>1619.408</ele>
        <time>2020-09-05T11:27:58Z</time>
      </trkpt>
      <trkpt lat="42.817185" lon="-.623401">
        <ele>1619.458</ele>
        <time>2020-09-05T11:28:03Z</time>
      </trkpt>
      <trkpt lat="42.81714" lon="-.623388">
        <ele>1619.219</ele>
        <time>2020-09-05T11:28:07Z</time>
      </trkpt>
      <trkpt lat="42.817105" lon="-.623347">
        <ele>1618.535</ele>
        <time>2020-09-05T11:28:25Z</time>
      </trkpt>
      <trkpt lat="42.817058" lon="-.623329">
        <ele>1617.833</ele>
        <time>2020-09-05T11:28:29Z</time>
      </trkpt>
      <trkpt lat="42.81701" lon="-.623316">
        <ele>1617.374</ele>
        <time>2020-09-05T11:28:33Z</time>
      </trkpt>
      <trkpt lat="42.816958" lon="-.623295">
        <ele>1616.991</ele>
        <time>2020-09-05T11:28:37Z</time>
      </trkpt>
      <trkpt lat="42.816911" lon="-.623275">
        <ele>1616.587</ele>
        <time>2020-09-05T11:28:40Z</time>
      </trkpt>
      <trkpt lat="42.816863" lon="-.623252">
        <ele>1616.387</ele>
        <time>2020-09-05T11:28:44Z</time>
      </trkpt>
      <trkpt lat="42.816816" lon="-.623233">
        <ele>1616.253</ele>
        <time>2020-09-05T11:28:47Z</time>
      </trkpt>
      <trkpt lat="42.816767" lon="-.623228">
        <ele>1616.104</ele>
        <time>2020-09-05T11:28:51Z</time>
      </trkpt>
      <trkpt lat="42.81672" lon="-.623206">
        <ele>1616.014</ele>
        <time>2020-09-05T11:28:56Z</time>
      </trkpt>
      <trkpt lat="42.816672" lon="-.623203">
        <ele>1616.108</ele>
        <time>2020-09-05T11:29:01Z</time>
      </trkpt>
      <trkpt lat="42.816622" lon="-.623205">
        <ele>1616.310</ele>
        <time>2020-09-05T11:29:06Z</time>
      </trkpt>
      <trkpt lat="42.816567" lon="-.623212">
        <ele>1616.461</ele>
        <time>2020-09-05T11:29:11Z</time>
      </trkpt>
      <trkpt lat="42.81652" lon="-.623202">
        <ele>1616.717</ele>
        <time>2020-09-05T11:29:24Z</time>
      </trkpt>
      <trkpt lat="42.816474" lon="-.62317">
        <ele>1618.875</ele>
        <time>2020-09-05T11:31:03Z</time>
      </trkpt>
      <trkpt lat="42.816429" lon="-.62314">
        <ele>1620.096</ele>
        <time>2020-09-05T11:31:12Z</time>
      </trkpt>
      <trkpt lat="42.816377" lon="-.623115">
        <ele>1620.623</ele>
        <time>2020-09-05T11:31:16Z</time>
      </trkpt>
      <trkpt lat="42.816332" lon="-.623089">
        <ele>1620.989</ele>
        <time>2020-09-05T11:31:19Z</time>
      </trkpt>
      <trkpt lat="42.816276" lon="-.623068">
        <ele>1620.949</ele>
        <time>2020-09-05T11:31:22Z</time>
      </trkpt>
      <trkpt lat="42.816231" lon="-.623057">
        <ele>1620.852</ele>
        <time>2020-09-05T11:31:25Z</time>
      </trkpt>
      <trkpt lat="42.816189" lon="-.623031">
        <ele>1620.653</ele>
        <time>2020-09-05T11:31:29Z</time>
      </trkpt>
      <trkpt lat="42.81615" lon="-.622985">
        <ele>1620.408</ele>
        <time>2020-09-05T11:31:35Z</time>
      </trkpt>
      <trkpt lat="42.816111" lon="-.62295">
        <ele>1620.308</ele>
        <time>2020-09-05T11:31:38Z</time>
      </trkpt>
      <trkpt lat="42.816071" lon="-.622916">
        <ele>1620.210</ele>
        <time>2020-09-05T11:31:41Z</time>
      </trkpt>
      <trkpt lat="42.816029" lon="-.622884">
        <ele>1620.161</ele>
        <time>2020-09-05T11:31:45Z</time>
      </trkpt>
      <trkpt lat="42.815988" lon="-.622854">
        <ele>1620.127</ele>
        <time>2020-09-05T11:31:49Z</time>
      </trkpt>
      <trkpt lat="42.815937" lon="-.622823">
        <ele>1620.065</ele>
        <time>2020-09-05T11:31:53Z</time>
      </trkpt>
      <trkpt lat="42.815893" lon="-.622798">
        <ele>1620.056</ele>
        <time>2020-09-05T11:31:57Z</time>
      </trkpt>
      <trkpt lat="42.815846" lon="-.622794">
        <ele>1620.063</ele>
        <time>2020-09-05T11:32:03Z</time>
      </trkpt>
      <trkpt lat="42.815794" lon="-.622802">
        <ele>1619.999</ele>
        <time>2020-09-05T11:32:06Z</time>
      </trkpt>
      <trkpt lat="42.815745" lon="-.622814">
        <ele>1619.839</ele>
        <time>2020-09-05T11:32:10Z</time>
      </trkpt>
      <trkpt lat="42.815694" lon="-.622818">
        <ele>1619.837</ele>
        <time>2020-09-05T11:32:13Z</time>
      </trkpt>
      <trkpt lat="42.815648" lon="-.622824">
        <ele>1619.949</ele>
        <time>2020-09-05T11:32:17Z</time>
      </trkpt>
      <trkpt lat="42.815597" lon="-.622832">
        <ele>1620.013</ele>
        <time>2020-09-05T11:32:21Z</time>
      </trkpt>
      <trkpt lat="42.815557" lon="-.622861">
        <ele>1620.208</ele>
        <time>2020-09-05T11:32:25Z</time>
      </trkpt>
      <trkpt lat="42.815518" lon="-.622896">
        <ele>1620.448</ele>
        <time>2020-09-05T11:32:29Z</time>
      </trkpt>
      <trkpt lat="42.815469" lon="-.62292">
        <ele>1620.699</ele>
        <time>2020-09-05T11:32:33Z</time>
      </trkpt>
      <trkpt lat="42.815419" lon="-.622934">
        <ele>1620.975</ele>
        <time>2020-09-05T11:32:37Z</time>
      </trkpt>
      <trkpt lat="42.815373" lon="-.622933">
        <ele>1621.123</ele>
        <time>2020-09-05T11:32:40Z</time>
      </trkpt>
      <trkpt lat="42.815327" lon="-.622916">
        <ele>1621.144</ele>
        <time>2020-09-05T11:32:44Z</time>
      </trkpt>
      <trkpt lat="42.815282" lon="-.622902">
        <ele>1621.051</ele>
        <time>2020-09-05T11:32:48Z</time>
      </trkpt>
      <trkpt lat="42.815237" lon="-.622865">
        <ele>1620.737</ele>
        <time>2020-09-05T11:32:52Z</time>
      </trkpt>
      <trkpt lat="42.815189" lon="-.62284">
        <ele>1620.517</ele>
        <time>2020-09-05T11:32:55Z</time>
      </trkpt>
      <trkpt lat="42.815139" lon="-.622808">
        <ele>1620.312</ele>
        <time>2020-09-05T11:33:00Z</time>
      </trkpt>
      <trkpt lat="42.815094" lon="-.622796">
        <ele>1620.232</ele>
        <time>2020-09-05T11:33:04Z</time>
      </trkpt>
      <trkpt lat="42.815043" lon="-.622788">
        <ele>1620.205</ele>
        <time>2020-09-05T11:33:08Z</time>
      </trkpt>
      <trkpt lat="42.814997" lon="-.622772">
        <ele>1620.008</ele>
        <time>2020-09-05T11:33:11Z</time>
      </trkpt>
      <trkpt lat="42.814975" lon="-.62271">
        <ele>1619.826</ele>
        <time>2020-09-05T11:33:15Z</time>
      </trkpt>
      <trkpt lat="42.814929" lon="-.62268">
        <ele>1619.567</ele>
        <time>2020-09-05T11:33:19Z</time>
      </trkpt>
      <trkpt lat="42.814877" lon="-.62267">
        <ele>1619.053</ele>
        <time>2020-09-05T11:33:23Z</time>
      </trkpt>
      <trkpt lat="42.814832" lon="-.622667">
        <ele>1618.441</ele>
        <time>2020-09-05T11:33:26Z</time>
      </trkpt>
      <trkpt lat="42.81478" lon="-.62267">
        <ele>1617.912</ele>
        <time>2020-09-05T11:33:31Z</time>
      </trkpt>
      <trkpt lat="42.814734" lon="-.62267">
        <ele>1617.469</ele>
        <time>2020-09-05T11:33:42Z</time>
      </trkpt>
      <trkpt lat="42.814687" lon="-.622664">
        <ele>1617.235</ele>
        <time>2020-09-05T11:33:47Z</time>
      </trkpt>
      <trkpt lat="42.814639" lon="-.622668">
        <ele>1617.225</ele>
        <time>2020-09-05T11:33:52Z</time>
      </trkpt>
      <trkpt lat="42.814603" lon="-.622707">
        <ele>1618.152</ele>
        <time>2020-09-05T11:34:27Z</time>
      </trkpt>
      <trkpt lat="42.81455" lon="-.622713">
        <ele>1618.753</ele>
        <time>2020-09-05T11:34:31Z</time>
      </trkpt>
      <trkpt lat="42.814493" lon="-.62271">
        <ele>1619.108</ele>
        <time>2020-09-05T11:34:35Z</time>
      </trkpt>
      <trkpt lat="42.814444" lon="-.622707">
        <ele>1619.408</ele>
        <time>2020-09-05T11:34:39Z</time>
      </trkpt>
      <trkpt lat="42.814393" lon="-.622705">
        <ele>1619.570</ele>
        <time>2020-09-05T11:34:44Z</time>
      </trkpt>
      <trkpt lat="42.814348" lon="-.622708">
        <ele>1619.591</ele>
        <time>2020-09-05T11:34:47Z</time>
      </trkpt>
      <trkpt lat="42.814302" lon="-.622719">
        <ele>1619.517</ele>
        <time>2020-09-05T11:34:51Z</time>
      </trkpt>
      <trkpt lat="42.814256" lon="-.622729">
        <ele>1619.615</ele>
        <time>2020-09-05T11:34:55Z</time>
      </trkpt>
      <trkpt lat="42.814207" lon="-.622737">
        <ele>1619.686</ele>
        <time>2020-09-05T11:34:59Z</time>
      </trkpt>
      <trkpt lat="42.814152" lon="-.622747">
        <ele>1619.733</ele>
        <time>2020-09-05T11:35:03Z</time>
      </trkpt>
      <trkpt lat="42.814107" lon="-.62274">
        <ele>1619.999</ele>
        <time>2020-09-05T11:35:08Z</time>
      </trkpt>
      <trkpt lat="42.814059" lon="-.622732">
        <ele>1620.079</ele>
        <time>2020-09-05T11:35:12Z</time>
      </trkpt>
      <trkpt lat="42.814011" lon="-.622739">
        <ele>1620.147</ele>
        <time>2020-09-05T11:35:16Z</time>
      </trkpt>
      <trkpt lat="42.81396" lon="-.622744">
        <ele>1620.129</ele>
        <time>2020-09-05T11:35:21Z</time>
      </trkpt>
      <trkpt lat="42.81391" lon="-.62274">
        <ele>1620.121</ele>
        <time>2020-09-05T11:35:25Z</time>
      </trkpt>
      <trkpt lat="42.813863" lon="-.622737">
        <ele>1620.108</ele>
        <time>2020-09-05T11:35:29Z</time>
      </trkpt>
      <trkpt lat="42.813818" lon="-.622723">
        <ele>1620.359</ele>
        <time>2020-09-05T11:35:33Z</time>
      </trkpt>
      <trkpt lat="42.81377" lon="-.622708">
        <ele>1620.530</ele>
        <time>2020-09-05T11:35:37Z</time>
      </trkpt>
      <trkpt lat="42.813722" lon="-.622679">
        <ele>1620.836</ele>
        <time>2020-09-05T11:35:42Z</time>
      </trkpt>
      <trkpt lat="42.81368" lon="-.622649">
        <ele>1621.194</ele>
        <time>2020-09-05T11:35:45Z</time>
      </trkpt>
      <trkpt lat="42.813636" lon="-.6226">
        <ele>1622.075</ele>
        <time>2020-09-05T11:35:50Z</time>
      </trkpt>
      <trkpt lat="42.813605" lon="-.622539">
        <ele>1622.942</ele>
        <time>2020-09-05T11:35:54Z</time>
      </trkpt>
      <trkpt lat="42.813579" lon="-.622488">
        <ele>1623.768</ele>
        <time>2020-09-05T11:35:58Z</time>
      </trkpt>
      <trkpt lat="42.813538" lon="-.622444">
        <ele>1624.358</ele>
        <time>2020-09-05T11:36:02Z</time>
      </trkpt>
      <trkpt lat="42.813502" lon="-.622402">
        <ele>1624.976</ele>
        <time>2020-09-05T11:36:08Z</time>
      </trkpt>
      <trkpt lat="42.813475" lon="-.622353">
        <ele>1625.490</ele>
        <time>2020-09-05T11:36:12Z</time>
      </trkpt>
      <trkpt lat="42.813438" lon="-.62231">
        <ele>1625.719</ele>
        <time>2020-09-05T11:36:16Z</time>
      </trkpt>
      <trkpt lat="42.813407" lon="-.62226">
        <ele>1625.908</ele>
        <time>2020-09-05T11:36:19Z</time>
      </trkpt>
      <trkpt lat="42.813376" lon="-.622209">
        <ele>1625.822</ele>
        <time>2020-09-05T11:36:23Z</time>
      </trkpt>
      <trkpt lat="42.813347" lon="-.622159">
        <ele>1625.663</ele>
        <time>2020-09-05T11:36:27Z</time>
      </trkpt>
      <trkpt lat="42.813318" lon="-.622106">
        <ele>1625.439</ele>
        <time>2020-09-05T11:36:31Z</time>
      </trkpt>
      <trkpt lat="42.813287" lon="-.622043">
        <ele>1625.157</ele>
        <time>2020-09-05T11:36:36Z</time>
      </trkpt>
      <trkpt lat="42.813262" lon="-.621987">
        <ele>1624.638</ele>
        <time>2020-09-05T11:36:40Z</time>
      </trkpt>
      <trkpt lat="42.813234" lon="-.621935">
        <ele>1624.345</ele>
        <time>2020-09-05T11:36:44Z</time>
      </trkpt>
      <trkpt lat="42.813207" lon="-.621881">
        <ele>1623.961</ele>
        <time>2020-09-05T11:36:47Z</time>
      </trkpt>
      <trkpt lat="42.81318" lon="-.621828">
        <ele>1623.521</ele>
        <time>2020-09-05T11:36:52Z</time>
      </trkpt>
      <trkpt lat="42.81315" lon="-.62178">
        <ele>1623.198</ele>
        <time>2020-09-05T11:36:56Z</time>
      </trkpt>
      <trkpt lat="42.813114" lon="-.621739">
        <ele>1622.715</ele>
        <time>2020-09-05T11:37:00Z</time>
      </trkpt>
      <trkpt lat="42.813075" lon="-.621702">
        <ele>1622.426</ele>
        <time>2020-09-05T11:37:03Z</time>
      </trkpt>
      <trkpt lat="42.813039" lon="-.621655">
        <ele>1622.008</ele>
        <time>2020-09-05T11:37:07Z</time>
      </trkpt>
      <trkpt lat="42.813008" lon="-.621606">
        <ele>1621.714</ele>
        <time>2020-09-05T11:37:10Z</time>
      </trkpt>
      <trkpt lat="42.812974" lon="-.62156">
        <ele>1621.635</ele>
        <time>2020-09-05T11:37:14Z</time>
      </trkpt>
      <trkpt lat="42.812939" lon="-.621521">
        <ele>1621.771</ele>
        <time>2020-09-05T11:37:17Z</time>
      </trkpt>
      <trkpt lat="42.812906" lon="-.62148">
        <ele>1621.999</ele>
        <time>2020-09-05T11:37:21Z</time>
      </trkpt>
      <trkpt lat="42.812877" lon="-.621431">
        <ele>1621.870</ele>
        <time>2020-09-05T11:37:27Z</time>
      </trkpt>
      <trkpt lat="42.812845" lon="-.621384">
        <ele>1621.627</ele>
        <time>2020-09-05T11:37:31Z</time>
      </trkpt>
      <trkpt lat="42.812809" lon="-.62134">
        <ele>1621.443</ele>
        <time>2020-09-05T11:37:35Z</time>
      </trkpt>
      <trkpt lat="42.812779" lon="-.621288">
        <ele>1621.563</ele>
        <time>2020-09-05T11:37:41Z</time>
      </trkpt>
      <trkpt lat="42.81275" lon="-.62122">
        <ele>1621.461</ele>
        <time>2020-09-05T11:37:46Z</time>
      </trkpt>
      <trkpt lat="42.812731" lon="-.621152">
        <ele>1620.421</ele>
        <time>2020-09-05T11:40:17Z</time>
      </trkpt>
      <trkpt lat="42.812693" lon="-.621098">
        <ele>1619.713</ele>
        <time>2020-09-05T11:40:20Z</time>
      </trkpt>
      <trkpt lat="42.812661" lon="-.621051">
        <ele>1619.308</ele>
        <time>2020-09-05T11:40:23Z</time>
      </trkpt>
      <trkpt lat="42.81263" lon="-.621002">
        <ele>1619.031</ele>
        <time>2020-09-05T11:40:25Z</time>
      </trkpt>
      <trkpt lat="42.812595" lon="-.620951">
        <ele>1618.662</ele>
        <time>2020-09-05T11:40:29Z</time>
      </trkpt>
      <trkpt lat="42.812563" lon="-.620903">
        <ele>1618.338</ele>
        <time>2020-09-05T11:40:33Z</time>
      </trkpt>
      <trkpt lat="42.812529" lon="-.620842">
        <ele>1618.146</ele>
        <time>2020-09-05T11:40:38Z</time>
      </trkpt>
      <trkpt lat="42.812501" lon="-.620793">
        <ele>1618.127</ele>
        <time>2020-09-05T11:40:43Z</time>
      </trkpt>
      <trkpt lat="42.812473" lon="-.620743">
        <ele>1618.054</ele>
        <time>2020-09-05T11:40:47Z</time>
      </trkpt>
      <trkpt lat="42.812441" lon="-.620697">
        <ele>1617.870</ele>
        <time>2020-09-05T11:40:51Z</time>
      </trkpt>
      <trkpt lat="42.812418" lon="-.620635">
        <ele>1617.980</ele>
        <time>2020-09-05T11:40:56Z</time>
      </trkpt>
      <trkpt lat="42.812389" lon="-.620588">
        <ele>1617.954</ele>
        <time>2020-09-05T11:41:01Z</time>
      </trkpt>
      <trkpt lat="42.812374" lon="-.62052">
        <ele>1618.056</ele>
        <time>2020-09-05T11:41:06Z</time>
      </trkpt>
      <trkpt lat="42.81236" lon="-.620458">
        <ele>1618.211</ele>
        <time>2020-09-05T11:41:15Z</time>
      </trkpt>
      <trkpt lat="42.812322" lon="-.620418">
        <ele>1618.308</ele>
        <time>2020-09-05T11:41:20Z</time>
      </trkpt>
      <trkpt lat="42.81229" lon="-.620364">
        <ele>1618.320</ele>
        <time>2020-09-05T11:41:24Z</time>
      </trkpt>
      <trkpt lat="42.812249" lon="-.620338">
        <ele>1618.481</ele>
        <time>2020-09-05T11:41:29Z</time>
      </trkpt>
      <trkpt lat="42.812206" lon="-.620309">
        <ele>1618.537</ele>
        <time>2020-09-05T11:41:34Z</time>
      </trkpt>
      <trkpt lat="42.812172" lon="-.620256">
        <ele>1618.735</ele>
        <time>2020-09-05T11:41:40Z</time>
      </trkpt>
      <trkpt lat="42.812156" lon="-.620197">
        <ele>1619.226</ele>
        <time>2020-09-05T11:41:47Z</time>
      </trkpt>
      <trkpt lat="42.812145" lon="-.620133">
        <ele>1620.623</ele>
        <time>2020-09-05T11:41:58Z</time>
      </trkpt>
      <trkpt lat="42.812142" lon="-.62007">
        <ele>1622.429</ele>
        <time>2020-09-05T11:42:09Z</time>
      </trkpt>
      <trkpt lat="42.812112" lon="-.62002">
        <ele>1623.749</ele>
        <time>2020-09-05T11:42:15Z</time>
      </trkpt>
      <trkpt lat="42.812076" lon="-.619972">
        <ele>1624.562</ele>
        <time>2020-09-05T11:42:22Z</time>
      </trkpt>
      <trkpt lat="42.812032" lon="-.619947">
        <ele>1624.783</ele>
        <time>2020-09-05T11:42:26Z</time>
      </trkpt>
      <trkpt lat="42.811995" lon="-.619898">
        <ele>1624.911</ele>
        <time>2020-09-05T11:42:32Z</time>
      </trkpt>
      <trkpt lat="42.811959" lon="-.61985">
        <ele>1625.008</ele>
        <time>2020-09-05T11:42:37Z</time>
      </trkpt>
      <trkpt lat="42.811927" lon="-.619793">
        <ele>1625.091</ele>
        <time>2020-09-05T11:42:43Z</time>
      </trkpt>
      <trkpt lat="42.811901" lon="-.619737">
        <ele>1625.162</ele>
        <time>2020-09-05T11:42:47Z</time>
      </trkpt>
      <trkpt lat="42.811877" lon="-.619682">
        <ele>1625.188</ele>
        <time>2020-09-05T11:42:51Z</time>
      </trkpt>
      <trkpt lat="42.811852" lon="-.619628">
        <ele>1625.166</ele>
        <time>2020-09-05T11:42:55Z</time>
      </trkpt>
      <trkpt lat="42.811828" lon="-.619576">
        <ele>1625.197</ele>
        <time>2020-09-05T11:42:58Z</time>
      </trkpt>
      <trkpt lat="42.811812" lon="-.619511">
        <ele>1625.284</ele>
        <time>2020-09-05T11:43:03Z</time>
      </trkpt>
      <trkpt lat="42.8118" lon="-.619443">
        <ele>1625.330</ele>
        <time>2020-09-05T11:43:08Z</time>
      </trkpt>
      <trkpt lat="42.811789" lon="-.619382">
        <ele>1625.410</ele>
        <time>2020-09-05T11:43:13Z</time>
      </trkpt>
      <trkpt lat="42.811766" lon="-.619325">
        <ele>1625.642</ele>
        <time>2020-09-05T11:43:19Z</time>
      </trkpt>
      <trkpt lat="42.811736" lon="-.619272">
        <ele>1626.022</ele>
        <time>2020-09-05T11:43:24Z</time>
      </trkpt>
      <trkpt lat="42.811693" lon="-.619245">
        <ele>1626.414</ele>
        <time>2020-09-05T11:43:29Z</time>
      </trkpt>
      <trkpt lat="42.811679" lon="-.619184">
        <ele>1626.908</ele>
        <time>2020-09-05T11:43:37Z</time>
      </trkpt>
      <trkpt lat="42.811698" lon="-.619124">
        <ele>1627.289</ele>
        <time>2020-09-05T11:43:42Z</time>
      </trkpt>
      <trkpt lat="42.81168" lon="-.619066">
        <ele>1627.610</ele>
        <time>2020-09-05T11:43:50Z</time>
      </trkpt>
      <trkpt lat="42.811675" lon="-.619003">
        <ele>1628.416</ele>
        <time>2020-09-05T11:43:59Z</time>
      </trkpt>
      <trkpt lat="42.81164" lon="-.618952">
        <ele>1629.274</ele>
        <time>2020-09-05T11:44:09Z</time>
      </trkpt>
      <trkpt lat="42.811615" lon="-.618901">
        <ele>1629.995</ele>
        <time>2020-09-05T11:44:15Z</time>
      </trkpt>
      <trkpt lat="42.811592" lon="-.618841">
        <ele>1630.912</ele>
        <time>2020-09-05T11:44:22Z</time>
      </trkpt>
      <trkpt lat="42.81158" lon="-.618781">
        <ele>1631.818</ele>
        <time>2020-09-05T11:44:29Z</time>
      </trkpt>
      <trkpt lat="42.811569" lon="-.618715">
        <ele>1632.798</ele>
        <time>2020-09-05T11:44:34Z</time>
      </trkpt>
      <trkpt lat="42.811561" lon="-.618647">
        <ele>1633.482</ele>
        <time>2020-09-05T11:44:39Z</time>
      </trkpt>
      <trkpt lat="42.811586" lon="-.618595">
        <ele>1634.043</ele>
        <time>2020-09-05T11:44:45Z</time>
      </trkpt>
      <trkpt lat="42.811606" lon="-.618534">
        <ele>1635.617</ele>
        <time>2020-09-05T11:44:56Z</time>
      </trkpt>
      <trkpt lat="42.811616" lon="-.618468">
        <ele>1637.008</ele>
        <time>2020-09-05T11:45:03Z</time>
      </trkpt>
      <trkpt lat="42.811605" lon="-.618403">
        <ele>1638.243</ele>
        <time>2020-09-05T11:45:09Z</time>
      </trkpt>
      <trkpt lat="42.81159" lon="-.618344">
        <ele>1639.274</ele>
        <time>2020-09-05T11:45:14Z</time>
      </trkpt>
      <trkpt lat="42.811576" lon="-.618278">
        <ele>1640.110</ele>
        <time>2020-09-05T11:45:19Z</time>
      </trkpt>
      <trkpt lat="42.811581" lon="-.618207">
        <ele>1641.078</ele>
        <time>2020-09-05T11:45:24Z</time>
      </trkpt>
      <trkpt lat="42.811609" lon="-.618143">
        <ele>1641.819</ele>
        <time>2020-09-05T11:45:30Z</time>
      </trkpt>
      <trkpt lat="42.811607" lon="-.618076">
        <ele>1642.656</ele>
        <time>2020-09-05T11:45:36Z</time>
      </trkpt>
      <trkpt lat="42.811607" lon="-.618007">
        <ele>1643.372</ele>
        <time>2020-09-05T11:45:41Z</time>
      </trkpt>
      <trkpt lat="42.811613" lon="-.617942">
        <ele>1643.852</ele>
        <time>2020-09-05T11:45:46Z</time>
      </trkpt>
      <trkpt lat="42.811616" lon="-.617878">
        <ele>1644.357</ele>
        <time>2020-09-05T11:45:50Z</time>
      </trkpt>
      <trkpt lat="42.811616" lon="-.617811">
        <ele>1644.800</ele>
        <time>2020-09-05T11:45:54Z</time>
      </trkpt>
      <trkpt lat="42.811624" lon="-.617748">
        <ele>1645.320</ele>
        <time>2020-09-05T11:45:59Z</time>
      </trkpt>
      <trkpt lat="42.811622" lon="-.617686">
        <ele>1646.108</ele>
        <time>2020-09-05T11:46:03Z</time>
      </trkpt>
      <trkpt lat="42.811627" lon="-.617625">
        <ele>1646.560</ele>
        <time>2020-09-05T11:46:08Z</time>
      </trkpt>
      <trkpt lat="42.811611" lon="-.617566">
        <ele>1646.761</ele>
        <time>2020-09-05T11:46:13Z</time>
      </trkpt>
      <trkpt lat="42.811616" lon="-.617503">
        <ele>1647.457</ele>
        <time>2020-09-05T11:46:19Z</time>
      </trkpt>
      <trkpt lat="42.811637" lon="-.617433">
        <ele>1648.065</ele>
        <time>2020-09-05T11:46:25Z</time>
      </trkpt>
      <trkpt lat="42.811651" lon="-.617365">
        <ele>1648.636</ele>
        <time>2020-09-05T11:46:30Z</time>
      </trkpt>
      <trkpt lat="42.811673" lon="-.61731">
        <ele>1648.993</ele>
        <time>2020-09-05T11:46:34Z</time>
      </trkpt>
      <trkpt lat="42.811692" lon="-.617249">
        <ele>1648.939</ele>
        <time>2020-09-05T11:46:39Z</time>
      </trkpt>
      <trkpt lat="42.811688" lon="-.617185">
        <ele>1648.939</ele>
        <time>2020-09-05T11:46:43Z</time>
      </trkpt>
      <trkpt lat="42.811687" lon="-.617117">
        <ele>1649.141</ele>
        <time>2020-09-05T11:46:46Z</time>
      </trkpt>
      <trkpt lat="42.811695" lon="-.617055">
        <ele>1649.781</ele>
        <time>2020-09-05T11:46:50Z</time>
      </trkpt>
      <trkpt lat="42.811704" lon="-.616989">
        <ele>1650.709</ele>
        <time>2020-09-05T11:46:54Z</time>
      </trkpt>
      <trkpt lat="42.811708" lon="-.616916">
        <ele>1651.908</ele>
        <time>2020-09-05T11:46:58Z</time>
      </trkpt>
      <trkpt lat="42.811714" lon="-.616848">
        <ele>1653.489</ele>
        <time>2020-09-05T11:47:03Z</time>
      </trkpt>
      <trkpt lat="42.811721" lon="-.616778">
        <ele>1654.860</ele>
        <time>2020-09-05T11:47:07Z</time>
      </trkpt>
      <trkpt lat="42.811729" lon="-.616704">
        <ele>1656.476</ele>
        <time>2020-09-05T11:47:11Z</time>
      </trkpt>
      <trkpt lat="42.811729" lon="-.616638">
        <ele>1657.964</ele>
        <time>2020-09-05T11:47:15Z</time>
      </trkpt>
      <trkpt lat="42.811755" lon="-.616586">
        <ele>1659.245</ele>
        <time>2020-09-05T11:47:21Z</time>
      </trkpt>
      <trkpt lat="42.811771" lon="-.616527">
        <ele>1660.492</ele>
        <time>2020-09-05T11:47:26Z</time>
      </trkpt>
      <trkpt lat="42.811778" lon="-.616458">
        <ele>1661.418</ele>
        <time>2020-09-05T11:47:32Z</time>
      </trkpt>
      <trkpt lat="42.811777" lon="-.616392">
        <ele>1662.488</ele>
        <time>2020-09-05T11:47:37Z</time>
      </trkpt>
      <trkpt lat="42.81177" lon="-.616328">
        <ele>1663.241</ele>
        <time>2020-09-05T11:47:41Z</time>
      </trkpt>
      <trkpt lat="42.81176" lon="-.616267">
        <ele>1663.781</ele>
        <time>2020-09-05T11:47:45Z</time>
      </trkpt>
      <trkpt lat="42.81175" lon="-.616206">
        <ele>1664.209</ele>
        <time>2020-09-05T11:47:49Z</time>
      </trkpt>
      <trkpt lat="42.81174" lon="-.616142">
        <ele>1664.608</ele>
        <time>2020-09-05T11:47:54Z</time>
      </trkpt>
      <trkpt lat="42.811738" lon="-.616077">
        <ele>1665.039</ele>
        <time>2020-09-05T11:47:59Z</time>
      </trkpt>
      <trkpt lat="42.811739" lon="-.61601">
        <ele>1665.330</ele>
        <time>2020-09-05T11:48:04Z</time>
      </trkpt>
      <trkpt lat="42.81175" lon="-.615948">
        <ele>1665.766</ele>
        <time>2020-09-05T11:48:09Z</time>
      </trkpt>
      <trkpt lat="42.811756" lon="-.61588">
        <ele>1666.084</ele>
        <time>2020-09-05T11:48:14Z</time>
      </trkpt>
      <trkpt lat="42.811748" lon="-.615815">
        <ele>1666.445</ele>
        <time>2020-09-05T11:48:19Z</time>
      </trkpt>
      <trkpt lat="42.81174" lon="-.615753">
        <ele>1666.872</ele>
        <time>2020-09-05T11:48:24Z</time>
      </trkpt>
      <trkpt lat="42.811736" lon="-.615687">
        <ele>1667.058</ele>
        <time>2020-09-05T11:48:30Z</time>
      </trkpt>
      <trkpt lat="42.811739" lon="-.615618">
        <ele>1667.278</ele>
        <time>2020-09-05T11:48:35Z</time>
      </trkpt>
      <trkpt lat="42.811747" lon="-.615554">
        <ele>1667.598</ele>
        <time>2020-09-05T11:48:38Z</time>
      </trkpt>
      <trkpt lat="42.811747" lon="-.615484">
        <ele>1667.715</ele>
        <time>2020-09-05T11:48:43Z</time>
      </trkpt>
      <trkpt lat="42.811737" lon="-.615422">
        <ele>1667.826</ele>
        <time>2020-09-05T11:48:48Z</time>
      </trkpt>
      <trkpt lat="42.81172" lon="-.61536">
        <ele>1667.608</ele>
        <time>2020-09-05T11:48:53Z</time>
      </trkpt>
      <trkpt lat="42.811696" lon="-.615292">
        <ele>1667.424</ele>
        <time>2020-09-05T11:48:58Z</time>
      </trkpt>
      <trkpt lat="42.81167" lon="-.615232">
        <ele>1666.975</ele>
        <time>2020-09-05T11:49:02Z</time>
      </trkpt>
      <trkpt lat="42.81164" lon="-.61517">
        <ele>1666.111</ele>
        <time>2020-09-05T11:49:07Z</time>
      </trkpt>
      <trkpt lat="42.811621" lon="-.615109">
        <ele>1665.139</ele>
        <time>2020-09-05T11:49:11Z</time>
      </trkpt>
      <trkpt lat="42.811606" lon="-.61505">
        <ele>1664.120</ele>
        <time>2020-09-05T11:49:15Z</time>
      </trkpt>
      <trkpt lat="42.811581" lon="-.614993">
        <ele>1663.337</ele>
        <time>2020-09-05T11:49:20Z</time>
      </trkpt>
      <trkpt lat="42.811568" lon="-.614931">
        <ele>1662.413</ele>
        <time>2020-09-05T11:49:25Z</time>
      </trkpt>
      <trkpt lat="42.811548" lon="-.614873">
        <ele>1661.653</ele>
        <time>2020-09-05T11:49:29Z</time>
      </trkpt>
      <trkpt lat="42.811525" lon="-.614808">
        <ele>1660.976</ele>
        <time>2020-09-05T11:49:33Z</time>
      </trkpt>
      <trkpt lat="42.811493" lon="-.614757">
        <ele>1660.490</ele>
        <time>2020-09-05T11:49:38Z</time>
      </trkpt>
      <trkpt lat="42.811461" lon="-.614708">
        <ele>1659.919</ele>
        <time>2020-09-05T11:49:42Z</time>
      </trkpt>
      <trkpt lat="42.811443" lon="-.614649">
        <ele>1659.508</ele>
        <time>2020-09-05T11:49:47Z</time>
      </trkpt>
      <trkpt lat="42.811429" lon="-.614588">
        <ele>1659.272</ele>
        <time>2020-09-05T11:49:51Z</time>
      </trkpt>
      <trkpt lat="42.811392" lon="-.614543">
        <ele>1659.053</ele>
        <time>2020-09-05T11:49:55Z</time>
      </trkpt>
      <trkpt lat="42.811356" lon="-.614496">
        <ele>1658.969</ele>
        <time>2020-09-05T11:50:00Z</time>
      </trkpt>
      <trkpt lat="42.811316" lon="-.614459">
        <ele>1658.817</ele>
        <time>2020-09-05T11:50:05Z</time>
      </trkpt>
      <trkpt lat="42.811277" lon="-.614415">
        <ele>1658.888</ele>
        <time>2020-09-05T11:50:10Z</time>
      </trkpt>
      <trkpt lat="42.811249" lon="-.614363">
        <ele>1658.745</ele>
        <time>2020-09-05T11:50:14Z</time>
      </trkpt>
      <trkpt lat="42.811215" lon="-.614313">
        <ele>1658.751</ele>
        <time>2020-09-05T11:50:18Z</time>
      </trkpt>
      <trkpt lat="42.811179" lon="-.614263">
        <ele>1658.781</ele>
        <time>2020-09-05T11:50:21Z</time>
      </trkpt>
      <trkpt lat="42.811142" lon="-.614219">
        <ele>1658.629</ele>
        <time>2020-09-05T11:50:25Z</time>
      </trkpt>
      <trkpt lat="42.811114" lon="-.614171">
        <ele>1658.600</ele>
        <time>2020-09-05T11:50:29Z</time>
      </trkpt>
      <trkpt lat="42.811079" lon="-.614124">
        <ele>1658.720</ele>
        <time>2020-09-05T11:50:35Z</time>
      </trkpt>
      <trkpt lat="42.811039" lon="-.614087">
        <ele>1658.808</ele>
        <time>2020-09-05T11:50:39Z</time>
      </trkpt>
      <trkpt lat="42.811006" lon="-.614043">
        <ele>1658.857</ele>
        <time>2020-09-05T11:50:43Z</time>
      </trkpt>
      <trkpt lat="42.810972" lon="-.613993">
        <ele>1659.038</ele>
        <time>2020-09-05T11:50:48Z</time>
      </trkpt>
      <trkpt lat="42.810938" lon="-.613945">
        <ele>1659.374</ele>
        <time>2020-09-05T11:50:52Z</time>
      </trkpt>
      <trkpt lat="42.810903" lon="-.61389">
        <ele>1659.572</ele>
        <time>2020-09-05T11:50:57Z</time>
      </trkpt>
      <trkpt lat="42.810876" lon="-.613837">
        <ele>1659.873</ele>
        <time>2020-09-05T11:51:01Z</time>
      </trkpt>
      <trkpt lat="42.810854" lon="-.613782">
        <ele>1660.540</ele>
        <time>2020-09-05T11:51:22Z</time>
      </trkpt>
      <trkpt lat="42.810817" lon="-.613741">
        <ele>1661.356</ele>
        <time>2020-09-05T11:51:26Z</time>
      </trkpt>
      <trkpt lat="42.810786" lon="-.613695">
        <ele>1661.886</ele>
        <time>2020-09-05T11:51:30Z</time>
      </trkpt>
      <trkpt lat="42.810747" lon="-.613651">
        <ele>1662.669</ele>
        <time>2020-09-05T11:51:59Z</time>
      </trkpt>
      <trkpt lat="42.810713" lon="-.613607">
        <ele>1663.304</ele>
        <time>2020-09-05T11:52:05Z</time>
      </trkpt>
      <trkpt lat="42.810688" lon="-.613551">
        <ele>1663.824</ele>
        <time>2020-09-05T11:52:09Z</time>
      </trkpt>
      <trkpt lat="42.810654" lon="-.613494">
        <ele>1664.208</ele>
        <time>2020-09-05T11:52:13Z</time>
      </trkpt>
      <trkpt lat="42.810619" lon="-.613454">
        <ele>1664.561</ele>
        <time>2020-09-05T11:52:16Z</time>
      </trkpt>
      <trkpt lat="42.810588" lon="-.613407">
        <ele>1664.692</ele>
        <time>2020-09-05T11:52:21Z</time>
      </trkpt>
      <trkpt lat="42.810554" lon="-.613355">
        <ele>1664.528</ele>
        <time>2020-09-05T11:52:38Z</time>
      </trkpt>
      <trkpt lat="42.81053" lon="-.613298">
        <ele>1664.376</ele>
        <time>2020-09-05T11:52:42Z</time>
      </trkpt>
      <trkpt lat="42.810499" lon="-.613238">
        <ele>1664.277</ele>
        <time>2020-09-05T11:52:47Z</time>
      </trkpt>
      <trkpt lat="42.810471" lon="-.613186">
        <ele>1664.144</ele>
        <time>2020-09-05T11:52:51Z</time>
      </trkpt>
      <trkpt lat="42.810447" lon="-.613132">
        <ele>1664.080</ele>
        <time>2020-09-05T11:52:55Z</time>
      </trkpt>
      <trkpt lat="42.810426" lon="-.613072">
        <ele>1663.720</ele>
        <time>2020-09-05T11:52:59Z</time>
      </trkpt>
      <trkpt lat="42.810406" lon="-.613017">
        <ele>1663.363</ele>
        <time>2020-09-05T11:53:02Z</time>
      </trkpt>
      <trkpt lat="42.810396" lon="-.612955">
        <ele>1662.344</ele>
        <time>2020-09-05T11:53:11Z</time>
      </trkpt>
      <trkpt lat="42.810435" lon="-.61292">
        <ele>1661.618</ele>
        <time>2020-09-05T11:53:15Z</time>
      </trkpt>
      <trkpt lat="42.810392" lon="-.612944">
        <ele>1660.008</ele>
        <time>2020-09-05T11:53:29Z</time>
      </trkpt>
      <trkpt lat="42.810339" lon="-.612942">
        <ele>1658.991</ele>
        <time>2020-09-05T11:53:36Z</time>
      </trkpt>
      <trkpt lat="42.810288" lon="-.612941">
        <ele>1658.112</ele>
        <time>2020-09-05T11:53:41Z</time>
      </trkpt>
      <trkpt lat="42.810244" lon="-.612927">
        <ele>1657.688</ele>
        <time>2020-09-05T11:53:44Z</time>
      </trkpt>
      <trkpt lat="42.810196" lon="-.612909">
        <ele>1657.276</ele>
        <time>2020-09-05T11:53:48Z</time>
      </trkpt>
      <trkpt lat="42.810148" lon="-.612873">
        <ele>1656.927</ele>
        <time>2020-09-05T11:53:52Z</time>
      </trkpt>
      <trkpt lat="42.810105" lon="-.612851">
        <ele>1656.754</ele>
        <time>2020-09-05T11:53:57Z</time>
      </trkpt>
      <trkpt lat="42.810063" lon="-.612829">
        <ele>1656.750</ele>
        <time>2020-09-05T11:54:02Z</time>
      </trkpt>
      <trkpt lat="42.810016" lon="-.612797">
        <ele>1656.780</ele>
        <time>2020-09-05T11:54:07Z</time>
      </trkpt>
      <trkpt lat="42.809971" lon="-.612768">
        <ele>1656.724</ele>
        <time>2020-09-05T11:54:11Z</time>
      </trkpt>
      <trkpt lat="42.809925" lon="-.61275">
        <ele>1656.804</ele>
        <time>2020-09-05T11:54:16Z</time>
      </trkpt>
      <trkpt lat="42.809882" lon="-.612714">
        <ele>1656.814</ele>
        <time>2020-09-05T11:54:20Z</time>
      </trkpt>
      <trkpt lat="42.809837" lon="-.612669">
        <ele>1656.708</ele>
        <time>2020-09-05T11:54:24Z</time>
      </trkpt>
      <trkpt lat="42.809797" lon="-.612631">
        <ele>1656.697</ele>
        <time>2020-09-05T11:54:28Z</time>
      </trkpt>
      <trkpt lat="42.809764" lon="-.612584">
        <ele>1656.668</ele>
        <time>2020-09-05T11:54:33Z</time>
      </trkpt>
      <trkpt lat="42.809734" lon="-.612534">
        <ele>1656.614</ele>
        <time>2020-09-05T11:54:37Z</time>
      </trkpt>
      <trkpt lat="42.809715" lon="-.612476">
        <ele>1656.782</ele>
        <time>2020-09-05T11:54:51Z</time>
      </trkpt>
      <trkpt lat="42.809681" lon="-.612424">
        <ele>1657.163</ele>
        <time>2020-09-05T11:54:57Z</time>
      </trkpt>
      <trkpt lat="42.809649" lon="-.612378">
        <ele>1657.770</ele>
        <time>2020-09-05T11:55:01Z</time>
      </trkpt>
      <trkpt lat="42.809611" lon="-.612325">
        <ele>1658.516</ele>
        <time>2020-09-05T11:55:07Z</time>
      </trkpt>
      <trkpt lat="42.809586" lon="-.612267">
        <ele>1659.396</ele>
        <time>2020-09-05T11:55:12Z</time>
      </trkpt>
      <trkpt lat="42.809548" lon="-.612221">
        <ele>1660.085</ele>
        <time>2020-09-05T11:55:18Z</time>
      </trkpt>
      <trkpt lat="42.809519" lon="-.612171">
        <ele>1660.989</ele>
        <time>2020-09-05T11:55:23Z</time>
      </trkpt>
      <trkpt lat="42.809482" lon="-.612135">
        <ele>1661.817</ele>
        <time>2020-09-05T11:55:28Z</time>
      </trkpt>
      <trkpt lat="42.809445" lon="-.612084">
        <ele>1662.808</ele>
        <time>2020-09-05T11:55:34Z</time>
      </trkpt>
      <trkpt lat="42.809419" lon="-.612032">
        <ele>1663.733</ele>
        <time>2020-09-05T11:55:40Z</time>
      </trkpt>
      <trkpt lat="42.809395" lon="-.61198">
        <ele>1664.754</ele>
        <time>2020-09-05T11:55:45Z</time>
      </trkpt>
      <trkpt lat="42.809377" lon="-.611923">
        <ele>1665.790</ele>
        <time>2020-09-05T11:55:50Z</time>
      </trkpt>
      <trkpt lat="42.80935" lon="-.611863">
        <ele>1666.668</ele>
        <time>2020-09-05T11:55:55Z</time>
      </trkpt>
      <trkpt lat="42.809321" lon="-.611809">
        <ele>1667.529</ele>
        <time>2020-09-05T11:56:26Z</time>
      </trkpt>
      <trkpt lat="42.809283" lon="-.611775">
        <ele>1668.196</ele>
        <time>2020-09-05T11:56:29Z</time>
      </trkpt>
      <trkpt lat="42.809238" lon="-.611734">
        <ele>1668.562</ele>
        <time>2020-09-05T11:56:33Z</time>
      </trkpt>
      <trkpt lat="42.809192" lon="-.611708">
        <ele>1668.862</ele>
        <time>2020-09-05T11:56:37Z</time>
      </trkpt>
      <trkpt lat="42.809147" lon="-.611677">
        <ele>1669.056</ele>
        <time>2020-09-05T11:56:41Z</time>
      </trkpt>
      <trkpt lat="42.809113" lon="-.611637">
        <ele>1669.259</ele>
        <time>2020-09-05T11:56:45Z</time>
      </trkpt>
      <trkpt lat="42.809079" lon="-.611594">
        <ele>1669.414</ele>
        <time>2020-09-05T11:56:49Z</time>
      </trkpt>
      <trkpt lat="42.809032" lon="-.611579">
        <ele>1669.508</ele>
        <time>2020-09-05T11:56:54Z</time>
      </trkpt>
      <trkpt lat="42.80901" lon="-.611518">
        <ele>1669.850</ele>
        <time>2020-09-05T11:57:01Z</time>
      </trkpt>
      <trkpt lat="42.809008" lon="-.611448">
        <ele>1670.251</ele>
        <time>2020-09-05T11:57:07Z</time>
      </trkpt>
      <trkpt lat="42.808998" lon="-.611386">
        <ele>1670.627</ele>
        <time>2020-09-05T11:57:13Z</time>
      </trkpt>
      <trkpt lat="42.80898" lon="-.611326">
        <ele>1671.165</ele>
        <time>2020-09-05T11:57:19Z</time>
      </trkpt>
      <trkpt lat="42.808954" lon="-.611272">
        <ele>1671.756</ele>
        <time>2020-09-05T11:57:25Z</time>
      </trkpt>
      <trkpt lat="42.808926" lon="-.611223">
        <ele>1672.663</ele>
        <time>2020-09-05T11:57:32Z</time>
      </trkpt>
      <trkpt lat="42.808882" lon="-.611203">
        <ele>1673.549</ele>
        <time>2020-09-05T11:57:38Z</time>
      </trkpt>
      <trkpt lat="42.808849" lon="-.611151">
        <ele>1674.449</ele>
        <time>2020-09-05T11:57:47Z</time>
      </trkpt>
      <trkpt lat="42.808818" lon="-.611098">
        <ele>1675.316</ele>
        <time>2020-09-05T11:57:52Z</time>
      </trkpt>
      <trkpt lat="42.808795" lon="-.611037">
        <ele>1676.376</ele>
        <time>2020-09-05T11:57:58Z</time>
      </trkpt>
      <trkpt lat="42.808773" lon="-.610978">
        <ele>1677.213</ele>
        <time>2020-09-05T11:58:04Z</time>
      </trkpt>
      <trkpt lat="42.808753" lon="-.610918">
        <ele>1678.208</ele>
        <time>2020-09-05T11:58:09Z</time>
      </trkpt>
      <trkpt lat="42.808726" lon="-.610855">
        <ele>1679.286</ele>
        <time>2020-09-05T11:58:14Z</time>
      </trkpt>
      <trkpt lat="42.808693" lon="-.61081">
        <ele>1679.947</ele>
        <time>2020-09-05T11:58:18Z</time>
      </trkpt>
      <trkpt lat="42.808657" lon="-.610765">
        <ele>1680.723</ele>
        <time>2020-09-05T11:58:22Z</time>
      </trkpt>
      <trkpt lat="42.808623" lon="-.61072">
        <ele>1681.481</ele>
        <time>2020-09-05T11:58:26Z</time>
      </trkpt>
      <trkpt lat="42.808596" lon="-.610666">
        <ele>1682.052</ele>
        <time>2020-09-05T11:58:32Z</time>
      </trkpt>
      <trkpt lat="42.808561" lon="-.610623">
        <ele>1682.649</ele>
        <time>2020-09-05T11:58:37Z</time>
      </trkpt>
      <trkpt lat="42.808534" lon="-.610573">
        <ele>1683.255</ele>
        <time>2020-09-05T11:58:42Z</time>
      </trkpt>
      <trkpt lat="42.808502" lon="-.610527">
        <ele>1683.925</ele>
        <time>2020-09-05T11:58:48Z</time>
      </trkpt>
      <trkpt lat="42.808474" lon="-.610471">
        <ele>1684.688</ele>
        <time>2020-09-05T11:58:54Z</time>
      </trkpt>
      <trkpt lat="42.808441" lon="-.610424">
        <ele>1685.224</ele>
        <time>2020-09-05T11:58:59Z</time>
      </trkpt>
      <trkpt lat="42.808407" lon="-.610383">
        <ele>1685.926</ele>
        <time>2020-09-05T11:59:06Z</time>
      </trkpt>
      <trkpt lat="42.808364" lon="-.610366">
        <ele>1686.308</ele>
        <time>2020-09-05T11:59:16Z</time>
      </trkpt>
      <trkpt lat="42.808319" lon="-.610383">
        <ele>1686.893</ele>
        <time>2020-09-05T11:59:25Z</time>
      </trkpt>
      <trkpt lat="42.808273" lon="-.610405">
        <ele>1687.444</ele>
        <time>2020-09-05T11:59:34Z</time>
      </trkpt>
      <trkpt lat="42.808228" lon="-.610429">
        <ele>1687.870</ele>
        <time>2020-09-05T11:59:56Z</time>
      </trkpt>
      <trkpt lat="42.808194" lon="-.610479">
        <ele>1688.158</ele>
        <time>2020-09-05T12:00:00Z</time>
      </trkpt>
      <trkpt lat="42.808172" lon="-.610538">
        <ele>1688.539</ele>
        <time>2020-09-05T12:00:04Z</time>
      </trkpt>
      <trkpt lat="42.80814" lon="-.610587">
        <ele>1689.076</ele>
        <time>2020-09-05T12:00:09Z</time>
      </trkpt>
      <trkpt lat="42.808129" lon="-.61065">
        <ele>1689.472</ele>
        <time>2020-09-05T12:00:26Z</time>
      </trkpt>
      <trkpt lat="42.808093" lon="-.610688">
        <ele>1689.792</ele>
        <time>2020-09-05T12:00:31Z</time>
      </trkpt>
      <trkpt lat="42.808056" lon="-.610724">
        <ele>1689.883</ele>
        <time>2020-09-05T12:00:35Z</time>
      </trkpt>
      <trkpt lat="42.808016" lon="-.610752">
        <ele>1689.925</ele>
        <time>2020-09-05T12:00:38Z</time>
      </trkpt>
      <trkpt lat="42.807969" lon="-.610741">
        <ele>1689.717</ele>
        <time>2020-09-05T12:00:54Z</time>
      </trkpt>
      <trkpt lat="42.807934" lon="-.61078">
        <ele>1689.308</ele>
        <time>2020-09-05T12:00:59Z</time>
      </trkpt>
      <trkpt lat="42.807885" lon="-.610784">
        <ele>1689.333</ele>
        <time>2020-09-05T12:01:04Z</time>
      </trkpt>
      <trkpt lat="42.807862" lon="-.610843">
        <ele>1689.444</ele>
        <time>2020-09-05T12:01:34Z</time>
      </trkpt>
      <trkpt lat="42.807816" lon="-.610858">
        <ele>1689.710</ele>
        <time>2020-09-05T12:01:41Z</time>
      </trkpt>
      <trkpt lat="42.807763" lon="-.610866">
        <ele>1689.988</ele>
        <time>2020-09-05T12:01:47Z</time>
      </trkpt>
      <trkpt lat="42.807718" lon="-.610894">
        <ele>1690.029</ele>
        <time>2020-09-05T12:01:53Z</time>
      </trkpt>
      <trkpt lat="42.807672" lon="-.610909">
        <ele>1690.176</ele>
        <time>2020-09-05T12:01:57Z</time>
      </trkpt>
      <trkpt lat="42.807624" lon="-.610919">
        <ele>1690.112</ele>
        <time>2020-09-05T12:02:02Z</time>
      </trkpt>
      <trkpt lat="42.807579" lon="-.610939">
        <ele>1690.392</ele>
        <time>2020-09-05T12:02:07Z</time>
      </trkpt>
      <trkpt lat="42.807534" lon="-.61095">
        <ele>1690.488</ele>
        <time>2020-09-05T12:02:12Z</time>
      </trkpt>
      <trkpt lat="42.807491" lon="-.610927">
        <ele>1690.424</ele>
        <time>2020-09-05T12:02:18Z</time>
      </trkpt>
      <trkpt lat="42.807447" lon="-.610888">
        <ele>1690.026</ele>
        <time>2020-09-05T12:02:23Z</time>
      </trkpt>
      <trkpt lat="42.807411" lon="-.610841">
        <ele>1689.508</ele>
        <time>2020-09-05T12:02:27Z</time>
      </trkpt>
      <trkpt lat="42.807374" lon="-.610806">
        <ele>1689.173</ele>
        <time>2020-09-05T12:02:31Z</time>
      </trkpt>
      <trkpt lat="42.807333" lon="-.610773">
        <ele>1688.744</ele>
        <time>2020-09-05T12:02:35Z</time>
      </trkpt>
      <trkpt lat="42.8073" lon="-.610719">
        <ele>1688.190</ele>
        <time>2020-09-05T12:02:42Z</time>
      </trkpt>
      <trkpt lat="42.807252" lon="-.610696">
        <ele>1687.298</ele>
        <time>2020-09-05T12:02:47Z</time>
      </trkpt>
      <trkpt lat="42.807201" lon="-.610707">
        <ele>1686.389</ele>
        <time>2020-09-05T12:02:53Z</time>
      </trkpt>
      <trkpt lat="42.807155" lon="-.610712">
        <ele>1685.796</ele>
        <time>2020-09-05T12:02:57Z</time>
      </trkpt>
      <trkpt lat="42.807106" lon="-.610731">
        <ele>1685.622</ele>
        <time>2020-09-05T12:03:03Z</time>
      </trkpt>
      <trkpt lat="42.807063" lon="-.610756">
        <ele>1685.852</ele>
        <time>2020-09-05T12:03:11Z</time>
      </trkpt>
      <trkpt lat="42.807016" lon="-.610732">
        <ele>1685.966</ele>
        <time>2020-09-05T12:03:16Z</time>
      </trkpt>
      <trkpt lat="42.806972" lon="-.6107">
        <ele>1686.129</ele>
        <time>2020-09-05T12:03:23Z</time>
      </trkpt>
      <trkpt lat="42.806929" lon="-.61067">
        <ele>1686.321</ele>
        <time>2020-09-05T12:03:28Z</time>
      </trkpt>
      <trkpt lat="42.80689" lon="-.610619">
        <ele>1686.408</ele>
        <time>2020-09-05T12:03:34Z</time>
      </trkpt>
      <trkpt lat="42.806859" lon="-.610571">
        <ele>1686.441</ele>
        <time>2020-09-05T12:03:50Z</time>
      </trkpt>
      <trkpt lat="42.806822" lon="-.610527">
        <ele>1686.262</ele>
        <time>2020-09-05T12:03:54Z</time>
      </trkpt>
      <trkpt lat="42.806793" lon="-.610474">
        <ele>1685.948</ele>
        <time>2020-09-05T12:03:58Z</time>
      </trkpt>
      <trkpt lat="42.806754" lon="-.610431">
        <ele>1685.686</ele>
        <time>2020-09-05T12:04:03Z</time>
      </trkpt>
      <trkpt lat="42.806714" lon="-.610397">
        <ele>1685.597</ele>
        <time>2020-09-05T12:04:08Z</time>
      </trkpt>
      <trkpt lat="42.806687" lon="-.610347">
        <ele>1685.484</ele>
        <time>2020-09-05T12:04:12Z</time>
      </trkpt>
      <trkpt lat="42.806659" lon="-.610294">
        <ele>1685.420</ele>
        <time>2020-09-05T12:04:17Z</time>
      </trkpt>
      <trkpt lat="42.806628" lon="-.610244">
        <ele>1685.730</ele>
        <time>2020-09-05T12:04:25Z</time>
      </trkpt>
      <trkpt lat="42.806632" lon="-.610182">
        <ele>1686.171</ele>
        <time>2020-09-05T12:04:32Z</time>
      </trkpt>
      <trkpt lat="42.806626" lon="-.610118">
        <ele>1686.541</ele>
        <time>2020-09-05T12:04:41Z</time>
      </trkpt>
      <trkpt lat="42.806625" lon="-.610054">
        <ele>1686.915</ele>
        <time>2020-09-05T12:04:47Z</time>
      </trkpt>
      <trkpt lat="42.806584" lon="-.610016">
        <ele>1687.108</ele>
        <time>2020-09-05T12:04:52Z</time>
      </trkpt>
      <trkpt lat="42.806546" lon="-.609977">
        <ele>1687.422</ele>
        <time>2020-09-05T12:04:59Z</time>
      </trkpt>
      <trkpt lat="42.806512" lon="-.609933">
        <ele>1688.033</ele>
        <time>2020-09-05T12:05:08Z</time>
      </trkpt>
      <trkpt lat="42.806489" lon="-.60988">
        <ele>1688.859</ele>
        <time>2020-09-05T12:05:19Z</time>
      </trkpt>
      <trkpt lat="42.806451" lon="-.609842">
        <ele>1689.447</ele>
        <time>2020-09-05T12:05:25Z</time>
      </trkpt>
      <trkpt lat="42.806423" lon="-.609789">
        <ele>1690.018</ele>
        <time>2020-09-05T12:05:29Z</time>
      </trkpt>
      <trkpt lat="42.806397" lon="-.609729">
        <ele>1690.775</ele>
        <time>2020-09-05T12:05:34Z</time>
      </trkpt>
      <trkpt lat="42.80637" lon="-.609667">
        <ele>1691.611</ele>
        <time>2020-09-05T12:05:39Z</time>
      </trkpt>
      <trkpt lat="42.806337" lon="-.609619">
        <ele>1692.511</ele>
        <time>2020-09-05T12:05:44Z</time>
      </trkpt>
      <trkpt lat="42.80631" lon="-.609565">
        <ele>1693.366</ele>
        <time>2020-09-05T12:05:50Z</time>
      </trkpt>
      <trkpt lat="42.806265" lon="-.609555">
        <ele>1694.129</ele>
        <time>2020-09-05T12:05:57Z</time>
      </trkpt>
      <trkpt lat="42.806225" lon="-.609583">
        <ele>1695.121</ele>
        <time>2020-09-05T12:06:06Z</time>
      </trkpt>
      <trkpt lat="42.806185" lon="-.609615">
        <ele>1696.208</ele>
        <time>2020-09-05T12:06:15Z</time>
      </trkpt>
      <trkpt lat="42.806142" lon="-.609584">
        <ele>1697.561</ele>
        <time>2020-09-05T12:06:24Z</time>
      </trkpt>
      <trkpt lat="42.806108" lon="-.609539">
        <ele>1698.762</ele>
        <time>2020-09-05T12:06:34Z</time>
      </trkpt>
      <trkpt lat="42.806061" lon="-.609545">
        <ele>1699.618</ele>
        <time>2020-09-05T12:06:43Z</time>
      </trkpt>
      <trkpt lat="42.806016" lon="-.609532">
        <ele>1700.646</ele>
        <time>2020-09-05T12:06:52Z</time>
      </trkpt>
      <trkpt lat="42.805979" lon="-.609491">
        <ele>1701.537</ele>
        <time>2020-09-05T12:06:58Z</time>
      </trkpt>
      <trkpt lat="42.805964" lon="-.609431">
        <ele>1702.434</ele>
        <time>2020-09-05T12:07:02Z</time>
      </trkpt>
      <trkpt lat="42.805928" lon="-.60938">
        <ele>1703.550</ele>
        <time>2020-09-05T12:07:08Z</time>
      </trkpt>
      <trkpt lat="42.805891" lon="-.609332">
        <ele>1704.750</ele>
        <time>2020-09-05T12:07:15Z</time>
      </trkpt>
      <trkpt lat="42.805879" lon="-.609263">
        <ele>1705.793</ele>
        <time>2020-09-05T12:07:21Z</time>
      </trkpt>
      <trkpt lat="42.80585" lon="-.609211">
        <ele>1706.565</ele>
        <time>2020-09-05T12:07:26Z</time>
      </trkpt>
      <trkpt lat="42.805833" lon="-.609149">
        <ele>1707.321</ele>
        <time>2020-09-05T12:07:32Z</time>
      </trkpt>
      <trkpt lat="42.805823" lon="-.609088">
        <ele>1708.208</ele>
        <time>2020-09-05T12:07:37Z</time>
      </trkpt>
      <trkpt lat="42.805819" lon="-.609025">
        <ele>1709.454</ele>
        <time>2020-09-05T12:07:45Z</time>
      </trkpt>
      <trkpt lat="42.805826" lon="-.608964">
        <ele>1710.635</ele>
        <time>2020-09-05T12:07:53Z</time>
      </trkpt>
      <trkpt lat="42.80581" lon="-.608901">
        <ele>1711.751</ele>
        <time>2020-09-05T12:08:00Z</time>
      </trkpt>
      <trkpt lat="42.805791" lon="-.608845">
        <ele>1712.649</ele>
        <time>2020-09-05T12:08:06Z</time>
      </trkpt>
      <trkpt lat="42.805771" lon="-.608785">
        <ele>1713.440</ele>
        <time>2020-09-05T12:08:10Z</time>
      </trkpt>
      <trkpt lat="42.805737" lon="-.608737">
        <ele>1714.187</ele>
        <time>2020-09-05T12:08:15Z</time>
      </trkpt>
      <trkpt lat="42.805699" lon="-.6087">
        <ele>1714.913</ele>
        <time>2020-09-05T12:08:20Z</time>
      </trkpt>
      <trkpt lat="42.805678" lon="-.608643">
        <ele>1715.643</ele>
        <time>2020-09-05T12:08:26Z</time>
      </trkpt>
      <trkpt lat="42.805658" lon="-.608584">
        <ele>1716.332</ele>
        <time>2020-09-05T12:08:30Z</time>
      </trkpt>
      <trkpt lat="42.805634" lon="-.60853">
        <ele>1716.992</ele>
        <time>2020-09-05T12:08:34Z</time>
      </trkpt>
      <trkpt lat="42.80562" lon="-.608463">
        <ele>1717.511</ele>
        <time>2020-09-05T12:08:38Z</time>
      </trkpt>
      <trkpt lat="42.805613" lon="-.608391">
        <ele>1718.208</ele>
        <time>2020-09-05T12:08:44Z</time>
      </trkpt>
      <trkpt lat="42.8056" lon="-.60833">
        <ele>1718.988</ele>
        <time>2020-09-05T12:08:50Z</time>
      </trkpt>
      <trkpt lat="42.805577" lon="-.608275">
        <ele>1719.769</ele>
        <time>2020-09-05T12:08:57Z</time>
      </trkpt>
      <trkpt lat="42.805562" lon="-.608209">
        <ele>1720.525</ele>
        <time>2020-09-05T12:09:04Z</time>
      </trkpt>
      <trkpt lat="42.805558" lon="-.608143">
        <ele>1721.443</ele>
        <time>2020-09-05T12:09:12Z</time>
      </trkpt>
      <trkpt lat="42.805532" lon="-.608092">
        <ele>1722.284</ele>
        <time>2020-09-05T12:09:20Z</time>
      </trkpt>
      <trkpt lat="42.805501" lon="-.608043">
        <ele>1722.821</ele>
        <time>2020-09-05T12:09:30Z</time>
      </trkpt>
      <trkpt lat="42.805537" lon="-.608003">
        <ele>1723.587</ele>
        <time>2020-09-05T12:09:44Z</time>
      </trkpt>
      <trkpt lat="42.805523" lon="-.607945">
        <ele>1724.727</ele>
        <time>2020-09-05T12:09:58Z</time>
      </trkpt>
      <trkpt lat="42.805482" lon="-.607919">
        <ele>1725.867</ele>
        <time>2020-09-05T12:10:07Z</time>
      </trkpt>
      <trkpt lat="42.805434" lon="-.607941">
        <ele>1726.381</ele>
        <time>2020-09-05T12:10:13Z</time>
      </trkpt>
      <trkpt lat="42.805395" lon="-.607971">
        <ele>1726.619</ele>
        <time>2020-09-05T12:10:18Z</time>
      </trkpt>
      <trkpt lat="42.805349" lon="-.607988">
        <ele>1726.808</ele>
        <time>2020-09-05T12:10:23Z</time>
      </trkpt>
      <trkpt lat="42.805301" lon="-.607984">
        <ele>1727.221</ele>
        <time>2020-09-05T12:10:30Z</time>
      </trkpt>
      <trkpt lat="42.805255" lon="-.607975">
        <ele>1728.122</ele>
        <time>2020-09-05T12:10:39Z</time>
      </trkpt>
      <trkpt lat="42.805213" lon="-.607948">
        <ele>1729.248</ele>
        <time>2020-09-05T12:10:46Z</time>
      </trkpt>
      <trkpt lat="42.805173" lon="-.607919">
        <ele>1730.366</ele>
        <time>2020-09-05T12:10:53Z</time>
      </trkpt>
      <trkpt lat="42.805127" lon="-.607929">
        <ele>1731.127</ele>
        <time>2020-09-05T12:10:59Z</time>
      </trkpt>
      <trkpt lat="42.805079" lon="-.607918">
        <ele>1731.754</ele>
        <time>2020-09-05T12:11:04Z</time>
      </trkpt>
      <trkpt lat="42.805031" lon="-.607904">
        <ele>1732.240</ele>
        <time>2020-09-05T12:11:08Z</time>
      </trkpt>
      <trkpt lat="42.804986" lon="-.607874">
        <ele>1732.660</ele>
        <time>2020-09-05T12:11:13Z</time>
      </trkpt>
      <trkpt lat="42.804946" lon="-.607845">
        <ele>1733.151</ele>
        <time>2020-09-05T12:11:17Z</time>
      </trkpt>
      <trkpt lat="42.80491" lon="-.607807">
        <ele>1733.701</ele>
        <time>2020-09-05T12:11:22Z</time>
      </trkpt>
      <trkpt lat="42.80487" lon="-.607774">
        <ele>1734.311</ele>
        <time>2020-09-05T12:11:26Z</time>
      </trkpt>
      <trkpt lat="42.804828" lon="-.60775">
        <ele>1734.908</ele>
        <time>2020-09-05T12:11:31Z</time>
      </trkpt>
      <trkpt lat="42.804783" lon="-.607723">
        <ele>1735.560</ele>
        <time>2020-09-05T12:11:37Z</time>
      </trkpt>
      <trkpt lat="42.804736" lon="-.607707">
        <ele>1736.491</ele>
        <time>2020-09-05T12:11:43Z</time>
      </trkpt>
      <trkpt lat="42.804691" lon="-.607676">
        <ele>1737.237</ele>
        <time>2020-09-05T12:11:50Z</time>
      </trkpt>
      <trkpt lat="42.804662" lon="-.607626">
        <ele>1737.845</ele>
        <time>2020-09-05T12:11:55Z</time>
      </trkpt>
      <trkpt lat="42.804633" lon="-.607575">
        <ele>1738.436</ele>
        <time>2020-09-05T12:12:00Z</time>
      </trkpt>
      <trkpt lat="42.80463" lon="-.607511">
        <ele>1738.843</ele>
        <time>2020-09-05T12:12:04Z</time>
      </trkpt>
      <trkpt lat="42.804619" lon="-.607448">
        <ele>1739.179</ele>
        <time>2020-09-05T12:12:08Z</time>
      </trkpt>
      <trkpt lat="42.804582" lon="-.607407">
        <ele>1739.499</ele>
        <time>2020-09-05T12:12:11Z</time>
      </trkpt>
      <trkpt lat="42.80454" lon="-.607372">
        <ele>1739.883</ele>
        <time>2020-09-05T12:12:15Z</time>
      </trkpt>
      <trkpt lat="42.804499" lon="-.607347">
        <ele>1740.325</ele>
        <time>2020-09-05T12:12:19Z</time>
      </trkpt>
      <trkpt lat="42.804455" lon="-.607324">
        <ele>1740.817</ele>
        <time>2020-09-05T12:12:23Z</time>
      </trkpt>
      <trkpt lat="42.804411" lon="-.6073">
        <ele>1741.208</ele>
        <time>2020-09-05T12:12:27Z</time>
      </trkpt>
      <trkpt lat="42.804369" lon="-.607273">
        <ele>1741.653</ele>
        <time>2020-09-05T12:12:31Z</time>
      </trkpt>
      <trkpt lat="42.804328" lon="-.607248">
        <ele>1742.184</ele>
        <time>2020-09-05T12:12:36Z</time>
      </trkpt>
      <trkpt lat="42.804288" lon="-.607218">
        <ele>1742.970</ele>
        <time>2020-09-05T12:12:42Z</time>
      </trkpt>
      <trkpt lat="42.804242" lon="-.607207">
        <ele>1743.788</ele>
        <time>2020-09-05T12:12:47Z</time>
      </trkpt>
      <trkpt lat="42.804199" lon="-.607175">
        <ele>1744.399</ele>
        <time>2020-09-05T12:12:53Z</time>
      </trkpt>
      <trkpt lat="42.804181" lon="-.607117">
        <ele>1744.866</ele>
        <time>2020-09-05T12:13:00Z</time>
      </trkpt>
      <trkpt lat="42.804142" lon="-.607077">
        <ele>1745.232</ele>
        <time>2020-09-05T12:13:07Z</time>
      </trkpt>
      <trkpt lat="42.804108" lon="-.607023">
        <ele>1745.712</ele>
        <time>2020-09-05T12:13:14Z</time>
      </trkpt>
      <trkpt lat="42.804091" lon="-.606963">
        <ele>1746.031</ele>
        <time>2020-09-05T12:13:18Z</time>
      </trkpt>
      <trkpt lat="42.804097" lon="-.6069">
        <ele>1746.261</ele>
        <time>2020-09-05T12:13:23Z</time>
      </trkpt>
      <trkpt lat="42.804108" lon="-.606838">
        <ele>1746.307</ele>
        <time>2020-09-05T12:13:28Z</time>
      </trkpt>
      <trkpt lat="42.804108" lon="-.606772">
        <ele>1746.408</ele>
        <time>2020-09-05T12:13:33Z</time>
      </trkpt>
      <trkpt lat="42.804119" lon="-.60671">
        <ele>1746.538</ele>
        <time>2020-09-05T12:13:37Z</time>
      </trkpt>
      <trkpt lat="42.804135" lon="-.606644">
        <ele>1746.559</ele>
        <time>2020-09-05T12:13:42Z</time>
      </trkpt>
      <trkpt lat="42.804153" lon="-.606586">
        <ele>1746.435</ele>
        <time>2020-09-05T12:13:46Z</time>
      </trkpt>
      <trkpt lat="42.804167" lon="-.606519">
        <ele>1746.353</ele>
        <time>2020-09-05T12:13:52Z</time>
      </trkpt>
      <trkpt lat="42.804182" lon="-.606452">
        <ele>1746.344</ele>
        <time>2020-09-05T12:13:57Z</time>
      </trkpt>
      <trkpt lat="42.80419" lon="-.606391">
        <ele>1746.331</ele>
        <time>2020-09-05T12:14:02Z</time>
      </trkpt>
      <trkpt lat="42.8042" lon="-.60633">
        <ele>1746.227</ele>
        <time>2020-09-05T12:14:07Z</time>
      </trkpt>
      <trkpt lat="42.804218" lon="-.606271">
        <ele>1746.267</ele>
        <time>2020-09-05T12:14:11Z</time>
      </trkpt>
      <trkpt lat="42.804235" lon="-.606208">
        <ele>1746.372</ele>
        <time>2020-09-05T12:14:16Z</time>
      </trkpt>
      <trkpt lat="42.804227" lon="-.606146">
        <ele>1746.713</ele>
        <time>2020-09-05T12:14:27Z</time>
      </trkpt>
      <trkpt lat="42.804242" lon="-.606084">
        <ele>1746.914</ele>
        <time>2020-09-05T12:14:32Z</time>
      </trkpt>
      <trkpt lat="42.804249" lon="-.606021">
        <ele>1747.308</ele>
        <time>2020-09-05T12:14:38Z</time>
      </trkpt>
      <trkpt lat="42.80427" lon="-.605967">
        <ele>1747.862</ele>
        <time>2020-09-05T12:14:53Z</time>
      </trkpt>
      <trkpt lat="42.804276" lon="-.605906">
        <ele>1748.253</ele>
        <time>2020-09-05T12:14:58Z</time>
      </trkpt>
      <trkpt lat="42.804263" lon="-.605843">
        <ele>1748.439</ele>
        <time>2020-09-05T12:15:04Z</time>
      </trkpt>
      <trkpt lat="42.804255" lon="-.605775">
        <ele>1748.647</ele>
        <time>2020-09-05T12:15:09Z</time>
      </trkpt>
      <trkpt lat="42.804236" lon="-.605719">
        <ele>1748.848</ele>
        <time>2020-09-05T12:15:13Z</time>
      </trkpt>
      <trkpt lat="42.804207" lon="-.605671">
        <ele>1749.045</ele>
        <time>2020-09-05T12:15:17Z</time>
      </trkpt>
      <trkpt lat="42.804185" lon="-.605618">
        <ele>1749.181</ele>
        <time>2020-09-05T12:15:21Z</time>
      </trkpt>
      <trkpt lat="42.804175" lon="-.605554">
        <ele>1749.431</ele>
        <time>2020-09-05T12:15:26Z</time>
      </trkpt>
      <trkpt lat="42.804162" lon="-.605492">
        <ele>1749.623</ele>
        <time>2020-09-05T12:15:32Z</time>
      </trkpt>
      <trkpt lat="42.804139" lon="-.605434">
        <ele>1750.083</ele>
        <time>2020-09-05T12:15:38Z</time>
      </trkpt>
      <trkpt lat="42.804111" lon="-.605384">
        <ele>1750.711</ele>
        <time>2020-09-05T12:15:46Z</time>
      </trkpt>
      <trkpt lat="42.804071" lon="-.605348">
        <ele>1751.208</ele>
        <time>2020-09-05T12:15:52Z</time>
      </trkpt>
      <trkpt lat="42.804047" lon="-.605295">
        <ele>1751.837</ele>
        <time>2020-09-05T12:15:59Z</time>
      </trkpt>
      <trkpt lat="42.804022" lon="-.605237">
        <ele>1752.538</ele>
        <time>2020-09-05T12:16:05Z</time>
      </trkpt>
      <trkpt lat="42.803983" lon="-.605193">
        <ele>1753.374</ele>
        <time>2020-09-05T12:16:10Z</time>
      </trkpt>
      <trkpt lat="42.803945" lon="-.605156">
        <ele>1753.942</ele>
        <time>2020-09-05T12:16:15Z</time>
      </trkpt>
      <trkpt lat="42.803909" lon="-.605113">
        <ele>1754.423</ele>
        <time>2020-09-05T12:16:19Z</time>
      </trkpt>
      <trkpt lat="42.803874" lon="-.605067">
        <ele>1755.090</ele>
        <time>2020-09-05T12:16:26Z</time>
      </trkpt>
      <trkpt lat="42.803836" lon="-.605029">
        <ele>1755.516</ele>
        <time>2020-09-05T12:16:31Z</time>
      </trkpt>
      <trkpt lat="42.803808" lon="-.604977">
        <ele>1756.146</ele>
        <time>2020-09-05T12:16:38Z</time>
      </trkpt>
      <trkpt lat="42.803774" lon="-.604936">
        <ele>1756.755</ele>
        <time>2020-09-05T12:16:45Z</time>
      </trkpt>
      <trkpt lat="42.80375" lon="-.604875">
        <ele>1757.407</ele>
        <time>2020-09-05T12:16:53Z</time>
      </trkpt>
      <trkpt lat="42.803721" lon="-.60482">
        <ele>1757.917</ele>
        <time>2020-09-05T12:16:58Z</time>
      </trkpt>
      <trkpt lat="42.803691" lon="-.604769">
        <ele>1758.308</ele>
        <time>2020-09-05T12:17:03Z</time>
      </trkpt>
      <trkpt lat="42.803649" lon="-.604733">
        <ele>1758.750</ele>
        <time>2020-09-05T12:17:09Z</time>
      </trkpt>
      <trkpt lat="42.803613" lon="-.604686">
        <ele>1759.161</ele>
        <time>2020-09-05T12:17:15Z</time>
      </trkpt>
      <trkpt lat="42.803583" lon="-.604624">
        <ele>1759.447</ele>
        <time>2020-09-05T12:17:20Z</time>
      </trkpt>
      <trkpt lat="42.803566" lon="-.604567">
        <ele>1759.835</ele>
        <time>2020-09-05T12:17:26Z</time>
      </trkpt>
      <trkpt lat="42.803539" lon="-.604508">
        <ele>1760.336</ele>
        <time>2020-09-05T12:17:34Z</time>
      </trkpt>
      <trkpt lat="42.803498" lon="-.604474">
        <ele>1760.773</ele>
        <time>2020-09-05T12:17:40Z</time>
      </trkpt>
      <trkpt lat="42.803457" lon="-.604446">
        <ele>1761.189</ele>
        <time>2020-09-05T12:17:46Z</time>
      </trkpt>
      <trkpt lat="42.803419" lon="-.604406">
        <ele>1761.599</ele>
        <time>2020-09-05T12:17:51Z</time>
      </trkpt>
      <trkpt lat="42.803382" lon="-.60437">
        <ele>1761.945</ele>
        <time>2020-09-05T12:17:57Z</time>
      </trkpt>
      <trkpt lat="42.803349" lon="-.604328">
        <ele>1762.547</ele>
        <time>2020-09-05T12:18:05Z</time>
      </trkpt>
      <trkpt lat="42.803317" lon="-.604278">
        <ele>1763.411</ele>
        <time>2020-09-05T12:18:13Z</time>
      </trkpt>
      <trkpt lat="42.803282" lon="-.604236">
        <ele>1765.008</ele>
        <time>2020-09-05T12:18:35Z</time>
      </trkpt>
      <trkpt lat="42.803237" lon="-.604226">
        <ele>1766.439</ele>
        <time>2020-09-05T12:18:42Z</time>
      </trkpt>
      <trkpt lat="42.803197" lon="-.604193">
        <ele>1767.780</ele>
        <time>2020-09-05T12:18:54Z</time>
      </trkpt>
      <trkpt lat="42.803161" lon="-.604237">
        <ele>1767.936</ele>
        <time>2020-09-05T12:19:52Z</time>
      </trkpt>
      <trkpt lat="42.803182" lon="-.604182">
        <ele>1767.864</ele>
        <time>2020-09-05T12:20:09Z</time>
      </trkpt>
      <trkpt lat="42.803197" lon="-.604115">
        <ele>1767.775</ele>
        <time>2020-09-05T12:20:19Z</time>
      </trkpt>
      <trkpt lat="42.803176" lon="-.604176">
        <ele>1767.622</ele>
        <time>2020-09-05T12:20:29Z</time>
      </trkpt>
      <trkpt lat="42.803146" lon="-.604222">
        <ele>1767.698</ele>
        <time>2020-09-05T12:20:41Z</time>
      </trkpt>
      <trkpt lat="42.803099" lon="-.604245">
        <ele>1767.578</ele>
        <time>2020-09-05T12:20:47Z</time>
      </trkpt>
      <trkpt lat="42.803129" lon="-.6042">
        <ele>1767.389</ele>
        <time>2020-09-05T12:20:58Z</time>
      </trkpt>
      <trkpt lat="42.803176" lon="-.604211">
        <ele>1767.206</ele>
        <time>2020-09-05T12:21:22Z</time>
      </trkpt>
      <trkpt lat="42.803221" lon="-.604216">
        <ele>1767.126</ele>
        <time>2020-09-05T12:21:31Z</time>
      </trkpt>
      <trkpt lat="42.803217" lon="-.604279">
        <ele>1766.908</ele>
        <time>2020-09-05T12:21:43Z</time>
      </trkpt>
      <trkpt lat="42.803172" lon="-.604269">
        <ele>1766.873</ele>
        <time>2020-09-05T12:22:00Z</time>
      </trkpt>
      <trkpt lat="42.803205" lon="-.604224">
        <ele>1766.764</ele>
        <time>2020-09-05T12:22:49Z</time>
      </trkpt>
      <trkpt lat="42.803158" lon="-.604189">
        <ele>1767.570</ele>
        <time>2020-09-05T12:25:27Z</time>
      </trkpt>
      <trkpt lat="42.80317" lon="-.604123">
        <ele>1768.328</ele>
        <time>2020-09-05T12:28:11Z</time>
      </trkpt>
      <trkpt lat="42.803131" lon="-.604156">
        <ele>1769.059</ele>
        <time>2020-09-05T12:28:34Z</time>
      </trkpt>
      <trkpt lat="42.803087" lon="-.604193">
        <ele>1769.756</ele>
        <time>2020-09-05T12:28:50Z</time>
      </trkpt>
      <trkpt lat="42.803046" lon="-.604238">
        <ele>1769.952</ele>
        <time>2020-09-05T12:29:01Z</time>
      </trkpt>
      <trkpt lat="42.803012" lon="-.604286">
        <ele>1769.942</ele>
        <time>2020-09-05T12:29:07Z</time>
      </trkpt>
      <trkpt lat="42.803048" lon="-.604223">
        <ele>1770.626</ele>
        <time>2020-09-05T12:29:52Z</time>
      </trkpt>
      <trkpt lat="42.803076" lon="-.604167">
        <ele>1771.047</ele>
        <time>2020-09-05T12:29:57Z</time>
      </trkpt>
      <trkpt lat="42.803123" lon="-.604206">
        <ele>1771.611</ele>
        <time>2020-09-05T12:30:19Z</time>
      </trkpt>
      <trkpt lat="42.803101" lon="-.60426">
        <ele>1772.708</ele>
        <time>2020-09-05T12:31:25Z</time>
      </trkpt>
      <trkpt lat="42.803129" lon="-.604335">
        <ele>1773.277</ele>
        <time>2020-09-05T12:31:54Z</time>
      </trkpt>
      <trkpt lat="42.803082" lon="-.604334">
        <ele>1773.518</ele>
        <time>2020-09-05T12:32:12Z</time>
      </trkpt>
      <trkpt lat="42.803031" lon="-.604322">
        <ele>1773.764</ele>
        <time>2020-09-05T12:32:17Z</time>
      </trkpt>
      <trkpt lat="42.802984" lon="-.604334">
        <ele>1773.892</ele>
        <time>2020-09-05T12:32:23Z</time>
      </trkpt>
      <trkpt lat="42.802936" lon="-.60431">
        <ele>1773.793</ele>
        <time>2020-09-05T12:32:28Z</time>
      </trkpt>
      <trkpt lat="42.802882" lon="-.604307">
        <ele>1773.550</ele>
        <time>2020-09-05T12:32:33Z</time>
      </trkpt>
      <trkpt lat="42.802836" lon="-.604286">
        <ele>1773.686</ele>
        <time>2020-09-05T12:32:42Z</time>
      </trkpt>
      <trkpt lat="42.802789" lon="-.604279">
        <ele>1773.896</ele>
        <time>2020-09-05T12:32:48Z</time>
      </trkpt>
      <trkpt lat="42.802738" lon="-.604272">
        <ele>1774.475</ele>
        <time>2020-09-05T12:32:54Z</time>
      </trkpt>
      <trkpt lat="42.802693" lon="-.604251">
        <ele>1775.328</ele>
        <time>2020-09-05T12:32:59Z</time>
      </trkpt>
      <trkpt lat="42.802646" lon="-.604238">
        <ele>1776.420</ele>
        <time>2020-09-05T12:33:04Z</time>
      </trkpt>
      <trkpt lat="42.802595" lon="-.604223">
        <ele>1777.308</ele>
        <time>2020-09-05T12:33:09Z</time>
      </trkpt>
      <trkpt lat="42.802551" lon="-.604203">
        <ele>1778.212</ele>
        <time>2020-09-05T12:33:14Z</time>
      </trkpt>
      <trkpt lat="42.802509" lon="-.604169">
        <ele>1779.033</ele>
        <time>2020-09-05T12:33:21Z</time>
      </trkpt>
      <trkpt lat="42.802463" lon="-.604137">
        <ele>1779.849</ele>
        <time>2020-09-05T12:33:26Z</time>
      </trkpt>
      <trkpt lat="42.802424" lon="-.604093">
        <ele>1780.567</ele>
        <time>2020-09-05T12:33:36Z</time>
      </trkpt>
      <trkpt lat="42.802413" lon="-.604023">
        <ele>1780.958</ele>
        <time>2020-09-05T12:33:43Z</time>
      </trkpt>
      <trkpt lat="42.802386" lon="-.603972">
        <ele>1781.615</ele>
        <time>2020-09-05T12:33:52Z</time>
      </trkpt>
      <trkpt lat="42.802339" lon="-.603954">
        <ele>1782.521</ele>
        <time>2020-09-05T12:34:04Z</time>
      </trkpt>
      <trkpt lat="42.802287" lon="-.603943">
        <ele>1783.361</ele>
        <time>2020-09-05T12:34:11Z</time>
      </trkpt>
      <trkpt lat="42.802241" lon="-.603956">
        <ele>1783.888</ele>
        <time>2020-09-05T12:34:20Z</time>
      </trkpt>
      <trkpt lat="42.802237" lon="-.603892">
        <ele>1784.524</ele>
        <time>2020-09-05T12:34:31Z</time>
      </trkpt>
      <trkpt lat="42.802202" lon="-.603841">
        <ele>1784.626</ele>
        <time>2020-09-05T12:34:46Z</time>
      </trkpt>
      <trkpt lat="42.802183" lon="-.603782">
        <ele>1784.208</ele>
        <time>2020-09-05T12:34:52Z</time>
      </trkpt>
      <trkpt lat="42.802146" lon="-.603743">
        <ele>1784.123</ele>
        <time>2020-09-05T12:35:00Z</time>
      </trkpt>
      <trkpt lat="42.802108" lon="-.603704">
        <ele>1784.244</ele>
        <time>2020-09-05T12:35:06Z</time>
      </trkpt>
      <trkpt lat="42.802079" lon="-.603653">
        <ele>1784.210</ele>
        <time>2020-09-05T12:35:19Z</time>
      </trkpt>
      <trkpt lat="42.80203" lon="-.603656">
        <ele>1784.348</ele>
        <time>2020-09-05T12:35:26Z</time>
      </trkpt>
      <trkpt lat="42.801984" lon="-.603646">
        <ele>1784.469</ele>
        <time>2020-09-05T12:35:32Z</time>
      </trkpt>
      <trkpt lat="42.801948" lon="-.603604">
        <ele>1784.616</ele>
        <time>2020-09-05T12:35:41Z</time>
      </trkpt>
      <trkpt lat="42.801915" lon="-.603556">
        <ele>1784.842</ele>
        <time>2020-09-05T12:35:50Z</time>
      </trkpt>
      <trkpt lat="42.801876" lon="-.603524">
        <ele>1785.252</ele>
        <time>2020-09-05T12:36:03Z</time>
      </trkpt>
      <trkpt lat="42.801827" lon="-.603536">
        <ele>1785.652</ele>
        <time>2020-09-05T12:36:17Z</time>
      </trkpt>
      <trkpt lat="42.80178" lon="-.603526">
        <ele>1785.953</ele>
        <time>2020-09-05T12:36:23Z</time>
      </trkpt>
      <trkpt lat="42.801744" lon="-.603486">
        <ele>1786.308</ele>
        <time>2020-09-05T12:36:33Z</time>
      </trkpt>
      <trkpt lat="42.801696" lon="-.603496">
        <ele>1787.508</ele>
        <time>2020-09-05T12:36:42Z</time>
      </trkpt>
      <trkpt lat="42.801647" lon="-.6035">
        <ele>1788.940</ele>
        <time>2020-09-05T12:36:52Z</time>
      </trkpt>
      <trkpt lat="42.801603" lon="-.603525">
        <ele>1790.571</ele>
        <time>2020-09-05T12:36:59Z</time>
      </trkpt>
      <trkpt lat="42.801557" lon="-.603552">
        <ele>1791.997</ele>
        <time>2020-09-05T12:37:05Z</time>
      </trkpt>
      <trkpt lat="42.801514" lon="-.603575">
        <ele>1793.295</ele>
        <time>2020-09-05T12:37:10Z</time>
      </trkpt>
      <trkpt lat="42.801469" lon="-.6036">
        <ele>1794.576</ele>
        <time>2020-09-05T12:37:17Z</time>
      </trkpt>
      <trkpt lat="42.801418" lon="-.603598">
        <ele>1796.033</ele>
        <time>2020-09-05T12:37:25Z</time>
      </trkpt>
      <trkpt lat="42.801372" lon="-.603599">
        <ele>1797.389</ele>
        <time>2020-09-05T12:37:32Z</time>
      </trkpt>
      <trkpt lat="42.801333" lon="-.603636">
        <ele>1798.519</ele>
        <time>2020-09-05T12:37:39Z</time>
      </trkpt>
      <trkpt lat="42.801291" lon="-.603667">
        <ele>1799.814</ele>
        <time>2020-09-05T12:37:43Z</time>
      </trkpt>
      <trkpt lat="42.801246" lon="-.603685">
        <ele>1800.954</ele>
        <time>2020-09-05T12:37:48Z</time>
      </trkpt>
      <trkpt lat="42.801209" lon="-.603727">
        <ele>1804.109</ele>
        <time>2020-09-05T12:38:38Z</time>
      </trkpt>
      <trkpt lat="42.801165" lon="-.603748">
        <ele>1806.108</ele>
        <time>2020-09-05T12:38:44Z</time>
      </trkpt>
      <trkpt lat="42.80112" lon="-.603755">
        <ele>1807.386</ele>
        <time>2020-09-05T12:38:51Z</time>
      </trkpt>
      <trkpt lat="42.801081" lon="-.603792">
        <ele>1808.237</ele>
        <time>2020-09-05T12:38:57Z</time>
      </trkpt>
      <trkpt lat="42.801033" lon="-.603823">
        <ele>1809.613</ele>
        <time>2020-09-05T12:39:04Z</time>
      </trkpt>
      <trkpt lat="42.800988" lon="-.60384">
        <ele>1811.361</ele>
        <time>2020-09-05T12:39:11Z</time>
      </trkpt>
      <trkpt lat="42.80096" lon="-.603789">
        <ele>1813.152</ele>
        <time>2020-09-05T12:39:19Z</time>
      </trkpt>
      <trkpt lat="42.800989" lon="-.603741">
        <ele>1815.099</ele>
        <time>2020-09-05T12:39:30Z</time>
      </trkpt>
      <trkpt lat="42.800943" lon="-.603724">
        <ele>1816.595</ele>
        <time>2020-09-05T12:39:38Z</time>
      </trkpt>
      <trkpt lat="42.8009" lon="-.603743">
        <ele>1817.785</ele>
        <time>2020-09-05T12:39:46Z</time>
      </trkpt>
      <trkpt lat="42.800854" lon="-.603766">
        <ele>1818.984</ele>
        <time>2020-09-05T12:40:07Z</time>
      </trkpt>
      <trkpt lat="42.800811" lon="-.60379">
        <ele>1820.307</ele>
        <time>2020-09-05T12:40:14Z</time>
      </trkpt>
      <trkpt lat="42.800763" lon="-.603791">
        <ele>1821.917</ele>
        <time>2020-09-05T12:40:22Z</time>
      </trkpt>
      <trkpt lat="42.800733" lon="-.603837">
        <ele>1823.308</ele>
        <time>2020-09-05T12:40:29Z</time>
      </trkpt>
      <trkpt lat="42.800692" lon="-.603863">
        <ele>1824.463</ele>
        <time>2020-09-05T12:40:37Z</time>
      </trkpt>
      <trkpt lat="42.800654" lon="-.603824">
        <ele>1826.014</ele>
        <time>2020-09-05T12:41:00Z</time>
      </trkpt>
      <trkpt lat="42.800634" lon="-.603767">
        <ele>1827.150</ele>
        <time>2020-09-05T12:41:08Z</time>
      </trkpt>
      <trkpt lat="42.800587" lon="-.603754">
        <ele>1828.938</ele>
        <time>2020-09-05T12:41:33Z</time>
      </trkpt>
      <trkpt lat="42.800536" lon="-.603773">
        <ele>1830.369</ele>
        <time>2020-09-05T12:41:41Z</time>
      </trkpt>
      <trkpt lat="42.800486" lon="-.603788">
        <ele>1831.486</ele>
        <time>2020-09-05T12:41:47Z</time>
      </trkpt>
      <trkpt lat="42.800439" lon="-.603801">
        <ele>1832.292</ele>
        <time>2020-09-05T12:41:52Z</time>
      </trkpt>
      <trkpt lat="42.800403" lon="-.603843">
        <ele>1832.832</ele>
        <time>2020-09-05T12:41:57Z</time>
      </trkpt>
      <trkpt lat="42.800367" lon="-.603883">
        <ele>1833.457</ele>
        <time>2020-09-05T12:42:02Z</time>
      </trkpt>
      <trkpt lat="42.80033" lon="-.603921">
        <ele>1834.100</ele>
        <time>2020-09-05T12:42:08Z</time>
      </trkpt>
      <trkpt lat="42.800313" lon="-.603979">
        <ele>1834.920</ele>
        <time>2020-09-05T12:42:14Z</time>
      </trkpt>
      <trkpt lat="42.800279" lon="-.604023">
        <ele>1835.608</ele>
        <time>2020-09-05T12:42:21Z</time>
      </trkpt>
      <trkpt lat="42.800233" lon="-.604014">
        <ele>1836.450</ele>
        <time>2020-09-05T12:42:35Z</time>
      </trkpt>
      <trkpt lat="42.800193" lon="-.604045">
        <ele>1837.521</ele>
        <time>2020-09-05T12:42:42Z</time>
      </trkpt>
      <trkpt lat="42.800157" lon="-.604084">
        <ele>1838.697</ele>
        <time>2020-09-05T12:42:47Z</time>
      </trkpt>
      <trkpt lat="42.800108" lon="-.604076">
        <ele>1841.255</ele>
        <time>2020-09-05T12:43:05Z</time>
      </trkpt>
      <trkpt lat="42.800073" lon="-.604118">
        <ele>1844.466</ele>
        <time>2020-09-05T12:43:22Z</time>
      </trkpt>
      <trkpt lat="42.800034" lon="-.604157">
        <ele>1846.913</ele>
        <time>2020-09-05T12:43:28Z</time>
      </trkpt>
      <trkpt lat="42.800017" lon="-.604216">
        <ele>1849.019</ele>
        <time>2020-09-05T12:43:36Z</time>
      </trkpt>
      <trkpt lat="42.799969" lon="-.604234">
        <ele>1850.669</ele>
        <time>2020-09-05T12:43:42Z</time>
      </trkpt>
      <trkpt lat="42.799923" lon="-.604242">
        <ele>1851.913</ele>
        <time>2020-09-05T12:43:48Z</time>
      </trkpt>
      <trkpt lat="42.799888" lon="-.60428">
        <ele>1853.343</ele>
        <time>2020-09-05T12:43:56Z</time>
      </trkpt>
      <trkpt lat="42.799886" lon="-.604342">
        <ele>1855.307</ele>
        <time>2020-09-05T12:44:11Z</time>
      </trkpt>
      <trkpt lat="42.799875" lon="-.604408">
        <ele>1857.808</ele>
        <time>2020-09-05T12:44:22Z</time>
      </trkpt>
      <trkpt lat="42.799857" lon="-.604471">
        <ele>1859.746</ele>
        <time>2020-09-05T12:44:30Z</time>
      </trkpt>
      <trkpt lat="42.799815" lon="-.604498">
        <ele>1861.287</ele>
        <time>2020-09-05T12:44:39Z</time>
      </trkpt>
      <trkpt lat="42.79979" lon="-.604549">
        <ele>1862.393</ele>
        <time>2020-09-05T12:44:45Z</time>
      </trkpt>
      <trkpt lat="42.799772" lon="-.604614">
        <ele>1863.271</ele>
        <time>2020-09-05T12:44:51Z</time>
      </trkpt>
      <trkpt lat="42.79974" lon="-.60466">
        <ele>1863.182</ele>
        <time>2020-09-05T12:45:08Z</time>
      </trkpt>
      <trkpt lat="42.799703" lon="-.604696">
        <ele>1862.849</ele>
        <time>2020-09-05T12:45:15Z</time>
      </trkpt>
      <trkpt lat="42.799663" lon="-.604728">
        <ele>1864.185</ele>
        <time>2020-09-05T12:45:46Z</time>
      </trkpt>
      <trkpt lat="42.79962" lon="-.604763">
        <ele>1865.865</ele>
        <time>2020-09-05T12:45:58Z</time>
      </trkpt>
      <trkpt lat="42.799581" lon="-.604801">
        <ele>1867.032</ele>
        <time>2020-09-05T12:46:06Z</time>
      </trkpt>
      <trkpt lat="42.799542" lon="-.604843">
        <ele>1867.892</ele>
        <time>2020-09-05T12:46:13Z</time>
      </trkpt>
      <trkpt lat="42.799511" lon="-.604889">
        <ele>1868.411</ele>
        <time>2020-09-05T12:46:21Z</time>
      </trkpt>
      <trkpt lat="42.799488" lon="-.604953">
        <ele>1869.008</ele>
        <time>2020-09-05T12:46:27Z</time>
      </trkpt>
      <trkpt lat="42.799459" lon="-.605001">
        <ele>1869.458</ele>
        <time>2020-09-05T12:46:33Z</time>
      </trkpt>
      <trkpt lat="42.799416" lon="-.605023">
        <ele>1869.569</ele>
        <time>2020-09-05T12:46:48Z</time>
      </trkpt>
      <trkpt lat="42.799369" lon="-.605019">
        <ele>1870.465</ele>
        <time>2020-09-05T12:46:58Z</time>
      </trkpt>
      <trkpt lat="42.799326" lon="-.605043">
        <ele>1871.773</ele>
        <time>2020-09-05T12:47:08Z</time>
      </trkpt>
      <trkpt lat="42.799281" lon="-.605053">
        <ele>1873.334</ele>
        <time>2020-09-05T12:47:18Z</time>
      </trkpt>
      <trkpt lat="42.799252" lon="-.605102">
        <ele>1875.371</ele>
        <time>2020-09-05T12:47:29Z</time>
      </trkpt>
      <trkpt lat="42.79921" lon="-.605131">
        <ele>1877.117</ele>
        <time>2020-09-05T12:47:37Z</time>
      </trkpt>
      <trkpt lat="42.799171" lon="-.605162">
        <ele>1878.637</ele>
        <time>2020-09-05T12:47:44Z</time>
      </trkpt>
      <trkpt lat="42.799121" lon="-.605166">
        <ele>1880.262</ele>
        <time>2020-09-05T12:47:49Z</time>
      </trkpt>
      <trkpt lat="42.79907" lon="-.605164">
        <ele>1881.683</ele>
        <time>2020-09-05T12:47:56Z</time>
      </trkpt>
      <trkpt lat="42.79903" lon="-.60513">
        <ele>1883.011</ele>
        <time>2020-09-05T12:48:03Z</time>
      </trkpt>
      <trkpt lat="42.798992" lon="-.605164">
        <ele>1884.508</ele>
        <time>2020-09-05T12:48:09Z</time>
      </trkpt>
      <trkpt lat="42.798953" lon="-.60513">
        <ele>1886.381</ele>
        <time>2020-09-05T12:48:20Z</time>
      </trkpt>
      <trkpt lat="42.798914" lon="-.605097">
        <ele>1888.362</ele>
        <time>2020-09-05T12:48:32Z</time>
      </trkpt>
      <trkpt lat="42.798869" lon="-.605092">
        <ele>1890.728</ele>
        <time>2020-09-05T12:48:44Z</time>
      </trkpt>
      <trkpt lat="42.798847" lon="-.605035">
        <ele>1892.836</ele>
        <time>2020-09-05T12:48:54Z</time>
      </trkpt>
      <trkpt lat="42.798849" lon="-.604972">
        <ele>1894.677</ele>
        <time>2020-09-05T12:49:02Z</time>
      </trkpt>
      <trkpt lat="42.798883" lon="-.60492">
        <ele>1896.074</ele>
        <time>2020-09-05T12:49:10Z</time>
      </trkpt>
      <trkpt lat="42.79885" lon="-.604877">
        <ele>1897.650</ele>
        <time>2020-09-05T12:49:37Z</time>
      </trkpt>
      <trkpt lat="42.798853" lon="-.604812">
        <ele>1898.790</ele>
        <time>2020-09-05T12:49:42Z</time>
      </trkpt>
      <trkpt lat="42.798845" lon="-.604751">
        <ele>1899.318</ele>
        <time>2020-09-05T12:49:57Z</time>
      </trkpt>
      <trkpt lat="42.798872" lon="-.604687">
        <ele>1899.598</ele>
        <time>2020-09-05T12:50:04Z</time>
      </trkpt>
      <trkpt lat="42.798904" lon="-.60464">
        <ele>1899.517</ele>
        <time>2020-09-05T12:50:09Z</time>
      </trkpt>
      <trkpt lat="42.798934" lon="-.604585">
        <ele>1899.408</ele>
        <time>2020-09-05T12:50:15Z</time>
      </trkpt>
      <trkpt lat="42.798942" lon="-.604522">
        <ele>1899.266</ele>
        <time>2020-09-05T12:50:20Z</time>
      </trkpt>
      <trkpt lat="42.798936" lon="-.604446">
        <ele>1899.187</ele>
        <time>2020-09-05T12:50:26Z</time>
      </trkpt>
      <trkpt lat="42.798951" lon="-.604386">
        <ele>1899.213</ele>
        <time>2020-09-05T12:50:31Z</time>
      </trkpt>
      <trkpt lat="42.79894" lon="-.604321">
        <ele>1899.331</ele>
        <time>2020-09-05T12:50:39Z</time>
      </trkpt>
      <trkpt lat="42.798965" lon="-.604259">
        <ele>1899.592</ele>
        <time>2020-09-05T12:50:44Z</time>
      </trkpt>
      <trkpt lat="42.798984" lon="-.604201">
        <ele>1899.859</ele>
        <time>2020-09-05T12:50:51Z</time>
      </trkpt>
      <trkpt lat="42.798994" lon="-.604135">
        <ele>1900.085</ele>
        <time>2020-09-05T12:50:59Z</time>
      </trkpt>
      <trkpt lat="42.798985" lon="-.604071">
        <ele>1900.235</ele>
        <time>2020-09-05T12:51:04Z</time>
      </trkpt>
      <trkpt lat="42.798971" lon="-.604011">
        <ele>1900.452</ele>
        <time>2020-09-05T12:51:13Z</time>
      </trkpt>
      <trkpt lat="42.798985" lon="-.603949">
        <ele>1900.653</ele>
        <time>2020-09-05T12:51:19Z</time>
      </trkpt>
      <trkpt lat="42.798999" lon="-.603886">
        <ele>1900.508</ele>
        <time>2020-09-05T12:51:25Z</time>
      </trkpt>
      <trkpt lat="42.799008" lon="-.603817">
        <ele>1900.308</ele>
        <time>2020-09-05T12:51:34Z</time>
      </trkpt>
      <trkpt lat="42.799002" lon="-.603751">
        <ele>1900.050</ele>
        <time>2020-09-05T12:51:38Z</time>
      </trkpt>
      <trkpt lat="42.799005" lon="-.603688">
        <ele>1899.661</ele>
        <time>2020-09-05T12:51:43Z</time>
      </trkpt>
      <trkpt lat="42.799014" lon="-.603622">
        <ele>1899.157</ele>
        <time>2020-09-05T12:51:49Z</time>
      </trkpt>
      <trkpt lat="42.799022" lon="-.603557">
        <ele>1898.565</ele>
        <time>2020-09-05T12:51:54Z</time>
      </trkpt>
      <trkpt lat="42.799021" lon="-.603491">
        <ele>1898.086</ele>
        <time>2020-09-05T12:52:00Z</time>
      </trkpt>
      <trkpt lat="42.799022" lon="-.603426">
        <ele>1897.393</ele>
        <time>2020-09-05T12:52:06Z</time>
      </trkpt>
      <trkpt lat="42.799028" lon="-.603359">
        <ele>1896.719</ele>
        <time>2020-09-05T12:52:11Z</time>
      </trkpt>
      <trkpt lat="42.799041" lon="-.603295">
        <ele>1896.229</ele>
        <time>2020-09-05T12:52:16Z</time>
      </trkpt>
      <trkpt lat="42.799054" lon="-.603229">
        <ele>1895.763</ele>
        <time>2020-09-05T12:52:21Z</time>
      </trkpt>
      <trkpt lat="42.799067" lon="-.603168">
        <ele>1895.444</ele>
        <time>2020-09-05T12:52:27Z</time>
      </trkpt>
      <trkpt lat="42.799102" lon="-.603127">
        <ele>1895.318</ele>
        <time>2020-09-05T12:52:40Z</time>
      </trkpt>
      <trkpt lat="42.799089" lon="-.603061">
        <ele>1895.108</ele>
        <time>2020-09-05T12:52:47Z</time>
      </trkpt>
      <trkpt lat="42.799096" lon="-.602999">
        <ele>1895.071</ele>
        <time>2020-09-05T12:52:52Z</time>
      </trkpt>
      <trkpt lat="42.799089" lon="-.602937">
        <ele>1894.962</ele>
        <time>2020-09-05T12:52:57Z</time>
      </trkpt>
      <trkpt lat="42.79908" lon="-.602864">
        <ele>1894.748</ele>
        <time>2020-09-05T12:53:03Z</time>
      </trkpt>
      <trkpt lat="42.799047" lon="-.602817">
        <ele>1893.966</ele>
        <time>2020-09-05T12:53:36Z</time>
      </trkpt>
      <trkpt lat="42.799058" lon="-.602757">
        <ele>1893.137</ele>
        <time>2020-09-05T12:53:41Z</time>
      </trkpt>
      <trkpt lat="42.799082" lon="-.602704">
        <ele>1892.664</ele>
        <time>2020-09-05T12:53:46Z</time>
      </trkpt>
      <trkpt lat="42.799114" lon="-.602654">
        <ele>1892.350</ele>
        <time>2020-09-05T12:53:50Z</time>
      </trkpt>
      <trkpt lat="42.799139" lon="-.602602">
        <ele>1892.270</ele>
        <time>2020-09-05T12:53:55Z</time>
      </trkpt>
      <trkpt lat="42.799162" lon="-.602549">
        <ele>1892.168</ele>
        <time>2020-09-05T12:54:00Z</time>
      </trkpt>
      <trkpt lat="42.799199" lon="-.602507">
        <ele>1891.942</ele>
        <time>2020-09-05T12:54:06Z</time>
      </trkpt>
      <trkpt lat="42.799231" lon="-.602464">
        <ele>1891.726</ele>
        <time>2020-09-05T12:54:13Z</time>
      </trkpt>
      <trkpt lat="42.799232" lon="-.6024">
        <ele>1891.708</ele>
        <time>2020-09-05T12:54:19Z</time>
      </trkpt>
      <trkpt lat="42.799256" lon="-.602346">
        <ele>1891.851</ele>
        <time>2020-09-05T12:54:26Z</time>
      </trkpt>
      <trkpt lat="42.799276" lon="-.602289">
        <ele>1891.932</ele>
        <time>2020-09-05T12:54:36Z</time>
      </trkpt>
      <trkpt lat="42.799285" lon="-.60235">
        <ele>1891.938</ele>
        <time>2020-09-05T12:57:03Z</time>
      </trkpt>
      <trkpt lat="42.799333" lon="-.602346">
        <ele>1891.296</ele>
        <time>2020-09-05T12:57:16Z</time>
      </trkpt>
      <trkpt lat="42.799372" lon="-.602313">
        <ele>1890.667</ele>
        <time>2020-09-05T12:57:21Z</time>
      </trkpt>
      <trkpt lat="42.79941" lon="-.602274">
        <ele>1890.154</ele>
        <time>2020-09-05T12:57:27Z</time>
      </trkpt>
      <trkpt lat="42.799411" lon="-.602204">
        <ele>1889.510</ele>
        <time>2020-09-05T12:57:34Z</time>
      </trkpt>
      <trkpt lat="42.799383" lon="-.602151">
        <ele>1888.910</ele>
        <time>2020-09-05T12:57:40Z</time>
      </trkpt>
      <trkpt lat="42.799371" lon="-.602086">
        <ele>1888.391</ele>
        <time>2020-09-05T12:57:48Z</time>
      </trkpt>
      <trkpt lat="42.799367" lon="-.602025">
        <ele>1887.781</ele>
        <time>2020-09-05T12:57:56Z</time>
      </trkpt>
      <trkpt lat="42.799368" lon="-.601959">
        <ele>1886.419</ele>
        <time>2020-09-05T12:58:17Z</time>
      </trkpt>
      <trkpt lat="42.799389" lon="-.6019">
        <ele>1885.308</ele>
        <time>2020-09-05T12:58:26Z</time>
      </trkpt>
      <trkpt lat="42.799413" lon="-.601849">
        <ele>1884.564</ele>
        <time>2020-09-05T12:58:32Z</time>
      </trkpt>
      <trkpt lat="42.799435" lon="-.601792">
        <ele>1883.965</ele>
        <time>2020-09-05T12:58:36Z</time>
      </trkpt>
      <trkpt lat="42.799437" lon="-.601725">
        <ele>1883.471</ele>
        <time>2020-09-05T12:58:41Z</time>
      </trkpt>
      <trkpt lat="42.799437" lon="-.601661">
        <ele>1883.079</ele>
        <time>2020-09-05T12:58:47Z</time>
      </trkpt>
      <trkpt lat="42.799452" lon="-.601598">
        <ele>1882.670</ele>
        <time>2020-09-05T12:58:51Z</time>
      </trkpt>
      <trkpt lat="42.799469" lon="-.601539">
        <ele>1882.277</ele>
        <time>2020-09-05T12:58:55Z</time>
      </trkpt>
      <trkpt lat="42.799497" lon="-.601473">
        <ele>1881.473</ele>
        <time>2020-09-05T12:59:00Z</time>
      </trkpt>
      <trkpt lat="42.799515" lon="-.601413">
        <ele>1880.033</ele>
        <time>2020-09-05T12:59:16Z</time>
      </trkpt>
      <trkpt lat="42.799544" lon="-.601352">
        <ele>1878.996</ele>
        <time>2020-09-05T12:59:21Z</time>
      </trkpt>
      <trkpt lat="42.799575" lon="-.601308">
        <ele>1878.031</ele>
        <time>2020-09-05T12:59:28Z</time>
      </trkpt>
      <trkpt lat="42.799591" lon="-.601246">
        <ele>1877.324</ele>
        <time>2020-09-05T12:59:34Z</time>
      </trkpt>
      <trkpt lat="42.799602" lon="-.601184">
        <ele>1876.808</ele>
        <time>2020-09-05T12:59:38Z</time>
      </trkpt>
      <trkpt lat="42.799599" lon="-.60112">
        <ele>1876.474</ele>
        <time>2020-09-05T12:59:43Z</time>
      </trkpt>
      <trkpt lat="42.799627" lon="-.60107">
        <ele>1876.085</ele>
        <time>2020-09-05T12:59:48Z</time>
      </trkpt>
      <trkpt lat="42.799669" lon="-.601042">
        <ele>1875.741</ele>
        <time>2020-09-05T12:59:52Z</time>
      </trkpt>
      <trkpt lat="42.799713" lon="-.601019">
        <ele>1875.499</ele>
        <time>2020-09-05T12:59:56Z</time>
      </trkpt>
      <trkpt lat="42.799755" lon="-.600986">
        <ele>1875.180</ele>
        <time>2020-09-05T13:00:00Z</time>
      </trkpt>
      <trkpt lat="42.799738" lon="-.601045">
        <ele>1874.567</ele>
        <time>2020-09-05T13:00:31Z</time>
      </trkpt>
      <trkpt lat="42.799768" lon="-.600994">
        <ele>1872.713</ele>
        <time>2020-09-05T13:01:07Z</time>
      </trkpt>
      <trkpt lat="42.799768" lon="-.600994">
        <ele>1872.763</ele>
        <time>2020-09-05T13:01:07Z</time>
      </trkpt>
      <trkpt lat="42.799813" lon="-.600979">
        <ele>1872.345</ele>
        <time>2020-09-05T13:01:43Z</time>
      </trkpt>
      <trkpt lat="42.79981" lon="-.600916">
        <ele>1872.247</ele>
        <time>2020-09-05T13:02:03Z</time>
      </trkpt>
      <trkpt lat="42.799786" lon="-.60086">
        <ele>1872.311</ele>
        <time>2020-09-05T13:02:11Z</time>
      </trkpt>
      <trkpt lat="42.799747" lon="-.600824">
        <ele>1872.608</ele>
        <time>2020-09-05T13:02:20Z</time>
      </trkpt>
      <trkpt lat="42.799722" lon="-.600773">
        <ele>1872.789</ele>
        <time>2020-09-05T13:02:25Z</time>
      </trkpt>
      <trkpt lat="42.799691" lon="-.60072">
        <ele>1872.710</ele>
        <time>2020-09-05T13:02:37Z</time>
      </trkpt>
      <trkpt lat="42.799662" lon="-.600667">
        <ele>1872.576</ele>
        <time>2020-09-05T13:02:43Z</time>
      </trkpt>
      <trkpt lat="42.799616" lon="-.600636">
        <ele>1872.134</ele>
        <time>2020-09-05T13:02:51Z</time>
      </trkpt>
      <trkpt lat="42.79958" lon="-.600597">
        <ele>1871.015</ele>
        <time>2020-09-05T13:03:02Z</time>
      </trkpt>
      <trkpt lat="42.79961" lon="-.600551">
        <ele>1869.172</ele>
        <time>2020-09-05T13:03:23Z</time>
      </trkpt>
      <trkpt lat="42.79956" lon="-.600547">
        <ele>1866.338</ele>
        <time>2020-09-05T13:03:47Z</time>
      </trkpt>
      <trkpt lat="42.799512" lon="-.60055">
        <ele>1864.648</ele>
        <time>2020-09-05T13:03:51Z</time>
      </trkpt>
      <trkpt lat="42.799459" lon="-.600554">
        <ele>1863.544</ele>
        <time>2020-09-05T13:03:55Z</time>
      </trkpt>
      <trkpt lat="42.799408" lon="-.60054">
        <ele>1862.805</ele>
        <time>2020-09-05T13:03:59Z</time>
      </trkpt>
      <trkpt lat="42.799367" lon="-.600504">
        <ele>1862.315</ele>
        <time>2020-09-05T13:04:02Z</time>
      </trkpt>
      <trkpt lat="42.79935" lon="-.60044">
        <ele>1861.908</ele>
        <time>2020-09-05T13:04:06Z</time>
      </trkpt>
      <trkpt lat="42.799337" lon="-.600374">
        <ele>1861.479</ele>
        <time>2020-09-05T13:04:11Z</time>
      </trkpt>
      <trkpt lat="42.799304" lon="-.60032">
        <ele>1860.960</ele>
        <time>2020-09-05T13:04:16Z</time>
      </trkpt>
      <trkpt lat="42.799278" lon="-.600264">
        <ele>1860.426</ele>
        <time>2020-09-05T13:04:22Z</time>
      </trkpt>
      <trkpt lat="42.799326" lon="-.600252">
        <ele>1860.144</ele>
        <time>2020-09-05T13:04:45Z</time>
      </trkpt>
      <trkpt lat="42.799356" lon="-.600201">
        <ele>1859.955</ele>
        <time>2020-09-05T13:04:48Z</time>
      </trkpt>
      <trkpt lat="42.799379" lon="-.600147">
        <ele>1859.912</ele>
        <time>2020-09-05T13:04:52Z</time>
      </trkpt>
      <trkpt lat="42.799355" lon="-.600095">
        <ele>1860.918</ele>
        <time>2020-09-05T13:05:15Z</time>
      </trkpt>
      <trkpt lat="42.799333" lon="-.600151">
        <ele>1861.728</ele>
        <time>2020-09-05T13:06:49Z</time>
      </trkpt>
      <trkpt lat="42.79931" lon="-.600206">
        <ele>1862.653</ele>
        <time>2020-09-05T13:07:03Z</time>
      </trkpt>
      <trkpt lat="42.799309" lon="-.60027">
        <ele>1862.904</ele>
        <time>2020-09-05T13:07:08Z</time>
      </trkpt>
      <trkpt lat="42.799303" lon="-.600336">
        <ele>1862.914</ele>
        <time>2020-09-05T13:07:12Z</time>
      </trkpt>
      <trkpt lat="42.799265" lon="-.600379">
        <ele>1862.608</ele>
        <time>2020-09-05T13:07:24Z</time>
      </trkpt>
      <trkpt lat="42.799253" lon="-.600443">
        <ele>1862.210</ele>
        <time>2020-09-05T13:07:32Z</time>
      </trkpt>
      <trkpt lat="42.799215" lon="-.600476">
        <ele>1861.621</ele>
        <time>2020-09-05T13:07:38Z</time>
      </trkpt>
      <trkpt lat="42.799179" lon="-.600524">
        <ele>1861.197</ele>
        <time>2020-09-05T13:07:44Z</time>
      </trkpt>
      <trkpt lat="42.799136" lon="-.600542">
        <ele>1860.625</ele>
        <time>2020-09-05T13:07:50Z</time>
      </trkpt>
      <trkpt lat="42.799093" lon="-.600573">
        <ele>1860.366</ele>
        <time>2020-09-05T13:08:24Z</time>
      </trkpt>
      <trkpt lat="42.799046" lon="-.600595">
        <ele>1860.213</ele>
        <time>2020-09-05T13:08:29Z</time>
      </trkpt>
      <trkpt lat="42.798997" lon="-.600605">
        <ele>1860.169</ele>
        <time>2020-09-05T13:08:34Z</time>
      </trkpt>
      <trkpt lat="42.79896" lon="-.600644">
        <ele>1860.179</ele>
        <time>2020-09-05T13:08:39Z</time>
      </trkpt>
      <trkpt lat="42.798936" lon="-.600699">
        <ele>1859.967</ele>
        <time>2020-09-05T13:08:46Z</time>
      </trkpt>
      <trkpt lat="42.798918" lon="-.600756">
        <ele>1859.581</ele>
        <time>2020-09-05T13:08:52Z</time>
      </trkpt>
      <trkpt lat="42.798902" lon="-.600817">
        <ele>1859.119</ele>
        <time>2020-09-05T13:08:56Z</time>
      </trkpt>
      <trkpt lat="42.798896" lon="-.60088">
        <ele>1858.608</ele>
        <time>2020-09-05T13:09:00Z</time>
      </trkpt>
      <trkpt lat="42.798878" lon="-.60094">
        <ele>1858.231</ele>
        <time>2020-09-05T13:09:06Z</time>
      </trkpt>
      <trkpt lat="42.798863" lon="-.601002">
        <ele>1857.942</ele>
        <time>2020-09-05T13:09:10Z</time>
      </trkpt>
      <trkpt lat="42.798855" lon="-.601072">
        <ele>1857.588</ele>
        <time>2020-09-05T13:09:15Z</time>
      </trkpt>
      <trkpt lat="42.798834" lon="-.601133">
        <ele>1857.136</ele>
        <time>2020-09-05T13:09:20Z</time>
      </trkpt>
      <trkpt lat="42.79879" lon="-.601151">
        <ele>1856.827</ele>
        <time>2020-09-05T13:09:26Z</time>
      </trkpt>
      <trkpt lat="42.798763" lon="-.6011">
        <ele>1856.464</ele>
        <time>2020-09-05T13:09:30Z</time>
      </trkpt>
      <trkpt lat="42.798726" lon="-.601062">
        <ele>1856.090</ele>
        <time>2020-09-05T13:09:35Z</time>
      </trkpt>
      <trkpt lat="42.798684" lon="-.601028">
        <ele>1855.610</ele>
        <time>2020-09-05T13:09:41Z</time>
      </trkpt>
      <trkpt lat="42.798639" lon="-.601002">
        <ele>1855.255</ele>
        <time>2020-09-05T13:09:46Z</time>
      </trkpt>
      <trkpt lat="42.798591" lon="-.601009">
        <ele>1854.307</ele>
        <time>2020-09-05T13:10:01Z</time>
      </trkpt>
      <trkpt lat="42.798546" lon="-.601017">
        <ele>1853.817</ele>
        <time>2020-09-05T13:10:06Z</time>
      </trkpt>
      <trkpt lat="42.798498" lon="-.601038">
        <ele>1853.608</ele>
        <time>2020-09-05T13:10:10Z</time>
      </trkpt>
      <trkpt lat="42.798461" lon="-.601079">
        <ele>1853.710</ele>
        <time>2020-09-05T13:10:15Z</time>
      </trkpt>
      <trkpt lat="42.798419" lon="-.601053">
        <ele>1853.741</ele>
        <time>2020-09-05T13:10:31Z</time>
      </trkpt>
      <trkpt lat="42.798403" lon="-.600995">
        <ele>1853.447</ele>
        <time>2020-09-05T13:10:42Z</time>
      </trkpt>
      <trkpt lat="42.798378" lon="-.600936">
        <ele>1853.565</ele>
        <time>2020-09-05T13:10:48Z</time>
      </trkpt>
      <trkpt lat="42.798358" lon="-.600873">
        <ele>1853.676</ele>
        <time>2020-09-05T13:10:53Z</time>
      </trkpt>
      <trkpt lat="42.798345" lon="-.600813">
        <ele>1854.053</ele>
        <time>2020-09-05T13:10:58Z</time>
      </trkpt>
      <trkpt lat="42.798334" lon="-.600747">
        <ele>1854.599</ele>
        <time>2020-09-05T13:11:07Z</time>
      </trkpt>
      <trkpt lat="42.79831" lon="-.600689">
        <ele>1854.989</ele>
        <time>2020-09-05T13:11:21Z</time>
      </trkpt>
      <trkpt lat="42.798284" lon="-.60063">
        <ele>1855.191</ele>
        <time>2020-09-05T13:11:29Z</time>
      </trkpt>
      <trkpt lat="42.798249" lon="-.600579">
        <ele>1855.281</ele>
        <time>2020-09-05T13:11:35Z</time>
      </trkpt>
      <trkpt lat="42.798222" lon="-.600521">
        <ele>1855.319</ele>
        <time>2020-09-05T13:11:40Z</time>
      </trkpt>
      <trkpt lat="42.7982" lon="-.600458">
        <ele>1855.508</ele>
        <time>2020-09-05T13:11:46Z</time>
      </trkpt>
      <trkpt lat="42.798196" lon="-.600386">
        <ele>1855.644</ele>
        <time>2020-09-05T13:11:52Z</time>
      </trkpt>
      <trkpt lat="42.798211" lon="-.600327">
        <ele>1855.685</ele>
        <time>2020-09-05T13:11:55Z</time>
      </trkpt>
      <trkpt lat="42.79823" lon="-.600267">
        <ele>1855.851</ele>
        <time>2020-09-05T13:12:00Z</time>
      </trkpt>
      <trkpt lat="42.798248" lon="-.600207">
        <ele>1856.139</ele>
        <time>2020-09-05T13:12:06Z</time>
      </trkpt>
      <trkpt lat="42.798273" lon="-.600149">
        <ele>1856.830</ele>
        <time>2020-09-05T13:12:13Z</time>
      </trkpt>
      <trkpt lat="42.798288" lon="-.600089">
        <ele>1857.657</ele>
        <time>2020-09-05T13:12:21Z</time>
      </trkpt>
      <trkpt lat="42.798329" lon="-.600053">
        <ele>1858.583</ele>
        <time>2020-09-05T13:12:32Z</time>
      </trkpt>
      <trkpt lat="42.798333" lon="-.599992">
        <ele>1859.443</ele>
        <time>2020-09-05T13:12:37Z</time>
      </trkpt>
      <trkpt lat="42.798302" lon="-.599938">
        <ele>1860.361</ele>
        <time>2020-09-05T13:12:45Z</time>
      </trkpt>
      <trkpt lat="42.798259" lon="-.59992">
        <ele>1861.221</ele>
        <time>2020-09-05T13:12:51Z</time>
      </trkpt>
      <trkpt lat="42.798216" lon="-.599894">
        <ele>1862.213</ele>
        <time>2020-09-05T13:12:58Z</time>
      </trkpt>
      <trkpt lat="42.798249" lon="-.599848">
        <ele>1863.508</ele>
        <time>2020-09-05T13:13:13Z</time>
      </trkpt>
      <trkpt lat="42.798264" lon="-.599782">
        <ele>1864.721</ele>
        <time>2020-09-05T13:13:19Z</time>
      </trkpt>
      <trkpt lat="42.79825" lon="-.599721">
        <ele>1865.912</ele>
        <time>2020-09-05T13:13:25Z</time>
      </trkpt>
      <trkpt lat="42.798218" lon="-.599667">
        <ele>1867.378</ele>
        <time>2020-09-05T13:13:33Z</time>
      </trkpt>
      <trkpt lat="42.798171" lon="-.599645">
        <ele>1868.746</ele>
        <time>2020-09-05T13:13:41Z</time>
      </trkpt>
      <trkpt lat="42.79813" lon="-.599612">
        <ele>1869.987</ele>
        <time>2020-09-05T13:13:48Z</time>
      </trkpt>
      <trkpt lat="42.798125" lon="-.59955">
        <ele>1870.834</ele>
        <time>2020-09-05T13:13:58Z</time>
      </trkpt>
      <trkpt lat="42.798124" lon="-.599484">
        <ele>1871.480</ele>
        <time>2020-09-05T13:14:03Z</time>
      </trkpt>
      <trkpt lat="42.798137" lon="-.599418">
        <ele>1870.180</ele>
        <time>2020-09-05T13:15:50Z</time>
      </trkpt>
      <trkpt lat="42.798137" lon="-.599355">
        <ele>1868.983</ele>
        <time>2020-09-05T13:16:00Z</time>
      </trkpt>
      <trkpt lat="42.798107" lon="-.599413">
        <ele>1868.425</ele>
        <time>2020-09-05T13:16:17Z</time>
      </trkpt>
      <trkpt lat="42.798078" lon="-.599474">
        <ele>1868.317</ele>
        <time>2020-09-05T13:16:22Z</time>
      </trkpt>
      <trkpt lat="42.798044" lon="-.599524">
        <ele>1868.308</ele>
        <time>2020-09-05T13:16:27Z</time>
      </trkpt>
      <trkpt lat="42.798012" lon="-.599573">
        <ele>1868.433</ele>
        <time>2020-09-05T13:16:32Z</time>
      </trkpt>
      <trkpt lat="42.79797" lon="-.599546">
        <ele>1868.134</ele>
        <time>2020-09-05T13:18:23Z</time>
      </trkpt>
      <trkpt lat="42.797922" lon="-.599555">
        <ele>1868.540</ele>
        <time>2020-09-05T13:18:28Z</time>
      </trkpt>
      <trkpt lat="42.797881" lon="-.59951">
        <ele>1868.988</ele>
        <time>2020-09-05T13:18:33Z</time>
      </trkpt>
      <trkpt lat="42.797843" lon="-.599462">
        <ele>1869.579</ele>
        <time>2020-09-05T13:18:37Z</time>
      </trkpt>
      <trkpt lat="42.797841" lon="-.599395">
        <ele>1870.386</ele>
        <time>2020-09-05T13:18:45Z</time>
      </trkpt>
      <trkpt lat="42.797826" lon="-.599329">
        <ele>1871.012</ele>
        <time>2020-09-05T13:18:51Z</time>
      </trkpt>
      <trkpt lat="42.797805" lon="-.599272">
        <ele>1871.652</ele>
        <time>2020-09-05T13:18:56Z</time>
      </trkpt>
      <trkpt lat="42.797789" lon="-.599215">
        <ele>1872.151</ele>
        <time>2020-09-05T13:19:00Z</time>
      </trkpt>
      <trkpt lat="42.797761" lon="-.599157">
        <ele>1872.401</ele>
        <time>2020-09-05T13:19:04Z</time>
      </trkpt>
      <trkpt lat="42.797748" lon="-.59909">
        <ele>1872.611</ele>
        <time>2020-09-05T13:19:10Z</time>
      </trkpt>
      <trkpt lat="42.797713" lon="-.59905">
        <ele>1872.708</ele>
        <time>2020-09-05T13:19:17Z</time>
      </trkpt>
      <trkpt lat="42.797673" lon="-.599085">
        <ele>1872.740</ele>
        <time>2020-09-05T13:19:21Z</time>
      </trkpt>
      <trkpt lat="42.797627" lon="-.599095">
        <ele>1872.761</ele>
        <time>2020-09-05T13:19:27Z</time>
      </trkpt>
      <trkpt lat="42.797586" lon="-.599129">
        <ele>1872.717</ele>
        <time>2020-09-05T13:19:35Z</time>
      </trkpt>
      <trkpt lat="42.797538" lon="-.599122">
        <ele>1872.675</ele>
        <time>2020-09-05T13:19:43Z</time>
      </trkpt>
      <trkpt lat="42.797492" lon="-.59911">
        <ele>1872.316</ele>
        <time>2020-09-05T13:19:56Z</time>
      </trkpt>
      <trkpt lat="42.797458" lon="-.599064">
        <ele>1872.133</ele>
        <time>2020-09-05T13:20:03Z</time>
      </trkpt>
      <trkpt lat="42.797423" lon="-.599016">
        <ele>1872.099</ele>
        <time>2020-09-05T13:20:08Z</time>
      </trkpt>
      <trkpt lat="42.7974" lon="-.598958">
        <ele>1871.859</ele>
        <time>2020-09-05T13:20:15Z</time>
      </trkpt>
      <trkpt lat="42.79737" lon="-.598903">
        <ele>1871.856</ele>
        <time>2020-09-05T13:20:21Z</time>
      </trkpt>
      <trkpt lat="42.797348" lon="-.598843">
        <ele>1871.859</ele>
        <time>2020-09-05T13:20:28Z</time>
      </trkpt>
      <trkpt lat="42.79732" lon="-.598789">
        <ele>1872.014</ele>
        <time>2020-09-05T13:20:32Z</time>
      </trkpt>
      <trkpt lat="42.797289" lon="-.59874">
        <ele>1872.108</ele>
        <time>2020-09-05T13:20:37Z</time>
      </trkpt>
      <trkpt lat="42.79725" lon="-.598698">
        <ele>1872.260</ele>
        <time>2020-09-05T13:20:41Z</time>
      </trkpt>
      <trkpt lat="42.797223" lon="-.59864">
        <ele>1872.211</ele>
        <time>2020-09-05T13:20:46Z</time>
      </trkpt>
      <trkpt lat="42.797192" lon="-.598591">
        <ele>1872.187</ele>
        <time>2020-09-05T13:20:50Z</time>
      </trkpt>
      <trkpt lat="42.797146" lon="-.598568">
        <ele>1872.085</ele>
        <time>2020-09-05T13:20:56Z</time>
      </trkpt>
      <trkpt lat="42.797101" lon="-.598558">
        <ele>1872.076</ele>
        <time>2020-09-05T13:21:04Z</time>
      </trkpt>
      <trkpt lat="42.797099" lon="-.598496">
        <ele>1871.983</ele>
        <time>2020-09-05T13:21:10Z</time>
      </trkpt>
      <trkpt lat="42.797092" lon="-.59843">
        <ele>1871.839</ele>
        <time>2020-09-05T13:21:17Z</time>
      </trkpt>
      <trkpt lat="42.797104" lon="-.598368">
        <ele>1871.739</ele>
        <time>2020-09-05T13:21:24Z</time>
      </trkpt>
      <trkpt lat="42.797123" lon="-.598312">
        <ele>1871.519</ele>
        <time>2020-09-05T13:21:30Z</time>
      </trkpt>
      <trkpt lat="42.797135" lon="-.598251">
        <ele>1871.109</ele>
        <time>2020-09-05T13:21:39Z</time>
      </trkpt>
      <trkpt lat="42.797145" lon="-.598181">
        <ele>1870.719</ele>
        <time>2020-09-05T13:21:45Z</time>
      </trkpt>
      <trkpt lat="42.797143" lon="-.59812">
        <ele>1870.208</ele>
        <time>2020-09-05T13:21:50Z</time>
      </trkpt>
      <trkpt lat="42.797117" lon="-.598069">
        <ele>1869.846</ele>
        <time>2020-09-05T13:21:56Z</time>
      </trkpt>
      <trkpt lat="42.797099" lon="-.598005">
        <ele>1869.357</ele>
        <time>2020-09-05T13:22:03Z</time>
      </trkpt>
      <trkpt lat="42.79708" lon="-.597945">
        <ele>1869.153</ele>
        <time>2020-09-05T13:22:08Z</time>
      </trkpt>
      <trkpt lat="42.797074" lon="-.597874">
        <ele>1868.831</ele>
        <time>2020-09-05T13:22:14Z</time>
      </trkpt>
      <trkpt lat="42.79707" lon="-.59781">
        <ele>1868.032</ele>
        <time>2020-09-05T13:22:35Z</time>
      </trkpt>
      <trkpt lat="42.797033" lon="-.597774">
        <ele>1867.589</ele>
        <time>2020-09-05T13:22:45Z</time>
      </trkpt>
      <trkpt lat="42.796988" lon="-.597784">
        <ele>1867.225</ele>
        <time>2020-09-05T13:22:53Z</time>
      </trkpt>
      <trkpt lat="42.796944" lon="-.5978">
        <ele>1867.185</ele>
        <time>2020-09-05T13:23:01Z</time>
      </trkpt>
      <trkpt lat="42.796904" lon="-.597768">
        <ele>1866.818</ele>
        <time>2020-09-05T13:23:09Z</time>
      </trkpt>
      <trkpt lat="42.796871" lon="-.597723">
        <ele>1866.598</ele>
        <time>2020-09-05T13:23:16Z</time>
      </trkpt>
      <trkpt lat="42.796826" lon="-.59769">
        <ele>1866.317</ele>
        <time>2020-09-05T13:23:21Z</time>
      </trkpt>
      <trkpt lat="42.796783" lon="-.59767">
        <ele>1866.008</ele>
        <time>2020-09-05T13:23:26Z</time>
      </trkpt>
      <trkpt lat="42.796757" lon="-.597609">
        <ele>1865.896</ele>
        <time>2020-09-05T13:23:31Z</time>
      </trkpt>
      <trkpt lat="42.796721" lon="-.597565">
        <ele>1865.737</ele>
        <time>2020-09-05T13:23:35Z</time>
      </trkpt>
      <trkpt lat="42.796676" lon="-.597533">
        <ele>1865.443</ele>
        <time>2020-09-05T13:23:41Z</time>
      </trkpt>
      <trkpt lat="42.796627" lon="-.597539">
        <ele>1865.161</ele>
        <time>2020-09-05T13:23:48Z</time>
      </trkpt>
      <trkpt lat="42.796585" lon="-.597516">
        <ele>1864.872</ele>
        <time>2020-09-05T13:23:56Z</time>
      </trkpt>
      <trkpt lat="42.796535" lon="-.597516">
        <ele>1864.599</ele>
        <time>2020-09-05T13:24:02Z</time>
      </trkpt>
      <trkpt lat="42.796491" lon="-.597535">
        <ele>1864.235</ele>
        <time>2020-09-05T13:24:08Z</time>
      </trkpt>
      <trkpt lat="42.796445" lon="-.597535">
        <ele>1863.945</ele>
        <time>2020-09-05T13:24:14Z</time>
      </trkpt>
      <trkpt lat="42.796399" lon="-.597534">
        <ele>1863.628</ele>
        <time>2020-09-05T13:24:20Z</time>
      </trkpt>
      <trkpt lat="42.796353" lon="-.597537">
        <ele>1863.489</ele>
        <time>2020-09-05T13:24:27Z</time>
      </trkpt>
      <trkpt lat="42.79631" lon="-.59756">
        <ele>1863.017</ele>
        <time>2020-09-05T13:24:33Z</time>
      </trkpt>
      <trkpt lat="42.796261" lon="-.597574">
        <ele>1862.308</ele>
        <time>2020-09-05T13:24:44Z</time>
      </trkpt>
      <trkpt lat="42.796216" lon="-.597596">
        <ele>1861.737</ele>
        <time>2020-09-05T13:24:50Z</time>
      </trkpt>
      <trkpt lat="42.796165" lon="-.597621">
        <ele>1861.268</ele>
        <time>2020-09-05T13:24:55Z</time>
      </trkpt>
      <trkpt lat="42.796112" lon="-.597622">
        <ele>1860.834</ele>
        <time>2020-09-05T13:25:00Z</time>
      </trkpt>
      <trkpt lat="42.79607" lon="-.597654">
        <ele>1860.332</ele>
        <time>2020-09-05T13:25:05Z</time>
      </trkpt>
      <trkpt lat="42.796027" lon="-.597674">
        <ele>1859.973</ele>
        <time>2020-09-05T13:25:12Z</time>
      </trkpt>
      <trkpt lat="42.795982" lon="-.597676">
        <ele>1859.690</ele>
        <time>2020-09-05T13:25:17Z</time>
      </trkpt>
      <trkpt lat="42.795937" lon="-.597668">
        <ele>1859.346</ele>
        <time>2020-09-05T13:25:22Z</time>
      </trkpt>
      <trkpt lat="42.795896" lon="-.597635">
        <ele>1858.866</ele>
        <time>2020-09-05T13:25:44Z</time>
      </trkpt>
      <trkpt lat="42.795853" lon="-.597656">
        <ele>1857.998</ele>
        <time>2020-09-05T13:26:20Z</time>
      </trkpt>
      <trkpt lat="42.795808" lon="-.597644">
        <ele>1856.315</ele>
        <time>2020-09-05T13:26:41Z</time>
      </trkpt>
      <trkpt lat="42.795761" lon="-.597663">
        <ele>1855.226</ele>
        <time>2020-09-05T13:26:47Z</time>
      </trkpt>
      <trkpt lat="42.795717" lon="-.597641">
        <ele>1854.308</ele>
        <time>2020-09-05T13:27:14Z</time>
      </trkpt>
      <trkpt lat="42.795672" lon="-.597655">
        <ele>1853.374</ele>
        <time>2020-09-05T13:27:33Z</time>
      </trkpt>
      <trkpt lat="42.795624" lon="-.597658">
        <ele>1852.585</ele>
        <time>2020-09-05T13:27:39Z</time>
      </trkpt>
      <trkpt lat="42.795576" lon="-.597657">
        <ele>1850.711</ele>
        <time>2020-09-05T13:28:02Z</time>
      </trkpt>
      <trkpt lat="42.795528" lon="-.597636">
        <ele>1849.449</ele>
        <time>2020-09-05T13:28:06Z</time>
      </trkpt>
      <trkpt lat="42.795477" lon="-.597644">
        <ele>1848.580</ele>
        <time>2020-09-05T13:28:11Z</time>
      </trkpt>
      <trkpt lat="42.795439" lon="-.597693">
        <ele>1847.727</ele>
        <time>2020-09-05T13:28:16Z</time>
      </trkpt>
      <trkpt lat="42.795397" lon="-.597716">
        <ele>1847.243</ele>
        <time>2020-09-05T13:28:21Z</time>
      </trkpt>
      <trkpt lat="42.795353" lon="-.597688">
        <ele>1846.723</ele>
        <time>2020-09-05T13:28:29Z</time>
      </trkpt>
      <trkpt lat="42.795306" lon="-.597707">
        <ele>1846.327</ele>
        <time>2020-09-05T13:28:35Z</time>
      </trkpt>
      <trkpt lat="42.795257" lon="-.5977">
        <ele>1846.068</ele>
        <time>2020-09-05T13:28:39Z</time>
      </trkpt>
      <trkpt lat="42.79521" lon="-.597693">
        <ele>1845.814</ele>
        <time>2020-09-05T13:28:46Z</time>
      </trkpt>
      <trkpt lat="42.795187" lon="-.597631">
        <ele>1845.608</ele>
        <time>2020-09-05T13:28:54Z</time>
      </trkpt>
      <trkpt lat="42.795159" lon="-.597579">
        <ele>1845.397</ele>
        <time>2020-09-05T13:28:59Z</time>
      </trkpt>
      <trkpt lat="42.795128" lon="-.597529">
        <ele>1845.048</ele>
        <time>2020-09-05T13:29:04Z</time>
      </trkpt>
      <trkpt lat="42.795107" lon="-.597463">
        <ele>1844.794</ele>
        <time>2020-09-05T13:29:08Z</time>
      </trkpt>
      <trkpt lat="42.795057" lon="-.597458">
        <ele>1844.332</ele>
        <time>2020-09-05T13:29:20Z</time>
      </trkpt>
      <trkpt lat="42.795033" lon="-.597404">
        <ele>1844.193</ele>
        <time>2020-09-05T13:29:26Z</time>
      </trkpt>
      <trkpt lat="42.79501" lon="-.597346">
        <ele>1844.090</ele>
        <time>2020-09-05T13:29:31Z</time>
      </trkpt>
      <trkpt lat="42.794982" lon="-.597297">
        <ele>1843.986</ele>
        <time>2020-09-05T13:29:36Z</time>
      </trkpt>
      <trkpt lat="42.794984" lon="-.597233">
        <ele>1843.836</ele>
        <time>2020-09-05T13:29:42Z</time>
      </trkpt>
      <trkpt lat="42.794948" lon="-.597186">
        <ele>1843.887</ele>
        <time>2020-09-05T13:29:47Z</time>
      </trkpt>
      <trkpt lat="42.794907" lon="-.597155">
        <ele>1843.742</ele>
        <time>2020-09-05T13:29:52Z</time>
      </trkpt>
      <trkpt lat="42.794881" lon="-.5971">
        <ele>1843.426</ele>
        <time>2020-09-05T13:30:01Z</time>
      </trkpt>
      <trkpt lat="42.794852" lon="-.597047">
        <ele>1843.208</ele>
        <time>2020-09-05T13:30:06Z</time>
      </trkpt>
      <trkpt lat="42.79482" lon="-.597002">
        <ele>1843.043</ele>
        <time>2020-09-05T13:30:10Z</time>
      </trkpt>
      <trkpt lat="42.794782" lon="-.59696">
        <ele>1842.864</ele>
        <time>2020-09-05T13:30:16Z</time>
      </trkpt>
      <trkpt lat="42.794762" lon="-.596902">
        <ele>1842.310</ele>
        <time>2020-09-05T13:30:24Z</time>
      </trkpt>
      <trkpt lat="42.79472" lon="-.596878">
        <ele>1841.718</ele>
        <time>2020-09-05T13:30:30Z</time>
      </trkpt>
      <trkpt lat="42.794687" lon="-.59683">
        <ele>1840.949</ele>
        <time>2020-09-05T13:30:40Z</time>
      </trkpt>
      <trkpt lat="42.794663" lon="-.59677">
        <ele>1839.626</ele>
        <time>2020-09-05T13:30:53Z</time>
      </trkpt>
      <trkpt lat="42.794663" lon="-.596708">
        <ele>1838.682</ele>
        <time>2020-09-05T13:30:58Z</time>
      </trkpt>
      <trkpt lat="42.794669" lon="-.596642">
        <ele>1837.762</ele>
        <time>2020-09-05T13:31:04Z</time>
      </trkpt>
      <trkpt lat="42.794678" lon="-.596576">
        <ele>1836.833</ele>
        <time>2020-09-05T13:31:13Z</time>
      </trkpt>
      <trkpt lat="42.794665" lon="-.596517">
        <ele>1835.823</ele>
        <time>2020-09-05T13:31:20Z</time>
      </trkpt>
      <trkpt lat="42.794648" lon="-.59645">
        <ele>1834.715</ele>
        <time>2020-09-05T13:31:27Z</time>
      </trkpt>
      <trkpt lat="42.794651" lon="-.596384">
        <ele>1833.708</ele>
        <time>2020-09-05T13:31:32Z</time>
      </trkpt>
      <trkpt lat="42.794637" lon="-.596316">
        <ele>1832.728</ele>
        <time>2020-09-05T13:31:39Z</time>
      </trkpt>
      <trkpt lat="42.794642" lon="-.596253">
        <ele>1831.879</ele>
        <time>2020-09-05T13:31:45Z</time>
      </trkpt>
      <trkpt lat="42.794635" lon="-.59619">
        <ele>1831.075</ele>
        <time>2020-09-05T13:31:51Z</time>
      </trkpt>
      <trkpt lat="42.79463" lon="-.596123">
        <ele>1830.353</ele>
        <time>2020-09-05T13:31:57Z</time>
      </trkpt>
      <trkpt lat="42.794613" lon="-.596063">
        <ele>1829.754</ele>
        <time>2020-09-05T13:32:04Z</time>
      </trkpt>
      <trkpt lat="42.794603" lon="-.595996">
        <ele>1829.091</ele>
        <time>2020-09-05T13:32:10Z</time>
      </trkpt>
      <trkpt lat="42.794603" lon="-.59593">
        <ele>1828.387</ele>
        <time>2020-09-05T13:32:15Z</time>
      </trkpt>
      <trkpt lat="42.794614" lon="-.59587">
        <ele>1827.637</ele>
        <time>2020-09-05T13:32:19Z</time>
      </trkpt>
      <trkpt lat="42.794632" lon="-.595814">
        <ele>1826.758</ele>
        <time>2020-09-05T13:32:23Z</time>
      </trkpt>
      <trkpt lat="42.794661" lon="-.595762">
        <ele>1825.952</ele>
        <time>2020-09-05T13:32:28Z</time>
      </trkpt>
      <trkpt lat="42.794691" lon="-.595712">
        <ele>1825.017</ele>
        <time>2020-09-05T13:32:32Z</time>
      </trkpt>
      <trkpt lat="42.794691" lon="-.595647">
        <ele>1824.108</ele>
        <time>2020-09-05T13:32:39Z</time>
      </trkpt>
      <trkpt lat="42.794713" lon="-.595592">
        <ele>1823.870</ele>
        <time>2020-09-05T13:33:02Z</time>
      </trkpt>
      <trkpt lat="42.794745" lon="-.595546">
        <ele>1823.481</ele>
        <time>2020-09-05T13:33:07Z</time>
      </trkpt>
      <trkpt lat="42.794779" lon="-.595496">
        <ele>1822.927</ele>
        <time>2020-09-05T13:33:12Z</time>
      </trkpt>
      <trkpt lat="42.794806" lon="-.595442">
        <ele>1821.875</ele>
        <time>2020-09-05T13:33:21Z</time>
      </trkpt>
      <trkpt lat="42.794841" lon="-.595398">
        <ele>1820.386</ele>
        <time>2020-09-05T13:33:26Z</time>
      </trkpt>
      <trkpt lat="42.794877" lon="-.595356">
        <ele>1818.743</ele>
        <time>2020-09-05T13:33:31Z</time>
      </trkpt>
      <trkpt lat="42.794886" lon="-.595292">
        <ele>1817.139</ele>
        <time>2020-09-05T13:33:38Z</time>
      </trkpt>
      <trkpt lat="42.794918" lon="-.595237">
        <ele>1815.679</ele>
        <time>2020-09-05T13:33:44Z</time>
      </trkpt>
      <trkpt lat="42.794952" lon="-.595196">
        <ele>1814.658</ele>
        <time>2020-09-05T13:33:49Z</time>
      </trkpt>
      <trkpt lat="42.794992" lon="-.595165">
        <ele>1814.152</ele>
        <time>2020-09-05T13:33:53Z</time>
      </trkpt>
      <trkpt lat="42.795033" lon="-.595132">
        <ele>1813.717</ele>
        <time>2020-09-05T13:33:58Z</time>
      </trkpt>
      <trkpt lat="42.795067" lon="-.59509">
        <ele>1813.208</ele>
        <time>2020-09-05T13:34:05Z</time>
      </trkpt>
      <trkpt lat="42.795097" lon="-.595038">
        <ele>1812.620</ele>
        <time>2020-09-05T13:34:17Z</time>
      </trkpt>
      <trkpt lat="42.795125" lon="-.594985">
        <ele>1812.171</ele>
        <time>2020-09-05T13:34:24Z</time>
      </trkpt>
      <trkpt lat="42.79516" lon="-.594943">
        <ele>1811.787</ele>
        <time>2020-09-05T13:34:29Z</time>
      </trkpt>
      <trkpt lat="42.795125" lon="-.594896">
        <ele>1812.425</ele>
        <time>2020-09-05T13:34:52Z</time>
      </trkpt>
      <trkpt lat="42.79513" lon="-.594833">
        <ele>1813.566</ele>
        <time>2020-09-05T13:35:04Z</time>
      </trkpt>
      <trkpt lat="42.795147" lon="-.594764">
        <ele>1814.273</ele>
        <time>2020-09-05T13:35:11Z</time>
      </trkpt>
      <trkpt lat="42.795158" lon="-.5947">
        <ele>1814.859</ele>
        <time>2020-09-05T13:35:15Z</time>
      </trkpt>
      <trkpt lat="42.795178" lon="-.594639">
        <ele>1815.439</ele>
        <time>2020-09-05T13:35:20Z</time>
      </trkpt>
      <trkpt lat="42.795195" lon="-.594581">
        <ele>1816.078</ele>
        <time>2020-09-05T13:35:26Z</time>
      </trkpt>
      <trkpt lat="42.795214" lon="-.594521">
        <ele>1816.633</ele>
        <time>2020-09-05T13:35:32Z</time>
      </trkpt>
      <trkpt lat="42.795226" lon="-.594458">
        <ele>1817.426</ele>
        <time>2020-09-05T13:35:37Z</time>
      </trkpt>
      <trkpt lat="42.795236" lon="-.594395">
        <ele>1817.908</ele>
        <time>2020-09-05T13:35:42Z</time>
      </trkpt>
      <trkpt lat="42.795254" lon="-.594336">
        <ele>1818.552</ele>
        <time>2020-09-05T13:35:47Z</time>
      </trkpt>
      <trkpt lat="42.795284" lon="-.594287">
        <ele>1819.313</ele>
        <time>2020-09-05T13:35:54Z</time>
      </trkpt>
      <trkpt lat="42.795293" lon="-.594222">
        <ele>1820.289</ele>
        <time>2020-09-05T13:36:00Z</time>
      </trkpt>
      <trkpt lat="42.795287" lon="-.59415">
        <ele>1821.177</ele>
        <time>2020-09-05T13:36:06Z</time>
      </trkpt>
      <trkpt lat="42.795304" lon="-.594092">
        <ele>1821.948</ele>
        <time>2020-09-05T13:36:12Z</time>
      </trkpt>
      <trkpt lat="42.795322" lon="-.59403">
        <ele>1822.855</ele>
        <time>2020-09-05T13:36:18Z</time>
      </trkpt>
      <trkpt lat="42.795338" lon="-.59397">
        <ele>1823.931</ele>
        <time>2020-09-05T13:36:24Z</time>
      </trkpt>
      <trkpt lat="42.795348" lon="-.593906">
        <ele>1825.231</ele>
        <time>2020-09-05T13:36:43Z</time>
      </trkpt>
      <trkpt lat="42.795348" lon="-.593906">
        <ele>1825.244</ele>
        <time>2020-09-05T13:36:43Z</time>
      </trkpt>
      <trkpt lat="42.795391" lon="-.593886">
        <ele>1825.705</ele>
        <time>2020-09-05T13:36:51Z</time>
      </trkpt>
      <trkpt lat="42.79542" lon="-.593837">
        <ele>1826.015</ele>
        <time>2020-09-05T13:37:10Z</time>
      </trkpt>
      <trkpt lat="42.795392" lon="-.593787">
        <ele>1825.608</ele>
        <time>2020-09-05T13:37:15Z</time>
      </trkpt>
      <trkpt lat="42.795394" lon="-.593721">
        <ele>1825.219</ele>
        <time>2020-09-05T13:37:29Z</time>
      </trkpt>
      <trkpt lat="42.79544" lon="-.593717">
        <ele>1823.990</ele>
        <time>2020-09-05T13:39:49Z</time>
      </trkpt>
      <trkpt lat="42.795481" lon="-.593746">
        <ele>1822.816</ele>
        <time>2020-09-05T13:39:53Z</time>
      </trkpt>
      <trkpt lat="42.795514" lon="-.593796">
        <ele>1821.854</ele>
        <time>2020-09-05T13:39:58Z</time>
      </trkpt>
      <trkpt lat="42.795545" lon="-.593744">
        <ele>1821.845</ele>
        <time>2020-09-05T13:41:09Z</time>
      </trkpt>
      <trkpt lat="42.795568" lon="-.593683">
        <ele>1821.672</ele>
        <time>2020-09-05T13:41:51Z</time>
      </trkpt>
      <trkpt lat="42.795589" lon="-.593623">
        <ele>1821.548</ele>
        <time>2020-09-05T13:41:56Z</time>
      </trkpt>
      <trkpt lat="42.795623" lon="-.593571">
        <ele>1821.758</ele>
        <time>2020-09-05T13:41:59Z</time>
      </trkpt>
      <trkpt lat="42.795661" lon="-.593521">
        <ele>1822.145</ele>
        <time>2020-09-05T13:42:03Z</time>
      </trkpt>
      <trkpt lat="42.795692" lon="-.593465">
        <ele>1822.447</ele>
        <time>2020-09-05T13:42:08Z</time>
      </trkpt>
      <trkpt lat="42.795712" lon="-.593406">
        <ele>1823.011</ele>
        <time>2020-09-05T13:42:12Z</time>
      </trkpt>
      <trkpt lat="42.79574" lon="-.593355">
        <ele>1823.908</ele>
        <time>2020-09-05T13:42:25Z</time>
      </trkpt>
      <trkpt lat="42.795759" lon="-.59329">
        <ele>1824.449</ele>
        <time>2020-09-05T13:42:31Z</time>
      </trkpt>
      <trkpt lat="42.795752" lon="-.593223">
        <ele>1824.880</ele>
        <time>2020-09-05T13:42:35Z</time>
      </trkpt>
      <trkpt lat="42.795736" lon="-.593153">
        <ele>1825.146</ele>
        <time>2020-09-05T13:42:39Z</time>
      </trkpt>
      <trkpt lat="42.795716" lon="-.593098">
        <ele>1825.454</ele>
        <time>2020-09-05T13:42:43Z</time>
      </trkpt>
      <trkpt lat="42.795696" lon="-.593037">
        <ele>1825.735</ele>
        <time>2020-09-05T13:42:48Z</time>
      </trkpt>
      <trkpt lat="42.795712" lon="-.592977">
        <ele>1825.992</ele>
        <time>2020-09-05T13:42:53Z</time>
      </trkpt>
      <trkpt lat="42.795725" lon="-.592906">
        <ele>1825.918</ele>
        <time>2020-09-05T13:42:57Z</time>
      </trkpt>
      <trkpt lat="42.795715" lon="-.592846">
        <ele>1825.988</ele>
        <time>2020-09-05T13:43:01Z</time>
      </trkpt>
      <trkpt lat="42.795686" lon="-.592794">
        <ele>1825.972</ele>
        <time>2020-09-05T13:43:07Z</time>
      </trkpt>
      <trkpt lat="42.795665" lon="-.592737">
        <ele>1825.813</ele>
        <time>2020-09-05T13:43:14Z</time>
      </trkpt>
      <trkpt lat="42.795644" lon="-.592682">
        <ele>1825.614</ele>
        <time>2020-09-05T13:43:23Z</time>
      </trkpt>
      <trkpt lat="42.795646" lon="-.59262">
        <ele>1825.308</ele>
        <time>2020-09-05T13:43:33Z</time>
      </trkpt>
      <trkpt lat="42.795647" lon="-.592556">
        <ele>1825.152</ele>
        <time>2020-09-05T13:43:41Z</time>
      </trkpt>
      <trkpt lat="42.795677" lon="-.592502">
        <ele>1824.833</ele>
        <time>2020-09-05T13:43:48Z</time>
      </trkpt>
      <trkpt lat="42.795678" lon="-.592435">
        <ele>1824.229</ele>
        <time>2020-09-05T13:43:54Z</time>
      </trkpt>
      <trkpt lat="42.795645" lon="-.592388">
        <ele>1823.547</ele>
        <time>2020-09-05T13:44:17Z</time>
      </trkpt>
      <trkpt lat="42.795601" lon="-.592366">
        <ele>1822.438</ele>
        <time>2020-09-05T13:44:24Z</time>
      </trkpt>
      <trkpt lat="42.795563" lon="-.592329">
        <ele>1821.845</ele>
        <time>2020-09-05T13:44:31Z</time>
      </trkpt>
      <trkpt lat="42.795532" lon="-.592279">
        <ele>1822.361</ele>
        <time>2020-09-05T13:44:55Z</time>
      </trkpt>
      <trkpt lat="42.795532" lon="-.592216">
        <ele>1822.571</ele>
        <time>2020-09-05T13:45:00Z</time>
      </trkpt>
      <trkpt lat="42.79553" lon="-.592147">
        <ele>1822.438</ele>
        <time>2020-09-05T13:45:06Z</time>
      </trkpt>
      <trkpt lat="42.795517" lon="-.592086">
        <ele>1821.770</ele>
        <time>2020-09-05T13:45:14Z</time>
      </trkpt>
      <trkpt lat="42.795563" lon="-.592067">
        <ele>1820.317</ele>
        <time>2020-09-05T13:45:25Z</time>
      </trkpt>
      <trkpt lat="42.795614" lon="-.592082">
        <ele>1818.908</ele>
        <time>2020-09-05T13:45:31Z</time>
      </trkpt>
      <trkpt lat="42.795659" lon="-.592095">
        <ele>1817.638</ele>
        <time>2020-09-05T13:45:38Z</time>
      </trkpt>
      <trkpt lat="42.795705" lon="-.592093">
        <ele>1816.069</ele>
        <time>2020-09-05T13:45:47Z</time>
      </trkpt>
      <trkpt lat="42.795752" lon="-.592082">
        <ele>1814.185</ele>
        <time>2020-09-05T13:45:56Z</time>
      </trkpt>
      <trkpt lat="42.795797" lon="-.592053">
        <ele>1811.413</ele>
        <time>2020-09-05T13:46:15Z</time>
      </trkpt>
      <trkpt lat="42.795835" lon="-.592012">
        <ele>1807.964</ele>
        <time>2020-09-05T13:46:54Z</time>
      </trkpt>
      <trkpt lat="42.795872" lon="-.591975">
        <ele>1805.361</ele>
        <time>2020-09-05T13:47:00Z</time>
      </trkpt>
      <trkpt lat="42.795915" lon="-.591939">
        <ele>1803.327</ele>
        <time>2020-09-05T13:47:07Z</time>
      </trkpt>
      <trkpt lat="42.795937" lon="-.591882">
        <ele>1801.457</ele>
        <time>2020-09-05T13:47:21Z</time>
      </trkpt>
      <trkpt lat="42.795988" lon="-.591895">
        <ele>1799.797</ele>
        <time>2020-09-05T13:47:39Z</time>
      </trkpt>
      <trkpt lat="42.796031" lon="-.591916">
        <ele>1798.223</ele>
        <time>2020-09-05T13:47:44Z</time>
      </trkpt>
      <trkpt lat="42.796072" lon="-.591886">
        <ele>1796.625</ele>
        <time>2020-09-05T13:47:55Z</time>
      </trkpt>
      <trkpt lat="42.796072" lon="-.591819">
        <ele>1795.008</ele>
        <time>2020-09-05T13:48:04Z</time>
      </trkpt>
      <trkpt lat="42.796081" lon="-.591757">
        <ele>1793.534</ele>
        <time>2020-09-05T13:48:11Z</time>
      </trkpt>
      <trkpt lat="42.796105" lon="-.591703">
        <ele>1792.235</ele>
        <time>2020-09-05T13:48:16Z</time>
      </trkpt>
      <trkpt lat="42.796108" lon="-.591635">
        <ele>1791.081</ele>
        <time>2020-09-05T13:48:26Z</time>
      </trkpt>
      <trkpt lat="42.796128" lon="-.59157">
        <ele>1790.099</ele>
        <time>2020-09-05T13:48:33Z</time>
      </trkpt>
      <trkpt lat="42.796162" lon="-.591524">
        <ele>1789.220</ele>
        <time>2020-09-05T13:48:43Z</time>
      </trkpt>
      <trkpt lat="42.796194" lon="-.59148">
        <ele>1788.897</ele>
        <time>2020-09-05T13:48:50Z</time>
      </trkpt>
      <trkpt lat="42.796225" lon="-.591427">
        <ele>1788.533</ele>
        <time>2020-09-05T13:48:56Z</time>
      </trkpt>
      <trkpt lat="42.79626" lon="-.591384">
        <ele>1788.223</ele>
        <time>2020-09-05T13:49:00Z</time>
      </trkpt>
      <trkpt lat="42.7963" lon="-.591352">
        <ele>1788.144</ele>
        <time>2020-09-05T13:49:05Z</time>
      </trkpt>
      <trkpt lat="42.796348" lon="-.591316">
        <ele>1788.105</ele>
        <time>2020-09-05T13:49:10Z</time>
      </trkpt>
      <trkpt lat="42.796376" lon="-.591259">
        <ele>1788.115</ele>
        <time>2020-09-05T13:49:17Z</time>
      </trkpt>
      <trkpt lat="42.796413" lon="-.591224">
        <ele>1788.108</ele>
        <time>2020-09-05T13:49:23Z</time>
      </trkpt>
      <trkpt lat="42.796454" lon="-.591194">
        <ele>1788.179</ele>
        <time>2020-09-05T13:49:29Z</time>
      </trkpt>
      <trkpt lat="42.796479" lon="-.591139">
        <ele>1788.290</ele>
        <time>2020-09-05T13:49:37Z</time>
      </trkpt>
      <trkpt lat="42.796497" lon="-.591079">
        <ele>1788.556</ele>
        <time>2020-09-05T13:49:49Z</time>
      </trkpt>
      <trkpt lat="42.796468" lon="-.591029">
        <ele>1788.824</ele>
        <time>2020-09-05T13:50:05Z</time>
      </trkpt>
      <trkpt lat="42.79646" lon="-.590966">
        <ele>1789.185</ele>
        <time>2020-09-05T13:50:12Z</time>
      </trkpt>
      <trkpt lat="42.796447" lon="-.590906">
        <ele>1789.462</ele>
        <time>2020-09-05T13:50:19Z</time>
      </trkpt>
      <trkpt lat="42.796427" lon="-.590845">
        <ele>1789.698</ele>
        <time>2020-09-05T13:50:27Z</time>
      </trkpt>
      <trkpt lat="42.796435" lon="-.59078">
        <ele>1789.838</ele>
        <time>2020-09-05T13:50:35Z</time>
      </trkpt>
      <trkpt lat="42.79646" lon="-.590722">
        <ele>1789.821</ele>
        <time>2020-09-05T13:50:53Z</time>
      </trkpt>
      <trkpt lat="42.796484" lon="-.590669">
        <ele>1789.741</ele>
        <time>2020-09-05T13:51:02Z</time>
      </trkpt>
      <trkpt lat="42.796506" lon="-.590615">
        <ele>1789.105</ele>
        <time>2020-09-05T13:51:12Z</time>
      </trkpt>
      <trkpt lat="42.796531" lon="-.590564">
        <ele>1788.308</ele>
        <time>2020-09-05T13:51:23Z</time>
      </trkpt>
      <trkpt lat="42.796575" lon="-.590546">
        <ele>1787.427</ele>
        <time>2020-09-05T13:51:31Z</time>
      </trkpt>
      <trkpt lat="42.796626" lon="-.59053">
        <ele>1786.578</ele>
        <time>2020-09-05T13:51:37Z</time>
      </trkpt>
      <trkpt lat="42.796659" lon="-.590481">
        <ele>1785.724</ele>
        <time>2020-09-05T13:51:43Z</time>
      </trkpt>
      <trkpt lat="42.79668" lon="-.590426">
        <ele>1784.862</ele>
        <time>2020-09-05T13:51:48Z</time>
      </trkpt>
      <trkpt lat="42.796675" lon="-.590364">
        <ele>1783.643</ele>
        <time>2020-09-05T13:51:57Z</time>
      </trkpt>
      <trkpt lat="42.796648" lon="-.590312">
        <ele>1782.050</ele>
        <time>2020-09-05T13:52:10Z</time>
      </trkpt>
      <trkpt lat="42.796658" lon="-.590251">
        <ele>1780.536</ele>
        <time>2020-09-05T13:52:19Z</time>
      </trkpt>
      <trkpt lat="42.79668" lon="-.590197">
        <ele>1779.176</ele>
        <time>2020-09-05T13:52:33Z</time>
      </trkpt>
      <trkpt lat="42.796671" lon="-.590131">
        <ele>1778.169</ele>
        <time>2020-09-05T13:52:40Z</time>
      </trkpt>
      <trkpt lat="42.796691" lon="-.590072">
        <ele>1777.504</ele>
        <time>2020-09-05T13:52:47Z</time>
      </trkpt>
      <trkpt lat="42.796706" lon="-.590013">
        <ele>1777.124</ele>
        <time>2020-09-05T13:52:54Z</time>
      </trkpt>
      <trkpt lat="42.796728" lon="-.589954">
        <ele>1776.608</ele>
        <time>2020-09-05T13:53:04Z</time>
      </trkpt>
      <trkpt lat="42.796766" lon="-.589918">
        <ele>1776.261</ele>
        <time>2020-09-05T13:53:17Z</time>
      </trkpt>
      <trkpt lat="42.796801" lon="-.589871">
        <ele>1776.052</ele>
        <time>2020-09-05T13:53:23Z</time>
      </trkpt>
      <trkpt lat="42.796814" lon="-.589812">
        <ele>1775.958</ele>
        <time>2020-09-05T13:53:29Z</time>
      </trkpt>
      <trkpt lat="42.796839" lon="-.589757">
        <ele>1775.986</ele>
        <time>2020-09-05T13:53:36Z</time>
      </trkpt>
      <trkpt lat="42.796864" lon="-.589702">
        <ele>1776.027</ele>
        <time>2020-09-05T13:53:44Z</time>
      </trkpt>
      <trkpt lat="42.796908" lon="-.589687">
        <ele>1776.274</ele>
        <time>2020-09-05T13:53:55Z</time>
      </trkpt>
      <trkpt lat="42.79694" lon="-.589638">
        <ele>1776.440</ele>
        <time>2020-09-05T13:54:04Z</time>
      </trkpt>
      <trkpt lat="42.796963" lon="-.589575">
        <ele>1776.770</ele>
        <time>2020-09-05T13:54:10Z</time>
      </trkpt>
      <trkpt lat="42.796983" lon="-.589517">
        <ele>1777.143</ele>
        <time>2020-09-05T13:54:15Z</time>
      </trkpt>
      <trkpt lat="42.797008" lon="-.589463">
        <ele>1777.564</ele>
        <time>2020-09-05T13:54:20Z</time>
      </trkpt>
      <trkpt lat="42.797011" lon="-.5894">
        <ele>1778.110</ele>
        <time>2020-09-05T13:54:29Z</time>
      </trkpt>
      <trkpt lat="42.797025" lon="-.589341">
        <ele>1778.608</ele>
        <time>2020-09-05T13:54:37Z</time>
      </trkpt>
      <trkpt lat="42.797035" lon="-.589272">
        <ele>1778.949</ele>
        <time>2020-09-05T13:55:00Z</time>
      </trkpt>
      <trkpt lat="42.797047" lon="-.589213">
        <ele>1778.830</ele>
        <time>2020-09-05T13:55:06Z</time>
      </trkpt>
      <trkpt lat="42.797023" lon="-.589161">
        <ele>1778.846</ele>
        <time>2020-09-05T13:55:13Z</time>
      </trkpt>
      <trkpt lat="42.797012" lon="-.5891">
        <ele>1778.814</ele>
        <time>2020-09-05T13:55:19Z</time>
      </trkpt>
      <trkpt lat="42.797004" lon="-.589038">
        <ele>1778.915</ele>
        <time>2020-09-05T13:55:27Z</time>
      </trkpt>
      <trkpt lat="42.797006" lon="-.588971">
        <ele>1778.842</ele>
        <time>2020-09-05T13:56:02Z</time>
      </trkpt>
      <trkpt lat="42.797016" lon="-.588909">
        <ele>1778.348</ele>
        <time>2020-09-05T13:56:08Z</time>
      </trkpt>
      <trkpt lat="42.797026" lon="-.588846">
        <ele>1777.468</ele>
        <time>2020-09-05T13:56:18Z</time>
      </trkpt>
      <trkpt lat="42.797039" lon="-.588786">
        <ele>1776.783</ele>
        <time>2020-09-05T13:56:25Z</time>
      </trkpt>
      <trkpt lat="42.797054" lon="-.588721">
        <ele>1776.125</ele>
        <time>2020-09-05T13:56:33Z</time>
      </trkpt>
      <trkpt lat="42.797052" lon="-.588659">
        <ele>1775.417</ele>
        <time>2020-09-05T13:56:40Z</time>
      </trkpt>
      <trkpt lat="42.797078" lon="-.588606">
        <ele>1774.808</ele>
        <time>2020-09-05T13:56:48Z</time>
      </trkpt>
      <trkpt lat="42.797067" lon="-.588545">
        <ele>1774.843</ele>
        <time>2020-09-05T13:56:57Z</time>
      </trkpt>
      <trkpt lat="42.797045" lon="-.58849">
        <ele>1774.944</ele>
        <time>2020-09-05T13:57:03Z</time>
      </trkpt>
      <trkpt lat="42.797027" lon="-.588427">
        <ele>1775.330</ele>
        <time>2020-09-05T13:57:12Z</time>
      </trkpt>
      <trkpt lat="42.797033" lon="-.588363">
        <ele>1775.228</ele>
        <time>2020-09-05T13:57:20Z</time>
      </trkpt>
      <trkpt lat="42.79701" lon="-.588301">
        <ele>1774.649</ele>
        <time>2020-09-05T13:57:29Z</time>
      </trkpt>
      <trkpt lat="42.796968" lon="-.588271">
        <ele>1774.186</ele>
        <time>2020-09-05T13:57:35Z</time>
      </trkpt>
      <trkpt lat="42.796938" lon="-.588224">
        <ele>1773.842</ele>
        <time>2020-09-05T13:57:41Z</time>
      </trkpt>
      <trkpt lat="42.79691" lon="-.588174">
        <ele>1773.832</ele>
        <time>2020-09-05T13:57:46Z</time>
      </trkpt>
      <trkpt lat="42.7969" lon="-.588111">
        <ele>1774.187</ele>
        <time>2020-09-05T13:57:53Z</time>
      </trkpt>
      <trkpt lat="42.796937" lon="-.588075">
        <ele>1774.642</ele>
        <time>2020-09-05T13:58:11Z</time>
      </trkpt>
      <trkpt lat="42.796967" lon="-.588021">
        <ele>1775.726</ele>
        <time>2020-09-05T13:58:29Z</time>
      </trkpt>
      <trkpt lat="42.79701" lon="-.58804">
        <ele>1776.408</ele>
        <time>2020-09-05T13:58:36Z</time>
      </trkpt>
      <trkpt lat="42.797052" lon="-.588071">
        <ele>1777.063</ele>
        <time>2020-09-05T13:58:43Z</time>
      </trkpt>
      <trkpt lat="42.797095" lon="-.588089">
        <ele>1777.374</ele>
        <time>2020-09-05T13:58:49Z</time>
      </trkpt>
      <trkpt lat="42.797114" lon="-.588033">
        <ele>1777.460</ele>
        <time>2020-09-05T13:59:01Z</time>
      </trkpt>
      <trkpt lat="42.797153" lon="-.587998">
        <ele>1777.258</ele>
        <time>2020-09-05T13:59:11Z</time>
      </trkpt>
      <trkpt lat="42.7972" lon="-.587999">
        <ele>1776.899</ele>
        <time>2020-09-05T13:59:17Z</time>
      </trkpt>
      <trkpt lat="42.797241" lon="-.588043">
        <ele>1776.336</ele>
        <time>2020-09-05T13:59:22Z</time>
      </trkpt>
      <trkpt lat="42.797288" lon="-.588034">
        <ele>1775.472</ele>
        <time>2020-09-05T13:59:29Z</time>
      </trkpt>
      <trkpt lat="42.797329" lon="-.588065">
        <ele>1774.212</ele>
        <time>2020-09-05T13:59:37Z</time>
      </trkpt>
      <trkpt lat="42.797362" lon="-.588108">
        <ele>1772.725</ele>
        <time>2020-09-05T13:59:44Z</time>
      </trkpt>
      <trkpt lat="42.797382" lon="-.588164">
        <ele>1771.026</ele>
        <time>2020-09-05T13:59:50Z</time>
      </trkpt>
      <trkpt lat="42.797397" lon="-.588226">
        <ele>1769.008</ele>
        <time>2020-09-05T14:00:00Z</time>
      </trkpt>
      <trkpt lat="42.797432" lon="-.588268">
        <ele>1767.108</ele>
        <time>2020-09-05T14:00:06Z</time>
      </trkpt>
      <trkpt lat="42.797477" lon="-.58826">
        <ele>1765.317</ele>
        <time>2020-09-05T14:00:11Z</time>
      </trkpt>
      <trkpt lat="42.797498" lon="-.588321">
        <ele>1763.438</ele>
        <time>2020-09-05T14:00:22Z</time>
      </trkpt>
      <trkpt lat="42.7975" lon="-.588383">
        <ele>1762.094</ele>
        <time>2020-09-05T14:00:28Z</time>
      </trkpt>
      <trkpt lat="42.797488" lon="-.588444">
        <ele>1760.782</ele>
        <time>2020-09-05T14:00:34Z</time>
      </trkpt>
      <trkpt lat="42.797468" lon="-.5885">
        <ele>1758.963</ele>
        <time>2020-09-05T14:00:54Z</time>
      </trkpt>
      <trkpt lat="42.797436" lon="-.588551">
        <ele>1757.730</ele>
        <time>2020-09-05T14:01:02Z</time>
      </trkpt>
      <trkpt lat="42.797487" lon="-.588556">
        <ele>1766.246</ele>
        <time>2020-09-05T14:54:37Z</time>
      </trkpt>
      <trkpt lat="42.797442" lon="-.588578">
        <ele>1761.096</ele>
        <time>2020-09-05T14:54:42Z</time>
      </trkpt>
      <trkpt lat="42.797442" lon="-.588578">
        <ele>1761.092</ele>
        <time>2020-09-05T14:54:42Z</time>
      </trkpt>
      <trkpt lat="42.797405" lon="-.588631">
        <ele>1760.473</ele>
        <time>2020-09-05T14:54:43Z</time>
      </trkpt>
      <trkpt lat="42.797374" lon="-.588682">
        <ele>1758.220</ele>
        <time>2020-09-05T14:54:45Z</time>
      </trkpt>
      <trkpt lat="42.797403" lon="-.588629">
        <ele>1754.908</ele>
        <time>2020-09-05T14:54:49Z</time>
      </trkpt>
      <trkpt lat="42.797416" lon="-.588568">
        <ele>1750.914</ele>
        <time>2020-09-05T14:55:55Z</time>
      </trkpt>
      <trkpt lat="42.797424" lon="-.588502">
        <ele>1748.785</ele>
        <time>2020-09-05T14:57:28Z</time>
      </trkpt>
      <trkpt lat="42.797424" lon="-.58844">
        <ele>1748.281</ele>
        <time>2020-09-05T14:57:40Z</time>
      </trkpt>
      <trkpt lat="42.797424" lon="-.588377">
        <ele>1748.069</ele>
        <time>2020-09-05T14:57:52Z</time>
      </trkpt>
      <trkpt lat="42.797446" lon="-.588318">
        <ele>1748.570</ele>
        <time>2020-09-05T14:58:03Z</time>
      </trkpt>
      <trkpt lat="42.797459" lon="-.588257">
        <ele>1748.937</ele>
        <time>2020-09-05T14:58:07Z</time>
      </trkpt>
      <trkpt lat="42.797485" lon="-.588202">
        <ele>1749.343</ele>
        <time>2020-09-05T14:58:13Z</time>
      </trkpt>
      <trkpt lat="42.797506" lon="-.588144">
        <ele>1749.853</ele>
        <time>2020-09-05T14:58:18Z</time>
      </trkpt>
      <trkpt lat="42.797529" lon="-.588091">
        <ele>1750.262</ele>
        <time>2020-09-05T14:58:26Z</time>
      </trkpt>
      <trkpt lat="42.797566" lon="-.588045">
        <ele>1750.483</ele>
        <time>2020-09-05T14:58:32Z</time>
      </trkpt>
      <trkpt lat="42.797603" lon="-.587999">
        <ele>1750.511</ele>
        <time>2020-09-05T14:58:38Z</time>
      </trkpt>
      <trkpt lat="42.797641" lon="-.587958">
        <ele>1750.308</ele>
        <time>2020-09-05T14:58:47Z</time>
      </trkpt>
      <trkpt lat="42.797675" lon="-.587915">
        <ele>1750.181</ele>
        <time>2020-09-05T14:58:56Z</time>
      </trkpt>
      <trkpt lat="42.797704" lon="-.587862">
        <ele>1749.982</ele>
        <time>2020-09-05T14:59:01Z</time>
      </trkpt>
      <trkpt lat="42.79775" lon="-.587845">
        <ele>1749.878</ele>
        <time>2020-09-05T14:59:07Z</time>
      </trkpt>
      <trkpt lat="42.797796" lon="-.587865">
        <ele>1749.836</ele>
        <time>2020-09-05T14:59:14Z</time>
      </trkpt>
      <trkpt lat="42.797835" lon="-.587815">
        <ele>1751.227</ele>
        <time>2020-09-05T15:00:29Z</time>
      </trkpt>
      <trkpt lat="42.797864" lon="-.58776">
        <ele>1751.924</ele>
        <time>2020-09-05T15:00:34Z</time>
      </trkpt>
      <trkpt lat="42.797889" lon="-.587706">
        <ele>1752.150</ele>
        <time>2020-09-05T15:00:39Z</time>
      </trkpt>
      <trkpt lat="42.797905" lon="-.587641">
        <ele>1752.220</ele>
        <time>2020-09-05T15:00:44Z</time>
      </trkpt>
      <trkpt lat="42.797919" lon="-.587574">
        <ele>1752.173</ele>
        <time>2020-09-05T15:00:50Z</time>
      </trkpt>
      <trkpt lat="42.797928" lon="-.587505">
        <ele>1751.985</ele>
        <time>2020-09-05T15:00:57Z</time>
      </trkpt>
      <trkpt lat="42.797943" lon="-.587447">
        <ele>1751.513</ele>
        <time>2020-09-05T15:01:03Z</time>
      </trkpt>
      <trkpt lat="42.797922" lon="-.587387">
        <ele>1751.008</ele>
        <time>2020-09-05T15:01:11Z</time>
      </trkpt>
      <trkpt lat="42.797889" lon="-.587336">
        <ele>1750.472</ele>
        <time>2020-09-05T15:01:21Z</time>
      </trkpt>
      <trkpt lat="42.797853" lon="-.587287">
        <ele>1749.943</ele>
        <time>2020-09-05T15:01:29Z</time>
      </trkpt>
      <trkpt lat="42.797815" lon="-.587247">
        <ele>1749.639</ele>
        <time>2020-09-05T15:01:35Z</time>
      </trkpt>
      <trkpt lat="42.797781" lon="-.5872">
        <ele>1749.557</ele>
        <time>2020-09-05T15:01:41Z</time>
      </trkpt>
      <trkpt lat="42.797754" lon="-.587144">
        <ele>1749.268</ele>
        <time>2020-09-05T15:01:47Z</time>
      </trkpt>
      <trkpt lat="42.797731" lon="-.587085">
        <ele>1748.835</ele>
        <time>2020-09-05T15:01:52Z</time>
      </trkpt>
      <trkpt lat="42.797697" lon="-.587039">
        <ele>1748.421</ele>
        <time>2020-09-05T15:01:57Z</time>
      </trkpt>
      <trkpt lat="42.797662" lon="-.587">
        <ele>1748.411</ele>
        <time>2020-09-05T15:02:49Z</time>
      </trkpt>
      <trkpt lat="42.797634" lon="-.586943">
        <ele>1748.576</ele>
        <time>2020-09-05T15:02:57Z</time>
      </trkpt>
      <trkpt lat="42.797624" lon="-.586881">
        <ele>1748.690</ele>
        <time>2020-09-05T15:03:04Z</time>
      </trkpt>
      <trkpt lat="42.797618" lon="-.586817">
        <ele>1748.519</ele>
        <time>2020-09-05T15:03:08Z</time>
      </trkpt>
      <trkpt lat="42.797612" lon="-.586752">
        <ele>1748.508</ele>
        <time>2020-09-05T15:03:13Z</time>
      </trkpt>
      <trkpt lat="42.797608" lon="-.586687">
        <ele>1748.542</ele>
        <time>2020-09-05T15:03:17Z</time>
      </trkpt>
      <trkpt lat="42.797615" lon="-.586623">
        <ele>1748.733</ele>
        <time>2020-09-05T15:03:22Z</time>
      </trkpt>
      <trkpt lat="42.797605" lon="-.586554">
        <ele>1748.899</ele>
        <time>2020-09-05T15:03:28Z</time>
      </trkpt>
      <trkpt lat="42.797596" lon="-.586493">
        <ele>1748.877</ele>
        <time>2020-09-05T15:03:33Z</time>
      </trkpt>
      <trkpt lat="42.797595" lon="-.586431">
        <ele>1748.858</ele>
        <time>2020-09-05T15:03:37Z</time>
      </trkpt>
      <trkpt lat="42.797596" lon="-.586367">
        <ele>1748.965</ele>
        <time>2020-09-05T15:03:42Z</time>
      </trkpt>
      <trkpt lat="42.797574" lon="-.58631">
        <ele>1749.261</ele>
        <time>2020-09-05T15:03:50Z</time>
      </trkpt>
      <trkpt lat="42.797556" lon="-.586253">
        <ele>1749.731</ele>
        <time>2020-09-05T15:03:58Z</time>
      </trkpt>
      <trkpt lat="42.797561" lon="-.58619">
        <ele>1749.881</ele>
        <time>2020-09-05T15:04:04Z</time>
      </trkpt>
      <trkpt lat="42.797532" lon="-.586141">
        <ele>1750.061</ele>
        <time>2020-09-05T15:04:26Z</time>
      </trkpt>
      <trkpt lat="42.797517" lon="-.586076">
        <ele>1750.417</ele>
        <time>2020-09-05T15:04:33Z</time>
      </trkpt>
      <trkpt lat="42.797535" lon="-.586019">
        <ele>1751.108</ele>
        <time>2020-09-05T15:04:49Z</time>
      </trkpt>
      <trkpt lat="42.797537" lon="-.585957">
        <ele>1752.063</ele>
        <time>2020-09-05T15:04:56Z</time>
      </trkpt>
      <trkpt lat="42.797527" lon="-.585894">
        <ele>1752.884</ele>
        <time>2020-09-05T15:05:05Z</time>
      </trkpt>
      <trkpt lat="42.79752" lon="-.58583">
        <ele>1753.410</ele>
        <time>2020-09-05T15:05:11Z</time>
      </trkpt>
      <trkpt lat="42.797525" lon="-.585762">
        <ele>1753.968</ele>
        <time>2020-09-05T15:05:18Z</time>
      </trkpt>
      <trkpt lat="42.797526" lon="-.585696">
        <ele>1754.559</ele>
        <time>2020-09-05T15:05:28Z</time>
      </trkpt>
      <trkpt lat="42.797527" lon="-.585631">
        <ele>1755.356</ele>
        <time>2020-09-05T15:05:35Z</time>
      </trkpt>
      <trkpt lat="42.797531" lon="-.585569">
        <ele>1756.152</ele>
        <time>2020-09-05T15:05:42Z</time>
      </trkpt>
      <trkpt lat="42.797534" lon="-.585505">
        <ele>1756.922</ele>
        <time>2020-09-05T15:05:49Z</time>
      </trkpt>
      <trkpt lat="42.797531" lon="-.585434">
        <ele>1758.013</ele>
        <time>2020-09-05T15:05:54Z</time>
      </trkpt>
      <trkpt lat="42.797528" lon="-.585367">
        <ele>1759.243</ele>
        <time>2020-09-05T15:06:01Z</time>
      </trkpt>
      <trkpt lat="42.797523" lon="-.585304">
        <ele>1760.307</ele>
        <time>2020-09-05T15:06:07Z</time>
      </trkpt>
      <trkpt lat="42.797523" lon="-.585236">
        <ele>1761.308</ele>
        <time>2020-09-05T15:06:13Z</time>
      </trkpt>
      <trkpt lat="42.7975" lon="-.585176">
        <ele>1762.446</ele>
        <time>2020-09-05T15:06:19Z</time>
      </trkpt>
      <trkpt lat="42.797482" lon="-.585119">
        <ele>1763.817</ele>
        <time>2020-09-05T15:06:30Z</time>
      </trkpt>
      <trkpt lat="42.79746" lon="-.58506">
        <ele>1764.823</ele>
        <time>2020-09-05T15:06:36Z</time>
      </trkpt>
      <trkpt lat="42.797445" lon="-.584999">
        <ele>1765.731</ele>
        <time>2020-09-05T15:06:41Z</time>
      </trkpt>
      <trkpt lat="42.79741" lon="-.584954">
        <ele>1766.612</ele>
        <time>2020-09-05T15:06:47Z</time>
      </trkpt>
      <trkpt lat="42.797365" lon="-.584933">
        <ele>1767.849</ele>
        <time>2020-09-05T15:06:54Z</time>
      </trkpt>
      <trkpt lat="42.797331" lon="-.584883">
        <ele>1768.985</ele>
        <time>2020-09-05T15:07:01Z</time>
      </trkpt>
      <trkpt lat="42.7973" lon="-.584837">
        <ele>1769.825</ele>
        <time>2020-09-05T15:07:09Z</time>
      </trkpt>
      <trkpt lat="42.797278" lon="-.584778">
        <ele>1770.513</ele>
        <time>2020-09-05T15:07:15Z</time>
      </trkpt>
      <trkpt lat="42.797258" lon="-.584721">
        <ele>1771.343</ele>
        <time>2020-09-05T15:07:22Z</time>
      </trkpt>
      <trkpt lat="42.797213" lon="-.584717">
        <ele>1774.607</ele>
        <time>2020-09-05T15:08:12Z</time>
      </trkpt>
      <trkpt lat="42.797204" lon="-.584647">
        <ele>1777.208</ele>
        <time>2020-09-05T15:08:46Z</time>
      </trkpt>
      <trkpt lat="42.797188" lon="-.584587">
        <ele>1778.876</ele>
        <time>2020-09-05T15:08:50Z</time>
      </trkpt>
      <trkpt lat="42.797159" lon="-.584537">
        <ele>1779.627</ele>
        <time>2020-09-05T15:08:55Z</time>
      </trkpt>
      <trkpt lat="42.797118" lon="-.584502">
        <ele>1780.153</ele>
        <time>2020-09-05T15:09:01Z</time>
      </trkpt>
      <trkpt lat="42.797077" lon="-.584472">
        <ele>1780.731</ele>
        <time>2020-09-05T15:09:06Z</time>
      </trkpt>
      <trkpt lat="42.79704" lon="-.584436">
        <ele>1781.222</ele>
        <time>2020-09-05T15:09:11Z</time>
      </trkpt>
      <trkpt lat="42.797008" lon="-.584392">
        <ele>1781.469</ele>
        <time>2020-09-05T15:09:17Z</time>
      </trkpt>
      <trkpt lat="42.796983" lon="-.584339">
        <ele>1781.535</ele>
        <time>2020-09-05T15:09:24Z</time>
      </trkpt>
      <trkpt lat="42.796947" lon="-.584287">
        <ele>1781.665</ele>
        <time>2020-09-05T15:09:30Z</time>
      </trkpt>
      <trkpt lat="42.796917" lon="-.584234">
        <ele>1781.767</ele>
        <time>2020-09-05T15:09:36Z</time>
      </trkpt>
      <trkpt lat="42.79688" lon="-.584196">
        <ele>1781.981</ele>
        <time>2020-09-05T15:09:43Z</time>
      </trkpt>
      <trkpt lat="42.79688" lon="-.584196">
        <ele>1781.919</ele>
        <time>2020-09-05T15:09:43Z</time>
      </trkpt>
      <trkpt lat="42.796854" lon="-.584144">
        <ele>1782.108</ele>
        <time>2020-09-05T15:09:48Z</time>
      </trkpt>
      <trkpt lat="42.796841" lon="-.584084">
        <ele>1782.691</ele>
        <time>2020-09-05T15:09:53Z</time>
      </trkpt>
      <trkpt lat="42.796832" lon="-.584024">
        <ele>1783.272</ele>
        <time>2020-09-05T15:09:57Z</time>
      </trkpt>
      <trkpt lat="42.796799" lon="-.583972">
        <ele>1783.718</ele>
        <time>2020-09-05T15:10:04Z</time>
      </trkpt>
      <trkpt lat="42.796761" lon="-.583925">
        <ele>1784.226</ele>
        <time>2020-09-05T15:10:09Z</time>
      </trkpt>
      <trkpt lat="42.796723" lon="-.583885">
        <ele>1784.657</ele>
        <time>2020-09-05T15:10:25Z</time>
      </trkpt>
      <trkpt lat="42.796689" lon="-.58384">
        <ele>1784.884</ele>
        <time>2020-09-05T15:10:30Z</time>
      </trkpt>
      <trkpt lat="42.796648" lon="-.5838">
        <ele>1785.210</ele>
        <time>2020-09-05T15:10:35Z</time>
      </trkpt>
      <trkpt lat="42.796604" lon="-.583782">
        <ele>1785.890</ele>
        <time>2020-09-05T15:10:40Z</time>
      </trkpt>
      <trkpt lat="42.79656" lon="-.583798">
        <ele>1786.827</ele>
        <time>2020-09-05T15:10:57Z</time>
      </trkpt>
      <trkpt lat="42.796536" lon="-.583856">
        <ele>1788.168</ele>
        <time>2020-09-05T15:11:04Z</time>
      </trkpt>
      <trkpt lat="42.796486" lon="-.583867">
        <ele>1788.314</ele>
        <time>2020-09-05T15:11:21Z</time>
      </trkpt>
      <trkpt lat="42.79644" lon="-.583868">
        <ele>1788.208</ele>
        <time>2020-09-05T15:11:26Z</time>
      </trkpt>
      <trkpt lat="42.796395" lon="-.583858">
        <ele>1788.177</ele>
        <time>2020-09-05T15:11:33Z</time>
      </trkpt>
      <trkpt lat="42.796347" lon="-.583854">
        <ele>1788.018</ele>
        <time>2020-09-05T15:11:39Z</time>
      </trkpt>
      <trkpt lat="42.796298" lon="-.583851">
        <ele>1788.014</ele>
        <time>2020-09-05T15:11:45Z</time>
      </trkpt>
      <trkpt lat="42.796264" lon="-.583893">
        <ele>1788.072</ele>
        <time>2020-09-05T15:11:51Z</time>
      </trkpt>
      <trkpt lat="42.796257" lon="-.583956">
        <ele>1788.463</ele>
        <time>2020-09-05T15:11:58Z</time>
      </trkpt>
      <trkpt lat="42.796243" lon="-.584017">
        <ele>1788.940</ele>
        <time>2020-09-05T15:12:05Z</time>
      </trkpt>
      <trkpt lat="42.796208" lon="-.584064">
        <ele>1789.986</ele>
        <time>2020-09-05T15:12:16Z</time>
      </trkpt>
      <trkpt lat="42.796179" lon="-.584118">
        <ele>1790.956</ele>
        <time>2020-09-05T15:12:22Z</time>
      </trkpt>
      <trkpt lat="42.796162" lon="-.584179">
        <ele>1792.491</ele>
        <time>2020-09-05T15:12:29Z</time>
      </trkpt>
      <trkpt lat="42.796143" lon="-.584239">
        <ele>1794.081</ele>
        <time>2020-09-05T15:12:36Z</time>
      </trkpt>
      <trkpt lat="42.796109" lon="-.584283">
        <ele>1796.119</ele>
        <time>2020-09-05T15:12:55Z</time>
      </trkpt>
      <trkpt lat="42.796064" lon="-.584297">
        <ele>1797.908</ele>
        <time>2020-09-05T15:13:00Z</time>
      </trkpt>
      <trkpt lat="42.796023" lon="-.584324">
        <ele>1799.724</ele>
        <time>2020-09-05T15:13:06Z</time>
      </trkpt>
      <trkpt lat="42.795973" lon="-.584335">
        <ele>1801.735</ele>
        <time>2020-09-05T15:13:13Z</time>
      </trkpt>
      <trkpt lat="42.795929" lon="-.584348">
        <ele>1803.921</ele>
        <time>2020-09-05T15:13:22Z</time>
      </trkpt>
      <trkpt lat="42.795894" lon="-.58439">
        <ele>1806.359</ele>
        <time>2020-09-05T15:13:31Z</time>
      </trkpt>
      <trkpt lat="42.795852" lon="-.584427">
        <ele>1808.560</ele>
        <time>2020-09-05T15:13:42Z</time>
      </trkpt>
      <trkpt lat="42.795802" lon="-.584448">
        <ele>1810.267</ele>
        <time>2020-09-05T15:13:48Z</time>
      </trkpt>
      <trkpt lat="42.795761" lon="-.584474">
        <ele>1811.633</ele>
        <time>2020-09-05T15:13:54Z</time>
      </trkpt>
      <trkpt lat="42.795716" lon="-.584485">
        <ele>1812.993</ele>
        <time>2020-09-05T15:14:03Z</time>
      </trkpt>
      <trkpt lat="42.795674" lon="-.58451">
        <ele>1814.545</ele>
        <time>2020-09-05T15:14:17Z</time>
      </trkpt>
      <trkpt lat="42.795665" lon="-.584444">
        <ele>1815.647</ele>
        <time>2020-09-05T15:14:29Z</time>
      </trkpt>
      <trkpt lat="42.795687" lon="-.584382">
        <ele>1816.411</ele>
        <time>2020-09-05T15:14:35Z</time>
      </trkpt>
      <trkpt lat="42.795693" lon="-.584318">
        <ele>1817.108</ele>
        <time>2020-09-05T15:14:42Z</time>
      </trkpt>
      <trkpt lat="42.795651" lon="-.584347">
        <ele>1818.059</ele>
        <time>2020-09-05T15:14:49Z</time>
      </trkpt>
      <trkpt lat="42.795609" lon="-.584378">
        <ele>1818.860</ele>
        <time>2020-09-05T15:14:54Z</time>
      </trkpt>
      <trkpt lat="42.795636" lon="-.584325">
        <ele>1820.046</ele>
        <time>2020-09-05T15:15:09Z</time>
      </trkpt>
      <trkpt lat="42.795593" lon="-.584296">
        <ele>1821.494</ele>
        <time>2020-09-05T15:15:24Z</time>
      </trkpt>
      <trkpt lat="42.795592" lon="-.584233">
        <ele>1822.155</ele>
        <time>2020-09-05T15:15:41Z</time>
      </trkpt>
      <trkpt lat="42.795544" lon="-.584218">
        <ele>1822.732</ele>
        <time>2020-09-05T15:15:48Z</time>
      </trkpt>
      <trkpt lat="42.795498" lon="-.58421">
        <ele>1823.478</ele>
        <time>2020-09-05T15:15:54Z</time>
      </trkpt>
      <trkpt lat="42.795515" lon="-.584153">
        <ele>1824.048</ele>
        <time>2020-09-05T15:16:05Z</time>
      </trkpt>
      <trkpt lat="42.795534" lon="-.584094">
        <ele>1825.193</ele>
        <time>2020-09-05T15:16:17Z</time>
      </trkpt>
      <trkpt lat="42.79554" lon="-.584031">
        <ele>1826.265</ele>
        <time>2020-09-05T15:16:26Z</time>
      </trkpt>
      <trkpt lat="42.795556" lon="-.583973">
        <ele>1827.121</ele>
        <time>2020-09-05T15:16:41Z</time>
      </trkpt>
      <trkpt lat="42.795573" lon="-.583915">
        <ele>1828.908</ele>
        <time>2020-09-05T15:16:52Z</time>
      </trkpt>
      <trkpt lat="42.795548" lon="-.583864">
        <ele>1830.894</ele>
        <time>2020-09-05T15:17:01Z</time>
      </trkpt>
      <trkpt lat="42.795526" lon="-.58381">
        <ele>1832.215</ele>
        <time>2020-09-05T15:17:09Z</time>
      </trkpt>
      <trkpt lat="42.795563" lon="-.583764">
        <ele>1836.241</ele>
        <time>2020-09-05T15:20:52Z</time>
      </trkpt>
      <trkpt lat="42.7956" lon="-.583719">
        <ele>1838.999</ele>
        <time>2020-09-05T15:20:56Z</time>
      </trkpt>
      <trkpt lat="42.795621" lon="-.583664">
        <ele>1840.620</ele>
        <time>2020-09-05T15:21:02Z</time>
      </trkpt>
      <trkpt lat="42.795625" lon="-.583602">
        <ele>1841.687</ele>
        <time>2020-09-05T15:21:08Z</time>
      </trkpt>
      <trkpt lat="42.795615" lon="-.583539">
        <ele>1842.193</ele>
        <time>2020-09-05T15:21:15Z</time>
      </trkpt>
      <trkpt lat="42.795628" lon="-.583479">
        <ele>1841.923</ele>
        <time>2020-09-05T15:21:23Z</time>
      </trkpt>
      <trkpt lat="42.795586" lon="-.583447">
        <ele>1841.654</ele>
        <time>2020-09-05T15:21:31Z</time>
      </trkpt>
      <trkpt lat="42.795561" lon="-.583391">
        <ele>1841.356</ele>
        <time>2020-09-05T15:21:37Z</time>
      </trkpt>
      <trkpt lat="42.795514" lon="-.583381">
        <ele>1840.911</ele>
        <time>2020-09-05T15:21:44Z</time>
      </trkpt>
      <trkpt lat="42.795472" lon="-.583403">
        <ele>1840.608</ele>
        <time>2020-09-05T15:21:53Z</time>
      </trkpt>
      <trkpt lat="42.795446" lon="-.583455">
        <ele>1840.950</ele>
        <time>2020-09-05T15:22:03Z</time>
      </trkpt>
      <trkpt lat="42.795427" lon="-.583514">
        <ele>1841.681</ele>
        <time>2020-09-05T15:22:29Z</time>
      </trkpt>
      <trkpt lat="42.795403" lon="-.58357">
        <ele>1842.857</ele>
        <time>2020-09-05T15:22:37Z</time>
      </trkpt>
      <trkpt lat="42.795379" lon="-.583625">
        <ele>1844.065</ele>
        <time>2020-09-05T15:22:43Z</time>
      </trkpt>
      <trkpt lat="42.795337" lon="-.583661">
        <ele>1845.296</ele>
        <time>2020-09-05T15:22:48Z</time>
      </trkpt>
      <trkpt lat="42.795289" lon="-.583678">
        <ele>1846.343</ele>
        <time>2020-09-05T15:22:54Z</time>
      </trkpt>
      <trkpt lat="42.795285" lon="-.583617">
        <ele>1847.719</ele>
        <time>2020-09-05T15:23:07Z</time>
      </trkpt>
      <trkpt lat="42.795315" lon="-.583562">
        <ele>1849.349</ele>
        <time>2020-09-05T15:23:13Z</time>
      </trkpt>
      <trkpt lat="42.79529" lon="-.583511">
        <ele>1851.542</ele>
        <time>2020-09-05T15:23:24Z</time>
      </trkpt>
      <trkpt lat="42.795244" lon="-.583533">
        <ele>1853.622</ele>
        <time>2020-09-05T15:23:31Z</time>
      </trkpt>
      <trkpt lat="42.795205" lon="-.583569">
        <ele>1855.414</ele>
        <time>2020-09-05T15:23:37Z</time>
      </trkpt>
      <trkpt lat="42.795174" lon="-.583613">
        <ele>1857.308</ele>
        <time>2020-09-05T15:23:44Z</time>
      </trkpt>
      <trkpt lat="42.795142" lon="-.583664">
        <ele>1858.959</ele>
        <time>2020-09-05T15:23:50Z</time>
      </trkpt>
      <trkpt lat="42.795111" lon="-.583711">
        <ele>1860.690</ele>
        <time>2020-09-05T15:23:58Z</time>
      </trkpt>
      <trkpt lat="42.795113" lon="-.583772">
        <ele>1861.946</ele>
        <time>2020-09-05T15:24:12Z</time>
      </trkpt>
      <trkpt lat="42.795113" lon="-.583835">
        <ele>1865.994</ele>
        <time>2020-09-05T15:25:21Z</time>
      </trkpt>
      <trkpt lat="42.795076" lon="-.583876">
        <ele>1868.745</ele>
        <time>2020-09-05T15:25:28Z</time>
      </trkpt>
      <trkpt lat="42.795041" lon="-.583924">
        <ele>1870.612</ele>
        <time>2020-09-05T15:25:32Z</time>
      </trkpt>
      <trkpt lat="42.795002" lon="-.583959">
        <ele>1871.968</ele>
        <time>2020-09-05T15:25:37Z</time>
      </trkpt>
      <trkpt lat="42.794987" lon="-.583894">
        <ele>1872.768</ele>
        <time>2020-09-05T15:25:43Z</time>
      </trkpt>
      <trkpt lat="42.794986" lon="-.583832">
        <ele>1873.354</ele>
        <time>2020-09-05T15:25:52Z</time>
      </trkpt>
      <trkpt lat="42.795013" lon="-.583779">
        <ele>1873.756</ele>
        <time>2020-09-05T15:25:58Z</time>
      </trkpt>
      <trkpt lat="42.794999" lon="-.583711">
        <ele>1874.311</ele>
        <time>2020-09-05T15:26:06Z</time>
      </trkpt>
      <trkpt lat="42.794974" lon="-.583659">
        <ele>1874.908</ele>
        <time>2020-09-05T15:26:14Z</time>
      </trkpt>
      <trkpt lat="42.794966" lon="-.583596">
        <ele>1875.560</ele>
        <time>2020-09-05T15:26:24Z</time>
      </trkpt>
      <trkpt lat="42.79498" lon="-.583531">
        <ele>1876.021</ele>
        <time>2020-09-05T15:26:31Z</time>
      </trkpt>
      <trkpt lat="42.794966" lon="-.583471">
        <ele>1876.587</ele>
        <time>2020-09-05T15:26:42Z</time>
      </trkpt>
      <trkpt lat="42.794922" lon="-.583491">
        <ele>1877.015</ele>
        <time>2020-09-05T15:26:50Z</time>
      </trkpt>
      <trkpt lat="42.794875" lon="-.58349">
        <ele>1877.626</ele>
        <time>2020-09-05T15:26:58Z</time>
      </trkpt>
      <trkpt lat="42.794878" lon="-.583425">
        <ele>1878.363</ele>
        <time>2020-09-05T15:27:07Z</time>
      </trkpt>
      <trkpt lat="42.794908" lon="-.583374">
        <ele>1879.089</ele>
        <time>2020-09-05T15:27:13Z</time>
      </trkpt>
      <trkpt lat="42.794948" lon="-.583342">
        <ele>1879.789</ele>
        <time>2020-09-05T15:27:19Z</time>
      </trkpt>
      <trkpt lat="42.794989" lon="-.583318">
        <ele>1880.847</ele>
        <time>2020-09-05T15:27:33Z</time>
      </trkpt>
      <trkpt lat="42.794998" lon="-.583252">
        <ele>1882.029</ele>
        <time>2020-09-05T15:30:22Z</time>
      </trkpt>
      <trkpt lat="42.794963" lon="-.58321">
        <ele>1882.621</ele>
        <time>2020-09-05T15:30:40Z</time>
      </trkpt>
      <trkpt lat="42.794951" lon="-.583143">
        <ele>1883.208</ele>
        <time>2020-09-05T15:30:47Z</time>
      </trkpt>
      <trkpt lat="42.794962" lon="-.583079">
        <ele>1883.779</ele>
        <time>2020-09-05T15:30:52Z</time>
      </trkpt>
      <trkpt lat="42.794991" lon="-.583026">
        <ele>1884.280</ele>
        <time>2020-09-05T15:30:58Z</time>
      </trkpt>
      <trkpt lat="42.795018" lon="-.582971">
        <ele>1884.816</ele>
        <time>2020-09-05T15:31:04Z</time>
      </trkpt>
      <trkpt lat="42.795054" lon="-.582932">
        <ele>1885.644</ele>
        <time>2020-09-05T15:31:08Z</time>
      </trkpt>
      <trkpt lat="42.795075" lon="-.582867">
        <ele>1886.385</ele>
        <time>2020-09-05T15:31:13Z</time>
      </trkpt>
      <trkpt lat="42.795089" lon="-.582809">
        <ele>1887.052</ele>
        <time>2020-09-05T15:31:16Z</time>
      </trkpt>
      <trkpt lat="42.795093" lon="-.582741">
        <ele>1887.378</ele>
        <time>2020-09-05T15:31:21Z</time>
      </trkpt>
      <trkpt lat="42.79508" lon="-.582678">
        <ele>1887.328</ele>
        <time>2020-09-05T15:31:27Z</time>
      </trkpt>
      <trkpt lat="42.795052" lon="-.582628">
        <ele>1887.357</ele>
        <time>2020-09-05T15:31:32Z</time>
      </trkpt>
      <trkpt lat="42.795018" lon="-.582581">
        <ele>1887.200</ele>
        <time>2020-09-05T15:31:37Z</time>
      </trkpt>
      <trkpt lat="42.795004" lon="-.582522">
        <ele>1887.120</ele>
        <time>2020-09-05T15:31:43Z</time>
      </trkpt>
      <trkpt lat="42.795034" lon="-.582473">
        <ele>1887.108</ele>
        <time>2020-09-05T15:31:50Z</time>
      </trkpt>
      <trkpt lat="42.79504" lon="-.582412">
        <ele>1887.060</ele>
        <time>2020-09-05T15:32:00Z</time>
      </trkpt>
      <trkpt lat="42.795051" lon="-.582348">
        <ele>1887.051</ele>
        <time>2020-09-05T15:32:08Z</time>
      </trkpt>
      <trkpt lat="42.795035" lon="-.582288">
        <ele>1887.087</ele>
        <time>2020-09-05T15:32:14Z</time>
      </trkpt>
      <trkpt lat="42.795015" lon="-.582228">
        <ele>1887.345</ele>
        <time>2020-09-05T15:32:20Z</time>
      </trkpt>
      <trkpt lat="42.794985" lon="-.582182">
        <ele>1887.936</ele>
        <time>2020-09-05T15:32:32Z</time>
      </trkpt>
      <trkpt lat="42.794938" lon="-.582192">
        <ele>1888.533</ele>
        <time>2020-09-05T15:32:38Z</time>
      </trkpt>
      <trkpt lat="42.794891" lon="-.582213">
        <ele>1889.249</ele>
        <time>2020-09-05T15:32:44Z</time>
      </trkpt>
      <trkpt lat="42.794858" lon="-.582254">
        <ele>1890.129</ele>
        <time>2020-09-05T15:32:50Z</time>
      </trkpt>
      <trkpt lat="42.794826" lon="-.582297">
        <ele>1891.443</ele>
        <time>2020-09-05T15:33:03Z</time>
      </trkpt>
      <trkpt lat="42.794798" lon="-.582348">
        <ele>1893.264</ele>
        <time>2020-09-05T15:33:14Z</time>
      </trkpt>
      <trkpt lat="42.794773" lon="-.582404">
        <ele>1895.010</ele>
        <time>2020-09-05T15:33:24Z</time>
      </trkpt>
      <trkpt lat="42.794737" lon="-.582446">
        <ele>1896.708</ele>
        <time>2020-09-05T15:33:37Z</time>
      </trkpt>
      <trkpt lat="42.794689" lon="-.582479">
        <ele>1900.279</ele>
        <time>2020-09-05T15:34:08Z</time>
      </trkpt>
      <trkpt lat="42.794646" lon="-.582498">
        <ele>1902.980</ele>
        <time>2020-09-05T15:34:17Z</time>
      </trkpt>
      <trkpt lat="42.794672" lon="-.582447">
        <ele>1906.926</ele>
        <time>2020-09-05T15:35:27Z</time>
      </trkpt>
      <trkpt lat="42.794655" lon="-.582388">
        <ele>1910.624</ele>
        <time>2020-09-05T15:35:35Z</time>
      </trkpt>
      <trkpt lat="42.794606" lon="-.582356">
        <ele>1913.485</ele>
        <time>2020-09-05T15:35:54Z</time>
      </trkpt>
      <trkpt lat="42.79456" lon="-.582335">
        <ele>1915.662</ele>
        <time>2020-09-05T15:36:00Z</time>
      </trkpt>
      <trkpt lat="42.794515" lon="-.582327">
        <ele>1917.978</ele>
        <time>2020-09-05T15:36:15Z</time>
      </trkpt>
      <trkpt lat="42.794469" lon="-.582344">
        <ele>1920.288</ele>
        <time>2020-09-05T15:36:23Z</time>
      </trkpt>
      <trkpt lat="42.794424" lon="-.582357">
        <ele>1922.173</ele>
        <time>2020-09-05T15:36:29Z</time>
      </trkpt>
      <trkpt lat="42.794379" lon="-.582361">
        <ele>1924.485</ele>
        <time>2020-09-05T15:36:39Z</time>
      </trkpt>
      <trkpt lat="42.794332" lon="-.582361">
        <ele>1926.513</ele>
        <time>2020-09-05T15:36:48Z</time>
      </trkpt>
      <trkpt lat="42.794288" lon="-.582382">
        <ele>1928.308</ele>
        <time>2020-09-05T15:36:57Z</time>
      </trkpt>
      <trkpt lat="42.794246" lon="-.582408">
        <ele>1929.792</ele>
        <time>2020-09-05T15:37:04Z</time>
      </trkpt>
      <trkpt lat="42.7942" lon="-.582427">
        <ele>1931.213</ele>
        <time>2020-09-05T15:37:13Z</time>
      </trkpt>
      <trkpt lat="42.794158" lon="-.582453">
        <ele>1932.899</ele>
        <time>2020-09-05T15:37:22Z</time>
      </trkpt>
      <trkpt lat="42.79412" lon="-.582491">
        <ele>1933.817</ele>
        <time>2020-09-05T15:37:31Z</time>
      </trkpt>
      <trkpt lat="42.794084" lon="-.582452">
        <ele>1934.568</ele>
        <time>2020-09-05T15:37:41Z</time>
      </trkpt>
      <trkpt lat="42.794043" lon="-.582425">
        <ele>1936.575</ele>
        <time>2020-09-05T15:39:30Z</time>
      </trkpt>
      <trkpt lat="42.794015" lon="-.582374">
        <ele>1937.671</ele>
        <time>2020-09-05T15:39:34Z</time>
      </trkpt>
      <trkpt lat="42.793997" lon="-.582316">
        <ele>1938.111</ele>
        <time>2020-09-05T15:39:39Z</time>
      </trkpt>
      <trkpt lat="42.793957" lon="-.582278">
        <ele>1938.151</ele>
        <time>2020-09-05T15:39:47Z</time>
      </trkpt>
      <trkpt lat="42.793912" lon="-.582263">
        <ele>1938.101</ele>
        <time>2020-09-05T15:39:54Z</time>
      </trkpt>
      <trkpt lat="42.793889" lon="-.582318">
        <ele>1938.211</ele>
        <time>2020-09-05T15:40:03Z</time>
      </trkpt>
      <trkpt lat="42.793849" lon="-.582355">
        <ele>1938.208</ele>
        <time>2020-09-05T15:40:09Z</time>
      </trkpt>
      <trkpt lat="42.793802" lon="-.582359">
        <ele>1937.990</ele>
        <time>2020-09-05T15:40:15Z</time>
      </trkpt>
      <trkpt lat="42.79378" lon="-.582418">
        <ele>1937.791</ele>
        <time>2020-09-05T15:40:56Z</time>
      </trkpt>
      <trkpt lat="42.793736" lon="-.582445">
        <ele>1937.037</ele>
        <time>2020-09-05T15:44:09Z</time>
      </trkpt>
      <trkpt lat="42.793702" lon="-.582495">
        <ele>1936.535</ele>
        <time>2020-09-05T15:44:15Z</time>
      </trkpt>
      <trkpt lat="42.793664" lon="-.582528">
        <ele>1936.196</ele>
        <time>2020-09-05T15:44:20Z</time>
      </trkpt>
      <trkpt lat="42.793633" lon="-.582579">
        <ele>1935.883</ele>
        <time>2020-09-05T15:44:24Z</time>
      </trkpt>
      <trkpt lat="42.793604" lon="-.582634">
        <ele>1935.719</ele>
        <time>2020-09-05T15:44:29Z</time>
      </trkpt>
      <trkpt lat="42.793588" lon="-.582699">
        <ele>1935.669</ele>
        <time>2020-09-05T15:44:34Z</time>
      </trkpt>
      <trkpt lat="42.793565" lon="-.582758">
        <ele>1935.583</ele>
        <time>2020-09-05T15:44:39Z</time>
      </trkpt>
      <trkpt lat="42.79353" lon="-.582802">
        <ele>1935.525</ele>
        <time>2020-09-05T15:44:44Z</time>
      </trkpt>
      <trkpt lat="42.793484" lon="-.582813">
        <ele>1935.417</ele>
        <time>2020-09-05T15:44:48Z</time>
      </trkpt>
      <trkpt lat="42.793439" lon="-.582815">
        <ele>1935.308</ele>
        <time>2020-09-05T15:44:52Z</time>
      </trkpt>
      <trkpt lat="42.793393" lon="-.58278">
        <ele>1935.183</ele>
        <time>2020-09-05T15:44:56Z</time>
      </trkpt>
      <trkpt lat="42.793344" lon="-.582773">
        <ele>1934.834</ele>
        <time>2020-09-05T15:45:00Z</time>
      </trkpt>
      <trkpt lat="42.793302" lon="-.582799">
        <ele>1934.580</ele>
        <time>2020-09-05T15:45:08Z</time>
      </trkpt>
      <trkpt lat="42.793252" lon="-.582802">
        <ele>1934.098</ele>
        <time>2020-09-05T15:45:14Z</time>
      </trkpt>
      <trkpt lat="42.79321" lon="-.582831">
        <ele>1933.559</ele>
        <time>2020-09-05T15:45:23Z</time>
      </trkpt>
      <trkpt lat="42.793174" lon="-.582873">
        <ele>1932.916</ele>
        <time>2020-09-05T15:45:30Z</time>
      </trkpt>
      <trkpt lat="42.79317" lon="-.582935">
        <ele>1932.432</ele>
        <time>2020-09-05T15:45:35Z</time>
      </trkpt>
      <trkpt lat="42.793161" lon="-.582997">
        <ele>1931.992</ele>
        <time>2020-09-05T15:45:41Z</time>
      </trkpt>
      <trkpt lat="42.793111" lon="-.582992">
        <ele>1931.091</ele>
        <time>2020-09-05T15:45:50Z</time>
      </trkpt>
      <trkpt lat="42.793074" lon="-.58303">
        <ele>1930.181</ele>
        <time>2020-09-05T15:45:55Z</time>
      </trkpt>
      <trkpt lat="42.793033" lon="-.58307">
        <ele>1929.219</ele>
        <time>2020-09-05T15:45:59Z</time>
      </trkpt>
      <trkpt lat="42.792992" lon="-.583102">
        <ele>1928.208</ele>
        <time>2020-09-05T15:46:04Z</time>
      </trkpt>
      <trkpt lat="42.792948" lon="-.583128">
        <ele>1927.184</ele>
        <time>2020-09-05T15:46:09Z</time>
      </trkpt>
      <trkpt lat="42.792902" lon="-.583156">
        <ele>1926.365</ele>
        <time>2020-09-05T15:46:13Z</time>
      </trkpt>
      <trkpt lat="42.792862" lon="-.583189">
        <ele>1925.731</ele>
        <time>2020-09-05T15:46:18Z</time>
      </trkpt>
      <trkpt lat="42.792832" lon="-.583245">
        <ele>1925.639</ele>
        <time>2020-09-05T15:46:49Z</time>
      </trkpt>
      <trkpt lat="42.792804" lon="-.583293">
        <ele>1925.940</ele>
        <time>2020-09-05T15:46:54Z</time>
      </trkpt>
      <trkpt lat="42.792764" lon="-.583323">
        <ele>1926.317</ele>
        <time>2020-09-05T15:47:01Z</time>
      </trkpt>
      <trkpt lat="42.792764" lon="-.583384">
        <ele>1927.173</ele>
        <time>2020-09-05T15:47:15Z</time>
      </trkpt>
      <trkpt lat="42.792742" lon="-.583441">
        <ele>1928.033</ele>
        <time>2020-09-05T15:47:23Z</time>
      </trkpt>
      <trkpt lat="42.792704" lon="-.583477">
        <ele>1928.825</ele>
        <time>2020-09-05T15:47:31Z</time>
      </trkpt>
      <trkpt lat="42.792656" lon="-.583462">
        <ele>1929.326</ele>
        <time>2020-09-05T15:47:38Z</time>
      </trkpt>
      <trkpt lat="42.792608" lon="-.583441">
        <ele>1929.508</ele>
        <time>2020-09-05T15:47:43Z</time>
      </trkpt>
      <trkpt lat="42.792571" lon="-.583479">
        <ele>1929.708</ele>
        <time>2020-09-05T15:47:48Z</time>
      </trkpt>
      <trkpt lat="42.792539" lon="-.583528">
        <ele>1929.867</ele>
        <time>2020-09-05T15:47:54Z</time>
      </trkpt>
      <trkpt lat="42.792516" lon="-.583583">
        <ele>1929.668</ele>
        <time>2020-09-05T15:48:00Z</time>
      </trkpt>
      <trkpt lat="42.792487" lon="-.583635">
        <ele>1929.264</ele>
        <time>2020-09-05T15:48:06Z</time>
      </trkpt>
      <trkpt lat="42.79247" lon="-.583696">
        <ele>1928.942</ele>
        <time>2020-09-05T15:48:11Z</time>
      </trkpt>
      <trkpt lat="42.792452" lon="-.583761">
        <ele>1928.563</ele>
        <time>2020-09-05T15:48:16Z</time>
      </trkpt>
      <trkpt lat="42.792433" lon="-.583821">
        <ele>1928.090</ele>
        <time>2020-09-05T15:48:20Z</time>
      </trkpt>
      <trkpt lat="42.792407" lon="-.583876">
        <ele>1927.376</ele>
        <time>2020-09-05T15:48:25Z</time>
      </trkpt>
      <trkpt lat="42.792373" lon="-.58393">
        <ele>1926.386</ele>
        <time>2020-09-05T15:48:31Z</time>
      </trkpt>
      <trkpt lat="42.792349" lon="-.583992">
        <ele>1924.944</ele>
        <time>2020-09-05T15:48:37Z</time>
      </trkpt>
      <trkpt lat="42.792331" lon="-.584057">
        <ele>1922.005</ele>
        <time>2020-09-05T15:48:56Z</time>
      </trkpt>
      <trkpt lat="42.792333" lon="-.584125">
        <ele>1919.715</ele>
        <time>2020-09-05T15:49:01Z</time>
      </trkpt>
      <trkpt lat="42.792316" lon="-.584192">
        <ele>1917.908</ele>
        <time>2020-09-05T15:49:06Z</time>
      </trkpt>
      <trkpt lat="42.79228" lon="-.584236">
        <ele>1916.579</ele>
        <time>2020-09-05T15:49:12Z</time>
      </trkpt>
      <trkpt lat="42.792264" lon="-.584298">
        <ele>1915.520</ele>
        <time>2020-09-05T15:49:18Z</time>
      </trkpt>
      <trkpt lat="42.792264" lon="-.584362">
        <ele>1914.616</ele>
        <time>2020-09-05T15:49:22Z</time>
      </trkpt>
      <trkpt lat="42.792249" lon="-.584421">
        <ele>1914.024</ele>
        <time>2020-09-05T15:49:27Z</time>
      </trkpt>
      <trkpt lat="42.792237" lon="-.584487">
        <ele>1913.585</ele>
        <time>2020-09-05T15:49:31Z</time>
      </trkpt>
      <trkpt lat="42.79224" lon="-.584549">
        <ele>1912.962</ele>
        <time>2020-09-05T15:49:35Z</time>
      </trkpt>
      <trkpt lat="42.792229" lon="-.584619">
        <ele>1912.278</ele>
        <time>2020-09-05T15:49:41Z</time>
      </trkpt>
      <trkpt lat="42.792232" lon="-.584688">
        <ele>1911.478</ele>
        <time>2020-09-05T15:49:50Z</time>
      </trkpt>
      <trkpt lat="42.792227" lon="-.58475">
        <ele>1910.761</ele>
        <time>2020-09-05T15:49:55Z</time>
      </trkpt>
      <trkpt lat="42.792223" lon="-.584818">
        <ele>1910.221</ele>
        <time>2020-09-05T15:50:03Z</time>
      </trkpt>
      <trkpt lat="42.792198" lon="-.58487">
        <ele>1910.213</ele>
        <time>2020-09-05T15:50:16Z</time>
      </trkpt>
      <trkpt lat="42.79221" lon="-.584929">
        <ele>1910.208</ele>
        <time>2020-09-05T15:50:21Z</time>
      </trkpt>
      <trkpt lat="42.792245" lon="-.584969">
        <ele>1910.061</ele>
        <time>2020-09-05T15:50:28Z</time>
      </trkpt>
      <trkpt lat="42.792238" lon="-.585036">
        <ele>1910.012</ele>
        <time>2020-09-05T15:50:34Z</time>
      </trkpt>
      <trkpt lat="42.792238" lon="-.585101">
        <ele>1910.148</ele>
        <time>2020-09-05T15:50:39Z</time>
      </trkpt>
      <trkpt lat="42.792248" lon="-.585163">
        <ele>1910.416</ele>
        <time>2020-09-05T15:50:45Z</time>
      </trkpt>
      <trkpt lat="42.792264" lon="-.585224">
        <ele>1910.627</ele>
        <time>2020-09-05T15:50:50Z</time>
      </trkpt>
      <trkpt lat="42.79227" lon="-.585286">
        <ele>1910.844</ele>
        <time>2020-09-05T15:50:54Z</time>
      </trkpt>
      <trkpt lat="42.792284" lon="-.585349">
        <ele>1911.190</ele>
        <time>2020-09-05T15:50:59Z</time>
      </trkpt>
      <trkpt lat="42.792287" lon="-.585411">
        <ele>1911.360</ele>
        <time>2020-09-05T15:51:05Z</time>
      </trkpt>
      <trkpt lat="42.792288" lon="-.585476">
        <ele>1911.434</ele>
        <time>2020-09-05T15:51:10Z</time>
      </trkpt>
      <trkpt lat="42.792289" lon="-.585545">
        <ele>1911.455</ele>
        <time>2020-09-05T15:51:15Z</time>
      </trkpt>
      <trkpt lat="42.792291" lon="-.585616">
        <ele>1911.310</ele>
        <time>2020-09-05T15:51:20Z</time>
      </trkpt>
      <trkpt lat="42.792283" lon="-.58568">
        <ele>1911.008</ele>
        <time>2020-09-05T15:51:24Z</time>
      </trkpt>
      <trkpt lat="42.792283" lon="-.585741">
        <ele>1910.768</ele>
        <time>2020-09-05T15:51:29Z</time>
      </trkpt>
      <trkpt lat="42.79228" lon="-.585806">
        <ele>1910.189</ele>
        <time>2020-09-05T15:51:34Z</time>
      </trkpt>
      <trkpt lat="42.792292" lon="-.585869">
        <ele>1909.725</ele>
        <time>2020-09-05T15:51:39Z</time>
      </trkpt>
      <trkpt lat="42.792296" lon="-.585934">
        <ele>1909.533</ele>
        <time>2020-09-05T15:51:44Z</time>
      </trkpt>
      <trkpt lat="42.792287" lon="-.585999">
        <ele>1909.314</ele>
        <time>2020-09-05T15:51:51Z</time>
      </trkpt>
      <trkpt lat="42.792274" lon="-.586068">
        <ele>1908.811</ele>
        <time>2020-09-05T15:51:57Z</time>
      </trkpt>
      <trkpt lat="42.79228" lon="-.586129">
        <ele>1908.387</ele>
        <time>2020-09-05T15:52:01Z</time>
      </trkpt>
      <trkpt lat="42.792276" lon="-.586193">
        <ele>1907.817</ele>
        <time>2020-09-05T15:52:06Z</time>
      </trkpt>
      <trkpt lat="42.792291" lon="-.586257">
        <ele>1907.459</ele>
        <time>2020-09-05T15:52:11Z</time>
      </trkpt>
      <trkpt lat="42.792295" lon="-.586319">
        <ele>1906.703</ele>
        <time>2020-09-05T15:52:18Z</time>
      </trkpt>
      <trkpt lat="42.792326" lon="-.586375">
        <ele>1906.023</ele>
        <time>2020-09-05T15:52:24Z</time>
      </trkpt>
      <trkpt lat="42.792327" lon="-.586442">
        <ele>1905.408</ele>
        <time>2020-09-05T15:52:29Z</time>
      </trkpt>
      <trkpt lat="42.792312" lon="-.586501">
        <ele>1904.940</ele>
        <time>2020-09-05T15:52:35Z</time>
      </trkpt>
      <trkpt lat="42.792303" lon="-.586568">
        <ele>1904.341</ele>
        <time>2020-09-05T15:52:41Z</time>
      </trkpt>
      <trkpt lat="42.792292" lon="-.586634">
        <ele>1903.697</ele>
        <time>2020-09-05T15:52:46Z</time>
      </trkpt>
      <trkpt lat="42.792261" lon="-.586681">
        <ele>1902.275</ele>
        <time>2020-09-05T15:52:52Z</time>
      </trkpt>
      <trkpt lat="42.792213" lon="-.586706">
        <ele>1900.936</ele>
        <time>2020-09-05T15:52:57Z</time>
      </trkpt>
      <trkpt lat="42.792164" lon="-.586711">
        <ele>1899.693</ele>
        <time>2020-09-05T15:53:02Z</time>
      </trkpt>
      <trkpt lat="42.792118" lon="-.586721">
        <ele>1898.069</ele>
        <time>2020-09-05T15:53:06Z</time>
      </trkpt>
      <trkpt lat="42.792067" lon="-.586705">
        <ele>1896.339</ele>
        <time>2020-09-05T15:53:12Z</time>
      </trkpt>
      <trkpt lat="42.792013" lon="-.5867">
        <ele>1894.675</ele>
        <time>2020-09-05T15:53:16Z</time>
      </trkpt>
      <trkpt lat="42.791962" lon="-.586695">
        <ele>1893.028</ele>
        <time>2020-09-05T15:53:21Z</time>
      </trkpt>
      <trkpt lat="42.791917" lon="-.586725">
        <ele>1890.920</ele>
        <time>2020-09-05T15:53:26Z</time>
      </trkpt>
      <trkpt lat="42.79187" lon="-.586726">
        <ele>1888.908</ele>
        <time>2020-09-05T15:53:31Z</time>
      </trkpt>
      <trkpt lat="42.791826" lon="-.586711">
        <ele>1886.312</ele>
        <time>2020-09-05T15:53:40Z</time>
      </trkpt>
      <trkpt lat="42.791783" lon="-.586692">
        <ele>1884.523</ele>
        <time>2020-09-05T15:53:50Z</time>
      </trkpt>
      <trkpt lat="42.791745" lon="-.58666">
        <ele>1883.279</ele>
        <time>2020-09-05T15:53:55Z</time>
      </trkpt>
      <trkpt lat="42.791703" lon="-.586631">
        <ele>1882.377</ele>
        <time>2020-09-05T15:54:00Z</time>
      </trkpt>
      <trkpt lat="42.791668" lon="-.586581">
        <ele>1881.588</ele>
        <time>2020-09-05T15:54:07Z</time>
      </trkpt>
      <trkpt lat="42.791622" lon="-.586564">
        <ele>1880.985</ele>
        <time>2020-09-05T15:54:13Z</time>
      </trkpt>
      <trkpt lat="42.791592" lon="-.586514">
        <ele>1884.931</ele>
        <time>2020-09-05T15:58:29Z</time>
      </trkpt>
      <trkpt lat="42.791549" lon="-.586492">
        <ele>1888.951</ele>
        <time>2020-09-05T15:58:33Z</time>
      </trkpt>
      <trkpt lat="42.791512" lon="-.586453">
        <ele>1892.969</ele>
        <time>2020-09-05T15:58:37Z</time>
      </trkpt>
      <trkpt lat="42.791468" lon="-.586419">
        <ele>1896.904</ele>
        <time>2020-09-05T15:58:42Z</time>
      </trkpt>
      <trkpt lat="42.791422" lon="-.586408">
        <ele>1900.924</ele>
        <time>2020-09-05T15:58:48Z</time>
      </trkpt>
      <trkpt lat="42.791374" lon="-.586402">
        <ele>1904.908</ele>
        <time>2020-09-05T15:58:53Z</time>
      </trkpt>
      <trkpt lat="42.791333" lon="-.586433">
        <ele>1908.441</ele>
        <time>2020-09-05T15:59:17Z</time>
      </trkpt>
      <trkpt lat="42.791288" lon="-.586436">
        <ele>1911.222</ele>
        <time>2020-09-05T15:59:23Z</time>
      </trkpt>
      <trkpt lat="42.791242" lon="-.586427">
        <ele>1913.528</ele>
        <time>2020-09-05T15:59:31Z</time>
      </trkpt>
      <trkpt lat="42.791201" lon="-.586457">
        <ele>1915.266</ele>
        <time>2020-09-05T15:59:38Z</time>
      </trkpt>
      <trkpt lat="42.791157" lon="-.58648">
        <ele>1916.647</ele>
        <time>2020-09-05T15:59:45Z</time>
      </trkpt>
      <trkpt lat="42.791112" lon="-.586489">
        <ele>1917.834</ele>
        <time>2020-09-05T15:59:54Z</time>
      </trkpt>
      <trkpt lat="42.791139" lon="-.586546">
        <ele>1917.710</ele>
        <time>2020-09-05T16:00:07Z</time>
      </trkpt>
      <trkpt lat="42.791173" lon="-.586591">
        <ele>1917.650</ele>
        <time>2020-09-05T16:00:13Z</time>
      </trkpt>
      <trkpt lat="42.791128" lon="-.586584">
        <ele>1918.084</ele>
        <time>2020-09-05T16:00:25Z</time>
      </trkpt>
      <trkpt lat="42.791082" lon="-.586595">
        <ele>1918.407</ele>
        <time>2020-09-05T16:00:33Z</time>
      </trkpt>
      <trkpt lat="42.791115" lon="-.586643">
        <ele>1918.117</ele>
        <time>2020-09-05T16:00:48Z</time>
      </trkpt>
      <trkpt lat="42.791154" lon="-.586676">
        <ele>1918.008</ele>
        <time>2020-09-05T16:00:54Z</time>
      </trkpt>
      <trkpt lat="42.791146" lon="-.586737">
        <ele>1918.163</ele>
        <time>2020-09-05T16:01:02Z</time>
      </trkpt>
      <trkpt lat="42.791103" lon="-.586759">
        <ele>1918.814</ele>
        <time>2020-09-05T16:01:15Z</time>
      </trkpt>
      <trkpt lat="42.791058" lon="-.586786">
        <ele>1919.550</ele>
        <time>2020-09-05T16:01:26Z</time>
      </trkpt>
      <trkpt lat="42.791019" lon="-.586752">
        <ele>1921.138</ele>
        <time>2020-09-05T16:01:44Z</time>
      </trkpt>
      <trkpt lat="42.790995" lon="-.586698">
        <ele>1922.229</ele>
        <time>2020-09-05T16:01:50Z</time>
      </trkpt>
      <trkpt lat="42.790963" lon="-.586655">
        <ele>1924.276</ele>
        <time>2020-09-05T16:01:58Z</time>
      </trkpt>
      <trkpt lat="42.790912" lon="-.586655">
        <ele>1926.132</ele>
        <time>2020-09-05T16:02:03Z</time>
      </trkpt>
      <trkpt lat="42.790868" lon="-.586677">
        <ele>1927.462</ele>
        <time>2020-09-05T16:02:17Z</time>
      </trkpt>
      <trkpt lat="42.790819" lon="-.586677">
        <ele>1930.799</ele>
        <time>2020-09-05T16:03:05Z</time>
      </trkpt>
      <trkpt lat="42.79077" lon="-.586668">
        <ele>1932.707</ele>
        <time>2020-09-05T16:03:09Z</time>
      </trkpt>
      <trkpt lat="42.790735" lon="-.586629">
        <ele>1934.127</ele>
        <time>2020-09-05T16:03:14Z</time>
      </trkpt>
      <trkpt lat="42.79069" lon="-.586616">
        <ele>1935.208</ele>
        <time>2020-09-05T16:03:25Z</time>
      </trkpt>
      <trkpt lat="42.790647" lon="-.586634">
        <ele>1935.944</ele>
        <time>2020-09-05T16:03:32Z</time>
      </trkpt>
      <trkpt lat="42.790602" lon="-.586642">
        <ele>1936.825</ele>
        <time>2020-09-05T16:03:42Z</time>
      </trkpt>
      <trkpt lat="42.790563" lon="-.586673">
        <ele>1937.841</ele>
        <time>2020-09-05T16:03:51Z</time>
      </trkpt>
      <trkpt lat="42.790519" lon="-.586695">
        <ele>1939.129</ele>
        <time>2020-09-05T16:04:02Z</time>
      </trkpt>
      <trkpt lat="42.790495" lon="-.586748">
        <ele>1940.220</ele>
        <time>2020-09-05T16:04:18Z</time>
      </trkpt>
      <trkpt lat="42.790495" lon="-.586812">
        <ele>1942.997</ele>
        <time>2020-09-05T16:04:53Z</time>
      </trkpt>
      <trkpt lat="42.790447" lon="-.586805">
        <ele>1944.963</ele>
        <time>2020-09-05T16:05:02Z</time>
      </trkpt>
      <trkpt lat="42.790454" lon="-.586866">
        <ele>1946.643</ele>
        <time>2020-09-05T16:05:14Z</time>
      </trkpt>
      <trkpt lat="42.790497" lon="-.586891">
        <ele>1948.075</ele>
        <time>2020-09-05T16:05:21Z</time>
      </trkpt>
      <trkpt lat="42.79053" lon="-.586935">
        <ele>1949.328</ele>
        <time>2020-09-05T16:05:29Z</time>
      </trkpt>
      <trkpt lat="42.790537" lon="-.586998">
        <ele>1950.220</ele>
        <time>2020-09-05T16:05:34Z</time>
      </trkpt>
      <trkpt lat="42.790575" lon="-.587034">
        <ele>1951.208</ele>
        <time>2020-09-05T16:05:42Z</time>
      </trkpt>
      <trkpt lat="42.790572" lon="-.587101">
        <ele>1952.372</ele>
        <time>2020-09-05T16:05:54Z</time>
      </trkpt>
      <trkpt lat="42.790593" lon="-.587156">
        <ele>1953.183</ele>
        <time>2020-09-05T16:06:00Z</time>
      </trkpt>
      <trkpt lat="42.790641" lon="-.587165">
        <ele>1953.969</ele>
        <time>2020-09-05T16:06:06Z</time>
      </trkpt>
      <trkpt lat="42.790682" lon="-.587191">
        <ele>1954.737</ele>
        <time>2020-09-05T16:06:14Z</time>
      </trkpt>
      <trkpt lat="42.790728" lon="-.587187">
        <ele>1955.718</ele>
        <time>2020-09-05T16:06:25Z</time>
      </trkpt>
      <trkpt lat="42.790772" lon="-.587203">
        <ele>1956.765</ele>
        <time>2020-09-05T16:06:30Z</time>
      </trkpt>
      <trkpt lat="42.79081" lon="-.587237">
        <ele>1957.661</ele>
        <time>2020-09-05T16:06:36Z</time>
      </trkpt>
      <trkpt lat="42.790829" lon="-.587293">
        <ele>1958.531</ele>
        <time>2020-09-05T16:06:45Z</time>
      </trkpt>
      <trkpt lat="42.790861" lon="-.58734">
        <ele>1959.535</ele>
        <time>2020-09-05T16:06:55Z</time>
      </trkpt>
      <trkpt lat="42.790884" lon="-.587393">
        <ele>1960.286</ele>
        <time>2020-09-05T16:07:01Z</time>
      </trkpt>
      <trkpt lat="42.790888" lon="-.587461">
        <ele>1961.114</ele>
        <time>2020-09-05T16:07:09Z</time>
      </trkpt>
      <trkpt lat="42.790853" lon="-.587503">
        <ele>1961.908</ele>
        <time>2020-09-05T16:07:19Z</time>
      </trkpt>
      <trkpt lat="42.790813" lon="-.587531">
        <ele>1962.518</ele>
        <time>2020-09-05T16:07:31Z</time>
      </trkpt>
      <trkpt lat="42.79086" lon="-.587541">
        <ele>1966.479</ele>
        <time>2020-09-05T16:09:38Z</time>
      </trkpt>
      <trkpt lat="42.790844" lon="-.587601">
        <ele>1968.385</ele>
        <time>2020-09-05T16:09:44Z</time>
      </trkpt>
      <trkpt lat="42.790806" lon="-.587638">
        <ele>1969.343</ele>
        <time>2020-09-05T16:09:48Z</time>
      </trkpt>
      <trkpt lat="42.790764" lon="-.587668">
        <ele>1969.794</ele>
        <time>2020-09-05T16:09:52Z</time>
      </trkpt>
      <trkpt lat="42.790716" lon="-.587666">
        <ele>1969.821</ele>
        <time>2020-09-05T16:09:56Z</time>
      </trkpt>
      <trkpt lat="42.790711" lon="-.587598">
        <ele>1969.797</ele>
        <time>2020-09-05T16:10:03Z</time>
      </trkpt>
      <trkpt lat="42.790725" lon="-.587537">
        <ele>1969.887</ele>
        <time>2020-09-05T16:10:09Z</time>
      </trkpt>
      <trkpt lat="42.790683" lon="-.587511">
        <ele>1969.977</ele>
        <time>2020-09-05T16:10:21Z</time>
      </trkpt>
      <trkpt lat="42.790636" lon="-.587528">
        <ele>1970.161</ele>
        <time>2020-09-05T16:10:28Z</time>
      </trkpt>
      <trkpt lat="42.790589" lon="-.587541">
        <ele>1970.427</ele>
        <time>2020-09-05T16:10:35Z</time>
      </trkpt>
      <trkpt lat="42.790541" lon="-.58754">
        <ele>1970.808</ele>
        <time>2020-09-05T16:10:41Z</time>
      </trkpt>
      <trkpt lat="42.790525" lon="-.5876">
        <ele>1972.172</ele>
        <time>2020-09-05T16:10:52Z</time>
      </trkpt>
      <trkpt lat="42.790505" lon="-.587656">
        <ele>1973.483</ele>
        <time>2020-09-05T16:11:01Z</time>
      </trkpt>
      <trkpt lat="42.790478" lon="-.587709">
        <ele>1974.439</ele>
        <time>2020-09-05T16:11:09Z</time>
      </trkpt>
      <trkpt lat="42.790443" lon="-.587757">
        <ele>1975.197</ele>
        <time>2020-09-05T16:11:15Z</time>
      </trkpt>
      <trkpt lat="42.790418" lon="-.587813">
        <ele>1975.758</ele>
        <time>2020-09-05T16:11:21Z</time>
      </trkpt>
      <trkpt lat="42.790408" lon="-.587874">
        <ele>1976.015</ele>
        <time>2020-09-05T16:11:27Z</time>
      </trkpt>
      <trkpt lat="42.790381" lon="-.587928">
        <ele>1976.581</ele>
        <time>2020-09-05T16:11:36Z</time>
      </trkpt>
      <trkpt lat="42.790343" lon="-.587961">
        <ele>1977.271</ele>
        <time>2020-09-05T16:11:48Z</time>
      </trkpt>
      <trkpt lat="42.790314" lon="-.58802">
        <ele>1978.535</ele>
        <time>2020-09-05T16:12:03Z</time>
      </trkpt>
      <trkpt lat="42.790296" lon="-.588082">
        <ele>1979.686</ele>
        <time>2020-09-05T16:12:07Z</time>
      </trkpt>
      <trkpt lat="42.79026" lon="-.588127">
        <ele>1980.614</ele>
        <time>2020-09-05T16:12:17Z</time>
      </trkpt>
      <trkpt lat="42.790218" lon="-.588153">
        <ele>1981.408</ele>
        <time>2020-09-05T16:12:26Z</time>
      </trkpt>
      <trkpt lat="42.790189" lon="-.588205">
        <ele>1982.328</ele>
        <time>2020-09-05T16:12:36Z</time>
      </trkpt>
      <trkpt lat="42.790142" lon="-.588213">
        <ele>1983.639</ele>
        <time>2020-09-05T16:12:49Z</time>
      </trkpt>
      <trkpt lat="42.790125" lon="-.588272">
        <ele>1985.245</ele>
        <time>2020-09-05T16:12:59Z</time>
      </trkpt>
      <trkpt lat="42.790081" lon="-.588287">
        <ele>1986.733</ele>
        <time>2020-09-05T16:13:08Z</time>
      </trkpt>
      <trkpt lat="42.790047" lon="-.588336">
        <ele>1988.664</ele>
        <time>2020-09-05T16:13:17Z</time>
      </trkpt>
      <trkpt lat="42.790019" lon="-.588387">
        <ele>1990.261</ele>
        <time>2020-09-05T16:13:34Z</time>
      </trkpt>
      <trkpt lat="42.789982" lon="-.588423">
        <ele>1991.577</ele>
        <time>2020-09-05T16:13:43Z</time>
      </trkpt>
      <trkpt lat="42.789946" lon="-.588462">
        <ele>1992.617</ele>
        <time>2020-09-05T16:13:50Z</time>
      </trkpt>
      <trkpt lat="42.789908" lon="-.588502">
        <ele>1993.373</ele>
        <time>2020-09-05T16:13:57Z</time>
      </trkpt>
      <trkpt lat="42.78987" lon="-.588544">
        <ele>1993.985</ele>
        <time>2020-09-05T16:14:03Z</time>
      </trkpt>
      <trkpt lat="42.789843" lon="-.588593">
        <ele>1994.413</ele>
        <time>2020-09-05T16:14:07Z</time>
      </trkpt>
      <trkpt lat="42.789804" lon="-.588628">
        <ele>1994.708</ele>
        <time>2020-09-05T16:14:13Z</time>
      </trkpt>
      <trkpt lat="42.789759" lon="-.588639">
        <ele>1995.112</ele>
        <time>2020-09-05T16:14:19Z</time>
      </trkpt>
      <trkpt lat="42.78974" lon="-.588701">
        <ele>1996.373</ele>
        <time>2020-09-05T16:14:37Z</time>
      </trkpt>
      <trkpt lat="42.789701" lon="-.588734">
        <ele>1997.349</ele>
        <time>2020-09-05T16:14:43Z</time>
      </trkpt>
      <trkpt lat="42.789665" lon="-.588771">
        <ele>1997.987</ele>
        <time>2020-09-05T16:14:47Z</time>
      </trkpt>
      <trkpt lat="42.789651" lon="-.588833">
        <ele>1998.658</ele>
        <time>2020-09-05T16:14:59Z</time>
      </trkpt>
      <trkpt lat="42.789631" lon="-.588894">
        <ele>1999.165</ele>
        <time>2020-09-05T16:15:05Z</time>
      </trkpt>
      <trkpt lat="42.789587" lon="-.588924">
        <ele>1999.651</ele>
        <time>2020-09-05T16:15:11Z</time>
      </trkpt>
      <trkpt lat="42.789544" lon="-.588951">
        <ele>2000.171</ele>
        <time>2020-09-05T16:15:17Z</time>
      </trkpt>
      <trkpt lat="42.789509" lon="-.588997">
        <ele>2000.616</ele>
        <time>2020-09-05T16:15:24Z</time>
      </trkpt>
      <trkpt lat="42.789477" lon="-.589045">
        <ele>2001.376</ele>
        <time>2020-09-05T16:15:31Z</time>
      </trkpt>
      <trkpt lat="42.789509" lon="-.589089">
        <ele>2001.613</ele>
        <time>2020-09-05T16:15:58Z</time>
      </trkpt>
      <trkpt lat="42.789473" lon="-.589031">
        <ele>2002.308</ele>
        <time>2020-09-05T16:16:13Z</time>
      </trkpt>
      <trkpt lat="42.78948" lon="-.589095">
        <ele>2002.566</ele>
        <time>2020-09-05T16:16:31Z</time>
      </trkpt>
      <trkpt lat="42.789456" lon="-.589153">
        <ele>2002.497</ele>
        <time>2020-09-05T16:16:38Z</time>
      </trkpt>
      <trkpt lat="42.789413" lon="-.589188">
        <ele>2002.353</ele>
        <time>2020-09-05T16:16:43Z</time>
      </trkpt>
      <trkpt lat="42.789379" lon="-.589241">
        <ele>2002.261</ele>
        <time>2020-09-05T16:16:47Z</time>
      </trkpt>
      <trkpt lat="42.789347" lon="-.589288">
        <ele>2002.172</ele>
        <time>2020-09-05T16:16:50Z</time>
      </trkpt>
      <trkpt lat="42.789303" lon="-.589272">
        <ele>2001.919</ele>
        <time>2020-09-05T16:17:00Z</time>
      </trkpt>
      <trkpt lat="42.789311" lon="-.589207">
        <ele>2001.895</ele>
        <time>2020-09-05T16:17:07Z</time>
      </trkpt>
      <trkpt lat="42.789289" lon="-.589154">
        <ele>2001.875</ele>
        <time>2020-09-05T16:17:22Z</time>
      </trkpt>
      <trkpt lat="42.78932" lon="-.5892">
        <ele>2002.464</ele>
        <time>2020-09-05T16:17:41Z</time>
      </trkpt>
      <trkpt lat="42.789357" lon="-.589282">
        <ele>2001.406</ele>
        <time>2020-09-05T16:18:08Z</time>
      </trkpt>
      <trkpt lat="42.789319" lon="-.589316">
        <ele>2001.116</ele>
        <time>2020-09-05T16:18:36Z</time>
      </trkpt>
      <trkpt lat="42.789305" lon="-.589374">
        <ele>2001.608</ele>
        <time>2020-09-05T16:18:56Z</time>
      </trkpt>
      <trkpt lat="42.789269" lon="-.589412">
        <ele>2002.191</ele>
        <time>2020-09-05T16:19:03Z</time>
      </trkpt>
      <trkpt lat="42.789227" lon="-.589448">
        <ele>2002.412</ele>
        <time>2020-09-05T16:19:07Z</time>
      </trkpt>
      <trkpt lat="42.789189" lon="-.589481">
        <ele>2002.588</ele>
        <time>2020-09-05T16:19:11Z</time>
      </trkpt>
      <trkpt lat="42.789148" lon="-.589506">
        <ele>2002.626</ele>
        <time>2020-09-05T16:19:15Z</time>
      </trkpt>
      <trkpt lat="42.789103" lon="-.589513">
        <ele>2002.717</ele>
        <time>2020-09-05T16:19:21Z</time>
      </trkpt>
      <trkpt lat="42.789085" lon="-.589455">
        <ele>2002.624</ele>
        <time>2020-09-05T16:20:04Z</time>
      </trkpt>
      <trkpt lat="42.789126" lon="-.589485">
        <ele>2002.150</ele>
        <time>2020-09-05T16:20:28Z</time>
      </trkpt>
      <trkpt lat="42.789113" lon="-.589549">
        <ele>2002.330</ele>
        <time>2020-09-05T16:20:49Z</time>
      </trkpt>
      <trkpt lat="42.789156" lon="-.589581">
        <ele>2002.439</ele>
        <time>2020-09-05T16:21:06Z</time>
      </trkpt>
      <trkpt lat="42.789134" lon="-.589523">
        <ele>2003.701</ele>
        <time>2020-09-05T16:23:08Z</time>
      </trkpt>
      <trkpt lat="42.789099" lon="-.589572">
        <ele>2004.221</ele>
        <time>2020-09-05T16:23:16Z</time>
      </trkpt>
      <trkpt lat="42.78907" lon="-.589619">
        <ele>2004.508</ele>
        <time>2020-09-05T16:23:20Z</time>
      </trkpt>
      <trkpt lat="42.789047" lon="-.589672">
        <ele>2004.618</ele>
        <time>2020-09-05T16:23:23Z</time>
      </trkpt>
      <trkpt lat="42.789015" lon="-.589727">
        <ele>2004.639</ele>
        <time>2020-09-05T16:23:27Z</time>
      </trkpt>
      <trkpt lat="42.788993" lon="-.589789">
        <ele>2004.615</ele>
        <time>2020-09-05T16:23:32Z</time>
      </trkpt>
      <trkpt lat="42.788966" lon="-.589843">
        <ele>2004.613</ele>
        <time>2020-09-05T16:23:36Z</time>
      </trkpt>
      <trkpt lat="42.788935" lon="-.589894">
        <ele>2004.634</ele>
        <time>2020-09-05T16:23:41Z</time>
      </trkpt>
      <trkpt lat="42.788903" lon="-.589947">
        <ele>2004.651</ele>
        <time>2020-09-05T16:23:46Z</time>
      </trkpt>
      <trkpt lat="42.788868" lon="-.589992">
        <ele>2004.547</ele>
        <time>2020-09-05T16:23:51Z</time>
      </trkpt>
      <trkpt lat="42.788825" lon="-.590024">
        <ele>2004.217</ele>
        <time>2020-09-05T16:23:56Z</time>
      </trkpt>
      <trkpt lat="42.78879" lon="-.590066">
        <ele>2003.774</ele>
        <time>2020-09-05T16:24:01Z</time>
      </trkpt>
      <trkpt lat="42.788755" lon="-.590118">
        <ele>2003.356</ele>
        <time>2020-09-05T16:24:06Z</time>
      </trkpt>
      <trkpt lat="42.788722" lon="-.590163">
        <ele>2003.121</ele>
        <time>2020-09-05T16:24:10Z</time>
      </trkpt>
      <trkpt lat="42.78869" lon="-.590208">
        <ele>2003.008</ele>
        <time>2020-09-05T16:24:14Z</time>
      </trkpt>
      <trkpt lat="42.788662" lon="-.590257">
        <ele>2002.962</ele>
        <time>2020-09-05T16:24:18Z</time>
      </trkpt>
      <trkpt lat="42.788625" lon="-.590303">
        <ele>2002.923</ele>
        <time>2020-09-05T16:24:24Z</time>
      </trkpt>
      <trkpt lat="42.788604" lon="-.590358">
        <ele>2003.719</ele>
        <time>2020-09-05T16:24:31Z</time>
      </trkpt>
      <trkpt lat="42.788557" lon="-.590375">
        <ele>2004.437</ele>
        <time>2020-09-05T16:24:37Z</time>
      </trkpt>
      <trkpt lat="42.788508" lon="-.590389">
        <ele>2005.028</ele>
        <time>2020-09-05T16:24:43Z</time>
      </trkpt>
      <trkpt lat="42.788461" lon="-.590405">
        <ele>2005.645</ele>
        <time>2020-09-05T16:24:50Z</time>
      </trkpt>
      <trkpt lat="42.788417" lon="-.590435">
        <ele>2005.481</ele>
        <time>2020-09-05T16:25:00Z</time>
      </trkpt>
      <trkpt lat="42.788385" lon="-.590483">
        <ele>2005.111</ele>
        <time>2020-09-05T16:25:02Z</time>
      </trkpt>
      <trkpt lat="42.788348" lon="-.590526">
        <ele>2005.038</ele>
        <time>2020-09-05T16:25:07Z</time>
      </trkpt>
      <trkpt lat="42.788294" lon="-.59053">
        <ele>2005.070</ele>
        <time>2020-09-05T16:25:15Z</time>
      </trkpt>
      <trkpt lat="42.788258" lon="-.590569">
        <ele>2005.017</ele>
        <time>2020-09-05T16:25:18Z</time>
      </trkpt>
      <trkpt lat="42.788227" lon="-.590618">
        <ele>2005.308</ele>
        <time>2020-09-05T16:25:22Z</time>
      </trkpt>
      <trkpt lat="42.788191" lon="-.590674">
        <ele>2005.918</ele>
        <time>2020-09-05T16:25:24Z</time>
      </trkpt>
      <trkpt lat="42.78816" lon="-.59072">
        <ele>2006.749</ele>
        <time>2020-09-05T16:25:27Z</time>
      </trkpt>
      <trkpt lat="42.788124" lon="-.590762">
        <ele>2007.785</ele>
        <time>2020-09-05T16:25:32Z</time>
      </trkpt>
      <trkpt lat="42.788092" lon="-.590813">
        <ele>2008.993</ele>
        <time>2020-09-05T16:25:43Z</time>
      </trkpt>
      <trkpt lat="42.788047" lon="-.590846">
        <ele>2010.044</ele>
        <time>2020-09-05T16:25:48Z</time>
      </trkpt>
      <trkpt lat="42.788002" lon="-.590862">
        <ele>2011.231</ele>
        <time>2020-09-05T16:26:15Z</time>
      </trkpt>
      <trkpt lat="42.787956" lon="-.59089">
        <ele>2011.397</ele>
        <time>2020-09-05T16:26:20Z</time>
      </trkpt>
      <trkpt lat="42.78792" lon="-.590928">
        <ele>2010.857</ele>
        <time>2020-09-05T16:26:24Z</time>
      </trkpt>
      <trkpt lat="42.787883" lon="-.590969">
        <ele>2010.617</ele>
        <time>2020-09-05T16:26:28Z</time>
      </trkpt>
      <trkpt lat="42.787844" lon="-.591017">
        <ele>2010.587</ele>
        <time>2020-09-05T16:26:33Z</time>
      </trkpt>
      <trkpt lat="42.787814" lon="-.591064">
        <ele>2010.515</ele>
        <time>2020-09-05T16:26:37Z</time>
      </trkpt>
      <trkpt lat="42.787781" lon="-.591106">
        <ele>2010.508</ele>
        <time>2020-09-05T16:26:41Z</time>
      </trkpt>
      <trkpt lat="42.787741" lon="-.591147">
        <ele>2010.686</ele>
        <time>2020-09-05T16:26:46Z</time>
      </trkpt>
      <trkpt lat="42.787711" lon="-.591196">
        <ele>2011.037</ele>
        <time>2020-09-05T16:26:50Z</time>
      </trkpt>
      <trkpt lat="42.78768" lon="-.591244">
        <ele>2011.233</ele>
        <time>2020-09-05T16:26:54Z</time>
      </trkpt>
      <trkpt lat="42.787649" lon="-.59129">
        <ele>2011.121</ele>
        <time>2020-09-05T16:26:58Z</time>
      </trkpt>
      <trkpt lat="42.787614" lon="-.591331">
        <ele>2011.172</ele>
        <time>2020-09-05T16:27:02Z</time>
      </trkpt>
      <trkpt lat="42.787583" lon="-.591381">
        <ele>2011.189</ele>
        <time>2020-09-05T16:27:06Z</time>
      </trkpt>
      <trkpt lat="42.787558" lon="-.591432">
        <ele>2011.115</ele>
        <time>2020-09-05T16:27:11Z</time>
      </trkpt>
      <trkpt lat="42.787532" lon="-.591483">
        <ele>2011.295</ele>
        <time>2020-09-05T16:27:14Z</time>
      </trkpt>
      <trkpt lat="42.787504" lon="-.591536">
        <ele>2011.023</ele>
        <time>2020-09-05T16:27:19Z</time>
      </trkpt>
      <trkpt lat="42.787462" lon="-.591579">
        <ele>2010.883</ele>
        <time>2020-09-05T16:27:23Z</time>
      </trkpt>
      <trkpt lat="42.787429" lon="-.591627">
        <ele>2010.711</ele>
        <time>2020-09-05T16:27:29Z</time>
      </trkpt>
      <trkpt lat="42.787416" lon="-.591686">
        <ele>2010.908</ele>
        <time>2020-09-05T16:27:34Z</time>
      </trkpt>
      <trkpt lat="42.787371" lon="-.591699">
        <ele>2011.387</ele>
        <time>2020-09-05T16:27:39Z</time>
      </trkpt>
      <trkpt lat="42.787325" lon="-.591714">
        <ele>2011.628</ele>
        <time>2020-09-05T16:27:44Z</time>
      </trkpt>
      <trkpt lat="42.787293" lon="-.591767">
        <ele>2011.874</ele>
        <time>2020-09-05T16:27:48Z</time>
      </trkpt>
      <trkpt lat="42.787263" lon="-.591815">
        <ele>2011.932</ele>
        <time>2020-09-05T16:27:52Z</time>
      </trkpt>
      <trkpt lat="42.787234" lon="-.591869">
        <ele>2011.943</ele>
        <time>2020-09-05T16:27:56Z</time>
      </trkpt>
      <trkpt lat="42.787199" lon="-.591915">
        <ele>2011.380</ele>
        <time>2020-09-05T16:28:18Z</time>
      </trkpt>
      <trkpt lat="42.787169" lon="-.591974">
        <ele>2010.546</ele>
        <time>2020-09-05T16:28:23Z</time>
      </trkpt>
      <trkpt lat="42.787139" lon="-.592032">
        <ele>2010.046</ele>
        <time>2020-09-05T16:28:27Z</time>
      </trkpt>
      <trkpt lat="42.787111" lon="-.592083">
        <ele>2009.772</ele>
        <time>2020-09-05T16:28:30Z</time>
      </trkpt>
      <trkpt lat="42.787079" lon="-.592135">
        <ele>2009.413</ele>
        <time>2020-09-05T16:28:34Z</time>
      </trkpt>
      <trkpt lat="42.787046" lon="-.592179">
        <ele>2009.014</ele>
        <time>2020-09-05T16:28:38Z</time>
      </trkpt>
      <trkpt lat="42.787005" lon="-.592215">
        <ele>2008.608</ele>
        <time>2020-09-05T16:28:43Z</time>
      </trkpt>
      <trkpt lat="42.786959" lon="-.592245">
        <ele>2008.322</ele>
        <time>2020-09-05T16:28:49Z</time>
      </trkpt>
      <trkpt lat="42.786919" lon="-.592284">
        <ele>2008.133</ele>
        <time>2020-09-05T16:28:54Z</time>
      </trkpt>
      <trkpt lat="42.786881" lon="-.592317">
        <ele>2007.969</ele>
        <time>2020-09-05T16:28:58Z</time>
      </trkpt>
      <trkpt lat="42.78684" lon="-.592342">
        <ele>2007.747</ele>
        <time>2020-09-05T16:29:02Z</time>
      </trkpt>
      <trkpt lat="42.786802" lon="-.592382">
        <ele>2007.458</ele>
        <time>2020-09-05T16:29:06Z</time>
      </trkpt>
      <trkpt lat="42.786764" lon="-.592431">
        <ele>2007.055</ele>
        <time>2020-09-05T16:29:11Z</time>
      </trkpt>
      <trkpt lat="42.786725" lon="-.592467">
        <ele>2006.181</ele>
        <time>2020-09-05T16:29:22Z</time>
      </trkpt>
      <trkpt lat="42.786684" lon="-.592502">
        <ele>2005.791</ele>
        <time>2020-09-05T16:29:27Z</time>
      </trkpt>
      <trkpt lat="42.786638" lon="-.59253">
        <ele>2005.436</ele>
        <time>2020-09-05T16:29:31Z</time>
      </trkpt>
      <trkpt lat="42.786599" lon="-.592565">
        <ele>2005.317</ele>
        <time>2020-09-05T16:29:35Z</time>
      </trkpt>
      <trkpt lat="42.786557" lon="-.592606">
        <ele>2005.218</ele>
        <time>2020-09-05T16:29:39Z</time>
      </trkpt>
      <trkpt lat="42.786537" lon="-.592663">
        <ele>2005.308</ele>
        <time>2020-09-05T16:29:43Z</time>
      </trkpt>
      <trkpt lat="42.786513" lon="-.592716">
        <ele>2005.398</ele>
        <time>2020-09-05T16:29:47Z</time>
      </trkpt>
      <trkpt lat="42.786473" lon="-.592756">
        <ele>2005.249</ele>
        <time>2020-09-05T16:29:50Z</time>
      </trkpt>
      <trkpt lat="42.786429" lon="-.592786">
        <ele>2005.065</ele>
        <time>2020-09-05T16:29:54Z</time>
      </trkpt>
      <trkpt lat="42.786389" lon="-.592819">
        <ele>2004.843</ele>
        <time>2020-09-05T16:29:59Z</time>
      </trkpt>
      <trkpt lat="42.786347" lon="-.592854">
        <ele>2004.544</ele>
        <time>2020-09-05T16:30:03Z</time>
      </trkpt>
      <trkpt lat="42.786307" lon="-.592885">
        <ele>2004.311</ele>
        <time>2020-09-05T16:30:07Z</time>
      </trkpt>
      <trkpt lat="42.786266" lon="-.59292">
        <ele>2004.387</ele>
        <time>2020-09-05T16:30:12Z</time>
      </trkpt>
      <trkpt lat="42.786229" lon="-.592962">
        <ele>2004.457</ele>
        <time>2020-09-05T16:30:16Z</time>
      </trkpt>
      <trkpt lat="42.786197" lon="-.593007">
        <ele>2004.569</ele>
        <time>2020-09-05T16:30:20Z</time>
      </trkpt>
      <trkpt lat="42.78616" lon="-.593048">
        <ele>2004.804</ele>
        <time>2020-09-05T16:30:24Z</time>
      </trkpt>
      <trkpt lat="42.786125" lon="-.593088">
        <ele>2005.324</ele>
        <time>2020-09-05T16:30:28Z</time>
      </trkpt>
      <trkpt lat="42.78609" lon="-.593128">
        <ele>2005.708</ele>
        <time>2020-09-05T16:30:32Z</time>
      </trkpt>
      <trkpt lat="42.786048" lon="-.593164">
        <ele>2006.141</ele>
        <time>2020-09-05T16:30:37Z</time>
      </trkpt>
      <trkpt lat="42.78601" lon="-.593204">
        <ele>2006.222</ele>
        <time>2020-09-05T16:30:41Z</time>
      </trkpt>
      <trkpt lat="42.785971" lon="-.593247">
        <ele>2006.128</ele>
        <time>2020-09-05T16:30:46Z</time>
      </trkpt>
      <trkpt lat="42.78594" lon="-.593291">
        <ele>2006.136</ele>
        <time>2020-09-05T16:30:50Z</time>
      </trkpt>
      <trkpt lat="42.78591" lon="-.593339">
        <ele>2006.297</ele>
        <time>2020-09-05T16:30:55Z</time>
      </trkpt>
      <trkpt lat="42.785875" lon="-.593383">
        <ele>2006.394</ele>
        <time>2020-09-05T16:30:59Z</time>
      </trkpt>
      <trkpt lat="42.785841" lon="-.593439">
        <ele>2006.420</ele>
        <time>2020-09-05T16:31:04Z</time>
      </trkpt>
      <trkpt lat="42.785805" lon="-.593487">
        <ele>2006.660</ele>
        <time>2020-09-05T16:31:09Z</time>
      </trkpt>
      <trkpt lat="42.785762" lon="-.593528">
        <ele>2006.852</ele>
        <time>2020-09-05T16:31:14Z</time>
      </trkpt>
      <trkpt lat="42.785721" lon="-.593557">
        <ele>2006.953</ele>
        <time>2020-09-05T16:31:18Z</time>
      </trkpt>
      <trkpt lat="42.78568" lon="-.593592">
        <ele>2007.008</ele>
        <time>2020-09-05T16:31:22Z</time>
      </trkpt>
      <trkpt lat="42.785639" lon="-.593625">
        <ele>2006.908</ele>
        <time>2020-09-05T16:31:26Z</time>
      </trkpt>
      <trkpt lat="42.785604" lon="-.59367">
        <ele>2006.740</ele>
        <time>2020-09-05T16:31:31Z</time>
      </trkpt>
      <trkpt lat="42.785562" lon="-.593704">
        <ele>2006.571</ele>
        <time>2020-09-05T16:31:36Z</time>
      </trkpt>
      <trkpt lat="42.785518" lon="-.593737">
        <ele>2006.527</ele>
        <time>2020-09-05T16:31:41Z</time>
      </trkpt>
      <trkpt lat="42.785478" lon="-.593774">
        <ele>2006.685</ele>
        <time>2020-09-05T16:31:45Z</time>
      </trkpt>
      <trkpt lat="42.785446" lon="-.593827">
        <ele>2006.826</ele>
        <time>2020-09-05T16:31:50Z</time>
      </trkpt>
      <trkpt lat="42.785404" lon="-.593856">
        <ele>2007.053</ele>
        <time>2020-09-05T16:31:56Z</time>
      </trkpt>
      <trkpt lat="42.785365" lon="-.593896">
        <ele>2007.129</ele>
        <time>2020-09-05T16:32:00Z</time>
      </trkpt>
      <trkpt lat="42.785331" lon="-.593939">
        <ele>2007.299</ele>
        <time>2020-09-05T16:32:05Z</time>
      </trkpt>
      <trkpt lat="42.785296" lon="-.593983">
        <ele>2007.332</ele>
        <time>2020-09-05T16:32:10Z</time>
      </trkpt>
      <trkpt lat="42.785269" lon="-.594037">
        <ele>2007.692</ele>
        <time>2020-09-05T16:32:15Z</time>
      </trkpt>
      <trkpt lat="42.785232" lon="-.594075">
        <ele>2007.911</ele>
        <time>2020-09-05T16:32:21Z</time>
      </trkpt>
      <trkpt lat="42.785188" lon="-.594087">
        <ele>2008.208</ele>
        <time>2020-09-05T16:32:27Z</time>
      </trkpt>
      <trkpt lat="42.78514" lon="-.594082">
        <ele>2008.588</ele>
        <time>2020-09-05T16:32:31Z</time>
      </trkpt>
      <trkpt lat="42.785108" lon="-.594127">
        <ele>2009.139</ele>
        <time>2020-09-05T16:32:41Z</time>
      </trkpt>
      <trkpt lat="42.785089" lon="-.594184">
        <ele>2012.265</ele>
        <time>2020-09-05T16:33:20Z</time>
      </trkpt>
      <trkpt lat="42.785042" lon="-.594185">
        <ele>2014.223</ele>
        <time>2020-09-05T16:33:28Z</time>
      </trkpt>
      <trkpt lat="42.784999" lon="-.594207">
        <ele>2015.594</ele>
        <time>2020-09-05T16:33:35Z</time>
      </trkpt>
      <trkpt lat="42.784972" lon="-.594263">
        <ele>2016.811</ele>
        <time>2020-09-05T16:33:50Z</time>
      </trkpt>
      <trkpt lat="42.784947" lon="-.594318">
        <ele>2017.997</ele>
        <time>2020-09-05T16:33:55Z</time>
      </trkpt>
      <trkpt lat="42.784919" lon="-.594366">
        <ele>2019.337</ele>
        <time>2020-09-05T16:34:03Z</time>
      </trkpt>
      <trkpt lat="42.784896" lon="-.594423">
        <ele>2020.691</ele>
        <time>2020-09-05T16:34:09Z</time>
      </trkpt>
      <trkpt lat="42.784848" lon="-.594438">
        <ele>2021.881</ele>
        <time>2020-09-05T16:34:15Z</time>
      </trkpt>
      <trkpt lat="42.784806" lon="-.594469">
        <ele>2023.119</ele>
        <time>2020-09-05T16:34:21Z</time>
      </trkpt>
      <trkpt lat="42.784757" lon="-.594468">
        <ele>2024.208</ele>
        <time>2020-09-05T16:34:26Z</time>
      </trkpt>
      <trkpt lat="42.784709" lon="-.594486">
        <ele>2025.184</ele>
        <time>2020-09-05T16:34:31Z</time>
      </trkpt>
      <trkpt lat="42.784665" lon="-.594507">
        <ele>2025.975</ele>
        <time>2020-09-05T16:34:35Z</time>
      </trkpt>
      <trkpt lat="42.784621" lon="-.594538">
        <ele>2026.881</ele>
        <time>2020-09-05T16:34:41Z</time>
      </trkpt>
      <trkpt lat="42.784576" lon="-.594555">
        <ele>2027.539</ele>
        <time>2020-09-05T16:34:47Z</time>
      </trkpt>
      <trkpt lat="42.784527" lon="-.594551">
        <ele>2028.240</ele>
        <time>2020-09-05T16:34:51Z</time>
      </trkpt>
      <trkpt lat="42.784478" lon="-.594565">
        <ele>2028.897</ele>
        <time>2020-09-05T16:34:55Z</time>
      </trkpt>
      <trkpt lat="42.784439" lon="-.594602">
        <ele>2029.483</ele>
        <time>2020-09-05T16:35:00Z</time>
      </trkpt>
      <trkpt lat="42.784402" lon="-.594653">
        <ele>2030.093</ele>
        <time>2020-09-05T16:35:04Z</time>
      </trkpt>
      <trkpt lat="42.784367" lon="-.594692">
        <ele>2030.591</ele>
        <time>2020-09-05T16:35:08Z</time>
      </trkpt>
      <trkpt lat="42.784326" lon="-.594725">
        <ele>2031.081</ele>
        <time>2020-09-05T16:35:12Z</time>
      </trkpt>
      <trkpt lat="42.784291" lon="-.594771">
        <ele>2031.419</ele>
        <time>2020-09-05T16:35:17Z</time>
      </trkpt>
      <trkpt lat="42.784267" lon="-.594842">
        <ele>2031.708</ele>
        <time>2020-09-05T16:35:21Z</time>
      </trkpt>
      <trkpt lat="42.784249" lon="-.594899">
        <ele>2032.184</ele>
        <time>2020-09-05T16:35:25Z</time>
      </trkpt>
      <trkpt lat="42.784229" lon="-.594962">
        <ele>2032.535</ele>
        <time>2020-09-05T16:35:30Z</time>
      </trkpt>
      <trkpt lat="42.784202" lon="-.595017">
        <ele>2033.181</ele>
        <time>2020-09-05T16:35:35Z</time>
      </trkpt>
      <trkpt lat="42.784162" lon="-.595046">
        <ele>2033.859</ele>
        <time>2020-09-05T16:35:41Z</time>
      </trkpt>
      <trkpt lat="42.78412" lon="-.595082">
        <ele>2034.520</ele>
        <time>2020-09-05T16:35:47Z</time>
      </trkpt>
      <trkpt lat="42.784082" lon="-.595129">
        <ele>2035.147</ele>
        <time>2020-09-05T16:35:52Z</time>
      </trkpt>
      <trkpt lat="42.784046" lon="-.595171">
        <ele>2035.683</ele>
        <time>2020-09-05T16:35:57Z</time>
      </trkpt>
      <trkpt lat="42.784005" lon="-.59521">
        <ele>2036.173</ele>
        <time>2020-09-05T16:36:03Z</time>
      </trkpt>
      <trkpt lat="42.783983" lon="-.595268">
        <ele>2036.951</ele>
        <time>2020-09-05T16:36:09Z</time>
      </trkpt>
      <trkpt lat="42.783951" lon="-.595311">
        <ele>2037.501</ele>
        <time>2020-09-05T16:36:16Z</time>
      </trkpt>
      <trkpt lat="42.783916" lon="-.595355">
        <ele>2038.311</ele>
        <time>2020-09-05T16:36:23Z</time>
      </trkpt>
      <trkpt lat="42.783877" lon="-.595394">
        <ele>2039.008</ele>
        <time>2020-09-05T16:36:28Z</time>
      </trkpt>
      <trkpt lat="42.783859" lon="-.595455">
        <ele>2039.660</ele>
        <time>2020-09-05T16:36:34Z</time>
      </trkpt>
      <trkpt lat="42.783825" lon="-.595506">
        <ele>2040.271</ele>
        <time>2020-09-05T16:36:40Z</time>
      </trkpt>
      <trkpt lat="42.783784" lon="-.595552">
        <ele>2040.747</ele>
        <time>2020-09-05T16:36:45Z</time>
      </trkpt>
      <trkpt lat="42.783745" lon="-.59559">
        <ele>2041.285</ele>
        <time>2020-09-05T16:36:49Z</time>
      </trkpt>
      <trkpt lat="42.783711" lon="-.595634">
        <ele>2041.546</ele>
        <time>2020-09-05T16:36:54Z</time>
      </trkpt>
      <trkpt lat="42.783665" lon="-.595654">
        <ele>2041.893</ele>
        <time>2020-09-05T16:37:00Z</time>
      </trkpt>
      <trkpt lat="42.783628" lon="-.595693">
        <ele>2042.059</ele>
        <time>2020-09-05T16:37:04Z</time>
      </trkpt>
      <trkpt lat="42.783596" lon="-.595738">
        <ele>2042.269</ele>
        <time>2020-09-05T16:37:08Z</time>
      </trkpt>
      <trkpt lat="42.783561" lon="-.59578">
        <ele>2042.259</ele>
        <time>2020-09-05T16:37:13Z</time>
      </trkpt>
      <trkpt lat="42.783532" lon="-.595832">
        <ele>2042.103</ele>
        <time>2020-09-05T16:37:17Z</time>
      </trkpt>
      <trkpt lat="42.783484" lon="-.595867">
        <ele>2042.023</ele>
        <time>2020-09-05T16:37:22Z</time>
      </trkpt>
      <trkpt lat="42.783453" lon="-.595916">
        <ele>2041.908</ele>
        <time>2020-09-05T16:37:28Z</time>
      </trkpt>
      <trkpt lat="42.783427" lon="-.59597">
        <ele>2041.910</ele>
        <time>2020-09-05T16:37:34Z</time>
      </trkpt>
      <trkpt lat="42.783389" lon="-.59601">
        <ele>2041.961</ele>
        <time>2020-09-05T16:37:38Z</time>
      </trkpt>
      <trkpt lat="42.783344" lon="-.59603">
        <ele>2041.927</ele>
        <time>2020-09-05T16:37:43Z</time>
      </trkpt>
      <trkpt lat="42.783298" lon="-.596038">
        <ele>2041.965</ele>
        <time>2020-09-05T16:37:48Z</time>
      </trkpt>
      <trkpt lat="42.783253" lon="-.596048">
        <ele>2041.946</ele>
        <time>2020-09-05T16:37:52Z</time>
      </trkpt>
      <trkpt lat="42.783211" lon="-.59607">
        <ele>2041.943</ele>
        <time>2020-09-05T16:37:56Z</time>
      </trkpt>
      <trkpt lat="42.783166" lon="-.596093">
        <ele>2042.089</ele>
        <time>2020-09-05T16:38:01Z</time>
      </trkpt>
      <trkpt lat="42.783127" lon="-.596125">
        <ele>2042.199</ele>
        <time>2020-09-05T16:38:07Z</time>
      </trkpt>
      <trkpt lat="42.783096" lon="-.596171">
        <ele>2042.182</ele>
        <time>2020-09-05T16:38:11Z</time>
      </trkpt>
      <trkpt lat="42.783058" lon="-.59621">
        <ele>2042.243</ele>
        <time>2020-09-05T16:38:17Z</time>
      </trkpt>
      <trkpt lat="42.783032" lon="-.596263">
        <ele>2042.617</ele>
        <time>2020-09-05T16:38:23Z</time>
      </trkpt>
      <trkpt lat="42.783006" lon="-.596319">
        <ele>2043.108</ele>
        <time>2020-09-05T16:38:31Z</time>
      </trkpt>
      <trkpt lat="42.782974" lon="-.596364">
        <ele>2043.793</ele>
        <time>2020-09-05T16:38:37Z</time>
      </trkpt>
      <trkpt lat="42.782958" lon="-.596425">
        <ele>2044.494</ele>
        <time>2020-09-05T16:38:47Z</time>
      </trkpt>
      <trkpt lat="42.782919" lon="-.596467">
        <ele>2045.360</ele>
        <time>2020-09-05T16:38:55Z</time>
      </trkpt>
      <trkpt lat="42.782876" lon="-.596487">
        <ele>2046.468</ele>
        <time>2020-09-05T16:39:01Z</time>
      </trkpt>
      <trkpt lat="42.782838" lon="-.596526">
        <ele>2047.599</ele>
        <time>2020-09-05T16:39:10Z</time>
      </trkpt>
      <trkpt lat="42.782794" lon="-.596552">
        <ele>2048.616</ele>
        <time>2020-09-05T16:39:16Z</time>
      </trkpt>
      <trkpt lat="42.782765" lon="-.596601">
        <ele>2050.052</ele>
        <time>2020-09-05T16:39:32Z</time>
      </trkpt>
      <trkpt lat="42.782751" lon="-.59666">
        <ele>2051.312</ele>
        <time>2020-09-05T16:39:39Z</time>
      </trkpt>
      <trkpt lat="42.782762" lon="-.596727">
        <ele>2052.361</ele>
        <time>2020-09-05T16:39:44Z</time>
      </trkpt>
      <trkpt lat="42.782768" lon="-.59679">
        <ele>2053.121</ele>
        <time>2020-09-05T16:39:49Z</time>
      </trkpt>
      <trkpt lat="42.782743" lon="-.596843">
        <ele>2054.013</ele>
        <time>2020-09-05T16:39:57Z</time>
      </trkpt>
      <trkpt lat="42.782709" lon="-.596886">
        <ele>2055.908</ele>
        <time>2020-09-05T16:40:18Z</time>
      </trkpt>
      <trkpt lat="42.782688" lon="-.596941">
        <ele>2057.581</ele>
        <time>2020-09-05T16:40:26Z</time>
      </trkpt>
      <trkpt lat="42.782651" lon="-.596983">
        <ele>2059.192</ele>
        <time>2020-09-05T16:40:33Z</time>
      </trkpt>
      <trkpt lat="42.782616" lon="-.597034">
        <ele>2060.878</ele>
        <time>2020-09-05T16:40:40Z</time>
      </trkpt>
      <trkpt lat="42.782574" lon="-.597065">
        <ele>2062.486</ele>
        <time>2020-09-05T16:40:47Z</time>
      </trkpt>
      <trkpt lat="42.782529" lon="-.597074">
        <ele>2064.117</ele>
        <time>2020-09-05T16:41:12Z</time>
      </trkpt>
      <trkpt lat="42.782489" lon="-.597108">
        <ele>2066.224</ele>
        <time>2020-09-05T16:41:20Z</time>
      </trkpt>
      <trkpt lat="42.782453" lon="-.597144">
        <ele>2067.740</ele>
        <time>2020-09-05T16:41:26Z</time>
      </trkpt>
      <trkpt lat="42.782416" lon="-.597185">
        <ele>2068.770</ele>
        <time>2020-09-05T16:41:32Z</time>
      </trkpt>
      <trkpt lat="42.782377" lon="-.597216">
        <ele>2069.556</ele>
        <time>2020-09-05T16:41:43Z</time>
      </trkpt>
      <trkpt lat="42.782371" lon="-.59728">
        <ele>2070.359</ele>
        <time>2020-09-05T16:41:57Z</time>
      </trkpt>
      <trkpt lat="42.782324" lon="-.597306">
        <ele>2070.814</ele>
        <time>2020-09-05T16:42:04Z</time>
      </trkpt>
      <trkpt lat="42.782316" lon="-.597369">
        <ele>2071.508</ele>
        <time>2020-09-05T16:42:11Z</time>
      </trkpt>
      <trkpt lat="42.782291" lon="-.597422">
        <ele>2072.980</ele>
        <time>2020-09-05T16:42:39Z</time>
      </trkpt>
      <trkpt lat="42.782259" lon="-.597475">
        <ele>2074.031</ele>
        <time>2020-09-05T16:42:48Z</time>
      </trkpt>
      <trkpt lat="42.782237" lon="-.59753">
        <ele>2074.897</ele>
        <time>2020-09-05T16:42:54Z</time>
      </trkpt>
      <trkpt lat="42.78223" lon="-.597591">
        <ele>2075.415</ele>
        <time>2020-09-05T16:43:00Z</time>
      </trkpt>
      <trkpt lat="42.782192" lon="-.597629">
        <ele>2076.086</ele>
        <time>2020-09-05T16:43:07Z</time>
      </trkpt>
      <trkpt lat="42.782157" lon="-.597669">
        <ele>2077.433</ele>
        <time>2020-09-05T16:43:17Z</time>
      </trkpt>
      <trkpt lat="42.782113" lon="-.597687">
        <ele>2078.819</ele>
        <time>2020-09-05T16:43:24Z</time>
      </trkpt>
      <trkpt lat="42.782066" lon="-.597717">
        <ele>2080.679</ele>
        <time>2020-09-05T16:43:31Z</time>
      </trkpt>
      <trkpt lat="42.782066" lon="-.597717">
        <ele>2080.699</ele>
        <time>2020-09-05T16:43:31Z</time>
      </trkpt>
      <trkpt lat="42.782025" lon="-.59776">
        <ele>2081.307</ele>
        <time>2020-09-05T16:43:36Z</time>
      </trkpt>
      <trkpt lat="42.782006" lon="-.597817">
        <ele>2081.827</ele>
        <time>2020-09-05T16:43:40Z</time>
      </trkpt>
      <trkpt lat="42.782002" lon="-.597885">
        <ele>2081.808</ele>
        <time>2020-09-05T16:43:47Z</time>
      </trkpt>
      <trkpt lat="42.781981" lon="-.597946">
        <ele>2082.544</ele>
        <time>2020-09-05T16:43:54Z</time>
      </trkpt>
      <trkpt lat="42.781963" lon="-.598002">
        <ele>2083.815</ele>
        <time>2020-09-05T16:43:59Z</time>
      </trkpt>
      <trkpt lat="42.781981" lon="-.598061">
        <ele>2084.911</ele>
        <time>2020-09-05T16:44:06Z</time>
      </trkpt>
      <trkpt lat="42.78197" lon="-.598129">
        <ele>2085.369</ele>
        <time>2020-09-05T16:44:11Z</time>
      </trkpt>
      <trkpt lat="42.78195" lon="-.598187">
        <ele>2085.670</ele>
        <time>2020-09-05T16:44:16Z</time>
      </trkpt>
      <trkpt lat="42.781929" lon="-.598246">
        <ele>2086.637</ele>
        <time>2020-09-05T16:44:28Z</time>
      </trkpt>
      <trkpt lat="42.781906" lon="-.598305">
        <ele>2088.283</ele>
        <time>2020-09-05T16:44:38Z</time>
      </trkpt>
      <trkpt lat="42.781911" lon="-.598366">
        <ele>2089.683</ele>
        <time>2020-09-05T16:44:43Z</time>
      </trkpt>
      <trkpt lat="42.781907" lon="-.598434">
        <ele>2090.842</ele>
        <time>2020-09-05T16:44:48Z</time>
      </trkpt>
      <trkpt lat="42.781883" lon="-.598489">
        <ele>2092.222</ele>
        <time>2020-09-05T16:44:55Z</time>
      </trkpt>
      <trkpt lat="42.781865" lon="-.59855">
        <ele>2093.914</ele>
        <time>2020-09-05T16:45:05Z</time>
      </trkpt>
      <trkpt lat="42.781831" lon="-.598599">
        <ele>2095.508</ele>
        <time>2020-09-05T16:45:12Z</time>
      </trkpt>
      <trkpt lat="42.781816" lon="-.598657">
        <ele>2097.649</ele>
        <time>2020-09-05T16:45:23Z</time>
      </trkpt>
      <trkpt lat="42.781826" lon="-.598717">
        <ele>2099.610</ele>
        <time>2020-09-05T16:45:30Z</time>
      </trkpt>
      <trkpt lat="42.781833" lon="-.598783">
        <ele>2101.326</ele>
        <time>2020-09-05T16:45:39Z</time>
      </trkpt>
      <trkpt lat="42.781842" lon="-.598845">
        <ele>2102.874</ele>
        <time>2020-09-05T16:45:52Z</time>
      </trkpt>
      <trkpt lat="42.781844" lon="-.598906">
        <ele>2104.025</ele>
        <time>2020-09-05T16:45:57Z</time>
      </trkpt>
      <trkpt lat="42.781816" lon="-.59897">
        <ele>2104.952</ele>
        <time>2020-09-05T16:46:04Z</time>
      </trkpt>
      <trkpt lat="42.781789" lon="-.599023">
        <ele>2105.688</ele>
        <time>2020-09-05T16:46:10Z</time>
      </trkpt>
      <trkpt lat="42.781764" lon="-.599081">
        <ele>2106.318</ele>
        <time>2020-09-05T16:46:16Z</time>
      </trkpt>
      <trkpt lat="42.781771" lon="-.599143">
        <ele>2106.957</ele>
        <time>2020-09-05T16:46:23Z</time>
      </trkpt>
      <trkpt lat="42.781758" lon="-.599205">
        <ele>2107.100</ele>
        <time>2020-09-05T16:46:32Z</time>
      </trkpt>
      <trkpt lat="42.781727" lon="-.599251">
        <ele>2107.120</ele>
        <time>2020-09-05T16:46:39Z</time>
      </trkpt>
      <trkpt lat="42.781703" lon="-.599303">
        <ele>2106.908</ele>
        <time>2020-09-05T16:46:56Z</time>
      </trkpt>
      <trkpt lat="42.781671" lon="-.599355">
        <ele>2105.980</ele>
        <time>2020-09-05T16:47:21Z</time>
      </trkpt>
      <trkpt lat="42.781655" lon="-.599419">
        <ele>2105.241</ele>
        <time>2020-09-05T16:47:26Z</time>
      </trkpt>
      <trkpt lat="42.781657" lon="-.599483">
        <ele>2104.987</ele>
        <time>2020-09-05T16:47:32Z</time>
      </trkpt>
      <trkpt lat="42.78164" lon="-.59954">
        <ele>2104.965</ele>
        <time>2020-09-05T16:47:37Z</time>
      </trkpt>
      <trkpt lat="42.781619" lon="-.599601">
        <ele>2105.066</ele>
        <time>2020-09-05T16:47:43Z</time>
      </trkpt>
      <trkpt lat="42.781594" lon="-.59966">
        <ele>2105.433</ele>
        <time>2020-09-05T16:47:48Z</time>
      </trkpt>
      <trkpt lat="42.781562" lon="-.59971">
        <ele>2105.779</ele>
        <time>2020-09-05T16:47:53Z</time>
      </trkpt>
      <trkpt lat="42.781551" lon="-.59977">
        <ele>2106.119</ele>
        <time>2020-09-05T16:47:58Z</time>
      </trkpt>
      <trkpt lat="42.781553" lon="-.599832">
        <ele>2106.297</ele>
        <time>2020-09-05T16:48:03Z</time>
      </trkpt>
      <trkpt lat="42.781524" lon="-.599896">
        <ele>2106.423</ele>
        <time>2020-09-05T16:48:24Z</time>
      </trkpt>
      <trkpt lat="42.781504" lon="-.599958">
        <ele>2106.725</ele>
        <time>2020-09-05T16:48:30Z</time>
      </trkpt>
      <trkpt lat="42.781516" lon="-.600021">
        <ele>2106.908</ele>
        <time>2020-09-05T16:48:35Z</time>
      </trkpt>
      <trkpt lat="42.781491" lon="-.600074">
        <ele>2107.094</ele>
        <time>2020-09-05T16:48:41Z</time>
      </trkpt>
      <trkpt lat="42.781487" lon="-.600136">
        <ele>2106.935</ele>
        <time>2020-09-05T16:48:46Z</time>
      </trkpt>
      <trkpt lat="42.781497" lon="-.600197">
        <ele>2106.991</ele>
        <time>2020-09-05T16:48:51Z</time>
      </trkpt>
      <trkpt lat="42.781544" lon="-.600217">
        <ele>2106.949</ele>
        <time>2020-09-05T16:48:55Z</time>
      </trkpt>
      <trkpt lat="42.781564" lon="-.600275">
        <ele>2106.880</ele>
        <time>2020-09-05T16:49:03Z</time>
      </trkpt>
      <trkpt lat="42.781558" lon="-.600341">
        <ele>2106.517</ele>
        <time>2020-09-05T16:49:10Z</time>
      </trkpt>
      <trkpt lat="42.78154" lon="-.600403">
        <ele>2105.363</ele>
        <time>2020-09-05T16:49:30Z</time>
      </trkpt>
      <trkpt lat="42.781528" lon="-.600465">
        <ele>2104.233</ele>
        <time>2020-09-05T16:49:35Z</time>
      </trkpt>
      <trkpt lat="42.781519" lon="-.600534">
        <ele>2103.434</ele>
        <time>2020-09-05T16:49:40Z</time>
      </trkpt>
      <trkpt lat="42.781502" lon="-.600592">
        <ele>2102.755</ele>
        <time>2020-09-05T16:49:44Z</time>
      </trkpt>
      <trkpt lat="42.781497" lon="-.600655">
        <ele>2102.210</ele>
        <time>2020-09-05T16:49:49Z</time>
      </trkpt>
      <trkpt lat="42.781493" lon="-.600722">
        <ele>2101.808</ele>
        <time>2020-09-05T16:49:54Z</time>
      </trkpt>
      <trkpt lat="42.781486" lon="-.600786">
        <ele>2101.188</ele>
        <time>2020-09-05T16:50:03Z</time>
      </trkpt>
      <trkpt lat="42.781488" lon="-.600849">
        <ele>2100.529</ele>
        <time>2020-09-05T16:50:07Z</time>
      </trkpt>
      <trkpt lat="42.781486" lon="-.600916">
        <ele>2100.135</ele>
        <time>2020-09-05T16:50:11Z</time>
      </trkpt>
      <trkpt lat="42.7815" lon="-.600985">
        <ele>2099.783</ele>
        <time>2020-09-05T16:50:18Z</time>
      </trkpt>
      <trkpt lat="42.781524" lon="-.601046">
        <ele>2099.574</ele>
        <time>2020-09-05T16:50:23Z</time>
      </trkpt>
      <trkpt lat="42.781543" lon="-.601112">
        <ele>2099.471</ele>
        <time>2020-09-05T16:50:28Z</time>
      </trkpt>
      <trkpt lat="42.781574" lon="-.601159">
        <ele>2099.337</ele>
        <time>2020-09-05T16:50:33Z</time>
      </trkpt>
      <trkpt lat="42.781579" lon="-.601226">
        <ele>2099.317</ele>
        <time>2020-09-05T16:50:39Z</time>
      </trkpt>
      <trkpt lat="42.781561" lon="-.601285">
        <ele>2099.573</ele>
        <time>2020-09-05T16:50:45Z</time>
      </trkpt>
      <trkpt lat="42.781574" lon="-.601355">
        <ele>2099.685</ele>
        <time>2020-09-05T16:51:05Z</time>
      </trkpt>
      <trkpt lat="42.781608" lon="-.601407">
        <ele>2099.613</ele>
        <time>2020-09-05T16:51:12Z</time>
      </trkpt>
      <trkpt lat="42.781637" lon="-.601454">
        <ele>2099.708</ele>
        <time>2020-09-05T16:51:18Z</time>
      </trkpt>
      <trkpt lat="42.781654" lon="-.601513">
        <ele>2098.922</ele>
        <time>2020-09-05T16:51:44Z</time>
      </trkpt>
      <trkpt lat="42.781679" lon="-.60157">
        <ele>2098.963</ele>
        <time>2020-09-05T16:51:51Z</time>
      </trkpt>
      <trkpt lat="42.781705" lon="-.601629">
        <ele>2099.399</ele>
        <time>2020-09-05T16:52:10Z</time>
      </trkpt>
      <trkpt lat="42.781735" lon="-.601675">
        <ele>2099.697</ele>
        <time>2020-09-05T16:52:17Z</time>
      </trkpt>
      <trkpt lat="42.781726" lon="-.601738">
        <ele>2100.288</ele>
        <time>2020-09-05T16:52:31Z</time>
      </trkpt>
      <trkpt lat="42.781683" lon="-.601759">
        <ele>2101.115</ele>
        <time>2020-09-05T16:52:36Z</time>
      </trkpt>
      <trkpt lat="42.78164" lon="-.601732">
        <ele>2102.171</ele>
        <time>2020-09-05T16:52:42Z</time>
      </trkpt>
      <trkpt lat="42.781599" lon="-.601761">
        <ele>2102.781</ele>
        <time>2020-09-05T16:54:02Z</time>
      </trkpt>
      <trkpt lat="42.781575" lon="-.601707">
        <ele>2102.531</ele>
        <time>2020-09-05T16:59:57Z</time>
      </trkpt>
      <trkpt lat="42.78159" lon="-.601769">
        <ele>2102.761</ele>
        <time>2020-09-05T17:00:14Z</time>
      </trkpt>
      <trkpt lat="42.781578" lon="-.601709">
        <ele>2102.807</ele>
        <time>2020-09-05T17:01:29Z</time>
      </trkpt>
      <trkpt lat="42.781562" lon="-.601651">
        <ele>2102.608</ele>
        <time>2020-09-05T17:01:35Z</time>
      </trkpt>
      <trkpt lat="42.781589" lon="-.601701">
        <ele>2103.198</ele>
        <time>2020-09-05T17:02:29Z</time>
      </trkpt>
      <trkpt lat="42.781635" lon="-.601717">
        <ele>2103.569</ele>
        <time>2020-09-05T17:02:39Z</time>
      </trkpt>
      <trkpt lat="42.781663" lon="-.601768">
        <ele>2104.335</ele>
        <time>2020-09-05T17:03:49Z</time>
      </trkpt>
      <trkpt lat="42.781707" lon="-.601743">
        <ele>2105.493</ele>
        <time>2020-09-05T17:04:12Z</time>
      </trkpt>
      <trkpt lat="42.781753" lon="-.601755">
        <ele>2105.954</ele>
        <time>2020-09-05T17:04:20Z</time>
      </trkpt>
      <trkpt lat="42.781801" lon="-.60177">
        <ele>2106.341</ele>
        <time>2020-09-05T17:04:24Z</time>
      </trkpt>
      <trkpt lat="42.781851" lon="-.601781">
        <ele>2106.937</ele>
        <time>2020-09-05T17:04:29Z</time>
      </trkpt>
      <trkpt lat="42.78188" lon="-.601829">
        <ele>2107.567</ele>
        <time>2020-09-05T17:04:36Z</time>
      </trkpt>
      <trkpt lat="42.781885" lon="-.60189">
        <ele>2108.868</ele>
        <time>2020-09-05T17:04:45Z</time>
      </trkpt>
      <trkpt lat="42.781889" lon="-.601952">
        <ele>2109.842</ele>
        <time>2020-09-05T17:04:52Z</time>
      </trkpt>
      <trkpt lat="42.781899" lon="-.602013">
        <ele>2110.626</ele>
        <time>2020-09-05T17:04:58Z</time>
      </trkpt>
      <trkpt lat="42.781935" lon="-.602054">
        <ele>2111.708</ele>
        <time>2020-09-05T17:05:08Z</time>
      </trkpt>
      <trkpt lat="42.781965" lon="-.602103">
        <ele>2112.841</ele>
        <time>2020-09-05T17:05:14Z</time>
      </trkpt>
      <trkpt lat="42.782006" lon="-.602135">
        <ele>2113.932</ele>
        <time>2020-09-05T17:05:19Z</time>
      </trkpt>
      <trkpt lat="42.782038" lon="-.602183">
        <ele>2114.968</ele>
        <time>2020-09-05T17:05:25Z</time>
      </trkpt>
      <trkpt lat="42.782076" lon="-.602217">
        <ele>2115.796</ele>
        <time>2020-09-05T17:05:34Z</time>
      </trkpt>
      <trkpt lat="42.782115" lon="-.602258">
        <ele>2116.117</ele>
        <time>2020-09-05T17:05:48Z</time>
      </trkpt>
      <trkpt lat="42.782162" lon="-.602254">
        <ele>2116.354</ele>
        <time>2020-09-05T17:05:54Z</time>
      </trkpt>
      <trkpt lat="42.782199" lon="-.602292">
        <ele>2115.970</ele>
        <time>2020-09-05T17:06:02Z</time>
      </trkpt>
      <trkpt lat="42.78223" lon="-.602338">
        <ele>2114.960</ele>
        <time>2020-09-05T17:06:08Z</time>
      </trkpt>
      <trkpt lat="42.782247" lon="-.602396">
        <ele>2114.067</ele>
        <time>2020-09-05T17:06:14Z</time>
      </trkpt>
      <trkpt lat="42.782262" lon="-.602457">
        <ele>2113.281</ele>
        <time>2020-09-05T17:06:22Z</time>
      </trkpt>
      <trkpt lat="42.782286" lon="-.60251">
        <ele>2112.419</ele>
        <time>2020-09-05T17:06:31Z</time>
      </trkpt>
      <trkpt lat="42.782293" lon="-.602572">
        <ele>2111.608</ele>
        <time>2020-09-05T17:06:37Z</time>
      </trkpt>
      <trkpt lat="42.782317" lon="-.602634">
        <ele>2110.781</ele>
        <time>2020-09-05T17:06:43Z</time>
      </trkpt>
      <trkpt lat="42.782356" lon="-.602689">
        <ele>2109.772</ele>
        <time>2020-09-05T17:06:48Z</time>
      </trkpt>
      <trkpt lat="42.782403" lon="-.602725">
        <ele>2108.578</ele>
        <time>2020-09-05T17:06:52Z</time>
      </trkpt>
      <trkpt lat="42.782431" lon="-.602778">
        <ele>2107.016</ele>
        <time>2020-09-05T17:06:58Z</time>
      </trkpt>
      <trkpt lat="42.782418" lon="-.602839">
        <ele>2105.267</ele>
        <time>2020-09-05T17:07:16Z</time>
      </trkpt>
      <trkpt lat="42.782459" lon="-.602867">
        <ele>2103.694</ele>
        <time>2020-09-05T17:07:24Z</time>
      </trkpt>
      <trkpt lat="42.782502" lon="-.602903">
        <ele>2101.840</ele>
        <time>2020-09-05T17:07:47Z</time>
      </trkpt>
      <trkpt lat="42.782534" lon="-.602954">
        <ele>2100.510</ele>
        <time>2020-09-05T17:07:51Z</time>
      </trkpt>
      <trkpt lat="42.782554" lon="-.603012">
        <ele>2099.515</ele>
        <time>2020-09-05T17:07:57Z</time>
      </trkpt>
      <trkpt lat="42.782565" lon="-.603073">
        <ele>2098.465</ele>
        <time>2020-09-05T17:08:27Z</time>
      </trkpt>
      <trkpt lat="42.782592" lon="-.603123">
        <ele>2097.511</ele>
        <time>2020-09-05T17:08:31Z</time>
      </trkpt>
      <trkpt lat="42.782617" lon="-.603191">
        <ele>2097.108</ele>
        <time>2020-09-05T17:08:36Z</time>
      </trkpt>
      <trkpt lat="42.782625" lon="-.603259">
        <ele>2096.616</ele>
        <time>2020-09-05T17:08:40Z</time>
      </trkpt>
      <trkpt lat="42.782628" lon="-.603323">
        <ele>2095.957</ele>
        <time>2020-09-05T17:08:53Z</time>
      </trkpt>
      <trkpt lat="42.782646" lon="-.603383">
        <ele>2094.513</ele>
        <time>2020-09-05T17:09:43Z</time>
      </trkpt>
      <trkpt lat="42.782694" lon="-.603383">
        <ele>2093.991</ele>
        <time>2020-09-05T17:09:51Z</time>
      </trkpt>
      <trkpt lat="42.782739" lon="-.603393">
        <ele>2093.422</ele>
        <time>2020-09-05T17:09:58Z</time>
      </trkpt>
      <trkpt lat="42.782719" lon="-.60346">
        <ele>2092.779</ele>
        <time>2020-09-05T17:10:04Z</time>
      </trkpt>
      <trkpt lat="42.782676" lon="-.603498">
        <ele>2091.935</ele>
        <time>2020-09-05T17:10:09Z</time>
      </trkpt>
      <trkpt lat="42.782644" lon="-.603548">
        <ele>2091.195</ele>
        <time>2020-09-05T17:10:14Z</time>
      </trkpt>
      <trkpt lat="42.782605" lon="-.603581">
        <ele>2090.373</ele>
        <time>2020-09-05T17:10:18Z</time>
      </trkpt>
      <trkpt lat="42.782566" lon="-.603616">
        <ele>2089.785</ele>
        <time>2020-09-05T17:10:23Z</time>
      </trkpt>
      <trkpt lat="42.782544" lon="-.603676">
        <ele>2089.113</ele>
        <time>2020-09-05T17:10:30Z</time>
      </trkpt>
      <trkpt lat="42.782577" lon="-.603718">
        <ele>2088.608</ele>
        <time>2020-09-05T17:10:34Z</time>
      </trkpt>
      <trkpt lat="42.782599" lon="-.603779">
        <ele>2088.222</ele>
        <time>2020-09-05T17:10:39Z</time>
      </trkpt>
      <trkpt lat="42.782634" lon="-.603824">
        <ele>2087.883</ele>
        <time>2020-09-05T17:10:43Z</time>
      </trkpt>
      <trkpt lat="42.782677" lon="-.603856">
        <ele>2087.449</ele>
        <time>2020-09-05T17:10:47Z</time>
      </trkpt>
      <trkpt lat="42.782683" lon="-.603925">
        <ele>2086.637</ele>
        <time>2020-09-05T17:10:55Z</time>
      </trkpt>
      <trkpt lat="42.782692" lon="-.603991">
        <ele>2085.818</ele>
        <time>2020-09-05T17:11:01Z</time>
      </trkpt>
      <trkpt lat="42.782689" lon="-.604054">
        <ele>2085.085</ele>
        <time>2020-09-05T17:11:07Z</time>
      </trkpt>
      <trkpt lat="42.782701" lon="-.604117">
        <ele>2084.351</ele>
        <time>2020-09-05T17:11:13Z</time>
      </trkpt>
      <trkpt lat="42.782715" lon="-.604189">
        <ele>2083.741</ele>
        <time>2020-09-05T17:11:19Z</time>
      </trkpt>
      <trkpt lat="42.782753" lon="-.604229">
        <ele>2082.991</ele>
        <time>2020-09-05T17:11:23Z</time>
      </trkpt>
      <trkpt lat="42.782783" lon="-.60428">
        <ele>2082.081</ele>
        <time>2020-09-05T17:11:29Z</time>
      </trkpt>
      <trkpt lat="42.782784" lon="-.604346">
        <ele>2081.519</ele>
        <time>2020-09-05T17:11:35Z</time>
      </trkpt>
      <trkpt lat="42.782783" lon="-.604409">
        <ele>2081.008</ele>
        <time>2020-09-05T17:11:45Z</time>
      </trkpt>
      <trkpt lat="42.782783" lon="-.604473">
        <ele>2080.474</ele>
        <time>2020-09-05T17:11:53Z</time>
      </trkpt>
      <trkpt lat="42.782768" lon="-.604535">
        <ele>2079.955</ele>
        <time>2020-09-05T17:12:02Z</time>
      </trkpt>
      <trkpt lat="42.78273" lon="-.604572">
        <ele>2079.511</ele>
        <time>2020-09-05T17:12:06Z</time>
      </trkpt>
      <trkpt lat="42.782726" lon="-.604635">
        <ele>2079.219</ele>
        <time>2020-09-05T17:12:12Z</time>
      </trkpt>
      <trkpt lat="42.782739" lon="-.6047">
        <ele>2078.910</ele>
        <time>2020-09-05T17:12:17Z</time>
      </trkpt>
      <trkpt lat="42.782756" lon="-.604767">
        <ele>2078.457</ele>
        <time>2020-09-05T17:12:22Z</time>
      </trkpt>
      <trkpt lat="42.782794" lon="-.604801">
        <ele>2077.813</ele>
        <time>2020-09-05T17:12:28Z</time>
      </trkpt>
      <trkpt lat="42.782837" lon="-.604831">
        <ele>2077.023</ele>
        <time>2020-09-05T17:12:44Z</time>
      </trkpt>
      <trkpt lat="42.782876" lon="-.604871">
        <ele>2076.751</ele>
        <time>2020-09-05T17:12:50Z</time>
      </trkpt>
      <trkpt lat="42.782901" lon="-.604927">
        <ele>2076.701</ele>
        <time>2020-09-05T17:12:56Z</time>
      </trkpt>
      <trkpt lat="42.782913" lon="-.604994">
        <ele>2076.811</ele>
        <time>2020-09-05T17:13:01Z</time>
      </trkpt>
      <trkpt lat="42.782915" lon="-.605055">
        <ele>2076.808</ele>
        <time>2020-09-05T17:13:05Z</time>
      </trkpt>
      <trkpt lat="42.782933" lon="-.605113">
        <ele>2076.740</ele>
        <time>2020-09-05T17:13:10Z</time>
      </trkpt>
      <trkpt lat="42.782938" lon="-.605175">
        <ele>2076.691</ele>
        <time>2020-09-05T17:13:16Z</time>
      </trkpt>
      <trkpt lat="42.782954" lon="-.605235">
        <ele>2076.397</ele>
        <time>2020-09-05T17:13:22Z</time>
      </trkpt>
      <trkpt lat="42.78297" lon="-.605296">
        <ele>2075.945</ele>
        <time>2020-09-05T17:13:26Z</time>
      </trkpt>
      <trkpt lat="42.782992" lon="-.605352">
        <ele>2075.326</ele>
        <time>2020-09-05T17:13:32Z</time>
      </trkpt>
      <trkpt lat="42.783022" lon="-.605398">
        <ele>2074.883</ele>
        <time>2020-09-05T17:13:38Z</time>
      </trkpt>
      <trkpt lat="42.783066" lon="-.605423">
        <ele>2074.289</ele>
        <time>2020-09-05T17:13:43Z</time>
      </trkpt>
      <trkpt lat="42.783097" lon="-.605467">
        <ele>2073.489</ele>
        <time>2020-09-05T17:13:48Z</time>
      </trkpt>
      <trkpt lat="42.783128" lon="-.60552">
        <ele>2073.551</ele>
        <time>2020-09-05T17:14:13Z</time>
      </trkpt>
      <trkpt lat="42.783165" lon="-.605555">
        <ele>2073.701</ele>
        <time>2020-09-05T17:14:17Z</time>
      </trkpt>
      <trkpt lat="42.7832" lon="-.605607">
        <ele>2073.911</ele>
        <time>2020-09-05T17:14:21Z</time>
      </trkpt>
      <trkpt lat="42.783226" lon="-.605666">
        <ele>2074.008</ele>
        <time>2020-09-05T17:14:25Z</time>
      </trkpt>
      <trkpt lat="42.783254" lon="-.605719">
        <ele>2074.010</ele>
        <time>2020-09-05T17:14:29Z</time>
      </trkpt>
      <trkpt lat="42.783275" lon="-.605781">
        <ele>2073.951</ele>
        <time>2020-09-05T17:14:33Z</time>
      </trkpt>
      <trkpt lat="42.783286" lon="-.605845">
        <ele>2073.647</ele>
        <time>2020-09-05T17:14:37Z</time>
      </trkpt>
      <trkpt lat="42.783298" lon="-.605904">
        <ele>2073.095</ele>
        <time>2020-09-05T17:14:40Z</time>
      </trkpt>
      <trkpt lat="42.783309" lon="-.605968">
        <ele>2072.526</ele>
        <time>2020-09-05T17:14:44Z</time>
      </trkpt>
      <trkpt lat="42.783309" lon="-.606031">
        <ele>2071.773</ele>
        <time>2020-09-05T17:14:49Z</time>
      </trkpt>
      <trkpt lat="42.783322" lon="-.60609">
        <ele>2070.389</ele>
        <time>2020-09-05T17:14:54Z</time>
      </trkpt>
      <trkpt lat="42.783328" lon="-.606165">
        <ele>2068.969</ele>
        <time>2020-09-05T17:14:59Z</time>
      </trkpt>
      <trkpt lat="42.78331" lon="-.606227">
        <ele>2068.423</ele>
        <time>2020-09-05T17:15:03Z</time>
      </trkpt>
      <trkpt lat="42.783287" lon="-.60628">
        <ele>2068.183</ele>
        <time>2020-09-05T17:15:07Z</time>
      </trkpt>
      <trkpt lat="42.783262" lon="-.606341">
        <ele>2068.011</ele>
        <time>2020-09-05T17:15:11Z</time>
      </trkpt>
      <trkpt lat="42.78324" lon="-.606409">
        <ele>2067.808</ele>
        <time>2020-09-05T17:15:16Z</time>
      </trkpt>
      <trkpt lat="42.78324" lon="-.606472">
        <ele>2067.467</ele>
        <time>2020-09-05T17:15:20Z</time>
      </trkpt>
      <trkpt lat="42.78324" lon="-.606539">
        <ele>2066.968</ele>
        <time>2020-09-05T17:15:24Z</time>
      </trkpt>
      <trkpt lat="42.783241" lon="-.60661">
        <ele>2066.544</ele>
        <time>2020-09-05T17:15:28Z</time>
      </trkpt>
      <trkpt lat="42.783245" lon="-.606679">
        <ele>2066.442</ele>
        <time>2020-09-05T17:15:32Z</time>
      </trkpt>
      <trkpt lat="42.783259" lon="-.606742">
        <ele>2066.543</ele>
        <time>2020-09-05T17:15:35Z</time>
      </trkpt>
      <trkpt lat="42.783277" lon="-.606803">
        <ele>2066.660</ele>
        <time>2020-09-05T17:15:40Z</time>
      </trkpt>
      <trkpt lat="42.783294" lon="-.606864">
        <ele>2066.686</ele>
        <time>2020-09-05T17:15:44Z</time>
      </trkpt>
      <trkpt lat="42.783313" lon="-.606924">
        <ele>2066.646</ele>
        <time>2020-09-05T17:15:49Z</time>
      </trkpt>
      <trkpt lat="42.783312" lon="-.60699">
        <ele>2066.514</ele>
        <time>2020-09-05T17:15:54Z</time>
      </trkpt>
      <trkpt lat="42.783305" lon="-.607053">
        <ele>2065.954</ele>
        <time>2020-09-05T17:16:00Z</time>
      </trkpt>
      <trkpt lat="42.783288" lon="-.607122">
        <ele>2065.209</ele>
        <time>2020-09-05T17:16:06Z</time>
      </trkpt>
      <trkpt lat="42.783302" lon="-.607185">
        <ele>2064.708</ele>
        <time>2020-09-05T17:16:31Z</time>
      </trkpt>
      <trkpt lat="42.783307" lon="-.607248">
        <ele>2064.666</ele>
        <time>2020-09-05T17:16:38Z</time>
      </trkpt>
      <trkpt lat="42.783336" lon="-.607298">
        <ele>2064.577</ele>
        <time>2020-09-05T17:16:46Z</time>
      </trkpt>
      <trkpt lat="42.783313" lon="-.607355">
        <ele>2064.513</ele>
        <time>2020-09-05T17:16:53Z</time>
      </trkpt>
      <trkpt lat="42.783315" lon="-.607418">
        <ele>2064.091</ele>
        <time>2020-09-05T17:17:00Z</time>
      </trkpt>
      <trkpt lat="42.783354" lon="-.607456">
        <ele>2063.482</ele>
        <time>2020-09-05T17:17:08Z</time>
      </trkpt>
      <trkpt lat="42.783312" lon="-.607478">
        <ele>2061.189</ele>
        <time>2020-09-05T17:17:59Z</time>
      </trkpt>
      <trkpt lat="42.783317" lon="-.60754">
        <ele>2059.825</ele>
        <time>2020-09-05T17:18:03Z</time>
      </trkpt>
      <trkpt lat="42.783351" lon="-.607586">
        <ele>2059.265</ele>
        <time>2020-09-05T17:18:09Z</time>
      </trkpt>
      <trkpt lat="42.783381" lon="-.607637">
        <ele>2058.946</ele>
        <time>2020-09-05T17:18:18Z</time>
      </trkpt>
      <trkpt lat="42.783416" lon="-.607681">
        <ele>2058.188</ele>
        <time>2020-09-05T17:18:31Z</time>
      </trkpt>
      <trkpt lat="42.783402" lon="-.607741">
        <ele>2057.316</ele>
        <time>2020-09-05T17:18:57Z</time>
      </trkpt>
      <trkpt lat="42.783433" lon="-.607787">
        <ele>2055.908</ele>
        <time>2020-09-05T17:19:29Z</time>
      </trkpt>
      <trkpt lat="42.783411" lon="-.607848">
        <ele>2055.219</ele>
        <time>2020-09-05T17:19:33Z</time>
      </trkpt>
      <trkpt lat="42.783393" lon="-.607907">
        <ele>2054.840</ele>
        <time>2020-09-05T17:19:39Z</time>
      </trkpt>
      <trkpt lat="42.783409" lon="-.607973">
        <ele>2054.586</ele>
        <time>2020-09-05T17:19:45Z</time>
      </trkpt>
      <trkpt lat="42.783426" lon="-.608036">
        <ele>2054.044</ele>
        <time>2020-09-05T17:19:50Z</time>
      </trkpt>
      <trkpt lat="42.783439" lon="-.608095">
        <ele>2053.545</ele>
        <time>2020-09-05T17:19:55Z</time>
      </trkpt>
      <trkpt lat="42.783459" lon="-.608162">
        <ele>2053.172</ele>
        <time>2020-09-05T17:20:00Z</time>
      </trkpt>
      <trkpt lat="42.783491" lon="-.608212">
        <ele>2052.738</ele>
        <time>2020-09-05T17:20:04Z</time>
      </trkpt>
      <trkpt lat="42.783519" lon="-.608268">
        <ele>2052.038</ele>
        <time>2020-09-05T17:20:10Z</time>
      </trkpt>
      <trkpt lat="42.783538" lon="-.608335">
        <ele>2051.176</ele>
        <time>2020-09-05T17:20:16Z</time>
      </trkpt>
      <trkpt lat="42.783538" lon="-.608407">
        <ele>2050.390</ele>
        <time>2020-09-05T17:20:22Z</time>
      </trkpt>
      <trkpt lat="42.783552" lon="-.608469">
        <ele>2049.419</ele>
        <time>2020-09-05T17:20:28Z</time>
      </trkpt>
      <trkpt lat="42.783566" lon="-.608531">
        <ele>2048.508</ele>
        <time>2020-09-05T17:20:33Z</time>
      </trkpt>
      <trkpt lat="42.783565" lon="-.608594">
        <ele>2047.522</ele>
        <time>2020-09-05T17:20:38Z</time>
      </trkpt>
      <trkpt lat="42.783574" lon="-.608659">
        <ele>2046.483</ele>
        <time>2020-09-05T17:20:43Z</time>
      </trkpt>
      <trkpt lat="42.783579" lon="-.60872">
        <ele>2045.369</ele>
        <time>2020-09-05T17:20:47Z</time>
      </trkpt>
      <trkpt lat="42.783569" lon="-.60878">
        <ele>2044.297</ele>
        <time>2020-09-05T17:20:52Z</time>
      </trkpt>
      <trkpt lat="42.783579" lon="-.608842">
        <ele>2042.818</ele>
        <time>2020-09-05T17:21:00Z</time>
      </trkpt>
      <trkpt lat="42.783551" lon="-.608892">
        <ele>2041.465</ele>
        <time>2020-09-05T17:21:06Z</time>
      </trkpt>
      <trkpt lat="42.783534" lon="-.608952">
        <ele>2039.891</ele>
        <time>2020-09-05T17:21:12Z</time>
      </trkpt>
      <trkpt lat="42.783492" lon="-.608993">
        <ele>2038.241</ele>
        <time>2020-09-05T17:21:19Z</time>
      </trkpt>
      <trkpt lat="42.783497" lon="-.609054">
        <ele>2037.033</ele>
        <time>2020-09-05T17:21:25Z</time>
      </trkpt>
      <trkpt lat="42.783509" lon="-.609113">
        <ele>2035.823</ele>
        <time>2020-09-05T17:21:30Z</time>
      </trkpt>
      <trkpt lat="42.783501" lon="-.609175">
        <ele>2034.715</ele>
        <time>2020-09-05T17:21:36Z</time>
      </trkpt>
      <trkpt lat="42.783523" lon="-.609233">
        <ele>2033.508</ele>
        <time>2020-09-05T17:21:41Z</time>
      </trkpt>
      <trkpt lat="42.783553" lon="-.609281">
        <ele>2032.328</ele>
        <time>2020-09-05T17:21:47Z</time>
      </trkpt>
      <trkpt lat="42.783576" lon="-.609341">
        <ele>2031.079</ele>
        <time>2020-09-05T17:21:53Z</time>
      </trkpt>
      <trkpt lat="42.783569" lon="-.609403">
        <ele>2029.695</ele>
        <time>2020-09-05T17:21:59Z</time>
      </trkpt>
      <trkpt lat="42.783581" lon="-.609465">
        <ele>2028.533</ele>
        <time>2020-09-05T17:22:03Z</time>
      </trkpt>
      <trkpt lat="42.783603" lon="-.609525">
        <ele>2027.284</ele>
        <time>2020-09-05T17:22:08Z</time>
      </trkpt>
      <trkpt lat="42.783604" lon="-.609589">
        <ele>2026.031</ele>
        <time>2020-09-05T17:22:14Z</time>
      </trkpt>
      <trkpt lat="42.783617" lon="-.60965">
        <ele>2024.777</ele>
        <time>2020-09-05T17:22:19Z</time>
      </trkpt>
      <trkpt lat="42.783628" lon="-.609712">
        <ele>2023.577</ele>
        <time>2020-09-05T17:22:24Z</time>
      </trkpt>
      <trkpt lat="42.783655" lon="-.609764">
        <ele>2022.368</ele>
        <time>2020-09-05T17:22:28Z</time>
      </trkpt>
      <trkpt lat="42.783652" lon="-.609826">
        <ele>2021.142</ele>
        <time>2020-09-05T17:22:34Z</time>
      </trkpt>
      <trkpt lat="42.783696" lon="-.609845">
        <ele>2019.826</ele>
        <time>2020-09-05T17:22:39Z</time>
      </trkpt>
      <trkpt lat="42.783735" lon="-.609886">
        <ele>2018.308</ele>
        <time>2020-09-05T17:22:44Z</time>
      </trkpt>
      <trkpt lat="42.783768" lon="-.609941">
        <ele>2017.251</ele>
        <time>2020-09-05T17:22:48Z</time>
      </trkpt>
      <trkpt lat="42.783795" lon="-.609998">
        <ele>2016.362</ele>
        <time>2020-09-05T17:22:52Z</time>
      </trkpt>
      <trkpt lat="42.783822" lon="-.610048">
        <ele>2015.668</ele>
        <time>2020-09-05T17:22:56Z</time>
      </trkpt>
      <trkpt lat="42.783841" lon="-.610106">
        <ele>2015.136</ele>
        <time>2020-09-05T17:23:00Z</time>
      </trkpt>
      <trkpt lat="42.783867" lon="-.610171">
        <ele>2014.797</ele>
        <time>2020-09-05T17:23:05Z</time>
      </trkpt>
      <trkpt lat="42.783902" lon="-.61022">
        <ele>2014.494</ele>
        <time>2020-09-05T17:23:11Z</time>
      </trkpt>
      <trkpt lat="42.783944" lon="-.610254">
        <ele>2014.140</ele>
        <time>2020-09-05T17:23:15Z</time>
      </trkpt>
      <trkpt lat="42.783981" lon="-.610289">
        <ele>2013.620</ele>
        <time>2020-09-05T17:23:19Z</time>
      </trkpt>
      <trkpt lat="42.784021" lon="-.610325">
        <ele>2013.069</ele>
        <time>2020-09-05T17:23:23Z</time>
      </trkpt>
      <trkpt lat="42.784059" lon="-.610374">
        <ele>2012.404</ele>
        <time>2020-09-05T17:23:28Z</time>
      </trkpt>
      <trkpt lat="42.784099" lon="-.61042">
        <ele>2011.624</ele>
        <time>2020-09-05T17:23:33Z</time>
      </trkpt>
      <trkpt lat="42.784114" lon="-.610483">
        <ele>2011.008</ele>
        <time>2020-09-05T17:23:38Z</time>
      </trkpt>
      <trkpt lat="42.784132" lon="-.610543">
        <ele>2010.621</ele>
        <time>2020-09-05T17:23:43Z</time>
      </trkpt>
      <trkpt lat="42.784138" lon="-.610609">
        <ele>2010.072</ele>
        <time>2020-09-05T17:23:49Z</time>
      </trkpt>
      <trkpt lat="42.784177" lon="-.610647">
        <ele>2009.268</ele>
        <time>2020-09-05T17:23:55Z</time>
      </trkpt>
      <trkpt lat="42.784181" lon="-.610715">
        <ele>2008.746</ele>
        <time>2020-09-05T17:24:02Z</time>
      </trkpt>
      <trkpt lat="42.784214" lon="-.610766">
        <ele>2008.297</ele>
        <time>2020-09-05T17:24:08Z</time>
      </trkpt>
      <trkpt lat="42.784217" lon="-.610827">
        <ele>2007.994</ele>
        <time>2020-09-05T17:24:13Z</time>
      </trkpt>
      <trkpt lat="42.784238" lon="-.610884">
        <ele>2007.360</ele>
        <time>2020-09-05T17:24:22Z</time>
      </trkpt>
      <trkpt lat="42.784241" lon="-.610951">
        <ele>2006.880</ele>
        <time>2020-09-05T17:24:29Z</time>
      </trkpt>
      <trkpt lat="42.784242" lon="-.611013">
        <ele>2006.421</ele>
        <time>2020-09-05T17:24:33Z</time>
      </trkpt>
      <trkpt lat="42.78426" lon="-.611071">
        <ele>2006.041</ele>
        <time>2020-09-05T17:24:37Z</time>
      </trkpt>
      <trkpt lat="42.784289" lon="-.611131">
        <ele>2005.505</ele>
        <time>2020-09-05T17:24:43Z</time>
      </trkpt>
      <trkpt lat="42.784326" lon="-.611175">
        <ele>2005.108</ele>
        <time>2020-09-05T17:24:50Z</time>
      </trkpt>
      <trkpt lat="42.784344" lon="-.611246">
        <ele>2004.877</ele>
        <time>2020-09-05T17:24:55Z</time>
      </trkpt>
      <trkpt lat="42.784352" lon="-.611311">
        <ele>2004.678</ele>
        <time>2020-09-05T17:24:59Z</time>
      </trkpt>
      <trkpt lat="42.784374" lon="-.611366">
        <ele>2004.614</ele>
        <time>2020-09-05T17:25:05Z</time>
      </trkpt>
      <trkpt lat="42.7844" lon="-.611417">
        <ele>2004.692</ele>
        <time>2020-09-05T17:25:09Z</time>
      </trkpt>
      <trkpt lat="42.784436" lon="-.611467">
        <ele>2004.523</ele>
        <time>2020-09-05T17:25:13Z</time>
      </trkpt>
      <trkpt lat="42.784479" lon="-.611505">
        <ele>2004.490</ele>
        <time>2020-09-05T17:25:17Z</time>
      </trkpt>
      <trkpt lat="42.784526" lon="-.611545">
        <ele>2004.076</ele>
        <time>2020-09-05T17:25:21Z</time>
      </trkpt>
      <trkpt lat="42.784526" lon="-.611545">
        <ele>2004.016</ele>
        <time>2020-09-05T17:25:21Z</time>
      </trkpt>
      <trkpt lat="42.784573" lon="-.611574">
        <ele>2003.622</ele>
        <time>2020-09-05T17:25:26Z</time>
      </trkpt>
      <trkpt lat="42.784589" lon="-.611632">
        <ele>2003.162</ele>
        <time>2020-09-05T17:25:32Z</time>
      </trkpt>
      <trkpt lat="42.784568" lon="-.61169">
        <ele>2002.808</ele>
        <time>2020-09-05T17:25:37Z</time>
      </trkpt>
      <trkpt lat="42.784612" lon="-.611725">
        <ele>2002.408</ele>
        <time>2020-09-05T17:25:46Z</time>
      </trkpt>
      <trkpt lat="42.784656" lon="-.611755">
        <ele>2001.877</ele>
        <time>2020-09-05T17:25:52Z</time>
      </trkpt>
      <trkpt lat="42.784701" lon="-.611781">
        <ele>2001.078</ele>
        <time>2020-09-05T17:25:58Z</time>
      </trkpt>
      <trkpt lat="42.78472" lon="-.611851">
        <ele>1999.974</ele>
        <time>2020-09-05T17:26:05Z</time>
      </trkpt>
      <trkpt lat="42.784725" lon="-.611912">
        <ele>1999.012</ele>
        <time>2020-09-05T17:26:09Z</time>
      </trkpt>
      <trkpt lat="42.784735" lon="-.611974">
        <ele>1998.123</ele>
        <time>2020-09-05T17:26:14Z</time>
      </trkpt>
      <trkpt lat="42.784747" lon="-.612038">
        <ele>1997.180</ele>
        <time>2020-09-05T17:26:18Z</time>
      </trkpt>
      <trkpt lat="42.784757" lon="-.612099">
        <ele>1996.426</ele>
        <time>2020-09-05T17:26:22Z</time>
      </trkpt>
      <trkpt lat="42.784712" lon="-.612124">
        <ele>1996.976</ele>
        <time>2020-09-05T17:27:09Z</time>
      </trkpt>
      <trkpt lat="42.784751" lon="-.612079">
        <ele>1997.349</ele>
        <time>2020-09-05T17:27:28Z</time>
      </trkpt>
      <trkpt lat="42.784797" lon="-.61206">
        <ele>1996.602</ele>
        <time>2020-09-05T17:28:08Z</time>
      </trkpt>
      <trkpt lat="42.784827" lon="-.612107">
        <ele>1996.422</ele>
        <time>2020-09-05T17:28:32Z</time>
      </trkpt>
      <trkpt lat="42.784823" lon="-.612173">
        <ele>1995.008</ele>
        <time>2020-09-05T17:28:36Z</time>
      </trkpt>
      <trkpt lat="42.784797" lon="-.612229">
        <ele>1994.229</ele>
        <time>2020-09-05T17:28:40Z</time>
      </trkpt>
      <trkpt lat="42.784759" lon="-.612269">
        <ele>1993.920</ele>
        <time>2020-09-05T17:28:44Z</time>
      </trkpt>
      <trkpt lat="42.784808" lon="-.612281">
        <ele>1994.556</ele>
        <time>2020-09-05T17:29:23Z</time>
      </trkpt>
      <trkpt lat="42.784768" lon="-.612312">
        <ele>1994.934</ele>
        <time>2020-09-05T17:29:28Z</time>
      </trkpt>
      <trkpt lat="42.784745" lon="-.612371">
        <ele>1995.015</ele>
        <time>2020-09-05T17:29:33Z</time>
      </trkpt>
      <trkpt lat="42.784746" lon="-.612435">
        <ele>1994.792</ele>
        <time>2020-09-05T17:29:39Z</time>
      </trkpt>
      <trkpt lat="42.784727" lon="-.612503">
        <ele>1994.398</ele>
        <time>2020-09-05T17:29:44Z</time>
      </trkpt>
      <trkpt lat="42.784737" lon="-.612566">
        <ele>1993.768</ele>
        <time>2020-09-05T17:29:49Z</time>
      </trkpt>
      <trkpt lat="42.784742" lon="-.61263">
        <ele>1992.986</ele>
        <time>2020-09-05T17:29:53Z</time>
      </trkpt>
      <trkpt lat="42.784746" lon="-.612702">
        <ele>1991.760</ele>
        <time>2020-09-05T17:29:57Z</time>
      </trkpt>
      <trkpt lat="42.784759" lon="-.612767">
        <ele>1990.526</ele>
        <time>2020-09-05T17:30:01Z</time>
      </trkpt>
      <trkpt lat="42.784777" lon="-.612825">
        <ele>1989.308</ele>
        <time>2020-09-05T17:30:05Z</time>
      </trkpt>
      <trkpt lat="42.784781" lon="-.612892">
        <ele>1987.953</ele>
        <time>2020-09-05T17:30:09Z</time>
      </trkpt>
      <trkpt lat="42.784781" lon="-.612968">
        <ele>1986.654</ele>
        <time>2020-09-05T17:30:14Z</time>
      </trkpt>
      <trkpt lat="42.784778" lon="-.613038">
        <ele>1985.380</ele>
        <time>2020-09-05T17:30:18Z</time>
      </trkpt>
      <trkpt lat="42.784793" lon="-.613102">
        <ele>1984.458</ele>
        <time>2020-09-05T17:30:23Z</time>
      </trkpt>
      <trkpt lat="42.784819" lon="-.613161">
        <ele>1984.019</ele>
        <time>2020-09-05T17:30:27Z</time>
      </trkpt>
      <trkpt lat="42.784846" lon="-.613224">
        <ele>1984.066</ele>
        <time>2020-09-05T17:30:31Z</time>
      </trkpt>
      <trkpt lat="42.784864" lon="-.613283">
        <ele>1984.352</ele>
        <time>2020-09-05T17:30:35Z</time>
      </trkpt>
      <trkpt lat="42.78487" lon="-.613347">
        <ele>1984.522</ele>
        <time>2020-09-05T17:30:39Z</time>
      </trkpt>
      <trkpt lat="42.784889" lon="-.613411">
        <ele>1984.921</ele>
        <time>2020-09-05T17:30:45Z</time>
      </trkpt>
      <trkpt lat="42.784916" lon="-.613465">
        <ele>1985.241</ele>
        <time>2020-09-05T17:30:50Z</time>
      </trkpt>
      <trkpt lat="42.78495" lon="-.613506">
        <ele>1985.705</ele>
        <time>2020-09-05T17:31:06Z</time>
      </trkpt>
      <trkpt lat="42.784957" lon="-.613571">
        <ele>1986.308</ele>
        <time>2020-09-05T17:31:10Z</time>
      </trkpt>
      <trkpt lat="42.784976" lon="-.613632">
        <ele>1987.057</ele>
        <time>2020-09-05T17:31:15Z</time>
      </trkpt>
      <trkpt lat="42.784991" lon="-.613696">
        <ele>1987.818</ele>
        <time>2020-09-05T17:31:20Z</time>
      </trkpt>
      <trkpt lat="42.78501" lon="-.613752">
        <ele>1988.514</ele>
        <time>2020-09-05T17:31:26Z</time>
      </trkpt>
      <trkpt lat="42.785041" lon="-.613805">
        <ele>1988.982</ele>
        <time>2020-09-05T17:31:32Z</time>
      </trkpt>
      <trkpt lat="42.785054" lon="-.613868">
        <ele>1989.183</ele>
        <time>2020-09-05T17:31:39Z</time>
      </trkpt>
      <trkpt lat="42.785072" lon="-.613925">
        <ele>1988.950</ele>
        <time>2020-09-05T17:31:46Z</time>
      </trkpt>
      <trkpt lat="42.785093" lon="-.613983">
        <ele>1988.616</ele>
        <time>2020-09-05T17:31:51Z</time>
      </trkpt>
      <trkpt lat="42.785097" lon="-.61405">
        <ele>1988.246</ele>
        <time>2020-09-05T17:31:58Z</time>
      </trkpt>
      <trkpt lat="42.785079" lon="-.614108">
        <ele>1988.094</ele>
        <time>2020-09-05T17:32:12Z</time>
      </trkpt>
      <trkpt lat="42.785031" lon="-.614133">
        <ele>1988.057</ele>
        <time>2020-09-05T17:32:26Z</time>
      </trkpt>
      <trkpt lat="42.784991" lon="-.614165">
        <ele>1987.922</ele>
        <time>2020-09-05T17:32:30Z</time>
      </trkpt>
      <trkpt lat="42.784968" lon="-.61422">
        <ele>1987.308</ele>
        <time>2020-09-05T17:32:35Z</time>
      </trkpt>
      <trkpt lat="42.784939" lon="-.614279">
        <ele>1986.224</ele>
        <time>2020-09-05T17:32:48Z</time>
      </trkpt>
      <trkpt lat="42.784908" lon="-.614323">
        <ele>1985.395</ele>
        <time>2020-09-05T17:32:52Z</time>
      </trkpt>
      <trkpt lat="42.784888" lon="-.614386">
        <ele>1984.591</ele>
        <time>2020-09-05T17:32:56Z</time>
      </trkpt>
      <trkpt lat="42.78491" lon="-.614441">
        <ele>1983.739</ele>
        <time>2020-09-05T17:32:59Z</time>
      </trkpt>
      <trkpt lat="42.784943" lon="-.614494">
        <ele>1982.870</ele>
        <time>2020-09-05T17:33:03Z</time>
      </trkpt>
      <trkpt lat="42.784963" lon="-.614552">
        <ele>1981.727</ele>
        <time>2020-09-05T17:33:07Z</time>
      </trkpt>
      <trkpt lat="42.785002" lon="-.614597">
        <ele>1980.683</ele>
        <time>2020-09-05T17:33:18Z</time>
      </trkpt>
      <trkpt lat="42.785049" lon="-.614632">
        <ele>1979.523</ele>
        <time>2020-09-05T17:33:24Z</time>
      </trkpt>
      <trkpt lat="42.785092" lon="-.61466">
        <ele>1978.337</ele>
        <time>2020-09-05T17:33:33Z</time>
      </trkpt>
      <trkpt lat="42.785104" lon="-.614721">
        <ele>1977.549</ele>
        <time>2020-09-05T17:33:38Z</time>
      </trkpt>
      <trkpt lat="42.785122" lon="-.61478">
        <ele>1977.013</ele>
        <time>2020-09-05T17:33:45Z</time>
      </trkpt>
      <trkpt lat="42.785139" lon="-.614838">
        <ele>1976.608</ele>
        <time>2020-09-05T17:33:51Z</time>
      </trkpt>
      <trkpt lat="42.785132" lon="-.614902">
        <ele>1976.238</ele>
        <time>2020-09-05T17:33:57Z</time>
      </trkpt>
      <trkpt lat="42.785121" lon="-.614963">
        <ele>1975.959</ele>
        <time>2020-09-05T17:34:02Z</time>
      </trkpt>
      <trkpt lat="42.785114" lon="-.615028">
        <ele>1975.745</ele>
        <time>2020-09-05T17:34:08Z</time>
      </trkpt>
      <trkpt lat="42.78511" lon="-.615093">
        <ele>1975.643</ele>
        <time>2020-09-05T17:34:12Z</time>
      </trkpt>
      <trkpt lat="42.785102" lon="-.615156">
        <ele>1975.554</ele>
        <time>2020-09-05T17:34:17Z</time>
      </trkpt>
      <trkpt lat="42.785067" lon="-.615201">
        <ele>1975.471</ele>
        <time>2020-09-05T17:34:23Z</time>
      </trkpt>
      <trkpt lat="42.785023" lon="-.615235">
        <ele>1975.777</ele>
        <time>2020-09-05T17:34:52Z</time>
      </trkpt>
      <trkpt lat="42.785048" lon="-.615183">
        <ele>1975.597</ele>
        <time>2020-09-05T17:35:25Z</time>
      </trkpt>
      <trkpt lat="42.785071" lon="-.615123">
        <ele>1975.631</ele>
        <time>2020-09-05T17:35:29Z</time>
      </trkpt>
      <trkpt lat="42.785103" lon="-.615074">
        <ele>1975.761</ele>
        <time>2020-09-05T17:35:33Z</time>
      </trkpt>
      <trkpt lat="42.785142" lon="-.61504">
        <ele>1976.007</ele>
        <time>2020-09-05T17:35:37Z</time>
      </trkpt>
      <trkpt lat="42.78519" lon="-.615044">
        <ele>1976.408</ele>
        <time>2020-09-05T17:35:42Z</time>
      </trkpt>
      <trkpt lat="42.785238" lon="-.61504">
        <ele>1976.858</ele>
        <time>2020-09-05T17:35:48Z</time>
      </trkpt>
      <trkpt lat="42.785284" lon="-.615049">
        <ele>1977.199</ele>
        <time>2020-09-05T17:35:53Z</time>
      </trkpt>
      <trkpt lat="42.785331" lon="-.615071">
        <ele>1977.425</ele>
        <time>2020-09-05T17:35:58Z</time>
      </trkpt>
      <trkpt lat="42.785377" lon="-.615073">
        <ele>1977.823</ele>
        <time>2020-09-05T17:36:12Z</time>
      </trkpt>
      <trkpt lat="42.785416" lon="-.615036">
        <ele>1978.024</ele>
        <time>2020-09-05T17:36:19Z</time>
      </trkpt>
      <trkpt lat="42.785456" lon="-.614995">
        <ele>1978.241</ele>
        <time>2020-09-05T17:36:24Z</time>
      </trkpt>
      <trkpt lat="42.785499" lon="-.614961">
        <ele>1978.357</ele>
        <time>2020-09-05T17:36:29Z</time>
      </trkpt>
      <trkpt lat="42.785536" lon="-.614925">
        <ele>1978.647</ele>
        <time>2020-09-05T17:36:33Z</time>
      </trkpt>
      <trkpt lat="42.785579" lon="-.614885">
        <ele>1978.936</ele>
        <time>2020-09-05T17:36:38Z</time>
      </trkpt>
      <trkpt lat="42.785624" lon="-.614855">
        <ele>1979.317</ele>
        <time>2020-09-05T17:36:43Z</time>
      </trkpt>
      <trkpt lat="42.785668" lon="-.614834">
        <ele>1979.618</ele>
        <time>2020-09-05T17:36:47Z</time>
      </trkpt>
      <trkpt lat="42.785712" lon="-.614808">
        <ele>1979.908</ele>
        <time>2020-09-05T17:36:52Z</time>
      </trkpt>
      <trkpt lat="42.785751" lon="-.614772">
        <ele>1980.248</ele>
        <time>2020-09-05T17:36:57Z</time>
      </trkpt>
      <trkpt lat="42.785787" lon="-.614731">
        <ele>1980.649</ele>
        <time>2020-09-05T17:37:01Z</time>
      </trkpt>
      <trkpt lat="42.785823" lon="-.614694">
        <ele>1981.035</ele>
        <time>2020-09-05T17:37:08Z</time>
      </trkpt>
      <trkpt lat="42.785865" lon="-.614662">
        <ele>1981.453</ele>
        <time>2020-09-05T17:37:12Z</time>
      </trkpt>
      <trkpt lat="42.785912" lon="-.614628">
        <ele>1981.814</ele>
        <time>2020-09-05T17:37:17Z</time>
      </trkpt>
      <trkpt lat="42.785959" lon="-.614596">
        <ele>1982.181</ele>
        <time>2020-09-05T17:37:22Z</time>
      </trkpt>
      <trkpt lat="42.785999" lon="-.614559">
        <ele>1982.447</ele>
        <time>2020-09-05T17:37:26Z</time>
      </trkpt>
      <trkpt lat="42.786039" lon="-.614522">
        <ele>1982.767</ele>
        <time>2020-09-05T17:37:30Z</time>
      </trkpt>
      <trkpt lat="42.786083" lon="-.614496">
        <ele>1983.092</ele>
        <time>2020-09-05T17:37:36Z</time>
      </trkpt>
      <trkpt lat="42.786123" lon="-.614457">
        <ele>1982.573</ele>
        <time>2020-09-05T17:37:58Z</time>
      </trkpt>
      <trkpt lat="42.786156" lon="-.614415">
        <ele>1982.020</ele>
        <time>2020-09-05T17:38:02Z</time>
      </trkpt>
      <trkpt lat="42.786195" lon="-.614377">
        <ele>1981.808</ele>
        <time>2020-09-05T17:38:06Z</time>
      </trkpt>
      <trkpt lat="42.786241" lon="-.614338">
        <ele>1981.814</ele>
        <time>2020-09-05T17:38:10Z</time>
      </trkpt>
      <trkpt lat="42.786282" lon="-.614304">
        <ele>1981.855</ele>
        <time>2020-09-05T17:38:14Z</time>
      </trkpt>
      <trkpt lat="42.786326" lon="-.614278">
        <ele>1981.821</ele>
        <time>2020-09-05T17:38:18Z</time>
      </trkpt>
      <trkpt lat="42.786365" lon="-.614243">
        <ele>1981.919</ele>
        <time>2020-09-05T17:38:22Z</time>
      </trkpt>
      <trkpt lat="42.786412" lon="-.614209">
        <ele>1982.080</ele>
        <time>2020-09-05T17:38:27Z</time>
      </trkpt>
      <trkpt lat="42.786455" lon="-.614184">
        <ele>1982.157</ele>
        <time>2020-09-05T17:38:30Z</time>
      </trkpt>
      <trkpt lat="42.786496" lon="-.614158">
        <ele>1982.283</ele>
        <time>2020-09-05T17:38:33Z</time>
      </trkpt>
      <trkpt lat="42.786541" lon="-.614123">
        <ele>1982.443</ele>
        <time>2020-09-05T17:38:38Z</time>
      </trkpt>
      <trkpt lat="42.786582" lon="-.614086">
        <ele>1982.542</ele>
        <time>2020-09-05T17:38:41Z</time>
      </trkpt>
      <trkpt lat="42.786625" lon="-.614044">
        <ele>1982.622</ele>
        <time>2020-09-05T17:38:45Z</time>
      </trkpt>
      <trkpt lat="42.786663" lon="-.613995">
        <ele>1982.614</ele>
        <time>2020-09-05T17:38:49Z</time>
      </trkpt>
      <trkpt lat="42.786688" lon="-.613935">
        <ele>1982.608</ele>
        <time>2020-09-05T17:38:52Z</time>
      </trkpt>
      <trkpt lat="42.786706" lon="-.613878">
        <ele>1982.619</ele>
        <time>2020-09-05T17:38:56Z</time>
      </trkpt>
      <trkpt lat="42.786742" lon="-.613829">
        <ele>1982.660</ele>
        <time>2020-09-05T17:39:01Z</time>
      </trkpt>
      <trkpt lat="42.786791" lon="-.613806">
        <ele>1982.656</ele>
        <time>2020-09-05T17:39:06Z</time>
      </trkpt>
      <trkpt lat="42.786837" lon="-.61379">
        <ele>1982.594</ele>
        <time>2020-09-05T17:39:09Z</time>
      </trkpt>
      <trkpt lat="42.786863" lon="-.613734">
        <ele>1982.495</ele>
        <time>2020-09-05T17:39:15Z</time>
      </trkpt>
      <trkpt lat="42.78685" lon="-.613669">
        <ele>1982.582</ele>
        <time>2020-09-05T17:39:19Z</time>
      </trkpt>
      <trkpt lat="42.786845" lon="-.613604">
        <ele>1982.638</ele>
        <time>2020-09-05T17:39:23Z</time>
      </trkpt>
      <trkpt lat="42.786866" lon="-.613659">
        <ele>1983.958</ele>
        <time>2020-09-05T17:39:53Z</time>
      </trkpt>
      <trkpt lat="42.786878" lon="-.613725">
        <ele>1984.378</ele>
        <time>2020-09-05T17:40:02Z</time>
      </trkpt>
      <trkpt lat="42.786907" lon="-.613773">
        <ele>1984.333</ele>
        <time>2020-09-05T17:40:07Z</time>
      </trkpt>
      <trkpt lat="42.786953" lon="-.613767">
        <ele>1984.126</ele>
        <time>2020-09-05T17:40:12Z</time>
      </trkpt>
      <trkpt lat="42.786998" lon="-.613754">
        <ele>1983.808</ele>
        <time>2020-09-05T17:40:17Z</time>
      </trkpt>
      <trkpt lat="42.787044" lon="-.61375">
        <ele>1983.432</ele>
        <time>2020-09-05T17:40:23Z</time>
      </trkpt>
      <trkpt lat="42.787023" lon="-.613811">
        <ele>1983.083</ele>
        <time>2020-09-05T17:40:30Z</time>
      </trkpt>
      <trkpt lat="42.786982" lon="-.613856">
        <ele>1983.199</ele>
        <time>2020-09-05T17:40:34Z</time>
      </trkpt>
      <trkpt lat="42.786938" lon="-.613906">
        <ele>1983.387</ele>
        <time>2020-09-05T17:40:38Z</time>
      </trkpt>
      <trkpt lat="42.786906" lon="-.613956">
        <ele>1983.628</ele>
        <time>2020-09-05T17:40:42Z</time>
      </trkpt>
      <trkpt lat="42.786873" lon="-.614005">
        <ele>1983.895</ele>
        <time>2020-09-05T17:40:47Z</time>
      </trkpt>
      <trkpt lat="42.786839" lon="-.614049">
        <ele>1983.961</ele>
        <time>2020-09-05T17:40:50Z</time>
      </trkpt>
      <trkpt lat="42.786805" lon="-.614093">
        <ele>1984.091</ele>
        <time>2020-09-05T17:40:53Z</time>
      </trkpt>
      <trkpt lat="42.786767" lon="-.614131">
        <ele>1984.355</ele>
        <time>2020-09-05T17:40:57Z</time>
      </trkpt>
      <trkpt lat="42.786739" lon="-.614187">
        <ele>1984.407</ele>
        <time>2020-09-05T17:41:01Z</time>
      </trkpt>
      <trkpt lat="42.786719" lon="-.614245">
        <ele>1984.517</ele>
        <time>2020-09-05T17:41:05Z</time>
      </trkpt>
      <trkpt lat="42.786695" lon="-.614308">
        <ele>1984.508</ele>
        <time>2020-09-05T17:41:09Z</time>
      </trkpt>
      <trkpt lat="42.786663" lon="-.614357">
        <ele>1984.440</ele>
        <time>2020-09-05T17:41:13Z</time>
      </trkpt>
      <trkpt lat="42.786634" lon="-.614411">
        <ele>1984.271</ele>
        <time>2020-09-05T17:41:17Z</time>
      </trkpt>
      <trkpt lat="42.786601" lon="-.614456">
        <ele>1983.917</ele>
        <time>2020-09-05T17:41:21Z</time>
      </trkpt>
      <trkpt lat="42.786559" lon="-.614502">
        <ele>1983.715</ele>
        <time>2020-09-05T17:41:25Z</time>
      </trkpt>
      <trkpt lat="42.786513" lon="-.614538">
        <ele>1983.566</ele>
        <time>2020-09-05T17:41:29Z</time>
      </trkpt>
      <trkpt lat="42.786475" lon="-.614577">
        <ele>1983.353</ele>
        <time>2020-09-05T17:41:33Z</time>
      </trkpt>
      <trkpt lat="42.786444" lon="-.614627">
        <ele>1982.989</ele>
        <time>2020-09-05T17:41:39Z</time>
      </trkpt>
      <trkpt lat="42.786412" lon="-.614679">
        <ele>1982.529</ele>
        <time>2020-09-05T17:41:43Z</time>
      </trkpt>
      <trkpt lat="42.786389" lon="-.614735">
        <ele>1982.081</ele>
        <time>2020-09-05T17:41:46Z</time>
      </trkpt>
      <trkpt lat="42.786369" lon="-.614797">
        <ele>1981.561</ele>
        <time>2020-09-05T17:41:50Z</time>
      </trkpt>
      <trkpt lat="42.786347" lon="-.614855">
        <ele>1981.017</ele>
        <time>2020-09-05T17:41:54Z</time>
      </trkpt>
      <trkpt lat="42.786301" lon="-.614879">
        <ele>1980.508</ele>
        <time>2020-09-05T17:41:58Z</time>
      </trkpt>
      <trkpt lat="42.786253" lon="-.614884">
        <ele>1979.923</ele>
        <time>2020-09-05T17:42:02Z</time>
      </trkpt>
      <trkpt lat="42.786207" lon="-.614872">
        <ele>1979.554</ele>
        <time>2020-09-05T17:42:06Z</time>
      </trkpt>
      <trkpt lat="42.78616" lon="-.614859">
        <ele>1979.110</ele>
        <time>2020-09-05T17:42:09Z</time>
      </trkpt>
      <trkpt lat="42.786114" lon="-.61485">
        <ele>1978.868</ele>
        <time>2020-09-05T17:42:12Z</time>
      </trkpt>
      <trkpt lat="42.786065" lon="-.614834">
        <ele>1978.449</ele>
        <time>2020-09-05T17:42:16Z</time>
      </trkpt>
      <trkpt lat="42.78602" lon="-.614811">
        <ele>1978.076</ele>
        <time>2020-09-05T17:42:20Z</time>
      </trkpt>
      <trkpt lat="42.785971" lon="-.614798">
        <ele>1977.582</ele>
        <time>2020-09-05T17:42:24Z</time>
      </trkpt>
      <trkpt lat="42.785925" lon="-.614788">
        <ele>1977.122</ele>
        <time>2020-09-05T17:42:28Z</time>
      </trkpt>
      <trkpt lat="42.785876" lon="-.614778">
        <ele>1976.857</ele>
        <time>2020-09-05T17:42:32Z</time>
      </trkpt>
      <trkpt lat="42.785829" lon="-.614783">
        <ele>1976.600</ele>
        <time>2020-09-05T17:42:36Z</time>
      </trkpt>
      <trkpt lat="42.785783" lon="-.614784">
        <ele>1976.520</ele>
        <time>2020-09-05T17:42:40Z</time>
      </trkpt>
      <trkpt lat="42.785732" lon="-.61479">
        <ele>1976.508</ele>
        <time>2020-09-05T17:42:44Z</time>
      </trkpt>
      <trkpt lat="42.785688" lon="-.614777">
        <ele>1976.660</ele>
        <time>2020-09-05T17:42:48Z</time>
      </trkpt>
      <trkpt lat="42.785648" lon="-.614742">
        <ele>1976.741</ele>
        <time>2020-09-05T17:42:52Z</time>
      </trkpt>
      <trkpt lat="42.785606" lon="-.614714">
        <ele>1976.747</ele>
        <time>2020-09-05T17:42:58Z</time>
      </trkpt>
      <trkpt lat="42.785574" lon="-.614671">
        <ele>1976.535</ele>
        <time>2020-09-05T17:43:02Z</time>
      </trkpt>
      <trkpt lat="42.785529" lon="-.614637">
        <ele>1976.366</ele>
        <time>2020-09-05T17:43:07Z</time>
      </trkpt>
      <trkpt lat="42.785484" lon="-.614624">
        <ele>1976.053</ele>
        <time>2020-09-05T17:43:11Z</time>
      </trkpt>
      <trkpt lat="42.785444" lon="-.614589">
        <ele>1975.889</ele>
        <time>2020-09-05T17:43:15Z</time>
      </trkpt>
      <trkpt lat="42.785396" lon="-.614574">
        <ele>1976.259</ele>
        <time>2020-09-05T17:43:26Z</time>
      </trkpt>
      <trkpt lat="42.785347" lon="-.614557">
        <ele>1976.642</ele>
        <time>2020-09-05T17:43:31Z</time>
      </trkpt>
      <trkpt lat="42.785296" lon="-.614548">
        <ele>1976.922</ele>
        <time>2020-09-05T17:43:36Z</time>
      </trkpt>
      <trkpt lat="42.78525" lon="-.614563">
        <ele>1977.114</ele>
        <time>2020-09-05T17:43:42Z</time>
      </trkpt>
      <trkpt lat="42.785203" lon="-.614576">
        <ele>1977.208</ele>
        <time>2020-09-05T17:43:47Z</time>
      </trkpt>
      <trkpt lat="42.785159" lon="-.61455">
        <ele>1977.289</ele>
        <time>2020-09-05T17:43:52Z</time>
      </trkpt>
      <trkpt lat="42.785145" lon="-.614487">
        <ele>1977.310</ele>
        <time>2020-09-05T17:43:56Z</time>
      </trkpt>
      <trkpt lat="42.785131" lon="-.614419">
        <ele>1977.426</ele>
        <time>2020-09-05T17:44:01Z</time>
      </trkpt>
      <trkpt lat="42.785124" lon="-.614354">
        <ele>1977.594</ele>
        <time>2020-09-05T17:44:06Z</time>
      </trkpt>
      <trkpt lat="42.785131" lon="-.614292">
        <ele>1977.755</ele>
        <time>2020-09-05T17:44:11Z</time>
      </trkpt>
      <trkpt lat="42.785169" lon="-.614329">
        <ele>1977.872</ele>
        <time>2020-09-05T17:44:54Z</time>
      </trkpt>
      <trkpt lat="42.785231" lon="-.61432">
        <ele>1977.568</ele>
        <time>2020-09-05T17:45:33Z</time>
      </trkpt>
      <trkpt lat="42.785187" lon="-.614307">
        <ele>1977.168</ele>
        <time>2020-09-05T17:46:31Z</time>
      </trkpt>
      <trkpt lat="42.785217" lon="-.614355">
        <ele>1978.456</ele>
        <time>2020-09-05T17:51:12Z</time>
      </trkpt>
      <trkpt lat="42.785186" lon="-.61431">
        <ele>1979.559</ele>
        <time>2020-09-05T17:52:36Z</time>
      </trkpt>
      <trkpt lat="42.785142" lon="-.614322">
        <ele>1980.514</ele>
        <time>2020-09-05T17:52:54Z</time>
      </trkpt>
      <trkpt lat="42.785189" lon="-.614326">
        <ele>1980.608</ele>
        <time>2020-09-05T17:53:48Z</time>
      </trkpt>
      <trkpt lat="42.785276" lon="-.614268">
        <ele>1969.872</ele>
        <time>2020-09-06T07:04:25Z</time>
      </trkpt>
      <trkpt lat="42.785184" lon="-.614278">
        <ele>1969.813</ele>
        <time>2020-09-06T07:04:29Z</time>
      </trkpt>
      <trkpt lat="42.785184" lon="-.614278">
        <ele>1969.814</ele>
        <time>2020-09-06T07:04:29Z</time>
      </trkpt>
      <trkpt lat="42.785149" lon="-.614236">
        <ele>1969.808</ele>
        <time>2020-09-06T07:04:38Z</time>
      </trkpt>
      <trkpt lat="42.785464" lon="-.615354">
        <ele>1969.892</ele>
        <time>2020-09-06T07:12:07Z</time>
      </trkpt>
      <trkpt lat="42.785464" lon="-.615354">
        <ele>1969.833</ele>
        <time>2020-09-06T07:12:07Z</time>
      </trkpt>
      <trkpt lat="42.785503" lon="-.615314">
        <ele>1969.879</ele>
        <time>2020-09-06T07:12:20Z</time>
      </trkpt>
      <trkpt lat="42.785554" lon="-.615346">
        <ele>1969.844</ele>
        <time>2020-09-06T07:12:26Z</time>
      </trkpt>
      <trkpt lat="42.785596" lon="-.615366">
        <ele>1969.882</ele>
        <time>2020-09-06T07:12:29Z</time>
      </trkpt>
      <trkpt lat="42.785639" lon="-.61539">
        <ele>1969.891</ele>
        <time>2020-09-06T07:12:32Z</time>
      </trkpt>
      <trkpt lat="42.785691" lon="-.615442">
        <ele>1969.834</ele>
        <time>2020-09-06T07:12:34Z</time>
      </trkpt>
      <trkpt lat="42.785729" lon="-.615486">
        <ele>1969.817</ele>
        <time>2020-09-06T07:12:36Z</time>
      </trkpt>
      <trkpt lat="42.785764" lon="-.61553">
        <ele>1969.817</ele>
        <time>2020-09-06T07:12:39Z</time>
      </trkpt>
      <trkpt lat="42.785811" lon="-.615559">
        <ele>1969.887</ele>
        <time>2020-09-06T07:12:45Z</time>
      </trkpt>
      <trkpt lat="42.785849" lon="-.615594">
        <ele>1969.815</ele>
        <time>2020-09-06T07:12:48Z</time>
      </trkpt>
      <trkpt lat="42.785849" lon="-.615594">
        <ele>1969.808</ele>
        <time>2020-09-06T07:12:48Z</time>
      </trkpt>
      <trkpt lat="42.785868" lon="-.615651">
        <ele>1970.676</ele>
        <time>2020-09-06T07:12:52Z</time>
      </trkpt>
      <trkpt lat="42.785864" lon="-.615717">
        <ele>1971.887</ele>
        <time>2020-09-06T07:12:54Z</time>
      </trkpt>
      <trkpt lat="42.78587" lon="-.615788">
        <ele>1973.143</ele>
        <time>2020-09-06T07:12:58Z</time>
      </trkpt>
      <trkpt lat="42.785886" lon="-.615847">
        <ele>1974.818</ele>
        <time>2020-09-06T07:13:05Z</time>
      </trkpt>
      <trkpt lat="42.785907" lon="-.615908">
        <ele>1976.086</ele>
        <time>2020-09-06T07:13:09Z</time>
      </trkpt>
      <trkpt lat="42.785931" lon="-.615966">
        <ele>1977.185</ele>
        <time>2020-09-06T07:13:13Z</time>
      </trkpt>
      <trkpt lat="42.785946" lon="-.616025">
        <ele>1978.448</ele>
        <time>2020-09-06T07:13:17Z</time>
      </trkpt>
      <trkpt lat="42.785946" lon="-.616092">
        <ele>1979.871</ele>
        <time>2020-09-06T07:13:21Z</time>
      </trkpt>
      <trkpt lat="42.785956" lon="-.616155">
        <ele>1981.348</ele>
        <time>2020-09-06T07:13:26Z</time>
      </trkpt>
      <trkpt lat="42.785966" lon="-.61622">
        <ele>1982.661</ele>
        <time>2020-09-06T07:13:30Z</time>
      </trkpt>
      <trkpt lat="42.785972" lon="-.616286">
        <ele>1983.617</ele>
        <time>2020-09-06T07:13:36Z</time>
      </trkpt>
      <trkpt lat="42.785992" lon="-.616348">
        <ele>1984.308</ele>
        <time>2020-09-06T07:13:41Z</time>
      </trkpt>
      <trkpt lat="42.786022" lon="-.616396">
        <ele>1984.919</ele>
        <time>2020-09-06T07:13:45Z</time>
      </trkpt>
      <trkpt lat="42.786058" lon="-.616435">
        <ele>1985.430</ele>
        <time>2020-09-06T07:13:50Z</time>
      </trkpt>
      <trkpt lat="42.786087" lon="-.616488">
        <ele>1985.576</ele>
        <time>2020-09-06T07:13:55Z</time>
      </trkpt>
      <trkpt lat="42.786117" lon="-.616535">
        <ele>1984.991</ele>
        <time>2020-09-06T07:13:59Z</time>
      </trkpt>
      <trkpt lat="42.786152" lon="-.61658">
        <ele>1984.639</ele>
        <time>2020-09-06T07:14:03Z</time>
      </trkpt>
      <trkpt lat="42.786193" lon="-.616616">
        <ele>1984.478</ele>
        <time>2020-09-06T07:14:07Z</time>
      </trkpt>
      <trkpt lat="42.786193" lon="-.616616">
        <ele>1984.461</ele>
        <time>2020-09-06T07:14:07Z</time>
      </trkpt>
      <trkpt lat="42.786234" lon="-.616648">
        <ele>1984.424</ele>
        <time>2020-09-06T07:14:10Z</time>
      </trkpt>
      <trkpt lat="42.786264" lon="-.616694">
        <ele>1984.411</ele>
        <time>2020-09-06T07:14:14Z</time>
      </trkpt>
      <trkpt lat="42.78628" lon="-.616753">
        <ele>1984.521</ele>
        <time>2020-09-06T07:14:19Z</time>
      </trkpt>
      <trkpt lat="42.786293" lon="-.616816">
        <ele>1984.803</ele>
        <time>2020-09-06T07:14:23Z</time>
      </trkpt>
      <trkpt lat="42.786293" lon="-.616816">
        <ele>1984.808</ele>
        <time>2020-09-06T07:14:23Z</time>
      </trkpt>
      <trkpt lat="42.786304" lon="-.616877">
        <ele>1985.066</ele>
        <time>2020-09-06T07:14:27Z</time>
      </trkpt>
      <trkpt lat="42.786318" lon="-.616937">
        <ele>1985.427</ele>
        <time>2020-09-06T07:14:31Z</time>
      </trkpt>
      <trkpt lat="42.786357" lon="-.616985">
        <ele>1985.463</ele>
        <time>2020-09-06T07:14:37Z</time>
      </trkpt>
      <trkpt lat="42.786398" lon="-.61702">
        <ele>1985.178</ele>
        <time>2020-09-06T07:14:41Z</time>
      </trkpt>
      <trkpt lat="42.786398" lon="-.61702">
        <ele>1985.116</ele>
        <time>2020-09-06T07:14:41Z</time>
      </trkpt>
      <trkpt lat="42.786438" lon="-.61706">
        <ele>1984.735</ele>
        <time>2020-09-06T07:14:46Z</time>
      </trkpt>
      <trkpt lat="42.78647" lon="-.617107">
        <ele>1984.598</ele>
        <time>2020-09-06T07:14:50Z</time>
      </trkpt>
      <trkpt lat="42.786495" lon="-.61717">
        <ele>1983.861</ele>
        <time>2020-09-06T07:14:54Z</time>
      </trkpt>
      <trkpt lat="42.786493" lon="-.617234">
        <ele>1983.064</ele>
        <time>2020-09-06T07:14:58Z</time>
      </trkpt>
      <trkpt lat="42.78648" lon="-.617302">
        <ele>1982.506</ele>
        <time>2020-09-06T07:15:02Z</time>
      </trkpt>
      <trkpt lat="42.786459" lon="-.617362">
        <ele>1981.816</ele>
        <time>2020-09-06T07:15:06Z</time>
      </trkpt>
      <trkpt lat="42.786452" lon="-.617429">
        <ele>1981.208</ele>
        <time>2020-09-06T07:15:10Z</time>
      </trkpt>
      <trkpt lat="42.786464" lon="-.617489">
        <ele>1980.751</ele>
        <time>2020-09-06T07:15:14Z</time>
      </trkpt>
      <trkpt lat="42.786475" lon="-.617552">
        <ele>1979.922</ele>
        <time>2020-09-06T07:15:19Z</time>
      </trkpt>
      <trkpt lat="42.786476" lon="-.617619">
        <ele>1978.878</ele>
        <time>2020-09-06T07:15:23Z</time>
      </trkpt>
      <trkpt lat="42.786474" lon="-.617691">
        <ele>1977.633</ele>
        <time>2020-09-06T07:15:28Z</time>
      </trkpt>
      <trkpt lat="42.786474" lon="-.617759">
        <ele>1976.851</ele>
        <time>2020-09-06T07:15:34Z</time>
      </trkpt>
      <trkpt lat="42.786492" lon="-.617816">
        <ele>1975.760</ele>
        <time>2020-09-06T07:15:42Z</time>
      </trkpt>
      <trkpt lat="42.78653" lon="-.617856">
        <ele>1974.553</ele>
        <time>2020-09-06T07:15:51Z</time>
      </trkpt>
      <trkpt lat="42.786549" lon="-.617919">
        <ele>1973.436</ele>
        <time>2020-09-06T07:15:57Z</time>
      </trkpt>
      <trkpt lat="42.786564" lon="-.617977">
        <ele>1972.913</ele>
        <time>2020-09-06T07:16:04Z</time>
      </trkpt>
      <trkpt lat="42.786585" lon="-.618035">
        <ele>1972.943</ele>
        <time>2020-09-06T07:16:11Z</time>
      </trkpt>
      <trkpt lat="42.78661" lon="-.618087">
        <ele>1973.007</ele>
        <time>2020-09-06T07:16:16Z</time>
      </trkpt>
      <trkpt lat="42.786641" lon="-.618136">
        <ele>1973.208</ele>
        <time>2020-09-06T07:16:20Z</time>
      </trkpt>
      <trkpt lat="42.786659" lon="-.618193">
        <ele>1974.066</ele>
        <time>2020-09-06T07:16:25Z</time>
      </trkpt>
      <trkpt lat="42.78668" lon="-.618248">
        <ele>1975.027</ele>
        <time>2020-09-06T07:16:31Z</time>
      </trkpt>
      <trkpt lat="42.786707" lon="-.6183">
        <ele>1976.063</ele>
        <time>2020-09-06T07:16:37Z</time>
      </trkpt>
      <trkpt lat="42.786739" lon="-.618344">
        <ele>1976.698</ele>
        <time>2020-09-06T07:16:41Z</time>
      </trkpt>
      <trkpt lat="42.786781" lon="-.618376">
        <ele>1977.246</ele>
        <time>2020-09-06T07:16:51Z</time>
      </trkpt>
      <trkpt lat="42.786813" lon="-.61842">
        <ele>1977.745</ele>
        <time>2020-09-06T07:16:59Z</time>
      </trkpt>
      <trkpt lat="42.786825" lon="-.618479">
        <ele>1978.278</ele>
        <time>2020-09-06T07:17:04Z</time>
      </trkpt>
      <trkpt lat="42.78684" lon="-.618542">
        <ele>1978.731</ele>
        <time>2020-09-06T07:17:09Z</time>
      </trkpt>
      <trkpt lat="42.78684" lon="-.618542">
        <ele>1978.766</ele>
        <time>2020-09-06T07:17:09Z</time>
      </trkpt>
      <trkpt lat="42.78686" lon="-.618597">
        <ele>1979.329</ele>
        <time>2020-09-06T07:17:14Z</time>
      </trkpt>
      <trkpt lat="42.786866" lon="-.618664">
        <ele>1979.421</ele>
        <time>2020-09-06T07:17:20Z</time>
      </trkpt>
      <trkpt lat="42.786842" lon="-.618725">
        <ele>1979.008</ele>
        <time>2020-09-06T07:17:25Z</time>
      </trkpt>
      <trkpt lat="42.786819" lon="-.618778">
        <ele>1978.381</ele>
        <time>2020-09-06T07:17:30Z</time>
      </trkpt>
      <trkpt lat="42.786804" lon="-.618838">
        <ele>1977.642</ele>
        <time>2020-09-06T07:17:39Z</time>
      </trkpt>
      <trkpt lat="42.786802" lon="-.618902">
        <ele>1975.128</ele>
        <time>2020-09-06T07:17:50Z</time>
      </trkpt>
      <trkpt lat="42.786802" lon="-.618973">
        <ele>1973.213</ele>
        <time>2020-09-06T07:17:56Z</time>
      </trkpt>
      <trkpt lat="42.786809" lon="-.619037">
        <ele>1972.041</ele>
        <time>2020-09-06T07:18:02Z</time>
      </trkpt>
      <trkpt lat="42.786784" lon="-.619091">
        <ele>1971.020</ele>
        <time>2020-09-06T07:18:09Z</time>
      </trkpt>
      <trkpt lat="42.786753" lon="-.619141">
        <ele>1970.683</ele>
        <time>2020-09-06T07:18:22Z</time>
      </trkpt>
      <trkpt lat="42.786726" lon="-.61919">
        <ele>1970.656</ele>
        <time>2020-09-06T07:18:35Z</time>
      </trkpt>
      <trkpt lat="42.786703" lon="-.619255">
        <ele>1970.645</ele>
        <time>2020-09-06T07:18:44Z</time>
      </trkpt>
      <trkpt lat="42.786705" lon="-.619321">
        <ele>1970.747</ele>
        <time>2020-09-06T07:18:49Z</time>
      </trkpt>
      <trkpt lat="42.786724" lon="-.619381">
        <ele>1970.811</ele>
        <time>2020-09-06T07:18:55Z</time>
      </trkpt>
      <trkpt lat="42.786761" lon="-.619432">
        <ele>1971.108</ele>
        <time>2020-09-06T07:19:00Z</time>
      </trkpt>
      <trkpt lat="42.786793" lon="-.619485">
        <ele>1971.599</ele>
        <time>2020-09-06T07:19:05Z</time>
      </trkpt>
      <trkpt lat="42.78683" lon="-.619521">
        <ele>1971.810</ele>
        <time>2020-09-06T07:19:12Z</time>
      </trkpt>
      <trkpt lat="42.786876" lon="-.619534">
        <ele>1972.296</ele>
        <time>2020-09-06T07:19:20Z</time>
      </trkpt>
      <trkpt lat="42.786913" lon="-.619573">
        <ele>1973.121</ele>
        <time>2020-09-06T07:19:35Z</time>
      </trkpt>
      <trkpt lat="42.786964" lon="-.619582">
        <ele>1974.169</ele>
        <time>2020-09-06T07:19:42Z</time>
      </trkpt>
      <trkpt lat="42.787004" lon="-.619618">
        <ele>1974.988</ele>
        <time>2020-09-06T07:19:49Z</time>
      </trkpt>
      <trkpt lat="42.787033" lon="-.619673">
        <ele>1975.781</ele>
        <time>2020-09-06T07:19:55Z</time>
      </trkpt>
      <trkpt lat="42.787066" lon="-.619718">
        <ele>1976.814</ele>
        <time>2020-09-06T07:20:03Z</time>
      </trkpt>
      <trkpt lat="42.787112" lon="-.619736">
        <ele>1978.095</ele>
        <time>2020-09-06T07:20:13Z</time>
      </trkpt>
      <trkpt lat="42.787093" lon="-.619793">
        <ele>1978.849</ele>
        <time>2020-09-06T07:20:28Z</time>
      </trkpt>
      <trkpt lat="42.787055" lon="-.619747">
        <ele>1982.423</ele>
        <time>2020-09-06T07:20:58Z</time>
      </trkpt>
      <trkpt lat="42.787078" lon="-.619688">
        <ele>1986.408</ele>
        <time>2020-09-06T07:21:27Z</time>
      </trkpt>
      <trkpt lat="42.787107" lon="-.619737">
        <ele>1990.474</ele>
        <time>2020-09-06T07:22:33Z</time>
      </trkpt>
      <trkpt lat="42.78712" lon="-.6198">
        <ele>1994.495</ele>
        <time>2020-09-06T07:22:38Z</time>
      </trkpt>
      <trkpt lat="42.78713" lon="-.619861">
        <ele>1998.461</ele>
        <time>2020-09-06T07:22:44Z</time>
      </trkpt>
      <trkpt lat="42.787087" lon="-.619893">
        <ele>2001.926</ele>
        <time>2020-09-06T07:22:50Z</time>
      </trkpt>
      <trkpt lat="42.787038" lon="-.619907">
        <ele>2004.564</ele>
        <time>2020-09-06T07:22:57Z</time>
      </trkpt>
      <trkpt lat="42.786985" lon="-.619891">
        <ele>2007.083</ele>
        <time>2020-09-06T07:23:07Z</time>
      </trkpt>
      <trkpt lat="42.786937" lon="-.619887">
        <ele>2009.176</ele>
        <time>2020-09-06T07:23:15Z</time>
      </trkpt>
      <trkpt lat="42.786917" lon="-.619948">
        <ele>2011.759</ele>
        <time>2020-09-06T07:23:27Z</time>
      </trkpt>
      <trkpt lat="42.786917" lon="-.619948">
        <ele>2011.783</ele>
        <time>2020-09-06T07:23:27Z</time>
      </trkpt>
      <trkpt lat="42.786935" lon="-.620006">
        <ele>2012.825</ele>
        <time>2020-09-06T07:23:38Z</time>
      </trkpt>
      <trkpt lat="42.786944" lon="-.620071">
        <ele>2014.517</ele>
        <time>2020-09-06T07:24:24Z</time>
      </trkpt>
      <trkpt lat="42.786987" lon="-.62011">
        <ele>2015.708</ele>
        <time>2020-09-06T07:24:33Z</time>
      </trkpt>
      <trkpt lat="42.786994" lon="-.620171">
        <ele>2016.973</ele>
        <time>2020-09-06T07:24:39Z</time>
      </trkpt>
      <trkpt lat="42.787008" lon="-.62023">
        <ele>2018.454</ele>
        <time>2020-09-06T07:24:50Z</time>
      </trkpt>
      <trkpt lat="42.78702" lon="-.620293">
        <ele>2020.510</ele>
        <time>2020-09-06T07:24:59Z</time>
      </trkpt>
      <trkpt lat="42.787021" lon="-.620355">
        <ele>2023.435</ele>
        <time>2020-09-06T07:25:14Z</time>
      </trkpt>
      <trkpt lat="42.787063" lon="-.620386">
        <ele>2027.343</ele>
        <time>2020-09-06T07:25:30Z</time>
      </trkpt>
      <trkpt lat="42.787102" lon="-.620422">
        <ele>2030.482</ele>
        <time>2020-09-06T07:25:37Z</time>
      </trkpt>
      <trkpt lat="42.787139" lon="-.62046">
        <ele>2033.465</ele>
        <time>2020-09-06T07:25:46Z</time>
      </trkpt>
      <trkpt lat="42.787175" lon="-.620498">
        <ele>2036.278</ele>
        <time>2020-09-06T07:25:57Z</time>
      </trkpt>
      <trkpt lat="42.787203" lon="-.620551">
        <ele>2038.459</ele>
        <time>2020-09-06T07:26:05Z</time>
      </trkpt>
      <trkpt lat="42.787229" lon="-.620602">
        <ele>2039.803</ele>
        <time>2020-09-06T07:26:26Z</time>
      </trkpt>
      <trkpt lat="42.787227" lon="-.620665">
        <ele>2041.123</ele>
        <time>2020-09-06T07:27:20Z</time>
      </trkpt>
      <trkpt lat="42.787194" lon="-.620709">
        <ele>2041.208</ele>
        <time>2020-09-06T07:28:31Z</time>
      </trkpt>
      <trkpt lat="42.787188" lon="-.620771">
        <ele>2041.050</ele>
        <time>2020-09-06T07:28:37Z</time>
      </trkpt>
      <trkpt lat="42.787188" lon="-.620771">
        <ele>2041.031</ele>
        <time>2020-09-06T07:28:37Z</time>
      </trkpt>
      <trkpt lat="42.787171" lon="-.620833">
        <ele>2040.857</ele>
        <time>2020-09-06T07:28:47Z</time>
      </trkpt>
      <trkpt lat="42.787171" lon="-.620894">
        <ele>2040.592</ele>
        <time>2020-09-06T07:28:54Z</time>
      </trkpt>
      <trkpt lat="42.787182" lon="-.620955">
        <ele>2040.240</ele>
        <time>2020-09-06T07:29:02Z</time>
      </trkpt>
      <trkpt lat="42.787206" lon="-.621011">
        <ele>2041.869</ele>
        <time>2020-09-06T07:29:35Z</time>
      </trkpt>
      <trkpt lat="42.787205" lon="-.621079">
        <ele>2042.882</ele>
        <time>2020-09-06T07:29:40Z</time>
      </trkpt>
      <trkpt lat="42.787193" lon="-.62114">
        <ele>2043.475</ele>
        <time>2020-09-06T07:29:45Z</time>
      </trkpt>
      <trkpt lat="42.787207" lon="-.621203">
        <ele>2043.982</ele>
        <time>2020-09-06T07:29:56Z</time>
      </trkpt>
      <trkpt lat="42.787236" lon="-.62125">
        <ele>2044.043</ele>
        <time>2020-09-06T07:30:05Z</time>
      </trkpt>
      <trkpt lat="42.787224" lon="-.621313">
        <ele>2044.517</ele>
        <time>2020-09-06T07:30:31Z</time>
      </trkpt>
      <trkpt lat="42.787246" lon="-.621368">
        <ele>2044.708</ele>
        <time>2020-09-06T07:30:38Z</time>
      </trkpt>
      <trkpt lat="42.787289" lon="-.621399">
        <ele>2044.713</ele>
        <time>2020-09-06T07:30:44Z</time>
      </trkpt>
      <trkpt lat="42.787303" lon="-.621457">
        <ele>2044.414</ele>
        <time>2020-09-06T07:30:50Z</time>
      </trkpt>
      <trkpt lat="42.787347" lon="-.621477">
        <ele>2044.470</ele>
        <time>2020-09-06T07:30:56Z</time>
      </trkpt>
      <trkpt lat="42.787392" lon="-.621492">
        <ele>2044.855</ele>
        <time>2020-09-06T07:31:02Z</time>
      </trkpt>
      <trkpt lat="42.787432" lon="-.621522">
        <ele>2045.383</ele>
        <time>2020-09-06T07:31:08Z</time>
      </trkpt>
      <trkpt lat="42.787469" lon="-.621563">
        <ele>2046.322</ele>
        <time>2020-09-06T07:31:18Z</time>
      </trkpt>
      <trkpt lat="42.78749" lon="-.621618">
        <ele>2048.175</ele>
        <time>2020-09-06T07:31:37Z</time>
      </trkpt>
      <trkpt lat="42.78754" lon="-.62164">
        <ele>2050.028</ele>
        <time>2020-09-06T07:31:44Z</time>
      </trkpt>
      <trkpt lat="42.787583" lon="-.621668">
        <ele>2052.036</ele>
        <time>2020-09-06T07:31:54Z</time>
      </trkpt>
      <trkpt lat="42.787604" lon="-.621728">
        <ele>2054.017</ele>
        <time>2020-09-06T07:32:08Z</time>
      </trkpt>
      <trkpt lat="42.787582" lon="-.621787">
        <ele>2055.318</ele>
        <time>2020-09-06T07:32:15Z</time>
      </trkpt>
      <trkpt lat="42.787535" lon="-.621795">
        <ele>2056.508</ele>
        <time>2020-09-06T07:32:36Z</time>
      </trkpt>
      <trkpt lat="42.787506" lon="-.621842">
        <ele>2057.488</ele>
        <time>2020-09-06T07:32:47Z</time>
      </trkpt>
      <trkpt lat="42.787519" lon="-.621904">
        <ele>2058.629</ele>
        <time>2020-09-06T07:33:00Z</time>
      </trkpt>
      <trkpt lat="42.787545" lon="-.621957">
        <ele>2060.785</ele>
        <time>2020-09-06T07:33:28Z</time>
      </trkpt>
      <trkpt lat="42.787541" lon="-.622024">
        <ele>2062.230</ele>
        <time>2020-09-06T07:33:42Z</time>
      </trkpt>
      <trkpt lat="42.787537" lon="-.622086">
        <ele>2063.258</ele>
        <time>2020-09-06T07:33:52Z</time>
      </trkpt>
      <trkpt lat="42.787562" lon="-.622142">
        <ele>2063.867</ele>
        <time>2020-09-06T07:33:59Z</time>
      </trkpt>
      <trkpt lat="42.787589" lon="-.622194">
        <ele>2064.160</ele>
        <time>2020-09-06T07:34:07Z</time>
      </trkpt>
      <trkpt lat="42.787623" lon="-.622239">
        <ele>2064.413</ele>
        <time>2020-09-06T07:34:22Z</time>
      </trkpt>
      <trkpt lat="42.787623" lon="-.622239">
        <ele>2064.464</ele>
        <time>2020-09-06T07:34:22Z</time>
      </trkpt>
      <trkpt lat="42.787671" lon="-.622255">
        <ele>2064.606</ele>
        <time>2020-09-06T07:34:30Z</time>
      </trkpt>
      <trkpt lat="42.787681" lon="-.622318">
        <ele>2064.616</ele>
        <time>2020-09-06T07:34:40Z</time>
      </trkpt>
      <trkpt lat="42.787707" lon="-.622375">
        <ele>2064.708</ele>
        <time>2020-09-06T07:34:45Z</time>
      </trkpt>
      <trkpt lat="42.787755" lon="-.622404">
        <ele>2064.891</ele>
        <time>2020-09-06T07:34:50Z</time>
      </trkpt>
      <trkpt lat="42.787801" lon="-.62242">
        <ele>2065.142</ele>
        <time>2020-09-06T07:34:56Z</time>
      </trkpt>
      <trkpt lat="42.787843" lon="-.622449">
        <ele>2065.668</ele>
        <time>2020-09-06T07:35:04Z</time>
      </trkpt>
      <trkpt lat="42.787885" lon="-.622472">
        <ele>2067.283</ele>
        <time>2020-09-06T07:35:15Z</time>
      </trkpt>
      <trkpt lat="42.787933" lon="-.622478">
        <ele>2069.311</ele>
        <time>2020-09-06T07:35:25Z</time>
      </trkpt>
      <trkpt lat="42.787976" lon="-.622499">
        <ele>2071.610</ele>
        <time>2020-09-06T07:35:34Z</time>
      </trkpt>
      <trkpt lat="42.788012" lon="-.622535">
        <ele>2074.993</ele>
        <time>2020-09-06T07:35:45Z</time>
      </trkpt>
      <trkpt lat="42.788" lon="-.622602">
        <ele>2077.316</ele>
        <time>2020-09-06T07:35:57Z</time>
      </trkpt>
      <trkpt lat="42.788022" lon="-.622658">
        <ele>2080.128</ele>
        <time>2020-09-06T07:36:13Z</time>
      </trkpt>
      <trkpt lat="42.788017" lon="-.62272">
        <ele>2084.189</ele>
        <time>2020-09-06T07:36:54Z</time>
      </trkpt>
      <trkpt lat="42.787991" lon="-.62277">
        <ele>2088.017</ele>
        <time>2020-09-06T07:37:00Z</time>
      </trkpt>
      <trkpt lat="42.787966" lon="-.622824">
        <ele>2090.908</ele>
        <time>2020-09-06T07:37:15Z</time>
      </trkpt>
      <trkpt lat="42.787975" lon="-.622885">
        <ele>2093.777</ele>
        <time>2020-09-06T07:37:38Z</time>
      </trkpt>
      <trkpt lat="42.787978" lon="-.622947">
        <ele>2097.448</ele>
        <time>2020-09-06T07:40:39Z</time>
      </trkpt>
      <trkpt lat="42.78795" lon="-.622996">
        <ele>2100.194</ele>
        <time>2020-09-06T07:41:15Z</time>
      </trkpt>
      <trkpt lat="42.787989" lon="-.623041">
        <ele>2103.519</ele>
        <time>2020-09-06T07:41:45Z</time>
      </trkpt>
      <trkpt lat="42.788017" lon="-.62309">
        <ele>2105.967</ele>
        <time>2020-09-06T07:41:53Z</time>
      </trkpt>
      <trkpt lat="42.788044" lon="-.623141">
        <ele>2108.336</ele>
        <time>2020-09-06T07:42:22Z</time>
      </trkpt>
      <trkpt lat="42.788086" lon="-.623165">
        <ele>2111.459</ele>
        <time>2020-09-06T07:42:43Z</time>
      </trkpt>
      <trkpt lat="42.788084" lon="-.623229">
        <ele>2115.482</ele>
        <time>2020-09-06T07:44:46Z</time>
      </trkpt>
      <trkpt lat="42.78805" lon="-.623276">
        <ele>2120.767</ele>
        <time>2020-09-06T07:44:51Z</time>
      </trkpt>
      <trkpt lat="42.78805" lon="-.623276">
        <ele>2120.781</ele>
        <time>2020-09-06T07:44:51Z</time>
      </trkpt>
      <trkpt lat="42.788014" lon="-.623325">
        <ele>2122.119</ele>
        <time>2020-09-06T07:44:58Z</time>
      </trkpt>
      <trkpt lat="42.787983" lon="-.623375">
        <ele>2123.008</ele>
        <time>2020-09-06T07:45:09Z</time>
      </trkpt>
      <trkpt lat="42.78802" lon="-.623421">
        <ele>2124.531</ele>
        <time>2020-09-06T07:45:48Z</time>
      </trkpt>
      <trkpt lat="42.788057" lon="-.623462">
        <ele>2127.472</ele>
        <time>2020-09-06T07:45:56Z</time>
      </trkpt>
      <trkpt lat="42.788057" lon="-.623462">
        <ele>2127.488</ele>
        <time>2020-09-06T07:45:56Z</time>
      </trkpt>
      <trkpt lat="42.788086" lon="-.623509">
        <ele>2130.233</ele>
        <time>2020-09-06T07:46:16Z</time>
      </trkpt>
      <trkpt lat="42.788131" lon="-.623524">
        <ele>2132.861</ele>
        <time>2020-09-06T07:46:27Z</time>
      </trkpt>
      <trkpt lat="42.788172" lon="-.62349">
        <ele>2136.830</ele>
        <time>2020-09-06T07:47:09Z</time>
      </trkpt>
      <trkpt lat="42.788195" lon="-.623547">
        <ele>2144.883</ele>
        <time>2020-09-06T07:48:32Z</time>
      </trkpt>
      <trkpt lat="42.788195" lon="-.623547">
        <ele>2144.816</ele>
        <time>2020-09-06T07:48:32Z</time>
      </trkpt>
      <trkpt lat="42.788227" lon="-.623595">
        <ele>2151.424</ele>
        <time>2020-09-06T07:48:51Z</time>
      </trkpt>
      <trkpt lat="42.788227" lon="-.623595">
        <ele>2151.404</ele>
        <time>2020-09-06T07:48:51Z</time>
      </trkpt>
      <trkpt lat="42.78824" lon="-.623656">
        <ele>2153.814</ele>
        <time>2020-09-06T07:48:59Z</time>
      </trkpt>
      <trkpt lat="42.788259" lon="-.623714">
        <ele>2155.808</ele>
        <time>2020-09-06T07:49:11Z</time>
      </trkpt>
      <trkpt lat="42.788267" lon="-.623775">
        <ele>2157.737</ele>
        <time>2020-09-06T07:49:26Z</time>
      </trkpt>
      <trkpt lat="42.788311" lon="-.623793">
        <ele>2160.268</ele>
        <time>2020-09-06T07:49:47Z</time>
      </trkpt>
      <trkpt lat="42.78836" lon="-.623818">
        <ele>2162.084</ele>
        <time>2020-09-06T07:49:55Z</time>
      </trkpt>
      <trkpt lat="42.788388" lon="-.623866">
        <ele>2163.249</ele>
        <time>2020-09-06T07:50:07Z</time>
      </trkpt>
      <trkpt lat="42.78843" lon="-.623841">
        <ele>2164.287</ele>
        <time>2020-09-06T07:50:23Z</time>
      </trkpt>
      <trkpt lat="42.788439" lon="-.623903">
        <ele>2166.036</ele>
        <time>2020-09-06T07:50:36Z</time>
      </trkpt>
      <trkpt lat="42.788397" lon="-.623873">
        <ele>2166.939</ele>
        <time>2020-09-06T07:51:47Z</time>
      </trkpt>
      <trkpt lat="42.78844" lon="-.623847">
        <ele>2167.712</ele>
        <time>2020-09-06T07:52:08Z</time>
      </trkpt>
      <trkpt lat="42.788433" lon="-.623913">
        <ele>2169.162</ele>
        <time>2020-09-06T07:53:35Z</time>
      </trkpt>
      <trkpt lat="42.788449" lon="-.623972">
        <ele>2170.283</ele>
        <time>2020-09-06T07:53:43Z</time>
      </trkpt>
      <trkpt lat="42.788409" lon="-.623941">
        <ele>2175.411</ele>
        <time>2020-09-06T07:56:21Z</time>
      </trkpt>
      <trkpt lat="42.788409" lon="-.623941">
        <ele>2175.408</ele>
        <time>2020-09-06T07:56:21Z</time>
      </trkpt>
      <trkpt lat="42.788404" lon="-.623878">
        <ele>2176.351</ele>
        <time>2020-09-06T07:56:29Z</time>
      </trkpt>
      <trkpt lat="42.788426" lon="-.623821">
        <ele>2176.462</ele>
        <time>2020-09-06T07:58:14Z</time>
      </trkpt>
      <trkpt lat="42.788474" lon="-.62382">
        <ele>2176.588</ele>
        <time>2020-09-06T07:58:50Z</time>
      </trkpt>
      <trkpt lat="42.78852" lon="-.623827">
        <ele>2176.663</ele>
        <time>2020-09-06T07:58:53Z</time>
      </trkpt>
      <trkpt lat="42.78852" lon="-.623827">
        <ele>2176.611</ele>
        <time>2020-09-06T07:58:53Z</time>
      </trkpt>
      <trkpt lat="42.788564" lon="-.62381">
        <ele>2176.660</ele>
        <time>2020-09-06T07:58:57Z</time>
      </trkpt>
      <trkpt lat="42.788518" lon="-.623846">
        <ele>2176.513</ele>
        <time>2020-09-06T07:59:19Z</time>
      </trkpt>
      <trkpt lat="42.788479" lon="-.623877">
        <ele>2176.356</ele>
        <time>2020-09-06T07:59:33Z</time>
      </trkpt>
      <trkpt lat="42.788426" lon="-.623872">
        <ele>2176.013</ele>
        <time>2020-09-06T07:59:48Z</time>
      </trkpt>
      <trkpt lat="42.788472" lon="-.623831">
        <ele>2176.043</ele>
        <time>2020-09-06T07:59:56Z</time>
      </trkpt>
      <trkpt lat="42.788522" lon="-.623834">
        <ele>2176.007</ele>
        <time>2020-09-06T08:00:06Z</time>
      </trkpt>
      <trkpt lat="42.788583" lon="-.623811">
        <ele>2176.108</ele>
        <time>2020-09-06T08:00:07Z</time>
      </trkpt>
      <trkpt lat="42.788635" lon="-.623789">
        <ele>2176.286</ele>
        <time>2020-09-06T08:00:08Z</time>
      </trkpt>
      <trkpt lat="42.788692" lon="-.623763">
        <ele>2176.087</ele>
        <time>2020-09-06T08:00:10Z</time>
      </trkpt>
      <trkpt lat="42.788651" lon="-.623735">
        <ele>2175.523</ele>
        <time>2020-09-06T08:00:24Z</time>
      </trkpt>
      <trkpt lat="42.788607" lon="-.623751">
        <ele>2178.618</ele>
        <time>2020-09-06T08:00:44Z</time>
      </trkpt>
      <trkpt lat="42.788563" lon="-.623771">
        <ele>2180.886</ele>
        <time>2020-09-06T08:00:48Z</time>
      </trkpt>
      <trkpt lat="42.788532" lon="-.623846">
        <ele>2182.295</ele>
        <time>2020-09-06T08:00:51Z</time>
      </trkpt>
      <trkpt lat="42.788513" lon="-.623903">
        <ele>2182.768</ele>
        <time>2020-09-06T08:01:01Z</time>
      </trkpt>
      <trkpt lat="42.788468" lon="-.623915">
        <ele>2182.681</ele>
        <time>2020-09-06T08:01:08Z</time>
      </trkpt>
      <trkpt lat="42.788452" lon="-.623852">
        <ele>2182.061</ele>
        <time>2020-09-06T08:01:20Z</time>
      </trkpt>
      <trkpt lat="42.788408" lon="-.623837">
        <ele>2178.921</ele>
        <time>2020-09-06T08:01:46Z</time>
      </trkpt>
      <trkpt lat="42.788447" lon="-.62387">
        <ele>2175.713</ele>
        <time>2020-09-06T08:03:52Z</time>
      </trkpt>
      <trkpt lat="42.788497" lon="-.623868">
        <ele>2174.008</ele>
        <time>2020-09-06T08:04:08Z</time>
      </trkpt>
      <trkpt lat="42.788541" lon="-.623853">
        <ele>2173.741</ele>
        <time>2020-09-06T08:04:14Z</time>
      </trkpt>
      <trkpt lat="42.788509" lon="-.623802">
        <ele>2173.612</ele>
        <time>2020-09-06T08:04:32Z</time>
      </trkpt>
      <trkpt lat="42.788466" lon="-.623761">
        <ele>2173.858</ele>
        <time>2020-09-06T08:04:37Z</time>
      </trkpt>
      <trkpt lat="42.788426" lon="-.623799">
        <ele>2174.523</ele>
        <time>2020-09-06T08:04:54Z</time>
      </trkpt>
      <trkpt lat="42.788421" lon="-.623861">
        <ele>2175.051</ele>
        <time>2020-09-06T08:05:02Z</time>
      </trkpt>
      <trkpt lat="42.788469" lon="-.623904">
        <ele>2177.290</ele>
        <time>2020-09-06T08:05:32Z</time>
      </trkpt>
      <trkpt lat="42.788432" lon="-.623947">
        <ele>2178.923</ele>
        <time>2020-09-06T08:06:15Z</time>
      </trkpt>
      <trkpt lat="42.788415" lon="-.623884">
        <ele>2181.246</ele>
        <time>2020-09-06T08:06:25Z</time>
      </trkpt>
      <trkpt lat="42.788415" lon="-.623884">
        <ele>2181.289</ele>
        <time>2020-09-06T08:06:25Z</time>
      </trkpt>
      <trkpt lat="42.788421" lon="-.623822">
        <ele>2181.406</ele>
        <time>2020-09-06T08:07:32Z</time>
      </trkpt>
      <trkpt lat="42.788459" lon="-.623858">
        <ele>2181.126</ele>
        <time>2020-09-06T08:08:01Z</time>
      </trkpt>
      <trkpt lat="42.788512" lon="-.623879">
        <ele>2183.208</ele>
        <time>2020-09-06T08:08:42Z</time>
      </trkpt>
      <trkpt lat="42.788552" lon="-.623926">
        <ele>2184.973</ele>
        <time>2020-09-06T08:08:45Z</time>
      </trkpt>
      <trkpt lat="42.788598" lon="-.623965">
        <ele>2186.744</ele>
        <time>2020-09-06T08:08:49Z</time>
      </trkpt>
      <trkpt lat="42.788598" lon="-.623965">
        <ele>2186.740</ele>
        <time>2020-09-06T08:08:49Z</time>
      </trkpt>
      <trkpt lat="42.788586" lon="-.623901">
        <ele>2186.945</ele>
        <time>2020-09-06T08:09:03Z</time>
      </trkpt>
      <trkpt lat="42.788535" lon="-.623899">
        <ele>2186.933</ele>
        <time>2020-09-06T08:09:13Z</time>
      </trkpt>
      <trkpt lat="42.788486" lon="-.623879">
        <ele>2186.832</ele>
        <time>2020-09-06T08:09:33Z</time>
      </trkpt>
      <trkpt lat="42.788455" lon="-.623828">
        <ele>2186.885</ele>
        <time>2020-09-06T08:10:23Z</time>
      </trkpt>
      <trkpt lat="42.788408" lon="-.623822">
        <ele>2186.848</ele>
        <time>2020-09-06T08:11:02Z</time>
      </trkpt>
      <trkpt lat="42.788447" lon="-.623865">
        <ele>2186.988</ele>
        <time>2020-09-06T08:11:07Z</time>
      </trkpt>
      <trkpt lat="42.788493" lon="-.623865">
        <ele>2182.924</ele>
        <time>2020-09-06T08:12:36Z</time>
      </trkpt>
      <trkpt lat="42.78844" lon="-.623856">
        <ele>2178.926</ele>
        <time>2020-09-06T08:12:54Z</time>
      </trkpt>
      <trkpt lat="42.788405" lon="-.623896">
        <ele>2177.408</ele>
        <time>2020-09-06T08:13:43Z</time>
      </trkpt>
      <trkpt lat="42.78845" lon="-.623887">
        <ele>2177.433</ele>
        <time>2020-09-06T08:13:58Z</time>
      </trkpt>
      <trkpt lat="42.788451" lon="-.623949">
        <ele>2177.644</ele>
        <time>2020-09-06T08:14:21Z</time>
      </trkpt>
      <trkpt lat="42.788451" lon="-.623949">
        <ele>2177.690</ele>
        <time>2020-09-06T08:14:21Z</time>
      </trkpt>
      <trkpt lat="42.78849" lon="-.623984">
        <ele>2177.775</ele>
        <time>2020-09-06T08:14:24Z</time>
      </trkpt>
      <trkpt lat="42.788517" lon="-.624046">
        <ele>2177.883</ele>
        <time>2020-09-06T08:14:27Z</time>
      </trkpt>
      <trkpt lat="42.788528" lon="-.624123">
        <ele>2177.892</ele>
        <time>2020-09-06T08:14:30Z</time>
      </trkpt>
      <trkpt lat="42.788495" lon="-.624023">
        <ele>2177.835</ele>
        <time>2020-09-06T08:14:36Z</time>
      </trkpt>
      <trkpt lat="42.788477" lon="-.623955">
        <ele>2177.888</ele>
        <time>2020-09-06T08:14:39Z</time>
      </trkpt>
      <trkpt lat="42.788474" lon="-.623894">
        <ele>2177.527</ele>
        <time>2020-09-06T08:15:02Z</time>
      </trkpt>
      <trkpt lat="42.7885" lon="-.623831">
        <ele>2176.068</ele>
        <time>2020-09-06T08:15:26Z</time>
      </trkpt>
      <trkpt lat="42.7885" lon="-.623831">
        <ele>2176.014</ele>
        <time>2020-09-06T08:15:26Z</time>
      </trkpt>
      <trkpt lat="42.788563" lon="-.623781">
        <ele>2175.508</ele>
        <time>2020-09-06T08:15:28Z</time>
      </trkpt>
      <trkpt lat="42.788563" lon="-.623781">
        <ele>2175.517</ele>
        <time>2020-09-06T08:15:28Z</time>
      </trkpt>
      <trkpt lat="42.788589" lon="-.623683">
        <ele>2175.688</ele>
        <time>2020-09-06T08:15:34Z</time>
      </trkpt>
      <trkpt lat="42.788589" lon="-.623683">
        <ele>2175.694</ele>
        <time>2020-09-06T08:15:34Z</time>
      </trkpt>
      <trkpt lat="42.788576" lon="-.623622">
        <ele>2175.859</ele>
        <time>2020-09-06T08:15:36Z</time>
      </trkpt>
      <trkpt lat="42.788576" lon="-.623622">
        <ele>2175.857</ele>
        <time>2020-09-06T08:15:36Z</time>
      </trkpt>
      <trkpt lat="42.788513" lon="-.62359">
        <ele>2176.876</ele>
        <time>2020-09-06T08:15:50Z</time>
      </trkpt>
      <trkpt lat="42.788513" lon="-.62359">
        <ele>2176.819</ele>
        <time>2020-09-06T08:15:50Z</time>
      </trkpt>
      <trkpt lat="42.78846" lon="-.623596">
        <ele>2177.372</ele>
        <time>2020-09-06T08:15:53Z</time>
      </trkpt>
      <trkpt lat="42.78846" lon="-.623596">
        <ele>2177.315</ele>
        <time>2020-09-06T08:15:53Z</time>
      </trkpt>
      <trkpt lat="42.788435" lon="-.62366">
        <ele>2176.765</ele>
        <time>2020-09-06T08:16:06Z</time>
      </trkpt>
      <trkpt lat="42.788435" lon="-.62366">
        <ele>2176.711</ele>
        <time>2020-09-06T08:16:06Z</time>
      </trkpt>
      <trkpt lat="42.78842" lon="-.623725">
        <ele>2176.108</ele>
        <time>2020-09-06T08:16:08Z</time>
      </trkpt>
      <trkpt lat="42.78842" lon="-.623725">
        <ele>2176.156</ele>
        <time>2020-09-06T08:16:08Z</time>
      </trkpt>
      <trkpt lat="42.788394" lon="-.623795">
        <ele>2176.857</ele>
        <time>2020-09-06T08:16:32Z</time>
      </trkpt>
      <trkpt lat="42.790114" lon="-.630015">
        <ele>2241.483</ele>
        <time>2020-09-06T08:55:43Z</time>
      </trkpt>
      <trkpt lat="42.789983" lon="-.629999">
        <ele>2244.348</ele>
        <time>2020-09-06T08:55:52Z</time>
      </trkpt>
      <trkpt lat="42.789983" lon="-.629999">
        <ele>2244.326</ele>
        <time>2020-09-06T08:55:52Z</time>
      </trkpt>
      <trkpt lat="42.789932" lon="-.629995">
        <ele>2247.015</ele>
        <time>2020-09-06T08:55:54Z</time>
      </trkpt>
      <trkpt lat="42.789932" lon="-.629995">
        <ele>2247.058</ele>
        <time>2020-09-06T08:55:54Z</time>
      </trkpt>
      <trkpt lat="42.789878" lon="-.629994">
        <ele>2248.071</ele>
        <time>2020-09-06T08:55:57Z</time>
      </trkpt>
      <trkpt lat="42.789878" lon="-.629994">
        <ele>2248.026</ele>
        <time>2020-09-06T08:55:57Z</time>
      </trkpt>
      <trkpt lat="42.789835" lon="-.630016">
        <ele>2248.747</ele>
        <time>2020-09-06T08:56:07Z</time>
      </trkpt>
      <trkpt lat="42.789877" lon="-.630051">
        <ele>2249.011</ele>
        <time>2020-09-06T08:56:14Z</time>
      </trkpt>
      <trkpt lat="42.789924" lon="-.630052">
        <ele>2249.108</ele>
        <time>2020-09-06T08:56:18Z</time>
      </trkpt>
      <trkpt lat="42.789953" lon="-.6301">
        <ele>2249.087</ele>
        <time>2020-09-06T08:56:21Z</time>
      </trkpt>
      <trkpt lat="42.789994" lon="-.630146">
        <ele>2248.818</ele>
        <time>2020-09-06T08:56:25Z</time>
      </trkpt>
      <trkpt lat="42.790022" lon="-.630195">
        <ele>2248.654</ele>
        <time>2020-09-06T08:56:31Z</time>
      </trkpt>
      <trkpt lat="42.790051" lon="-.63026">
        <ele>2248.239</ele>
        <time>2020-09-06T08:56:36Z</time>
      </trkpt>
      <trkpt lat="42.790063" lon="-.630328">
        <ele>2247.287</ele>
        <time>2020-09-06T08:56:41Z</time>
      </trkpt>
      <trkpt lat="42.790063" lon="-.630328">
        <ele>2247.216</ele>
        <time>2020-09-06T08:56:41Z</time>
      </trkpt>
      <trkpt lat="42.790074" lon="-.630393">
        <ele>2246.719</ele>
        <time>2020-09-06T08:56:46Z</time>
      </trkpt>
      <trkpt lat="42.790118" lon="-.630415">
        <ele>2246.192</ele>
        <time>2020-09-06T08:56:55Z</time>
      </trkpt>
      <trkpt lat="42.790107" lon="-.630477">
        <ele>2245.895</ele>
        <time>2020-09-06T08:57:01Z</time>
      </trkpt>
      <trkpt lat="42.790124" lon="-.630539">
        <ele>2245.549</ele>
        <time>2020-09-06T08:57:09Z</time>
      </trkpt>
      <trkpt lat="42.790138" lon="-.6306">
        <ele>2245.523</ele>
        <time>2020-09-06T08:57:20Z</time>
      </trkpt>
      <trkpt lat="42.790175" lon="-.63064">
        <ele>2245.508</ele>
        <time>2020-09-06T08:57:30Z</time>
      </trkpt>
      <trkpt lat="42.790151" lon="-.630697">
        <ele>2245.314</ele>
        <time>2020-09-06T08:57:43Z</time>
      </trkpt>
      <trkpt lat="42.790118" lon="-.630749">
        <ele>2245.835</ele>
        <time>2020-09-06T08:58:07Z</time>
      </trkpt>
      <trkpt lat="42.790101" lon="-.63081">
        <ele>2246.361</ele>
        <time>2020-09-06T08:58:15Z</time>
      </trkpt>
      <trkpt lat="42.790098" lon="-.630874">
        <ele>2246.426</ele>
        <time>2020-09-06T08:58:26Z</time>
      </trkpt>
      <trkpt lat="42.790129" lon="-.63092">
        <ele>2246.554</ele>
        <time>2020-09-06T08:58:53Z</time>
      </trkpt>
      <trkpt lat="42.790141" lon="-.630985">
        <ele>2250.733</ele>
        <time>2020-09-06T08:59:09Z</time>
      </trkpt>
      <trkpt lat="42.790141" lon="-.630985">
        <ele>2250.756</ele>
        <time>2020-09-06T08:59:09Z</time>
      </trkpt>
      <trkpt lat="42.790183" lon="-.631022">
        <ele>2252.699</ele>
        <time>2020-09-06T08:59:16Z</time>
      </trkpt>
      <trkpt lat="42.7902" lon="-.631081">
        <ele>2254.444</ele>
        <time>2020-09-06T08:59:32Z</time>
      </trkpt>
      <trkpt lat="42.790206" lon="-.631144">
        <ele>2255.705</ele>
        <time>2020-09-06T08:59:53Z</time>
      </trkpt>
      <trkpt lat="42.790234" lon="-.631194">
        <ele>2256.615</ele>
        <time>2020-09-06T09:00:06Z</time>
      </trkpt>
      <trkpt lat="42.790188" lon="-.631229">
        <ele>2259.408</ele>
        <time>2020-09-06T09:00:37Z</time>
      </trkpt>
      <trkpt lat="42.790145" lon="-.631253">
        <ele>2261.279</ele>
        <time>2020-09-06T09:00:41Z</time>
      </trkpt>
      <trkpt lat="42.790182" lon="-.631292">
        <ele>2262.630</ele>
        <time>2020-09-06T09:00:48Z</time>
      </trkpt>
      <trkpt lat="42.790211" lon="-.631346">
        <ele>2264.656</ele>
        <time>2020-09-06T09:00:55Z</time>
      </trkpt>
      <trkpt lat="42.790211" lon="-.631346">
        <ele>2264.611</ele>
        <time>2020-09-06T09:00:55Z</time>
      </trkpt>
      <trkpt lat="42.790258" lon="-.631362">
        <ele>2266.099</ele>
        <time>2020-09-06T09:01:06Z</time>
      </trkpt>
      <trkpt lat="42.790309" lon="-.631373">
        <ele>2267.258</ele>
        <time>2020-09-06T09:01:13Z</time>
      </trkpt>
      <trkpt lat="42.790327" lon="-.63143">
        <ele>2268.361</ele>
        <time>2020-09-06T09:01:21Z</time>
      </trkpt>
      <trkpt lat="42.790336" lon="-.631491">
        <ele>2269.464</ele>
        <time>2020-09-06T09:01:27Z</time>
      </trkpt>
      <trkpt lat="42.790315" lon="-.631546">
        <ele>2270.678</ele>
        <time>2020-09-06T09:01:37Z</time>
      </trkpt>
      <trkpt lat="42.790283" lon="-.631595">
        <ele>2271.733</ele>
        <time>2020-09-06T09:01:50Z</time>
      </trkpt>
      <trkpt lat="42.790244" lon="-.631627">
        <ele>2272.526</ele>
        <time>2020-09-06T09:01:57Z</time>
      </trkpt>
      <trkpt lat="42.790222" lon="-.631682">
        <ele>2273.008</ele>
        <time>2020-09-06T09:02:02Z</time>
      </trkpt>
      <trkpt lat="42.790181" lon="-.631725">
        <ele>2275.882</ele>
        <time>2020-09-06T09:03:19Z</time>
      </trkpt>
      <trkpt lat="42.790181" lon="-.631725">
        <ele>2275.883</ele>
        <time>2020-09-06T09:03:19Z</time>
      </trkpt>
      <trkpt lat="42.790132" lon="-.631732">
        <ele>2278.979</ele>
        <time>2020-09-06T09:03:39Z</time>
      </trkpt>
      <trkpt lat="42.790075" lon="-.631734">
        <ele>2283.544</ele>
        <time>2020-09-06T09:03:47Z</time>
      </trkpt>
      <trkpt lat="42.790075" lon="-.631734">
        <ele>2283.572</ele>
        <time>2020-09-06T09:03:47Z</time>
      </trkpt>
      <trkpt lat="42.790055" lon="-.631792">
        <ele>2286.481</ele>
        <time>2020-09-06T09:04:00Z</time>
      </trkpt>
      <trkpt lat="42.790009" lon="-.631811">
        <ele>2289.884</ele>
        <time>2020-09-06T09:04:13Z</time>
      </trkpt>
      <trkpt lat="42.789991" lon="-.631752">
        <ele>2293.117</ele>
        <time>2020-09-06T09:04:24Z</time>
      </trkpt>
      <trkpt lat="42.789961" lon="-.631706">
        <ele>2295.811</ele>
        <time>2020-09-06T09:04:31Z</time>
      </trkpt>
      <trkpt lat="42.789912" lon="-.631708">
        <ele>2298.621</ele>
        <time>2020-09-06T09:04:46Z</time>
      </trkpt>
      <trkpt lat="42.78988" lon="-.631759">
        <ele>2300.603</ele>
        <time>2020-09-06T09:04:51Z</time>
      </trkpt>
      <trkpt lat="42.789835" lon="-.631756">
        <ele>2303.208</ele>
        <time>2020-09-06T09:05:14Z</time>
      </trkpt>
      <trkpt lat="42.789837" lon="-.631694">
        <ele>2305.876</ele>
        <time>2020-09-06T09:05:40Z</time>
      </trkpt>
      <trkpt lat="42.789844" lon="-.631631">
        <ele>2307.497</ele>
        <time>2020-09-06T09:06:00Z</time>
      </trkpt>
      <trkpt lat="42.789782" lon="-.631628">
        <ele>2308.773</ele>
        <time>2020-09-06T09:07:40Z</time>
      </trkpt>
      <trkpt lat="42.789736" lon="-.631619">
        <ele>2309.338</ele>
        <time>2020-09-06T09:07:51Z</time>
      </trkpt>
      <trkpt lat="42.789692" lon="-.631602">
        <ele>2310.266</ele>
        <time>2020-09-06T09:08:04Z</time>
      </trkpt>
      <trkpt lat="42.78965" lon="-.631636">
        <ele>2311.015</ele>
        <time>2020-09-06T09:08:19Z</time>
      </trkpt>
      <trkpt lat="42.789612" lon="-.631674">
        <ele>2311.358</ele>
        <time>2020-09-06T09:08:25Z</time>
      </trkpt>
      <trkpt lat="42.789585" lon="-.631726">
        <ele>2311.271</ele>
        <time>2020-09-06T09:08:53Z</time>
      </trkpt>
      <trkpt lat="42.789581" lon="-.631788">
        <ele>2310.424</ele>
        <time>2020-09-06T09:09:20Z</time>
      </trkpt>
      <trkpt lat="42.789575" lon="-.631857">
        <ele>2310.004</ele>
        <time>2020-09-06T09:09:27Z</time>
      </trkpt>
      <trkpt lat="42.789563" lon="-.631917">
        <ele>2310.114</ele>
        <time>2020-09-06T09:09:50Z</time>
      </trkpt>
      <trkpt lat="42.789525" lon="-.631958">
        <ele>2310.108</ele>
        <time>2020-09-06T09:10:05Z</time>
      </trkpt>
      <trkpt lat="42.78948" lon="-.631962">
        <ele>2310.577</ele>
        <time>2020-09-06T09:10:31Z</time>
      </trkpt>
      <trkpt lat="42.789432" lon="-.631952">
        <ele>2311.488</ele>
        <time>2020-09-06T09:12:05Z</time>
      </trkpt>
      <trkpt lat="42.789348" lon="-.631968">
        <ele>2311.964</ele>
        <time>2020-09-06T09:12:09Z</time>
      </trkpt>
      <trkpt lat="42.789301" lon="-.631978">
        <ele>2312.279</ele>
        <time>2020-09-06T09:12:11Z</time>
      </trkpt>
      <trkpt lat="42.789342" lon="-.632009">
        <ele>2312.357</ele>
        <time>2020-09-06T09:12:16Z</time>
      </trkpt>
      <trkpt lat="42.789393" lon="-.632009">
        <ele>2312.456</ele>
        <time>2020-09-06T09:12:19Z</time>
      </trkpt>
      <trkpt lat="42.789434" lon="-.631983">
        <ele>2313.029</ele>
        <time>2020-09-06T09:13:05Z</time>
      </trkpt>
      <trkpt lat="42.789479" lon="-.631992">
        <ele>2315.182</ele>
        <time>2020-09-06T09:13:23Z</time>
      </trkpt>
      <trkpt lat="42.789454" lon="-.631929">
        <ele>2317.827</ele>
        <time>2020-09-06T09:13:52Z</time>
      </trkpt>
      <trkpt lat="42.789492" lon="-.631896">
        <ele>2319.968</ele>
        <time>2020-09-06T09:14:18Z</time>
      </trkpt>
      <trkpt lat="42.789481" lon="-.631832">
        <ele>2321.114</ele>
        <time>2020-09-06T09:14:25Z</time>
      </trkpt>
      <trkpt lat="42.789434" lon="-.631824">
        <ele>2321.808</ele>
        <time>2020-09-06T09:14:31Z</time>
      </trkpt>
      <trkpt lat="42.789377" lon="-.631831">
        <ele>2322.287</ele>
        <time>2020-09-06T09:14:36Z</time>
      </trkpt>
      <trkpt lat="42.789338" lon="-.631861">
        <ele>2322.428</ele>
        <time>2020-09-06T09:14:47Z</time>
      </trkpt>
      <trkpt lat="42.789302" lon="-.631901">
        <ele>2322.844</ele>
        <time>2020-09-06T09:15:11Z</time>
      </trkpt>
      <trkpt lat="42.789263" lon="-.631869">
        <ele>2323.219</ele>
        <time>2020-09-06T09:15:28Z</time>
      </trkpt>
      <trkpt lat="42.789264" lon="-.631806">
        <ele>2326.737</ele>
        <time>2020-09-06T09:16:10Z</time>
      </trkpt>
      <trkpt lat="42.789217" lon="-.631825">
        <ele>2330.756</ele>
        <time>2020-09-06T09:16:52Z</time>
      </trkpt>
      <trkpt lat="42.789184" lon="-.631871">
        <ele>2334.749</ele>
        <time>2020-09-06T09:17:05Z</time>
      </trkpt>
      <trkpt lat="42.789161" lon="-.631929">
        <ele>2338.732</ele>
        <time>2020-09-06T09:17:11Z</time>
      </trkpt>
      <trkpt lat="42.789193" lon="-.631885">
        <ele>2342.734</ele>
        <time>2020-09-06T09:17:49Z</time>
      </trkpt>
      <trkpt lat="42.789148" lon="-.631905">
        <ele>2346.755</ele>
        <time>2020-09-06T09:18:17Z</time>
      </trkpt>
      <trkpt lat="42.789125" lon="-.631962">
        <ele>2350.710</ele>
        <time>2020-09-06T09:18:26Z</time>
      </trkpt>
      <trkpt lat="42.78908" lon="-.631995">
        <ele>2354.708</ele>
        <time>2020-09-06T09:18:39Z</time>
      </trkpt>
      <trkpt lat="42.789041" lon="-.632027">
        <ele>2357.748</ele>
        <time>2020-09-06T09:18:53Z</time>
      </trkpt>
      <trkpt lat="42.789004" lon="-.632065">
        <ele>2360.439</ele>
        <time>2020-09-06T09:19:11Z</time>
      </trkpt>
      <trkpt lat="42.788965" lon="-.632101">
        <ele>2362.245</ele>
        <time>2020-09-06T09:19:17Z</time>
      </trkpt>
      <trkpt lat="42.788942" lon="-.632154">
        <ele>2363.460</ele>
        <time>2020-09-06T09:19:38Z</time>
      </trkpt>
      <trkpt lat="42.788905" lon="-.6322">
        <ele>2366.398</ele>
        <time>2020-09-06T09:20:11Z</time>
      </trkpt>
      <trkpt lat="42.788905" lon="-.6322">
        <ele>2366.397</ele>
        <time>2020-09-06T09:20:11Z</time>
      </trkpt>
      <trkpt lat="42.788868" lon="-.632236">
        <ele>2367.110</ele>
        <time>2020-09-06T09:20:16Z</time>
      </trkpt>
      <trkpt lat="42.788821" lon="-.632252">
        <ele>2369.043</ele>
        <time>2020-09-06T09:20:55Z</time>
      </trkpt>
      <trkpt lat="42.788776" lon="-.63224">
        <ele>2370.167</ele>
        <time>2020-09-06T09:21:05Z</time>
      </trkpt>
      <trkpt lat="42.788726" lon="-.632229">
        <ele>2371.981</ele>
        <time>2020-09-06T09:21:21Z</time>
      </trkpt>
      <trkpt lat="42.788686" lon="-.632266">
        <ele>2373.219</ele>
        <time>2020-09-06T09:21:27Z</time>
      </trkpt>
      <trkpt lat="42.788672" lon="-.632347">
        <ele>2374.908</ele>
        <time>2020-09-06T09:23:06Z</time>
      </trkpt>
      <trkpt lat="42.788722" lon="-.632327">
        <ele>2375.821</ele>
        <time>2020-09-06T09:23:43Z</time>
      </trkpt>
      <trkpt lat="42.788679" lon="-.632353">
        <ele>2377.752</ele>
        <time>2020-09-06T09:25:13Z</time>
      </trkpt>
      <trkpt lat="42.788683" lon="-.632418">
        <ele>2378.918</ele>
        <time>2020-09-06T09:25:22Z</time>
      </trkpt>
      <trkpt lat="42.788659" lon="-.632471">
        <ele>2379.033</ele>
        <time>2020-09-06T09:25:57Z</time>
      </trkpt>
      <trkpt lat="42.788619" lon="-.632443">
        <ele>2378.421</ele>
        <time>2020-09-06T09:26:20Z</time>
      </trkpt>
      <trkpt lat="42.788636" lon="-.6325">
        <ele>2377.670</ele>
        <time>2020-09-06T09:27:12Z</time>
      </trkpt>
      <trkpt lat="42.788603" lon="-.632546">
        <ele>2376.843</ele>
        <time>2020-09-06T09:27:18Z</time>
      </trkpt>
      <trkpt lat="42.788561" lon="-.632571">
        <ele>2376.366</ele>
        <time>2020-09-06T09:27:22Z</time>
      </trkpt>
      <trkpt lat="42.788515" lon="-.632559">
        <ele>2376.357</ele>
        <time>2020-09-06T09:27:26Z</time>
      </trkpt>
      <trkpt lat="42.788468" lon="-.632563">
        <ele>2376.400</ele>
        <time>2020-09-06T09:27:30Z</time>
      </trkpt>
      <trkpt lat="42.788422" lon="-.632559">
        <ele>2376.520</ele>
        <time>2020-09-06T09:27:39Z</time>
      </trkpt>
      <trkpt lat="42.788384" lon="-.632592">
        <ele>2376.408</ele>
        <time>2020-09-06T09:28:20Z</time>
      </trkpt>
      <trkpt lat="42.788341" lon="-.632621">
        <ele>2376.630</ele>
        <time>2020-09-06T09:28:38Z</time>
      </trkpt>
      <trkpt lat="42.788295" lon="-.632617">
        <ele>2376.981</ele>
        <time>2020-09-06T09:29:08Z</time>
      </trkpt>
      <trkpt lat="42.788274" lon="-.632559">
        <ele>2379.427</ele>
        <time>2020-09-06T09:29:15Z</time>
      </trkpt>
      <trkpt lat="42.788255" lon="-.632502">
        <ele>2380.922</ele>
        <time>2020-09-06T09:29:22Z</time>
      </trkpt>
      <trkpt lat="42.788291" lon="-.632465">
        <ele>2382.140</ele>
        <time>2020-09-06T09:29:44Z</time>
      </trkpt>
      <trkpt lat="42.788298" lon="-.632404">
        <ele>2383.259</ele>
        <time>2020-09-06T09:29:54Z</time>
      </trkpt>
      <trkpt lat="42.788289" lon="-.632469">
        <ele>2384.012</ele>
        <time>2020-09-06T09:30:41Z</time>
      </trkpt>
      <trkpt lat="42.78828" lon="-.632533">
        <ele>2384.575</ele>
        <time>2020-09-06T09:30:49Z</time>
      </trkpt>
      <trkpt lat="42.788298" lon="-.632592">
        <ele>2383.712</ele>
        <time>2020-09-06T09:31:00Z</time>
      </trkpt>
      <trkpt lat="42.788312" lon="-.632651">
        <ele>2382.232</ele>
        <time>2020-09-06T09:31:08Z</time>
      </trkpt>
      <trkpt lat="42.78832" lon="-.632714">
        <ele>2381.105</ele>
        <time>2020-09-06T09:31:17Z</time>
      </trkpt>
      <trkpt lat="42.788276" lon="-.632731">
        <ele>2381.108</ele>
        <time>2020-09-06T09:31:56Z</time>
      </trkpt>
      <trkpt lat="42.78823" lon="-.632719">
        <ele>2381.376</ele>
        <time>2020-09-06T09:32:04Z</time>
      </trkpt>
      <trkpt lat="42.788225" lon="-.632781">
        <ele>2381.827</ele>
        <time>2020-09-06T09:32:16Z</time>
      </trkpt>
      <trkpt lat="42.788186" lon="-.632813">
        <ele>2384.663</ele>
        <time>2020-09-06T09:33:15Z</time>
      </trkpt>
      <trkpt lat="42.78814" lon="-.632817">
        <ele>2386.718</ele>
        <time>2020-09-06T09:33:22Z</time>
      </trkpt>
      <trkpt lat="42.788092" lon="-.632826">
        <ele>2388.676</ele>
        <time>2020-09-06T09:33:40Z</time>
      </trkpt>
      <trkpt lat="42.788047" lon="-.632839">
        <ele>2390.075</ele>
        <time>2020-09-06T09:33:55Z</time>
      </trkpt>
      <trkpt lat="42.788029" lon="-.632782">
        <ele>2392.848</ele>
        <time>2020-09-06T09:34:14Z</time>
      </trkpt>
      <trkpt lat="42.788014" lon="-.632724">
        <ele>2395.351</ele>
        <time>2020-09-06T09:34:59Z</time>
      </trkpt>
      <trkpt lat="42.788003" lon="-.632784">
        <ele>2396.933</ele>
        <time>2020-09-06T09:35:14Z</time>
      </trkpt>
      <trkpt lat="42.787983" lon="-.632844">
        <ele>2398.023</ele>
        <time>2020-09-06T09:35:21Z</time>
      </trkpt>
      <trkpt lat="42.787964" lon="-.632899">
        <ele>2398.715</ele>
        <time>2020-09-06T09:35:33Z</time>
      </trkpt>
      <trkpt lat="42.787938" lon="-.632841">
        <ele>2402.308</ele>
        <time>2020-09-06T09:36:10Z</time>
      </trkpt>
      <trkpt lat="42.787901" lon="-.632801">
        <ele>2404.658</ele>
        <time>2020-09-06T09:36:18Z</time>
      </trkpt>
      <trkpt lat="42.787857" lon="-.632813">
        <ele>2408.639</ele>
        <time>2020-09-06T09:37:38Z</time>
      </trkpt>
      <trkpt lat="42.787814" lon="-.632781">
        <ele>2412.625</ele>
        <time>2020-09-06T09:37:48Z</time>
      </trkpt>
      <trkpt lat="42.787821" lon="-.632843">
        <ele>2416.620</ele>
        <time>2020-09-06T09:38:10Z</time>
      </trkpt>
      <trkpt lat="42.787817" lon="-.632909">
        <ele>2420.658</ele>
        <time>2020-09-06T09:38:18Z</time>
      </trkpt>
      <trkpt lat="42.787806" lon="-.63297">
        <ele>2424.647</ele>
        <time>2020-09-06T09:38:39Z</time>
      </trkpt>
      <trkpt lat="42.787811" lon="-.633036">
        <ele>2427.540</ele>
        <time>2020-09-06T09:38:52Z</time>
      </trkpt>
      <trkpt lat="42.787814" lon="-.633099">
        <ele>2430.213</ele>
        <time>2020-09-06T09:39:19Z</time>
      </trkpt>
      <trkpt lat="42.787859" lon="-.633119">
        <ele>2432.749</ele>
        <time>2020-09-06T09:39:33Z</time>
      </trkpt>
      <trkpt lat="42.7879" lon="-.633149">
        <ele>2435.602</ele>
        <time>2020-09-06T09:39:46Z</time>
      </trkpt>
      <trkpt lat="42.78792" lon="-.633206">
        <ele>2438.522</ele>
        <time>2020-09-06T09:40:39Z</time>
      </trkpt>
      <trkpt lat="42.787918" lon="-.633268">
        <ele>2440.208</ele>
        <time>2020-09-06T09:40:53Z</time>
      </trkpt>
      <trkpt lat="42.787871" lon="-.633256">
        <ele>2441.489</ele>
        <time>2020-09-06T09:41:33Z</time>
      </trkpt>
      <trkpt lat="42.787828" lon="-.63323">
        <ele>2442.410</ele>
        <time>2020-09-06T09:41:38Z</time>
      </trkpt>
      <trkpt lat="42.787789" lon="-.633267">
        <ele>2444.456</ele>
        <time>2020-09-06T09:41:52Z</time>
      </trkpt>
      <trkpt lat="42.787787" lon="-.633329">
        <ele>2446.921</ele>
        <time>2020-09-06T09:42:04Z</time>
      </trkpt>
      <trkpt lat="42.787743" lon="-.633345">
        <ele>2449.259</ele>
        <time>2020-09-06T09:42:24Z</time>
      </trkpt>
      <trkpt lat="42.787785" lon="-.633368">
        <ele>2449.558</ele>
        <time>2020-09-06T09:42:53Z</time>
      </trkpt>
      <trkpt lat="42.787819" lon="-.633411">
        <ele>2449.891</ele>
        <time>2020-09-06T09:43:42Z</time>
      </trkpt>
      <trkpt lat="42.787836" lon="-.63347">
        <ele>2450.074</ele>
        <time>2020-09-06T09:43:51Z</time>
      </trkpt>
      <trkpt lat="42.787781" lon="-.633468">
        <ele>2450.472</ele>
        <time>2020-09-06T09:43:58Z</time>
      </trkpt>
      <trkpt lat="42.787737" lon="-.633444">
        <ele>2451.013</ele>
        <time>2020-09-06T09:44:02Z</time>
      </trkpt>
      <trkpt lat="42.787691" lon="-.633439">
        <ele>2452.114</ele>
        <time>2020-09-06T09:44:08Z</time>
      </trkpt>
      <trkpt lat="42.787654" lon="-.633403">
        <ele>2455.908</ele>
        <time>2020-09-06T09:44:33Z</time>
      </trkpt>
      <trkpt lat="42.787674" lon="-.633458">
        <ele>2459.952</ele>
        <time>2020-09-06T09:44:52Z</time>
      </trkpt>
      <trkpt lat="42.787697" lon="-.633511">
        <ele>2463.143</ele>
        <time>2020-09-06T09:45:09Z</time>
      </trkpt>
      <trkpt lat="42.787724" lon="-.633567">
        <ele>2465.839</ele>
        <time>2020-09-06T09:45:35Z</time>
      </trkpt>
      <trkpt lat="42.787758" lon="-.633607">
        <ele>2469.034</ele>
        <time>2020-09-06T09:46:21Z</time>
      </trkpt>
      <trkpt lat="42.787805" lon="-.633617">
        <ele>2471.022</ele>
        <time>2020-09-06T09:46:25Z</time>
      </trkpt>
      <trkpt lat="42.787849" lon="-.633603">
        <ele>2472.431</ele>
        <time>2020-09-06T09:46:33Z</time>
      </trkpt>
      <trkpt lat="42.787821" lon="-.633654">
        <ele>2473.874</ele>
        <time>2020-09-06T09:46:44Z</time>
      </trkpt>
      <trkpt lat="42.787824" lon="-.633716">
        <ele>2475.077</ele>
        <time>2020-09-06T09:46:50Z</time>
      </trkpt>
      <trkpt lat="42.787848" lon="-.633776">
        <ele>2476.248</ele>
        <time>2020-09-06T09:46:57Z</time>
      </trkpt>
      <trkpt lat="42.787888" lon="-.633805">
        <ele>2477.261</ele>
        <time>2020-09-06T09:47:02Z</time>
      </trkpt>
      <trkpt lat="42.787935" lon="-.633835">
        <ele>2478.217</ele>
        <time>2020-09-06T09:47:07Z</time>
      </trkpt>
      <trkpt lat="42.787969" lon="-.633881">
        <ele>2479.508</ele>
        <time>2020-09-06T09:47:16Z</time>
      </trkpt>
      <trkpt lat="42.788016" lon="-.63389">
        <ele>2483.259</ele>
        <time>2020-09-06T09:49:00Z</time>
      </trkpt>
      <trkpt lat="42.78806" lon="-.633906">
        <ele>2485.680</ele>
        <time>2020-09-06T09:49:07Z</time>
      </trkpt>
      <trkpt lat="42.788081" lon="-.633962">
        <ele>2488.386</ele>
        <time>2020-09-06T09:49:21Z</time>
      </trkpt>
      <trkpt lat="42.788092" lon="-.634022">
        <ele>2491.041</ele>
        <time>2020-09-06T09:49:32Z</time>
      </trkpt>
      <trkpt lat="42.788106" lon="-.63408">
        <ele>2493.619</ele>
        <time>2020-09-06T09:49:52Z</time>
      </trkpt>
      <trkpt lat="42.788153" lon="-.634089">
        <ele>2495.548</ele>
        <time>2020-09-06T09:49:58Z</time>
      </trkpt>
      <trkpt lat="42.788198" lon="-.634097">
        <ele>2497.561</ele>
        <time>2020-09-06T09:50:07Z</time>
      </trkpt>
      <trkpt lat="42.788234" lon="-.634136">
        <ele>2502.994</ele>
        <time>2020-09-06T09:50:42Z</time>
      </trkpt>
      <trkpt lat="42.788234" lon="-.634136">
        <ele>2502.997</ele>
        <time>2020-09-06T09:50:42Z</time>
      </trkpt>
      <trkpt lat="42.788282" lon="-.634156">
        <ele>2505.123</ele>
        <time>2020-09-06T09:50:51Z</time>
      </trkpt>
      <trkpt lat="42.788316" lon="-.634199">
        <ele>2508.025</ele>
        <time>2020-09-06T09:51:18Z</time>
      </trkpt>
      <trkpt lat="42.788313" lon="-.63426">
        <ele>2511.208</ele>
        <time>2020-09-06T09:51:44Z</time>
      </trkpt>
      <trkpt lat="42.788315" lon="-.634323">
        <ele>2514.834</ele>
        <time>2020-09-06T09:52:14Z</time>
      </trkpt>
      <trkpt lat="42.788359" lon="-.634336">
        <ele>2517.325</ele>
        <time>2020-09-06T09:52:27Z</time>
      </trkpt>
      <trkpt lat="42.7884" lon="-.634364">
        <ele>2519.471</ele>
        <time>2020-09-06T09:53:08Z</time>
      </trkpt>
      <trkpt lat="42.788459" lon="-.634329">
        <ele>2521.316</ele>
        <time>2020-09-06T09:53:31Z</time>
      </trkpt>
      <trkpt lat="42.788414" lon="-.634342">
        <ele>2523.664</ele>
        <time>2020-09-06T09:54:09Z</time>
      </trkpt>
      <trkpt lat="42.788453" lon="-.63431">
        <ele>2524.483</ele>
        <time>2020-09-06T09:54:27Z</time>
      </trkpt>
      <trkpt lat="42.788446" lon="-.634372">
        <ele>2526.886</ele>
        <time>2020-09-06T09:55:33Z</time>
      </trkpt>
      <trkpt lat="42.788446" lon="-.634372">
        <ele>2526.839</ele>
        <time>2020-09-06T09:55:33Z</time>
      </trkpt>
      <trkpt lat="42.788412" lon="-.634426">
        <ele>2528.278</ele>
        <time>2020-09-06T09:55:39Z</time>
      </trkpt>
      <trkpt lat="42.788379" lon="-.634471">
        <ele>2529.833</ele>
        <time>2020-09-06T09:55:45Z</time>
      </trkpt>
      <trkpt lat="42.788389" lon="-.634401">
        <ele>2531.626</ele>
        <time>2020-09-06T09:55:50Z</time>
      </trkpt>
      <trkpt lat="42.788397" lon="-.634336">
        <ele>2533.208</ele>
        <time>2020-09-06T09:55:54Z</time>
      </trkpt>
      <trkpt lat="42.788428" lon="-.634382">
        <ele>2533.392</ele>
        <time>2020-09-06T09:56:06Z</time>
      </trkpt>
      <trkpt lat="42.788478" lon="-.634392">
        <ele>2534.053</ele>
        <time>2020-09-06T09:56:45Z</time>
      </trkpt>
      <trkpt lat="42.788522" lon="-.634414">
        <ele>2534.649</ele>
        <time>2020-09-06T09:56:50Z</time>
      </trkpt>
      <trkpt lat="42.788544" lon="-.634468">
        <ele>2535.074</ele>
        <time>2020-09-06T09:57:29Z</time>
      </trkpt>
      <trkpt lat="42.788595" lon="-.634497">
        <ele>2536.762</ele>
        <time>2020-09-06T09:57:35Z</time>
      </trkpt>
      <trkpt lat="42.788632" lon="-.634535">
        <ele>2537.821</ele>
        <time>2020-09-06T09:57:42Z</time>
      </trkpt>
      <trkpt lat="42.788597" lon="-.634576">
        <ele>2538.624</ele>
        <time>2020-09-06T09:57:51Z</time>
      </trkpt>
      <trkpt lat="42.788584" lon="-.634638">
        <ele>2539.587</ele>
        <time>2020-09-06T09:58:22Z</time>
      </trkpt>
      <trkpt lat="42.788614" lon="-.634688">
        <ele>2540.212</ele>
        <time>2020-09-06T09:58:29Z</time>
      </trkpt>
      <trkpt lat="42.788626" lon="-.634748">
        <ele>2543.232</ele>
        <time>2020-09-06T09:59:03Z</time>
      </trkpt>
      <trkpt lat="42.788671" lon="-.634755">
        <ele>2545.305</ele>
        <time>2020-09-06T09:59:07Z</time>
      </trkpt>
      <trkpt lat="42.788716" lon="-.634741">
        <ele>2546.808</ele>
        <time>2020-09-06T09:59:26Z</time>
      </trkpt>
      <trkpt lat="42.788697" lon="-.634798">
        <ele>2550.066</ele>
        <time>2020-09-06T10:02:46Z</time>
      </trkpt>
      <trkpt lat="42.788695" lon="-.63486">
        <ele>2552.317</ele>
        <time>2020-09-06T10:02:54Z</time>
      </trkpt>
      <trkpt lat="42.788664" lon="-.634906">
        <ele>2554.653</ele>
        <time>2020-09-06T10:03:23Z</time>
      </trkpt>
      <trkpt lat="42.788656" lon="-.634967">
        <ele>2556.258</ele>
        <time>2020-09-06T10:03:28Z</time>
      </trkpt>
      <trkpt lat="42.788657" lon="-.63504">
        <ele>2558.076</ele>
        <time>2020-09-06T10:03:35Z</time>
      </trkpt>
      <trkpt lat="42.788702" lon="-.635066">
        <ele>2559.595</ele>
        <time>2020-09-06T10:03:44Z</time>
      </trkpt>
      <trkpt lat="42.788749" lon="-.635057">
        <ele>2560.638</ele>
        <time>2020-09-06T10:03:51Z</time>
      </trkpt>
      <trkpt lat="42.788785" lon="-.635096">
        <ele>2561.771</ele>
        <time>2020-09-06T10:04:03Z</time>
      </trkpt>
      <trkpt lat="42.788779" lon="-.63516">
        <ele>2563.668</ele>
        <time>2020-09-06T10:04:34Z</time>
      </trkpt>
      <trkpt lat="42.78877" lon="-.635221">
        <ele>2565.042</ele>
        <time>2020-09-06T10:04:51Z</time>
      </trkpt>
      <trkpt lat="42.788796" lon="-.635273">
        <ele>2567.126</ele>
        <time>2020-09-06T10:05:01Z</time>
      </trkpt>
      <trkpt lat="42.788832" lon="-.63532">
        <ele>2568.708</ele>
        <time>2020-09-06T10:05:08Z</time>
      </trkpt>
      <trkpt lat="42.788816" lon="-.635377">
        <ele>2570.451</ele>
        <time>2020-09-06T10:05:31Z</time>
      </trkpt>
      <trkpt lat="42.788778" lon="-.635419">
        <ele>2572.552</ele>
        <time>2020-09-06T10:05:40Z</time>
      </trkpt>
      <trkpt lat="42.788739" lon="-.635453">
        <ele>2574.728</ele>
        <time>2020-09-06T10:05:50Z</time>
      </trkpt>
      <trkpt lat="42.78875" lon="-.635515">
        <ele>2577.343</ele>
        <time>2020-09-06T10:06:09Z</time>
      </trkpt>
      <trkpt lat="42.788795" lon="-.635533">
        <ele>2579.551</ele>
        <time>2020-09-06T10:06:16Z</time>
      </trkpt>
      <trkpt lat="42.788837" lon="-.635555">
        <ele>2581.240</ele>
        <time>2020-09-06T10:06:24Z</time>
      </trkpt>
      <trkpt lat="42.788793" lon="-.635571">
        <ele>2582.223</ele>
        <time>2020-09-06T10:06:36Z</time>
      </trkpt>
      <trkpt lat="42.788777" lon="-.635629">
        <ele>2583.076</ele>
        <time>2020-09-06T10:06:52Z</time>
      </trkpt>
      <trkpt lat="42.788778" lon="-.635691">
        <ele>2585.536</ele>
        <time>2020-09-06T10:07:06Z</time>
      </trkpt>
      <trkpt lat="42.788769" lon="-.635762">
        <ele>2589.017</ele>
        <time>2020-09-06T10:08:00Z</time>
      </trkpt>
      <trkpt lat="42.788769" lon="-.635827">
        <ele>2591.118</ele>
        <time>2020-09-06T10:08:07Z</time>
      </trkpt>
      <trkpt lat="42.788745" lon="-.635879">
        <ele>2593.708</ele>
        <time>2020-09-06T10:08:22Z</time>
      </trkpt>
      <trkpt lat="42.788773" lon="-.63593">
        <ele>2595.868</ele>
        <time>2020-09-06T10:08:34Z</time>
      </trkpt>
      <trkpt lat="42.788804" lon="-.635987">
        <ele>2597.319</ele>
        <time>2020-09-06T10:08:41Z</time>
      </trkpt>
      <trkpt lat="42.788777" lon="-.636038">
        <ele>2599.225</ele>
        <time>2020-09-06T10:09:05Z</time>
      </trkpt>
      <trkpt lat="42.788754" lon="-.636091">
        <ele>2600.950</ele>
        <time>2020-09-06T10:09:12Z</time>
      </trkpt>
      <trkpt lat="42.788715" lon="-.636127">
        <ele>2602.638</ele>
        <time>2020-09-06T10:09:22Z</time>
      </trkpt>
      <trkpt lat="42.788706" lon="-.636189">
        <ele>2604.687</ele>
        <time>2020-09-06T10:09:34Z</time>
      </trkpt>
      <trkpt lat="42.788693" lon="-.636256">
        <ele>2606.640</ele>
        <time>2020-09-06T10:09:41Z</time>
      </trkpt>
      <trkpt lat="42.788724" lon="-.636301">
        <ele>2608.733</ele>
        <time>2020-09-06T10:10:08Z</time>
      </trkpt>
      <trkpt lat="42.788768" lon="-.636319">
        <ele>2610.372</ele>
        <time>2020-09-06T10:10:14Z</time>
      </trkpt>
      <trkpt lat="42.788785" lon="-.636378">
        <ele>2611.713</ele>
        <time>2020-09-06T10:10:21Z</time>
      </trkpt>
      <trkpt lat="42.788789" lon="-.636441">
        <ele>2612.814</ele>
        <time>2020-09-06T10:10:29Z</time>
      </trkpt>
      <trkpt lat="42.788798" lon="-.636502">
        <ele>2615.108</ele>
        <time>2020-09-06T10:11:22Z</time>
      </trkpt>
      <trkpt lat="42.788777" lon="-.63656">
        <ele>2617.122</ele>
        <time>2020-09-06T10:11:42Z</time>
      </trkpt>
      <trkpt lat="42.788803" lon="-.636611">
        <ele>2618.323</ele>
        <time>2020-09-06T10:11:50Z</time>
      </trkpt>
      <trkpt lat="42.788779" lon="-.636663">
        <ele>2622.339</ele>
        <time>2020-09-06T10:13:05Z</time>
      </trkpt>
      <trkpt lat="42.788742" lon="-.6367">
        <ele>2625.364</ele>
        <time>2020-09-06T10:13:19Z</time>
      </trkpt>
      <trkpt lat="42.788699" lon="-.636726">
        <ele>2627.652</ele>
        <time>2020-09-06T10:13:43Z</time>
      </trkpt>
      <trkpt lat="42.788667" lon="-.636775">
        <ele>2629.271</ele>
        <time>2020-09-06T10:13:49Z</time>
      </trkpt>
      <trkpt lat="42.78863" lon="-.636817">
        <ele>2630.944</ele>
        <time>2020-09-06T10:14:54Z</time>
      </trkpt>
      <trkpt lat="42.788587" lon="-.636839">
        <ele>2633.347</ele>
        <time>2020-09-06T10:15:19Z</time>
      </trkpt>
      <trkpt lat="42.788544" lon="-.636867">
        <ele>2636.064</ele>
        <time>2020-09-06T10:15:26Z</time>
      </trkpt>
      <trkpt lat="42.788497" lon="-.636885">
        <ele>2638.206</ele>
        <time>2020-09-06T10:15:39Z</time>
      </trkpt>
      <trkpt lat="42.788464" lon="-.636843">
        <ele>2640.516</ele>
        <time>2020-09-06T10:15:48Z</time>
      </trkpt>
      <trkpt lat="42.788423" lon="-.636873">
        <ele>2643.108</ele>
        <time>2020-09-06T10:16:03Z</time>
      </trkpt>
      <trkpt lat="42.788423" lon="-.636873">
        <ele>2643.181</ele>
        <time>2020-09-06T10:16:03Z</time>
      </trkpt>
      <trkpt lat="42.788377" lon="-.636875">
        <ele>2644.232</ele>
        <time>2020-09-06T10:16:10Z</time>
      </trkpt>
      <trkpt lat="42.78833" lon="-.63686">
        <ele>2645.038</ele>
        <time>2020-09-06T10:16:18Z</time>
      </trkpt>
      <trkpt lat="42.788305" lon="-.636914">
        <ele>2645.833</ele>
        <time>2020-09-06T10:16:30Z</time>
      </trkpt>
      <trkpt lat="42.788323" lon="-.636973">
        <ele>2646.461</ele>
        <time>2020-09-06T10:16:35Z</time>
      </trkpt>
      <trkpt lat="42.788361" lon="-.637017">
        <ele>2647.030</ele>
        <time>2020-09-06T10:16:40Z</time>
      </trkpt>
      <trkpt lat="42.788394" lon="-.637063">
        <ele>2647.743</ele>
        <time>2020-09-06T10:16:48Z</time>
      </trkpt>
      <trkpt lat="42.788411" lon="-.637137">
        <ele>2650.076</ele>
        <time>2020-09-06T10:20:14Z</time>
      </trkpt>
      <trkpt lat="42.788363" lon="-.637173">
        <ele>2651.553</ele>
        <time>2020-09-06T10:20:15Z</time>
      </trkpt>
      <trkpt lat="42.788397" lon="-.637132">
        <ele>2652.304</ele>
        <time>2020-09-06T10:20:20Z</time>
      </trkpt>
      <trkpt lat="42.788425" lon="-.637079">
        <ele>2652.814</ele>
        <time>2020-09-06T10:20:27Z</time>
      </trkpt>
      <trkpt lat="42.788424" lon="-.637188">
        <ele>2652.708</ele>
        <time>2020-09-06T10:20:36Z</time>
      </trkpt>
      <trkpt lat="42.788447" lon="-.63724">
        <ele>2652.430</ele>
        <time>2020-09-06T10:20:41Z</time>
      </trkpt>
      <trkpt lat="42.788421" lon="-.637136">
        <ele>2652.211</ele>
        <time>2020-09-06T10:20:45Z</time>
      </trkpt>
      <trkpt lat="42.788424" lon="-.637055">
        <ele>2651.767</ele>
        <time>2020-09-06T10:20:55Z</time>
      </trkpt>
      <trkpt lat="42.788385" lon="-.6371">
        <ele>2651.962</ele>
        <time>2020-09-06T10:21:36Z</time>
      </trkpt>
      <trkpt lat="42.788358" lon="-.637153">
        <ele>2652.090</ele>
        <time>2020-09-06T10:21:40Z</time>
      </trkpt>
      <trkpt lat="42.788348" lon="-.637222">
        <ele>2651.629</ele>
        <time>2020-09-06T10:21:45Z</time>
      </trkpt>
      <trkpt lat="42.78832" lon="-.637272">
        <ele>2651.412</ele>
        <time>2020-09-06T10:21:52Z</time>
      </trkpt>
      <trkpt lat="42.788319" lon="-.637335">
        <ele>2651.355</ele>
        <time>2020-09-06T10:21:59Z</time>
      </trkpt>
      <trkpt lat="42.788308" lon="-.637395">
        <ele>2649.986</ele>
        <time>2020-09-06T10:22:18Z</time>
      </trkpt>
      <trkpt lat="42.788295" lon="-.637454">
        <ele>2649.060</ele>
        <time>2020-09-06T10:22:25Z</time>
      </trkpt>
      <trkpt lat="42.788282" lon="-.637513">
        <ele>2648.026</ele>
        <time>2020-09-06T10:22:41Z</time>
      </trkpt>
      <trkpt lat="42.788285" lon="-.637583">
        <ele>2647.408</ele>
        <time>2020-09-06T10:22:46Z</time>
      </trkpt>
      <trkpt lat="42.788305" lon="-.637639">
        <ele>2647.053</ele>
        <time>2020-09-06T10:22:58Z</time>
      </trkpt>
      <trkpt lat="42.788309" lon="-.637705">
        <ele>2646.554</ele>
        <time>2020-09-06T10:23:10Z</time>
      </trkpt>
      <trkpt lat="42.788298" lon="-.637768">
        <ele>2646.090</ele>
        <time>2020-09-06T10:23:55Z</time>
      </trkpt>
      <trkpt lat="42.788255" lon="-.637795">
        <ele>2645.775</ele>
        <time>2020-09-06T10:24:02Z</time>
      </trkpt>
      <trkpt lat="42.78827" lon="-.637854">
        <ele>2645.563</ele>
        <time>2020-09-06T10:24:23Z</time>
      </trkpt>
      <trkpt lat="42.788255" lon="-.637913">
        <ele>2644.692</ele>
        <time>2020-09-06T10:24:42Z</time>
      </trkpt>
      <trkpt lat="42.788252" lon="-.637975">
        <ele>2644.185</ele>
        <time>2020-09-06T10:24:51Z</time>
      </trkpt>
      <trkpt lat="42.78827" lon="-.638034">
        <ele>2644.188</ele>
        <time>2020-09-06T10:25:06Z</time>
      </trkpt>
      <trkpt lat="42.788244" lon="-.638092">
        <ele>2644.113</ele>
        <time>2020-09-06T10:25:13Z</time>
      </trkpt>
      <trkpt lat="42.788227" lon="-.638154">
        <ele>2644.843</ele>
        <time>2020-09-06T10:25:44Z</time>
      </trkpt>
      <trkpt lat="42.788231" lon="-.638218">
        <ele>2645.307</ele>
        <time>2020-09-06T10:25:50Z</time>
      </trkpt>
      <trkpt lat="42.788241" lon="-.638279">
        <ele>2645.608</ele>
        <time>2020-09-06T10:26:07Z</time>
      </trkpt>
      <trkpt lat="42.788254" lon="-.638342">
        <ele>2645.626</ele>
        <time>2020-09-06T10:26:13Z</time>
      </trkpt>
      <trkpt lat="42.78826" lon="-.638403">
        <ele>2645.697</ele>
        <time>2020-09-06T10:26:21Z</time>
      </trkpt>
      <trkpt lat="42.788265" lon="-.638467">
        <ele>2646.193</ele>
        <time>2020-09-06T10:26:59Z</time>
      </trkpt>
      <trkpt lat="42.788283" lon="-.638524">
        <ele>2646.488</ele>
        <time>2020-09-06T10:27:06Z</time>
      </trkpt>
      <trkpt lat="42.788314" lon="-.63858">
        <ele>2647.036</ele>
        <time>2020-09-06T10:27:23Z</time>
      </trkpt>
      <trkpt lat="42.788337" lon="-.638635">
        <ele>2647.435</ele>
        <time>2020-09-06T10:27:30Z</time>
      </trkpt>
      <trkpt lat="42.788366" lon="-.638686">
        <ele>2647.988</ele>
        <time>2020-09-06T10:27:48Z</time>
      </trkpt>
      <trkpt lat="42.78841" lon="-.638705">
        <ele>2648.251</ele>
        <time>2020-09-06T10:27:55Z</time>
      </trkpt>
      <trkpt lat="42.788406" lon="-.638767">
        <ele>2648.467</ele>
        <time>2020-09-06T10:28:07Z</time>
      </trkpt>
      <trkpt lat="42.788418" lon="-.638829">
        <ele>2649.881</ele>
        <time>2020-09-06T10:28:26Z</time>
      </trkpt>
      <trkpt lat="42.788419" lon="-.638895">
        <ele>2649.619</ele>
        <time>2020-09-06T10:29:42Z</time>
      </trkpt>
      <trkpt lat="42.788416" lon="-.638963">
        <ele>2649.508</ele>
        <time>2020-09-06T10:29:47Z</time>
      </trkpt>
      <trkpt lat="42.788415" lon="-.639026">
        <ele>2649.411</ele>
        <time>2020-09-06T10:30:01Z</time>
      </trkpt>
      <trkpt lat="42.788396" lon="-.639091">
        <ele>2649.432</ele>
        <time>2020-09-06T10:30:18Z</time>
      </trkpt>
      <trkpt lat="42.788405" lon="-.639152">
        <ele>2649.498</ele>
        <time>2020-09-06T10:30:38Z</time>
      </trkpt>
      <trkpt lat="42.788407" lon="-.639216">
        <ele>2649.913</ele>
        <time>2020-09-06T10:31:11Z</time>
      </trkpt>
      <trkpt lat="42.788419" lon="-.639276">
        <ele>2650.261</ele>
        <time>2020-09-06T10:31:25Z</time>
      </trkpt>
      <trkpt lat="42.788404" lon="-.639336">
        <ele>2650.390</ele>
        <time>2020-09-06T10:31:57Z</time>
      </trkpt>
      <trkpt lat="42.788419" lon="-.639396">
        <ele>2650.333</ele>
        <time>2020-09-06T10:32:05Z</time>
      </trkpt>
      <trkpt lat="42.788402" lon="-.639456">
        <ele>2650.666</ele>
        <time>2020-09-06T10:32:21Z</time>
      </trkpt>
      <trkpt lat="42.788399" lon="-.639523">
        <ele>2650.922</ele>
        <time>2020-09-06T10:32:27Z</time>
      </trkpt>
      <trkpt lat="42.788415" lon="-.639581">
        <ele>2651.162</ele>
        <time>2020-09-06T10:32:43Z</time>
      </trkpt>
      <trkpt lat="42.788402" lon="-.639643">
        <ele>2652.208</ele>
        <time>2020-09-06T10:32:53Z</time>
      </trkpt>
      <trkpt lat="42.788391" lon="-.639704">
        <ele>2652.808</ele>
        <time>2020-09-06T10:33:05Z</time>
      </trkpt>
      <trkpt lat="42.788396" lon="-.639771">
        <ele>2653.387</ele>
        <time>2020-09-06T10:33:11Z</time>
      </trkpt>
      <trkpt lat="42.788407" lon="-.639832">
        <ele>2653.648</ele>
        <time>2020-09-06T10:33:19Z</time>
      </trkpt>
      <trkpt lat="42.788442" lon="-.639877">
        <ele>2654.734</ele>
        <time>2020-09-06T10:33:41Z</time>
      </trkpt>
      <trkpt lat="42.788457" lon="-.639935">
        <ele>2655.439</ele>
        <time>2020-09-06T10:34:00Z</time>
      </trkpt>
      <trkpt lat="42.78849" lon="-.63998">
        <ele>2657.367</ele>
        <time>2020-09-06T10:39:57Z</time>
      </trkpt>
      <trkpt lat="42.788464" lon="-.639929">
        <ele>2658.736</ele>
        <time>2020-09-06T10:43:00Z</time>
      </trkpt>
      <trkpt lat="42.788469" lon="-.63999">
        <ele>2660.199</ele>
        <time>2020-09-06T10:45:42Z</time>
      </trkpt>
      <trkpt lat="42.788467" lon="-.640057">
        <ele>2661.192</ele>
        <time>2020-09-06T10:46:05Z</time>
      </trkpt>
      <trkpt lat="42.788446" lon="-.640116">
        <ele>2661.774</ele>
        <time>2020-09-06T10:46:09Z</time>
      </trkpt>
      <trkpt lat="42.788412" lon="-.640158">
        <ele>2662.156</ele>
        <time>2020-09-06T10:46:17Z</time>
      </trkpt>
      <trkpt lat="42.788411" lon="-.640227">
        <ele>2662.021</ele>
        <time>2020-09-06T10:46:34Z</time>
      </trkpt>
      <trkpt lat="42.788372" lon="-.640258">
        <ele>2662.008</ele>
        <time>2020-09-06T10:46:40Z</time>
      </trkpt>
      <trkpt lat="42.788361" lon="-.640325">
        <ele>2661.872</ele>
        <time>2020-09-06T10:47:38Z</time>
      </trkpt>
      <trkpt lat="42.788327" lon="-.640369">
        <ele>2661.733</ele>
        <time>2020-09-06T10:47:43Z</time>
      </trkpt>
      <trkpt lat="42.788282" lon="-.640375">
        <ele>2661.699</ele>
        <time>2020-09-06T10:47:52Z</time>
      </trkpt>
      <trkpt lat="42.788241" lon="-.640419">
        <ele>2661.484</ele>
        <time>2020-09-06T10:47:57Z</time>
      </trkpt>
      <trkpt lat="42.788204" lon="-.640456">
        <ele>2660.372</ele>
        <time>2020-09-06T10:48:44Z</time>
      </trkpt>
      <trkpt lat="42.788171" lon="-.640512">
        <ele>2659.621</ele>
        <time>2020-09-06T10:48:50Z</time>
      </trkpt>
      <trkpt lat="42.788148" lon="-.640565">
        <ele>2659.294</ele>
        <time>2020-09-06T10:49:06Z</time>
      </trkpt>
      <trkpt lat="42.788133" lon="-.640627">
        <ele>2657.037</ele>
        <time>2020-09-06T10:49:10Z</time>
      </trkpt>
      <trkpt lat="42.788119" lon="-.640688">
        <ele>2655.789</ele>
        <time>2020-09-06T10:49:15Z</time>
      </trkpt>
      <trkpt lat="42.788095" lon="-.640741">
        <ele>2653.706</ele>
        <time>2020-09-06T10:49:25Z</time>
      </trkpt>
      <trkpt lat="42.788084" lon="-.640806">
        <ele>2652.526</ele>
        <time>2020-09-06T10:49:29Z</time>
      </trkpt>
      <trkpt lat="42.788084" lon="-.640871">
        <ele>2650.608</ele>
        <time>2020-09-06T10:49:35Z</time>
      </trkpt>
      <trkpt lat="42.78809" lon="-.640936">
        <ele>2648.863</ele>
        <time>2020-09-06T10:49:38Z</time>
      </trkpt>
      <trkpt lat="42.788097" lon="-.640997">
        <ele>2647.254</ele>
        <time>2020-09-06T10:49:41Z</time>
      </trkpt>
      <trkpt lat="42.788105" lon="-.641058">
        <ele>2645.730</ele>
        <time>2020-09-06T10:49:45Z</time>
      </trkpt>
      <trkpt lat="42.788094" lon="-.641117">
        <ele>2644.885</ele>
        <time>2020-09-06T10:49:51Z</time>
      </trkpt>
      <trkpt lat="42.7881" lon="-.641178">
        <ele>2642.623</ele>
        <time>2020-09-06T10:50:02Z</time>
      </trkpt>
      <trkpt lat="42.788083" lon="-.641239">
        <ele>2641.322</ele>
        <time>2020-09-06T10:50:11Z</time>
      </trkpt>
      <trkpt lat="42.788089" lon="-.64131">
        <ele>2638.775</ele>
        <time>2020-09-06T10:50:20Z</time>
      </trkpt>
      <trkpt lat="42.788083" lon="-.641373">
        <ele>2636.568</ele>
        <time>2020-09-06T10:50:24Z</time>
      </trkpt>
      <trkpt lat="42.788086" lon="-.641435">
        <ele>2635.214</ele>
        <time>2020-09-06T10:50:29Z</time>
      </trkpt>
      <trkpt lat="42.788098" lon="-.641504">
        <ele>2633.154</ele>
        <time>2020-09-06T10:50:37Z</time>
      </trkpt>
      <trkpt lat="42.788103" lon="-.641568">
        <ele>2631.709</ele>
        <time>2020-09-06T10:50:41Z</time>
      </trkpt>
      <trkpt lat="42.788092" lon="-.641628">
        <ele>2630.908</ele>
        <time>2020-09-06T10:50:49Z</time>
      </trkpt>
      <trkpt lat="42.788079" lon="-.641691">
        <ele>2629.456</ele>
        <time>2020-09-06T10:51:00Z</time>
      </trkpt>
      <trkpt lat="42.788055" lon="-.641746">
        <ele>2628.557</ele>
        <time>2020-09-06T10:51:06Z</time>
      </trkpt>
      <trkpt lat="42.788045" lon="-.641813">
        <ele>2627.173</ele>
        <time>2020-09-06T10:51:12Z</time>
      </trkpt>
      <trkpt lat="42.788027" lon="-.641871">
        <ele>2626.328</ele>
        <time>2020-09-06T10:51:21Z</time>
      </trkpt>
      <trkpt lat="42.788029" lon="-.641938">
        <ele>2624.766</ele>
        <time>2020-09-06T10:51:31Z</time>
      </trkpt>
      <trkpt lat="42.788029" lon="-.642">
        <ele>2623.765</ele>
        <time>2020-09-06T10:51:41Z</time>
      </trkpt>
      <trkpt lat="42.788027" lon="-.642065">
        <ele>2622.198</ele>
        <time>2020-09-06T10:51:56Z</time>
      </trkpt>
      <trkpt lat="42.788005" lon="-.642122">
        <ele>2621.291</ele>
        <time>2020-09-06T10:52:05Z</time>
      </trkpt>
      <trkpt lat="42.788016" lon="-.642182">
        <ele>2619.437</ele>
        <time>2020-09-06T10:52:22Z</time>
      </trkpt>
      <trkpt lat="42.788008" lon="-.642243">
        <ele>2618.249</ele>
        <time>2020-09-06T10:52:25Z</time>
      </trkpt>
      <trkpt lat="42.787964" lon="-.64223">
        <ele>2616.913</ele>
        <time>2020-09-06T10:53:23Z</time>
      </trkpt>
      <trkpt lat="42.787917" lon="-.642233">
        <ele>2616.008</ele>
        <time>2020-09-06T10:53:27Z</time>
      </trkpt>
      <trkpt lat="42.78787" lon="-.642228">
        <ele>2615.548</ele>
        <time>2020-09-06T10:53:34Z</time>
      </trkpt>
      <trkpt lat="42.787861" lon="-.642291">
        <ele>2613.969</ele>
        <time>2020-09-06T10:53:46Z</time>
      </trkpt>
      <trkpt lat="42.787816" lon="-.64231">
        <ele>2612.895</ele>
        <time>2020-09-06T10:53:51Z</time>
      </trkpt>
      <trkpt lat="42.787769" lon="-.642311">
        <ele>2612.280</ele>
        <time>2020-09-06T10:53:57Z</time>
      </trkpt>
      <trkpt lat="42.787721" lon="-.642314">
        <ele>2609.468</ele>
        <time>2020-09-06T10:54:17Z</time>
      </trkpt>
      <trkpt lat="42.787683" lon="-.642348">
        <ele>2607.797</ele>
        <time>2020-09-06T10:54:23Z</time>
      </trkpt>
      <trkpt lat="42.787629" lon="-.642354">
        <ele>2605.550</ele>
        <time>2020-09-06T10:54:47Z</time>
      </trkpt>
      <trkpt lat="42.787613" lon="-.642412">
        <ele>2604.233</ele>
        <time>2020-09-06T10:54:52Z</time>
      </trkpt>
      <trkpt lat="42.787609" lon="-.642477">
        <ele>2602.043</ele>
        <time>2020-09-06T10:55:10Z</time>
      </trkpt>
      <trkpt lat="42.787631" lon="-.642532">
        <ele>2598.064</ele>
        <time>2020-09-06T10:55:48Z</time>
      </trkpt>
      <trkpt lat="42.787648" lon="-.64259">
        <ele>2595.610</ele>
        <time>2020-09-06T10:55:58Z</time>
      </trkpt>
      <trkpt lat="42.787636" lon="-.642657">
        <ele>2593.508</ele>
        <time>2020-09-06T10:56:02Z</time>
      </trkpt>
      <trkpt lat="42.787607" lon="-.642711">
        <ele>2592.319</ele>
        <time>2020-09-06T10:56:06Z</time>
      </trkpt>
      <trkpt lat="42.78758" lon="-.642767">
        <ele>2590.230</ele>
        <time>2020-09-06T10:56:16Z</time>
      </trkpt>
      <trkpt lat="42.787566" lon="-.642831">
        <ele>2588.126</ele>
        <time>2020-09-06T10:56:20Z</time>
      </trkpt>
      <trkpt lat="42.787552" lon="-.642892">
        <ele>2586.991</ele>
        <time>2020-09-06T10:56:26Z</time>
      </trkpt>
      <trkpt lat="42.787554" lon="-.642957">
        <ele>2585.069</ele>
        <time>2020-09-06T10:56:35Z</time>
      </trkpt>
      <trkpt lat="42.787558" lon="-.643032">
        <ele>2583.278</ele>
        <time>2020-09-06T10:56:39Z</time>
      </trkpt>
      <trkpt lat="42.787571" lon="-.643092">
        <ele>2581.851</ele>
        <time>2020-09-06T10:56:44Z</time>
      </trkpt>
      <trkpt lat="42.787574" lon="-.643158">
        <ele>2578.364</ele>
        <time>2020-09-06T10:57:01Z</time>
      </trkpt>
      <trkpt lat="42.787581" lon="-.643221">
        <ele>2576.296</ele>
        <time>2020-09-06T10:57:09Z</time>
      </trkpt>
      <trkpt lat="42.787571" lon="-.643282">
        <ele>2574.131</ele>
        <time>2020-09-06T10:57:30Z</time>
      </trkpt>
      <trkpt lat="42.787554" lon="-.64334">
        <ele>2572.824</ele>
        <time>2020-09-06T10:57:38Z</time>
      </trkpt>
      <trkpt lat="42.787549" lon="-.643405">
        <ele>2571.908</ele>
        <time>2020-09-06T10:57:50Z</time>
      </trkpt>
      <trkpt lat="42.787551" lon="-.643467">
        <ele>2571.464</ele>
        <time>2020-09-06T10:57:56Z</time>
      </trkpt>
      <trkpt lat="42.787534" lon="-.643525">
        <ele>2570.585</ele>
        <time>2020-09-06T10:58:07Z</time>
      </trkpt>
      <trkpt lat="42.787534" lon="-.643525">
        <ele>2570.521</ele>
        <time>2020-09-06T10:58:07Z</time>
      </trkpt>
      <trkpt lat="42.787537" lon="-.64359">
        <ele>2570.396</ele>
        <time>2020-09-06T10:58:13Z</time>
      </trkpt>
      <trkpt lat="42.787517" lon="-.643648">
        <ele>2569.634</ele>
        <time>2020-09-06T10:58:34Z</time>
      </trkpt>
      <trkpt lat="42.7875" lon="-.643707">
        <ele>2569.123</ele>
        <time>2020-09-06T10:58:44Z</time>
      </trkpt>
      <trkpt lat="42.787458" lon="-.643736">
        <ele>2569.366</ele>
        <time>2020-09-06T10:58:55Z</time>
      </trkpt>
      <trkpt lat="42.787412" lon="-.643744">
        <ele>2569.449</ele>
        <time>2020-09-06T10:59:04Z</time>
      </trkpt>
      <trkpt lat="42.787366" lon="-.643732">
        <ele>2569.352</ele>
        <time>2020-09-06T10:59:16Z</time>
      </trkpt>
      <trkpt lat="42.787322" lon="-.643713">
        <ele>2569.253</ele>
        <time>2020-09-06T10:59:23Z</time>
      </trkpt>
      <trkpt lat="42.787274" lon="-.643704">
        <ele>2569.008</ele>
        <time>2020-09-06T10:59:40Z</time>
      </trkpt>
      <trkpt lat="42.787228" lon="-.643688">
        <ele>2568.808</ele>
        <time>2020-09-06T10:59:44Z</time>
      </trkpt>
      <trkpt lat="42.787182" lon="-.643683">
        <ele>2568.730</ele>
        <time>2020-09-06T10:59:56Z</time>
      </trkpt>
      <trkpt lat="42.787138" lon="-.643656">
        <ele>2567.471</ele>
        <time>2020-09-06T11:00:04Z</time>
      </trkpt>
      <trkpt lat="42.787095" lon="-.643638">
        <ele>2566.617</ele>
        <time>2020-09-06T11:00:10Z</time>
      </trkpt>
      <trkpt lat="42.787049" lon="-.643624">
        <ele>2563.622</ele>
        <time>2020-09-06T11:00:48Z</time>
      </trkpt>
      <trkpt lat="42.787003" lon="-.643619">
        <ele>2561.830</ele>
        <time>2020-09-06T11:00:56Z</time>
      </trkpt>
      <trkpt lat="42.786974" lon="-.643553">
        <ele>2557.869</ele>
        <time>2020-09-06T11:01:30Z</time>
      </trkpt>
      <trkpt lat="42.786961" lon="-.643492">
        <ele>2554.822</ele>
        <time>2020-09-06T11:01:39Z</time>
      </trkpt>
      <trkpt lat="42.78695" lon="-.643432">
        <ele>2553.055</ele>
        <time>2020-09-06T11:01:52Z</time>
      </trkpt>
      <trkpt lat="42.786909" lon="-.643472">
        <ele>2551.444</ele>
        <time>2020-09-06T11:02:11Z</time>
      </trkpt>
      <trkpt lat="42.786862" lon="-.643495">
        <ele>2550.505</ele>
        <time>2020-09-06T11:02:17Z</time>
      </trkpt>
      <trkpt lat="42.786841" lon="-.643549">
        <ele>2549.915</ele>
        <time>2020-09-06T11:02:27Z</time>
      </trkpt>
      <trkpt lat="42.786804" lon="-.643513">
        <ele>2547.608</ele>
        <time>2020-09-06T11:02:50Z</time>
      </trkpt>
      <trkpt lat="42.786757" lon="-.64352">
        <ele>2546.289</ele>
        <time>2020-09-06T11:03:06Z</time>
      </trkpt>
      <trkpt lat="42.78671" lon="-.643516">
        <ele>2542.510</ele>
        <time>2020-09-06T11:03:29Z</time>
      </trkpt>
      <trkpt lat="42.786668" lon="-.643494">
        <ele>2540.316</ele>
        <time>2020-09-06T11:03:39Z</time>
      </trkpt>
      <trkpt lat="42.786652" lon="-.643433">
        <ele>2536.841</ele>
        <time>2020-09-06T11:03:53Z</time>
      </trkpt>
      <trkpt lat="42.786602" lon="-.643438">
        <ele>2534.749</ele>
        <time>2020-09-06T11:03:58Z</time>
      </trkpt>
      <trkpt lat="42.786579" lon="-.643491">
        <ele>2533.498</ele>
        <time>2020-09-06T11:04:07Z</time>
      </trkpt>
      <trkpt lat="42.786562" lon="-.643434">
        <ele>2532.631</ele>
        <time>2020-09-06T11:04:28Z</time>
      </trkpt>
      <trkpt lat="42.786595" lon="-.643477">
        <ele>2532.174</ele>
        <time>2020-09-06T11:04:53Z</time>
      </trkpt>
      <trkpt lat="42.786546" lon="-.64348">
        <ele>2528.179</ele>
        <time>2020-09-06T11:05:28Z</time>
      </trkpt>
      <trkpt lat="42.786504" lon="-.643451">
        <ele>2524.105</ele>
        <time>2020-09-06T11:05:38Z</time>
      </trkpt>
      <trkpt lat="42.78646" lon="-.643469">
        <ele>2520.125</ele>
        <time>2020-09-06T11:06:24Z</time>
      </trkpt>
      <trkpt lat="42.786413" lon="-.643466">
        <ele>2517.108</ele>
        <time>2020-09-06T11:06:30Z</time>
      </trkpt>
      <trkpt lat="42.786394" lon="-.643406">
        <ele>2515.322</ele>
        <time>2020-09-06T11:06:40Z</time>
      </trkpt>
      <trkpt lat="42.786348" lon="-.64339">
        <ele>2512.543</ele>
        <time>2020-09-06T11:07:08Z</time>
      </trkpt>
      <trkpt lat="42.7863" lon="-.643397">
        <ele>2510.839</ele>
        <time>2020-09-06T11:07:16Z</time>
      </trkpt>
      <trkpt lat="42.786256" lon="-.643367">
        <ele>2508.414</ele>
        <time>2020-09-06T11:07:34Z</time>
      </trkpt>
      <trkpt lat="42.786208" lon="-.643364">
        <ele>2507.072</ele>
        <time>2020-09-06T11:07:41Z</time>
      </trkpt>
      <trkpt lat="42.786162" lon="-.643345">
        <ele>2504.741</ele>
        <time>2020-09-06T11:08:30Z</time>
      </trkpt>
      <trkpt lat="42.786119" lon="-.643322">
        <ele>2503.364</ele>
        <time>2020-09-06T11:08:36Z</time>
      </trkpt>
      <trkpt lat="42.786067" lon="-.643322">
        <ele>2501.217</ele>
        <time>2020-09-06T11:09:28Z</time>
      </trkpt>
      <trkpt lat="42.786029" lon="-.643285">
        <ele>2499.924</ele>
        <time>2020-09-06T11:09:35Z</time>
      </trkpt>
      <trkpt lat="42.785988" lon="-.643312">
        <ele>2497.904</ele>
        <time>2020-09-06T11:11:27Z</time>
      </trkpt>
      <trkpt lat="42.785944" lon="-.643329">
        <ele>2496.714</ele>
        <time>2020-09-06T11:11:37Z</time>
      </trkpt>
      <trkpt lat="42.785895" lon="-.643332">
        <ele>2495.208</ele>
        <time>2020-09-06T11:12:12Z</time>
      </trkpt>
      <trkpt lat="42.785848" lon="-.643342">
        <ele>2494.367</ele>
        <time>2020-09-06T11:12:19Z</time>
      </trkpt>
      <trkpt lat="42.785813" lon="-.643302">
        <ele>2493.148</ele>
        <time>2020-09-06T11:12:54Z</time>
      </trkpt>
      <trkpt lat="42.785768" lon="-.643329">
        <ele>2492.324</ele>
        <time>2020-09-06T11:13:00Z</time>
      </trkpt>
      <trkpt lat="42.785732" lon="-.643368">
        <ele>2491.839</ele>
        <time>2020-09-06T11:13:28Z</time>
      </trkpt>
      <trkpt lat="42.785685" lon="-.643362">
        <ele>2490.347</ele>
        <time>2020-09-06T11:13:49Z</time>
      </trkpt>
      <trkpt lat="42.785646" lon="-.643329">
        <ele>2489.486</ele>
        <time>2020-09-06T11:14:06Z</time>
      </trkpt>
      <trkpt lat="42.7856" lon="-.643372">
        <ele>2487.649</ele>
        <time>2020-09-06T11:14:31Z</time>
      </trkpt>
      <trkpt lat="42.785561" lon="-.643406">
        <ele>2486.582</ele>
        <time>2020-09-06T11:14:36Z</time>
      </trkpt>
      <trkpt lat="42.785514" lon="-.643418">
        <ele>2483.874</ele>
        <time>2020-09-06T11:15:14Z</time>
      </trkpt>
      <trkpt lat="42.78549" lon="-.643474">
        <ele>2482.256</ele>
        <time>2020-09-06T11:15:19Z</time>
      </trkpt>
      <trkpt lat="42.785451" lon="-.643433">
        <ele>2480.121</ele>
        <time>2020-09-06T11:15:51Z</time>
      </trkpt>
      <trkpt lat="42.785408" lon="-.643453">
        <ele>2478.708</ele>
        <time>2020-09-06T11:15:58Z</time>
      </trkpt>
      <trkpt lat="42.785364" lon="-.643482">
        <ele>2477.962</ele>
        <time>2020-09-06T11:16:06Z</time>
      </trkpt>
      <trkpt lat="42.785332" lon="-.64353">
        <ele>2474.253</ele>
        <time>2020-09-06T11:16:35Z</time>
      </trkpt>
      <trkpt lat="42.785284" lon="-.643525">
        <ele>2472.019</ele>
        <time>2020-09-06T11:16:40Z</time>
      </trkpt>
      <trkpt lat="42.785241" lon="-.643551">
        <ele>2468.014</ele>
        <time>2020-09-06T11:17:41Z</time>
      </trkpt>
      <trkpt lat="42.785196" lon="-.643565">
        <ele>2465.582</ele>
        <time>2020-09-06T11:17:48Z</time>
      </trkpt>
      <trkpt lat="42.785186" lon="-.643625">
        <ele>2463.121</ele>
        <time>2020-09-06T11:18:08Z</time>
      </trkpt>
      <trkpt lat="42.785186" lon="-.643625">
        <ele>2463.194</ele>
        <time>2020-09-06T11:18:08Z</time>
      </trkpt>
      <trkpt lat="42.785146" lon="-.643597">
        <ele>2461.237</ele>
        <time>2020-09-06T11:18:20Z</time>
      </trkpt>
      <trkpt lat="42.785105" lon="-.64357">
        <ele>2460.161</ele>
        <time>2020-09-06T11:18:25Z</time>
      </trkpt>
      <trkpt lat="42.785062" lon="-.643594">
        <ele>2459.421</ele>
        <time>2020-09-06T11:18:38Z</time>
      </trkpt>
      <trkpt lat="42.785087" lon="-.643647">
        <ele>2459.013</ele>
        <time>2020-09-06T11:18:48Z</time>
      </trkpt>
      <trkpt lat="42.785074" lon="-.643709">
        <ele>2456.408</ele>
        <time>2020-09-06T11:18:58Z</time>
      </trkpt>
      <trkpt lat="42.785045" lon="-.643756">
        <ele>2454.931</ele>
        <time>2020-09-06T11:19:12Z</time>
      </trkpt>
      <trkpt lat="42.784996" lon="-.643761">
        <ele>2452.432</ele>
        <time>2020-09-06T11:19:20Z</time>
      </trkpt>
      <trkpt lat="42.784948" lon="-.643766">
        <ele>2450.988</ele>
        <time>2020-09-06T11:19:39Z</time>
      </trkpt>
      <trkpt lat="42.784902" lon="-.643775">
        <ele>2448.553</ele>
        <time>2020-09-06T11:20:07Z</time>
      </trkpt>
      <trkpt lat="42.784857" lon="-.643785">
        <ele>2447.151</ele>
        <time>2020-09-06T11:20:18Z</time>
      </trkpt>
      <trkpt lat="42.784838" lon="-.643729">
        <ele>2446.220</ele>
        <time>2020-09-06T11:20:27Z</time>
      </trkpt>
      <trkpt lat="42.784824" lon="-.643791">
        <ele>2444.013</ele>
        <time>2020-09-06T11:20:35Z</time>
      </trkpt>
      <trkpt lat="42.7848" lon="-.643844">
        <ele>2442.746</ele>
        <time>2020-09-06T11:20:39Z</time>
      </trkpt>
      <trkpt lat="42.784759" lon="-.64388">
        <ele>2440.261</ele>
        <time>2020-09-06T11:21:26Z</time>
      </trkpt>
      <trkpt lat="42.784719" lon="-.643916">
        <ele>2438.721</ele>
        <time>2020-09-06T11:21:30Z</time>
      </trkpt>
      <trkpt lat="42.784687" lon="-.64396">
        <ele>2437.813</ele>
        <time>2020-09-06T11:21:44Z</time>
      </trkpt>
      <trkpt lat="42.784637" lon="-.643964">
        <ele>2437.008</ele>
        <time>2020-09-06T11:21:57Z</time>
      </trkpt>
      <trkpt lat="42.784592" lon="-.643982">
        <ele>2436.571</ele>
        <time>2020-09-06T11:22:02Z</time>
      </trkpt>
      <trkpt lat="42.784555" lon="-.643946">
        <ele>2436.252</ele>
        <time>2020-09-06T11:22:15Z</time>
      </trkpt>
      <trkpt lat="42.784514" lon="-.643919">
        <ele>2434.718</ele>
        <time>2020-09-06T11:22:22Z</time>
      </trkpt>
      <trkpt lat="42.784467" lon="-.64393">
        <ele>2433.833</ele>
        <time>2020-09-06T11:22:30Z</time>
      </trkpt>
      <trkpt lat="42.784424" lon="-.643951">
        <ele>2431.421</ele>
        <time>2020-09-06T11:22:47Z</time>
      </trkpt>
      <trkpt lat="42.784377" lon="-.643958">
        <ele>2429.980</ele>
        <time>2020-09-06T11:23:00Z</time>
      </trkpt>
      <trkpt lat="42.784336" lon="-.643983">
        <ele>2426.593</ele>
        <time>2020-09-06T11:23:09Z</time>
      </trkpt>
      <trkpt lat="42.784291" lon="-.643968">
        <ele>2424.466</ele>
        <time>2020-09-06T11:23:17Z</time>
      </trkpt>
      <trkpt lat="42.784261" lon="-.643912">
        <ele>2420.483</ele>
        <time>2020-09-06T11:23:59Z</time>
      </trkpt>
      <trkpt lat="42.784214" lon="-.6439">
        <ele>2418.025</ele>
        <time>2020-09-06T11:24:06Z</time>
      </trkpt>
      <trkpt lat="42.78417" lon="-.643916">
        <ele>2416.017</ele>
        <time>2020-09-06T11:24:25Z</time>
      </trkpt>
      <trkpt lat="42.784125" lon="-.643898">
        <ele>2414.808</ele>
        <time>2020-09-06T11:24:30Z</time>
      </trkpt>
      <trkpt lat="42.784079" lon="-.643916">
        <ele>2412.933</ele>
        <time>2020-09-06T11:25:04Z</time>
      </trkpt>
      <trkpt lat="42.784032" lon="-.64391">
        <ele>2411.744</ele>
        <time>2020-09-06T11:25:19Z</time>
      </trkpt>
      <trkpt lat="42.783988" lon="-.643933">
        <ele>2410.280</ele>
        <time>2020-09-06T11:25:33Z</time>
      </trkpt>
      <trkpt lat="42.78394" lon="-.643942">
        <ele>2409.215</ele>
        <time>2020-09-06T11:25:37Z</time>
      </trkpt>
      <trkpt lat="42.783899" lon="-.643968">
        <ele>2408.663</ele>
        <time>2020-09-06T11:25:43Z</time>
      </trkpt>
      <trkpt lat="42.783845" lon="-.643953">
        <ele>2407.622</ele>
        <time>2020-09-06T11:26:02Z</time>
      </trkpt>
      <trkpt lat="42.783798" lon="-.643943">
        <ele>2407.015</ele>
        <time>2020-09-06T11:26:11Z</time>
      </trkpt>
      <trkpt lat="42.783751" lon="-.643959">
        <ele>2405.688</ele>
        <time>2020-09-06T11:26:18Z</time>
      </trkpt>
      <trkpt lat="42.783704" lon="-.643966">
        <ele>2404.847</ele>
        <time>2020-09-06T11:26:23Z</time>
      </trkpt>
      <trkpt lat="42.783665" lon="-.644011">
        <ele>2402.529</ele>
        <time>2020-09-06T11:26:50Z</time>
      </trkpt>
      <trkpt lat="42.78362" lon="-.643987">
        <ele>2401.121</ele>
        <time>2020-09-06T11:26:54Z</time>
      </trkpt>
      <trkpt lat="42.783593" lon="-.643936">
        <ele>2400.208</ele>
        <time>2020-09-06T11:26:59Z</time>
      </trkpt>
      <trkpt lat="42.783561" lon="-.643886">
        <ele>2399.179</ele>
        <time>2020-09-06T11:27:15Z</time>
      </trkpt>
      <trkpt lat="42.783513" lon="-.643887">
        <ele>2398.440</ele>
        <time>2020-09-06T11:27:19Z</time>
      </trkpt>
      <trkpt lat="42.783464" lon="-.64388">
        <ele>2397.376</ele>
        <time>2020-09-06T11:27:38Z</time>
      </trkpt>
      <trkpt lat="42.783413" lon="-.643884">
        <ele>2396.671</ele>
        <time>2020-09-06T11:27:44Z</time>
      </trkpt>
      <trkpt lat="42.78337" lon="-.643907">
        <ele>2396.289</ele>
        <time>2020-09-06T11:27:56Z</time>
      </trkpt>
      <trkpt lat="42.78332" lon="-.643916">
        <ele>2395.378</ele>
        <time>2020-09-06T11:28:05Z</time>
      </trkpt>
      <trkpt lat="42.783272" lon="-.643913">
        <ele>2394.851</ele>
        <time>2020-09-06T11:28:12Z</time>
      </trkpt>
      <trkpt lat="42.783226" lon="-.643879">
        <ele>2393.014</ele>
        <time>2020-09-06T11:28:49Z</time>
      </trkpt>
      <trkpt lat="42.783181" lon="-.64387">
        <ele>2391.973</ele>
        <time>2020-09-06T11:28:57Z</time>
      </trkpt>
      <trkpt lat="42.783133" lon="-.643884">
        <ele>2390.385</ele>
        <time>2020-09-06T11:29:15Z</time>
      </trkpt>
      <trkpt lat="42.783088" lon="-.643905">
        <ele>2389.313</ele>
        <time>2020-09-06T11:29:20Z</time>
      </trkpt>
      <trkpt lat="42.783041" lon="-.643925">
        <ele>2387.608</ele>
        <time>2020-09-06T11:29:51Z</time>
      </trkpt>
      <trkpt lat="42.782995" lon="-.64391">
        <ele>2386.622</ele>
        <time>2020-09-06T11:29:56Z</time>
      </trkpt>
      <trkpt lat="42.782946" lon="-.643899">
        <ele>2383.083</ele>
        <time>2020-09-06T11:30:32Z</time>
      </trkpt>
      <trkpt lat="42.782902" lon="-.64389">
        <ele>2380.879</ele>
        <time>2020-09-06T11:30:36Z</time>
      </trkpt>
      <trkpt lat="42.782871" lon="-.643938">
        <ele>2379.594</ele>
        <time>2020-09-06T11:30:44Z</time>
      </trkpt>
      <trkpt lat="42.782818" lon="-.643941">
        <ele>2375.522</ele>
        <time>2020-09-06T11:31:01Z</time>
      </trkpt>
      <trkpt lat="42.782777" lon="-.643967">
        <ele>2372.621</ele>
        <time>2020-09-06T11:31:09Z</time>
      </trkpt>
      <trkpt lat="42.782733" lon="-.643946">
        <ele>2368.634</ele>
        <time>2020-09-06T11:31:18Z</time>
      </trkpt>
      <trkpt lat="42.782693" lon="-.643975">
        <ele>2365.157</ele>
        <time>2020-09-06T11:31:23Z</time>
      </trkpt>
      <trkpt lat="42.782654" lon="-.644009">
        <ele>2363.059</ele>
        <time>2020-09-06T11:31:28Z</time>
      </trkpt>
      <trkpt lat="42.782607" lon="-.644005">
        <ele>2359.003</ele>
        <time>2020-09-06T11:31:55Z</time>
      </trkpt>
      <trkpt lat="42.78256" lon="-.64401">
        <ele>2356.023</ele>
        <time>2020-09-06T11:32:05Z</time>
      </trkpt>
      <trkpt lat="42.782508" lon="-.644017">
        <ele>2353.308</ele>
        <time>2020-09-06T11:32:13Z</time>
      </trkpt>
      <trkpt lat="42.782471" lon="-.643981">
        <ele>2351.760</ele>
        <time>2020-09-06T11:32:18Z</time>
      </trkpt>
      <trkpt lat="42.782438" lon="-.643935">
        <ele>2348.251</ele>
        <time>2020-09-06T11:32:39Z</time>
      </trkpt>
      <trkpt lat="42.78241" lon="-.643989">
        <ele>2344.277</ele>
        <time>2020-09-06T11:36:25Z</time>
      </trkpt>
      <trkpt lat="42.782402" lon="-.644054">
        <ele>2340.222</ele>
        <time>2020-09-06T11:36:29Z</time>
      </trkpt>
      <trkpt lat="42.782377" lon="-.644106">
        <ele>2336.880</ele>
        <time>2020-09-06T11:36:36Z</time>
      </trkpt>
      <trkpt lat="42.782333" lon="-.644135">
        <ele>2333.539</ele>
        <time>2020-09-06T11:36:42Z</time>
      </trkpt>
      <trkpt lat="42.782285" lon="-.644152">
        <ele>2331.062</ele>
        <time>2020-09-06T11:36:46Z</time>
      </trkpt>
      <trkpt lat="42.782241" lon="-.644193">
        <ele>2328.845</ele>
        <time>2020-09-06T11:36:50Z</time>
      </trkpt>
      <trkpt lat="42.782219" lon="-.644249">
        <ele>2327.258</ele>
        <time>2020-09-06T11:36:56Z</time>
      </trkpt>
      <trkpt lat="42.782234" lon="-.64431">
        <ele>2324.652</ele>
        <time>2020-09-06T11:37:08Z</time>
      </trkpt>
      <trkpt lat="42.782191" lon="-.644344">
        <ele>2322.917</ele>
        <time>2020-09-06T11:37:13Z</time>
      </trkpt>
      <trkpt lat="42.782143" lon="-.644364">
        <ele>2321.908</ele>
        <time>2020-09-06T11:37:19Z</time>
      </trkpt>
      <trkpt lat="42.782106" lon="-.6444">
        <ele>2318.480</ele>
        <time>2020-09-06T11:37:28Z</time>
      </trkpt>
      <trkpt lat="42.782081" lon="-.64446">
        <ele>2315.971</ele>
        <time>2020-09-06T11:37:33Z</time>
      </trkpt>
      <trkpt lat="42.782041" lon="-.644496">
        <ele>2314.487</ele>
        <time>2020-09-06T11:37:39Z</time>
      </trkpt>
      <trkpt lat="42.782007" lon="-.644539">
        <ele>2310.412</ele>
        <time>2020-09-06T11:37:50Z</time>
      </trkpt>
      <trkpt lat="42.781977" lon="-.644587">
        <ele>2307.680</ele>
        <time>2020-09-06T11:37:59Z</time>
      </trkpt>
      <trkpt lat="42.781955" lon="-.644642">
        <ele>2303.699</ele>
        <time>2020-09-06T11:38:19Z</time>
      </trkpt>
      <trkpt lat="42.78193" lon="-.644695">
        <ele>2300.162</ele>
        <time>2020-09-06T11:38:27Z</time>
      </trkpt>
      <trkpt lat="42.781888" lon="-.644729">
        <ele>2296.135</ele>
        <time>2020-09-06T11:38:39Z</time>
      </trkpt>
      <trkpt lat="42.781854" lon="-.644769">
        <ele>2293.123</ele>
        <time>2020-09-06T11:38:52Z</time>
      </trkpt>
      <trkpt lat="42.781805" lon="-.644778">
        <ele>2289.183</ele>
        <time>2020-09-06T11:39:10Z</time>
      </trkpt>
      <trkpt lat="42.781772" lon="-.644822">
        <ele>2285.111</ele>
        <time>2020-09-06T11:39:23Z</time>
      </trkpt>
      <trkpt lat="42.781747" lon="-.644766">
        <ele>2281.108</ele>
        <time>2020-09-06T11:39:34Z</time>
      </trkpt>
      <trkpt lat="42.781699" lon="-.644755">
        <ele>2277.137</ele>
        <time>2020-09-06T11:39:39Z</time>
      </trkpt>
      <trkpt lat="42.781654" lon="-.64474">
        <ele>2273.468</ele>
        <time>2020-09-06T11:39:47Z</time>
      </trkpt>
      <trkpt lat="42.781612" lon="-.644712">
        <ele>2269.484</ele>
        <time>2020-09-06T11:39:57Z</time>
      </trkpt>
      <trkpt lat="42.781583" lon="-.644759">
        <ele>2265.619</ele>
        <time>2020-09-06T11:40:07Z</time>
      </trkpt>
      <trkpt lat="42.781536" lon="-.64475">
        <ele>2263.397</ele>
        <time>2020-09-06T11:40:18Z</time>
      </trkpt>
      <trkpt lat="42.781508" lon="-.644808">
        <ele>2260.726</ele>
        <time>2020-09-06T11:40:29Z</time>
      </trkpt>
      <trkpt lat="42.781489" lon="-.644866">
        <ele>2259.119</ele>
        <time>2020-09-06T11:40:46Z</time>
      </trkpt>
      <trkpt lat="42.781473" lon="-.64493">
        <ele>2255.682</ele>
        <time>2020-09-06T11:41:00Z</time>
      </trkpt>
      <trkpt lat="42.781448" lon="-.644984">
        <ele>2253.556</ele>
        <time>2020-09-06T11:41:09Z</time>
      </trkpt>
      <trkpt lat="42.781408" lon="-.644954">
        <ele>2249.559</ele>
        <time>2020-09-06T11:41:26Z</time>
      </trkpt>
      <trkpt lat="42.781383" lon="-.645007">
        <ele>2245.514</ele>
        <time>2020-09-06T11:41:30Z</time>
      </trkpt>
      <trkpt lat="42.781384" lon="-.64507">
        <ele>2241.508</ele>
        <time>2020-09-06T11:41:37Z</time>
      </trkpt>
      <trkpt lat="42.781363" lon="-.645127">
        <ele>2237.580</ele>
        <time>2020-09-06T11:42:07Z</time>
      </trkpt>
      <trkpt lat="42.781338" lon="-.645183">
        <ele>2233.541</ele>
        <time>2020-09-06T11:42:13Z</time>
      </trkpt>
      <trkpt lat="42.781373" lon="-.645223">
        <ele>2229.547</ele>
        <time>2020-09-06T11:42:25Z</time>
      </trkpt>
      <trkpt lat="42.781368" lon="-.645286">
        <ele>2225.522</ele>
        <time>2020-09-06T11:42:31Z</time>
      </trkpt>
      <trkpt lat="42.78136" lon="-.64535">
        <ele>2221.640</ele>
        <time>2020-09-06T11:42:35Z</time>
      </trkpt>
      <trkpt lat="42.781346" lon="-.645415">
        <ele>2218.149</ele>
        <time>2020-09-06T11:42:39Z</time>
      </trkpt>
      <trkpt lat="42.781334" lon="-.645475">
        <ele>2215.362</ele>
        <time>2020-09-06T11:42:43Z</time>
      </trkpt>
      <trkpt lat="42.781301" lon="-.645519">
        <ele>2213.615</ele>
        <time>2020-09-06T11:42:49Z</time>
      </trkpt>
      <trkpt lat="42.781283" lon="-.645585">
        <ele>2210.082</ele>
        <time>2020-09-06T11:43:04Z</time>
      </trkpt>
      <trkpt lat="42.781233" lon="-.64559">
        <ele>2207.843</ele>
        <time>2020-09-06T11:43:11Z</time>
      </trkpt>
      <trkpt lat="42.781188" lon="-.645583">
        <ele>2204.417</ele>
        <time>2020-09-06T11:43:19Z</time>
      </trkpt>
      <trkpt lat="42.781174" lon="-.645646">
        <ele>2202.408</ele>
        <time>2020-09-06T11:43:25Z</time>
      </trkpt>
      <trkpt lat="42.781138" lon="-.645608">
        <ele>2199.393</ele>
        <time>2020-09-06T11:44:11Z</time>
      </trkpt>
      <trkpt lat="42.781097" lon="-.645646">
        <ele>2197.324</ele>
        <time>2020-09-06T11:44:16Z</time>
      </trkpt>
      <trkpt lat="42.781074" lon="-.645699">
        <ele>2196.160</ele>
        <time>2020-09-06T11:44:23Z</time>
      </trkpt>
      <trkpt lat="42.781045" lon="-.645751">
        <ele>2193.665</ele>
        <time>2020-09-06T11:44:34Z</time>
      </trkpt>
      <trkpt lat="42.780999" lon="-.645755">
        <ele>2192.173</ele>
        <time>2020-09-06T11:44:38Z</time>
      </trkpt>
      <trkpt lat="42.780976" lon="-.645813">
        <ele>2188.142</ele>
        <time>2020-09-06T11:45:07Z</time>
      </trkpt>
      <trkpt lat="42.780947" lon="-.645873">
        <ele>2185.185</ele>
        <time>2020-09-06T11:45:11Z</time>
      </trkpt>
      <trkpt lat="42.780928" lon="-.645929">
        <ele>2183.328</ele>
        <time>2020-09-06T11:45:19Z</time>
      </trkpt>
      <trkpt lat="42.780914" lon="-.64599">
        <ele>2179.398</ele>
        <time>2020-09-06T11:45:33Z</time>
      </trkpt>
      <trkpt lat="42.780897" lon="-.646053">
        <ele>2175.315</ele>
        <time>2020-09-06T11:45:58Z</time>
      </trkpt>
      <trkpt lat="42.78085" lon="-.64607">
        <ele>2171.326</ele>
        <time>2020-09-06T11:46:03Z</time>
      </trkpt>
      <trkpt lat="42.780817" lon="-.646112">
        <ele>2168.508</ele>
        <time>2020-09-06T11:46:10Z</time>
      </trkpt>
      <trkpt lat="42.780767" lon="-.646116">
        <ele>2164.554</ele>
        <time>2020-09-06T11:46:24Z</time>
      </trkpt>
      <trkpt lat="42.780722" lon="-.646138">
        <ele>2161.335</ele>
        <time>2020-09-06T11:46:28Z</time>
      </trkpt>
      <trkpt lat="42.780675" lon="-.646151">
        <ele>2157.361</ele>
        <time>2020-09-06T11:46:34Z</time>
      </trkpt>
      <trkpt lat="42.780624" lon="-.646169">
        <ele>2154.266</ele>
        <time>2020-09-06T11:46:39Z</time>
      </trkpt>
      <trkpt lat="42.780592" lon="-.646219">
        <ele>2150.264</ele>
        <time>2020-09-06T11:46:53Z</time>
      </trkpt>
      <trkpt lat="42.780549" lon="-.646249">
        <ele>2146.413</ele>
        <time>2020-09-06T11:46:57Z</time>
      </trkpt>
      <trkpt lat="42.780501" lon="-.646256">
        <ele>2143.496</ele>
        <time>2020-09-06T11:47:00Z</time>
      </trkpt>
      <trkpt lat="42.780455" lon="-.646267">
        <ele>2141.689</ele>
        <time>2020-09-06T11:47:05Z</time>
      </trkpt>
      <trkpt lat="42.780426" lon="-.64632">
        <ele>2137.686</ele>
        <time>2020-09-06T11:47:38Z</time>
      </trkpt>
      <trkpt lat="42.780396" lon="-.646373">
        <ele>2134.560</ele>
        <time>2020-09-06T11:47:44Z</time>
      </trkpt>
      <trkpt lat="42.780376" lon="-.646434">
        <ele>2131.426</ele>
        <time>2020-09-06T11:47:51Z</time>
      </trkpt>
      <trkpt lat="42.780359" lon="-.646493">
        <ele>2128.408</ele>
        <time>2020-09-06T11:47:56Z</time>
      </trkpt>
      <trkpt lat="42.780338" lon="-.646549">
        <ele>2126.133</ele>
        <time>2020-09-06T11:47:59Z</time>
      </trkpt>
      <trkpt lat="42.780299" lon="-.646585">
        <ele>2123.934</ele>
        <time>2020-09-06T11:48:05Z</time>
      </trkpt>
      <trkpt lat="42.780252" lon="-.646586">
        <ele>2121.780</ele>
        <time>2020-09-06T11:48:09Z</time>
      </trkpt>
      <trkpt lat="42.780207" lon="-.646584">
        <ele>2119.925</ele>
        <time>2020-09-06T11:48:16Z</time>
      </trkpt>
      <trkpt lat="42.78019" lon="-.646642">
        <ele>2117.223</ele>
        <time>2020-09-06T11:48:24Z</time>
      </trkpt>
      <trkpt lat="42.780151" lon="-.64668">
        <ele>2115.242</ele>
        <time>2020-09-06T11:48:29Z</time>
      </trkpt>
      <trkpt lat="42.780105" lon="-.646683">
        <ele>2113.135</ele>
        <time>2020-09-06T11:48:32Z</time>
      </trkpt>
      <trkpt lat="42.780061" lon="-.6467">
        <ele>2111.258</ele>
        <time>2020-09-06T11:48:37Z</time>
      </trkpt>
      <trkpt lat="42.780017" lon="-.646724">
        <ele>2109.198</ele>
        <time>2020-09-06T11:48:41Z</time>
      </trkpt>
      <trkpt lat="42.779971" lon="-.646742">
        <ele>2107.215</ele>
        <time>2020-09-06T11:48:45Z</time>
      </trkpt>
      <trkpt lat="42.779922" lon="-.64675">
        <ele>2105.126</ele>
        <time>2020-09-06T11:48:49Z</time>
      </trkpt>
      <trkpt lat="42.779876" lon="-.646773">
        <ele>2103.008</ele>
        <time>2020-09-06T11:48:54Z</time>
      </trkpt>
      <trkpt lat="42.779834" lon="-.646796">
        <ele>2100.644</ele>
        <time>2020-09-06T11:48:59Z</time>
      </trkpt>
      <trkpt lat="42.779801" lon="-.646838">
        <ele>2098.435</ele>
        <time>2020-09-06T11:49:03Z</time>
      </trkpt>
      <trkpt lat="42.779759" lon="-.646807">
        <ele>2095.651</ele>
        <time>2020-09-06T11:49:10Z</time>
      </trkpt>
      <trkpt lat="42.779731" lon="-.646749">
        <ele>2093.526</ele>
        <time>2020-09-06T11:49:14Z</time>
      </trkpt>
      <trkpt lat="42.779692" lon="-.646719">
        <ele>2092.264</ele>
        <time>2020-09-06T11:49:21Z</time>
      </trkpt>
      <trkpt lat="42.779646" lon="-.646696">
        <ele>2089.313</ele>
        <time>2020-09-06T11:49:31Z</time>
      </trkpt>
      <trkpt lat="42.779603" lon="-.646668">
        <ele>2087.596</ele>
        <time>2020-09-06T11:49:39Z</time>
      </trkpt>
      <trkpt lat="42.779555" lon="-.646639">
        <ele>2084.269</ele>
        <time>2020-09-06T11:49:48Z</time>
      </trkpt>
      <trkpt lat="42.779508" lon="-.64663">
        <ele>2082.256</ele>
        <time>2020-09-06T11:49:54Z</time>
      </trkpt>
      <trkpt lat="42.779456" lon="-.646634">
        <ele>2080.859</ele>
        <time>2020-09-06T11:50:51Z</time>
      </trkpt>
      <trkpt lat="42.779408" lon="-.646642">
        <ele>2079.914</ele>
        <time>2020-09-06T11:50:55Z</time>
      </trkpt>
      <trkpt lat="42.779363" lon="-.646659">
        <ele>2079.308</ele>
        <time>2020-09-06T11:51:00Z</time>
      </trkpt>
      <trkpt lat="42.779323" lon="-.646697">
        <ele>2078.820</ele>
        <time>2020-09-06T11:51:05Z</time>
      </trkpt>
      <trkpt lat="42.779282" lon="-.646732">
        <ele>2078.511</ele>
        <time>2020-09-06T11:51:10Z</time>
      </trkpt>
      <trkpt lat="42.779229" lon="-.646747">
        <ele>2078.127</ele>
        <time>2020-09-06T11:51:18Z</time>
      </trkpt>
      <trkpt lat="42.779184" lon="-.64679">
        <ele>2077.782</ele>
        <time>2020-09-06T11:51:21Z</time>
      </trkpt>
      <trkpt lat="42.779142" lon="-.646825">
        <ele>2077.350</ele>
        <time>2020-09-06T11:51:25Z</time>
      </trkpt>
      <trkpt lat="42.779106" lon="-.646865">
        <ele>2076.929</ele>
        <time>2020-09-06T11:51:32Z</time>
      </trkpt>
      <trkpt lat="42.779066" lon="-.646898">
        <ele>2076.492</ele>
        <time>2020-09-06T11:51:41Z</time>
      </trkpt>
      <trkpt lat="42.779029" lon="-.646935">
        <ele>2076.195</ele>
        <time>2020-09-06T11:51:48Z</time>
      </trkpt>
      <trkpt lat="42.77901" lon="-.647001">
        <ele>2075.398</ele>
        <time>2020-09-06T11:51:55Z</time>
      </trkpt>
      <trkpt lat="42.778979" lon="-.647049">
        <ele>2074.815</ele>
        <time>2020-09-06T11:52:00Z</time>
      </trkpt>
      <trkpt lat="42.778944" lon="-.64709">
        <ele>2074.526</ele>
        <time>2020-09-06T11:52:06Z</time>
      </trkpt>
      <trkpt lat="42.778921" lon="-.647156">
        <ele>2073.508</ele>
        <time>2020-09-06T11:52:11Z</time>
      </trkpt>
      <trkpt lat="42.77889" lon="-.647211">
        <ele>2072.634</ele>
        <time>2020-09-06T11:52:14Z</time>
      </trkpt>
      <trkpt lat="42.778849" lon="-.647246">
        <ele>2071.715</ele>
        <time>2020-09-06T11:52:18Z</time>
      </trkpt>
      <trkpt lat="42.778803" lon="-.647261">
        <ele>2070.771</ele>
        <time>2020-09-06T11:52:23Z</time>
      </trkpt>
      <trkpt lat="42.778771" lon="-.647305">
        <ele>2068.936</ele>
        <time>2020-09-06T11:52:41Z</time>
      </trkpt>
      <trkpt lat="42.778728" lon="-.647323">
        <ele>2067.614</ele>
        <time>2020-09-06T11:52:45Z</time>
      </trkpt>
      <trkpt lat="42.778686" lon="-.647353">
        <ele>2066.383</ele>
        <time>2020-09-06T11:52:49Z</time>
      </trkpt>
      <trkpt lat="42.778639" lon="-.647361">
        <ele>2065.146</ele>
        <time>2020-09-06T11:52:53Z</time>
      </trkpt>
      <trkpt lat="42.778596" lon="-.647388">
        <ele>2064.489</ele>
        <time>2020-09-06T11:52:58Z</time>
      </trkpt>
      <trkpt lat="42.77856" lon="-.647438">
        <ele>2063.065</ele>
        <time>2020-09-06T11:53:07Z</time>
      </trkpt>
      <trkpt lat="42.778532" lon="-.647488">
        <ele>2062.168</ele>
        <time>2020-09-06T11:53:11Z</time>
      </trkpt>
      <trkpt lat="42.778495" lon="-.647528">
        <ele>2060.414</ele>
        <time>2020-09-06T11:53:29Z</time>
      </trkpt>
      <trkpt lat="42.77846" lon="-.647588">
        <ele>2059.008</ele>
        <time>2020-09-06T11:53:32Z</time>
      </trkpt>
      <trkpt lat="42.778437" lon="-.647651">
        <ele>2058.071</ele>
        <time>2020-09-06T11:53:35Z</time>
      </trkpt>
      <trkpt lat="42.778421" lon="-.647711">
        <ele>2057.232</ele>
        <time>2020-09-06T11:53:39Z</time>
      </trkpt>
      <trkpt lat="42.778387" lon="-.647766">
        <ele>2056.648</ele>
        <time>2020-09-06T11:53:43Z</time>
      </trkpt>
      <trkpt lat="42.778359" lon="-.647814">
        <ele>2055.763</ele>
        <time>2020-09-06T11:53:50Z</time>
      </trkpt>
      <trkpt lat="42.77833" lon="-.647861">
        <ele>2055.251</ele>
        <time>2020-09-06T11:54:00Z</time>
      </trkpt>
      <trkpt lat="42.778298" lon="-.647912">
        <ele>2053.650</ele>
        <time>2020-09-06T11:54:07Z</time>
      </trkpt>
      <trkpt lat="42.778256" lon="-.647932">
        <ele>2052.013</ele>
        <time>2020-09-06T11:54:11Z</time>
      </trkpt>
      <trkpt lat="42.778224" lon="-.647975">
        <ele>2050.616</ele>
        <time>2020-09-06T11:54:15Z</time>
      </trkpt>
      <trkpt lat="42.778188" lon="-.648016">
        <ele>2049.787</ele>
        <time>2020-09-06T11:54:32Z</time>
      </trkpt>
      <trkpt lat="42.778142" lon="-.648046">
        <ele>2048.342</ele>
        <time>2020-09-06T11:54:38Z</time>
      </trkpt>
      <trkpt lat="42.778099" lon="-.648094">
        <ele>2047.226</ele>
        <time>2020-09-06T11:54:41Z</time>
      </trkpt>
      <trkpt lat="42.778062" lon="-.648131">
        <ele>2046.108</ele>
        <time>2020-09-06T11:54:45Z</time>
      </trkpt>
      <trkpt lat="42.778021" lon="-.648172">
        <ele>2044.983</ele>
        <time>2020-09-06T11:54:49Z</time>
      </trkpt>
      <trkpt lat="42.777987" lon="-.648224">
        <ele>2043.694</ele>
        <time>2020-09-06T11:54:53Z</time>
      </trkpt>
      <trkpt lat="42.777951" lon="-.648261">
        <ele>2042.380</ele>
        <time>2020-09-06T11:54:56Z</time>
      </trkpt>
      <trkpt lat="42.777929" lon="-.648317">
        <ele>2040.925</ele>
        <time>2020-09-06T11:55:01Z</time>
      </trkpt>
      <trkpt lat="42.777903" lon="-.648368">
        <ele>2039.783</ele>
        <time>2020-09-06T11:55:05Z</time>
      </trkpt>
      <trkpt lat="42.777873" lon="-.648425">
        <ele>2038.542</ele>
        <time>2020-09-06T11:55:10Z</time>
      </trkpt>
      <trkpt lat="42.777848" lon="-.648477">
        <ele>2037.245</ele>
        <time>2020-09-06T11:55:16Z</time>
      </trkpt>
      <trkpt lat="42.777817" lon="-.648523">
        <ele>2036.068</ele>
        <time>2020-09-06T11:55:19Z</time>
      </trkpt>
      <trkpt lat="42.777783" lon="-.648564">
        <ele>2035.086</ele>
        <time>2020-09-06T11:55:22Z</time>
      </trkpt>
      <trkpt lat="42.77775" lon="-.648611">
        <ele>2033.860</ele>
        <time>2020-09-06T11:55:26Z</time>
      </trkpt>
      <trkpt lat="42.777714" lon="-.64866">
        <ele>2032.626</ele>
        <time>2020-09-06T11:55:29Z</time>
      </trkpt>
      <trkpt lat="42.777681" lon="-.648706">
        <ele>2031.708</ele>
        <time>2020-09-06T11:55:32Z</time>
      </trkpt>
      <trkpt lat="42.777644" lon="-.648758">
        <ele>2030.913</ele>
        <time>2020-09-06T11:55:36Z</time>
      </trkpt>
      <trkpt lat="42.777616" lon="-.648813">
        <ele>2030.254</ele>
        <time>2020-09-06T11:55:40Z</time>
      </trkpt>
      <trkpt lat="42.777591" lon="-.648868">
        <ele>2029.630</ele>
        <time>2020-09-06T11:55:44Z</time>
      </trkpt>
      <trkpt lat="42.777564" lon="-.648927">
        <ele>2028.815</ele>
        <time>2020-09-06T11:55:48Z</time>
      </trkpt>
      <trkpt lat="42.777538" lon="-.648991">
        <ele>2027.843</ele>
        <time>2020-09-06T11:55:52Z</time>
      </trkpt>
      <trkpt lat="42.77751" lon="-.64905">
        <ele>2027.072</ele>
        <time>2020-09-06T11:55:55Z</time>
      </trkpt>
      <trkpt lat="42.77749" lon="-.649108">
        <ele>2026.485</ele>
        <time>2020-09-06T11:55:59Z</time>
      </trkpt>
      <trkpt lat="42.777469" lon="-.649175">
        <ele>2025.748</ele>
        <time>2020-09-06T11:56:03Z</time>
      </trkpt>
      <trkpt lat="42.777439" lon="-.649245">
        <ele>2024.972</ele>
        <time>2020-09-06T11:56:07Z</time>
      </trkpt>
      <trkpt lat="42.777407" lon="-.6493">
        <ele>2023.813</ele>
        <time>2020-09-06T11:56:12Z</time>
      </trkpt>
      <trkpt lat="42.777379" lon="-.649351">
        <ele>2022.914</ele>
        <time>2020-09-06T11:56:16Z</time>
      </trkpt>
      <trkpt lat="42.777345" lon="-.649414">
        <ele>2022.208</ele>
        <time>2020-09-06T11:56:19Z</time>
      </trkpt>
      <trkpt lat="42.777314" lon="-.649464">
        <ele>2021.712</ele>
        <time>2020-09-06T11:56:23Z</time>
      </trkpt>
      <trkpt lat="42.777279" lon="-.649509">
        <ele>2021.423</ele>
        <time>2020-09-06T11:56:26Z</time>
      </trkpt>
      <trkpt lat="42.77724" lon="-.649545">
        <ele>2021.259</ele>
        <time>2020-09-06T11:56:30Z</time>
      </trkpt>
      <trkpt lat="42.77722" lon="-.649608">
        <ele>2020.674</ele>
        <time>2020-09-06T11:56:36Z</time>
      </trkpt>
      <trkpt lat="42.777179" lon="-.649663">
        <ele>2020.022</ele>
        <time>2020-09-06T11:56:41Z</time>
      </trkpt>
      <trkpt lat="42.777143" lon="-.649703">
        <ele>2019.461</ele>
        <time>2020-09-06T11:56:44Z</time>
      </trkpt>
      <trkpt lat="42.777103" lon="-.649751">
        <ele>2018.864</ele>
        <time>2020-09-06T11:56:48Z</time>
      </trkpt>
      <trkpt lat="42.777077" lon="-.649801">
        <ele>2018.367</ele>
        <time>2020-09-06T11:56:52Z</time>
      </trkpt>
      <trkpt lat="42.777051" lon="-.649859">
        <ele>2017.867</ele>
        <time>2020-09-06T11:56:56Z</time>
      </trkpt>
      <trkpt lat="42.777028" lon="-.649915">
        <ele>2017.381</ele>
        <time>2020-09-06T11:56:59Z</time>
      </trkpt>
      <trkpt lat="42.777006" lon="-.649974">
        <ele>2016.719</ele>
        <time>2020-09-06T11:57:03Z</time>
      </trkpt>
      <trkpt lat="42.776987" lon="-.650033">
        <ele>2016.008</ele>
        <time>2020-09-06T11:57:07Z</time>
      </trkpt>
      <trkpt lat="42.776962" lon="-.650089">
        <ele>2015.541</ele>
        <time>2020-09-06T11:57:13Z</time>
      </trkpt>
      <trkpt lat="42.776942" lon="-.65015">
        <ele>2014.862</ele>
        <time>2020-09-06T11:57:17Z</time>
      </trkpt>
      <trkpt lat="42.776935" lon="-.650219">
        <ele>2014.258</ele>
        <time>2020-09-06T11:57:22Z</time>
      </trkpt>
      <trkpt lat="42.776913" lon="-.650279">
        <ele>2013.823</ele>
        <time>2020-09-06T11:57:25Z</time>
      </trkpt>
      <trkpt lat="42.776886" lon="-.650343">
        <ele>2013.581</ele>
        <time>2020-09-06T11:57:29Z</time>
      </trkpt>
      <trkpt lat="42.776869" lon="-.650413">
        <ele>2013.120</ele>
        <time>2020-09-06T11:57:33Z</time>
      </trkpt>
      <trkpt lat="42.776856" lon="-.650482">
        <ele>2012.723</ele>
        <time>2020-09-06T11:57:37Z</time>
      </trkpt>
      <trkpt lat="42.77684" lon="-.650543">
        <ele>2012.196</ele>
        <time>2020-09-06T11:57:42Z</time>
      </trkpt>
      <trkpt lat="42.776825" lon="-.650608">
        <ele>2011.525</ele>
        <time>2020-09-06T11:57:46Z</time>
      </trkpt>
      <trkpt lat="42.776811" lon="-.650669">
        <ele>2010.826</ele>
        <time>2020-09-06T11:57:50Z</time>
      </trkpt>
      <trkpt lat="42.776796" lon="-.650731">
        <ele>2010.208</ele>
        <time>2020-09-06T11:57:54Z</time>
      </trkpt>
      <trkpt lat="42.776771" lon="-.650791">
        <ele>2009.808</ele>
        <time>2020-09-06T11:57:58Z</time>
      </trkpt>
      <trkpt lat="42.776757" lon="-.650855">
        <ele>2009.587</ele>
        <time>2020-09-06T11:58:03Z</time>
      </trkpt>
      <trkpt lat="42.776757" lon="-.650919">
        <ele>2009.268</ele>
        <time>2020-09-06T11:58:07Z</time>
      </trkpt>
      <trkpt lat="42.776768" lon="-.650979">
        <ele>2008.874</ele>
        <time>2020-09-06T11:58:12Z</time>
      </trkpt>
      <trkpt lat="42.776772" lon="-.651049">
        <ele>2008.159</ele>
        <time>2020-09-06T11:58:18Z</time>
      </trkpt>
      <trkpt lat="42.776778" lon="-.65112">
        <ele>2007.677</ele>
        <time>2020-09-06T11:58:22Z</time>
      </trkpt>
      <trkpt lat="42.776772" lon="-.651184">
        <ele>2007.026</ele>
        <time>2020-09-06T11:58:25Z</time>
      </trkpt>
      <trkpt lat="42.776762" lon="-.651248">
        <ele>2006.319</ele>
        <time>2020-09-06T11:58:30Z</time>
      </trkpt>
      <trkpt lat="42.776746" lon="-.651311">
        <ele>2005.382</ele>
        <time>2020-09-06T11:58:35Z</time>
      </trkpt>
      <trkpt lat="42.776734" lon="-.651374">
        <ele>2004.553</ele>
        <time>2020-09-06T11:58:38Z</time>
      </trkpt>
      <trkpt lat="42.776723" lon="-.651438">
        <ele>2003.904</ele>
        <time>2020-09-06T11:58:41Z</time>
      </trkpt>
      <trkpt lat="42.776712" lon="-.651498">
        <ele>2003.414</ele>
        <time>2020-09-06T11:58:46Z</time>
      </trkpt>
      <trkpt lat="42.776698" lon="-.651564">
        <ele>2003.208</ele>
        <time>2020-09-06T11:58:50Z</time>
      </trkpt>
      <trkpt lat="42.776687" lon="-.651629">
        <ele>2003.290</ele>
        <time>2020-09-06T11:58:53Z</time>
      </trkpt>
      <trkpt lat="42.776678" lon="-.651694">
        <ele>2003.131</ele>
        <time>2020-09-06T11:58:57Z</time>
      </trkpt>
      <trkpt lat="42.776668" lon="-.651755">
        <ele>2003.217</ele>
        <time>2020-09-06T11:59:01Z</time>
      </trkpt>
      <trkpt lat="42.776658" lon="-.651816">
        <ele>2003.292</ele>
        <time>2020-09-06T11:59:06Z</time>
      </trkpt>
      <trkpt lat="42.776677" lon="-.651878">
        <ele>2003.220</ele>
        <time>2020-09-06T11:59:09Z</time>
      </trkpt>
      <trkpt lat="42.776681" lon="-.651942">
        <ele>2003.279</ele>
        <time>2020-09-06T11:59:13Z</time>
      </trkpt>
      <trkpt lat="42.776672" lon="-.652005">
        <ele>2003.442</ele>
        <time>2020-09-06T11:59:16Z</time>
      </trkpt>
      <trkpt lat="42.776655" lon="-.652064">
        <ele>2003.475</ele>
        <time>2020-09-06T11:59:24Z</time>
      </trkpt>
      <trkpt lat="42.776647" lon="-.652127">
        <ele>2003.394</ele>
        <time>2020-09-06T11:59:28Z</time>
      </trkpt>
      <trkpt lat="42.776638" lon="-.652191">
        <ele>2003.157</ele>
        <time>2020-09-06T11:59:31Z</time>
      </trkpt>
      <trkpt lat="42.776618" lon="-.652254">
        <ele>2003.022</ele>
        <time>2020-09-06T11:59:35Z</time>
      </trkpt>
      <trkpt lat="42.776604" lon="-.652319">
        <ele>2002.808</ele>
        <time>2020-09-06T11:59:40Z</time>
      </trkpt>
      <trkpt lat="42.776585" lon="-.652377">
        <ele>2002.734</ele>
        <time>2020-09-06T11:59:44Z</time>
      </trkpt>
      <trkpt lat="42.776562" lon="-.652432">
        <ele>2002.615</ele>
        <time>2020-09-06T11:59:48Z</time>
      </trkpt>
      <trkpt lat="42.776559" lon="-.652495">
        <ele>2002.041</ele>
        <time>2020-09-06T11:59:52Z</time>
      </trkpt>
      <trkpt lat="42.776561" lon="-.652557">
        <ele>2001.266</ele>
        <time>2020-09-06T11:59:56Z</time>
      </trkpt>
      <trkpt lat="42.776564" lon="-.652621">
        <ele>2000.324</ele>
        <time>2020-09-06T12:00:00Z</time>
      </trkpt>
      <trkpt lat="42.776564" lon="-.652685">
        <ele>1999.593</ele>
        <time>2020-09-06T12:00:03Z</time>
      </trkpt>
      <trkpt lat="42.776559" lon="-.652747">
        <ele>1998.586</ele>
        <time>2020-09-06T12:00:06Z</time>
      </trkpt>
      <trkpt lat="42.776553" lon="-.652812">
        <ele>1997.649</ele>
        <time>2020-09-06T12:00:11Z</time>
      </trkpt>
      <trkpt lat="42.776544" lon="-.652877">
        <ele>1996.942</ele>
        <time>2020-09-06T12:00:17Z</time>
      </trkpt>
      <trkpt lat="42.776533" lon="-.652943">
        <ele>1995.422</ele>
        <time>2020-09-06T12:00:22Z</time>
      </trkpt>
      <trkpt lat="42.776515" lon="-.653004">
        <ele>1993.814</ele>
        <time>2020-09-06T12:00:25Z</time>
      </trkpt>
      <trkpt lat="42.776501" lon="-.653064">
        <ele>1992.608</ele>
        <time>2020-09-06T12:00:28Z</time>
      </trkpt>
      <trkpt lat="42.776488" lon="-.653124">
        <ele>1992.229</ele>
        <time>2020-09-06T12:00:31Z</time>
      </trkpt>
      <trkpt lat="42.77647" lon="-.653186">
        <ele>1992.060</ele>
        <time>2020-09-06T12:00:34Z</time>
      </trkpt>
      <trkpt lat="42.776455" lon="-.653245">
        <ele>1991.846</ele>
        <time>2020-09-06T12:00:38Z</time>
      </trkpt>
      <trkpt lat="42.776444" lon="-.653313">
        <ele>1991.551</ele>
        <time>2020-09-06T12:00:43Z</time>
      </trkpt>
      <trkpt lat="42.776442" lon="-.653375">
        <ele>1991.159</ele>
        <time>2020-09-06T12:00:46Z</time>
      </trkpt>
      <trkpt lat="42.776433" lon="-.65344">
        <ele>1990.788</ele>
        <time>2020-09-06T12:00:50Z</time>
      </trkpt>
      <trkpt lat="42.776421" lon="-.653507">
        <ele>1990.311</ele>
        <time>2020-09-06T12:00:54Z</time>
      </trkpt>
      <trkpt lat="42.776418" lon="-.653574">
        <ele>1990.154</ele>
        <time>2020-09-06T12:00:59Z</time>
      </trkpt>
      <trkpt lat="42.776411" lon="-.65364">
        <ele>1990.024</ele>
        <time>2020-09-06T12:01:03Z</time>
      </trkpt>
      <trkpt lat="42.776416" lon="-.653702">
        <ele>1989.804</ele>
        <time>2020-09-06T12:01:07Z</time>
      </trkpt>
      <trkpt lat="42.776428" lon="-.653763">
        <ele>1989.514</ele>
        <time>2020-09-06T12:01:12Z</time>
      </trkpt>
      <trkpt lat="42.776429" lon="-.653836">
        <ele>1988.308</ele>
        <time>2020-09-06T12:01:22Z</time>
      </trkpt>
      <trkpt lat="42.776426" lon="-.653906">
        <ele>1987.387</ele>
        <time>2020-09-06T12:01:26Z</time>
      </trkpt>
      <trkpt lat="42.77643" lon="-.653971">
        <ele>1986.438</ele>
        <time>2020-09-06T12:01:30Z</time>
      </trkpt>
      <trkpt lat="42.776429" lon="-.654033">
        <ele>1985.714</ele>
        <time>2020-09-06T12:01:35Z</time>
      </trkpt>
      <trkpt lat="42.776421" lon="-.654101">
        <ele>1984.659</ele>
        <time>2020-09-06T12:01:41Z</time>
      </trkpt>
      <trkpt lat="42.776411" lon="-.654163">
        <ele>1983.327</ele>
        <time>2020-09-06T12:01:47Z</time>
      </trkpt>
      <trkpt lat="42.776397" lon="-.654226">
        <ele>1982.366</ele>
        <time>2020-09-06T12:01:51Z</time>
      </trkpt>
      <trkpt lat="42.776388" lon="-.654289">
        <ele>1981.729</ele>
        <time>2020-09-06T12:01:55Z</time>
      </trkpt>
      <trkpt lat="42.77637" lon="-.654354">
        <ele>1981.372</ele>
        <time>2020-09-06T12:02:01Z</time>
      </trkpt>
      <trkpt lat="42.776355" lon="-.654414">
        <ele>1981.054</ele>
        <time>2020-09-06T12:02:06Z</time>
      </trkpt>
      <trkpt lat="42.776344" lon="-.654481">
        <ele>1980.456</ele>
        <time>2020-09-06T12:02:15Z</time>
      </trkpt>
      <trkpt lat="42.776333" lon="-.65454">
        <ele>1980.011</ele>
        <time>2020-09-06T12:02:19Z</time>
      </trkpt>
      <trkpt lat="42.77631" lon="-.654601">
        <ele>1979.208</ele>
        <time>2020-09-06T12:02:24Z</time>
      </trkpt>
      <trkpt lat="42.776307" lon="-.65467">
        <ele>1978.530</ele>
        <time>2020-09-06T12:02:30Z</time>
      </trkpt>
      <trkpt lat="42.776303" lon="-.654732">
        <ele>1978.111</ele>
        <time>2020-09-06T12:02:38Z</time>
      </trkpt>
      <trkpt lat="42.776327" lon="-.654787">
        <ele>1976.677</ele>
        <time>2020-09-06T12:02:47Z</time>
      </trkpt>
      <trkpt lat="42.776318" lon="-.65485">
        <ele>1974.972</ele>
        <time>2020-09-06T12:02:52Z</time>
      </trkpt>
      <trkpt lat="42.776299" lon="-.654907">
        <ele>1973.660</ele>
        <time>2020-09-06T12:02:55Z</time>
      </trkpt>
      <trkpt lat="42.776277" lon="-.654974">
        <ele>1972.549</ele>
        <time>2020-09-06T12:02:59Z</time>
      </trkpt>
      <trkpt lat="42.776264" lon="-.65504">
        <ele>1971.672</ele>
        <time>2020-09-06T12:03:03Z</time>
      </trkpt>
      <trkpt lat="42.776256" lon="-.655103">
        <ele>1970.535</ele>
        <time>2020-09-06T12:03:06Z</time>
      </trkpt>
      <trkpt lat="42.77625" lon="-.655167">
        <ele>1969.173</ele>
        <time>2020-09-06T12:03:11Z</time>
      </trkpt>
      <trkpt lat="42.776235" lon="-.655233">
        <ele>1967.785</ele>
        <time>2020-09-06T12:03:17Z</time>
      </trkpt>
      <trkpt lat="42.776235" lon="-.655303">
        <ele>1966.813</ele>
        <time>2020-09-06T12:03:22Z</time>
      </trkpt>
      <trkpt lat="42.776224" lon="-.655369">
        <ele>1966.108</ele>
        <time>2020-09-06T12:03:28Z</time>
      </trkpt>
      <trkpt lat="42.776193" lon="-.655421">
        <ele>1965.452</ele>
        <time>2020-09-06T12:03:33Z</time>
      </trkpt>
      <trkpt lat="42.776157" lon="-.655464">
        <ele>1964.533</ele>
        <time>2020-09-06T12:03:37Z</time>
      </trkpt>
      <trkpt lat="42.776126" lon="-.655515">
        <ele>1963.659</ele>
        <time>2020-09-06T12:03:40Z</time>
      </trkpt>
      <trkpt lat="42.7761" lon="-.655568">
        <ele>1962.854</ele>
        <time>2020-09-06T12:03:44Z</time>
      </trkpt>
      <trkpt lat="42.776061" lon="-.655611">
        <ele>1962.282</ele>
        <time>2020-09-06T12:03:48Z</time>
      </trkpt>
      <trkpt lat="42.776027" lon="-.655655">
        <ele>1961.791</ele>
        <time>2020-09-06T12:03:52Z</time>
      </trkpt>
      <trkpt lat="42.775996" lon="-.6557">
        <ele>1961.354</ele>
        <time>2020-09-06T12:04:01Z</time>
      </trkpt>
      <trkpt lat="42.775994" lon="-.655765">
        <ele>1960.257</ele>
        <time>2020-09-06T12:04:09Z</time>
      </trkpt>
      <trkpt lat="42.775991" lon="-.655826">
        <ele>1959.116</ele>
        <time>2020-09-06T12:04:13Z</time>
      </trkpt>
      <trkpt lat="42.775974" lon="-.655892">
        <ele>1958.376</ele>
        <time>2020-09-06T12:04:17Z</time>
      </trkpt>
      <trkpt lat="42.77596" lon="-.655961">
        <ele>1957.713</ele>
        <time>2020-09-06T12:04:20Z</time>
      </trkpt>
      <trkpt lat="42.775941" lon="-.656025">
        <ele>1957.108</ele>
        <time>2020-09-06T12:04:24Z</time>
      </trkpt>
      <trkpt lat="42.775926" lon="-.656084">
        <ele>1956.636</ele>
        <time>2020-09-06T12:04:29Z</time>
      </trkpt>
      <trkpt lat="42.775907" lon="-.656144">
        <ele>1955.777</ele>
        <time>2020-09-06T12:04:34Z</time>
      </trkpt>
      <trkpt lat="42.775873" lon="-.656194">
        <ele>1954.743</ele>
        <time>2020-09-06T12:04:38Z</time>
      </trkpt>
      <trkpt lat="42.775844" lon="-.656251">
        <ele>1953.988</ele>
        <time>2020-09-06T12:04:42Z</time>
      </trkpt>
      <trkpt lat="42.775823" lon="-.656307">
        <ele>1952.736</ele>
        <time>2020-09-06T12:04:47Z</time>
      </trkpt>
      <trkpt lat="42.775793" lon="-.656354">
        <ele>1951.695</ele>
        <time>2020-09-06T12:04:51Z</time>
      </trkpt>
      <trkpt lat="42.775765" lon="-.65641">
        <ele>1950.618</ele>
        <time>2020-09-06T12:04:57Z</time>
      </trkpt>
      <trkpt lat="42.775726" lon="-.656459">
        <ele>1949.391</ele>
        <time>2020-09-06T12:05:06Z</time>
      </trkpt>
      <trkpt lat="42.775688" lon="-.656491">
        <ele>1948.312</ele>
        <time>2020-09-06T12:05:09Z</time>
      </trkpt>
      <trkpt lat="42.775646" lon="-.656519">
        <ele>1947.632</ele>
        <time>2020-09-06T12:05:12Z</time>
      </trkpt>
      <trkpt lat="42.775601" lon="-.65655">
        <ele>1947.105</ele>
        <time>2020-09-06T12:05:15Z</time>
      </trkpt>
      <trkpt lat="42.775555" lon="-.656596">
        <ele>1946.608</ele>
        <time>2020-09-06T12:05:19Z</time>
      </trkpt>
      <trkpt lat="42.775535" lon="-.656653">
        <ele>1946.056</ele>
        <time>2020-09-06T12:05:24Z</time>
      </trkpt>
      <trkpt lat="42.775533" lon="-.656715">
        <ele>1945.467</ele>
        <time>2020-09-06T12:05:27Z</time>
      </trkpt>
      <trkpt lat="42.775527" lon="-.656787">
        <ele>1944.973</ele>
        <time>2020-09-06T12:05:31Z</time>
      </trkpt>
      <trkpt lat="42.775521" lon="-.656853">
        <ele>1944.258</ele>
        <time>2020-09-06T12:05:37Z</time>
      </trkpt>
      <trkpt lat="42.775492" lon="-.656911">
        <ele>1943.626</ele>
        <time>2020-09-06T12:05:40Z</time>
      </trkpt>
      <trkpt lat="42.77546" lon="-.656959">
        <ele>1943.025</ele>
        <time>2020-09-06T12:05:45Z</time>
      </trkpt>
      <trkpt lat="42.775429" lon="-.657005">
        <ele>1942.488</ele>
        <time>2020-09-06T12:05:49Z</time>
      </trkpt>
      <trkpt lat="42.775392" lon="-.657042">
        <ele>1942.071</ele>
        <time>2020-09-06T12:05:52Z</time>
      </trkpt>
      <trkpt lat="42.775358" lon="-.657083">
        <ele>1941.512</ele>
        <time>2020-09-06T12:05:57Z</time>
      </trkpt>
      <trkpt lat="42.775345" lon="-.657144">
        <ele>1941.332</ele>
        <time>2020-09-06T12:06:01Z</time>
      </trkpt>
      <trkpt lat="42.77533" lon="-.657206">
        <ele>1941.205</ele>
        <time>2020-09-06T12:06:05Z</time>
      </trkpt>
      <trkpt lat="42.775307" lon="-.65726">
        <ele>1940.808</ele>
        <time>2020-09-06T12:06:10Z</time>
      </trkpt>
      <trkpt lat="42.775287" lon="-.657321">
        <ele>1940.146</ele>
        <time>2020-09-06T12:06:16Z</time>
      </trkpt>
      <trkpt lat="42.775287" lon="-.657385">
        <ele>1939.447</ele>
        <time>2020-09-06T12:06:19Z</time>
      </trkpt>
      <trkpt lat="42.775284" lon="-.657454">
        <ele>1938.743</ele>
        <time>2020-09-06T12:06:23Z</time>
      </trkpt>
      <trkpt lat="42.775286" lon="-.657522">
        <ele>1937.988</ele>
        <time>2020-09-06T12:06:28Z</time>
      </trkpt>
      <trkpt lat="42.775294" lon="-.657583">
        <ele>1937.166</ele>
        <time>2020-09-06T12:06:32Z</time>
      </trkpt>
      <trkpt lat="42.775298" lon="-.657645">
        <ele>1936.485</ele>
        <time>2020-09-06T12:06:36Z</time>
      </trkpt>
      <trkpt lat="42.775291" lon="-.657712">
        <ele>1935.738</ele>
        <time>2020-09-06T12:06:39Z</time>
      </trkpt>
      <trkpt lat="42.775283" lon="-.657783">
        <ele>1935.271</ele>
        <time>2020-09-06T12:06:43Z</time>
      </trkpt>
      <trkpt lat="42.775285" lon="-.657844">
        <ele>1935.024</ele>
        <time>2020-09-06T12:06:46Z</time>
      </trkpt>
      <trkpt lat="42.775295" lon="-.657916">
        <ele>1935.204</ele>
        <time>2020-09-06T12:06:51Z</time>
      </trkpt>
      <trkpt lat="42.775298" lon="-.657977">
        <ele>1935.514</ele>
        <time>2020-09-06T12:06:55Z</time>
      </trkpt>
      <trkpt lat="42.775273" lon="-.658041">
        <ele>1935.808</ele>
        <time>2020-09-06T12:06:59Z</time>
      </trkpt>
      <trkpt lat="42.775256" lon="-.658103">
        <ele>1935.917</ele>
        <time>2020-09-06T12:07:03Z</time>
      </trkpt>
      <trkpt lat="42.775238" lon="-.658169">
        <ele>1935.848</ele>
        <time>2020-09-06T12:07:07Z</time>
      </trkpt>
      <trkpt lat="42.775216" lon="-.658225">
        <ele>1935.684</ele>
        <time>2020-09-06T12:07:12Z</time>
      </trkpt>
      <trkpt lat="42.775184" lon="-.658275">
        <ele>1935.429</ele>
        <time>2020-09-06T12:07:16Z</time>
      </trkpt>
      <trkpt lat="42.775168" lon="-.658336">
        <ele>1935.337</ele>
        <time>2020-09-06T12:07:20Z</time>
      </trkpt>
      <trkpt lat="42.775151" lon="-.658393">
        <ele>1935.446</ele>
        <time>2020-09-06T12:07:23Z</time>
      </trkpt>
      <trkpt lat="42.775139" lon="-.658457">
        <ele>1935.619</ele>
        <time>2020-09-06T12:07:27Z</time>
      </trkpt>
      <trkpt lat="42.775131" lon="-.658522">
        <ele>1935.792</ele>
        <time>2020-09-06T12:07:32Z</time>
      </trkpt>
      <trkpt lat="42.775104" lon="-.658582">
        <ele>1935.924</ele>
        <time>2020-09-06T12:07:36Z</time>
      </trkpt>
      <trkpt lat="42.775084" lon="-.65864">
        <ele>1935.804</ele>
        <time>2020-09-06T12:07:40Z</time>
      </trkpt>
      <trkpt lat="42.775077" lon="-.658703">
        <ele>1935.514</ele>
        <time>2020-09-06T12:07:46Z</time>
      </trkpt>
      <trkpt lat="42.775049" lon="-.658753">
        <ele>1935.308</ele>
        <time>2020-09-06T12:08:09Z</time>
      </trkpt>
      <trkpt lat="42.775085" lon="-.658818">
        <ele>1935.097</ele>
        <time>2020-09-06T12:08:19Z</time>
      </trkpt>
      <trkpt lat="42.775115" lon="-.658884">
        <ele>1934.788</ele>
        <time>2020-09-06T12:08:23Z</time>
      </trkpt>
      <trkpt lat="42.775123" lon="-.658945">
        <ele>1934.464</ele>
        <time>2020-09-06T12:08:26Z</time>
      </trkpt>
      <trkpt lat="42.775121" lon="-.659011">
        <ele>1933.989</ele>
        <time>2020-09-06T12:08:32Z</time>
      </trkpt>
      <trkpt lat="42.775126" lon="-.65908">
        <ele>1933.117</ele>
        <time>2020-09-06T12:08:38Z</time>
      </trkpt>
      <trkpt lat="42.775113" lon="-.659139">
        <ele>1932.686</ele>
        <time>2020-09-06T12:08:44Z</time>
      </trkpt>
      <trkpt lat="42.775126" lon="-.659202">
        <ele>1931.359</ele>
        <time>2020-09-06T12:08:50Z</time>
      </trkpt>
      <trkpt lat="42.775163" lon="-.65926">
        <ele>1930.292</ele>
        <time>2020-09-06T12:08:53Z</time>
      </trkpt>
      <trkpt lat="42.775194" lon="-.659306">
        <ele>1928.714</ele>
        <time>2020-09-06T12:08:56Z</time>
      </trkpt>
      <trkpt lat="42.775194" lon="-.659306">
        <ele>1928.754</ele>
        <time>2020-09-06T12:08:56Z</time>
      </trkpt>
      <trkpt lat="42.775233" lon="-.659343">
        <ele>1928.209</ele>
        <time>2020-09-06T12:08:58Z</time>
      </trkpt>
      <trkpt lat="42.775288" lon="-.659367">
        <ele>1927.908</ele>
        <time>2020-09-06T12:09:01Z</time>
      </trkpt>
      <trkpt lat="42.77533" lon="-.659393">
        <ele>1927.726</ele>
        <time>2020-09-06T12:09:03Z</time>
      </trkpt>
      <trkpt lat="42.775369" lon="-.659441">
        <ele>1927.627</ele>
        <time>2020-09-06T12:09:07Z</time>
      </trkpt>
      <trkpt lat="42.775395" lon="-.659496">
        <ele>1927.693</ele>
        <time>2020-09-06T12:09:12Z</time>
      </trkpt>
      <trkpt lat="42.775419" lon="-.65955">
        <ele>1927.958</ele>
        <time>2020-09-06T12:09:16Z</time>
      </trkpt>
      <trkpt lat="42.775444" lon="-.659602">
        <ele>1928.226</ele>
        <time>2020-09-06T12:09:19Z</time>
      </trkpt>
      <trkpt lat="42.775472" lon="-.659659">
        <ele>1928.465</ele>
        <time>2020-09-06T12:09:23Z</time>
      </trkpt>
      <trkpt lat="42.775496" lon="-.659714">
        <ele>1928.528</ele>
        <time>2020-09-06T12:09:26Z</time>
      </trkpt>
      <trkpt lat="42.775531" lon="-.659765">
        <ele>1928.481</ele>
        <time>2020-09-06T12:09:30Z</time>
      </trkpt>
      <trkpt lat="42.775552" lon="-.659826">
        <ele>1928.456</ele>
        <time>2020-09-06T12:09:33Z</time>
      </trkpt>
      <trkpt lat="42.775585" lon="-.65987">
        <ele>1928.459</ele>
        <time>2020-09-06T12:09:37Z</time>
      </trkpt>
      <trkpt lat="42.775629" lon="-.659893">
        <ele>1928.214</ele>
        <time>2020-09-06T12:09:44Z</time>
      </trkpt>
      <trkpt lat="42.775671" lon="-.659921">
        <ele>1928.108</ele>
        <time>2020-09-06T12:09:48Z</time>
      </trkpt>
      <trkpt lat="42.77572" lon="-.659955">
        <ele>1927.820</ele>
        <time>2020-09-06T12:09:52Z</time>
      </trkpt>
      <trkpt lat="42.775763" lon="-.659992">
        <ele>1927.451</ele>
        <time>2020-09-06T12:09:57Z</time>
      </trkpt>
      <trkpt lat="42.775807" lon="-.660033">
        <ele>1927.197</ele>
        <time>2020-09-06T12:10:00Z</time>
      </trkpt>
      <trkpt lat="42.775847" lon="-.66007">
        <ele>1926.892</ele>
        <time>2020-09-06T12:10:03Z</time>
      </trkpt>
      <trkpt lat="42.775878" lon="-.660122">
        <ele>1926.460</ele>
        <time>2020-09-06T12:10:07Z</time>
      </trkpt>
      <trkpt lat="42.775902" lon="-.66018">
        <ele>1926.099</ele>
        <time>2020-09-06T12:10:11Z</time>
      </trkpt>
      <trkpt lat="42.775941" lon="-.660215">
        <ele>1925.852</ele>
        <time>2020-09-06T12:10:15Z</time>
      </trkpt>
      <trkpt lat="42.775978" lon="-.660259">
        <ele>1925.875</ele>
        <time>2020-09-06T12:10:19Z</time>
      </trkpt>
      <trkpt lat="42.776001" lon="-.660322">
        <ele>1926.059</ele>
        <time>2020-09-06T12:10:23Z</time>
      </trkpt>
      <trkpt lat="42.776026" lon="-.660378">
        <ele>1926.303</ele>
        <time>2020-09-06T12:10:27Z</time>
      </trkpt>
      <trkpt lat="42.776044" lon="-.660437">
        <ele>1926.523</ele>
        <time>2020-09-06T12:10:31Z</time>
      </trkpt>
      <trkpt lat="42.776059" lon="-.660515">
        <ele>1926.508</ele>
        <time>2020-09-06T12:10:36Z</time>
      </trkpt>
      <trkpt lat="42.776077" lon="-.660573">
        <ele>1926.480</ele>
        <time>2020-09-06T12:10:39Z</time>
      </trkpt>
      <trkpt lat="42.776097" lon="-.660635">
        <ele>1926.151</ele>
        <time>2020-09-06T12:10:45Z</time>
      </trkpt>
      <trkpt lat="42.776116" lon="-.660693">
        <ele>1925.547</ele>
        <time>2020-09-06T12:10:50Z</time>
      </trkpt>
      <trkpt lat="42.776144" lon="-.66075">
        <ele>1924.942</ele>
        <time>2020-09-06T12:10:55Z</time>
      </trkpt>
      <trkpt lat="42.776173" lon="-.660805">
        <ele>1924.670</ele>
        <time>2020-09-06T12:10:59Z</time>
      </trkpt>
      <trkpt lat="42.776208" lon="-.660863">
        <ele>1924.499</ele>
        <time>2020-09-06T12:11:03Z</time>
      </trkpt>
      <trkpt lat="42.77625" lon="-.660913">
        <ele>1924.152</ele>
        <time>2020-09-06T12:11:07Z</time>
      </trkpt>
      <trkpt lat="42.776287" lon="-.660953">
        <ele>1924.055</ele>
        <time>2020-09-06T12:11:11Z</time>
      </trkpt>
      <trkpt lat="42.776326" lon="-.660992">
        <ele>1924.031</ele>
        <time>2020-09-06T12:11:14Z</time>
      </trkpt>
      <trkpt lat="42.776361" lon="-.661038">
        <ele>1924.161</ele>
        <time>2020-09-06T12:11:17Z</time>
      </trkpt>
      <trkpt lat="42.776395" lon="-.661084">
        <ele>1924.307</ele>
        <time>2020-09-06T12:11:20Z</time>
      </trkpt>
      <trkpt lat="42.776438" lon="-.661126">
        <ele>1924.608</ele>
        <time>2020-09-06T12:11:24Z</time>
      </trkpt>
      <trkpt lat="42.776475" lon="-.661167">
        <ele>1924.818</ele>
        <time>2020-09-06T12:11:29Z</time>
      </trkpt>
      <trkpt lat="42.776512" lon="-.661209">
        <ele>1925.059</ele>
        <time>2020-09-06T12:11:33Z</time>
      </trkpt>
      <trkpt lat="42.776534" lon="-.661263">
        <ele>1925.035</ele>
        <time>2020-09-06T12:11:47Z</time>
      </trkpt>
      <trkpt lat="42.77657" lon="-.661303">
        <ele>1924.990</ele>
        <time>2020-09-06T12:11:52Z</time>
      </trkpt>
      <trkpt lat="42.776607" lon="-.661346">
        <ele>1925.228</ele>
        <time>2020-09-06T12:11:57Z</time>
      </trkpt>
      <trkpt lat="42.776643" lon="-.661385">
        <ele>1925.457</ele>
        <time>2020-09-06T12:12:03Z</time>
      </trkpt>
      <trkpt lat="42.776689" lon="-.661417">
        <ele>1925.570</ele>
        <time>2020-09-06T12:12:07Z</time>
      </trkpt>
      <trkpt lat="42.776724" lon="-.661458">
        <ele>1925.613</ele>
        <time>2020-09-06T12:12:11Z</time>
      </trkpt>
      <trkpt lat="42.776751" lon="-.661509">
        <ele>1925.711</ele>
        <time>2020-09-06T12:12:15Z</time>
      </trkpt>
      <trkpt lat="42.776781" lon="-.661562">
        <ele>1926.121</ele>
        <time>2020-09-06T12:12:19Z</time>
      </trkpt>
      <trkpt lat="42.776822" lon="-.661606">
        <ele>1926.803</ele>
        <time>2020-09-06T12:12:23Z</time>
      </trkpt>
      <trkpt lat="42.776858" lon="-.66165">
        <ele>1927.408</ele>
        <time>2020-09-06T12:12:27Z</time>
      </trkpt>
      <trkpt lat="42.776878" lon="-.661711">
        <ele>1927.816</ele>
        <time>2020-09-06T12:12:32Z</time>
      </trkpt>
      <trkpt lat="42.776896" lon="-.661771">
        <ele>1928.317</ele>
        <time>2020-09-06T12:12:36Z</time>
      </trkpt>
      <trkpt lat="42.776912" lon="-.661843">
        <ele>1928.913</ele>
        <time>2020-09-06T12:12:41Z</time>
      </trkpt>
      <trkpt lat="42.776931" lon="-.6619">
        <ele>1929.338</ele>
        <time>2020-09-06T12:12:45Z</time>
      </trkpt>
      <trkpt lat="42.776955" lon="-.661953">
        <ele>1929.786</ele>
        <time>2020-09-06T12:12:48Z</time>
      </trkpt>
      <trkpt lat="42.776989" lon="-.662004">
        <ele>1930.175</ele>
        <time>2020-09-06T12:12:52Z</time>
      </trkpt>
      <trkpt lat="42.777023" lon="-.662066">
        <ele>1930.438</ele>
        <time>2020-09-06T12:12:56Z</time>
      </trkpt>
      <trkpt lat="42.777047" lon="-.66212">
        <ele>1930.691</ele>
        <time>2020-09-06T12:13:00Z</time>
      </trkpt>
      <trkpt lat="42.777054" lon="-.662191">
        <ele>1931.015</ele>
        <time>2020-09-06T12:13:05Z</time>
      </trkpt>
      <trkpt lat="42.777029" lon="-.662246">
        <ele>1931.565</ele>
        <time>2020-09-06T12:13:10Z</time>
      </trkpt>
      <trkpt lat="42.777014" lon="-.662311">
        <ele>1932.111</ele>
        <time>2020-09-06T12:13:15Z</time>
      </trkpt>
      <trkpt lat="42.777023" lon="-.662375">
        <ele>1932.608</ele>
        <time>2020-09-06T12:13:20Z</time>
      </trkpt>
      <trkpt lat="42.777044" lon="-.662433">
        <ele>1932.836</ele>
        <time>2020-09-06T12:13:24Z</time>
      </trkpt>
      <trkpt lat="42.777064" lon="-.662491">
        <ele>1932.817</ele>
        <time>2020-09-06T12:13:29Z</time>
      </trkpt>
      <trkpt lat="42.777084" lon="-.662552">
        <ele>1932.583</ele>
        <time>2020-09-06T12:13:33Z</time>
      </trkpt>
      <trkpt lat="42.777104" lon="-.662607">
        <ele>1932.228</ele>
        <time>2020-09-06T12:13:37Z</time>
      </trkpt>
      <trkpt lat="42.777124" lon="-.662672">
        <ele>1931.676</ele>
        <time>2020-09-06T12:13:41Z</time>
      </trkpt>
      <trkpt lat="42.777146" lon="-.662747">
        <ele>1930.985</ele>
        <time>2020-09-06T12:13:45Z</time>
      </trkpt>
      <trkpt lat="42.777153" lon="-.662816">
        <ele>1930.298</ele>
        <time>2020-09-06T12:13:49Z</time>
      </trkpt>
      <trkpt lat="42.777162" lon="-.662887">
        <ele>1929.571</ele>
        <time>2020-09-06T12:13:53Z</time>
      </trkpt>
      <trkpt lat="42.777177" lon="-.662952">
        <ele>1928.824</ele>
        <time>2020-09-06T12:13:57Z</time>
      </trkpt>
      <trkpt lat="42.777194" lon="-.663027">
        <ele>1928.104</ele>
        <time>2020-09-06T12:14:01Z</time>
      </trkpt>
      <trkpt lat="42.777207" lon="-.663087">
        <ele>1927.114</ele>
        <time>2020-09-06T12:14:05Z</time>
      </trkpt>
      <trkpt lat="42.777224" lon="-.663156">
        <ele>1926.208</ele>
        <time>2020-09-06T12:14:09Z</time>
      </trkpt>
      <trkpt lat="42.777241" lon="-.663225">
        <ele>1925.597</ele>
        <time>2020-09-06T12:14:13Z</time>
      </trkpt>
      <trkpt lat="42.777265" lon="-.663277">
        <ele>1924.728</ele>
        <time>2020-09-06T12:14:18Z</time>
      </trkpt>
      <trkpt lat="42.777293" lon="-.663329">
        <ele>1924.224</ele>
        <time>2020-09-06T12:14:22Z</time>
      </trkpt>
      <trkpt lat="42.777315" lon="-.663383">
        <ele>1923.819</ele>
        <time>2020-09-06T12:14:28Z</time>
      </trkpt>
      <trkpt lat="42.777341" lon="-.663438">
        <ele>1923.347</ele>
        <time>2020-09-06T12:14:33Z</time>
      </trkpt>
      <trkpt lat="42.777372" lon="-.663489">
        <ele>1922.986</ele>
        <time>2020-09-06T12:14:37Z</time>
      </trkpt>
      <trkpt lat="42.777403" lon="-.663534">
        <ele>1922.719</ele>
        <time>2020-09-06T12:14:40Z</time>
      </trkpt>
      <trkpt lat="42.777435" lon="-.663591">
        <ele>1922.712</ele>
        <time>2020-09-06T12:14:44Z</time>
      </trkpt>
      <trkpt lat="42.777473" lon="-.663639">
        <ele>1922.837</ele>
        <time>2020-09-06T12:14:48Z</time>
      </trkpt>
      <trkpt lat="42.777505" lon="-.663688">
        <ele>1922.949</ele>
        <time>2020-09-06T12:14:55Z</time>
      </trkpt>
      <trkpt lat="42.777549" lon="-.663741">
        <ele>1922.313</ele>
        <time>2020-09-06T12:15:04Z</time>
      </trkpt>
      <trkpt lat="42.777597" lon="-.663765">
        <ele>1922.008</ele>
        <time>2020-09-06T12:15:08Z</time>
      </trkpt>
      <trkpt lat="42.777642" lon="-.663791">
        <ele>1921.468</ele>
        <time>2020-09-06T12:15:14Z</time>
      </trkpt>
      <trkpt lat="42.777694" lon="-.663808">
        <ele>1920.899</ele>
        <time>2020-09-06T12:15:18Z</time>
      </trkpt>
      <trkpt lat="42.777733" lon="-.663848">
        <ele>1920.085</ele>
        <time>2020-09-06T12:15:23Z</time>
      </trkpt>
      <trkpt lat="42.777779" lon="-.663861">
        <ele>1919.120</ele>
        <time>2020-09-06T12:15:30Z</time>
      </trkpt>
      <trkpt lat="42.777824" lon="-.663876">
        <ele>1918.358</ele>
        <time>2020-09-06T12:15:33Z</time>
      </trkpt>
      <trkpt lat="42.777866" lon="-.663905">
        <ele>1917.527</ele>
        <time>2020-09-06T12:15:38Z</time>
      </trkpt>
      <trkpt lat="42.777909" lon="-.663938">
        <ele>1916.630</ele>
        <time>2020-09-06T12:15:41Z</time>
      </trkpt>
      <trkpt lat="42.777947" lon="-.663978">
        <ele>1915.523</ele>
        <time>2020-09-06T12:15:47Z</time>
      </trkpt>
      <trkpt lat="42.777954" lon="-.664042">
        <ele>1913.891</ele>
        <time>2020-09-06T12:15:59Z</time>
      </trkpt>
      <trkpt lat="42.777964" lon="-.664108">
        <ele>1912.681</ele>
        <time>2020-09-06T12:16:04Z</time>
      </trkpt>
      <trkpt lat="42.777965" lon="-.664173">
        <ele>1911.419</ele>
        <time>2020-09-06T12:16:11Z</time>
      </trkpt>
      <trkpt lat="42.777965" lon="-.664173">
        <ele>1911.408</ele>
        <time>2020-09-06T12:16:11Z</time>
      </trkpt>
      <trkpt lat="42.777948" lon="-.664236">
        <ele>1909.524</ele>
        <time>2020-09-06T12:16:16Z</time>
      </trkpt>
      <trkpt lat="42.777924" lon="-.664298">
        <ele>1908.145</ele>
        <time>2020-09-06T12:16:20Z</time>
      </trkpt>
      <trkpt lat="42.777903" lon="-.664359">
        <ele>1907.251</ele>
        <time>2020-09-06T12:16:25Z</time>
      </trkpt>
      <trkpt lat="42.777905" lon="-.664422">
        <ele>1905.736</ele>
        <time>2020-09-06T12:16:34Z</time>
      </trkpt>
      <trkpt lat="42.777903" lon="-.664487">
        <ele>1904.694</ele>
        <time>2020-09-06T12:16:39Z</time>
      </trkpt>
      <trkpt lat="42.777874" lon="-.664535">
        <ele>1903.953</ele>
        <time>2020-09-06T12:16:50Z</time>
      </trkpt>
      <trkpt lat="42.777874" lon="-.664598">
        <ele>1901.876</ele>
        <time>2020-09-06T12:16:56Z</time>
      </trkpt>
      <trkpt lat="42.777909" lon="-.664646">
        <ele>1900.649</ele>
        <time>2020-09-06T12:17:01Z</time>
      </trkpt>
      <trkpt lat="42.777951" lon="-.66467">
        <ele>1898.738</ele>
        <time>2020-09-06T12:17:07Z</time>
      </trkpt>
      <trkpt lat="42.777999" lon="-.664674">
        <ele>1897.370</ele>
        <time>2020-09-06T12:17:11Z</time>
      </trkpt>
      <trkpt lat="42.778047" lon="-.664643">
        <ele>1894.817</ele>
        <time>2020-09-06T12:17:30Z</time>
      </trkpt>
      <trkpt lat="42.778093" lon="-.66463">
        <ele>1893.308</ele>
        <time>2020-09-06T12:17:36Z</time>
      </trkpt>
      <trkpt lat="42.778141" lon="-.664619">
        <ele>1892.368</ele>
        <time>2020-09-06T12:17:44Z</time>
      </trkpt>
      <trkpt lat="42.778189" lon="-.664612">
        <ele>1891.719</ele>
        <time>2020-09-06T12:17:49Z</time>
      </trkpt>
      <trkpt lat="42.778233" lon="-.664628">
        <ele>1891.135</ele>
        <time>2020-09-06T12:17:58Z</time>
      </trkpt>
      <trkpt lat="42.778285" lon="-.664646">
        <ele>1890.490</ele>
        <time>2020-09-06T12:18:02Z</time>
      </trkpt>
      <trkpt lat="42.77833" lon="-.664648">
        <ele>1889.868</ele>
        <time>2020-09-06T12:18:05Z</time>
      </trkpt>
      <trkpt lat="42.778378" lon="-.664653">
        <ele>1889.177</ele>
        <time>2020-09-06T12:18:08Z</time>
      </trkpt>
      <trkpt lat="42.778422" lon="-.664636">
        <ele>1888.620</ele>
        <time>2020-09-06T12:18:15Z</time>
      </trkpt>
      <trkpt lat="42.77835" lon="-.664646">
        <ele>1886.343</ele>
        <time>2020-09-06T12:22:21Z</time>
      </trkpt>
      <trkpt lat="42.778305" lon="-.664658">
        <ele>1885.074</ele>
        <time>2020-09-06T12:22:25Z</time>
      </trkpt>
      <trkpt lat="42.778362" lon="-.664654">
        <ele>1883.756</ele>
        <time>2020-09-06T12:24:47Z</time>
      </trkpt>
      <trkpt lat="42.778406" lon="-.664683">
        <ele>1882.421</ele>
        <time>2020-09-06T12:27:46Z</time>
      </trkpt>
      <trkpt lat="42.778434" lon="-.664742">
        <ele>1881.608</ele>
        <time>2020-09-06T12:27:49Z</time>
      </trkpt>
      <trkpt lat="42.778445" lon="-.664819">
        <ele>1881.072</ele>
        <time>2020-09-06T12:27:52Z</time>
      </trkpt>
      <trkpt lat="42.778445" lon="-.664885">
        <ele>1880.373</ele>
        <time>2020-09-06T12:27:56Z</time>
      </trkpt>
      <trkpt lat="42.778431" lon="-.664955">
        <ele>1879.719</ele>
        <time>2020-09-06T12:28:01Z</time>
      </trkpt>
      <trkpt lat="42.778404" lon="-.665011">
        <ele>1879.054</ele>
        <time>2020-09-06T12:28:06Z</time>
      </trkpt>
      <trkpt lat="42.778369" lon="-.665052">
        <ele>1878.632</ele>
        <time>2020-09-06T12:28:16Z</time>
      </trkpt>
      <trkpt lat="42.778324" lon="-.665071">
        <ele>1877.981</ele>
        <time>2020-09-06T12:28:24Z</time>
      </trkpt>
      <trkpt lat="42.778288" lon="-.665118">
        <ele>1877.424</ele>
        <time>2020-09-06T12:28:28Z</time>
      </trkpt>
      <trkpt lat="42.778252" lon="-.665163">
        <ele>1876.587</ele>
        <time>2020-09-06T12:28:33Z</time>
      </trkpt>
      <trkpt lat="42.778213" lon="-.665198">
        <ele>1875.669</ele>
        <time>2020-09-06T12:28:36Z</time>
      </trkpt>
      <trkpt lat="42.778171" lon="-.665221">
        <ele>1874.704</ele>
        <time>2020-09-06T12:28:39Z</time>
      </trkpt>
      <trkpt lat="42.778137" lon="-.665271">
        <ele>1873.224</ele>
        <time>2020-09-06T12:28:54Z</time>
      </trkpt>
      <trkpt lat="42.778128" lon="-.665337">
        <ele>1872.108</ele>
        <time>2020-09-06T12:28:58Z</time>
      </trkpt>
      <trkpt lat="42.778124" lon="-.665414">
        <ele>1870.611</ele>
        <time>2020-09-06T12:29:03Z</time>
      </trkpt>
      <trkpt lat="42.778127" lon="-.665483">
        <ele>1869.172</ele>
        <time>2020-09-06T12:29:07Z</time>
      </trkpt>
      <trkpt lat="42.778115" lon="-.665545">
        <ele>1867.798</ele>
        <time>2020-09-06T12:29:12Z</time>
      </trkpt>
      <trkpt lat="42.778099" lon="-.665609">
        <ele>1866.333</ele>
        <time>2020-09-06T12:29:16Z</time>
      </trkpt>
      <trkpt lat="42.778089" lon="-.665675">
        <ele>1865.041</ele>
        <time>2020-09-06T12:29:20Z</time>
      </trkpt>
      <trkpt lat="42.778086" lon="-.665754">
        <ele>1863.550</ele>
        <time>2020-09-06T12:29:24Z</time>
      </trkpt>
      <trkpt lat="42.778089" lon="-.665815">
        <ele>1861.393</ele>
        <time>2020-09-06T12:29:31Z</time>
      </trkpt>
      <trkpt lat="42.778098" lon="-.665877">
        <ele>1859.046</ele>
        <time>2020-09-06T12:29:35Z</time>
      </trkpt>
      <trkpt lat="42.778102" lon="-.665951">
        <ele>1856.563</ele>
        <time>2020-09-06T12:29:40Z</time>
      </trkpt>
      <trkpt lat="42.778114" lon="-.666019">
        <ele>1854.244</ele>
        <time>2020-09-06T12:29:45Z</time>
      </trkpt>
      <trkpt lat="42.778127" lon="-.666086">
        <ele>1851.718</ele>
        <time>2020-09-06T12:29:50Z</time>
      </trkpt>
      <trkpt lat="42.778144" lon="-.666143">
        <ele>1849.608</ele>
        <time>2020-09-06T12:29:56Z</time>
      </trkpt>
      <trkpt lat="42.778163" lon="-.666199">
        <ele>1847.791</ele>
        <time>2020-09-06T12:30:00Z</time>
      </trkpt>
      <trkpt lat="42.778179" lon="-.666261">
        <ele>1846.122</ele>
        <time>2020-09-06T12:30:04Z</time>
      </trkpt>
      <trkpt lat="42.778194" lon="-.666325">
        <ele>1845.028</ele>
        <time>2020-09-06T12:30:09Z</time>
      </trkpt>
      <trkpt lat="42.778204" lon="-.666394">
        <ele>1844.273</ele>
        <time>2020-09-06T12:30:13Z</time>
      </trkpt>
      <trkpt lat="42.778225" lon="-.66646">
        <ele>1843.541</ele>
        <time>2020-09-06T12:30:17Z</time>
      </trkpt>
      <trkpt lat="42.778233" lon="-.666536">
        <ele>1842.820</ele>
        <time>2020-09-06T12:30:21Z</time>
      </trkpt>
      <trkpt lat="42.778241" lon="-.666603">
        <ele>1841.883</ele>
        <time>2020-09-06T12:30:27Z</time>
      </trkpt>
      <trkpt lat="42.778248" lon="-.666669">
        <ele>1840.856</ele>
        <time>2020-09-06T12:30:33Z</time>
      </trkpt>
      <trkpt lat="42.778264" lon="-.666733">
        <ele>1840.193</ele>
        <time>2020-09-06T12:30:36Z</time>
      </trkpt>
      <trkpt lat="42.778289" lon="-.666788">
        <ele>1839.465</ele>
        <time>2020-09-06T12:30:41Z</time>
      </trkpt>
      <trkpt lat="42.778312" lon="-.666844">
        <ele>1838.821</ele>
        <time>2020-09-06T12:30:46Z</time>
      </trkpt>
      <trkpt lat="42.778333" lon="-.666907">
        <ele>1838.408</ele>
        <time>2020-09-06T12:30:50Z</time>
      </trkpt>
      <trkpt lat="42.778357" lon="-.666962">
        <ele>1837.984</ele>
        <time>2020-09-06T12:30:54Z</time>
      </trkpt>
      <trkpt lat="42.778374" lon="-.667021">
        <ele>1837.575</ele>
        <time>2020-09-06T12:30:57Z</time>
      </trkpt>
      <trkpt lat="42.778395" lon="-.667077">
        <ele>1837.011</ele>
        <time>2020-09-06T12:31:01Z</time>
      </trkpt>
      <trkpt lat="42.778422" lon="-.667137">
        <ele>1836.546</ele>
        <time>2020-09-06T12:31:06Z</time>
      </trkpt>
      <trkpt lat="42.778443" lon="-.667207">
        <ele>1835.924</ele>
        <time>2020-09-06T12:31:11Z</time>
      </trkpt>
      <trkpt lat="42.778472" lon="-.667266">
        <ele>1835.143</ele>
        <time>2020-09-06T12:31:15Z</time>
      </trkpt>
      <trkpt lat="42.778516" lon="-.667296">
        <ele>1834.366</ele>
        <time>2020-09-06T12:31:21Z</time>
      </trkpt>
      <trkpt lat="42.778559" lon="-.667327">
        <ele>1833.729</ele>
        <time>2020-09-06T12:31:26Z</time>
      </trkpt>
      <trkpt lat="42.77855" lon="-.667395">
        <ele>1832.646</ele>
        <time>2020-09-06T12:31:34Z</time>
      </trkpt>
      <trkpt lat="42.778573" lon="-.667449">
        <ele>1831.688</ele>
        <time>2020-09-06T12:31:39Z</time>
      </trkpt>
      <trkpt lat="42.778586" lon="-.667512">
        <ele>1830.816</ele>
        <time>2020-09-06T12:31:42Z</time>
      </trkpt>
      <trkpt lat="42.778583" lon="-.667574">
        <ele>1830.108</ele>
        <time>2020-09-06T12:31:46Z</time>
      </trkpt>
      <trkpt lat="42.778599" lon="-.667633">
        <ele>1829.439</ele>
        <time>2020-09-06T12:31:50Z</time>
      </trkpt>
      <trkpt lat="42.778639" lon="-.667663">
        <ele>1828.710</ele>
        <time>2020-09-06T12:31:57Z</time>
      </trkpt>
      <trkpt lat="42.778645" lon="-.667726">
        <ele>1827.056</ele>
        <time>2020-09-06T12:32:12Z</time>
      </trkpt>
      <trkpt lat="42.778662" lon="-.667789">
        <ele>1825.911</ele>
        <time>2020-09-06T12:32:16Z</time>
      </trkpt>
      <trkpt lat="42.778668" lon="-.667855">
        <ele>1825.259</ele>
        <time>2020-09-06T12:32:23Z</time>
      </trkpt>
      <trkpt lat="42.778682" lon="-.667919">
        <ele>1823.458</ele>
        <time>2020-09-06T12:32:35Z</time>
      </trkpt>
      <trkpt lat="42.77867" lon="-.66798">
        <ele>1822.381</ele>
        <time>2020-09-06T12:32:42Z</time>
      </trkpt>
      <trkpt lat="42.778711" lon="-.668013">
        <ele>1820.164</ele>
        <time>2020-09-06T12:32:54Z</time>
      </trkpt>
      <trkpt lat="42.77873" lon="-.668074">
        <ele>1818.779</ele>
        <time>2020-09-06T12:32:58Z</time>
      </trkpt>
      <trkpt lat="42.778741" lon="-.668134">
        <ele>1817.805</ele>
        <time>2020-09-06T12:33:06Z</time>
      </trkpt>
      <trkpt lat="42.778716" lon="-.668186">
        <ele>1816.525</ele>
        <time>2020-09-06T12:33:18Z</time>
      </trkpt>
      <trkpt lat="42.778744" lon="-.668243">
        <ele>1815.708</ele>
        <time>2020-09-06T12:33:23Z</time>
      </trkpt>
      <trkpt lat="42.778785" lon="-.668271">
        <ele>1814.692</ele>
        <time>2020-09-06T12:33:49Z</time>
      </trkpt>
      <trkpt lat="42.778813" lon="-.66832">
        <ele>1813.933</ele>
        <time>2020-09-06T12:33:53Z</time>
      </trkpt>
      <trkpt lat="42.77883" lon="-.668377">
        <ele>1813.289</ele>
        <time>2020-09-06T12:33:59Z</time>
      </trkpt>
      <trkpt lat="42.778848" lon="-.668438">
        <ele>1812.574</ele>
        <time>2020-09-06T12:34:02Z</time>
      </trkpt>
      <trkpt lat="42.778865" lon="-.668499">
        <ele>1811.842</ele>
        <time>2020-09-06T12:34:05Z</time>
      </trkpt>
      <trkpt lat="42.778866" lon="-.668563">
        <ele>1810.961</ele>
        <time>2020-09-06T12:34:09Z</time>
      </trkpt>
      <trkpt lat="42.778858" lon="-.66863">
        <ele>1809.854</ele>
        <time>2020-09-06T12:34:13Z</time>
      </trkpt>
      <trkpt lat="42.778851" lon="-.668698">
        <ele>1808.397</ele>
        <time>2020-09-06T12:34:18Z</time>
      </trkpt>
      <trkpt lat="42.778832" lon="-.668763">
        <ele>1806.655</ele>
        <time>2020-09-06T12:34:22Z</time>
      </trkpt>
      <trkpt lat="42.778847" lon="-.668834">
        <ele>1804.507</ele>
        <time>2020-09-06T12:34:28Z</time>
      </trkpt>
      <trkpt lat="42.778865" lon="-.66889">
        <ele>1802.917</ele>
        <time>2020-09-06T12:34:35Z</time>
      </trkpt>
      <trkpt lat="42.778861" lon="-.668953">
        <ele>1800.108</ele>
        <time>2020-09-06T12:34:40Z</time>
      </trkpt>
      <trkpt lat="42.778838" lon="-.669019">
        <ele>1797.310</ele>
        <time>2020-09-06T12:34:46Z</time>
      </trkpt>
      <trkpt lat="42.778826" lon="-.669083">
        <ele>1795.191</ele>
        <time>2020-09-06T12:34:50Z</time>
      </trkpt>
      <trkpt lat="42.77882" lon="-.669144">
        <ele>1793.187</ele>
        <time>2020-09-06T12:34:53Z</time>
      </trkpt>
      <trkpt lat="42.778835" lon="-.669203">
        <ele>1790.992</ele>
        <time>2020-09-06T12:34:58Z</time>
      </trkpt>
      <trkpt lat="42.778856" lon="-.66926">
        <ele>1788.770</ele>
        <time>2020-09-06T12:35:02Z</time>
      </trkpt>
      <trkpt lat="42.778871" lon="-.669321">
        <ele>1787.119</ele>
        <time>2020-09-06T12:35:16Z</time>
      </trkpt>
      <trkpt lat="42.778906" lon="-.669366">
        <ele>1785.572</ele>
        <time>2020-09-06T12:35:26Z</time>
      </trkpt>
      <trkpt lat="42.778927" lon="-.669421">
        <ele>1784.675</ele>
        <time>2020-09-06T12:35:30Z</time>
      </trkpt>
      <trkpt lat="42.778942" lon="-.66948">
        <ele>1784.088</ele>
        <time>2020-09-06T12:35:37Z</time>
      </trkpt>
      <trkpt lat="42.778948" lon="-.669545">
        <ele>1783.324</ele>
        <time>2020-09-06T12:35:43Z</time>
      </trkpt>
      <trkpt lat="42.778958" lon="-.669609">
        <ele>1782.626</ele>
        <time>2020-09-06T12:35:47Z</time>
      </trkpt>
      <trkpt lat="42.778963" lon="-.66968">
        <ele>1781.808</ele>
        <time>2020-09-06T12:35:50Z</time>
      </trkpt>
      <trkpt lat="42.778971" lon="-.669742">
        <ele>1781.263</ele>
        <time>2020-09-06T12:36:01Z</time>
      </trkpt>
      <trkpt lat="42.778981" lon="-.669803">
        <ele>1780.354</ele>
        <time>2020-09-06T12:36:07Z</time>
      </trkpt>
      <trkpt lat="42.77899" lon="-.66987">
        <ele>1779.310</ele>
        <time>2020-09-06T12:36:10Z</time>
      </trkpt>
      <trkpt lat="42.778995" lon="-.669934">
        <ele>1778.285</ele>
        <time>2020-09-06T12:36:14Z</time>
      </trkpt>
      <trkpt lat="42.778999" lon="-.669998">
        <ele>1777.113</ele>
        <time>2020-09-06T12:36:18Z</time>
      </trkpt>
      <trkpt lat="42.779007" lon="-.670064">
        <ele>1775.722</ele>
        <time>2020-09-06T12:36:22Z</time>
      </trkpt>
      <trkpt lat="42.779023" lon="-.670123">
        <ele>1774.825</ele>
        <time>2020-09-06T12:36:30Z</time>
      </trkpt>
      <trkpt lat="42.77904" lon="-.670189">
        <ele>1772.988</ele>
        <time>2020-09-06T12:36:36Z</time>
      </trkpt>
      <trkpt lat="42.779059" lon="-.670254">
        <ele>1771.541</ele>
        <time>2020-09-06T12:36:39Z</time>
      </trkpt>
      <trkpt lat="42.779071" lon="-.670315">
        <ele>1770.481</ele>
        <time>2020-09-06T12:36:44Z</time>
      </trkpt>
      <trkpt lat="42.779079" lon="-.670376">
        <ele>1768.909</ele>
        <time>2020-09-06T12:36:50Z</time>
      </trkpt>
      <trkpt lat="42.779102" lon="-.670432">
        <ele>1767.508</ele>
        <time>2020-09-06T12:36:54Z</time>
      </trkpt>
      <trkpt lat="42.779119" lon="-.670491">
        <ele>1766.359</ele>
        <time>2020-09-06T12:36:58Z</time>
      </trkpt>
      <trkpt lat="42.779147" lon="-.670546">
        <ele>1765.120</ele>
        <time>2020-09-06T12:37:03Z</time>
      </trkpt>
      <trkpt lat="42.779175" lon="-.670594">
        <ele>1763.266</ele>
        <time>2020-09-06T12:37:07Z</time>
      </trkpt>
      <trkpt lat="42.779175" lon="-.670594">
        <ele>1763.231</ele>
        <time>2020-09-06T12:37:07Z</time>
      </trkpt>
      <trkpt lat="42.779209" lon="-.670638">
        <ele>1762.419</ele>
        <time>2020-09-06T12:37:11Z</time>
      </trkpt>
      <trkpt lat="42.779233" lon="-.670695">
        <ele>1761.528</ele>
        <time>2020-09-06T12:37:16Z</time>
      </trkpt>
      <trkpt lat="42.779251" lon="-.670756">
        <ele>1760.551</ele>
        <time>2020-09-06T12:37:21Z</time>
      </trkpt>
      <trkpt lat="42.779265" lon="-.670819">
        <ele>1759.444</ele>
        <time>2020-09-06T12:37:25Z</time>
      </trkpt>
      <trkpt lat="42.779273" lon="-.670886">
        <ele>1758.491</ele>
        <time>2020-09-06T12:37:30Z</time>
      </trkpt>
      <trkpt lat="42.779259" lon="-.670945">
        <ele>1757.681</ele>
        <time>2020-09-06T12:37:41Z</time>
      </trkpt>
      <trkpt lat="42.779248" lon="-.671017">
        <ele>1756.919</ele>
        <time>2020-09-06T12:37:44Z</time>
      </trkpt>
      <trkpt lat="42.779241" lon="-.671082">
        <ele>1756.208</ele>
        <time>2020-09-06T12:37:48Z</time>
      </trkpt>
      <trkpt lat="42.779245" lon="-.671144">
        <ele>1755.654</ele>
        <time>2020-09-06T12:37:53Z</time>
      </trkpt>
      <trkpt lat="42.779259" lon="-.671216">
        <ele>1755.025</ele>
        <time>2020-09-06T12:37:58Z</time>
      </trkpt>
      <trkpt lat="42.77928" lon="-.671278">
        <ele>1754.551</ele>
        <time>2020-09-06T12:38:02Z</time>
      </trkpt>
      <trkpt lat="42.77931" lon="-.67133">
        <ele>1754.036</ele>
        <time>2020-09-06T12:38:07Z</time>
      </trkpt>
      <trkpt lat="42.779337" lon="-.671387">
        <ele>1753.524</ele>
        <time>2020-09-06T12:38:11Z</time>
      </trkpt>
      <trkpt lat="42.779371" lon="-.671437">
        <ele>1753.043</ele>
        <time>2020-09-06T12:38:16Z</time>
      </trkpt>
      <trkpt lat="42.779403" lon="-.67148">
        <ele>1752.346</ele>
        <time>2020-09-06T12:38:20Z</time>
      </trkpt>
      <trkpt lat="42.779436" lon="-.671531">
        <ele>1751.799</ele>
        <time>2020-09-06T12:38:24Z</time>
      </trkpt>
      <trkpt lat="42.779462" lon="-.671584">
        <ele>1751.217</ele>
        <time>2020-09-06T12:38:28Z</time>
      </trkpt>
      <trkpt lat="42.779471" lon="-.671645">
        <ele>1750.687</ele>
        <time>2020-09-06T12:38:32Z</time>
      </trkpt>
      <trkpt lat="42.779477" lon="-.671706">
        <ele>1749.815</ele>
        <time>2020-09-06T12:38:37Z</time>
      </trkpt>
      <trkpt lat="42.779496" lon="-.671763">
        <ele>1749.008</ele>
        <time>2020-09-06T12:38:41Z</time>
      </trkpt>
      <trkpt lat="42.779527" lon="-.671827">
        <ele>1748.266</ele>
        <time>2020-09-06T12:38:46Z</time>
      </trkpt>
      <trkpt lat="42.779566" lon="-.67186">
        <ele>1747.547</ele>
        <time>2020-09-06T12:38:51Z</time>
      </trkpt>
      <trkpt lat="42.779602" lon="-.6719">
        <ele>1746.133</ele>
        <time>2020-09-06T12:39:04Z</time>
      </trkpt>
      <trkpt lat="42.779629" lon="-.671956">
        <ele>1745.118</ele>
        <time>2020-09-06T12:39:08Z</time>
      </trkpt>
      <trkpt lat="42.77965" lon="-.672011">
        <ele>1744.236</ele>
        <time>2020-09-06T12:39:11Z</time>
      </trkpt>
      <trkpt lat="42.779669" lon="-.672074">
        <ele>1743.795</ele>
        <time>2020-09-06T12:39:17Z</time>
      </trkpt>
      <trkpt lat="42.779659" lon="-.672138">
        <ele>1742.778</ele>
        <time>2020-09-06T12:39:31Z</time>
      </trkpt>
      <trkpt lat="42.779681" lon="-.672194">
        <ele>1741.851</ele>
        <time>2020-09-06T12:39:34Z</time>
      </trkpt>
      <trkpt lat="42.779707" lon="-.672248">
        <ele>1740.944</ele>
        <time>2020-09-06T12:39:37Z</time>
      </trkpt>
      <trkpt lat="42.779741" lon="-.672294">
        <ele>1740.205</ele>
        <time>2020-09-06T12:39:40Z</time>
      </trkpt>
      <trkpt lat="42.779776" lon="-.672344">
        <ele>1739.615</ele>
        <time>2020-09-06T12:39:43Z</time>
      </trkpt>
      <trkpt lat="42.779805" lon="-.672392">
        <ele>1739.008</ele>
        <time>2020-09-06T12:39:47Z</time>
      </trkpt>
      <trkpt lat="42.779838" lon="-.672441">
        <ele>1738.499</ele>
        <time>2020-09-06T12:39:50Z</time>
      </trkpt>
      <trkpt lat="42.779868" lon="-.672502">
        <ele>1737.870</ele>
        <time>2020-09-06T12:39:54Z</time>
      </trkpt>
      <trkpt lat="42.779894" lon="-.672563">
        <ele>1736.996</ele>
        <time>2020-09-06T12:39:59Z</time>
      </trkpt>
      <trkpt lat="42.779928" lon="-.672615">
        <ele>1735.981</ele>
        <time>2020-09-06T12:40:04Z</time>
      </trkpt>
      <trkpt lat="42.779947" lon="-.672672">
        <ele>1735.049</ele>
        <time>2020-09-06T12:40:08Z</time>
      </trkpt>
      <trkpt lat="42.779988" lon="-.672704">
        <ele>1733.918</ele>
        <time>2020-09-06T12:40:12Z</time>
      </trkpt>
      <trkpt lat="42.780016" lon="-.672753">
        <ele>1732.691</ele>
        <time>2020-09-06T12:40:16Z</time>
      </trkpt>
      <trkpt lat="42.78004" lon="-.672814">
        <ele>1731.374</ele>
        <time>2020-09-06T12:40:20Z</time>
      </trkpt>
      <trkpt lat="42.780067" lon="-.672865">
        <ele>1730.029</ele>
        <time>2020-09-06T12:40:25Z</time>
      </trkpt>
      <trkpt lat="42.780087" lon="-.672925">
        <ele>1728.000</ele>
        <time>2020-09-06T12:40:28Z</time>
      </trkpt>
      <trkpt lat="42.780087" lon="-.672925">
        <ele>1728.020</ele>
        <time>2020-09-06T12:40:28Z</time>
      </trkpt>
      <trkpt lat="42.780102" lon="-.672997">
        <ele>1727.008</ele>
        <time>2020-09-06T12:40:32Z</time>
      </trkpt>
      <trkpt lat="42.780111" lon="-.673063">
        <ele>1725.997</ele>
        <time>2020-09-06T12:40:36Z</time>
      </trkpt>
      <trkpt lat="42.780127" lon="-.673126">
        <ele>1724.668</ele>
        <time>2020-09-06T12:40:40Z</time>
      </trkpt>
      <trkpt lat="42.78015" lon="-.673192">
        <ele>1723.614</ele>
        <time>2020-09-06T12:40:44Z</time>
      </trkpt>
      <trkpt lat="42.780177" lon="-.673249">
        <ele>1722.789</ele>
        <time>2020-09-06T12:40:48Z</time>
      </trkpt>
      <trkpt lat="42.780186" lon="-.673318">
        <ele>1721.587</ele>
        <time>2020-09-06T12:40:53Z</time>
      </trkpt>
      <trkpt lat="42.780185" lon="-.673392">
        <ele>1720.336</ele>
        <time>2020-09-06T12:40:57Z</time>
      </trkpt>
      <trkpt lat="42.780177" lon="-.673459">
        <ele>1719.629</ele>
        <time>2020-09-06T12:41:01Z</time>
      </trkpt>
      <trkpt lat="42.780172" lon="-.673526">
        <ele>1719.112</ele>
        <time>2020-09-06T12:41:04Z</time>
      </trkpt>
      <trkpt lat="42.780157" lon="-.673593">
        <ele>1718.746</ele>
        <time>2020-09-06T12:41:08Z</time>
      </trkpt>
      <trkpt lat="42.78015" lon="-.673663">
        <ele>1718.488</ele>
        <time>2020-09-06T12:41:12Z</time>
      </trkpt>
      <trkpt lat="42.78015" lon="-.673725">
        <ele>1718.016</ele>
        <time>2020-09-06T12:41:16Z</time>
      </trkpt>
      <trkpt lat="42.780143" lon="-.673792">
        <ele>1717.908</ele>
        <time>2020-09-06T12:41:19Z</time>
      </trkpt>
      <trkpt lat="42.780143" lon="-.673862">
        <ele>1717.789</ele>
        <time>2020-09-06T12:41:24Z</time>
      </trkpt>
      <trkpt lat="42.780162" lon="-.673928">
        <ele>1717.380</ele>
        <time>2020-09-06T12:41:29Z</time>
      </trkpt>
      <trkpt lat="42.780169" lon="-.673989">
        <ele>1716.836</ele>
        <time>2020-09-06T12:41:33Z</time>
      </trkpt>
      <trkpt lat="42.780182" lon="-.674057">
        <ele>1716.391</ele>
        <time>2020-09-06T12:41:37Z</time>
      </trkpt>
      <trkpt lat="42.780202" lon="-.674118">
        <ele>1715.769</ele>
        <time>2020-09-06T12:41:42Z</time>
      </trkpt>
      <trkpt lat="42.780227" lon="-.674176">
        <ele>1715.298</ele>
        <time>2020-09-06T12:41:46Z</time>
      </trkpt>
      <trkpt lat="42.780245" lon="-.674239">
        <ele>1714.871</ele>
        <time>2020-09-06T12:41:50Z</time>
      </trkpt>
      <trkpt lat="42.780288" lon="-.674297">
        <ele>1714.584</ele>
        <time>2020-09-06T12:41:55Z</time>
      </trkpt>
      <trkpt lat="42.780312" lon="-.674358">
        <ele>1714.192</ele>
        <time>2020-09-06T12:41:59Z</time>
      </trkpt>
      <trkpt lat="42.780332" lon="-.674417">
        <ele>1713.773</ele>
        <time>2020-09-06T12:42:02Z</time>
      </trkpt>
      <trkpt lat="42.780359" lon="-.674478">
        <ele>1713.420</ele>
        <time>2020-09-06T12:42:07Z</time>
      </trkpt>
      <trkpt lat="42.780387" lon="-.674534">
        <ele>1713.208</ele>
        <time>2020-09-06T12:42:10Z</time>
      </trkpt>
      <trkpt lat="42.780418" lon="-.674586">
        <ele>1713.194</ele>
        <time>2020-09-06T12:42:14Z</time>
      </trkpt>
      <trkpt lat="42.78045" lon="-.674641">
        <ele>1713.275</ele>
        <time>2020-09-06T12:42:17Z</time>
      </trkpt>
      <trkpt lat="42.78048" lon="-.674688">
        <ele>1713.261</ele>
        <time>2020-09-06T12:42:21Z</time>
      </trkpt>
      <trkpt lat="42.780507" lon="-.674741">
        <ele>1713.386</ele>
        <time>2020-09-06T12:42:24Z</time>
      </trkpt>
      <trkpt lat="42.780533" lon="-.674801">
        <ele>1713.314</ele>
        <time>2020-09-06T12:42:28Z</time>
      </trkpt>
      <trkpt lat="42.780558" lon="-.674863">
        <ele>1713.043</ele>
        <time>2020-09-06T12:42:34Z</time>
      </trkpt>
      <trkpt lat="42.780571" lon="-.674926">
        <ele>1712.966</ele>
        <time>2020-09-06T12:42:37Z</time>
      </trkpt>
      <trkpt lat="42.780597" lon="-.674985">
        <ele>1712.859</ele>
        <time>2020-09-06T12:42:41Z</time>
      </trkpt>
      <trkpt lat="42.78063" lon="-.675033">
        <ele>1712.422</ele>
        <time>2020-09-06T12:42:45Z</time>
      </trkpt>
      <trkpt lat="42.780656" lon="-.67509">
        <ele>1711.962</ele>
        <time>2020-09-06T12:42:49Z</time>
      </trkpt>
      <trkpt lat="42.780692" lon="-.67514">
        <ele>1711.308</ele>
        <time>2020-09-06T12:42:53Z</time>
      </trkpt>
      <trkpt lat="42.78072" lon="-.675191">
        <ele>1710.708</ele>
        <time>2020-09-06T12:42:57Z</time>
      </trkpt>
      <trkpt lat="42.780731" lon="-.675252">
        <ele>1710.197</ele>
        <time>2020-09-06T12:43:00Z</time>
      </trkpt>
      <trkpt lat="42.780745" lon="-.675315">
        <ele>1709.868</ele>
        <time>2020-09-06T12:43:05Z</time>
      </trkpt>
      <trkpt lat="42.780767" lon="-.675377">
        <ele>1709.674</ele>
        <time>2020-09-06T12:43:12Z</time>
      </trkpt>
      <trkpt lat="42.78078" lon="-.675441">
        <ele>1709.499</ele>
        <time>2020-09-06T12:43:19Z</time>
      </trkpt>
      <trkpt lat="42.78078" lon="-.675505">
        <ele>1709.257</ele>
        <time>2020-09-06T12:43:22Z</time>
      </trkpt>
      <trkpt lat="42.780773" lon="-.675573">
        <ele>1709.016</ele>
        <time>2020-09-06T12:43:25Z</time>
      </trkpt>
      <trkpt lat="42.780762" lon="-.675641">
        <ele>1708.819</ele>
        <time>2020-09-06T12:43:29Z</time>
      </trkpt>
      <trkpt lat="42.780781" lon="-.675707">
        <ele>1708.962</ele>
        <time>2020-09-06T12:43:34Z</time>
      </trkpt>
      <trkpt lat="42.780809" lon="-.675765">
        <ele>1709.071</ele>
        <time>2020-09-06T12:43:37Z</time>
      </trkpt>
      <trkpt lat="42.780821" lon="-.675827">
        <ele>1709.241</ele>
        <time>2020-09-06T12:43:41Z</time>
      </trkpt>
      <trkpt lat="42.780794" lon="-.675886">
        <ele>1709.515</ele>
        <time>2020-09-06T12:43:46Z</time>
      </trkpt>
      <trkpt lat="42.780793" lon="-.675951">
        <ele>1709.708</ele>
        <time>2020-09-06T12:43:52Z</time>
      </trkpt>
      <trkpt lat="42.780816" lon="-.676008">
        <ele>1709.892</ele>
        <time>2020-09-06T12:43:58Z</time>
      </trkpt>
      <trkpt lat="42.780847" lon="-.676061">
        <ele>1710.243</ele>
        <time>2020-09-06T12:44:07Z</time>
      </trkpt>
      <trkpt lat="42.780871" lon="-.676114">
        <ele>1710.569</ele>
        <time>2020-09-06T12:44:13Z</time>
      </trkpt>
      <trkpt lat="42.780878" lon="-.676176">
        <ele>1710.724</ele>
        <time>2020-09-06T12:44:18Z</time>
      </trkpt>
      <trkpt lat="42.780898" lon="-.676233">
        <ele>1711.052</ele>
        <time>2020-09-06T12:44:23Z</time>
      </trkpt>
      <trkpt lat="42.780919" lon="-.67629">
        <ele>1711.321</ele>
        <time>2020-09-06T12:44:26Z</time>
      </trkpt>
      <trkpt lat="42.78094" lon="-.676346">
        <ele>1711.674</ele>
        <time>2020-09-06T12:44:29Z</time>
      </trkpt>
      <trkpt lat="42.780967" lon="-.676404">
        <ele>1712.047</ele>
        <time>2020-09-06T12:44:33Z</time>
      </trkpt>
      <trkpt lat="42.780991" lon="-.676473">
        <ele>1712.338</ele>
        <time>2020-09-06T12:44:37Z</time>
      </trkpt>
      <trkpt lat="42.781014" lon="-.676532">
        <ele>1712.870</ele>
        <time>2020-09-06T12:44:42Z</time>
      </trkpt>
      <trkpt lat="42.781042" lon="-.676594">
        <ele>1713.517</ele>
        <time>2020-09-06T12:44:47Z</time>
      </trkpt>
      <trkpt lat="42.781076" lon="-.676639">
        <ele>1714.008</ele>
        <time>2020-09-06T12:44:51Z</time>
      </trkpt>
      <trkpt lat="42.781109" lon="-.67669">
        <ele>1714.278</ele>
        <time>2020-09-06T12:44:54Z</time>
      </trkpt>
      <trkpt lat="42.781144" lon="-.676735">
        <ele>1714.429</ele>
        <time>2020-09-06T12:44:58Z</time>
      </trkpt>
      <trkpt lat="42.781173" lon="-.676787">
        <ele>1714.645</ele>
        <time>2020-09-06T12:45:02Z</time>
      </trkpt>
      <trkpt lat="42.7812" lon="-.676843">
        <ele>1714.860</ele>
        <time>2020-09-06T12:45:06Z</time>
      </trkpt>
      <trkpt lat="42.781233" lon="-.676902">
        <ele>1714.998</ele>
        <time>2020-09-06T12:45:11Z</time>
      </trkpt>
      <trkpt lat="42.781265" lon="-.676956">
        <ele>1715.067</ele>
        <time>2020-09-06T12:45:15Z</time>
      </trkpt>
      <trkpt lat="42.781297" lon="-.677005">
        <ele>1715.170</ele>
        <time>2020-09-06T12:45:19Z</time>
      </trkpt>
      <trkpt lat="42.781323" lon="-.67706">
        <ele>1715.333</ele>
        <time>2020-09-06T12:45:23Z</time>
      </trkpt>
      <trkpt lat="42.781345" lon="-.677113">
        <ele>1715.446</ele>
        <time>2020-09-06T12:45:27Z</time>
      </trkpt>
      <trkpt lat="42.781364" lon="-.677174">
        <ele>1715.288</ele>
        <time>2020-09-06T12:45:31Z</time>
      </trkpt>
      <trkpt lat="42.781369" lon="-.677238">
        <ele>1715.016</ele>
        <time>2020-09-06T12:45:34Z</time>
      </trkpt>
      <trkpt lat="42.78137" lon="-.677302">
        <ele>1714.808</ele>
        <time>2020-09-06T12:45:38Z</time>
      </trkpt>
      <trkpt lat="42.781376" lon="-.677372">
        <ele>1714.359</ele>
        <time>2020-09-06T12:45:42Z</time>
      </trkpt>
      <trkpt lat="42.781375" lon="-.677439">
        <ele>1713.920</ele>
        <time>2020-09-06T12:45:47Z</time>
      </trkpt>
      <trkpt lat="42.781397" lon="-.677499">
        <ele>1713.756</ele>
        <time>2020-09-06T12:45:52Z</time>
      </trkpt>
      <trkpt lat="42.781425" lon="-.677556">
        <ele>1713.591</ele>
        <time>2020-09-06T12:45:56Z</time>
      </trkpt>
      <trkpt lat="42.781449" lon="-.677616">
        <ele>1713.569</ele>
        <time>2020-09-06T12:46:00Z</time>
      </trkpt>
      <trkpt lat="42.781474" lon="-.677674">
        <ele>1713.668</ele>
        <time>2020-09-06T12:46:05Z</time>
      </trkpt>
      <trkpt lat="42.781503" lon="-.677721">
        <ele>1713.881</ele>
        <time>2020-09-06T12:46:09Z</time>
      </trkpt>
      <trkpt lat="42.781535" lon="-.677774">
        <ele>1714.264</ele>
        <time>2020-09-06T12:46:13Z</time>
      </trkpt>
      <trkpt lat="42.781563" lon="-.677828">
        <ele>1714.846</ele>
        <time>2020-09-06T12:46:17Z</time>
      </trkpt>
      <trkpt lat="42.781589" lon="-.67788">
        <ele>1715.288</ele>
        <time>2020-09-06T12:46:20Z</time>
      </trkpt>
      <trkpt lat="42.781615" lon="-.677945">
        <ele>1715.616</ele>
        <time>2020-09-06T12:46:24Z</time>
      </trkpt>
      <trkpt lat="42.781638" lon="-.678004">
        <ele>1716.008</ele>
        <time>2020-09-06T12:46:28Z</time>
      </trkpt>
      <trkpt lat="42.781656" lon="-.678062">
        <ele>1716.579</ele>
        <time>2020-09-06T12:46:32Z</time>
      </trkpt>
      <trkpt lat="42.781662" lon="-.678125">
        <ele>1717.080</ele>
        <time>2020-09-06T12:46:36Z</time>
      </trkpt>
      <trkpt lat="42.781676" lon="-.678191">
        <ele>1717.266</ele>
        <time>2020-09-06T12:46:40Z</time>
      </trkpt>
      <trkpt lat="42.781685" lon="-.678252">
        <ele>1717.411</ele>
        <time>2020-09-06T12:46:44Z</time>
      </trkpt>
      <trkpt lat="42.781687" lon="-.678319">
        <ele>1717.519</ele>
        <time>2020-09-06T12:46:47Z</time>
      </trkpt>
      <trkpt lat="42.781691" lon="-.678384">
        <ele>1717.858</ele>
        <time>2020-09-06T12:46:51Z</time>
      </trkpt>
      <trkpt lat="42.781695" lon="-.678453">
        <ele>1718.141</ele>
        <time>2020-09-06T12:46:55Z</time>
      </trkpt>
      <trkpt lat="42.781696" lon="-.678516">
        <ele>1718.474</ele>
        <time>2020-09-06T12:47:00Z</time>
      </trkpt>
      <trkpt lat="42.781707" lon="-.678581">
        <ele>1718.231</ele>
        <time>2020-09-06T12:47:04Z</time>
      </trkpt>
      <trkpt lat="42.781728" lon="-.678645">
        <ele>1717.961</ele>
        <time>2020-09-06T12:47:08Z</time>
      </trkpt>
      <trkpt lat="42.781754" lon="-.678697">
        <ele>1717.507</ele>
        <time>2020-09-06T12:47:11Z</time>
      </trkpt>
      <trkpt lat="42.781774" lon="-.678755">
        <ele>1717.208</ele>
        <time>2020-09-06T12:47:15Z</time>
      </trkpt>
      <trkpt lat="42.781789" lon="-.678816">
        <ele>1717.048</ele>
        <time>2020-09-06T12:47:18Z</time>
      </trkpt>
      <trkpt lat="42.781789" lon="-.678816">
        <ele>1717.099</ele>
        <time>2020-09-06T12:47:18Z</time>
      </trkpt>
      <trkpt lat="42.781804" lon="-.67889">
        <ele>1717.165</ele>
        <time>2020-09-06T12:47:23Z</time>
      </trkpt>
      <trkpt lat="42.78182" lon="-.678954">
        <ele>1717.180</ele>
        <time>2020-09-06T12:47:28Z</time>
      </trkpt>
      <trkpt lat="42.781841" lon="-.679019">
        <ele>1717.228</ele>
        <time>2020-09-06T12:47:32Z</time>
      </trkpt>
      <trkpt lat="42.781853" lon="-.679081">
        <ele>1717.377</ele>
        <time>2020-09-06T12:47:36Z</time>
      </trkpt>
      <trkpt lat="42.781869" lon="-.679148">
        <ele>1717.490</ele>
        <time>2020-09-06T12:47:40Z</time>
      </trkpt>
      <trkpt lat="42.781889" lon="-.679211">
        <ele>1717.223</ele>
        <time>2020-09-06T12:47:43Z</time>
      </trkpt>
      <trkpt lat="42.781896" lon="-.679274">
        <ele>1716.914</ele>
        <time>2020-09-06T12:47:47Z</time>
      </trkpt>
      <trkpt lat="42.781911" lon="-.679338">
        <ele>1716.654</ele>
        <time>2020-09-06T12:47:51Z</time>
      </trkpt>
      <trkpt lat="42.781937" lon="-.679394">
        <ele>1716.709</ele>
        <time>2020-09-06T12:47:55Z</time>
      </trkpt>
      <trkpt lat="42.781949" lon="-.679461">
        <ele>1716.708</ele>
        <time>2020-09-06T12:48:00Z</time>
      </trkpt>
      <trkpt lat="42.78196" lon="-.679533">
        <ele>1716.576</ele>
        <time>2020-09-06T12:48:04Z</time>
      </trkpt>
      <trkpt lat="42.781988" lon="-.679595">
        <ele>1716.147</ele>
        <time>2020-09-06T12:48:08Z</time>
      </trkpt>
      <trkpt lat="42.782017" lon="-.679658">
        <ele>1715.493</ele>
        <time>2020-09-06T12:48:12Z</time>
      </trkpt>
      <trkpt lat="42.782043" lon="-.679715">
        <ele>1714.328</ele>
        <time>2020-09-06T12:48:16Z</time>
      </trkpt>
      <trkpt lat="42.78206" lon="-.679775">
        <ele>1713.056</ele>
        <time>2020-09-06T12:48:19Z</time>
      </trkpt>
      <trkpt lat="42.782076" lon="-.679836">
        <ele>1711.865</ele>
        <time>2020-09-06T12:48:23Z</time>
      </trkpt>
      <trkpt lat="42.78209" lon="-.679896">
        <ele>1710.868</ele>
        <time>2020-09-06T12:48:26Z</time>
      </trkpt>
      <trkpt lat="42.782103" lon="-.679955">
        <ele>1710.111</ele>
        <time>2020-09-06T12:48:29Z</time>
      </trkpt>
      <trkpt lat="42.782126" lon="-.680021">
        <ele>1709.426</ele>
        <time>2020-09-06T12:48:34Z</time>
      </trkpt>
      <trkpt lat="42.78215" lon="-.680081">
        <ele>1708.647</ele>
        <time>2020-09-06T12:48:38Z</time>
      </trkpt>
      <trkpt lat="42.782154" lon="-.680146">
        <ele>1707.711</ele>
        <time>2020-09-06T12:48:44Z</time>
      </trkpt>
      <trkpt lat="42.782156" lon="-.680225">
        <ele>1707.108</ele>
        <time>2020-09-06T12:48:50Z</time>
      </trkpt>
      <trkpt lat="42.782149" lon="-.680289">
        <ele>1706.547</ele>
        <time>2020-09-06T12:48:54Z</time>
      </trkpt>
      <trkpt lat="42.782144" lon="-.680353">
        <ele>1706.148</ele>
        <time>2020-09-06T12:48:58Z</time>
      </trkpt>
      <trkpt lat="42.782131" lon="-.680418">
        <ele>1705.834</ele>
        <time>2020-09-06T12:49:04Z</time>
      </trkpt>
      <trkpt lat="42.782129" lon="-.68048">
        <ele>1705.519</ele>
        <time>2020-09-06T12:49:07Z</time>
      </trkpt>
      <trkpt lat="42.782137" lon="-.680546">
        <ele>1705.387</ele>
        <time>2020-09-06T12:49:11Z</time>
      </trkpt>
      <trkpt lat="42.78214" lon="-.680612">
        <ele>1705.336</ele>
        <time>2020-09-06T12:49:15Z</time>
      </trkpt>
      <trkpt lat="42.782152" lon="-.680686">
        <ele>1705.459</ele>
        <time>2020-09-06T12:49:19Z</time>
      </trkpt>
      <trkpt lat="42.78217" lon="-.680743">
        <ele>1705.982</ele>
        <time>2020-09-06T12:49:23Z</time>
      </trkpt>
      <trkpt lat="42.782195" lon="-.680797">
        <ele>1706.539</ele>
        <time>2020-09-06T12:49:26Z</time>
      </trkpt>
      <trkpt lat="42.782237" lon="-.680831">
        <ele>1707.201</ele>
        <time>2020-09-06T12:49:30Z</time>
      </trkpt>
      <trkpt lat="42.78226" lon="-.680888">
        <ele>1707.921</ele>
        <time>2020-09-06T12:49:34Z</time>
      </trkpt>
      <trkpt lat="42.782269" lon="-.680963">
        <ele>1708.508</ele>
        <time>2020-09-06T12:49:38Z</time>
      </trkpt>
      <trkpt lat="42.782289" lon="-.681026">
        <ele>1708.948</ele>
        <time>2020-09-06T12:49:42Z</time>
      </trkpt>
      <trkpt lat="42.782308" lon="-.681091">
        <ele>1709.199</ele>
        <time>2020-09-06T12:49:46Z</time>
      </trkpt>
      <trkpt lat="42.782326" lon="-.681149">
        <ele>1709.255</ele>
        <time>2020-09-06T12:49:50Z</time>
      </trkpt>
      <trkpt lat="42.782344" lon="-.681216">
        <ele>1709.280</ele>
        <time>2020-09-06T12:49:54Z</time>
      </trkpt>
      <trkpt lat="42.782347" lon="-.68128">
        <ele>1709.248</ele>
        <time>2020-09-06T12:49:58Z</time>
      </trkpt>
      <trkpt lat="42.782353" lon="-.681342">
        <ele>1709.117</ele>
        <time>2020-09-06T12:50:02Z</time>
      </trkpt>
      <trkpt lat="42.782362" lon="-.681408">
        <ele>1708.810</ele>
        <time>2020-09-06T12:50:06Z</time>
      </trkpt>
      <trkpt lat="42.782371" lon="-.681469">
        <ele>1708.583</ele>
        <time>2020-09-06T12:50:10Z</time>
      </trkpt>
      <trkpt lat="42.782385" lon="-.681531">
        <ele>1707.948</ele>
        <time>2020-09-06T12:50:14Z</time>
      </trkpt>
      <trkpt lat="42.782393" lon="-.681594">
        <ele>1706.961</ele>
        <time>2020-09-06T12:50:19Z</time>
      </trkpt>
      <trkpt lat="42.782394" lon="-.681658">
        <ele>1705.617</ele>
        <time>2020-09-06T12:50:24Z</time>
      </trkpt>
      <trkpt lat="42.782409" lon="-.68172">
        <ele>1704.208</ele>
        <time>2020-09-06T12:50:29Z</time>
      </trkpt>
      <trkpt lat="42.782422" lon="-.681779">
        <ele>1703.329</ele>
        <time>2020-09-06T12:50:38Z</time>
      </trkpt>
      <trkpt lat="42.782457" lon="-.681826">
        <ele>1701.640</ele>
        <time>2020-09-06T12:50:58Z</time>
      </trkpt>
      <trkpt lat="42.782482" lon="-.681882">
        <ele>1700.656</ele>
        <time>2020-09-06T12:51:11Z</time>
      </trkpt>
      <trkpt lat="42.782519" lon="-.681928">
        <ele>1699.821</ele>
        <time>2020-09-06T12:51:23Z</time>
      </trkpt>
      <trkpt lat="42.782545" lon="-.681979">
        <ele>1699.319</ele>
        <time>2020-09-06T12:51:27Z</time>
      </trkpt>
      <trkpt lat="42.782573" lon="-.682031">
        <ele>1699.068</ele>
        <time>2020-09-06T12:51:33Z</time>
      </trkpt>
      <trkpt lat="42.7826" lon="-.682084">
        <ele>1698.431</ele>
        <time>2020-09-06T12:51:44Z</time>
      </trkpt>
      <trkpt lat="42.782636" lon="-.682122">
        <ele>1698.024</ele>
        <time>2020-09-06T12:51:50Z</time>
      </trkpt>
      <trkpt lat="42.78267" lon="-.682167">
        <ele>1697.262</ele>
        <time>2020-09-06T12:52:03Z</time>
      </trkpt>
      <trkpt lat="42.782693" lon="-.682222">
        <ele>1696.583</ele>
        <time>2020-09-06T12:52:08Z</time>
      </trkpt>
      <trkpt lat="42.782712" lon="-.68228">
        <ele>1696.011</ele>
        <time>2020-09-06T12:52:12Z</time>
      </trkpt>
      <trkpt lat="42.782728" lon="-.682341">
        <ele>1695.108</ele>
        <time>2020-09-06T12:52:16Z</time>
      </trkpt>
      <trkpt lat="42.78274" lon="-.682411">
        <ele>1694.281</ele>
        <time>2020-09-06T12:52:20Z</time>
      </trkpt>
      <trkpt lat="42.782744" lon="-.682474">
        <ele>1693.682</ele>
        <time>2020-09-06T12:52:28Z</time>
      </trkpt>
      <trkpt lat="42.782768" lon="-.682538">
        <ele>1692.528</ele>
        <time>2020-09-06T12:52:37Z</time>
      </trkpt>
      <trkpt lat="42.782788" lon="-.682599">
        <ele>1691.873</ele>
        <time>2020-09-06T12:52:43Z</time>
      </trkpt>
      <trkpt lat="42.782793" lon="-.682664">
        <ele>1689.751</ele>
        <time>2020-09-06T12:53:06Z</time>
      </trkpt>
      <trkpt lat="42.782816" lon="-.682721">
        <ele>1688.460</ele>
        <time>2020-09-06T12:53:11Z</time>
      </trkpt>
      <trkpt lat="42.782817" lon="-.682783">
        <ele>1687.613</ele>
        <time>2020-09-06T12:53:19Z</time>
      </trkpt>
      <trkpt lat="42.782831" lon="-.682849">
        <ele>1686.636</ele>
        <time>2020-09-06T12:53:24Z</time>
      </trkpt>
      <trkpt lat="42.782834" lon="-.682913">
        <ele>1686.028</ele>
        <time>2020-09-06T12:53:29Z</time>
      </trkpt>
      <trkpt lat="42.782872" lon="-.682951">
        <ele>1684.789</ele>
        <time>2020-09-06T12:53:39Z</time>
      </trkpt>
      <trkpt lat="42.782879" lon="-.683017">
        <ele>1683.417</ele>
        <time>2020-09-06T12:53:44Z</time>
      </trkpt>
      <trkpt lat="42.782883" lon="-.683083">
        <ele>1681.908</ele>
        <time>2020-09-06T12:53:47Z</time>
      </trkpt>
      <trkpt lat="42.782872" lon="-.683147">
        <ele>1680.387</ele>
        <time>2020-09-06T12:53:52Z</time>
      </trkpt>
      <trkpt lat="42.782865" lon="-.683216">
        <ele>1678.628</ele>
        <time>2020-09-06T12:53:56Z</time>
      </trkpt>
      <trkpt lat="42.782865" lon="-.68328">
        <ele>1676.954</ele>
        <time>2020-09-06T12:54:00Z</time>
      </trkpt>
      <trkpt lat="42.782878" lon="-.683341">
        <ele>1675.059</ele>
        <time>2020-09-06T12:54:04Z</time>
      </trkpt>
      <trkpt lat="42.782903" lon="-.683393">
        <ele>1673.137</ele>
        <time>2020-09-06T12:54:07Z</time>
      </trkpt>
      <trkpt lat="42.78293" lon="-.683457">
        <ele>1670.686</ele>
        <time>2020-09-06T12:54:13Z</time>
      </trkpt>
      <trkpt lat="42.782946" lon="-.683517">
        <ele>1668.099</ele>
        <time>2020-09-06T12:54:18Z</time>
      </trkpt>
      <trkpt lat="42.782966" lon="-.683577">
        <ele>1665.682</ele>
        <time>2020-09-06T12:54:23Z</time>
      </trkpt>
      <trkpt lat="42.782997" lon="-.683628">
        <ele>1663.583</ele>
        <time>2020-09-06T12:54:27Z</time>
      </trkpt>
      <trkpt lat="42.783024" lon="-.683686">
        <ele>1661.725</ele>
        <time>2020-09-06T12:54:31Z</time>
      </trkpt>
      <trkpt lat="42.783037" lon="-.683751">
        <ele>1659.817</ele>
        <time>2020-09-06T12:54:36Z</time>
      </trkpt>
      <trkpt lat="42.783053" lon="-.683811">
        <ele>1658.008</ele>
        <time>2020-09-06T12:54:43Z</time>
      </trkpt>
      <trkpt lat="42.783084" lon="-.683868">
        <ele>1656.483</ele>
        <time>2020-09-06T12:54:47Z</time>
      </trkpt>
      <trkpt lat="42.783103" lon="-.683926">
        <ele>1655.374</ele>
        <time>2020-09-06T12:55:00Z</time>
      </trkpt>
      <trkpt lat="42.783121" lon="-.683988">
        <ele>1654.640</ele>
        <time>2020-09-06T12:55:03Z</time>
      </trkpt>
      <trkpt lat="42.783153" lon="-.684041">
        <ele>1654.225</ele>
        <time>2020-09-06T12:55:07Z</time>
      </trkpt>
      <trkpt lat="42.78319" lon="-.68409">
        <ele>1653.833</ele>
        <time>2020-09-06T12:55:11Z</time>
      </trkpt>
      <trkpt lat="42.783234" lon="-.684122">
        <ele>1653.352</ele>
        <time>2020-09-06T12:55:15Z</time>
      </trkpt>
      <trkpt lat="42.783257" lon="-.684176">
        <ele>1652.925</ele>
        <time>2020-09-06T12:55:21Z</time>
      </trkpt>
      <trkpt lat="42.783287" lon="-.684228">
        <ele>1652.198</ele>
        <time>2020-09-06T12:55:26Z</time>
      </trkpt>
      <trkpt lat="42.783298" lon="-.684298">
        <ele>1651.325</ele>
        <time>2020-09-06T12:55:30Z</time>
      </trkpt>
      <trkpt lat="42.783324" lon="-.684352">
        <ele>1650.726</ele>
        <time>2020-09-06T12:55:38Z</time>
      </trkpt>
      <trkpt lat="42.783338" lon="-.684412">
        <ele>1650.008</ele>
        <time>2020-09-06T12:55:53Z</time>
      </trkpt>
      <trkpt lat="42.783353" lon="-.684478">
        <ele>1649.608</ele>
        <time>2020-09-06T12:56:01Z</time>
      </trkpt>
      <trkpt lat="42.783395" lon="-.684505">
        <ele>1649.427</ele>
        <time>2020-09-06T12:56:12Z</time>
      </trkpt>
      <trkpt lat="42.783434" lon="-.684549">
        <ele>1649.278</ele>
        <time>2020-09-06T12:56:15Z</time>
      </trkpt>
      <trkpt lat="42.783472" lon="-.684602">
        <ele>1649.074</ele>
        <time>2020-09-06T12:56:18Z</time>
      </trkpt>
      <trkpt lat="42.783504" lon="-.684657">
        <ele>1648.949</ele>
        <time>2020-09-06T12:56:21Z</time>
      </trkpt>
      <trkpt lat="42.783525" lon="-.684713">
        <ele>1648.857</ele>
        <time>2020-09-06T12:56:25Z</time>
      </trkpt>
      <trkpt lat="42.783552" lon="-.684763">
        <ele>1648.736</ele>
        <time>2020-09-06T12:56:36Z</time>
      </trkpt>
      <trkpt lat="42.783575" lon="-.684821">
        <ele>1648.049</ele>
        <time>2020-09-06T12:56:44Z</time>
      </trkpt>
      <trkpt lat="42.783589" lon="-.684888">
        <ele>1647.492</ele>
        <time>2020-09-06T12:56:48Z</time>
      </trkpt>
      <trkpt lat="42.783608" lon="-.684949">
        <ele>1646.726</ele>
        <time>2020-09-06T12:56:52Z</time>
      </trkpt>
      <trkpt lat="42.783637" lon="-.685008">
        <ele>1646.047</ele>
        <time>2020-09-06T12:56:56Z</time>
      </trkpt>
      <trkpt lat="42.78367" lon="-.685055">
        <ele>1645.311</ele>
        <time>2020-09-06T12:56:59Z</time>
      </trkpt>
      <trkpt lat="42.7837" lon="-.685101">
        <ele>1644.608</ele>
        <time>2020-09-06T12:57:02Z</time>
      </trkpt>
      <trkpt lat="42.783731" lon="-.685154">
        <ele>1643.957</ele>
        <time>2020-09-06T12:57:06Z</time>
      </trkpt>
      <trkpt lat="42.783764" lon="-.685203">
        <ele>1643.318</ele>
        <time>2020-09-06T12:57:10Z</time>
      </trkpt>
      <trkpt lat="42.783788" lon="-.685257">
        <ele>1642.824</ele>
        <time>2020-09-06T12:57:14Z</time>
      </trkpt>
      <trkpt lat="42.783804" lon="-.685317">
        <ele>1642.439</ele>
        <time>2020-09-06T12:57:17Z</time>
      </trkpt>
      <trkpt lat="42.783835" lon="-.685369">
        <ele>1642.297</ele>
        <time>2020-09-06T12:57:20Z</time>
      </trkpt>
      <trkpt lat="42.783872" lon="-.685412">
        <ele>1642.046</ele>
        <time>2020-09-06T12:57:23Z</time>
      </trkpt>
      <trkpt lat="42.783916" lon="-.68545">
        <ele>1641.769</ele>
        <time>2020-09-06T12:57:28Z</time>
      </trkpt>
      <trkpt lat="42.783959" lon="-.685488">
        <ele>1641.532</ele>
        <time>2020-09-06T12:57:32Z</time>
      </trkpt>
      <trkpt lat="42.783993" lon="-.685534">
        <ele>1641.351</ele>
        <time>2020-09-06T12:57:36Z</time>
      </trkpt>
      <trkpt lat="42.784017" lon="-.685591">
        <ele>1641.201</ele>
        <time>2020-09-06T12:57:41Z</time>
      </trkpt>
      <trkpt lat="42.784042" lon="-.685643">
        <ele>1641.311</ele>
        <time>2020-09-06T12:57:45Z</time>
      </trkpt>
      <trkpt lat="42.784071" lon="-.685692">
        <ele>1641.508</ele>
        <time>2020-09-06T12:57:49Z</time>
      </trkpt>
      <trkpt lat="42.784104" lon="-.685736">
        <ele>1641.660</ele>
        <time>2020-09-06T12:57:53Z</time>
      </trkpt>
      <trkpt lat="42.784133" lon="-.685784">
        <ele>1641.551</ele>
        <time>2020-09-06T12:57:58Z</time>
      </trkpt>
      <trkpt lat="42.784161" lon="-.685842">
        <ele>1641.257</ele>
        <time>2020-09-06T12:58:03Z</time>
      </trkpt>
      <trkpt lat="42.78419" lon="-.685895">
        <ele>1640.942</ele>
        <time>2020-09-06T12:58:07Z</time>
      </trkpt>
      <trkpt lat="42.784219" lon="-.685944">
        <ele>1640.720</ele>
        <time>2020-09-06T12:58:10Z</time>
      </trkpt>
      <trkpt lat="42.784254" lon="-.685988">
        <ele>1640.549</ele>
        <time>2020-09-06T12:58:16Z</time>
      </trkpt>
      <trkpt lat="42.784282" lon="-.686037">
        <ele>1640.772</ele>
        <time>2020-09-06T12:58:20Z</time>
      </trkpt>
      <trkpt lat="42.784319" lon="-.686079">
        <ele>1640.875</ele>
        <time>2020-09-06T12:58:24Z</time>
      </trkpt>
      <trkpt lat="42.784354" lon="-.68612">
        <ele>1640.825</ele>
        <time>2020-09-06T12:58:30Z</time>
      </trkpt>
      <trkpt lat="42.784385" lon="-.686167">
        <ele>1640.826</ele>
        <time>2020-09-06T12:58:33Z</time>
      </trkpt>
      <trkpt lat="42.784411" lon="-.686221">
        <ele>1640.808</ele>
        <time>2020-09-06T12:58:37Z</time>
      </trkpt>
      <trkpt lat="42.784444" lon="-.686268">
        <ele>1640.908</ele>
        <time>2020-09-06T12:58:42Z</time>
      </trkpt>
      <trkpt lat="42.784476" lon="-.686326">
        <ele>1641.057</ele>
        <time>2020-09-06T12:58:46Z</time>
      </trkpt>
      <trkpt lat="42.78451" lon="-.686368">
        <ele>1641.458</ele>
        <time>2020-09-06T12:58:49Z</time>
      </trkpt>
      <trkpt lat="42.784539" lon="-.686418">
        <ele>1642.214</ele>
        <time>2020-09-06T12:58:54Z</time>
      </trkpt>
      <trkpt lat="42.784567" lon="-.686469">
        <ele>1643.169</ele>
        <time>2020-09-06T12:58:59Z</time>
      </trkpt>
      <trkpt lat="42.784595" lon="-.686524">
        <ele>1643.987</ele>
        <time>2020-09-06T12:59:02Z</time>
      </trkpt>
      <trkpt lat="42.784615" lon="-.686584">
        <ele>1644.616</ele>
        <time>2020-09-06T12:59:06Z</time>
      </trkpt>
      <trkpt lat="42.784618" lon="-.686649">
        <ele>1645.539</ele>
        <time>2020-09-06T12:59:12Z</time>
      </trkpt>
      <trkpt lat="42.784633" lon="-.686708">
        <ele>1646.332</ele>
        <time>2020-09-06T12:59:16Z</time>
      </trkpt>
      <trkpt lat="42.78465" lon="-.686774">
        <ele>1647.065</ele>
        <time>2020-09-06T12:59:20Z</time>
      </trkpt>
      <trkpt lat="42.784655" lon="-.686842">
        <ele>1647.668</ele>
        <time>2020-09-06T12:59:25Z</time>
      </trkpt>
      <trkpt lat="42.784664" lon="-.686904">
        <ele>1648.214</ele>
        <time>2020-09-06T12:59:30Z</time>
      </trkpt>
      <trkpt lat="42.784684" lon="-.686965">
        <ele>1648.608</ele>
        <time>2020-09-06T12:59:35Z</time>
      </trkpt>
      <trkpt lat="42.784694" lon="-.687025">
        <ele>1649.021</ele>
        <time>2020-09-06T12:59:39Z</time>
      </trkpt>
      <trkpt lat="42.784706" lon="-.687086">
        <ele>1649.212</ele>
        <time>2020-09-06T12:59:44Z</time>
      </trkpt>
      <trkpt lat="42.78471" lon="-.68715">
        <ele>1649.468</ele>
        <time>2020-09-06T12:59:49Z</time>
      </trkpt>
      <trkpt lat="42.784719" lon="-.687215">
        <ele>1649.573</ele>
        <time>2020-09-06T12:59:54Z</time>
      </trkpt>
      <trkpt lat="42.784746" lon="-.687276">
        <ele>1649.351</ele>
        <time>2020-09-06T13:00:08Z</time>
      </trkpt>
      <trkpt lat="42.784773" lon="-.687331">
        <ele>1648.930</ele>
        <time>2020-09-06T13:00:12Z</time>
      </trkpt>
      <trkpt lat="42.784797" lon="-.687383">
        <ele>1648.463</ele>
        <time>2020-09-06T13:00:15Z</time>
      </trkpt>
      <trkpt lat="42.784811" lon="-.687443">
        <ele>1647.786</ele>
        <time>2020-09-06T13:00:19Z</time>
      </trkpt>
      <trkpt lat="42.784825" lon="-.687509">
        <ele>1646.939</ele>
        <time>2020-09-06T13:00:23Z</time>
      </trkpt>
      <trkpt lat="42.784839" lon="-.687574">
        <ele>1646.101</ele>
        <time>2020-09-06T13:00:27Z</time>
      </trkpt>
      <trkpt lat="42.784875" lon="-.687628">
        <ele>1645.221</ele>
        <time>2020-09-06T13:00:32Z</time>
      </trkpt>
      <trkpt lat="42.784898" lon="-.6877">
        <ele>1644.108</ele>
        <time>2020-09-06T13:00:37Z</time>
      </trkpt>
      <trkpt lat="42.784911" lon="-.687759">
        <ele>1643.198</ele>
        <time>2020-09-06T13:00:43Z</time>
      </trkpt>
      <trkpt lat="42.784931" lon="-.687816">
        <ele>1642.129</ele>
        <time>2020-09-06T13:01:19Z</time>
      </trkpt>
      <trkpt lat="42.784952" lon="-.687871">
        <ele>1641.435</ele>
        <time>2020-09-06T13:01:23Z</time>
      </trkpt>
      <trkpt lat="42.784963" lon="-.687936">
        <ele>1640.880</ele>
        <time>2020-09-06T13:01:26Z</time>
      </trkpt>
      <trkpt lat="42.784968" lon="-.688">
        <ele>1640.398</ele>
        <time>2020-09-06T13:01:30Z</time>
      </trkpt>
      <trkpt lat="42.784985" lon="-.688064">
        <ele>1639.937</ele>
        <time>2020-09-06T13:01:34Z</time>
      </trkpt>
      <trkpt lat="42.785011" lon="-.688131">
        <ele>1639.410</ele>
        <time>2020-09-06T13:01:38Z</time>
      </trkpt>
      <trkpt lat="42.785032" lon="-.688191">
        <ele>1638.993</ele>
        <time>2020-09-06T13:01:45Z</time>
      </trkpt>
      <trkpt lat="42.785053" lon="-.688249">
        <ele>1638.393</ele>
        <time>2020-09-06T13:01:48Z</time>
      </trkpt>
      <trkpt lat="42.785072" lon="-.688307">
        <ele>1637.765</ele>
        <time>2020-09-06T13:01:52Z</time>
      </trkpt>
      <trkpt lat="42.785093" lon="-.688371">
        <ele>1636.921</ele>
        <time>2020-09-06T13:01:57Z</time>
      </trkpt>
      <trkpt lat="42.785123" lon="-.688424">
        <ele>1636.008</ele>
        <time>2020-09-06T13:02:02Z</time>
      </trkpt>
      <trkpt lat="42.785143" lon="-.688479">
        <ele>1635.144</ele>
        <time>2020-09-06T13:02:06Z</time>
      </trkpt>
      <trkpt lat="42.785163" lon="-.688537">
        <ele>1634.215</ele>
        <time>2020-09-06T13:02:11Z</time>
      </trkpt>
      <trkpt lat="42.78518" lon="-.688596">
        <ele>1633.451</ele>
        <time>2020-09-06T13:02:17Z</time>
      </trkpt>
      <trkpt lat="42.785204" lon="-.688653">
        <ele>1632.736</ele>
        <time>2020-09-06T13:02:21Z</time>
      </trkpt>
      <trkpt lat="42.785225" lon="-.688725">
        <ele>1632.384</ele>
        <time>2020-09-06T13:02:25Z</time>
      </trkpt>
      <trkpt lat="42.785241" lon="-.688797">
        <ele>1631.843</ele>
        <time>2020-09-06T13:02:30Z</time>
      </trkpt>
      <trkpt lat="42.785253" lon="-.688864">
        <ele>1631.336</ele>
        <time>2020-09-06T13:02:34Z</time>
      </trkpt>
      <trkpt lat="42.785279" lon="-.688923">
        <ele>1630.839</ele>
        <time>2020-09-06T13:02:38Z</time>
      </trkpt>
      <trkpt lat="42.785309" lon="-.688982">
        <ele>1630.326</ele>
        <time>2020-09-06T13:02:43Z</time>
      </trkpt>
      <trkpt lat="42.785329" lon="-.689041">
        <ele>1629.847</ele>
        <time>2020-09-06T13:02:47Z</time>
      </trkpt>
      <trkpt lat="42.785359" lon="-.689092">
        <ele>1629.411</ele>
        <time>2020-09-06T13:02:54Z</time>
      </trkpt>
      <trkpt lat="42.785404" lon="-.689141">
        <ele>1628.908</ele>
        <time>2020-09-06T13:03:03Z</time>
      </trkpt>
      <trkpt lat="42.785441" lon="-.689181">
        <ele>1628.567</ele>
        <time>2020-09-06T13:03:08Z</time>
      </trkpt>
      <trkpt lat="42.785465" lon="-.689233">
        <ele>1628.288</ele>
        <time>2020-09-06T13:03:13Z</time>
      </trkpt>
      <trkpt lat="42.785491" lon="-.689284">
        <ele>1627.834</ele>
        <time>2020-09-06T13:03:18Z</time>
      </trkpt>
      <trkpt lat="42.785506" lon="-.689347">
        <ele>1627.479</ele>
        <time>2020-09-06T13:03:21Z</time>
      </trkpt>
      <trkpt lat="42.785526" lon="-.689412">
        <ele>1627.167</ele>
        <time>2020-09-06T13:03:26Z</time>
      </trkpt>
      <trkpt lat="42.785547" lon="-.689466">
        <ele>1626.436</ele>
        <time>2020-09-06T13:03:39Z</time>
      </trkpt>
      <trkpt lat="42.785587" lon="-.689501">
        <ele>1625.919</ele>
        <time>2020-09-06T13:03:46Z</time>
      </trkpt>
      <trkpt lat="42.785638" lon="-.689521">
        <ele>1625.342</ele>
        <time>2020-09-06T13:03:54Z</time>
      </trkpt>
      <trkpt lat="42.785682" lon="-.68954">
        <ele>1624.992</ele>
        <time>2020-09-06T13:03:57Z</time>
      </trkpt>
      <trkpt lat="42.785733" lon="-.689563">
        <ele>1624.573</ele>
        <time>2020-09-06T13:04:00Z</time>
      </trkpt>
      <trkpt lat="42.785787" lon="-.689568">
        <ele>1624.220</ele>
        <time>2020-09-06T13:04:03Z</time>
      </trkpt>
      <trkpt lat="42.785826" lon="-.689604">
        <ele>1623.908</ele>
        <time>2020-09-06T13:04:09Z</time>
      </trkpt>
      <trkpt lat="42.78587" lon="-.689638">
        <ele>1623.314</ele>
        <time>2020-09-06T13:04:13Z</time>
      </trkpt>
      <trkpt lat="42.785906" lon="-.689686">
        <ele>1622.775</ele>
        <time>2020-09-06T13:04:19Z</time>
      </trkpt>
      <trkpt lat="42.785949" lon="-.689707">
        <ele>1622.071</ele>
        <time>2020-09-06T13:04:23Z</time>
      </trkpt>
      <trkpt lat="42.785984" lon="-.689748">
        <ele>1621.396</ele>
        <time>2020-09-06T13:04:27Z</time>
      </trkpt>
      <trkpt lat="42.786021" lon="-.689787">
        <ele>1620.594</ele>
        <time>2020-09-06T13:04:32Z</time>
      </trkpt>
      <trkpt lat="42.786053" lon="-.689831">
        <ele>1619.783</ele>
        <time>2020-09-06T13:04:36Z</time>
      </trkpt>
      <trkpt lat="42.786078" lon="-.689883">
        <ele>1618.816</ele>
        <time>2020-09-06T13:04:40Z</time>
      </trkpt>
      <trkpt lat="42.786096" lon="-.68994">
        <ele>1618.039</ele>
        <time>2020-09-06T13:04:44Z</time>
      </trkpt>
      <trkpt lat="42.78613" lon="-.689991">
        <ele>1617.266</ele>
        <time>2020-09-06T13:04:49Z</time>
      </trkpt>
      <trkpt lat="42.786169" lon="-.690027">
        <ele>1616.429</ele>
        <time>2020-09-06T13:04:54Z</time>
      </trkpt>
      <trkpt lat="42.786205" lon="-.690069">
        <ele>1615.521</ele>
        <time>2020-09-06T13:05:00Z</time>
      </trkpt>
      <trkpt lat="42.786244" lon="-.690106">
        <ele>1614.608</ele>
        <time>2020-09-06T13:05:04Z</time>
      </trkpt>
      <trkpt lat="42.786292" lon="-.690141">
        <ele>1613.471</ele>
        <time>2020-09-06T13:05:09Z</time>
      </trkpt>
      <trkpt lat="42.786338" lon="-.69016">
        <ele>1612.232</ele>
        <time>2020-09-06T13:05:14Z</time>
      </trkpt>
      <trkpt lat="42.786389" lon="-.690187">
        <ele>1611.018</ele>
        <time>2020-09-06T13:05:18Z</time>
      </trkpt>
      <trkpt lat="42.78643" lon="-.690219">
        <ele>1610.013</ele>
        <time>2020-09-06T13:05:21Z</time>
      </trkpt>
      <trkpt lat="42.786478" lon="-.690251">
        <ele>1609.281</ele>
        <time>2020-09-06T13:05:25Z</time>
      </trkpt>
      <trkpt lat="42.786519" lon="-.690283">
        <ele>1608.460</ele>
        <time>2020-09-06T13:05:29Z</time>
      </trkpt>
      <trkpt lat="42.786537" lon="-.690342">
        <ele>1607.863</ele>
        <time>2020-09-06T13:06:09Z</time>
      </trkpt>
      <trkpt lat="42.786567" lon="-.690389">
        <ele>1607.516</ele>
        <time>2020-09-06T13:06:13Z</time>
      </trkpt>
      <trkpt lat="42.786603" lon="-.690431">
        <ele>1607.339</ele>
        <time>2020-09-06T13:06:16Z</time>
      </trkpt>
      <trkpt lat="42.786638" lon="-.690471">
        <ele>1607.201</ele>
        <time>2020-09-06T13:06:25Z</time>
      </trkpt>
      <trkpt lat="42.786681" lon="-.690514">
        <ele>1607.021</ele>
        <time>2020-09-06T13:06:30Z</time>
      </trkpt>
      <trkpt lat="42.786708" lon="-.690577">
        <ele>1606.808</ele>
        <time>2020-09-06T13:06:33Z</time>
      </trkpt>
      <trkpt lat="42.786727" lon="-.69064">
        <ele>1606.788</ele>
        <time>2020-09-06T13:06:37Z</time>
      </trkpt>
      <trkpt lat="42.786762" lon="-.690683">
        <ele>1606.539</ele>
        <time>2020-09-06T13:06:41Z</time>
      </trkpt>
      <trkpt lat="42.7868" lon="-.690731">
        <ele>1606.265</ele>
        <time>2020-09-06T13:06:45Z</time>
      </trkpt>
      <trkpt lat="42.786834" lon="-.690783">
        <ele>1605.820</ele>
        <time>2020-09-06T13:06:48Z</time>
      </trkpt>
      <trkpt lat="42.786867" lon="-.690831">
        <ele>1605.218</ele>
        <time>2020-09-06T13:06:52Z</time>
      </trkpt>
      <trkpt lat="42.786908" lon="-.690869">
        <ele>1604.627</ele>
        <time>2020-09-06T13:06:56Z</time>
      </trkpt>
      <trkpt lat="42.786942" lon="-.690912">
        <ele>1604.030</ele>
        <time>2020-09-06T13:07:01Z</time>
      </trkpt>
      <trkpt lat="42.78698" lon="-.690948">
        <ele>1603.463</ele>
        <time>2020-09-06T13:07:08Z</time>
      </trkpt>
      <trkpt lat="42.787025" lon="-.690935">
        <ele>1603.024</ele>
        <time>2020-09-06T13:07:20Z</time>
      </trkpt>
      <trkpt lat="42.787071" lon="-.69093">
        <ele>1602.504</ele>
        <time>2020-09-06T13:07:30Z</time>
      </trkpt>
      <trkpt lat="42.787115" lon="-.690952">
        <ele>1602.214</ele>
        <time>2020-09-06T13:07:55Z</time>
      </trkpt>
      <trkpt lat="42.787146" lon="-.690904">
        <ele>1601.808</ele>
        <time>2020-09-06T13:08:17Z</time>
      </trkpt>
      <trkpt lat="42.787174" lon="-.690845">
        <ele>1601.647</ele>
        <time>2020-09-06T13:08:22Z</time>
      </trkpt>
      <trkpt lat="42.787173" lon="-.690782">
        <ele>1600.878</ele>
        <time>2020-09-06T13:08:30Z</time>
      </trkpt>
      <trkpt lat="42.787168" lon="-.69072">
        <ele>1600.384</ele>
        <time>2020-09-06T13:08:36Z</time>
      </trkpt>
      <trkpt lat="42.787207" lon="-.690673">
        <ele>1599.879</ele>
        <time>2020-09-06T13:09:04Z</time>
      </trkpt>
      <trkpt lat="42.787221" lon="-.690614">
        <ele>1599.587</ele>
        <time>2020-09-06T13:09:10Z</time>
      </trkpt>
      <trkpt lat="42.787187" lon="-.690572">
        <ele>1599.366</ele>
        <time>2020-09-06T13:09:18Z</time>
      </trkpt>
      <trkpt lat="42.787153" lon="-.690532">
        <ele>1598.669</ele>
        <time>2020-09-06T13:09:33Z</time>
      </trkpt>
      <trkpt lat="42.787112" lon="-.690503">
        <ele>1598.212</ele>
        <time>2020-09-06T13:09:41Z</time>
      </trkpt>
      <trkpt lat="42.787111" lon="-.690427">
        <ele>1597.368</ele>
        <time>2020-09-06T13:09:58Z</time>
      </trkpt>
      <trkpt lat="42.787114" lon="-.690363">
        <ele>1596.742</ele>
        <time>2020-09-06T13:10:05Z</time>
      </trkpt>
      <trkpt lat="42.787164" lon="-.690359">
        <ele>1594.126</ele>
        <time>2020-09-06T13:11:00Z</time>
      </trkpt>
      <trkpt lat="42.787208" lon="-.690374">
        <ele>1592.508</ele>
        <time>2020-09-06T13:11:19Z</time>
      </trkpt>
      <trkpt lat="42.787252" lon="-.690343">
        <ele>1590.521</ele>
        <time>2020-09-06T13:11:53Z</time>
      </trkpt>
      <trkpt lat="42.787282" lon="-.690289">
        <ele>1589.342</ele>
        <time>2020-09-06T13:11:59Z</time>
      </trkpt>
      <trkpt lat="42.787273" lon="-.690224">
        <ele>1588.638</ele>
        <time>2020-09-06T13:12:06Z</time>
      </trkpt>
      <trkpt lat="42.787304" lon="-.690178">
        <ele>1587.843</ele>
        <time>2020-09-06T13:12:13Z</time>
      </trkpt>
      <trkpt lat="42.787348" lon="-.690199">
        <ele>1587.361</ele>
        <time>2020-09-06T13:12:18Z</time>
      </trkpt>
      <trkpt lat="42.787394" lon="-.690211">
        <ele>1586.340</ele>
        <time>2020-09-06T13:12:29Z</time>
      </trkpt>
      <trkpt lat="42.787431" lon="-.690266">
        <ele>1585.363</ele>
        <time>2020-09-06T13:12:33Z</time>
      </trkpt>
      <trkpt lat="42.787466" lon="-.690313">
        <ele>1584.376</ele>
        <time>2020-09-06T13:12:36Z</time>
      </trkpt>
      <trkpt lat="42.78748" lon="-.690373">
        <ele>1583.498</ele>
        <time>2020-09-06T13:12:39Z</time>
      </trkpt>
      <trkpt lat="42.78751" lon="-.690419">
        <ele>1582.815</ele>
        <time>2020-09-06T13:12:47Z</time>
      </trkpt>
      <trkpt lat="42.787553" lon="-.690391">
        <ele>1581.026</ele>
        <time>2020-09-06T13:13:22Z</time>
      </trkpt>
      <trkpt lat="42.7876" lon="-.690396">
        <ele>1579.908</ele>
        <time>2020-09-06T13:13:34Z</time>
      </trkpt>
      <trkpt lat="42.78757" lon="-.690348">
        <ele>1579.384</ele>
        <time>2020-09-06T13:13:49Z</time>
      </trkpt>
      <trkpt lat="42.787588" lon="-.690284">
        <ele>1578.695</ele>
        <time>2020-09-06T13:14:02Z</time>
      </trkpt>
      <trkpt lat="42.787623" lon="-.69024">
        <ele>1578.261</ele>
        <time>2020-09-06T13:14:31Z</time>
      </trkpt>
      <trkpt lat="42.787669" lon="-.69023">
        <ele>1575.636</ele>
        <time>2020-09-06T13:14:37Z</time>
      </trkpt>
      <trkpt lat="42.787714" lon="-.690252">
        <ele>1574.064</ele>
        <time>2020-09-06T13:14:43Z</time>
      </trkpt>
      <trkpt lat="42.787754" lon="-.690283">
        <ele>1572.163</ele>
        <time>2020-09-06T13:14:53Z</time>
      </trkpt>
      <trkpt lat="42.787792" lon="-.690315">
        <ele>1571.026</ele>
        <time>2020-09-06T13:15:00Z</time>
      </trkpt>
      <trkpt lat="42.787839" lon="-.690322">
        <ele>1569.919</ele>
        <time>2020-09-06T13:15:21Z</time>
      </trkpt>
      <trkpt lat="42.787871" lon="-.690272">
        <ele>1569.235</ele>
        <time>2020-09-06T13:15:27Z</time>
      </trkpt>
      <trkpt lat="42.787918" lon="-.690279">
        <ele>1568.386</ele>
        <time>2020-09-06T13:15:38Z</time>
      </trkpt>
      <trkpt lat="42.787949" lon="-.690333">
        <ele>1567.514</ele>
        <time>2020-09-06T13:15:41Z</time>
      </trkpt>
      <trkpt lat="42.787986" lon="-.690389">
        <ele>1566.708</ele>
        <time>2020-09-06T13:15:44Z</time>
      </trkpt>
      <trkpt lat="42.78801" lon="-.690447">
        <ele>1565.718</ele>
        <time>2020-09-06T13:15:49Z</time>
      </trkpt>
      <trkpt lat="42.788043" lon="-.690493">
        <ele>1565.139</ele>
        <time>2020-09-06T13:15:57Z</time>
      </trkpt>
      <trkpt lat="42.788081" lon="-.69054">
        <ele>1563.725</ele>
        <time>2020-09-06T13:16:11Z</time>
      </trkpt>
      <trkpt lat="42.788131" lon="-.690582">
        <ele>1561.940</ele>
        <time>2020-09-06T13:16:17Z</time>
      </trkpt>
      <trkpt lat="42.788153" lon="-.690636">
        <ele>1560.858</ele>
        <time>2020-09-06T13:16:25Z</time>
      </trkpt>
      <trkpt lat="42.788197" lon="-.690676">
        <ele>1559.597</ele>
        <time>2020-09-06T13:16:35Z</time>
      </trkpt>
      <trkpt lat="42.788243" lon="-.690677">
        <ele>1558.740</ele>
        <time>2020-09-06T13:16:40Z</time>
      </trkpt>
      <trkpt lat="42.788278" lon="-.690718">
        <ele>1558.283</ele>
        <time>2020-09-06T13:16:50Z</time>
      </trkpt>
      <trkpt lat="42.78832" lon="-.69076">
        <ele>1557.026</ele>
        <time>2020-09-06T13:16:55Z</time>
      </trkpt>
      <trkpt lat="42.788371" lon="-.690765">
        <ele>1556.147</ele>
        <time>2020-09-06T13:17:01Z</time>
      </trkpt>
      <trkpt lat="42.788416" lon="-.690787">
        <ele>1555.311</ele>
        <time>2020-09-06T13:17:04Z</time>
      </trkpt>
      <trkpt lat="42.788457" lon="-.690813">
        <ele>1554.508</ele>
        <time>2020-09-06T13:17:07Z</time>
      </trkpt>
      <trkpt lat="42.788498" lon="-.690838">
        <ele>1553.857</ele>
        <time>2020-09-06T13:17:12Z</time>
      </trkpt>
      <trkpt lat="42.78854" lon="-.690865">
        <ele>1553.238</ele>
        <time>2020-09-06T13:17:20Z</time>
      </trkpt>
      <trkpt lat="42.788588" lon="-.690908">
        <ele>1552.344</ele>
        <time>2020-09-06T13:17:24Z</time>
      </trkpt>
      <trkpt lat="42.788629" lon="-.690947">
        <ele>1551.529</ele>
        <time>2020-09-06T13:17:27Z</time>
      </trkpt>
      <trkpt lat="42.788665" lon="-.690985">
        <ele>1550.867</ele>
        <time>2020-09-06T13:17:31Z</time>
      </trkpt>
      <trkpt lat="42.788698" lon="-.691027">
        <ele>1550.046</ele>
        <time>2020-09-06T13:17:35Z</time>
      </trkpt>
      <trkpt lat="42.788734" lon="-.691066">
        <ele>1549.339</ele>
        <time>2020-09-06T13:17:38Z</time>
      </trkpt>
      <trkpt lat="42.788775" lon="-.691091">
        <ele>1548.652</ele>
        <time>2020-09-06T13:17:42Z</time>
      </trkpt>
      <trkpt lat="42.788813" lon="-.691129">
        <ele>1548.153</ele>
        <time>2020-09-06T13:17:46Z</time>
      </trkpt>
      <trkpt lat="42.78884" lon="-.691187">
        <ele>1547.504</ele>
        <time>2020-09-06T13:17:56Z</time>
      </trkpt>
      <trkpt lat="42.788876" lon="-.691245">
        <ele>1547.214</ele>
        <time>2020-09-06T13:18:00Z</time>
      </trkpt>
      <trkpt lat="42.788913" lon="-.691285">
        <ele>1546.808</ele>
        <time>2020-09-06T13:18:07Z</time>
      </trkpt>
      <trkpt lat="42.788949" lon="-.691325">
        <ele>1546.590</ele>
        <time>2020-09-06T13:18:10Z</time>
      </trkpt>
      <trkpt lat="42.788974" lon="-.691376">
        <ele>1546.321</ele>
        <time>2020-09-06T13:18:14Z</time>
      </trkpt>
      <trkpt lat="42.789004" lon="-.691434">
        <ele>1545.637</ele>
        <time>2020-09-06T13:18:18Z</time>
      </trkpt>
      <trkpt lat="42.78903" lon="-.691488">
        <ele>1545.052</ele>
        <time>2020-09-06T13:18:20Z</time>
      </trkpt>
      <trkpt lat="42.789052" lon="-.691544">
        <ele>1544.520</ele>
        <time>2020-09-06T13:18:23Z</time>
      </trkpt>
      <trkpt lat="42.789069" lon="-.691608">
        <ele>1543.959</ele>
        <time>2020-09-06T13:18:27Z</time>
      </trkpt>
      <trkpt lat="42.789099" lon="-.691681">
        <ele>1543.112</ele>
        <time>2020-09-06T13:18:31Z</time>
      </trkpt>
      <trkpt lat="42.789123" lon="-.691733">
        <ele>1542.645</ele>
        <time>2020-09-06T13:18:36Z</time>
      </trkpt>
      <trkpt lat="42.789139" lon="-.691791">
        <ele>1541.853</ele>
        <time>2020-09-06T13:18:44Z</time>
      </trkpt>
      <trkpt lat="42.789165" lon="-.691842">
        <ele>1541.104</ele>
        <time>2020-09-06T13:18:48Z</time>
      </trkpt>
      <trkpt lat="42.789198" lon="-.69191">
        <ele>1540.514</ele>
        <time>2020-09-06T13:18:52Z</time>
      </trkpt>
      <trkpt lat="42.789219" lon="-.691965">
        <ele>1540.108</ele>
        <time>2020-09-06T13:18:55Z</time>
      </trkpt>
      <trkpt lat="42.789243" lon="-.692018">
        <ele>1539.470</ele>
        <time>2020-09-06T13:18:59Z</time>
      </trkpt>
      <trkpt lat="42.789264" lon="-.692083">
        <ele>1538.921</ele>
        <time>2020-09-06T13:19:03Z</time>
      </trkpt>
      <trkpt lat="42.789283" lon="-.692142">
        <ele>1538.217</ele>
        <time>2020-09-06T13:19:08Z</time>
      </trkpt>
      <trkpt lat="42.789295" lon="-.692207">
        <ele>1537.632</ele>
        <time>2020-09-06T13:19:13Z</time>
      </trkpt>
      <trkpt lat="42.789323" lon="-.692262">
        <ele>1536.880</ele>
        <time>2020-09-06T13:19:24Z</time>
      </trkpt>
      <trkpt lat="42.789341" lon="-.692319">
        <ele>1536.359</ele>
        <time>2020-09-06T13:19:30Z</time>
      </trkpt>
      <trkpt lat="42.789354" lon="-.692378">
        <ele>1536.092</ele>
        <time>2020-09-06T13:19:33Z</time>
      </trkpt>
      <trkpt lat="42.789374" lon="-.692445">
        <ele>1535.875</ele>
        <time>2020-09-06T13:19:36Z</time>
      </trkpt>
      <trkpt lat="42.789392" lon="-.692501">
        <ele>1535.842</ele>
        <time>2020-09-06T13:19:39Z</time>
      </trkpt>
      <trkpt lat="42.789411" lon="-.692574">
        <ele>1535.922</ele>
        <time>2020-09-06T13:19:43Z</time>
      </trkpt>
      <trkpt lat="42.78945" lon="-.692607">
        <ele>1535.914</ele>
        <time>2020-09-06T13:19:53Z</time>
      </trkpt>
      <trkpt lat="42.789483" lon="-.692649">
        <ele>1535.908</ele>
        <time>2020-09-06T13:20:05Z</time>
      </trkpt>
      <trkpt lat="42.789512" lon="-.692698">
        <ele>1535.619</ele>
        <time>2020-09-06T13:20:09Z</time>
      </trkpt>
      <trkpt lat="42.789537" lon="-.692761">
        <ele>1535.130</ele>
        <time>2020-09-06T13:20:12Z</time>
      </trkpt>
      <trkpt lat="42.789555" lon="-.692821">
        <ele>1534.536</ele>
        <time>2020-09-06T13:20:14Z</time>
      </trkpt>
      <trkpt lat="42.789567" lon="-.692882">
        <ele>1534.191</ele>
        <time>2020-09-06T13:20:17Z</time>
      </trkpt>
      <trkpt lat="42.789579" lon="-.692942">
        <ele>1533.889</ele>
        <time>2020-09-06T13:20:22Z</time>
      </trkpt>
      <trkpt lat="42.789589" lon="-.693005">
        <ele>1533.648</ele>
        <time>2020-09-06T13:20:28Z</time>
      </trkpt>
      <trkpt lat="42.78959" lon="-.693069">
        <ele>1533.181</ele>
        <time>2020-09-06T13:20:35Z</time>
      </trkpt>
      <trkpt lat="42.789606" lon="-.69313">
        <ele>1532.834</ele>
        <time>2020-09-06T13:20:41Z</time>
      </trkpt>
      <trkpt lat="42.789622" lon="-.69319">
        <ele>1532.265</ele>
        <time>2020-09-06T13:20:46Z</time>
      </trkpt>
      <trkpt lat="42.789645" lon="-.693249">
        <ele>1531.868</ele>
        <time>2020-09-06T13:20:49Z</time>
      </trkpt>
      <trkpt lat="42.789667" lon="-.693303">
        <ele>1531.114</ele>
        <time>2020-09-06T13:20:55Z</time>
      </trkpt>
      <trkpt lat="42.78968" lon="-.69337">
        <ele>1530.608</ele>
        <time>2020-09-06T13:21:00Z</time>
      </trkpt>
      <trkpt lat="42.7897" lon="-.693425">
        <ele>1530.371</ele>
        <time>2020-09-06T13:21:06Z</time>
      </trkpt>
      <trkpt lat="42.789714" lon="-.693483">
        <ele>1529.652</ele>
        <time>2020-09-06T13:21:11Z</time>
      </trkpt>
      <trkpt lat="42.789724" lon="-.693543">
        <ele>1529.238</ele>
        <time>2020-09-06T13:21:14Z</time>
      </trkpt>
      <trkpt lat="42.789717" lon="-.693613">
        <ele>1528.973</ele>
        <time>2020-09-06T13:21:19Z</time>
      </trkpt>
      <trkpt lat="42.78974" lon="-.693675">
        <ele>1528.131</ele>
        <time>2020-09-06T13:21:26Z</time>
      </trkpt>
      <trkpt lat="42.789767" lon="-.693725">
        <ele>1527.620</ele>
        <time>2020-09-06T13:21:31Z</time>
      </trkpt>
      <trkpt lat="42.789787" lon="-.693783">
        <ele>1527.253</ele>
        <time>2020-09-06T13:21:39Z</time>
      </trkpt>
      <trkpt lat="42.789803" lon="-.69385">
        <ele>1527.066</ele>
        <time>2020-09-06T13:21:43Z</time>
      </trkpt>
      <trkpt lat="42.78983" lon="-.6939">
        <ele>1526.971</ele>
        <time>2020-09-06T13:21:51Z</time>
      </trkpt>
      <trkpt lat="42.789857" lon="-.693951">
        <ele>1527.041</ele>
        <time>2020-09-06T13:21:56Z</time>
      </trkpt>
      <trkpt lat="42.789869" lon="-.694014">
        <ele>1527.115</ele>
        <time>2020-09-06T13:22:00Z</time>
      </trkpt>
      <trkpt lat="42.789865" lon="-.694081">
        <ele>1526.708</ele>
        <time>2020-09-06T13:22:12Z</time>
      </trkpt>
      <trkpt lat="42.789864" lon="-.694142">
        <ele>1526.532</ele>
        <time>2020-09-06T13:23:50Z</time>
      </trkpt>
      <trkpt lat="42.789886" lon="-.694202">
        <ele>1526.053</ele>
        <time>2020-09-06T13:24:02Z</time>
      </trkpt>
      <trkpt lat="42.789912" lon="-.694256">
        <ele>1525.759</ele>
        <time>2020-09-06T13:24:07Z</time>
      </trkpt>
      <trkpt lat="42.789936" lon="-.694312">
        <ele>1525.524</ele>
        <time>2020-09-06T13:24:19Z</time>
      </trkpt>
      <trkpt lat="42.789952" lon="-.694374">
        <ele>1525.352</ele>
        <time>2020-09-06T13:24:25Z</time>
      </trkpt>
      <trkpt lat="42.789961" lon="-.694438">
        <ele>1525.251</ele>
        <time>2020-09-06T13:24:30Z</time>
      </trkpt>
      <trkpt lat="42.789956" lon="-.6945">
        <ele>1524.774</ele>
        <time>2020-09-06T13:24:38Z</time>
      </trkpt>
      <trkpt lat="42.78995" lon="-.69457">
        <ele>1524.347</ele>
        <time>2020-09-06T13:24:43Z</time>
      </trkpt>
      <trkpt lat="42.789967" lon="-.694634">
        <ele>1523.116</ele>
        <time>2020-09-06T13:24:52Z</time>
      </trkpt>
      <trkpt lat="42.78997" lon="-.694697">
        <ele>1522.276</ele>
        <time>2020-09-06T13:24:56Z</time>
      </trkpt>
      <trkpt lat="42.789973" lon="-.694763">
        <ele>1521.713</ele>
        <time>2020-09-06T13:25:03Z</time>
      </trkpt>
      <trkpt lat="42.789963" lon="-.694827">
        <ele>1520.708</ele>
        <time>2020-09-06T13:25:15Z</time>
      </trkpt>
      <trkpt lat="42.789954" lon="-.69489">
        <ele>1520.176</ele>
        <time>2020-09-06T13:25:19Z</time>
      </trkpt>
      <trkpt lat="42.789946" lon="-.694951">
        <ele>1519.767</ele>
        <time>2020-09-06T13:25:27Z</time>
      </trkpt>
      <trkpt lat="42.789924" lon="-.695008">
        <ele>1519.153</ele>
        <time>2020-09-06T13:25:32Z</time>
      </trkpt>
      <trkpt lat="42.789893" lon="-.695057">
        <ele>1518.748</ele>
        <time>2020-09-06T13:25:37Z</time>
      </trkpt>
      <trkpt lat="42.789873" lon="-.695126">
        <ele>1517.626</ele>
        <time>2020-09-06T13:25:50Z</time>
      </trkpt>
      <trkpt lat="42.789867" lon="-.695191">
        <ele>1516.825</ele>
        <time>2020-09-06T13:25:55Z</time>
      </trkpt>
      <trkpt lat="42.789854" lon="-.695254">
        <ele>1515.698</ele>
        <time>2020-09-06T13:26:06Z</time>
      </trkpt>
      <trkpt lat="42.78984" lon="-.695315">
        <ele>1514.841</ele>
        <time>2020-09-06T13:26:10Z</time>
      </trkpt>
      <trkpt lat="42.789817" lon="-.695372">
        <ele>1514.379</ele>
        <time>2020-09-06T13:26:18Z</time>
      </trkpt>
      <trkpt lat="42.7898" lon="-.695434">
        <ele>1513.005</ele>
        <time>2020-09-06T13:26:25Z</time>
      </trkpt>
      <trkpt lat="42.789807" lon="-.695497">
        <ele>1512.225</ele>
        <time>2020-09-06T13:26:33Z</time>
      </trkpt>
      <trkpt lat="42.789815" lon="-.695563">
        <ele>1511.108</ele>
        <time>2020-09-06T13:26:41Z</time>
      </trkpt>
      <trkpt lat="42.789806" lon="-.695626">
        <ele>1510.422</ele>
        <time>2020-09-06T13:26:47Z</time>
      </trkpt>
      <trkpt lat="42.789784" lon="-.695689">
        <ele>1509.293</ele>
        <time>2020-09-06T13:27:09Z</time>
      </trkpt>
      <trkpt lat="42.789782" lon="-.695754">
        <ele>1508.579</ele>
        <time>2020-09-06T13:27:13Z</time>
      </trkpt>
      <trkpt lat="42.789779" lon="-.695816">
        <ele>1507.654</ele>
        <time>2020-09-06T13:27:22Z</time>
      </trkpt>
      <trkpt lat="42.789761" lon="-.695875">
        <ele>1507.022</ele>
        <time>2020-09-06T13:27:26Z</time>
      </trkpt>
      <trkpt lat="42.789743" lon="-.695934">
        <ele>1506.791</ele>
        <time>2020-09-06T13:27:32Z</time>
      </trkpt>
      <trkpt lat="42.789711" lon="-.695987">
        <ele>1505.914</ele>
        <time>2020-09-06T13:27:38Z</time>
      </trkpt>
      <trkpt lat="42.789684" lon="-.696042">
        <ele>1505.437</ele>
        <time>2020-09-06T13:27:43Z</time>
      </trkpt>
      <trkpt lat="42.789662" lon="-.696101">
        <ele>1504.545</ele>
        <time>2020-09-06T13:27:51Z</time>
      </trkpt>
      <trkpt lat="42.789623" lon="-.696144">
        <ele>1503.947</ele>
        <time>2020-09-06T13:27:56Z</time>
      </trkpt>
      <trkpt lat="42.789599" lon="-.696197">
        <ele>1503.611</ele>
        <time>2020-09-06T13:28:02Z</time>
      </trkpt>
      <trkpt lat="42.78957" lon="-.696249">
        <ele>1502.608</ele>
        <time>2020-09-06T13:28:09Z</time>
      </trkpt>
      <trkpt lat="42.78954" lon="-.696302">
        <ele>1502.049</ele>
        <time>2020-09-06T13:28:15Z</time>
      </trkpt>
      <trkpt lat="42.789535" lon="-.696365">
        <ele>1500.550</ele>
        <time>2020-09-06T13:28:29Z</time>
      </trkpt>
      <trkpt lat="42.789515" lon="-.696428">
        <ele>1499.676</ele>
        <time>2020-09-06T13:28:35Z</time>
      </trkpt>
      <trkpt lat="42.789503" lon="-.69649">
        <ele>1498.861</ele>
        <time>2020-09-06T13:28:42Z</time>
      </trkpt>
      <trkpt lat="42.789485" lon="-.696555">
        <ele>1498.349</ele>
        <time>2020-09-06T13:28:47Z</time>
      </trkpt>
      <trkpt lat="42.789459" lon="-.696607">
        <ele>1498.028</ele>
        <time>2020-09-06T13:28:55Z</time>
      </trkpt>
      <trkpt lat="42.789416" lon="-.696629">
        <ele>1497.431</ele>
        <time>2020-09-06T13:29:00Z</time>
      </trkpt>
      <trkpt lat="42.78938" lon="-.696669">
        <ele>1497.064</ele>
        <time>2020-09-06T13:29:06Z</time>
      </trkpt>
      <trkpt lat="42.789342" lon="-.696715">
        <ele>1496.297</ele>
        <time>2020-09-06T13:29:16Z</time>
      </trkpt>
      <trkpt lat="42.789294" lon="-.696736">
        <ele>1495.623</ele>
        <time>2020-09-06T13:29:21Z</time>
      </trkpt>
      <trkpt lat="42.789257" lon="-.696771">
        <ele>1495.325</ele>
        <time>2020-09-06T13:29:28Z</time>
      </trkpt>
      <trkpt lat="42.78922" lon="-.696816">
        <ele>1494.308</ele>
        <time>2020-09-06T13:29:33Z</time>
      </trkpt>
      <trkpt lat="42.78919" lon="-.696863">
        <ele>1493.724</ele>
        <time>2020-09-06T13:29:37Z</time>
      </trkpt>
      <trkpt lat="42.789178" lon="-.696926">
        <ele>1493.175</ele>
        <time>2020-09-06T13:29:42Z</time>
      </trkpt>
      <trkpt lat="42.78917" lon="-.696996">
        <ele>1492.431</ele>
        <time>2020-09-06T13:29:45Z</time>
      </trkpt>
      <trkpt lat="42.789168" lon="-.697062">
        <ele>1491.676</ele>
        <time>2020-09-06T13:29:49Z</time>
      </trkpt>
      <trkpt lat="42.789152" lon="-.697126">
        <ele>1490.514</ele>
        <time>2020-09-06T13:29:55Z</time>
      </trkpt>
      <trkpt lat="42.789147" lon="-.697189">
        <ele>1489.893</ele>
        <time>2020-09-06T13:30:04Z</time>
      </trkpt>
      <trkpt lat="42.78914" lon="-.697251">
        <ele>1488.616</ele>
        <time>2020-09-06T13:30:11Z</time>
      </trkpt>
      <trkpt lat="42.789124" lon="-.697311">
        <ele>1487.959</ele>
        <time>2020-09-06T13:30:18Z</time>
      </trkpt>
      <trkpt lat="42.789107" lon="-.697376">
        <ele>1486.729</ele>
        <time>2020-09-06T13:30:24Z</time>
      </trkpt>
      <trkpt lat="42.789083" lon="-.697434">
        <ele>1485.600</ele>
        <time>2020-09-06T13:30:27Z</time>
      </trkpt>
      <trkpt lat="42.789067" lon="-.697498">
        <ele>1484.920</ele>
        <time>2020-09-06T13:30:33Z</time>
      </trkpt>
      <trkpt lat="42.789047" lon="-.697558">
        <ele>1483.608</ele>
        <time>2020-09-06T13:30:45Z</time>
      </trkpt>
      <trkpt lat="42.789031" lon="-.697616">
        <ele>1482.747</ele>
        <time>2020-09-06T13:30:51Z</time>
      </trkpt>
      <trkpt lat="42.788973" lon="-.697766">
        <ele>1479.058</ele>
        <time>2020-09-06T13:31:05Z</time>
      </trkpt>
      <trkpt lat="42.788973" lon="-.697766">
        <ele>1479.064</ele>
        <time>2020-09-06T13:31:05Z</time>
      </trkpt>
      <trkpt lat="42.788973" lon="-.697766">
        <ele>1479.099</ele>
        <time>2020-09-06T13:31:05Z</time>
      </trkpt>
      <trkpt lat="42.788973" lon="-.697766">
        <ele>1479.067</ele>
        <time>2020-09-06T13:31:05Z</time>
      </trkpt>
      <trkpt lat="42.788973" lon="-.697766">
        <ele>1479.076</ele>
        <time>2020-09-06T13:31:05Z</time>
      </trkpt>
      <trkpt lat="42.788973" lon="-.697766">
        <ele>1479.069</ele>
        <time>2020-09-06T13:31:05Z</time>
      </trkpt>
      <trkpt lat="42.788973" lon="-.697766">
        <ele>1479.092</ele>
        <time>2020-09-06T13:31:05Z</time>
      </trkpt>
      <trkpt lat="42.788973" lon="-.697766">
        <ele>1479.018</ele>
        <time>2020-09-06T13:31:05Z</time>
      </trkpt>
      <trkpt lat="42.788973" lon="-.697766">
        <ele>1479.098</ele>
        <time>2020-09-06T13:31:05Z</time>
      </trkpt>
      <trkpt lat="42.788973" lon="-.697766">
        <ele>1479.017</ele>
        <time>2020-09-06T13:31:05Z</time>
      </trkpt>
      <trkpt lat="42.788973" lon="-.697766">
        <ele>1479.008</ele>
        <time>2020-09-06T13:31:05Z</time>
      </trkpt>
      <trkpt lat="42.788973" lon="-.697766">
        <ele>1479.066</ele>
        <time>2020-09-06T13:31:05Z</time>
      </trkpt>
      <trkpt lat="42.788973" lon="-.697766">
        <ele>1479.017</ele>
        <time>2020-09-06T13:31:05Z</time>
      </trkpt>
      <trkpt lat="42.788973" lon="-.697766">
        <ele>1479.013</ele>
        <time>2020-09-06T13:31:05Z</time>
      </trkpt>
      <trkpt lat="42.788973" lon="-.697766">
        <ele>1479.098</ele>
        <time>2020-09-06T13:31:05Z</time>
      </trkpt>
      <trkpt lat="42.788973" lon="-.697766">
        <ele>1479.086</ele>
        <time>2020-09-06T13:31:05Z</time>
      </trkpt>
      <trkpt lat="42.788927" lon="-.69772">
        <ele>1477.195</ele>
        <time>2020-09-06T13:31:11Z</time>
      </trkpt>
      <trkpt lat="42.788927" lon="-.69772">
        <ele>1477.158</ele>
        <time>2020-09-06T13:31:11Z</time>
      </trkpt>
      <trkpt lat="42.788901" lon="-.697774">
        <ele>1476.041</ele>
        <time>2020-09-06T13:31:22Z</time>
      </trkpt>
      <trkpt lat="42.788901" lon="-.697774">
        <ele>1476.031</ele>
        <time>2020-09-06T13:31:22Z</time>
      </trkpt>
      <trkpt lat="42.788952" lon="-.697793">
        <ele>1473.261</ele>
        <time>2020-09-06T13:31:48Z</time>
      </trkpt>
      <trkpt lat="42.788952" lon="-.697793">
        <ele>1473.207</ele>
        <time>2020-09-06T13:31:48Z</time>
      </trkpt>
      <trkpt lat="42.789005" lon="-.697779">
        <ele>1471.808</ele>
        <time>2020-09-06T13:31:53Z</time>
      </trkpt>
      <trkpt lat="42.789005" lon="-.697779">
        <ele>1471.888</ele>
        <time>2020-09-06T13:31:53Z</time>
      </trkpt>
      <trkpt lat="42.789005" lon="-.697779">
        <ele>1471.899</ele>
        <time>2020-09-06T13:31:53Z</time>
      </trkpt>
      <trkpt lat="42.789005" lon="-.697779">
        <ele>1471.835</ele>
        <time>2020-09-06T13:31:53Z</time>
      </trkpt>
      <trkpt lat="42.789023" lon="-.697844">
        <ele>1470.930</ele>
        <time>2020-09-06T13:32:22Z</time>
      </trkpt>
      <trkpt lat="42.789064" lon="-.697877">
        <ele>1470.328</ele>
        <time>2020-09-06T13:32:31Z</time>
      </trkpt>
      <trkpt lat="42.789094" lon="-.697925">
        <ele>1470.417</ele>
        <time>2020-09-06T13:33:05Z</time>
      </trkpt>
      <trkpt lat="42.789116" lon="-.697985">
        <ele>1470.530</ele>
        <time>2020-09-06T13:33:10Z</time>
      </trkpt>
      <trkpt lat="42.789144" lon="-.698038">
        <ele>1470.273</ele>
        <time>2020-09-06T13:33:18Z</time>
      </trkpt>
      <trkpt lat="42.789145" lon="-.698111">
        <ele>1469.756</ele>
        <time>2020-09-06T13:33:21Z</time>
      </trkpt>
      <trkpt lat="42.789128" lon="-.698169">
        <ele>1469.259</ele>
        <time>2020-09-06T13:33:24Z</time>
      </trkpt>
      <trkpt lat="42.789109" lon="-.698226">
        <ele>1468.914</ele>
        <time>2020-09-06T13:33:27Z</time>
      </trkpt>
      <trkpt lat="42.789095" lon="-.698292">
        <ele>1468.208</ele>
        <time>2020-09-06T13:33:31Z</time>
      </trkpt>
      <trkpt lat="42.789081" lon="-.698356">
        <ele>1467.730</ele>
        <time>2020-09-06T13:33:36Z</time>
      </trkpt>
      <trkpt lat="42.789072" lon="-.698424">
        <ele>1466.711</ele>
        <time>2020-09-06T13:33:42Z</time>
      </trkpt>
      <trkpt lat="42.789072" lon="-.698485">
        <ele>1465.617</ele>
        <time>2020-09-06T13:33:45Z</time>
      </trkpt>
      <trkpt lat="42.789074" lon="-.698555">
        <ele>1464.512</ele>
        <time>2020-09-06T13:33:49Z</time>
      </trkpt>
      <trkpt lat="42.789072" lon="-.69862">
        <ele>1463.630</ele>
        <time>2020-09-06T13:33:54Z</time>
      </trkpt>
      <trkpt lat="42.789071" lon="-.698684">
        <ele>1462.489</ele>
        <time>2020-09-06T13:34:05Z</time>
      </trkpt>
      <trkpt lat="42.789064" lon="-.698748">
        <ele>1461.622</ele>
        <time>2020-09-06T13:34:08Z</time>
      </trkpt>
      <trkpt lat="42.789056" lon="-.698814">
        <ele>1461.115</ele>
        <time>2020-09-06T13:34:14Z</time>
      </trkpt>
      <trkpt lat="42.789071" lon="-.698875">
        <ele>1460.111</ele>
        <time>2020-09-06T13:34:26Z</time>
      </trkpt>
      <trkpt lat="42.789105" lon="-.698919">
        <ele>1459.521</ele>
        <time>2020-09-06T13:34:30Z</time>
      </trkpt>
      <trkpt lat="42.78914" lon="-.698961">
        <ele>1459.103</ele>
        <time>2020-09-06T13:34:36Z</time>
      </trkpt>
      <trkpt lat="42.789167" lon="-.699023">
        <ele>1458.808</ele>
        <time>2020-09-06T13:34:41Z</time>
      </trkpt>
      <trkpt lat="42.789174" lon="-.699086">
        <ele>1458.616</ele>
        <time>2020-09-06T13:34:46Z</time>
      </trkpt>
      <trkpt lat="42.789163" lon="-.699156">
        <ele>1458.577</ele>
        <time>2020-09-06T13:34:56Z</time>
      </trkpt>
      <trkpt lat="42.789176" lon="-.699216">
        <ele>1458.443</ele>
        <time>2020-09-06T13:35:00Z</time>
      </trkpt>
      <trkpt lat="42.789195" lon="-.699278">
        <ele>1458.448</ele>
        <time>2020-09-06T13:35:07Z</time>
      </trkpt>
      <trkpt lat="42.789212" lon="-.699345">
        <ele>1458.566</ele>
        <time>2020-09-06T13:35:12Z</time>
      </trkpt>
      <trkpt lat="42.789235" lon="-.699401">
        <ele>1458.645</ele>
        <time>2020-09-06T13:35:16Z</time>
      </trkpt>
      <trkpt lat="42.789223" lon="-.699462">
        <ele>1458.668</ele>
        <time>2020-09-06T13:35:26Z</time>
      </trkpt>
      <trkpt lat="42.789219" lon="-.699532">
        <ele>1458.661</ele>
        <time>2020-09-06T13:35:31Z</time>
      </trkpt>
      <trkpt lat="42.789209" lon="-.699594">
        <ele>1458.634</ele>
        <time>2020-09-06T13:35:37Z</time>
      </trkpt>
      <trkpt lat="42.789177" lon="-.699643">
        <ele>1458.655</ele>
        <time>2020-09-06T13:35:42Z</time>
      </trkpt>
      <trkpt lat="42.789156" lon="-.699702">
        <ele>1458.610</ele>
        <time>2020-09-06T13:35:47Z</time>
      </trkpt>
      <trkpt lat="42.789126" lon="-.699759">
        <ele>1458.308</ele>
        <time>2020-09-06T13:35:57Z</time>
      </trkpt>
      <trkpt lat="42.789125" lon="-.699827">
        <ele>1458.158</ele>
        <time>2020-09-06T13:36:03Z</time>
      </trkpt>
      <trkpt lat="42.78913" lon="-.69989">
        <ele>1457.669</ele>
        <time>2020-09-06T13:36:14Z</time>
      </trkpt>
      <trkpt lat="42.789143" lon="-.699949">
        <ele>1457.345</ele>
        <time>2020-09-06T13:36:25Z</time>
      </trkpt>
      <trkpt lat="42.789106" lon="-.699995">
        <ele>1456.580</ele>
        <time>2020-09-06T13:37:22Z</time>
      </trkpt>
      <trkpt lat="42.789063" lon="-.700024">
        <ele>1456.088</ele>
        <time>2020-09-06T13:37:25Z</time>
      </trkpt>
      <trkpt lat="42.789118" lon="-.700082">
        <ele>1455.477</ele>
        <time>2020-09-06T13:38:18Z</time>
      </trkpt>
      <trkpt lat="42.789113" lon="-.700146">
        <ele>1454.080</ele>
        <time>2020-09-06T13:40:36Z</time>
      </trkpt>
      <trkpt lat="42.789075" lon="-.70019">
        <ele>1453.223</ele>
        <time>2020-09-06T13:40:41Z</time>
      </trkpt>
      <trkpt lat="42.789043" lon="-.700235">
        <ele>1452.746</ele>
        <time>2020-09-06T13:40:47Z</time>
      </trkpt>
      <trkpt lat="42.789028" lon="-.700294">
        <ele>1452.088</ele>
        <time>2020-09-06T13:40:51Z</time>
      </trkpt>
      <trkpt lat="42.789018" lon="-.700364">
        <ele>1451.616</ele>
        <time>2020-09-06T13:40:55Z</time>
      </trkpt>
      <trkpt lat="42.789007" lon="-.700426">
        <ele>1451.408</ele>
        <time>2020-09-06T13:41:01Z</time>
      </trkpt>
      <trkpt lat="42.788989" lon="-.70049">
        <ele>1451.379</ele>
        <time>2020-09-06T13:41:06Z</time>
      </trkpt>
      <trkpt lat="42.788968" lon="-.700555">
        <ele>1451.330</ele>
        <time>2020-09-06T13:41:10Z</time>
      </trkpt>
      <trkpt lat="42.788946" lon="-.700612">
        <ele>1451.466</ele>
        <time>2020-09-06T13:41:18Z</time>
      </trkpt>
      <trkpt lat="42.788922" lon="-.700672">
        <ele>1451.431</ele>
        <time>2020-09-06T13:41:21Z</time>
      </trkpt>
      <trkpt lat="42.788906" lon="-.700734">
        <ele>1451.499</ele>
        <time>2020-09-06T13:41:26Z</time>
      </trkpt>
      <trkpt lat="42.788889" lon="-.700796">
        <ele>1451.538</ele>
        <time>2020-09-06T13:41:31Z</time>
      </trkpt>
      <trkpt lat="42.78887" lon="-.700855">
        <ele>1451.631</ele>
        <time>2020-09-06T13:41:34Z</time>
      </trkpt>
      <trkpt lat="42.788849" lon="-.700912">
        <ele>1451.744</ele>
        <time>2020-09-06T13:41:38Z</time>
      </trkpt>
      <trkpt lat="42.788824" lon="-.700967">
        <ele>1451.831</ele>
        <time>2020-09-06T13:41:42Z</time>
      </trkpt>
      <trkpt lat="42.788799" lon="-.701022">
        <ele>1452.161</ele>
        <time>2020-09-06T13:41:52Z</time>
      </trkpt>
      <trkpt lat="42.788782" lon="-.701079">
        <ele>1452.307</ele>
        <time>2020-09-06T13:42:00Z</time>
      </trkpt>
      <trkpt lat="42.788773" lon="-.701147">
        <ele>1452.708</ele>
        <time>2020-09-06T13:42:08Z</time>
      </trkpt>
      <trkpt lat="42.788764" lon="-.701215">
        <ele>1453.098</ele>
        <time>2020-09-06T13:42:11Z</time>
      </trkpt>
      <trkpt lat="42.788753" lon="-.701275">
        <ele>1453.239</ele>
        <time>2020-09-06T13:42:15Z</time>
      </trkpt>
      <trkpt lat="42.788748" lon="-.701339">
        <ele>1453.655</ele>
        <time>2020-09-06T13:42:21Z</time>
      </trkpt>
      <trkpt lat="42.788723" lon="-.701404">
        <ele>1454.070</ele>
        <time>2020-09-06T13:42:25Z</time>
      </trkpt>
      <trkpt lat="42.7887" lon="-.701478">
        <ele>1454.178</ele>
        <time>2020-09-06T13:42:28Z</time>
      </trkpt>
      <trkpt lat="42.788681" lon="-.701541">
        <ele>1454.227</ele>
        <time>2020-09-06T13:42:31Z</time>
      </trkpt>
      <trkpt lat="42.788654" lon="-.701613">
        <ele>1454.110</ele>
        <time>2020-09-06T13:42:35Z</time>
      </trkpt>
      <trkpt lat="42.788636" lon="-.701682">
        <ele>1453.963</ele>
        <time>2020-09-06T13:42:38Z</time>
      </trkpt>
      <trkpt lat="42.788611" lon="-.701736">
        <ele>1453.853</ele>
        <time>2020-09-06T13:42:57Z</time>
      </trkpt>
      <trkpt lat="42.78857" lon="-.701773">
        <ele>1453.804</ele>
        <time>2020-09-06T13:43:43Z</time>
      </trkpt>
      <trkpt lat="42.788537" lon="-.701828">
        <ele>1453.914</ele>
        <time>2020-09-06T13:43:47Z</time>
      </trkpt>
      <trkpt lat="42.788519" lon="-.701886">
        <ele>1453.908</ele>
        <time>2020-09-06T13:43:53Z</time>
      </trkpt>
      <trkpt lat="42.788506" lon="-.701945">
        <ele>1454.230</ele>
        <time>2020-09-06T13:43:58Z</time>
      </trkpt>
      <trkpt lat="42.788481" lon="-.702">
        <ele>1454.421</ele>
        <time>2020-09-06T13:44:01Z</time>
      </trkpt>
      <trkpt lat="42.788463" lon="-.702058">
        <ele>1454.517</ele>
        <time>2020-09-06T13:44:08Z</time>
      </trkpt>
      <trkpt lat="42.788458" lon="-.702122">
        <ele>1454.662</ele>
        <time>2020-09-06T13:44:12Z</time>
      </trkpt>
      <trkpt lat="42.788437" lon="-.702177">
        <ele>1454.740</ele>
        <time>2020-09-06T13:44:17Z</time>
      </trkpt>
      <trkpt lat="42.788403" lon="-.702222">
        <ele>1454.829</ele>
        <time>2020-09-06T13:44:25Z</time>
      </trkpt>
      <trkpt lat="42.78837" lon="-.702267">
        <ele>1454.842</ele>
        <time>2020-09-06T13:44:28Z</time>
      </trkpt>
      <trkpt lat="42.788336" lon="-.702321">
        <ele>1454.575</ele>
        <time>2020-09-06T13:44:31Z</time>
      </trkpt>
      <trkpt lat="42.788313" lon="-.702383">
        <ele>1454.323</ele>
        <time>2020-09-06T13:44:34Z</time>
      </trkpt>
      <trkpt lat="42.788298" lon="-.702445">
        <ele>1454.183</ele>
        <time>2020-09-06T13:44:36Z</time>
      </trkpt>
      <trkpt lat="42.788285" lon="-.702504">
        <ele>1454.011</ele>
        <time>2020-09-06T13:44:40Z</time>
      </trkpt>
      <trkpt lat="42.788269" lon="-.702563">
        <ele>1453.908</ele>
        <time>2020-09-06T13:44:47Z</time>
      </trkpt>
      <trkpt lat="42.788238" lon="-.702618">
        <ele>1453.947</ele>
        <time>2020-09-06T13:44:53Z</time>
      </trkpt>
      <trkpt lat="42.788217" lon="-.702678">
        <ele>1453.828</ele>
        <time>2020-09-06T13:44:55Z</time>
      </trkpt>
      <trkpt lat="42.788195" lon="-.702736">
        <ele>1453.474</ele>
        <time>2020-09-06T13:44:58Z</time>
      </trkpt>
      <trkpt lat="42.788174" lon="-.702804">
        <ele>1452.839</ele>
        <time>2020-09-06T13:45:01Z</time>
      </trkpt>
      <trkpt lat="42.788146" lon="-.702863">
        <ele>1452.137</ele>
        <time>2020-09-06T13:45:04Z</time>
      </trkpt>
      <trkpt lat="42.788129" lon="-.702931">
        <ele>1451.416</ele>
        <time>2020-09-06T13:45:08Z</time>
      </trkpt>
      <trkpt lat="42.788109" lon="-.702989">
        <ele>1450.849</ele>
        <time>2020-09-06T13:45:13Z</time>
      </trkpt>
      <trkpt lat="42.788089" lon="-.703046">
        <ele>1450.212</ele>
        <time>2020-09-06T13:45:16Z</time>
      </trkpt>
      <trkpt lat="42.788065" lon="-.7031">
        <ele>1449.712</ele>
        <time>2020-09-06T13:45:19Z</time>
      </trkpt>
      <trkpt lat="42.788039" lon="-.703153">
        <ele>1449.032</ele>
        <time>2020-09-06T13:45:24Z</time>
      </trkpt>
      <trkpt lat="42.788017" lon="-.703208">
        <ele>1448.405</ele>
        <time>2020-09-06T13:45:29Z</time>
      </trkpt>
      <trkpt lat="42.787985" lon="-.703261">
        <ele>1447.808</ele>
        <time>2020-09-06T13:45:34Z</time>
      </trkpt>
      <trkpt lat="42.78797" lon="-.703319">
        <ele>1447.596</ele>
        <time>2020-09-06T13:45:41Z</time>
      </trkpt>
      <trkpt lat="42.78795" lon="-.703376">
        <ele>1445.997</ele>
        <time>2020-09-06T13:45:47Z</time>
      </trkpt>
      <trkpt lat="42.787931" lon="-.70344">
        <ele>1443.943</ele>
        <time>2020-09-06T13:45:53Z</time>
      </trkpt>
      <trkpt lat="42.7879" lon="-.703514">
        <ele>1441.998</ele>
        <time>2020-09-06T13:45:56Z</time>
      </trkpt>
      <trkpt lat="42.787871" lon="-.70358">
        <ele>1440.446</ele>
        <time>2020-09-06T13:45:59Z</time>
      </trkpt>
      <trkpt lat="42.787847" lon="-.703633">
        <ele>1439.455</ele>
        <time>2020-09-06T13:46:01Z</time>
      </trkpt>
      <trkpt lat="42.787829" lon="-.703705">
        <ele>1438.768</ele>
        <time>2020-09-06T13:46:05Z</time>
      </trkpt>
      <trkpt lat="42.787824" lon="-.703773">
        <ele>1438.271</ele>
        <time>2020-09-06T13:46:08Z</time>
      </trkpt>
      <trkpt lat="42.787815" lon="-.703836">
        <ele>1437.478</ele>
        <time>2020-09-06T13:46:11Z</time>
      </trkpt>
      <trkpt lat="42.787801" lon="-.703897">
        <ele>1436.633</ele>
        <time>2020-09-06T13:46:13Z</time>
      </trkpt>
      <trkpt lat="42.787781" lon="-.703956">
        <ele>1435.726</ele>
        <time>2020-09-06T13:46:17Z</time>
      </trkpt>
      <trkpt lat="42.787754" lon="-.704006">
        <ele>1434.508</ele>
        <time>2020-09-06T13:46:21Z</time>
      </trkpt>
      <trkpt lat="42.787731" lon="-.704066">
        <ele>1433.292</ele>
        <time>2020-09-06T13:46:24Z</time>
      </trkpt>
      <trkpt lat="42.787711" lon="-.704126">
        <ele>1431.543</ele>
        <time>2020-09-06T13:46:28Z</time>
      </trkpt>
      <trkpt lat="42.787685" lon="-.704179">
        <ele>1430.179</ele>
        <time>2020-09-06T13:46:32Z</time>
      </trkpt>
      <trkpt lat="42.787655" lon="-.704229">
        <ele>1428.554</ele>
        <time>2020-09-06T13:46:36Z</time>
      </trkpt>
      <trkpt lat="42.787619" lon="-.704271">
        <ele>1426.952</ele>
        <time>2020-09-06T13:46:40Z</time>
      </trkpt>
      <trkpt lat="42.787593" lon="-.704332">
        <ele>1425.251</ele>
        <time>2020-09-06T13:46:44Z</time>
      </trkpt>
      <trkpt lat="42.787578" lon="-.704395">
        <ele>1423.834</ele>
        <time>2020-09-06T13:46:48Z</time>
      </trkpt>
      <trkpt lat="42.787567" lon="-.704459">
        <ele>1422.497</ele>
        <time>2020-09-06T13:46:51Z</time>
      </trkpt>
      <trkpt lat="42.787553" lon="-.704524">
        <ele>1420.845</ele>
        <time>2020-09-06T13:46:55Z</time>
      </trkpt>
      <trkpt lat="42.787537" lon="-.704586">
        <ele>1419.247</ele>
        <time>2020-09-06T13:46:59Z</time>
      </trkpt>
      <trkpt lat="42.787519" lon="-.704648">
        <ele>1417.611</ele>
        <time>2020-09-06T13:47:03Z</time>
      </trkpt>
      <trkpt lat="42.787499" lon="-.704718">
        <ele>1416.408</ele>
        <time>2020-09-06T13:47:07Z</time>
      </trkpt>
      <trkpt lat="42.787474" lon="-.704779">
        <ele>1415.639</ele>
        <time>2020-09-06T13:47:12Z</time>
      </trkpt>
      <trkpt lat="42.787448" lon="-.704833">
        <ele>1414.820</ele>
        <time>2020-09-06T13:47:16Z</time>
      </trkpt>
      <trkpt lat="42.787427" lon="-.704896">
        <ele>1414.166</ele>
        <time>2020-09-06T13:47:21Z</time>
      </trkpt>
      <trkpt lat="42.787419" lon="-.704962">
        <ele>1413.141</ele>
        <time>2020-09-06T13:47:25Z</time>
      </trkpt>
      <trkpt lat="42.787404" lon="-.705037">
        <ele>1412.419</ele>
        <time>2020-09-06T13:47:30Z</time>
      </trkpt>
      <trkpt lat="42.787394" lon="-.705102">
        <ele>1411.638</ele>
        <time>2020-09-06T13:47:35Z</time>
      </trkpt>
      <trkpt lat="42.787389" lon="-.705172">
        <ele>1410.861</ele>
        <time>2020-09-06T13:47:39Z</time>
      </trkpt>
      <trkpt lat="42.787376" lon="-.705245">
        <ele>1410.134</ele>
        <time>2020-09-06T13:47:43Z</time>
      </trkpt>
      <trkpt lat="42.787356" lon="-.705303">
        <ele>1409.399</ele>
        <time>2020-09-06T13:47:47Z</time>
      </trkpt>
      <trkpt lat="42.787327" lon="-.705354">
        <ele>1408.407</ele>
        <time>2020-09-06T13:47:51Z</time>
      </trkpt>
      <trkpt lat="42.78729" lon="-.705389">
        <ele>1407.627</ele>
        <time>2020-09-06T13:47:55Z</time>
      </trkpt>
      <trkpt lat="42.787249" lon="-.705431">
        <ele>1406.808</ele>
        <time>2020-09-06T13:47:59Z</time>
      </trkpt>
      <trkpt lat="42.787224" lon="-.705482">
        <ele>1406.154</ele>
        <time>2020-09-06T13:48:02Z</time>
      </trkpt>
      <trkpt lat="42.787217" lon="-.705546">
        <ele>1405.475</ele>
        <time>2020-09-06T13:48:05Z</time>
      </trkpt>
      <trkpt lat="42.787229" lon="-.705611">
        <ele>1404.751</ele>
        <time>2020-09-06T13:48:10Z</time>
      </trkpt>
      <trkpt lat="42.787247" lon="-.705668">
        <ele>1404.326</ele>
        <time>2020-09-06T13:48:14Z</time>
      </trkpt>
      <trkpt lat="42.787244" lon="-.705733">
        <ele>1403.974</ele>
        <time>2020-09-06T13:48:27Z</time>
      </trkpt>
      <trkpt lat="42.787242" lon="-.7058">
        <ele>1403.783</ele>
        <time>2020-09-06T13:48:30Z</time>
      </trkpt>
      <trkpt lat="42.787245" lon="-.705869">
        <ele>1403.656</ele>
        <time>2020-09-06T13:48:34Z</time>
      </trkpt>
      <trkpt lat="42.787267" lon="-.705941">
        <ele>1403.159</ele>
        <time>2020-09-06T13:48:38Z</time>
      </trkpt>
      <trkpt lat="42.787283" lon="-.705999">
        <ele>1402.577</ele>
        <time>2020-09-06T13:48:41Z</time>
      </trkpt>
      <trkpt lat="42.787303" lon="-.706069">
        <ele>1401.861</ele>
        <time>2020-09-06T13:48:44Z</time>
      </trkpt>
      <trkpt lat="42.78732" lon="-.706135">
        <ele>1401.327</ele>
        <time>2020-09-06T13:48:46Z</time>
      </trkpt>
      <trkpt lat="42.787339" lon="-.706191">
        <ele>1401.008</ele>
        <time>2020-09-06T13:48:49Z</time>
      </trkpt>
      <trkpt lat="42.787357" lon="-.706258">
        <ele>1400.562</ele>
        <time>2020-09-06T13:48:52Z</time>
      </trkpt>
      <trkpt lat="42.78736" lon="-.706321">
        <ele>1400.213</ele>
        <time>2020-09-06T13:48:55Z</time>
      </trkpt>
      <trkpt lat="42.787354" lon="-.706387">
        <ele>1399.929</ele>
        <time>2020-09-06T13:49:01Z</time>
      </trkpt>
      <trkpt lat="42.787353" lon="-.706449">
        <ele>1399.454</ele>
        <time>2020-09-06T13:49:11Z</time>
      </trkpt>
      <trkpt lat="42.787367" lon="-.706507">
        <ele>1399.082</ele>
        <time>2020-09-06T13:49:15Z</time>
      </trkpt>
      <trkpt lat="42.787382" lon="-.706567">
        <ele>1398.531</ele>
        <time>2020-09-06T13:49:22Z</time>
      </trkpt>
      <trkpt lat="42.787385" lon="-.706637">
        <ele>1398.124</ele>
        <time>2020-09-06T13:49:26Z</time>
      </trkpt>
      <trkpt lat="42.787377" lon="-.706703">
        <ele>1397.967</ele>
        <time>2020-09-06T13:49:30Z</time>
      </trkpt>
      <trkpt lat="42.787361" lon="-.706762">
        <ele>1397.661</ele>
        <time>2020-09-06T13:49:33Z</time>
      </trkpt>
      <trkpt lat="42.787347" lon="-.706821">
        <ele>1397.321</ele>
        <time>2020-09-06T13:49:35Z</time>
      </trkpt>
      <trkpt lat="42.787341" lon="-.70689">
        <ele>1397.013</ele>
        <time>2020-09-06T13:49:38Z</time>
      </trkpt>
      <trkpt lat="42.787341" lon="-.706955">
        <ele>1396.608</ele>
        <time>2020-09-06T13:49:40Z</time>
      </trkpt>
      <trkpt lat="42.787343" lon="-.707019">
        <ele>1396.361</ele>
        <time>2020-09-06T13:49:43Z</time>
      </trkpt>
      <trkpt lat="42.787348" lon="-.707087">
        <ele>1396.152</ele>
        <time>2020-09-06T13:49:46Z</time>
      </trkpt>
      <trkpt lat="42.787355" lon="-.707161">
        <ele>1395.628</ele>
        <time>2020-09-06T13:49:52Z</time>
      </trkpt>
      <trkpt lat="42.78736" lon="-.707223">
        <ele>1395.263</ele>
        <time>2020-09-06T13:49:55Z</time>
      </trkpt>
      <trkpt lat="42.787367" lon="-.707284">
        <ele>1395.011</ele>
        <time>2020-09-06T13:49:59Z</time>
      </trkpt>
      <trkpt lat="42.787378" lon="-.707352">
        <ele>1394.690</ele>
        <time>2020-09-06T13:50:06Z</time>
      </trkpt>
      <trkpt lat="42.787386" lon="-.707416">
        <ele>1394.453</ele>
        <time>2020-09-06T13:50:10Z</time>
      </trkpt>
      <trkpt lat="42.787397" lon="-.707479">
        <ele>1394.046</ele>
        <time>2020-09-06T13:50:17Z</time>
      </trkpt>
      <trkpt lat="42.787411" lon="-.707542">
        <ele>1393.652</ele>
        <time>2020-09-06T13:50:21Z</time>
      </trkpt>
      <trkpt lat="42.787424" lon="-.707602">
        <ele>1393.453</ele>
        <time>2020-09-06T13:50:24Z</time>
      </trkpt>
      <trkpt lat="42.78744" lon="-.707664">
        <ele>1392.708</ele>
        <time>2020-09-06T13:50:28Z</time>
      </trkpt>
      <trkpt lat="42.787457" lon="-.707727">
        <ele>1392.008</ele>
        <time>2020-09-06T13:50:31Z</time>
      </trkpt>
      <trkpt lat="42.787473" lon="-.707806">
        <ele>1391.120</ele>
        <time>2020-09-06T13:50:33Z</time>
      </trkpt>
      <trkpt lat="42.787479" lon="-.707881">
        <ele>1390.211</ele>
        <time>2020-09-06T13:50:36Z</time>
      </trkpt>
      <trkpt lat="42.787483" lon="-.707947">
        <ele>1389.687</ele>
        <time>2020-09-06T13:50:41Z</time>
      </trkpt>
      <trkpt lat="42.787482" lon="-.70801">
        <ele>1389.242</ele>
        <time>2020-09-06T13:50:45Z</time>
      </trkpt>
      <trkpt lat="42.787484" lon="-.708078">
        <ele>1388.310</ele>
        <time>2020-09-06T13:50:49Z</time>
      </trkpt>
      <trkpt lat="42.787473" lon="-.708151">
        <ele>1387.669</ele>
        <time>2020-09-06T13:50:53Z</time>
      </trkpt>
      <trkpt lat="42.787472" lon="-.708219">
        <ele>1387.022</ele>
        <time>2020-09-06T13:50:56Z</time>
      </trkpt>
      <trkpt lat="42.787485" lon="-.70828">
        <ele>1386.585</ele>
        <time>2020-09-06T13:50:59Z</time>
      </trkpt>
      <trkpt lat="42.787496" lon="-.708345">
        <ele>1385.978</ele>
        <time>2020-09-06T13:51:03Z</time>
      </trkpt>
      <trkpt lat="42.787512" lon="-.708411">
        <ele>1385.433</ele>
        <time>2020-09-06T13:51:07Z</time>
      </trkpt>
      <trkpt lat="42.78752" lon="-.70848">
        <ele>1385.126</ele>
        <time>2020-09-06T13:51:10Z</time>
      </trkpt>
      <trkpt lat="42.78752" lon="-.70848">
        <ele>1385.108</ele>
        <time>2020-09-06T13:51:10Z</time>
      </trkpt>
      <trkpt lat="42.787514" lon="-.708542">
        <ele>1385.052</ele>
        <time>2020-09-06T13:51:13Z</time>
      </trkpt>
      <trkpt lat="42.787503" lon="-.708603">
        <ele>1384.983</ele>
        <time>2020-09-06T13:51:16Z</time>
      </trkpt>
      <trkpt lat="42.787493" lon="-.708663">
        <ele>1384.879</ele>
        <time>2020-09-06T13:51:18Z</time>
      </trkpt>
      <trkpt lat="42.787479" lon="-.708722">
        <ele>1384.524</ele>
        <time>2020-09-06T13:51:21Z</time>
      </trkpt>
      <trkpt lat="42.787457" lon="-.70878">
        <ele>1384.092</ele>
        <time>2020-09-06T13:51:24Z</time>
      </trkpt>
      <trkpt lat="42.787428" lon="-.708841">
        <ele>1383.621</ele>
        <time>2020-09-06T13:51:28Z</time>
      </trkpt>
      <trkpt lat="42.7874" lon="-.708891">
        <ele>1383.344</ele>
        <time>2020-09-06T13:51:31Z</time>
      </trkpt>
      <trkpt lat="42.787376" lon="-.708947">
        <ele>1383.037</ele>
        <time>2020-09-06T13:51:35Z</time>
      </trkpt>
      <trkpt lat="42.787349" lon="-.708998">
        <ele>1382.638</ele>
        <time>2020-09-06T13:51:40Z</time>
      </trkpt>
      <trkpt lat="42.787308" lon="-.709045">
        <ele>1382.070</ele>
        <time>2020-09-06T13:51:45Z</time>
      </trkpt>
      <trkpt lat="42.787267" lon="-.709091">
        <ele>1381.217</ele>
        <time>2020-09-06T13:51:49Z</time>
      </trkpt>
      <trkpt lat="42.787228" lon="-.709125">
        <ele>1380.508</ele>
        <time>2020-09-06T13:51:53Z</time>
      </trkpt>
      <trkpt lat="42.787189" lon="-.709163">
        <ele>1380.088</ele>
        <time>2020-09-06T13:51:56Z</time>
      </trkpt>
      <trkpt lat="42.787151" lon="-.709196">
        <ele>1379.559</ele>
        <time>2020-09-06T13:51:59Z</time>
      </trkpt>
      <trkpt lat="42.787116" lon="-.709241">
        <ele>1379.065</ele>
        <time>2020-09-06T13:52:02Z</time>
      </trkpt>
      <trkpt lat="42.787087" lon="-.70929">
        <ele>1378.790</ele>
        <time>2020-09-06T13:52:05Z</time>
      </trkpt>
      <trkpt lat="42.787063" lon="-.70935">
        <ele>1378.338</ele>
        <time>2020-09-06T13:52:09Z</time>
      </trkpt>
      <trkpt lat="42.787035" lon="-.709409">
        <ele>1377.917</ele>
        <time>2020-09-06T13:52:14Z</time>
      </trkpt>
      <trkpt lat="42.78701" lon="-.709461">
        <ele>1377.240</ele>
        <time>2020-09-06T13:52:20Z</time>
      </trkpt>
      <trkpt lat="42.786987" lon="-.709521">
        <ele>1376.633</ele>
        <time>2020-09-06T13:52:24Z</time>
      </trkpt>
      <trkpt lat="42.786965" lon="-.709575">
        <ele>1376.266</ele>
        <time>2020-09-06T13:52:28Z</time>
      </trkpt>
      <trkpt lat="42.78694" lon="-.709644">
        <ele>1375.829</ele>
        <time>2020-09-06T13:52:32Z</time>
      </trkpt>
      <trkpt lat="42.786933" lon="-.709705">
        <ele>1375.421</ele>
        <time>2020-09-06T13:52:35Z</time>
      </trkpt>
      <trkpt lat="42.786925" lon="-.709767">
        <ele>1375.108</ele>
        <time>2020-09-06T13:52:38Z</time>
      </trkpt>
      <trkpt lat="42.786913" lon="-.709831">
        <ele>1374.941</ele>
        <time>2020-09-06T13:52:44Z</time>
      </trkpt>
      <trkpt lat="42.786887" lon="-.709891">
        <ele>1374.482</ele>
        <time>2020-09-06T13:52:47Z</time>
      </trkpt>
      <trkpt lat="42.78686" lon="-.709951">
        <ele>1373.948</ele>
        <time>2020-09-06T13:52:50Z</time>
      </trkpt>
      <trkpt lat="42.786833" lon="-.710002">
        <ele>1373.583</ele>
        <time>2020-09-06T13:52:53Z</time>
      </trkpt>
      <trkpt lat="42.786799" lon="-.710055">
        <ele>1373.361</ele>
        <time>2020-09-06T13:52:57Z</time>
      </trkpt>
      <trkpt lat="42.78677" lon="-.710118">
        <ele>1372.740</ele>
        <time>2020-09-06T13:53:05Z</time>
      </trkpt>
      <trkpt lat="42.786745" lon="-.710173">
        <ele>1372.333</ele>
        <time>2020-09-06T13:53:09Z</time>
      </trkpt>
      <trkpt lat="42.786732" lon="-.710234">
        <ele>1371.526</ele>
        <time>2020-09-06T13:53:14Z</time>
      </trkpt>
      <trkpt lat="42.786723" lon="-.710298">
        <ele>1370.875</ele>
        <time>2020-09-06T13:53:18Z</time>
      </trkpt>
      <trkpt lat="42.786712" lon="-.710358">
        <ele>1370.428</ele>
        <time>2020-09-06T13:53:21Z</time>
      </trkpt>
      <trkpt lat="42.786697" lon="-.71042">
        <ele>1370.220</ele>
        <time>2020-09-06T13:53:26Z</time>
      </trkpt>
      <trkpt lat="42.786675" lon="-.710487">
        <ele>1370.208</ele>
        <time>2020-09-06T13:53:29Z</time>
      </trkpt>
      <trkpt lat="42.786654" lon="-.710544">
        <ele>1370.272</ele>
        <time>2020-09-06T13:53:31Z</time>
      </trkpt>
      <trkpt lat="42.786637" lon="-.710617">
        <ele>1370.223</ele>
        <time>2020-09-06T13:53:34Z</time>
      </trkpt>
      <trkpt lat="42.786633" lon="-.710684">
        <ele>1370.279</ele>
        <time>2020-09-06T13:53:37Z</time>
      </trkpt>
      <trkpt lat="42.786648" lon="-.710743">
        <ele>1370.374</ele>
        <time>2020-09-06T13:53:42Z</time>
      </trkpt>
      <trkpt lat="42.786674" lon="-.710797">
        <ele>1370.462</ele>
        <time>2020-09-06T13:53:45Z</time>
      </trkpt>
      <trkpt lat="42.7867" lon="-.710861">
        <ele>1370.581</ele>
        <time>2020-09-06T13:53:49Z</time>
      </trkpt>
      <trkpt lat="42.786722" lon="-.710924">
        <ele>1370.744</ele>
        <time>2020-09-06T13:53:52Z</time>
      </trkpt>
      <trkpt lat="42.786744" lon="-.710987">
        <ele>1370.847</ele>
        <time>2020-09-06T13:53:55Z</time>
      </trkpt>
      <trkpt lat="42.78677" lon="-.711047">
        <ele>1370.583</ele>
        <time>2020-09-06T13:53:58Z</time>
      </trkpt>
      <trkpt lat="42.78679" lon="-.711105">
        <ele>1370.125</ele>
        <time>2020-09-06T13:54:01Z</time>
      </trkpt>
      <trkpt lat="42.786811" lon="-.711164">
        <ele>1369.617</ele>
        <time>2020-09-06T13:54:04Z</time>
      </trkpt>
      <trkpt lat="42.786838" lon="-.711222">
        <ele>1369.308</ele>
        <time>2020-09-06T13:54:08Z</time>
      </trkpt>
      <trkpt lat="42.786866" lon="-.711283">
        <ele>1368.973</ele>
        <time>2020-09-06T13:54:11Z</time>
      </trkpt>
      <trkpt lat="42.786885" lon="-.71134">
        <ele>1368.454</ele>
        <time>2020-09-06T13:54:15Z</time>
      </trkpt>
      <trkpt lat="42.786917" lon="-.711392">
        <ele>1368.160</ele>
        <time>2020-09-06T13:54:19Z</time>
      </trkpt>
      <trkpt lat="42.786943" lon="-.711444">
        <ele>1368.125</ele>
        <time>2020-09-06T13:54:22Z</time>
      </trkpt>
      <trkpt lat="42.786955" lon="-.711515">
        <ele>1368.393</ele>
        <time>2020-09-06T13:54:26Z</time>
      </trkpt>
      <trkpt lat="42.786958" lon="-.711586">
        <ele>1368.432</ele>
        <time>2020-09-06T13:54:30Z</time>
      </trkpt>
      <trkpt lat="42.787003" lon="-.71163">
        <ele>1368.445</ele>
        <time>2020-09-06T13:54:54Z</time>
      </trkpt>
      <trkpt lat="42.787056" lon="-.711627">
        <ele>1368.358</ele>
        <time>2020-09-06T13:54:59Z</time>
      </trkpt>
      <trkpt lat="42.787107" lon="-.711624">
        <ele>1368.277</ele>
        <time>2020-09-06T13:55:04Z</time>
      </trkpt>
      <trkpt lat="42.787156" lon="-.711624">
        <ele>1368.161</ele>
        <time>2020-09-06T13:55:09Z</time>
      </trkpt>
      <trkpt lat="42.787205" lon="-.71165">
        <ele>1368.027</ele>
        <time>2020-09-06T13:55:13Z</time>
      </trkpt>
      <trkpt lat="42.787238" lon="-.711697">
        <ele>1367.908</ele>
        <time>2020-09-06T13:55:17Z</time>
      </trkpt>
      <trkpt lat="42.787283" lon="-.711688">
        <ele>1367.892</ele>
        <time>2020-09-06T13:55:37Z</time>
      </trkpt>
      <trkpt lat="42.787326" lon="-.711666">
        <ele>1368.453</ele>
        <time>2020-09-06T13:55:46Z</time>
      </trkpt>
      <trkpt lat="42.787339" lon="-.711604">
        <ele>1368.929</ele>
        <time>2020-09-06T13:56:01Z</time>
      </trkpt>
      <trkpt lat="42.787356" lon="-.711542">
        <ele>1369.274</ele>
        <time>2020-09-06T13:56:07Z</time>
      </trkpt>
      <trkpt lat="42.787381" lon="-.711491">
        <ele>1373.282</ele>
        <time>2020-09-06T13:56:18Z</time>
      </trkpt>
      <trkpt lat="42.787432" lon="-.711502">
        <ele>1377.211</ele>
        <time>2020-09-06T13:56:22Z</time>
      </trkpt>
      <trkpt lat="42.787468" lon="-.711539">
        <ele>1381.264</ele>
        <time>2020-09-06T13:56:29Z</time>
      </trkpt>
      <trkpt lat="42.787508" lon="-.711505">
        <ele>1385.287</ele>
        <time>2020-09-06T13:56:39Z</time>
      </trkpt>
      <trkpt lat="42.787551" lon="-.71145">
        <ele>1389.244</ele>
        <time>2020-09-06T13:56:41Z</time>
      </trkpt>
      <trkpt lat="42.787525" lon="-.711502">
        <ele>1393.205</ele>
        <time>2020-09-06T13:57:01Z</time>
      </trkpt>
      <trkpt lat="42.787468" lon="-.711553">
        <ele>1397.215</ele>
        <time>2020-09-06T13:57:16Z</time>
      </trkpt>
      <trkpt lat="42.787417" lon="-.711573">
        <ele>1401.208</ele>
        <time>2020-09-06T13:57:18Z</time>
      </trkpt>
      <trkpt lat="42.787372" lon="-.711579">
        <ele>1405.289</ele>
        <time>2020-09-06T13:57:22Z</time>
      </trkpt>
      <trkpt lat="42.787319" lon="-.711626">
        <ele>1409.280</ele>
        <time>2020-09-06T13:58:13Z</time>
      </trkpt>
      <trkpt lat="42.787281" lon="-.711746">
        <ele>1428.896</ele>
        <time>2020-09-06T15:23:00Z</time>
      </trkpt>
      <trkpt lat="42.787281" lon="-.711746">
        <ele>1428.891</ele>
        <time>2020-09-06T15:23:00Z</time>
      </trkpt>
      <trkpt lat="42.787281" lon="-.711746">
        <ele>1428.819</ele>
        <time>2020-09-06T15:23:00Z</time>
      </trkpt>
      <trkpt lat="42.787299" lon="-.711687">
        <ele>1424.828</ele>
        <time>2020-09-06T15:23:26Z</time>
      </trkpt>
      <trkpt lat="42.78729" lon="-.711627">
        <ele>1420.851</ele>
        <time>2020-09-06T15:23:34Z</time>
      </trkpt>
      <trkpt lat="42.78729" lon="-.711566">
        <ele>1416.844</ele>
        <time>2020-09-06T15:23:42Z</time>
      </trkpt>
      <trkpt lat="42.787256" lon="-.711616">
        <ele>1412.886</ele>
        <time>2020-09-06T15:24:58Z</time>
      </trkpt>
      <trkpt lat="42.787292" lon="-.711656">
        <ele>1408.860</ele>
        <time>2020-09-06T15:25:57Z</time>
      </trkpt>
      <trkpt lat="42.787241" lon="-.711633">
        <ele>1404.826</ele>
        <time>2020-09-06T15:27:25Z</time>
      </trkpt>
      <trkpt lat="42.787204" lon="-.711676">
        <ele>1400.808</ele>
        <time>2020-09-06T15:27:30Z</time>
      </trkpt>
      <trkpt lat="42.787178" lon="-.711735">
        <ele>1396.833</ele>
        <time>2020-09-06T15:27:36Z</time>
      </trkpt>
      <trkpt lat="42.787156" lon="-.711798">
        <ele>1392.884</ele>
        <time>2020-09-06T15:27:40Z</time>
      </trkpt>
      <trkpt lat="42.787121" lon="-.711843">
        <ele>1388.860</ele>
        <time>2020-09-06T15:27:46Z</time>
      </trkpt>
      <trkpt lat="42.787112" lon="-.711909">
        <ele>1384.865</ele>
        <time>2020-09-06T15:27:51Z</time>
      </trkpt>
      <trkpt lat="42.7871" lon="-.71198">
        <ele>1381.773</ele>
        <time>2020-09-06T15:27:57Z</time>
      </trkpt>
      <trkpt lat="42.787079" lon="-.712038">
        <ele>1379.962</ele>
        <time>2020-09-06T15:28:01Z</time>
      </trkpt>
      <trkpt lat="42.787058" lon="-.712096">
        <ele>1379.065</ele>
        <time>2020-09-06T15:28:07Z</time>
      </trkpt>
      <trkpt lat="42.787047" lon="-.712158">
        <ele>1378.478</ele>
        <time>2020-09-06T15:28:22Z</time>
      </trkpt>
      <trkpt lat="42.787005" lon="-.712195">
        <ele>1378.069</ele>
        <time>2020-09-06T15:28:26Z</time>
      </trkpt>
      <trkpt lat="42.787037" lon="-.712246">
        <ele>1378.604</ele>
        <time>2020-09-06T15:29:08Z</time>
      </trkpt>
      <trkpt lat="42.787061" lon="-.712298">
        <ele>1379.024</ele>
        <time>2020-09-06T15:29:13Z</time>
      </trkpt>
      <trkpt lat="42.787101" lon="-.712335">
        <ele>1379.308</ele>
        <time>2020-09-06T15:29:18Z</time>
      </trkpt>
      <trkpt lat="42.787146" lon="-.712346">
        <ele>1379.431</ele>
        <time>2020-09-06T15:29:22Z</time>
      </trkpt>
      <trkpt lat="42.787197" lon="-.712359">
        <ele>1379.492</ele>
        <time>2020-09-06T15:29:27Z</time>
      </trkpt>
      <trkpt lat="42.787239" lon="-.712382">
        <ele>1379.238</ele>
        <time>2020-09-06T15:29:33Z</time>
      </trkpt>
      <trkpt lat="42.787282" lon="-.712398">
        <ele>1378.823</ele>
        <time>2020-09-06T15:29:37Z</time>
      </trkpt>
      <trkpt lat="42.787328" lon="-.712382">
        <ele>1378.381</ele>
        <time>2020-09-06T15:29:44Z</time>
      </trkpt>
      <trkpt lat="42.787361" lon="-.712339">
        <ele>1377.660</ele>
        <time>2020-09-06T15:29:48Z</time>
      </trkpt>
      <trkpt lat="42.787361" lon="-.712339">
        <ele>1377.683</ele>
        <time>2020-09-06T15:29:48Z</time>
      </trkpt>
      <trkpt lat="42.787404" lon="-.712309">
        <ele>1377.256</ele>
        <time>2020-09-06T15:29:53Z</time>
      </trkpt>
      <trkpt lat="42.787444" lon="-.712337">
        <ele>1377.049</ele>
        <time>2020-09-06T15:29:59Z</time>
      </trkpt>
      <trkpt lat="42.787466" lon="-.712391">
        <ele>1376.902</ele>
        <time>2020-09-06T15:30:05Z</time>
      </trkpt>
      <trkpt lat="42.787498" lon="-.712447">
        <ele>1376.722</ele>
        <time>2020-09-06T15:30:10Z</time>
      </trkpt>
      <trkpt lat="42.78752" lon="-.712504">
        <ele>1376.608</ele>
        <time>2020-09-06T15:30:14Z</time>
      </trkpt>
      <trkpt lat="42.787552" lon="-.712551">
        <ele>1376.449</ele>
        <time>2020-09-06T15:30:19Z</time>
      </trkpt>
      <trkpt lat="42.787571" lon="-.712607">
        <ele>1376.110</ele>
        <time>2020-09-06T15:30:24Z</time>
      </trkpt>
      <trkpt lat="42.787575" lon="-.712673">
        <ele>1375.346</ele>
        <time>2020-09-06T15:30:52Z</time>
      </trkpt>
      <trkpt lat="42.787584" lon="-.712735">
        <ele>1374.171</ele>
        <time>2020-09-06T15:31:14Z</time>
      </trkpt>
      <trkpt lat="42.787595" lon="-.712798">
        <ele>1373.289</ele>
        <time>2020-09-06T15:31:21Z</time>
      </trkpt>
      <trkpt lat="42.787568" lon="-.712853">
        <ele>1372.528</ele>
        <time>2020-09-06T15:31:34Z</time>
      </trkpt>
      <trkpt lat="42.787567" lon="-.71292">
        <ele>1372.151</ele>
        <time>2020-09-06T15:31:48Z</time>
      </trkpt>
      <trkpt lat="42.787556" lon="-.71298">
        <ele>1371.774</ele>
        <time>2020-09-06T15:31:59Z</time>
      </trkpt>
      <trkpt lat="42.787574" lon="-.713039">
        <ele>1371.266</ele>
        <time>2020-09-06T15:32:11Z</time>
      </trkpt>
      <trkpt lat="42.78758" lon="-.713101">
        <ele>1370.729</ele>
        <time>2020-09-06T15:32:20Z</time>
      </trkpt>
      <trkpt lat="42.787582" lon="-.713168">
        <ele>1370.221</ele>
        <time>2020-09-06T15:32:30Z</time>
      </trkpt>
      <trkpt lat="42.787575" lon="-.713231">
        <ele>1369.808</ele>
        <time>2020-09-06T15:32:37Z</time>
      </trkpt>
      <trkpt lat="42.787561" lon="-.713291">
        <ele>1369.681</ele>
        <time>2020-09-06T15:32:45Z</time>
      </trkpt>
      <trkpt lat="42.787575" lon="-.713352">
        <ele>1369.542</ele>
        <time>2020-09-06T15:32:52Z</time>
      </trkpt>
      <trkpt lat="42.787593" lon="-.713412">
        <ele>1369.318</ele>
        <time>2020-09-06T15:33:01Z</time>
      </trkpt>
      <trkpt lat="42.787602" lon="-.713475">
        <ele>1369.093</ele>
        <time>2020-09-06T15:33:08Z</time>
      </trkpt>
      <trkpt lat="42.787615" lon="-.713538">
        <ele>1368.461</ele>
        <time>2020-09-06T15:33:17Z</time>
      </trkpt>
      <trkpt lat="42.78763" lon="-.713597">
        <ele>1367.540</ele>
        <time>2020-09-06T15:33:25Z</time>
      </trkpt>
      <trkpt lat="42.78763" lon="-.713597">
        <ele>1367.533</ele>
        <time>2020-09-06T15:33:25Z</time>
      </trkpt>
      <trkpt lat="42.787604" lon="-.713652">
        <ele>1367.176</ele>
        <time>2020-09-06T15:33:31Z</time>
      </trkpt>
      <trkpt lat="42.787595" lon="-.713718">
        <ele>1366.639</ele>
        <time>2020-09-06T15:33:39Z</time>
      </trkpt>
      <trkpt lat="42.787595" lon="-.713718">
        <ele>1366.601</ele>
        <time>2020-09-06T15:33:39Z</time>
      </trkpt>
      <trkpt lat="42.78758" lon="-.713781">
        <ele>1366.021</ele>
        <time>2020-09-06T15:33:50Z</time>
      </trkpt>
      <trkpt lat="42.787539" lon="-.713826">
        <ele>1365.508</ele>
        <time>2020-09-06T15:33:55Z</time>
      </trkpt>
      <trkpt lat="42.787521" lon="-.713893">
        <ele>1365.158</ele>
        <time>2020-09-06T15:34:02Z</time>
      </trkpt>
      <trkpt lat="42.787507" lon="-.713957">
        <ele>1364.799</ele>
        <time>2020-09-06T15:34:08Z</time>
      </trkpt>
      <trkpt lat="42.787511" lon="-.714022">
        <ele>1364.375</ele>
        <time>2020-09-06T15:34:15Z</time>
      </trkpt>
      <trkpt lat="42.787555" lon="-.714058">
        <ele>1363.950</ele>
        <time>2020-09-06T15:34:21Z</time>
      </trkpt>
      <trkpt lat="42.787585" lon="-.714106">
        <ele>1363.568</ele>
        <time>2020-09-06T15:34:33Z</time>
      </trkpt>
      <trkpt lat="42.78757" lon="-.714169">
        <ele>1363.197</ele>
        <time>2020-09-06T15:34:44Z</time>
      </trkpt>
      <trkpt lat="42.78754" lon="-.714228">
        <ele>1362.760</ele>
        <time>2020-09-06T15:34:50Z</time>
      </trkpt>
      <trkpt lat="42.787524" lon="-.714292">
        <ele>1362.333</ele>
        <time>2020-09-06T15:34:56Z</time>
      </trkpt>
      <trkpt lat="42.787507" lon="-.714349">
        <ele>1361.997</ele>
        <time>2020-09-06T15:35:02Z</time>
      </trkpt>
      <trkpt lat="42.787487" lon="-.714409">
        <ele>1361.523</ele>
        <time>2020-09-06T15:35:10Z</time>
      </trkpt>
      <trkpt lat="42.787495" lon="-.714475">
        <ele>1361.125</ele>
        <time>2020-09-06T15:35:17Z</time>
      </trkpt>
      <trkpt lat="42.78751" lon="-.714535">
        <ele>1360.708</ele>
        <time>2020-09-06T15:35:22Z</time>
      </trkpt>
      <trkpt lat="42.787527" lon="-.714595">
        <ele>1360.414</ele>
        <time>2020-09-06T15:35:27Z</time>
      </trkpt>
      <trkpt lat="42.787544" lon="-.714652">
        <ele>1360.375</ele>
        <time>2020-09-06T15:35:33Z</time>
      </trkpt>
      <trkpt lat="42.787523" lon="-.71471">
        <ele>1360.391</ele>
        <time>2020-09-06T15:35:39Z</time>
      </trkpt>
      <trkpt lat="42.787517" lon="-.714772">
        <ele>1360.326</ele>
        <time>2020-09-06T15:35:46Z</time>
      </trkpt>
      <trkpt lat="42.787533" lon="-.714832">
        <ele>1360.214</ele>
        <time>2020-09-06T15:35:54Z</time>
      </trkpt>
      <trkpt lat="42.787557" lon="-.714885">
        <ele>1359.893</ele>
        <time>2020-09-06T15:36:02Z</time>
      </trkpt>
      <trkpt lat="42.787592" lon="-.714925">
        <ele>1359.466</ele>
        <time>2020-09-06T15:36:11Z</time>
      </trkpt>
      <trkpt lat="42.787629" lon="-.714964">
        <ele>1359.149</ele>
        <time>2020-09-06T15:36:17Z</time>
      </trkpt>
      <trkpt lat="42.787666" lon="-.715003">
        <ele>1358.692</ele>
        <time>2020-09-06T15:36:25Z</time>
      </trkpt>
      <trkpt lat="42.787695" lon="-.715054">
        <ele>1358.373</ele>
        <time>2020-09-06T15:36:34Z</time>
      </trkpt>
      <trkpt lat="42.787711" lon="-.715116">
        <ele>1357.520</ele>
        <time>2020-09-06T15:36:44Z</time>
      </trkpt>
      <trkpt lat="42.787732" lon="-.715179">
        <ele>1356.608</ele>
        <time>2020-09-06T15:36:50Z</time>
      </trkpt>
      <trkpt lat="42.787737" lon="-.715245">
        <ele>1355.824</ele>
        <time>2020-09-06T15:36:56Z</time>
      </trkpt>
      <trkpt lat="42.787751" lon="-.71531">
        <ele>1354.815</ele>
        <time>2020-09-06T15:37:03Z</time>
      </trkpt>
      <trkpt lat="42.787774" lon="-.715367">
        <ele>1353.781</ele>
        <time>2020-09-06T15:37:10Z</time>
      </trkpt>
      <trkpt lat="42.78781" lon="-.715409">
        <ele>1352.566</ele>
        <time>2020-09-06T15:37:16Z</time>
      </trkpt>
      <trkpt lat="42.787856" lon="-.71543">
        <ele>1351.784</ele>
        <time>2020-09-06T15:37:19Z</time>
      </trkpt>
      <trkpt lat="42.787905" lon="-.715467">
        <ele>1351.093</ele>
        <time>2020-09-06T15:37:23Z</time>
      </trkpt>
      <trkpt lat="42.787923" lon="-.715523">
        <ele>1350.446</ele>
        <time>2020-09-06T15:37:29Z</time>
      </trkpt>
      <trkpt lat="42.787932" lon="-.715585">
        <ele>1349.419</ele>
        <time>2020-09-06T15:37:34Z</time>
      </trkpt>
      <trkpt lat="42.78793" lon="-.715648">
        <ele>1348.276</ele>
        <time>2020-09-06T15:37:38Z</time>
      </trkpt>
      <trkpt lat="42.787925" lon="-.715711">
        <ele>1347.290</ele>
        <time>2020-09-06T15:37:42Z</time>
      </trkpt>
      <trkpt lat="42.787917" lon="-.715777">
        <ele>1346.419</ele>
        <time>2020-09-06T15:37:47Z</time>
      </trkpt>
      <trkpt lat="42.787915" lon="-.715841">
        <ele>1345.608</ele>
        <time>2020-09-06T15:37:52Z</time>
      </trkpt>
      <trkpt lat="42.787932" lon="-.7159">
        <ele>1344.812</ele>
        <time>2020-09-06T15:37:56Z</time>
      </trkpt>
      <trkpt lat="42.78796" lon="-.71595">
        <ele>1343.673</ele>
        <time>2020-09-06T15:38:00Z</time>
      </trkpt>
      <trkpt lat="42.78796" lon="-.71595">
        <ele>1343.619</ele>
        <time>2020-09-06T15:38:00Z</time>
      </trkpt>
      <trkpt lat="42.787983" lon="-.71601">
        <ele>1342.534</ele>
        <time>2020-09-06T15:38:05Z</time>
      </trkpt>
      <trkpt lat="42.787983" lon="-.71601">
        <ele>1342.582</ele>
        <time>2020-09-06T15:38:05Z</time>
      </trkpt>
      <trkpt lat="42.788006" lon="-.716071">
        <ele>1341.761</ele>
        <time>2020-09-06T15:38:13Z</time>
      </trkpt>
      <trkpt lat="42.788032" lon="-.716124">
        <ele>1340.624</ele>
        <time>2020-09-06T15:38:22Z</time>
      </trkpt>
      <trkpt lat="42.788008" lon="-.71618">
        <ele>1339.587</ele>
        <time>2020-09-06T15:38:31Z</time>
      </trkpt>
      <trkpt lat="42.788035" lon="-.716229">
        <ele>1338.523</ele>
        <time>2020-09-06T15:38:40Z</time>
      </trkpt>
      <trkpt lat="42.788075" lon="-.716264">
        <ele>1337.683</ele>
        <time>2020-09-06T15:38:46Z</time>
      </trkpt>
      <trkpt lat="42.788087" lon="-.716323">
        <ele>1336.911</ele>
        <time>2020-09-06T15:38:55Z</time>
      </trkpt>
      <trkpt lat="42.788069" lon="-.716383">
        <ele>1335.308</ele>
        <time>2020-09-06T15:39:10Z</time>
      </trkpt>
      <trkpt lat="42.788069" lon="-.716447">
        <ele>1334.217</ele>
        <time>2020-09-06T15:39:20Z</time>
      </trkpt>
      <trkpt lat="42.78803" lon="-.716479">
        <ele>1332.728</ele>
        <time>2020-09-06T15:39:28Z</time>
      </trkpt>
      <trkpt lat="42.788029" lon="-.716548">
        <ele>1331.824</ele>
        <time>2020-09-06T15:39:36Z</time>
      </trkpt>
      <trkpt lat="42.788064" lon="-.716589">
        <ele>1330.959</ele>
        <time>2020-09-06T15:39:42Z</time>
      </trkpt>
      <trkpt lat="42.788101" lon="-.716631">
        <ele>1330.427</ele>
        <time>2020-09-06T15:39:50Z</time>
      </trkpt>
      <trkpt lat="42.788138" lon="-.716667">
        <ele>1328.396</ele>
        <time>2020-09-06T15:40:10Z</time>
      </trkpt>
      <trkpt lat="42.788156" lon="-.71673">
        <ele>1326.619</ele>
        <time>2020-09-06T15:40:16Z</time>
      </trkpt>
      <trkpt lat="42.788187" lon="-.71678">
        <ele>1323.452</ele>
        <time>2020-09-06T15:40:52Z</time>
      </trkpt>
      <trkpt lat="42.78821" lon="-.716833">
        <ele>1320.726</ele>
        <time>2020-09-06T15:41:01Z</time>
      </trkpt>
      <trkpt lat="42.788191" lon="-.716891">
        <ele>1317.947</ele>
        <time>2020-09-06T15:41:15Z</time>
      </trkpt>
      <trkpt lat="42.788222" lon="-.716936">
        <ele>1316.211</ele>
        <time>2020-09-06T15:41:36Z</time>
      </trkpt>
      <trkpt lat="42.788251" lon="-.716989">
        <ele>1313.808</ele>
        <time>2020-09-06T15:41:40Z</time>
      </trkpt>
      <trkpt lat="42.788277" lon="-.717054">
        <ele>1312.197</ele>
        <time>2020-09-06T15:41:45Z</time>
      </trkpt>
      <trkpt lat="42.788286" lon="-.717119">
        <ele>1310.888</ele>
        <time>2020-09-06T15:41:51Z</time>
      </trkpt>
      <trkpt lat="42.788273" lon="-.71718">
        <ele>1309.664</ele>
        <time>2020-09-06T15:42:00Z</time>
      </trkpt>
      <trkpt lat="42.788275" lon="-.717242">
        <ele>1308.349</ele>
        <time>2020-09-06T15:42:11Z</time>
      </trkpt>
      <trkpt lat="42.788268" lon="-.717311">
        <ele>1307.477</ele>
        <time>2020-09-06T15:42:15Z</time>
      </trkpt>
      <trkpt lat="42.788274" lon="-.717373">
        <ele>1306.516</ele>
        <time>2020-09-06T15:42:21Z</time>
      </trkpt>
      <trkpt lat="42.788292" lon="-.717438">
        <ele>1305.189</ele>
        <time>2020-09-06T15:42:40Z</time>
      </trkpt>
      <trkpt lat="42.788307" lon="-.717505">
        <ele>1304.252</ele>
        <time>2020-09-06T15:42:45Z</time>
      </trkpt>
      <trkpt lat="42.788335" lon="-.717554">
        <ele>1303.691</ele>
        <time>2020-09-06T15:42:48Z</time>
      </trkpt>
      <trkpt lat="42.788355" lon="-.717611">
        <ele>1303.081</ele>
        <time>2020-09-06T15:42:57Z</time>
      </trkpt>
      <trkpt lat="42.788344" lon="-.717671">
        <ele>1302.519</ele>
        <time>2020-09-06T15:43:06Z</time>
      </trkpt>
      <trkpt lat="42.78838" lon="-.717712">
        <ele>1301.608</ele>
        <time>2020-09-06T15:43:22Z</time>
      </trkpt>
      <trkpt lat="42.788413" lon="-.71776">
        <ele>1300.574</ele>
        <time>2020-09-06T15:43:27Z</time>
      </trkpt>
      <trkpt lat="42.788425" lon="-.717823">
        <ele>1299.525</ele>
        <time>2020-09-06T15:43:34Z</time>
      </trkpt>
      <trkpt lat="42.788434" lon="-.717885">
        <ele>1298.861</ele>
        <time>2020-09-06T15:43:40Z</time>
      </trkpt>
      <trkpt lat="42.788439" lon="-.717948">
        <ele>1298.396</ele>
        <time>2020-09-06T15:43:46Z</time>
      </trkpt>
      <trkpt lat="42.788421" lon="-.718008">
        <ele>1297.734</ele>
        <time>2020-09-06T15:43:54Z</time>
      </trkpt>
      <trkpt lat="42.788404" lon="-.718068">
        <ele>1296.923</ele>
        <time>2020-09-06T15:44:00Z</time>
      </trkpt>
      <trkpt lat="42.788386" lon="-.718125">
        <ele>1295.856</ele>
        <time>2020-09-06T15:44:13Z</time>
      </trkpt>
      <trkpt lat="42.788385" lon="-.718193">
        <ele>1295.169</ele>
        <time>2020-09-06T15:44:20Z</time>
      </trkpt>
      <trkpt lat="42.788384" lon="-.718258">
        <ele>1294.352</ele>
        <time>2020-09-06T15:44:26Z</time>
      </trkpt>
      <trkpt lat="42.788369" lon="-.718325">
        <ele>1293.653</ele>
        <time>2020-09-06T15:44:37Z</time>
      </trkpt>
      <trkpt lat="42.788349" lon="-.718381">
        <ele>1293.208</ele>
        <time>2020-09-06T15:44:42Z</time>
      </trkpt>
      <trkpt lat="42.788336" lon="-.718444">
        <ele>1292.908</ele>
        <time>2020-09-06T15:44:49Z</time>
      </trkpt>
      <trkpt lat="42.788318" lon="-.718508">
        <ele>1292.820</ele>
        <time>2020-09-06T15:44:55Z</time>
      </trkpt>
      <trkpt lat="42.788334" lon="-.718566">
        <ele>1292.731</ele>
        <time>2020-09-06T15:45:01Z</time>
      </trkpt>
      <trkpt lat="42.788331" lon="-.718632">
        <ele>1292.737</ele>
        <time>2020-09-06T15:45:08Z</time>
      </trkpt>
      <trkpt lat="42.788303" lon="-.718681">
        <ele>1292.562</ele>
        <time>2020-09-06T15:45:14Z</time>
      </trkpt>
      <trkpt lat="42.788294" lon="-.718748">
        <ele>1292.410</ele>
        <time>2020-09-06T15:45:21Z</time>
      </trkpt>
      <trkpt lat="42.788274" lon="-.718804">
        <ele>1292.269</ele>
        <time>2020-09-06T15:45:26Z</time>
      </trkpt>
      <trkpt lat="42.788236" lon="-.718844">
        <ele>1291.872</ele>
        <time>2020-09-06T15:45:32Z</time>
      </trkpt>
      <trkpt lat="42.788191" lon="-.718853">
        <ele>1291.245</ele>
        <time>2020-09-06T15:45:37Z</time>
      </trkpt>
      <trkpt lat="42.788144" lon="-.718875">
        <ele>1290.685</ele>
        <time>2020-09-06T15:45:44Z</time>
      </trkpt>
      <trkpt lat="42.788161" lon="-.718936">
        <ele>1289.989</ele>
        <time>2020-09-06T15:45:51Z</time>
      </trkpt>
      <trkpt lat="42.788197" lon="-.718975">
        <ele>1289.517</ele>
        <time>2020-09-06T15:45:56Z</time>
      </trkpt>
      <trkpt lat="42.788228" lon="-.71902">
        <ele>1289.108</ele>
        <time>2020-09-06T15:46:02Z</time>
      </trkpt>
      <trkpt lat="42.788266" lon="-.719056">
        <ele>1288.753</ele>
        <time>2020-09-06T15:46:10Z</time>
      </trkpt>
      <trkpt lat="42.788302" lon="-.719105">
        <ele>1288.274</ele>
        <time>2020-09-06T15:46:17Z</time>
      </trkpt>
      <trkpt lat="42.788319" lon="-.719165">
        <ele>1287.550</ele>
        <time>2020-09-06T15:46:24Z</time>
      </trkpt>
      <trkpt lat="42.788355" lon="-.719207">
        <ele>1286.775</ele>
        <time>2020-09-06T15:46:29Z</time>
      </trkpt>
      <trkpt lat="42.788407" lon="-.719221">
        <ele>1286.063</ele>
        <time>2020-09-06T15:46:34Z</time>
      </trkpt>
      <trkpt lat="42.788453" lon="-.719212">
        <ele>1285.392</ele>
        <time>2020-09-06T15:46:38Z</time>
      </trkpt>
      <trkpt lat="42.788493" lon="-.719183">
        <ele>1284.485</ele>
        <time>2020-09-06T15:46:47Z</time>
      </trkpt>
      <trkpt lat="42.788523" lon="-.719137">
        <ele>1283.678</ele>
        <time>2020-09-06T15:46:57Z</time>
      </trkpt>
      <trkpt lat="42.788559" lon="-.719095">
        <ele>1282.535</ele>
        <time>2020-09-06T15:47:03Z</time>
      </trkpt>
      <trkpt lat="42.788602" lon="-.719061">
        <ele>1281.586</ele>
        <time>2020-09-06T15:47:10Z</time>
      </trkpt>
      <trkpt lat="42.788648" lon="-.719073">
        <ele>1280.414</ele>
        <time>2020-09-06T15:47:17Z</time>
      </trkpt>
      <trkpt lat="42.788695" lon="-.719072">
        <ele>1279.108</ele>
        <time>2020-09-06T15:47:24Z</time>
      </trkpt>
      <trkpt lat="42.788735" lon="-.719106">
        <ele>1277.828</ele>
        <time>2020-09-06T15:47:32Z</time>
      </trkpt>
      <trkpt lat="42.788767" lon="-.719156">
        <ele>1276.439</ele>
        <time>2020-09-06T15:47:42Z</time>
      </trkpt>
      <trkpt lat="42.788791" lon="-.71921">
        <ele>1275.495</ele>
        <time>2020-09-06T15:47:48Z</time>
      </trkpt>
      <trkpt lat="42.788827" lon="-.719247">
        <ele>1274.270</ele>
        <time>2020-09-06T15:47:52Z</time>
      </trkpt>
      <trkpt lat="42.788873" lon="-.71926">
        <ele>1272.938</ele>
        <time>2020-09-06T15:47:58Z</time>
      </trkpt>
      <trkpt lat="42.78892" lon="-.719276">
        <ele>1271.627</ele>
        <time>2020-09-06T15:48:02Z</time>
      </trkpt>
      <trkpt lat="42.78897" lon="-.719288">
        <ele>1269.230</ele>
        <time>2020-09-06T15:48:06Z</time>
      </trkpt>
      <trkpt lat="42.78897" lon="-.719288">
        <ele>1269.283</ele>
        <time>2020-09-06T15:48:06Z</time>
      </trkpt>
      <trkpt lat="42.789015" lon="-.719309">
        <ele>1268.186</ele>
        <time>2020-09-06T15:48:11Z</time>
      </trkpt>
      <trkpt lat="42.789044" lon="-.719356">
        <ele>1267.060</ele>
        <time>2020-09-06T15:48:19Z</time>
      </trkpt>
      <trkpt lat="42.789089" lon="-.719352">
        <ele>1265.826</ele>
        <time>2020-09-06T15:48:28Z</time>
      </trkpt>
      <trkpt lat="42.789105" lon="-.719293">
        <ele>1264.508</ele>
        <time>2020-09-06T15:48:39Z</time>
      </trkpt>
      <trkpt lat="42.789114" lon="-.719233">
        <ele>1263.523</ele>
        <time>2020-09-06T15:48:52Z</time>
      </trkpt>
      <trkpt lat="42.789138" lon="-.71918">
        <ele>1262.164</ele>
        <time>2020-09-06T15:49:03Z</time>
      </trkpt>
      <trkpt lat="42.789183" lon="-.719166">
        <ele>1260.990</ele>
        <time>2020-09-06T15:49:11Z</time>
      </trkpt>
      <trkpt lat="42.789229" lon="-.719142">
        <ele>1259.765</ele>
        <time>2020-09-06T15:49:18Z</time>
      </trkpt>
      <trkpt lat="42.789273" lon="-.719118">
        <ele>1258.613</ele>
        <time>2020-09-06T15:49:22Z</time>
      </trkpt>
      <trkpt lat="42.789318" lon="-.719092">
        <ele>1257.852</ele>
        <time>2020-09-06T15:49:27Z</time>
      </trkpt>
      <trkpt lat="42.789359" lon="-.719063">
        <ele>1257.095</ele>
        <time>2020-09-06T15:49:31Z</time>
      </trkpt>
      <trkpt lat="42.789396" lon="-.719023">
        <ele>1256.348</ele>
        <time>2020-09-06T15:49:39Z</time>
      </trkpt>
      <trkpt lat="42.789431" lon="-.718979">
        <ele>1255.434</ele>
        <time>2020-09-06T15:49:46Z</time>
      </trkpt>
      <trkpt lat="42.789454" lon="-.718926">
        <ele>1254.355</ele>
        <time>2020-09-06T15:49:53Z</time>
      </trkpt>
      <trkpt lat="42.78947" lon="-.718866">
        <ele>1253.210</ele>
        <time>2020-09-06T15:50:01Z</time>
      </trkpt>
      <trkpt lat="42.789472" lon="-.718802">
        <ele>1252.208</ele>
        <time>2020-09-06T15:50:09Z</time>
      </trkpt>
      <trkpt lat="42.789517" lon="-.718769">
        <ele>1251.138</ele>
        <time>2020-09-06T15:50:16Z</time>
      </trkpt>
      <trkpt lat="42.789565" lon="-.718768">
        <ele>1250.119</ele>
        <time>2020-09-06T15:50:21Z</time>
      </trkpt>
      <trkpt lat="42.789606" lon="-.71873">
        <ele>1248.995</ele>
        <time>2020-09-06T15:50:27Z</time>
      </trkpt>
      <trkpt lat="42.789635" lon="-.718675">
        <ele>1248.010</ele>
        <time>2020-09-06T15:50:31Z</time>
      </trkpt>
      <trkpt lat="42.789682" lon="-.718651">
        <ele>1247.158</ele>
        <time>2020-09-06T15:50:37Z</time>
      </trkpt>
      <trkpt lat="42.789726" lon="-.718638">
        <ele>1246.347</ele>
        <time>2020-09-06T15:50:41Z</time>
      </trkpt>
      <trkpt lat="42.789768" lon="-.718611">
        <ele>1245.420</ele>
        <time>2020-09-06T15:50:46Z</time>
      </trkpt>
      <trkpt lat="42.789812" lon="-.718639">
        <ele>1244.863</ele>
        <time>2020-09-06T15:50:52Z</time>
      </trkpt>
      <trkpt lat="42.789832" lon="-.718695">
        <ele>1244.499</ele>
        <time>2020-09-06T15:50:57Z</time>
      </trkpt>
      <trkpt lat="42.78987" lon="-.718743">
        <ele>1244.107</ele>
        <time>2020-09-06T15:51:03Z</time>
      </trkpt>
      <trkpt lat="42.789882" lon="-.718803">
        <ele>1243.927</ele>
        <time>2020-09-06T15:51:12Z</time>
      </trkpt>
      <trkpt lat="42.789897" lon="-.718861">
        <ele>1243.708</ele>
        <time>2020-09-06T15:51:18Z</time>
      </trkpt>
      <trkpt lat="42.789886" lon="-.718924">
        <ele>1243.414</ele>
        <time>2020-09-06T15:51:25Z</time>
      </trkpt>
      <trkpt lat="42.789875" lon="-.718985">
        <ele>1243.195</ele>
        <time>2020-09-06T15:51:30Z</time>
      </trkpt>
      <trkpt lat="42.789879" lon="-.719047">
        <ele>1242.941</ele>
        <time>2020-09-06T15:51:36Z</time>
      </trkpt>
      <trkpt lat="42.789924" lon="-.719064">
        <ele>1242.586</ele>
        <time>2020-09-06T15:51:42Z</time>
      </trkpt>
      <trkpt lat="42.789968" lon="-.719038">
        <ele>1242.054</ele>
        <time>2020-09-06T15:51:48Z</time>
      </trkpt>
      <trkpt lat="42.790012" lon="-.719011">
        <ele>1241.563</ele>
        <time>2020-09-06T15:51:55Z</time>
      </trkpt>
      <trkpt lat="42.790036" lon="-.718957">
        <ele>1240.426</ele>
        <time>2020-09-06T15:52:08Z</time>
      </trkpt>
      <trkpt lat="42.790028" lon="-.719023">
        <ele>1239.829</ele>
        <time>2020-09-06T15:52:15Z</time>
      </trkpt>
      <trkpt lat="42.789992" lon="-.719063">
        <ele>1239.419</ele>
        <time>2020-09-06T15:52:21Z</time>
      </trkpt>
      <trkpt lat="42.790036" lon="-.719048">
        <ele>1238.009</ele>
        <time>2020-09-06T15:52:32Z</time>
      </trkpt>
      <trkpt lat="42.790089" lon="-.719052">
        <ele>1236.919</ele>
        <time>2020-09-06T15:52:37Z</time>
      </trkpt>
      <trkpt lat="42.790138" lon="-.719062">
        <ele>1236.208</ele>
        <time>2020-09-06T15:52:42Z</time>
      </trkpt>
      <trkpt lat="42.790181" lon="-.7191">
        <ele>1235.866</ele>
        <time>2020-09-06T15:52:46Z</time>
      </trkpt>
      <trkpt lat="42.790187" lon="-.719169">
        <ele>1235.457</ele>
        <time>2020-09-06T15:52:50Z</time>
      </trkpt>
      <trkpt lat="42.790186" lon="-.719234">
        <ele>1235.133</ele>
        <time>2020-09-06T15:52:55Z</time>
      </trkpt>
      <trkpt lat="42.790163" lon="-.719289">
        <ele>1234.698</ele>
        <time>2020-09-06T15:53:01Z</time>
      </trkpt>
      <trkpt lat="42.790135" lon="-.719338">
        <ele>1234.126</ele>
        <time>2020-09-06T15:53:18Z</time>
      </trkpt>
      <trkpt lat="42.79015" lon="-.719401">
        <ele>1233.545</ele>
        <time>2020-09-06T15:53:25Z</time>
      </trkpt>
      <trkpt lat="42.79016" lon="-.719462">
        <ele>1233.088</ele>
        <time>2020-09-06T15:53:29Z</time>
      </trkpt>
      <trkpt lat="42.790175" lon="-.71952">
        <ele>1232.231</ele>
        <time>2020-09-06T15:53:35Z</time>
      </trkpt>
      <trkpt lat="42.790175" lon="-.71952">
        <ele>1232.294</ele>
        <time>2020-09-06T15:53:35Z</time>
      </trkpt>
      <trkpt lat="42.790167" lon="-.719581">
        <ele>1231.957</ele>
        <time>2020-09-06T15:53:43Z</time>
      </trkpt>
      <trkpt lat="42.790152" lon="-.719641">
        <ele>1231.022</ele>
        <time>2020-09-06T15:53:57Z</time>
      </trkpt>
      <trkpt lat="42.790152" lon="-.719641">
        <ele>1231.008</ele>
        <time>2020-09-06T15:53:57Z</time>
      </trkpt>
      <trkpt lat="42.790155" lon="-.719707">
        <ele>1230.534</ele>
        <time>2020-09-06T15:54:07Z</time>
      </trkpt>
      <trkpt lat="42.790173" lon="-.719766">
        <ele>1230.275</ele>
        <time>2020-09-06T15:54:12Z</time>
      </trkpt>
      <trkpt lat="42.790192" lon="-.719827">
        <ele>1229.821</ele>
        <time>2020-09-06T15:54:18Z</time>
      </trkpt>
      <trkpt lat="42.790217" lon="-.719884">
        <ele>1228.416</ele>
        <time>2020-09-06T15:54:29Z</time>
      </trkpt>
      <trkpt lat="42.790247" lon="-.719932">
        <ele>1227.544</ele>
        <time>2020-09-06T15:54:45Z</time>
      </trkpt>
      <trkpt lat="42.790276" lon="-.71998">
        <ele>1225.943</ele>
        <time>2020-09-06T15:54:58Z</time>
      </trkpt>
      <trkpt lat="42.790282" lon="-.720045">
        <ele>1224.186</ele>
        <time>2020-09-06T15:55:11Z</time>
      </trkpt>
      <trkpt lat="42.790279" lon="-.72011">
        <ele>1222.579</ele>
        <time>2020-09-06T15:55:23Z</time>
      </trkpt>
      <trkpt lat="42.790254" lon="-.720168">
        <ele>1221.412</ele>
        <time>2020-09-06T15:55:28Z</time>
      </trkpt>
      <trkpt lat="42.790222" lon="-.720219">
        <ele>1220.632</ele>
        <time>2020-09-06T15:55:36Z</time>
      </trkpt>
      <trkpt lat="42.790186" lon="-.720265">
        <ele>1219.605</ele>
        <time>2020-09-06T15:55:46Z</time>
      </trkpt>
      <trkpt lat="42.790168" lon="-.720326">
        <ele>1218.808</ele>
        <time>2020-09-06T15:55:51Z</time>
      </trkpt>
      <trkpt lat="42.790147" lon="-.72039">
        <ele>1217.436</ele>
        <time>2020-09-06T15:55:56Z</time>
      </trkpt>
      <trkpt lat="42.790147" lon="-.72039">
        <ele>1217.487</ele>
        <time>2020-09-06T15:55:56Z</time>
      </trkpt>
      <trkpt lat="42.790125" lon="-.720445">
        <ele>1216.953</ele>
        <time>2020-09-06T15:56:00Z</time>
      </trkpt>
      <trkpt lat="42.790093" lon="-.720492">
        <ele>1216.478</ele>
        <time>2020-09-06T15:56:05Z</time>
      </trkpt>
      <trkpt lat="42.790061" lon="-.720541">
        <ele>1215.826</ele>
        <time>2020-09-06T15:56:11Z</time>
      </trkpt>
      <trkpt lat="42.790025" lon="-.720587">
        <ele>1215.135</ele>
        <time>2020-09-06T15:56:17Z</time>
      </trkpt>
      <trkpt lat="42.789986" lon="-.720619">
        <ele>1214.128</ele>
        <time>2020-09-06T15:56:24Z</time>
      </trkpt>
      <trkpt lat="42.789949" lon="-.720656">
        <ele>1212.511</ele>
        <time>2020-09-06T15:56:45Z</time>
      </trkpt>
      <trkpt lat="42.789925" lon="-.720713">
        <ele>1211.592</ele>
        <time>2020-09-06T15:56:51Z</time>
      </trkpt>
      <trkpt lat="42.789916" lon="-.720778">
        <ele>1210.773</ele>
        <time>2020-09-06T15:57:02Z</time>
      </trkpt>
      <trkpt lat="42.789905" lon="-.720846">
        <ele>1209.820</ele>
        <time>2020-09-06T15:57:06Z</time>
      </trkpt>
      <trkpt lat="42.789893" lon="-.72091">
        <ele>1208.908</ele>
        <time>2020-09-06T15:57:10Z</time>
      </trkpt>
      <trkpt lat="42.789877" lon="-.720971">
        <ele>1208.124</ele>
        <time>2020-09-06T15:57:14Z</time>
      </trkpt>
      <trkpt lat="42.789849" lon="-.721024">
        <ele>1207.345</ele>
        <time>2020-09-06T15:57:17Z</time>
      </trkpt>
      <trkpt lat="42.789825" lon="-.721078">
        <ele>1206.751</ele>
        <time>2020-09-06T15:57:21Z</time>
      </trkpt>
      <trkpt lat="42.789818" lon="-.721141">
        <ele>1206.026</ele>
        <time>2020-09-06T15:57:25Z</time>
      </trkpt>
      <trkpt lat="42.789813" lon="-.721204">
        <ele>1204.674</ele>
        <time>2020-09-06T15:57:36Z</time>
      </trkpt>
      <trkpt lat="42.789848" lon="-.721249">
        <ele>1203.563</ele>
        <time>2020-09-06T15:57:48Z</time>
      </trkpt>
      <trkpt lat="42.789882" lon="-.72129">
        <ele>1203.146</ele>
        <time>2020-09-06T15:57:56Z</time>
      </trkpt>
      <trkpt lat="42.789875" lon="-.721355">
        <ele>1202.449</ele>
        <time>2020-09-06T15:58:11Z</time>
      </trkpt>
      <trkpt lat="42.789829" lon="-.721367">
        <ele>1201.642</ele>
        <time>2020-09-06T15:58:18Z</time>
      </trkpt>
      <trkpt lat="42.789811" lon="-.721424">
        <ele>1201.022</ele>
        <time>2020-09-06T15:58:23Z</time>
      </trkpt>
      <trkpt lat="42.789785" lon="-.721476">
        <ele>1200.414</ele>
        <time>2020-09-06T15:58:28Z</time>
      </trkpt>
      <trkpt lat="42.789791" lon="-.721542">
        <ele>1199.308</ele>
        <time>2020-09-06T15:58:36Z</time>
      </trkpt>
      <trkpt lat="42.789755" lon="-.721589">
        <ele>1198.169</ele>
        <time>2020-09-06T15:58:43Z</time>
      </trkpt>
      <trkpt lat="42.789757" lon="-.721653">
        <ele>1197.020</ele>
        <time>2020-09-06T15:58:52Z</time>
      </trkpt>
      <trkpt lat="42.789766" lon="-.721719">
        <ele>1195.446</ele>
        <time>2020-09-06T15:59:01Z</time>
      </trkpt>
      <trkpt lat="42.789735" lon="-.72177">
        <ele>1194.441</ele>
        <time>2020-09-06T15:59:09Z</time>
      </trkpt>
      <trkpt lat="42.789715" lon="-.721835">
        <ele>1192.819</ele>
        <time>2020-09-06T15:59:19Z</time>
      </trkpt>
      <trkpt lat="42.78968" lon="-.721877">
        <ele>1191.218</ele>
        <time>2020-09-06T15:59:22Z</time>
      </trkpt>
      <trkpt lat="42.789649" lon="-.721926">
        <ele>1189.741</ele>
        <time>2020-09-06T15:59:27Z</time>
      </trkpt>
      <trkpt lat="42.789632" lon="-.721987">
        <ele>1188.644</ele>
        <time>2020-09-06T15:59:32Z</time>
      </trkpt>
      <trkpt lat="42.789622" lon="-.722047">
        <ele>1187.696</ele>
        <time>2020-09-06T15:59:37Z</time>
      </trkpt>
      <trkpt lat="42.789593" lon="-.722107">
        <ele>1186.531</ele>
        <time>2020-09-06T15:59:44Z</time>
      </trkpt>
      <trkpt lat="42.78961" lon="-.722166">
        <ele>1184.924</ele>
        <time>2020-09-06T15:59:52Z</time>
      </trkpt>
      <trkpt lat="42.789564" lon="-.722196">
        <ele>1182.108</ele>
        <time>2020-09-06T16:00:09Z</time>
      </trkpt>
      <trkpt lat="42.789514" lon="-.72219">
        <ele>1180.174</ele>
        <time>2020-09-06T16:00:15Z</time>
      </trkpt>
      <trkpt lat="42.789484" lon="-.722236">
        <ele>1178.555</ele>
        <time>2020-09-06T16:00:23Z</time>
      </trkpt>
      <trkpt lat="42.789451" lon="-.72228">
        <ele>1177.141</ele>
        <time>2020-09-06T16:00:37Z</time>
      </trkpt>
      <trkpt lat="42.789439" lon="-.722341">
        <ele>1175.836</ele>
        <time>2020-09-06T16:00:47Z</time>
      </trkpt>
      <trkpt lat="42.789405" lon="-.722382">
        <ele>1174.664</ele>
        <time>2020-09-06T16:01:02Z</time>
      </trkpt>
      <trkpt lat="42.789365" lon="-.722413">
        <ele>1173.463</ele>
        <time>2020-09-06T16:01:17Z</time>
      </trkpt>
      <trkpt lat="42.78939" lon="-.722475">
        <ele>1171.586</ele>
        <time>2020-09-06T16:01:34Z</time>
      </trkpt>
      <trkpt lat="42.789414" lon="-.722527">
        <ele>1170.299</ele>
        <time>2020-09-06T16:01:38Z</time>
      </trkpt>
      <trkpt lat="42.789439" lon="-.722585">
        <ele>1169.233</ele>
        <time>2020-09-06T16:01:42Z</time>
      </trkpt>
      <trkpt lat="42.789458" lon="-.722643">
        <ele>1168.323</ele>
        <time>2020-09-06T16:01:48Z</time>
      </trkpt>
      <trkpt lat="42.789473" lon="-.722704">
        <ele>1167.415</ele>
        <time>2020-09-06T16:01:55Z</time>
      </trkpt>
      <trkpt lat="42.789503" lon="-.722758">
        <ele>1165.308</ele>
        <time>2020-09-06T16:02:04Z</time>
      </trkpt>
      <trkpt lat="42.789511" lon="-.722824">
        <ele>1162.328</ele>
        <time>2020-09-06T16:02:21Z</time>
      </trkpt>
      <trkpt lat="42.789548" lon="-.722863">
        <ele>1160.229</ele>
        <time>2020-09-06T16:02:25Z</time>
      </trkpt>
      <trkpt lat="42.789592" lon="-.722881">
        <ele>1158.655</ele>
        <time>2020-09-06T16:02:30Z</time>
      </trkpt>
      <trkpt lat="42.789638" lon="-.722877">
        <ele>1156.920</ele>
        <time>2020-09-06T16:02:36Z</time>
      </trkpt>
      <trkpt lat="42.789683" lon="-.722878">
        <ele>1155.118</ele>
        <time>2020-09-06T16:02:45Z</time>
      </trkpt>
      <trkpt lat="42.789727" lon="-.722904">
        <ele>1153.427</ele>
        <time>2020-09-06T16:02:52Z</time>
      </trkpt>
      <trkpt lat="42.789773" lon="-.722905">
        <ele>1151.980</ele>
        <time>2020-09-06T16:02:59Z</time>
      </trkpt>
      <trkpt lat="42.78982" lon="-.722905">
        <ele>1150.033</ele>
        <time>2020-09-06T16:03:09Z</time>
      </trkpt>
      <trkpt lat="42.789859" lon="-.722938">
        <ele>1148.428</ele>
        <time>2020-09-06T16:03:17Z</time>
      </trkpt>
      <trkpt lat="42.78988" lon="-.722995">
        <ele>1145.889</ele>
        <time>2020-09-06T16:03:46Z</time>
      </trkpt>
      <trkpt lat="42.789933" lon="-.723016">
        <ele>1144.017</ele>
        <time>2020-09-06T16:03:52Z</time>
      </trkpt>
      <trkpt lat="42.789979" lon="-.723022">
        <ele>1142.608</ele>
        <time>2020-09-06T16:03:58Z</time>
      </trkpt>
      <trkpt lat="42.790022" lon="-.723041">
        <ele>1141.057</ele>
        <time>2020-09-06T16:04:13Z</time>
      </trkpt>
      <trkpt lat="42.790068" lon="-.723044">
        <ele>1139.278</ele>
        <time>2020-09-06T16:04:25Z</time>
      </trkpt>
      <trkpt lat="42.790077" lon="-.723108">
        <ele>1137.464</ele>
        <time>2020-09-06T16:04:31Z</time>
      </trkpt>
      <trkpt lat="42.790116" lon="-.723144">
        <ele>1135.439</ele>
        <time>2020-09-06T16:04:48Z</time>
      </trkpt>
      <trkpt lat="42.790122" lon="-.723208">
        <ele>1134.257</ele>
        <time>2020-09-06T16:04:59Z</time>
      </trkpt>
      <trkpt lat="42.790077" lon="-.723198">
        <ele>1132.176</ele>
        <time>2020-09-06T16:05:12Z</time>
      </trkpt>
      <trkpt lat="42.790029" lon="-.723198">
        <ele>1130.399</ele>
        <time>2020-09-06T16:05:18Z</time>
      </trkpt>
      <trkpt lat="42.789977" lon="-.723203">
        <ele>1129.082</ele>
        <time>2020-09-06T16:05:23Z</time>
      </trkpt>
      <trkpt lat="42.789938" lon="-.723242">
        <ele>1128.081</ele>
        <time>2020-09-06T16:05:27Z</time>
      </trkpt>
      <trkpt lat="42.789913" lon="-.723295">
        <ele>1126.661</ele>
        <time>2020-09-06T16:05:38Z</time>
      </trkpt>
      <trkpt lat="42.789884" lon="-.723345">
        <ele>1125.617</ele>
        <time>2020-09-06T16:05:49Z</time>
      </trkpt>
      <trkpt lat="42.789879" lon="-.723409">
        <ele>1124.608</ele>
        <time>2020-09-06T16:06:00Z</time>
      </trkpt>
      <trkpt lat="42.789873" lon="-.723471">
        <ele>1123.153</ele>
        <time>2020-09-06T16:06:16Z</time>
      </trkpt>
      <trkpt lat="42.789829" lon="-.723486">
        <ele>1122.194</ele>
        <time>2020-09-06T16:06:21Z</time>
      </trkpt>
      <trkpt lat="42.789792" lon="-.723537">
        <ele>1119.260</ele>
        <time>2020-09-06T16:06:54Z</time>
      </trkpt>
      <trkpt lat="42.789761" lon="-.723585">
        <ele>1117.225</ele>
        <time>2020-09-06T16:07:00Z</time>
      </trkpt>
      <trkpt lat="42.789725" lon="-.723624">
        <ele>1113.673</ele>
        <time>2020-09-06T16:07:14Z</time>
      </trkpt>
      <trkpt lat="42.789725" lon="-.723624">
        <ele>1113.652</ele>
        <time>2020-09-06T16:07:14Z</time>
      </trkpt>
      <trkpt lat="42.789679" lon="-.723651">
        <ele>1112.635</ele>
        <time>2020-09-06T16:07:21Z</time>
      </trkpt>
      <trkpt lat="42.789633" lon="-.723684">
        <ele>1111.928</ele>
        <time>2020-09-06T16:07:32Z</time>
      </trkpt>
      <trkpt lat="42.789589" lon="-.723699">
        <ele>1111.455</ele>
        <time>2020-09-06T16:07:46Z</time>
      </trkpt>
      <trkpt lat="42.789568" lon="-.723759">
        <ele>1110.807</ele>
        <time>2020-09-06T16:07:52Z</time>
      </trkpt>
      <trkpt lat="42.789605" lon="-.723805">
        <ele>1110.417</ele>
        <time>2020-09-06T16:07:58Z</time>
      </trkpt>
      <trkpt lat="42.789645" lon="-.723833">
        <ele>1110.008</ele>
        <time>2020-09-06T16:08:06Z</time>
      </trkpt>
      <trkpt lat="42.789692" lon="-.723828">
        <ele>1109.380</ele>
        <time>2020-09-06T16:08:21Z</time>
      </trkpt>
      <trkpt lat="42.789729" lon="-.72387">
        <ele>1108.191</ele>
        <time>2020-09-06T16:08:31Z</time>
      </trkpt>
      <trkpt lat="42.789773" lon="-.723891">
        <ele>1107.177</ele>
        <time>2020-09-06T16:08:42Z</time>
      </trkpt>
      <trkpt lat="42.789751" lon="-.723945">
        <ele>1106.552</ele>
        <time>2020-09-06T16:08:58Z</time>
      </trkpt>
      <trkpt lat="42.78971" lon="-.72398">
        <ele>1104.390</ele>
        <time>2020-09-06T16:09:04Z</time>
      </trkpt>
      <trkpt lat="42.78969" lon="-.724052">
        <ele>1102.859</ele>
        <time>2020-09-06T16:09:09Z</time>
      </trkpt>
      <trkpt lat="42.789669" lon="-.724109">
        <ele>1101.782</ele>
        <time>2020-09-06T16:09:14Z</time>
      </trkpt>
      <trkpt lat="42.789638" lon="-.724156">
        <ele>1101.185</ele>
        <time>2020-09-06T16:09:20Z</time>
      </trkpt>
      <trkpt lat="42.789633" lon="-.724218">
        <ele>1100.614</ele>
        <time>2020-09-06T16:09:34Z</time>
      </trkpt>
      <trkpt lat="42.789617" lon="-.724278">
        <ele>1099.454</ele>
        <time>2020-09-06T16:09:42Z</time>
      </trkpt>
      <trkpt lat="42.789605" lon="-.724341">
        <ele>1098.409</ele>
        <time>2020-09-06T16:09:49Z</time>
      </trkpt>
      <trkpt lat="42.789634" lon="-.724392">
        <ele>1097.608</ele>
        <time>2020-09-06T16:09:56Z</time>
      </trkpt>
      <trkpt lat="42.789628" lon="-.724456">
        <ele>1096.486</ele>
        <time>2020-09-06T16:10:04Z</time>
      </trkpt>
      <trkpt lat="42.789598" lon="-.724506">
        <ele>1094.947</ele>
        <time>2020-09-06T16:10:13Z</time>
      </trkpt>
      <trkpt lat="42.789551" lon="-.724517">
        <ele>1093.593</ele>
        <time>2020-09-06T16:10:20Z</time>
      </trkpt>
      <trkpt lat="42.789515" lon="-.724556">
        <ele>1092.218</ele>
        <time>2020-09-06T16:10:30Z</time>
      </trkpt>
      <trkpt lat="42.789488" lon="-.724609">
        <ele>1091.156</ele>
        <time>2020-09-06T16:10:37Z</time>
      </trkpt>
      <trkpt lat="42.789478" lon="-.724671">
        <ele>1089.915</ele>
        <time>2020-09-06T16:10:44Z</time>
      </trkpt>
      <trkpt lat="42.789488" lon="-.724734">
        <ele>1088.998</ele>
        <time>2020-09-06T16:10:52Z</time>
      </trkpt>
      <trkpt lat="42.789519" lon="-.724782">
        <ele>1088.051</ele>
        <time>2020-09-06T16:10:59Z</time>
      </trkpt>
      <trkpt lat="42.789529" lon="-.724842">
        <ele>1087.169</ele>
        <time>2020-09-06T16:11:24Z</time>
      </trkpt>
      <trkpt lat="42.789495" lon="-.724897">
        <ele>1086.104</ele>
        <time>2020-09-06T16:11:32Z</time>
      </trkpt>
      <trkpt lat="42.789471" lon="-.724952">
        <ele>1084.724</ele>
        <time>2020-09-06T16:11:41Z</time>
      </trkpt>
      <trkpt lat="42.789462" lon="-.725019">
        <ele>1083.708</ele>
        <time>2020-09-06T16:11:47Z</time>
      </trkpt>
      <trkpt lat="42.789473" lon="-.72508">
        <ele>1083.191</ele>
        <time>2020-09-06T16:11:56Z</time>
      </trkpt>
      <trkpt lat="42.789486" lon="-.725148">
        <ele>1081.992</ele>
        <time>2020-09-06T16:12:02Z</time>
      </trkpt>
      <trkpt lat="42.789477" lon="-.725211">
        <ele>1080.758</ele>
        <time>2020-09-06T16:12:09Z</time>
      </trkpt>
      <trkpt lat="42.78948" lon="-.725272">
        <ele>1079.583</ele>
        <time>2020-09-06T16:12:17Z</time>
      </trkpt>
      <trkpt lat="42.789472" lon="-.725334">
        <ele>1078.591</ele>
        <time>2020-09-06T16:12:25Z</time>
      </trkpt>
      <trkpt lat="42.789437" lon="-.725377">
        <ele>1077.510</ele>
        <time>2020-09-06T16:12:33Z</time>
      </trkpt>
      <trkpt lat="42.789418" lon="-.725433">
        <ele>1075.593</ele>
        <time>2020-09-06T16:12:49Z</time>
      </trkpt>
      <trkpt lat="42.789418" lon="-.725433">
        <ele>1075.526</ele>
        <time>2020-09-06T16:12:49Z</time>
      </trkpt>
      <trkpt lat="42.789398" lon="-.725494">
        <ele>1074.321</ele>
        <time>2020-09-06T16:12:57Z</time>
      </trkpt>
      <trkpt lat="42.78939" lon="-.725561">
        <ele>1073.041</ele>
        <time>2020-09-06T16:13:04Z</time>
      </trkpt>
      <trkpt lat="42.789364" lon="-.725611">
        <ele>1070.205</ele>
        <time>2020-09-06T16:13:32Z</time>
      </trkpt>
      <trkpt lat="42.789357" lon="-.725675">
        <ele>1068.408</ele>
        <time>2020-09-06T16:13:41Z</time>
      </trkpt>
      <trkpt lat="42.789345" lon="-.725736">
        <ele>1065.217</ele>
        <time>2020-09-06T16:13:56Z</time>
      </trkpt>
      <trkpt lat="42.789354" lon="-.725805">
        <ele>1063.038</ele>
        <time>2020-09-06T16:14:01Z</time>
      </trkpt>
      <trkpt lat="42.789344" lon="-.72587">
        <ele>1060.694</ele>
        <time>2020-09-06T16:14:06Z</time>
      </trkpt>
      <trkpt lat="42.789344" lon="-.72587">
        <ele>1060.699</ele>
        <time>2020-09-06T16:14:06Z</time>
      </trkpt>
      <trkpt lat="42.789317" lon="-.725922">
        <ele>1059.937</ele>
        <time>2020-09-06T16:14:12Z</time>
      </trkpt>
      <trkpt lat="42.789279" lon="-.725963">
        <ele>1058.996</ele>
        <time>2020-09-06T16:14:19Z</time>
      </trkpt>
      <trkpt lat="42.789244" lon="-.726006">
        <ele>1057.789</ele>
        <time>2020-09-06T16:14:24Z</time>
      </trkpt>
      <trkpt lat="42.78922" lon="-.726064">
        <ele>1056.422</ele>
        <time>2020-09-06T16:14:30Z</time>
      </trkpt>
      <trkpt lat="42.7892" lon="-.726123">
        <ele>1055.492</ele>
        <time>2020-09-06T16:14:36Z</time>
      </trkpt>
      <trkpt lat="42.789182" lon="-.726182">
        <ele>1054.673</ele>
        <time>2020-09-06T16:14:43Z</time>
      </trkpt>
      <trkpt lat="42.789172" lon="-.726247">
        <ele>1053.820</ele>
        <time>2020-09-06T16:14:49Z</time>
      </trkpt>
      <trkpt lat="42.789162" lon="-.726314">
        <ele>1052.908</ele>
        <time>2020-09-06T16:14:56Z</time>
      </trkpt>
      <trkpt lat="42.789163" lon="-.726377">
        <ele>1051.994</ele>
        <time>2020-09-06T16:15:03Z</time>
      </trkpt>
      <trkpt lat="42.789212" lon="-.726373">
        <ele>1051.085</ele>
        <time>2020-09-06T16:15:11Z</time>
      </trkpt>
      <trkpt lat="42.789252" lon="-.726337">
        <ele>1050.281</ele>
        <time>2020-09-06T16:15:31Z</time>
      </trkpt>
      <trkpt lat="42.789289" lon="-.726297">
        <ele>1049.326</ele>
        <time>2020-09-06T16:15:42Z</time>
      </trkpt>
      <trkpt lat="42.789301" lon="-.726232">
        <ele>1048.644</ele>
        <time>2020-09-06T16:15:46Z</time>
      </trkpt>
      <trkpt lat="42.789308" lon="-.726168">
        <ele>1048.133</ele>
        <time>2020-09-06T16:15:52Z</time>
      </trkpt>
      <trkpt lat="42.789311" lon="-.7261">
        <ele>1047.836</ele>
        <time>2020-09-06T16:15:58Z</time>
      </trkpt>
      <trkpt lat="42.789317" lon="-.726036">
        <ele>1047.419</ele>
        <time>2020-09-06T16:16:02Z</time>
      </trkpt>
      <trkpt lat="42.789328" lon="-.725972">
        <ele>1046.911</ele>
        <time>2020-09-06T16:16:06Z</time>
      </trkpt>
      <trkpt lat="42.78935" lon="-.725916">
        <ele>1046.321</ele>
        <time>2020-09-06T16:16:10Z</time>
      </trkpt>
      <trkpt lat="42.789393" lon="-.725878">
        <ele>1045.703</ele>
        <time>2020-09-06T16:16:16Z</time>
      </trkpt>
      <trkpt lat="42.789429" lon="-.725838">
        <ele>1045.208</ele>
        <time>2020-09-06T16:16:20Z</time>
      </trkpt>
      <trkpt lat="42.789474" lon="-.725805">
        <ele>1044.826</ele>
        <time>2020-09-06T16:16:24Z</time>
      </trkpt>
      <trkpt lat="42.789517" lon="-.725775">
        <ele>1044.637</ele>
        <time>2020-09-06T16:16:28Z</time>
      </trkpt>
      <trkpt lat="42.789556" lon="-.72574">
        <ele>1044.413</ele>
        <time>2020-09-06T16:16:31Z</time>
      </trkpt>
      <trkpt lat="42.789605" lon="-.72571">
        <ele>1044.398</ele>
        <time>2020-09-06T16:16:36Z</time>
      </trkpt>
      <trkpt lat="42.789648" lon="-.725673">
        <ele>1044.316</ele>
        <time>2020-09-06T16:16:40Z</time>
      </trkpt>
      <trkpt lat="42.789683" lon="-.725628">
        <ele>1044.285</ele>
        <time>2020-09-06T16:16:45Z</time>
      </trkpt>
      <trkpt lat="42.789715" lon="-.725579">
        <ele>1044.038</ele>
        <time>2020-09-06T16:16:49Z</time>
      </trkpt>
      <trkpt lat="42.789738" lon="-.725525">
        <ele>1043.841</ele>
        <time>2020-09-06T16:16:53Z</time>
      </trkpt>
      <trkpt lat="42.789772" lon="-.725478">
        <ele>1043.494</ele>
        <time>2020-09-06T16:16:59Z</time>
      </trkpt>
      <trkpt lat="42.789788" lon="-.725416">
        <ele>1043.157</ele>
        <time>2020-09-06T16:17:04Z</time>
      </trkpt>
      <trkpt lat="42.789808" lon="-.725361">
        <ele>1042.722</ele>
        <time>2020-09-06T16:17:08Z</time>
      </trkpt>
      <trkpt lat="42.789838" lon="-.725309">
        <ele>1042.308</ele>
        <time>2020-09-06T16:17:13Z</time>
      </trkpt>
      <trkpt lat="42.789874" lon="-.725269">
        <ele>1042.084</ele>
        <time>2020-09-06T16:17:19Z</time>
      </trkpt>
      <trkpt lat="42.789918" lon="-.725248">
        <ele>1041.885</ele>
        <time>2020-09-06T16:17:26Z</time>
      </trkpt>
      <trkpt lat="42.789965" lon="-.725234">
        <ele>1041.771</ele>
        <time>2020-09-06T16:17:31Z</time>
      </trkpt>
      <trkpt lat="42.790012" lon="-.725224">
        <ele>1041.716</ele>
        <time>2020-09-06T16:17:35Z</time>
      </trkpt>
      <trkpt lat="42.790059" lon="-.725211">
        <ele>1041.864</ele>
        <time>2020-09-06T16:17:39Z</time>
      </trkpt>
      <trkpt lat="42.790106" lon="-.725192">
        <ele>1041.863</ele>
        <time>2020-09-06T16:17:43Z</time>
      </trkpt>
      <trkpt lat="42.790151" lon="-.725155">
        <ele>1041.846</ele>
        <time>2020-09-06T16:17:47Z</time>
      </trkpt>
      <trkpt lat="42.790195" lon="-.725127">
        <ele>1042.059</ele>
        <time>2020-09-06T16:17:56Z</time>
      </trkpt>
      <trkpt lat="42.790195" lon="-.725127">
        <ele>1042.067</ele>
        <time>2020-09-06T16:17:56Z</time>
      </trkpt>
      <trkpt lat="42.790195" lon="-.725127">
        <ele>1042.081</ele>
        <time>2020-09-06T16:17:56Z</time>
      </trkpt>
      <trkpt lat="42.790195" lon="-.725127">
        <ele>1042.019</ele>
        <time>2020-09-06T16:17:56Z</time>
      </trkpt>
      <trkpt lat="42.790216" lon="-.725182">
        <ele>1042.208</ele>
        <time>2020-09-06T16:18:03Z</time>
      </trkpt>
      <trkpt lat="42.790216" lon="-.725182">
        <ele>1042.211</ele>
        <time>2020-09-06T16:18:03Z</time>
      </trkpt>
      <trkpt lat="42.790212" lon="-.725249">
        <ele>1042.222</ele>
        <time>2020-09-06T16:18:24Z</time>
      </trkpt>
      <trkpt lat="42.79017" lon="-.725283">
        <ele>1042.378</ele>
        <time>2020-09-06T16:18:28Z</time>
      </trkpt>
      <trkpt lat="42.790126" lon="-.725304">
        <ele>1043.153</ele>
        <time>2020-09-06T16:18:32Z</time>
      </trkpt>
      <trkpt lat="42.790081" lon="-.725331">
        <ele>1043.771</ele>
        <time>2020-09-06T16:18:36Z</time>
      </trkpt>
      <trkpt lat="42.790044" lon="-.72537">
        <ele>1044.820</ele>
        <time>2020-09-06T16:18:39Z</time>
      </trkpt>
      <trkpt lat="42.790007" lon="-.725432">
        <ele>1046.153</ele>
        <time>2020-09-06T16:18:43Z</time>
      </trkpt>
      <trkpt lat="42.789977" lon="-.725499">
        <ele>1047.666</ele>
        <time>2020-09-06T16:18:47Z</time>
      </trkpt>
      <trkpt lat="42.789942" lon="-.725541">
        <ele>1049.044</ele>
        <time>2020-09-06T16:18:51Z</time>
      </trkpt>
      <trkpt lat="42.789896" lon="-.725575">
        <ele>1050.205</ele>
        <time>2020-09-06T16:18:56Z</time>
      </trkpt>
      <trkpt lat="42.789858" lon="-.725622">
        <ele>1051.315</ele>
        <time>2020-09-06T16:19:01Z</time>
      </trkpt>
      <trkpt lat="42.789826" lon="-.72567">
        <ele>1052.308</ele>
        <time>2020-09-06T16:19:07Z</time>
      </trkpt>
      <trkpt lat="42.789793" lon="-.725714">
        <ele>1053.179</ele>
        <time>2020-09-06T16:19:11Z</time>
      </trkpt>
      <trkpt lat="42.789756" lon="-.725765">
        <ele>1053.230</ele>
        <time>2020-09-06T16:19:17Z</time>
      </trkpt>
      <trkpt lat="42.78972" lon="-.725817">
        <ele>1053.396</ele>
        <time>2020-09-06T16:19:22Z</time>
      </trkpt>
      <trkpt lat="42.789677" lon="-.725856">
        <ele>1053.531</ele>
        <time>2020-09-06T16:19:27Z</time>
      </trkpt>
      <trkpt lat="42.789636" lon="-.725892">
        <ele>1053.829</ele>
        <time>2020-09-06T16:19:31Z</time>
      </trkpt>
      <trkpt lat="42.789589" lon="-.725932">
        <ele>1054.168</ele>
        <time>2020-09-06T16:19:36Z</time>
      </trkpt>
      <trkpt lat="42.78955" lon="-.725963">
        <ele>1054.581</ele>
        <time>2020-09-06T16:19:40Z</time>
      </trkpt>
      <trkpt lat="42.789515" lon="-.726002">
        <ele>1054.834</ele>
        <time>2020-09-06T16:19:44Z</time>
      </trkpt>
      <trkpt lat="42.789473" lon="-.726037">
        <ele>1054.993</ele>
        <time>2020-09-06T16:19:48Z</time>
      </trkpt>
      <trkpt lat="42.789433" lon="-.72608">
        <ele>1054.865</ele>
        <time>2020-09-06T16:19:52Z</time>
      </trkpt>
      <trkpt lat="42.789401" lon="-.72613">
        <ele>1054.521</ele>
        <time>2020-09-06T16:19:55Z</time>
      </trkpt>
      <trkpt lat="42.789371" lon="-.726193">
        <ele>1054.008</ele>
        <time>2020-09-06T16:19:58Z</time>
      </trkpt>
      <trkpt lat="42.789346" lon="-.72625">
        <ele>1053.354</ele>
        <time>2020-09-06T16:20:01Z</time>
      </trkpt>
      <trkpt lat="42.789325" lon="-.726307">
        <ele>1052.475</ele>
        <time>2020-09-06T16:20:04Z</time>
      </trkpt>
      <trkpt lat="42.789307" lon="-.726374">
        <ele>1051.021</ele>
        <time>2020-09-06T16:20:09Z</time>
      </trkpt>
      <trkpt lat="42.789289" lon="-.72643">
        <ele>1049.586</ele>
        <time>2020-09-06T16:20:15Z</time>
      </trkpt>
      <trkpt lat="42.789283" lon="-.726493">
        <ele>1047.944</ele>
        <time>2020-09-06T16:20:20Z</time>
      </trkpt>
      <trkpt lat="42.789282" lon="-.726557">
        <ele>1046.453</ele>
        <time>2020-09-06T16:20:23Z</time>
      </trkpt>
      <trkpt lat="42.789328" lon="-.726573">
        <ele>1044.876</ele>
        <time>2020-09-06T16:20:30Z</time>
      </trkpt>
      <trkpt lat="42.789368" lon="-.726537">
        <ele>1043.579</ele>
        <time>2020-09-06T16:20:35Z</time>
      </trkpt>
      <trkpt lat="42.789392" lon="-.726481">
        <ele>1042.315</ele>
        <time>2020-09-06T16:20:40Z</time>
      </trkpt>
      <trkpt lat="42.789425" lon="-.726432">
        <ele>1041.165</ele>
        <time>2020-09-06T16:20:48Z</time>
      </trkpt>
      <trkpt lat="42.789469" lon="-.726413">
        <ele>1039.811</ele>
        <time>2020-09-06T16:21:00Z</time>
      </trkpt>
      <trkpt lat="42.789496" lon="-.726466">
        <ele>1038.608</ele>
        <time>2020-09-06T16:21:12Z</time>
      </trkpt>
      <trkpt lat="42.789525" lon="-.726516">
        <ele>1037.536</ele>
        <time>2020-09-06T16:21:21Z</time>
      </trkpt>
      <trkpt lat="42.789565" lon="-.726548">
        <ele>1036.427</ele>
        <time>2020-09-06T16:21:25Z</time>
      </trkpt>
      <trkpt lat="42.789611" lon="-.726551">
        <ele>1034.893</ele>
        <time>2020-09-06T16:21:48Z</time>
      </trkpt>
      <trkpt lat="42.789642" lon="-.726607">
        <ele>1033.878</ele>
        <time>2020-09-06T16:21:53Z</time>
      </trkpt>
      <trkpt lat="42.789674" lon="-.726651">
        <ele>1033.056</ele>
        <time>2020-09-06T16:21:58Z</time>
      </trkpt>
      <trkpt lat="42.789676" lon="-.726716">
        <ele>1032.325</ele>
        <time>2020-09-06T16:22:02Z</time>
      </trkpt>
      <trkpt lat="42.789687" lon="-.726781">
        <ele>1031.748</ele>
        <time>2020-09-06T16:22:07Z</time>
      </trkpt>
      <trkpt lat="42.789701" lon="-.726841">
        <ele>1031.131</ele>
        <time>2020-09-06T16:22:13Z</time>
      </trkpt>
      <trkpt lat="42.789708" lon="-.726902">
        <ele>1030.645</ele>
        <time>2020-09-06T16:22:19Z</time>
      </trkpt>
      <trkpt lat="42.78971" lon="-.726965">
        <ele>1030.047</ele>
        <time>2020-09-06T16:22:25Z</time>
      </trkpt>
      <trkpt lat="42.789699" lon="-.727026">
        <ele>1029.311</ele>
        <time>2020-09-06T16:22:33Z</time>
      </trkpt>
      <trkpt lat="42.789704" lon="-.727087">
        <ele>1028.408</ele>
        <time>2020-09-06T16:22:44Z</time>
      </trkpt>
      <trkpt lat="42.789724" lon="-.727146">
        <ele>1027.729</ele>
        <time>2020-09-06T16:22:50Z</time>
      </trkpt>
      <trkpt lat="42.789733" lon="-.727213">
        <ele>1027.230</ele>
        <time>2020-09-06T16:22:58Z</time>
      </trkpt>
      <trkpt lat="42.789769" lon="-.727256">
        <ele>1026.526</ele>
        <time>2020-09-06T16:23:05Z</time>
      </trkpt>
      <trkpt lat="42.789814" lon="-.727239">
        <ele>1025.911</ele>
        <time>2020-09-06T16:23:11Z</time>
      </trkpt>
      <trkpt lat="42.789862" lon="-.727254">
        <ele>1025.219</ele>
        <time>2020-09-06T16:23:23Z</time>
      </trkpt>
      <trkpt lat="42.789903" lon="-.727285">
        <ele>1024.768</ele>
        <time>2020-09-06T16:23:29Z</time>
      </trkpt>
      <trkpt lat="42.789931" lon="-.727337">
        <ele>1024.351</ele>
        <time>2020-09-06T16:23:33Z</time>
      </trkpt>
      <trkpt lat="42.789953" lon="-.727394">
        <ele>1023.934</ele>
        <time>2020-09-06T16:23:37Z</time>
      </trkpt>
      <trkpt lat="42.789977" lon="-.727451">
        <ele>1023.482</ele>
        <time>2020-09-06T16:23:44Z</time>
      </trkpt>
      <trkpt lat="42.789988" lon="-.727515">
        <ele>1022.743</ele>
        <time>2020-09-06T16:23:50Z</time>
      </trkpt>
      <trkpt lat="42.79" lon="-.727585">
        <ele>1022.117</ele>
        <time>2020-09-06T16:23:56Z</time>
      </trkpt>
      <trkpt lat="42.790019" lon="-.727642">
        <ele>1021.508</ele>
        <time>2020-09-06T16:24:00Z</time>
      </trkpt>
      <trkpt lat="42.790044" lon="-.727695">
        <ele>1020.863</ele>
        <time>2020-09-06T16:24:06Z</time>
      </trkpt>
      <trkpt lat="42.790078" lon="-.72774">
        <ele>1020.164</ele>
        <time>2020-09-06T16:24:13Z</time>
      </trkpt>
      <trkpt lat="42.790115" lon="-.727775">
        <ele>1019.150</ele>
        <time>2020-09-06T16:24:26Z</time>
      </trkpt>
      <trkpt lat="42.790133" lon="-.727837">
        <ele>1018.125</ele>
        <time>2020-09-06T16:24:33Z</time>
      </trkpt>
      <trkpt lat="42.790157" lon="-.727891">
        <ele>1017.073</ele>
        <time>2020-09-06T16:24:40Z</time>
      </trkpt>
      <trkpt lat="42.790159" lon="-.727957">
        <ele>1015.952</ele>
        <time>2020-09-06T16:24:46Z</time>
      </trkpt>
      <trkpt lat="42.790167" lon="-.728019">
        <ele>1015.025</ele>
        <time>2020-09-06T16:24:51Z</time>
      </trkpt>
      <trkpt lat="42.790175" lon="-.728085">
        <ele>1014.158</ele>
        <time>2020-09-06T16:24:57Z</time>
      </trkpt>
      <trkpt lat="42.790172" lon="-.728152">
        <ele>1012.863</ele>
        <time>2020-09-06T16:25:04Z</time>
      </trkpt>
      <trkpt lat="42.79018" lon="-.728214">
        <ele>1011.244</ele>
        <time>2020-09-06T16:25:13Z</time>
      </trkpt>
      <trkpt lat="42.790198" lon="-.728281">
        <ele>1009.518</ele>
        <time>2020-09-06T16:25:20Z</time>
      </trkpt>
      <trkpt lat="42.79022" lon="-.728346">
        <ele>1007.808</ele>
        <time>2020-09-06T16:25:27Z</time>
      </trkpt>
      <trkpt lat="42.790227" lon="-.728413">
        <ele>1006.151</ele>
        <time>2020-09-06T16:25:34Z</time>
      </trkpt>
      <trkpt lat="42.790216" lon="-.728475">
        <ele>1004.182</ele>
        <time>2020-09-06T16:25:47Z</time>
      </trkpt>
      <trkpt lat="42.790199" lon="-.728533">
        <ele>1002.778</ele>
        <time>2020-09-06T16:25:57Z</time>
      </trkpt>
      <trkpt lat="42.79021" lon="-.728596">
        <ele>1000.793</ele>
        <time>2020-09-06T16:26:10Z</time>
      </trkpt>
      <trkpt lat="42.790207" lon="-.728661">
        <ele>999.071</ele>
        <time>2020-09-06T16:26:15Z</time>
      </trkpt>
      <trkpt lat="42.79021" lon="-.728724">
        <ele>997.490</ele>
        <time>2020-09-06T16:26:20Z</time>
      </trkpt>
      <trkpt lat="42.790239" lon="-.728772">
        <ele>995.923</ele>
        <time>2020-09-06T16:26:27Z</time>
      </trkpt>
      <trkpt lat="42.790274" lon="-.728813">
        <ele>994.386</ele>
        <time>2020-09-06T16:26:36Z</time>
      </trkpt>
      <trkpt lat="42.790277" lon="-.72888">
        <ele>992.889</ele>
        <time>2020-09-06T16:26:44Z</time>
      </trkpt>
      <trkpt lat="42.790285" lon="-.728943">
        <ele>991.206</ele>
        <time>2020-09-06T16:26:51Z</time>
      </trkpt>
      <trkpt lat="42.790292" lon="-.729005">
        <ele>989.626</ele>
        <time>2020-09-06T16:27:01Z</time>
      </trkpt>
      <trkpt lat="42.790274" lon="-.729065">
        <ele>988.208</ele>
        <time>2020-09-06T16:27:07Z</time>
      </trkpt>
      <trkpt lat="42.790264" lon="-.729125">
        <ele>986.733</ele>
        <time>2020-09-06T16:27:33Z</time>
      </trkpt>
      <trkpt lat="42.790303" lon="-.729165">
        <ele>985.724</ele>
        <time>2020-09-06T16:27:48Z</time>
      </trkpt>
      <trkpt lat="42.790339" lon="-.729204">
        <ele>984.940</ele>
        <time>2020-09-06T16:27:59Z</time>
      </trkpt>
      <trkpt lat="42.790343" lon="-.729273">
        <ele>981.955</ele>
        <time>2020-09-06T16:28:15Z</time>
      </trkpt>
      <trkpt lat="42.790343" lon="-.729273">
        <ele>981.983</ele>
        <time>2020-09-06T16:28:15Z</time>
      </trkpt>
      <trkpt lat="42.79034" lon="-.729335">
        <ele>980.732</ele>
        <time>2020-09-06T16:28:24Z</time>
      </trkpt>
      <trkpt lat="42.790322" lon="-.729393">
        <ele>979.455</ele>
        <time>2020-09-06T16:28:36Z</time>
      </trkpt>
      <trkpt lat="42.79028" lon="-.729434">
        <ele>977.888</ele>
        <time>2020-09-06T16:28:59Z</time>
      </trkpt>
      <trkpt lat="42.790286" lon="-.729508">
        <ele>976.717</ele>
        <time>2020-09-06T16:29:04Z</time>
      </trkpt>
      <trkpt lat="42.790321" lon="-.729549">
        <ele>976.087</ele>
        <time>2020-09-06T16:29:18Z</time>
      </trkpt>
      <trkpt lat="42.790336" lon="-.729608">
        <ele>975.415</ele>
        <time>2020-09-06T16:29:23Z</time>
      </trkpt>
      <trkpt lat="42.790336" lon="-.729671">
        <ele>974.808</ele>
        <time>2020-09-06T16:29:28Z</time>
      </trkpt>
      <trkpt lat="42.790332" lon="-.729738">
        <ele>974.136</ele>
        <time>2020-09-06T16:29:35Z</time>
      </trkpt>
      <trkpt lat="42.790366" lon="-.729788">
        <ele>973.337</ele>
        <time>2020-09-06T16:29:42Z</time>
      </trkpt>
      <trkpt lat="42.790388" lon="-.729844">
        <ele>972.433</ele>
        <time>2020-09-06T16:29:48Z</time>
      </trkpt>
      <trkpt lat="42.790373" lon="-.729904">
        <ele>970.978</ele>
        <time>2020-09-06T16:30:21Z</time>
      </trkpt>
      <trkpt lat="42.7904" lon="-.72996">
        <ele>969.416</ele>
        <time>2020-09-06T16:30:27Z</time>
      </trkpt>
      <trkpt lat="42.790434" lon="-.730002">
        <ele>968.215</ele>
        <time>2020-09-06T16:30:36Z</time>
      </trkpt>
      <trkpt lat="42.790474" lon="-.730031">
        <ele>966.898</ele>
        <time>2020-09-06T16:30:41Z</time>
      </trkpt>
      <trkpt lat="42.79051" lon="-.730075">
        <ele>965.631</ele>
        <time>2020-09-06T16:30:46Z</time>
      </trkpt>
      <trkpt lat="42.790532" lon="-.730136">
        <ele>964.361</ele>
        <time>2020-09-06T16:30:54Z</time>
      </trkpt>
      <trkpt lat="42.790519" lon="-.730196">
        <ele>963.021</ele>
        <time>2020-09-06T16:31:02Z</time>
      </trkpt>
      <trkpt lat="42.790509" lon="-.730256">
        <ele>961.813</ele>
        <time>2020-09-06T16:31:06Z</time>
      </trkpt>
      <trkpt lat="42.790528" lon="-.730321">
        <ele>960.108</ele>
        <time>2020-09-06T16:31:28Z</time>
      </trkpt>
      <trkpt lat="42.790518" lon="-.730382">
        <ele>958.871</ele>
        <time>2020-09-06T16:31:32Z</time>
      </trkpt>
      <trkpt lat="42.790504" lon="-.730446">
        <ele>957.642</ele>
        <time>2020-09-06T16:31:37Z</time>
      </trkpt>
      <trkpt lat="42.790485" lon="-.730506">
        <ele>956.678</ele>
        <time>2020-09-06T16:31:41Z</time>
      </trkpt>
      <trkpt lat="42.790477" lon="-.730576">
        <ele>955.663</ele>
        <time>2020-09-06T16:31:46Z</time>
      </trkpt>
      <trkpt lat="42.790512" lon="-.730625">
        <ele>954.751</ele>
        <time>2020-09-06T16:31:52Z</time>
      </trkpt>
      <trkpt lat="42.790542" lon="-.730682">
        <ele>954.070</ele>
        <time>2020-09-06T16:31:56Z</time>
      </trkpt>
      <trkpt lat="42.790571" lon="-.730732">
        <ele>953.673</ele>
        <time>2020-09-06T16:31:59Z</time>
      </trkpt>
      <trkpt lat="42.790599" lon="-.730784">
        <ele>953.246</ele>
        <time>2020-09-06T16:32:03Z</time>
      </trkpt>
      <trkpt lat="42.79061" lon="-.730849">
        <ele>952.754</ele>
        <time>2020-09-06T16:32:08Z</time>
      </trkpt>
      <trkpt lat="42.790653" lon="-.730874">
        <ele>951.956</ele>
        <time>2020-09-06T16:32:14Z</time>
      </trkpt>
      <trkpt lat="42.790688" lon="-.730921">
        <ele>950.911</ele>
        <time>2020-09-06T16:32:22Z</time>
      </trkpt>
      <trkpt lat="42.790721" lon="-.730967">
        <ele>949.808</ele>
        <time>2020-09-06T16:32:28Z</time>
      </trkpt>
      <trkpt lat="42.790743" lon="-.731026">
        <ele>948.860</ele>
        <time>2020-09-06T16:32:33Z</time>
      </trkpt>
      <trkpt lat="42.790751" lon="-.731087">
        <ele>947.721</ele>
        <time>2020-09-06T16:32:39Z</time>
      </trkpt>
      <trkpt lat="42.790755" lon="-.73115">
        <ele>946.277</ele>
        <time>2020-09-06T16:32:47Z</time>
      </trkpt>
      <trkpt lat="42.790766" lon="-.731212">
        <ele>944.952</ele>
        <time>2020-09-06T16:32:53Z</time>
      </trkpt>
      <trkpt lat="42.790819" lon="-.731218">
        <ele>943.530</ele>
        <time>2020-09-06T16:33:18Z</time>
      </trkpt>
      <trkpt lat="42.790824" lon="-.731283">
        <ele>942.559</ele>
        <time>2020-09-06T16:33:45Z</time>
      </trkpt>
      <trkpt lat="42.790836" lon="-.731343">
        <ele>941.182</ele>
        <time>2020-09-06T16:33:52Z</time>
      </trkpt>
      <trkpt lat="42.790874" lon="-.731391">
        <ele>939.955</ele>
        <time>2020-09-06T16:33:59Z</time>
      </trkpt>
      <trkpt lat="42.790902" lon="-.731443">
        <ele>938.756</ele>
        <time>2020-09-06T16:34:05Z</time>
      </trkpt>
      <trkpt lat="42.790933" lon="-.731493">
        <ele>937.659</ele>
        <time>2020-09-06T16:34:10Z</time>
      </trkpt>
      <trkpt lat="42.790958" lon="-.731546">
        <ele>936.414</ele>
        <time>2020-09-06T16:34:15Z</time>
      </trkpt>
      <trkpt lat="42.790968" lon="-.731609">
        <ele>935.508</ele>
        <time>2020-09-06T16:34:20Z</time>
      </trkpt>
      <trkpt lat="42.790983" lon="-.73167">
        <ele>934.580</ele>
        <time>2020-09-06T16:34:26Z</time>
      </trkpt>
      <trkpt lat="42.791023" lon="-.731711">
        <ele>933.731</ele>
        <time>2020-09-06T16:34:31Z</time>
      </trkpt>
      <trkpt lat="42.791035" lon="-.731772">
        <ele>932.867</ele>
        <time>2020-09-06T16:34:36Z</time>
      </trkpt>
      <trkpt lat="42.791051" lon="-.731831">
        <ele>931.832</ele>
        <time>2020-09-06T16:34:43Z</time>
      </trkpt>
      <trkpt lat="42.791052" lon="-.731893">
        <ele>930.820</ele>
        <time>2020-09-06T16:34:48Z</time>
      </trkpt>
      <trkpt lat="42.791051" lon="-.731955">
        <ele>929.749</ele>
        <time>2020-09-06T16:34:56Z</time>
      </trkpt>
      <trkpt lat="42.791023" lon="-.732009">
        <ele>928.712</ele>
        <time>2020-09-06T16:35:02Z</time>
      </trkpt>
      <trkpt lat="42.791013" lon="-.732069">
        <ele>927.845</ele>
        <time>2020-09-06T16:35:07Z</time>
      </trkpt>
      <trkpt lat="42.791034" lon="-.732125">
        <ele>927.132</ele>
        <time>2020-09-06T16:35:13Z</time>
      </trkpt>
      <trkpt lat="42.791079" lon="-.73216">
        <ele>926.592</ele>
        <time>2020-09-06T16:35:18Z</time>
      </trkpt>
      <trkpt lat="42.791128" lon="-.732156">
        <ele>925.911</ele>
        <time>2020-09-06T16:35:23Z</time>
      </trkpt>
      <trkpt lat="42.791177" lon="-.732152">
        <ele>925.308</ele>
        <time>2020-09-06T16:35:29Z</time>
      </trkpt>
      <trkpt lat="42.791222" lon="-.732158">
        <ele>924.618</ele>
        <time>2020-09-06T16:35:35Z</time>
      </trkpt>
      <trkpt lat="42.791278" lon="-.732162">
        <ele>923.479</ele>
        <time>2020-09-06T16:35:40Z</time>
      </trkpt>
      <trkpt lat="42.791278" lon="-.732162">
        <ele>923.455</ele>
        <time>2020-09-06T16:35:40Z</time>
      </trkpt>
      <trkpt lat="42.791324" lon="-.732188">
        <ele>922.990</ele>
        <time>2020-09-06T16:35:47Z</time>
      </trkpt>
      <trkpt lat="42.791324" lon="-.732188">
        <ele>922.928</ele>
        <time>2020-09-06T16:35:47Z</time>
      </trkpt>
      <trkpt lat="42.791362" lon="-.732231">
        <ele>922.017</ele>
        <time>2020-09-06T16:35:53Z</time>
      </trkpt>
      <trkpt lat="42.791362" lon="-.732231">
        <ele>922.070</ele>
        <time>2020-09-06T16:35:53Z</time>
      </trkpt>
      <trkpt lat="42.791394" lon="-.732284">
        <ele>921.063</ele>
        <time>2020-09-06T16:35:56Z</time>
      </trkpt>
      <trkpt lat="42.791394" lon="-.732284">
        <ele>921.098</ele>
        <time>2020-09-06T16:35:56Z</time>
      </trkpt>
      <trkpt lat="42.791394" lon="-.732284">
        <ele>921.015</ele>
        <time>2020-09-06T16:35:56Z</time>
      </trkpt>
      <trkpt lat="42.791394" lon="-.732284">
        <ele>921.026</ele>
        <time>2020-09-06T16:35:56Z</time>
      </trkpt>
      <trkpt lat="42.791425" lon="-.732344">
        <ele>920.208</ele>
        <time>2020-09-06T16:35:59Z</time>
      </trkpt>
      <trkpt lat="42.791425" lon="-.732344">
        <ele>920.244</ele>
        <time>2020-09-06T16:35:59Z</time>
      </trkpt>
      <trkpt lat="42.791447" lon="-.732404">
        <ele>919.825</ele>
        <time>2020-09-06T16:36:02Z</time>
      </trkpt>
      <trkpt lat="42.791447" lon="-.732404">
        <ele>919.871</ele>
        <time>2020-09-06T16:36:02Z</time>
      </trkpt>
      <trkpt lat="42.791467" lon="-.732459">
        <ele>919.026</ele>
        <time>2020-09-06T16:36:05Z</time>
      </trkpt>
      <trkpt lat="42.791467" lon="-.732459">
        <ele>919.064</ele>
        <time>2020-09-06T16:36:05Z</time>
      </trkpt>
      <trkpt lat="42.791471" lon="-.732527">
        <ele>918.573</ele>
        <time>2020-09-06T16:36:10Z</time>
      </trkpt>
      <trkpt lat="42.791519" lon="-.732567">
        <ele>918.056</ele>
        <time>2020-09-06T16:36:16Z</time>
      </trkpt>
      <trkpt lat="42.791549" lon="-.73262">
        <ele>917.429</ele>
        <time>2020-09-06T16:36:20Z</time>
      </trkpt>
      <trkpt lat="42.791579" lon="-.732671">
        <ele>916.788</ele>
        <time>2020-09-06T16:36:24Z</time>
      </trkpt>
      <trkpt lat="42.791614" lon="-.732722">
        <ele>916.024</ele>
        <time>2020-09-06T16:36:27Z</time>
      </trkpt>
      <trkpt lat="42.791657" lon="-.732765">
        <ele>915.626</ele>
        <time>2020-09-06T16:36:31Z</time>
      </trkpt>
      <trkpt lat="42.791695" lon="-.732802">
        <ele>915.308</ele>
        <time>2020-09-06T16:36:34Z</time>
      </trkpt>
      <trkpt lat="42.791728" lon="-.732847">
        <ele>915.183</ele>
        <time>2020-09-06T16:36:37Z</time>
      </trkpt>
      <trkpt lat="42.791766" lon="-.732902">
        <ele>914.884</ele>
        <time>2020-09-06T16:36:41Z</time>
      </trkpt>
      <trkpt lat="42.791803" lon="-.732949">
        <ele>914.240</ele>
        <time>2020-09-06T16:36:44Z</time>
      </trkpt>
      <trkpt lat="42.791842" lon="-.732994">
        <ele>913.695</ele>
        <time>2020-09-06T16:36:48Z</time>
      </trkpt>
      <trkpt lat="42.791874" lon="-.733047">
        <ele>913.043</ele>
        <time>2020-09-06T16:36:54Z</time>
      </trkpt>
      <trkpt lat="42.791912" lon="-.733087">
        <ele>912.782</ele>
        <time>2020-09-06T16:36:58Z</time>
      </trkpt>
      <trkpt lat="42.791952" lon="-.733128">
        <ele>912.575</ele>
        <time>2020-09-06T16:37:03Z</time>
      </trkpt>
      <trkpt lat="42.791987" lon="-.733172">
        <ele>912.378</ele>
        <time>2020-09-06T16:37:06Z</time>
      </trkpt>
      <trkpt lat="42.79203" lon="-.733218">
        <ele>912.364</ele>
        <time>2020-09-06T16:37:10Z</time>
      </trkpt>
      <trkpt lat="42.792074" lon="-.733273">
        <ele>912.206</ele>
        <time>2020-09-06T16:37:14Z</time>
      </trkpt>
      <trkpt lat="42.792109" lon="-.733315">
        <ele>911.816</ele>
        <time>2020-09-06T16:37:20Z</time>
      </trkpt>
      <trkpt lat="42.792145" lon="-.733359">
        <ele>911.608</ele>
        <time>2020-09-06T16:37:23Z</time>
      </trkpt>
      <trkpt lat="42.792184" lon="-.733397">
        <ele>911.521</ele>
        <time>2020-09-06T16:37:27Z</time>
      </trkpt>
      <trkpt lat="42.792233" lon="-.73343">
        <ele>911.582</ele>
        <time>2020-09-06T16:37:31Z</time>
      </trkpt>
      <trkpt lat="42.792283" lon="-.733454">
        <ele>911.748</ele>
        <time>2020-09-06T16:37:35Z</time>
      </trkpt>
      <trkpt lat="42.79233" lon="-.73347">
        <ele>912.053</ele>
        <time>2020-09-06T16:37:40Z</time>
      </trkpt>
      <trkpt lat="42.792377" lon="-.733489">
        <ele>912.381</ele>
        <time>2020-09-06T16:37:45Z</time>
      </trkpt>
      <trkpt lat="42.792422" lon="-.733507">
        <ele>912.350</ele>
        <time>2020-09-06T16:37:49Z</time>
      </trkpt>
      <trkpt lat="42.792466" lon="-.733523">
        <ele>912.033</ele>
        <time>2020-09-06T16:37:54Z</time>
      </trkpt>
      <trkpt lat="42.792513" lon="-.733541">
        <ele>911.926</ele>
        <time>2020-09-06T16:37:58Z</time>
      </trkpt>
      <trkpt lat="42.792565" lon="-.733555">
        <ele>912.167</ele>
        <time>2020-09-06T16:38:02Z</time>
      </trkpt>
      <trkpt lat="42.792615" lon="-.733563">
        <ele>912.581</ele>
        <time>2020-09-06T16:38:06Z</time>
      </trkpt>
      <trkpt lat="42.79266" lon="-.733568">
        <ele>912.919</ele>
        <time>2020-09-06T16:38:09Z</time>
      </trkpt>
      <trkpt lat="42.792711" lon="-.733564">
        <ele>913.408</ele>
        <time>2020-09-06T16:38:14Z</time>
      </trkpt>
      <trkpt lat="42.792761" lon="-.733573">
        <ele>913.891</ele>
        <time>2020-09-06T16:38:18Z</time>
      </trkpt>
      <trkpt lat="42.792811" lon="-.733589">
        <ele>914.362</ele>
        <time>2020-09-06T16:38:24Z</time>
      </trkpt>
      <trkpt lat="42.792861" lon="-.733602">
        <ele>914.788</ele>
        <time>2020-09-06T16:38:28Z</time>
      </trkpt>
      <trkpt lat="42.79291" lon="-.733622">
        <ele>915.083</ele>
        <time>2020-09-06T16:38:32Z</time>
      </trkpt>
      <trkpt lat="42.792956" lon="-.73364">
        <ele>915.421</ele>
        <time>2020-09-06T16:38:37Z</time>
      </trkpt>
      <trkpt lat="42.793" lon="-.733663">
        <ele>915.850</ele>
        <time>2020-09-06T16:38:41Z</time>
      </trkpt>
      <trkpt lat="42.793045" lon="-.733687">
        <ele>916.223</ele>
        <time>2020-09-06T16:38:45Z</time>
      </trkpt>
      <trkpt lat="42.793087" lon="-.733725">
        <ele>916.326</ele>
        <time>2020-09-06T16:38:49Z</time>
      </trkpt>
      <trkpt lat="42.79313" lon="-.733751">
        <ele>916.464</ele>
        <time>2020-09-06T16:38:53Z</time>
      </trkpt>
      <trkpt lat="42.793173" lon="-.733777">
        <ele>916.506</ele>
        <time>2020-09-06T16:38:57Z</time>
      </trkpt>
      <trkpt lat="42.79322" lon="-.733806">
        <ele>916.616</ele>
        <time>2020-09-06T16:39:01Z</time>
      </trkpt>
      <trkpt lat="42.793265" lon="-.733829">
        <ele>916.608</ele>
        <time>2020-09-06T16:39:06Z</time>
      </trkpt>
      <trkpt lat="42.79331" lon="-.73385">
        <ele>916.711</ele>
        <time>2020-09-06T16:39:11Z</time>
      </trkpt>
      <trkpt lat="42.79331" lon="-.73385">
        <ele>916.762</ele>
        <time>2020-09-06T16:39:11Z</time>
      </trkpt>
      <trkpt lat="42.793361" lon="-.733871">
        <ele>916.878</ele>
        <time>2020-09-06T16:39:15Z</time>
      </trkpt>
      <trkpt lat="42.793407" lon="-.733868">
        <ele>916.873</ele>
        <time>2020-09-06T16:39:20Z</time>
      </trkpt>
      <trkpt lat="42.793449" lon="-.733842">
        <ele>916.641</ele>
        <time>2020-09-06T16:39:25Z</time>
      </trkpt>
      <trkpt lat="42.793485" lon="-.733803">
        <ele>916.430</ele>
        <time>2020-09-06T16:39:30Z</time>
      </trkpt>
      <trkpt lat="42.793519" lon="-.733752">
        <ele>916.223</ele>
        <time>2020-09-06T16:39:34Z</time>
      </trkpt>
      <trkpt lat="42.793559" lon="-.733705">
        <ele>916.146</ele>
        <time>2020-09-06T16:39:39Z</time>
      </trkpt>
      <trkpt lat="42.793591" lon="-.733661">
        <ele>916.131</ele>
        <time>2020-09-06T16:39:44Z</time>
      </trkpt>
      <trkpt lat="42.793621" lon="-.733607">
        <ele>916.061</ele>
        <time>2020-09-06T16:39:48Z</time>
      </trkpt>
      <trkpt lat="42.793656" lon="-.733559">
        <ele>915.807</ele>
        <time>2020-09-06T16:39:52Z</time>
      </trkpt>
      <trkpt lat="42.7937" lon="-.733513">
        <ele>915.708</ele>
        <time>2020-09-06T16:39:57Z</time>
      </trkpt>
      <trkpt lat="42.793732" lon="-.733468">
        <ele>915.688</ele>
        <time>2020-09-06T16:40:01Z</time>
      </trkpt>
      <trkpt lat="42.79377" lon="-.733427">
        <ele>915.569</ele>
        <time>2020-09-06T16:40:05Z</time>
      </trkpt>
      <trkpt lat="42.79381" lon="-.733398">
        <ele>915.545</ele>
        <time>2020-09-06T16:40:10Z</time>
      </trkpt>
      <trkpt lat="42.79381" lon="-.733398">
        <ele>915.570</ele>
        <time>2020-09-06T16:40:10Z</time>
      </trkpt>
      <trkpt lat="42.793851" lon="-.733365">
        <ele>915.538</ele>
        <time>2020-09-06T16:40:14Z</time>
      </trkpt>
      <trkpt lat="42.793897" lon="-.73333">
        <ele>915.617</ele>
        <time>2020-09-06T16:40:18Z</time>
      </trkpt>
      <trkpt lat="42.793897" lon="-.73333">
        <ele>915.660</ele>
        <time>2020-09-06T16:40:18Z</time>
      </trkpt>
      <trkpt lat="42.793944" lon="-.733294">
        <ele>915.613</ele>
        <time>2020-09-06T16:40:23Z</time>
      </trkpt>
      <trkpt lat="42.793989" lon="-.733263">
        <ele>915.885</ele>
        <time>2020-09-06T16:40:28Z</time>
      </trkpt>
      <trkpt lat="42.794031" lon="-.73323">
        <ele>916.289</ele>
        <time>2020-09-06T16:40:32Z</time>
      </trkpt>
      <trkpt lat="42.794074" lon="-.733199">
        <ele>916.517</ele>
        <time>2020-09-06T16:40:36Z</time>
      </trkpt>
      <trkpt lat="42.794113" lon="-.733164">
        <ele>916.808</ele>
        <time>2020-09-06T16:40:40Z</time>
      </trkpt>
      <trkpt lat="42.794153" lon="-.733126">
        <ele>917.163</ele>
        <time>2020-09-06T16:40:45Z</time>
      </trkpt>
      <trkpt lat="42.794195" lon="-.733101">
        <ele>917.584</ele>
        <time>2020-09-06T16:40:50Z</time>
      </trkpt>
      <trkpt lat="42.79424" lon="-.733111">
        <ele>917.920</ele>
        <time>2020-09-06T16:40:55Z</time>
      </trkpt>
      <trkpt lat="42.794271" lon="-.733158">
        <ele>918.385</ele>
        <time>2020-09-06T16:41:07Z</time>
      </trkpt>
      <trkpt lat="42.794314" lon="-.733177">
        <ele>918.713</ele>
        <time>2020-09-06T16:41:21Z</time>
      </trkpt>
      <trkpt lat="42.794359" lon="-.733173">
        <ele>919.042</ele>
        <time>2020-09-06T16:41:29Z</time>
      </trkpt>
      <trkpt lat="42.794351" lon="-.733236">
        <ele>919.835</ele>
        <time>2020-09-06T16:42:17Z</time>
      </trkpt>
      <trkpt lat="42.794382" lon="-.733296">
        <ele>920.028</ele>
        <time>2020-09-06T16:42:21Z</time>
      </trkpt>
      <trkpt lat="42.794399" lon="-.733354">
        <ele>920.012</ele>
        <time>2020-09-06T16:42:29Z</time>
      </trkpt>
      <trkpt lat="42.794419" lon="-.733411">
        <ele>919.932</ele>
        <time>2020-09-06T16:42:34Z</time>
      </trkpt>
      <trkpt lat="42.794442" lon="-.733468">
        <ele>919.905</ele>
        <time>2020-09-06T16:42:37Z</time>
      </trkpt>
      <trkpt lat="42.794442" lon="-.733468">
        <ele>919.908</ele>
        <time>2020-09-06T16:42:37Z</time>
      </trkpt>
      <trkpt lat="42.794459" lon="-.733525">
        <ele>919.946</ele>
        <time>2020-09-06T16:42:41Z</time>
      </trkpt>
      <trkpt lat="42.794468" lon="-.733587">
        <ele>919.927</ele>
        <time>2020-09-06T16:42:46Z</time>
      </trkpt>
      <trkpt lat="42.794476" lon="-.733651">
        <ele>920.053</ele>
        <time>2020-09-06T16:42:50Z</time>
      </trkpt>
      <trkpt lat="42.794491" lon="-.733712">
        <ele>920.138</ele>
        <time>2020-09-06T16:42:55Z</time>
      </trkpt>
      <trkpt lat="42.79453" lon="-.733748">
        <ele>920.396</ele>
        <time>2020-09-06T16:42:59Z</time>
      </trkpt>
      <trkpt lat="42.794565" lon="-.733794">
        <ele>920.585</ele>
        <time>2020-09-06T16:43:05Z</time>
      </trkpt>
      <trkpt lat="42.794598" lon="-.73384">
        <ele>920.558</ele>
        <time>2020-09-06T16:43:09Z</time>
      </trkpt>
      <trkpt lat="42.794625" lon="-.73389">
        <ele>920.571</ele>
        <time>2020-09-06T16:43:13Z</time>
      </trkpt>
      <trkpt lat="42.794658" lon="-.733935">
        <ele>920.622</ele>
        <time>2020-09-06T16:43:18Z</time>
      </trkpt>
      <trkpt lat="42.794697" lon="-.733978">
        <ele>920.762</ele>
        <time>2020-09-06T16:43:23Z</time>
      </trkpt>
      <trkpt lat="42.79472" lon="-.734031">
        <ele>920.808</ele>
        <time>2020-09-06T16:43:27Z</time>
      </trkpt>
      <trkpt lat="42.794745" lon="-.734088">
        <ele>921.008</ele>
        <time>2020-09-06T16:43:32Z</time>
      </trkpt>
      <trkpt lat="42.794767" lon="-.734146">
        <ele>921.387</ele>
        <time>2020-09-06T16:43:39Z</time>
      </trkpt>
      <trkpt lat="42.794777" lon="-.734207">
        <ele>921.878</ele>
        <time>2020-09-06T16:43:45Z</time>
      </trkpt>
      <trkpt lat="42.794801" lon="-.734259">
        <ele>922.344</ele>
        <time>2020-09-06T16:43:50Z</time>
      </trkpt>
      <trkpt lat="42.794826" lon="-.73431">
        <ele>922.739</ele>
        <time>2020-09-06T16:43:54Z</time>
      </trkpt>
      <trkpt lat="42.794842" lon="-.734371">
        <ele>923.077</ele>
        <time>2020-09-06T16:44:00Z</time>
      </trkpt>
      <trkpt lat="42.794843" lon="-.734437">
        <ele>923.566</ele>
        <time>2020-09-06T16:44:06Z</time>
      </trkpt>
      <trkpt lat="42.794834" lon="-.734499">
        <ele>924.399</ele>
        <time>2020-09-06T16:44:13Z</time>
      </trkpt>
      <trkpt lat="42.794817" lon="-.734558">
        <ele>925.492</ele>
        <time>2020-09-06T16:44:19Z</time>
      </trkpt>
      <trkpt lat="42.794802" lon="-.73462">
        <ele>926.437</ele>
        <time>2020-09-06T16:44:24Z</time>
      </trkpt>
      <trkpt lat="42.79479" lon="-.734687">
        <ele>927.149</ele>
        <time>2020-09-06T16:44:29Z</time>
      </trkpt>
      <trkpt lat="42.794815" lon="-.734743">
        <ele>927.913</ele>
        <time>2020-09-06T16:44:48Z</time>
      </trkpt>
      <trkpt lat="42.794845" lon="-.734793">
        <ele>928.508</ele>
        <time>2020-09-06T16:44:53Z</time>
      </trkpt>
      <trkpt lat="42.794872" lon="-.734845">
        <ele>929.058</ele>
        <time>2020-09-06T16:44:57Z</time>
      </trkpt>
      <trkpt lat="42.794904" lon="-.734904">
        <ele>929.449</ele>
        <time>2020-09-06T16:45:02Z</time>
      </trkpt>
      <trkpt lat="42.79494" lon="-.734941">
        <ele>929.725</ele>
        <time>2020-09-06T16:45:07Z</time>
      </trkpt>
      <trkpt lat="42.794986" lon="-.734936">
        <ele>930.080</ele>
        <time>2020-09-06T16:45:13Z</time>
      </trkpt>
      <trkpt lat="42.795021" lon="-.734887">
        <ele>930.588</ele>
        <time>2020-09-06T16:45:20Z</time>
      </trkpt>
      <trkpt lat="42.795044" lon="-.734829">
        <ele>931.087</ele>
        <time>2020-09-06T16:45:25Z</time>
      </trkpt>
      <trkpt lat="42.795071" lon="-.734772">
        <ele>931.640</ele>
        <time>2020-09-06T16:45:30Z</time>
      </trkpt>
      <trkpt lat="42.795101" lon="-.734721">
        <ele>932.283</ele>
        <time>2020-09-06T16:45:35Z</time>
      </trkpt>
      <trkpt lat="42.795142" lon="-.734683">
        <ele>932.769</ele>
        <time>2020-09-06T16:45:39Z</time>
      </trkpt>
      <trkpt lat="42.795191" lon="-.734656">
        <ele>933.204</ele>
        <time>2020-09-06T16:45:44Z</time>
      </trkpt>
      <trkpt lat="42.795232" lon="-.73463">
        <ele>933.724</ele>
        <time>2020-09-06T16:45:48Z</time>
      </trkpt>
      <trkpt lat="42.795283" lon="-.734617">
        <ele>934.108</ele>
        <time>2020-09-06T16:45:53Z</time>
      </trkpt>
      <trkpt lat="42.795326" lon="-.734596">
        <ele>934.571</ele>
        <time>2020-09-06T16:45:58Z</time>
      </trkpt>
      <trkpt lat="42.795373" lon="-.73459">
        <ele>934.822</ele>
        <time>2020-09-06T16:46:03Z</time>
      </trkpt>
      <trkpt lat="42.795409" lon="-.734631">
        <ele>935.268</ele>
        <time>2020-09-06T16:46:11Z</time>
      </trkpt>
      <trkpt lat="42.795453" lon="-.734663">
        <ele>935.593</ele>
        <time>2020-09-06T16:46:19Z</time>
      </trkpt>
      <trkpt lat="42.795496" lon="-.734681">
        <ele>935.751</ele>
        <time>2020-09-06T16:46:25Z</time>
      </trkpt>
      <trkpt lat="42.795543" lon="-.734711">
        <ele>935.910</ele>
        <time>2020-09-06T16:46:31Z</time>
      </trkpt>
      <trkpt lat="42.795589" lon="-.73473">
        <ele>936.313</ele>
        <time>2020-09-06T16:46:37Z</time>
      </trkpt>
      <trkpt lat="42.795637" lon="-.73475">
        <ele>936.966</ele>
        <time>2020-09-06T16:46:44Z</time>
      </trkpt>
      <trkpt lat="42.795686" lon="-.734765">
        <ele>937.636</ele>
        <time>2020-09-06T16:46:54Z</time>
      </trkpt>
      <trkpt lat="42.795722" lon="-.734819">
        <ele>938.217</ele>
        <time>2020-09-06T16:47:02Z</time>
      </trkpt>
      <trkpt lat="42.795748" lon="-.734878">
        <ele>938.918</ele>
        <time>2020-09-06T16:47:07Z</time>
      </trkpt>
      <trkpt lat="42.79577" lon="-.734932">
        <ele>939.708</ele>
        <time>2020-09-06T16:47:13Z</time>
      </trkpt>
      <trkpt lat="42.79576" lon="-.734998">
        <ele>941.458</ele>
        <time>2020-09-06T16:47:36Z</time>
      </trkpt>
      <trkpt lat="42.795768" lon="-.735059">
        <ele>942.659</ele>
        <time>2020-09-06T16:47:42Z</time>
      </trkpt>
      <trkpt lat="42.795798" lon="-.73511">
        <ele>943.625</ele>
        <time>2020-09-06T16:47:48Z</time>
      </trkpt>
      <trkpt lat="42.795836" lon="-.735144">
        <ele>944.440</ele>
        <time>2020-09-06T16:47:54Z</time>
      </trkpt>
      <trkpt lat="42.795885" lon="-.735132">
        <ele>945.228</ele>
        <time>2020-09-06T16:48:02Z</time>
      </trkpt>
      <trkpt lat="42.795927" lon="-.735102">
        <ele>945.917</ele>
        <time>2020-09-06T16:48:07Z</time>
      </trkpt>
      <trkpt lat="42.795971" lon="-.735082">
        <ele>946.650</ele>
        <time>2020-09-06T16:48:12Z</time>
      </trkpt>
      <trkpt lat="42.796015" lon="-.735066">
        <ele>947.453</ele>
        <time>2020-09-06T16:48:16Z</time>
      </trkpt>
      <trkpt lat="42.796059" lon="-.735042">
        <ele>948.198</ele>
        <time>2020-09-06T16:48:20Z</time>
      </trkpt>
      <trkpt lat="42.796103" lon="-.735025">
        <ele>948.915</ele>
        <time>2020-09-06T16:48:25Z</time>
      </trkpt>
      <trkpt lat="42.796141" lon="-.734983">
        <ele>950.126</ele>
        <time>2020-09-06T16:48:31Z</time>
      </trkpt>
      <trkpt lat="42.796141" lon="-.734983">
        <ele>950.108</ele>
        <time>2020-09-06T16:48:31Z</time>
      </trkpt>
      <trkpt lat="42.796179" lon="-.734947">
        <ele>950.574</ele>
        <time>2020-09-06T16:48:35Z</time>
      </trkpt>
      <trkpt lat="42.796221" lon="-.734919">
        <ele>950.915</ele>
        <time>2020-09-06T16:48:39Z</time>
      </trkpt>
      <trkpt lat="42.796264" lon="-.734882">
        <ele>951.311</ele>
        <time>2020-09-06T16:48:44Z</time>
      </trkpt>
      <trkpt lat="42.796309" lon="-.734852">
        <ele>951.756</ele>
        <time>2020-09-06T16:48:49Z</time>
      </trkpt>
      <trkpt lat="42.796352" lon="-.734833">
        <ele>952.144</ele>
        <time>2020-09-06T16:48:54Z</time>
      </trkpt>
      <trkpt lat="42.796396" lon="-.734804">
        <ele>952.493</ele>
        <time>2020-09-06T16:48:59Z</time>
      </trkpt>
      <trkpt lat="42.796445" lon="-.734787">
        <ele>952.716</ele>
        <time>2020-09-06T16:49:04Z</time>
      </trkpt>
      <trkpt lat="42.796494" lon="-.734759">
        <ele>953.149</ele>
        <time>2020-09-06T16:49:08Z</time>
      </trkpt>
      <trkpt lat="42.796525" lon="-.734713">
        <ele>953.489</ele>
        <time>2020-09-06T16:49:12Z</time>
      </trkpt>
      <trkpt lat="42.796548" lon="-.734656">
        <ele>953.806</ele>
        <time>2020-09-06T16:49:18Z</time>
      </trkpt>
      <trkpt lat="42.796579" lon="-.734602">
        <ele>954.126</ele>
        <time>2020-09-06T16:49:22Z</time>
      </trkpt>
      <trkpt lat="42.796615" lon="-.734555">
        <ele>954.508</ele>
        <time>2020-09-06T16:49:27Z</time>
      </trkpt>
      <trkpt lat="42.796656" lon="-.734509">
        <ele>955.013</ele>
        <time>2020-09-06T16:49:33Z</time>
      </trkpt>
      <trkpt lat="42.796691" lon="-.73447">
        <ele>955.514</ele>
        <time>2020-09-06T16:49:38Z</time>
      </trkpt>
      <trkpt lat="42.796722" lon="-.734426">
        <ele>956.010</ele>
        <time>2020-09-06T16:49:44Z</time>
      </trkpt>
      <trkpt lat="42.796753" lon="-.734375">
        <ele>956.585</ele>
        <time>2020-09-06T16:49:49Z</time>
      </trkpt>
      <trkpt lat="42.79678" lon="-.734325">
        <ele>957.113</ele>
        <time>2020-09-06T16:49:55Z</time>
      </trkpt>
      <trkpt lat="42.796817" lon="-.73429">
        <ele>958.032</ele>
        <time>2020-09-06T16:50:02Z</time>
      </trkpt>
      <trkpt lat="42.796856" lon="-.734254">
        <ele>958.845</ele>
        <time>2020-09-06T16:50:09Z</time>
      </trkpt>
      <trkpt lat="42.796894" lon="-.734219">
        <ele>959.458</ele>
        <time>2020-09-06T16:50:15Z</time>
      </trkpt>
      <trkpt lat="42.796922" lon="-.734162">
        <ele>960.142</ele>
        <time>2020-09-06T16:50:20Z</time>
      </trkpt>
      <trkpt lat="42.796942" lon="-.734106">
        <ele>960.722</ele>
        <time>2020-09-06T16:50:24Z</time>
      </trkpt>
      <trkpt lat="42.796973" lon="-.734058">
        <ele>961.214</ele>
        <time>2020-09-06T16:50:30Z</time>
      </trkpt>
      <trkpt lat="42.797015" lon="-.73403">
        <ele>961.708</ele>
        <time>2020-09-06T16:50:36Z</time>
      </trkpt>
      <trkpt lat="42.797059" lon="-.734013">
        <ele>962.119</ele>
        <time>2020-09-06T16:50:41Z</time>
      </trkpt>
      <trkpt lat="42.797104" lon="-.733988">
        <ele>962.490</ele>
        <time>2020-09-06T16:50:45Z</time>
      </trkpt>
      <trkpt lat="42.79716" lon="-.733968">
        <ele>962.686</ele>
        <time>2020-09-06T16:50:49Z</time>
      </trkpt>
      <trkpt lat="42.797209" lon="-.733945">
        <ele>962.831</ele>
        <time>2020-09-06T16:50:53Z</time>
      </trkpt>
      <trkpt lat="42.797254" lon="-.733924">
        <ele>963.069</ele>
        <time>2020-09-06T16:50:57Z</time>
      </trkpt>
      <trkpt lat="42.797298" lon="-.733896">
        <ele>963.288</ele>
        <time>2020-09-06T16:51:00Z</time>
      </trkpt>
      <trkpt lat="42.797347" lon="-.733877">
        <ele>963.441</ele>
        <time>2020-09-06T16:51:04Z</time>
      </trkpt>
      <trkpt lat="42.797393" lon="-.733855">
        <ele>963.624</ele>
        <time>2020-09-06T16:51:07Z</time>
      </trkpt>
      <trkpt lat="42.797433" lon="-.733819">
        <ele>963.879</ele>
        <time>2020-09-06T16:51:11Z</time>
      </trkpt>
      <trkpt lat="42.797467" lon="-.733776">
        <ele>964.105</ele>
        <time>2020-09-06T16:51:16Z</time>
      </trkpt>
      <trkpt lat="42.797487" lon="-.733715">
        <ele>964.525</ele>
        <time>2020-09-06T16:51:22Z</time>
      </trkpt>
      <trkpt lat="42.797516" lon="-.733648">
        <ele>964.908</ele>
        <time>2020-09-06T16:51:27Z</time>
      </trkpt>
      <trkpt lat="42.797549" lon="-.733597">
        <ele>965.372</ele>
        <time>2020-09-06T16:51:32Z</time>
      </trkpt>
      <trkpt lat="42.797589" lon="-.733567">
        <ele>965.713</ele>
        <time>2020-09-06T16:51:36Z</time>
      </trkpt>
      <trkpt lat="42.797632" lon="-.733542">
        <ele>966.089</ele>
        <time>2020-09-06T16:51:40Z</time>
      </trkpt>
      <trkpt lat="42.797665" lon="-.7335">
        <ele>966.444</ele>
        <time>2020-09-06T16:51:45Z</time>
      </trkpt>
      <trkpt lat="42.797706" lon="-.733466">
        <ele>966.832</ele>
        <time>2020-09-06T16:51:51Z</time>
      </trkpt>
      <trkpt lat="42.797741" lon="-.733423">
        <ele>967.261</ele>
        <time>2020-09-06T16:51:56Z</time>
      </trkpt>
      <trkpt lat="42.797776" lon="-.733383">
        <ele>967.614</ele>
        <time>2020-09-06T16:52:01Z</time>
      </trkpt>
      <trkpt lat="42.797822" lon="-.733357">
        <ele>968.147</ele>
        <time>2020-09-06T16:52:13Z</time>
      </trkpt>
      <trkpt lat="42.797856" lon="-.733315">
        <ele>968.598</ele>
        <time>2020-09-06T16:52:16Z</time>
      </trkpt>
      <trkpt lat="42.797892" lon="-.733266">
        <ele>968.915</ele>
        <time>2020-09-06T16:52:21Z</time>
      </trkpt>
      <trkpt lat="42.797929" lon="-.733229">
        <ele>969.226</ele>
        <time>2020-09-06T16:52:26Z</time>
      </trkpt>
      <trkpt lat="42.797965" lon="-.73319">
        <ele>969.708</ele>
        <time>2020-09-06T16:52:34Z</time>
      </trkpt>
      <trkpt lat="42.798001" lon="-.733145">
        <ele>970.184</ele>
        <time>2020-09-06T16:52:41Z</time>
      </trkpt>
      <trkpt lat="42.798029" lon="-.733096">
        <ele>970.455</ele>
        <time>2020-09-06T16:52:48Z</time>
      </trkpt>
      <trkpt lat="42.79806" lon="-.733042">
        <ele>970.621</ele>
        <time>2020-09-06T16:52:54Z</time>
      </trkpt>
      <trkpt lat="42.798086" lon="-.732981">
        <ele>970.876</ele>
        <time>2020-09-06T16:53:00Z</time>
      </trkpt>
      <trkpt lat="42.798101" lon="-.732923">
        <ele>970.954</ele>
        <time>2020-09-06T16:53:04Z</time>
      </trkpt>
      <trkpt lat="42.798127" lon="-.732855">
        <ele>970.843</ele>
        <time>2020-09-06T16:53:09Z</time>
      </trkpt>
      <trkpt lat="42.798157" lon="-.732806">
        <ele>970.726</ele>
        <time>2020-09-06T16:53:13Z</time>
      </trkpt>
      <trkpt lat="42.798179" lon="-.73275">
        <ele>970.539</ele>
        <time>2020-09-06T16:53:19Z</time>
      </trkpt>
      <trkpt lat="42.798196" lon="-.732688">
        <ele>970.427</ele>
        <time>2020-09-06T16:53:24Z</time>
      </trkpt>
      <trkpt lat="42.798217" lon="-.732624">
        <ele>970.668</ele>
        <time>2020-09-06T16:53:29Z</time>
      </trkpt>
      <trkpt lat="42.798243" lon="-.732567">
        <ele>971.114</ele>
        <time>2020-09-06T16:53:34Z</time>
      </trkpt>
      <trkpt lat="42.798282" lon="-.732531">
        <ele>972.108</ele>
        <time>2020-09-06T16:53:40Z</time>
      </trkpt>
      <trkpt lat="42.798282" lon="-.732531">
        <ele>972.197</ele>
        <time>2020-09-06T16:53:40Z</time>
      </trkpt>
      <trkpt lat="42.798327" lon="-.732503">
        <ele>972.398</ele>
        <time>2020-09-06T16:53:45Z</time>
      </trkpt>
      <trkpt lat="42.798366" lon="-.732473">
        <ele>972.594</ele>
        <time>2020-09-06T16:53:48Z</time>
      </trkpt>
      <trkpt lat="42.798405" lon="-.73244">
        <ele>972.689</ele>
        <time>2020-09-06T16:53:53Z</time>
      </trkpt>
      <trkpt lat="42.798434" lon="-.732387">
        <ele>972.587</ele>
        <time>2020-09-06T16:54:01Z</time>
      </trkpt>
      <trkpt lat="42.798463" lon="-.732334">
        <ele>972.426</ele>
        <time>2020-09-06T16:54:06Z</time>
      </trkpt>
      <trkpt lat="42.7985" lon="-.732291">
        <ele>972.119</ele>
        <time>2020-09-06T16:54:11Z</time>
      </trkpt>
      <trkpt lat="42.798547" lon="-.73226">
        <ele>971.612</ele>
        <time>2020-09-06T16:54:18Z</time>
      </trkpt>
      <trkpt lat="42.798547" lon="-.73226">
        <ele>971.625</ele>
        <time>2020-09-06T16:54:18Z</time>
      </trkpt>
      <trkpt lat="42.798586" lon="-.73222">
        <ele>971.426</ele>
        <time>2020-09-06T16:54:23Z</time>
      </trkpt>
      <trkpt lat="42.798619" lon="-.732166">
        <ele>971.308</ele>
        <time>2020-09-06T16:54:28Z</time>
      </trkpt>
      <trkpt lat="42.798659" lon="-.732128">
        <ele>971.208</ele>
        <time>2020-09-06T16:54:33Z</time>
      </trkpt>
      <trkpt lat="42.798697" lon="-.732082">
        <ele>971.197</ele>
        <time>2020-09-06T16:54:42Z</time>
      </trkpt>
      <trkpt lat="42.798725" lon="-.732026">
        <ele>971.098</ele>
        <time>2020-09-06T16:54:48Z</time>
      </trkpt>
      <trkpt lat="42.798756" lon="-.731975">
        <ele>970.864</ele>
        <time>2020-09-06T16:54:53Z</time>
      </trkpt>
      <trkpt lat="42.79879" lon="-.73193">
        <ele>970.799</ele>
        <time>2020-09-06T16:54:58Z</time>
      </trkpt>
      <trkpt lat="42.798828" lon="-.731894">
        <ele>970.647</ele>
        <time>2020-09-06T16:55:02Z</time>
      </trkpt>
      <trkpt lat="42.798873" lon="-.731871">
        <ele>970.676</ele>
        <time>2020-09-06T16:55:07Z</time>
      </trkpt>
      <trkpt lat="42.798915" lon="-.731845">
        <ele>970.799</ele>
        <time>2020-09-06T16:55:12Z</time>
      </trkpt>
      <trkpt lat="42.798959" lon="-.731811">
        <ele>970.792</ele>
        <time>2020-09-06T16:55:17Z</time>
      </trkpt>
      <trkpt lat="42.799004" lon="-.731779">
        <ele>970.653</ele>
        <time>2020-09-06T16:55:21Z</time>
      </trkpt>
      <trkpt lat="42.799046" lon="-.731755">
        <ele>970.504</ele>
        <time>2020-09-06T16:55:25Z</time>
      </trkpt>
      <trkpt lat="42.799081" lon="-.731705">
        <ele>970.414</ele>
        <time>2020-09-06T16:55:30Z</time>
      </trkpt>
      <trkpt lat="42.799123" lon="-.731683">
        <ele>970.308</ele>
        <time>2020-09-06T16:55:35Z</time>
      </trkpt>
      <trkpt lat="42.799163" lon="-.731652">
        <ele>970.250</ele>
        <time>2020-09-06T16:55:40Z</time>
      </trkpt>
      <trkpt lat="42.799202" lon="-.731606">
        <ele>970.111</ele>
        <time>2020-09-06T16:55:44Z</time>
      </trkpt>
      <trkpt lat="42.799232" lon="-.731556">
        <ele>970.057</ele>
        <time>2020-09-06T16:55:48Z</time>
      </trkpt>
      <trkpt lat="42.799266" lon="-.731497">
        <ele>969.892</ele>
        <time>2020-09-06T16:55:53Z</time>
      </trkpt>
      <trkpt lat="42.7993" lon="-.731452">
        <ele>969.640</ele>
        <time>2020-09-06T16:55:56Z</time>
      </trkpt>
      <trkpt lat="42.799331" lon="-.7314">
        <ele>969.459</ele>
        <time>2020-09-06T16:56:00Z</time>
      </trkpt>
      <trkpt lat="42.799359" lon="-.731346">
        <ele>969.212</ele>
        <time>2020-09-06T16:56:03Z</time>
      </trkpt>
      <trkpt lat="42.799378" lon="-.73129">
        <ele>969.035</ele>
        <time>2020-09-06T16:56:07Z</time>
      </trkpt>
      <trkpt lat="42.799393" lon="-.731226">
        <ele>968.834</ele>
        <time>2020-09-06T16:56:11Z</time>
      </trkpt>
      <trkpt lat="42.799404" lon="-.731166">
        <ele>968.655</ele>
        <time>2020-09-06T16:56:15Z</time>
      </trkpt>
      <trkpt lat="42.799438" lon="-.731112">
        <ele>968.310</ele>
        <time>2020-09-06T16:56:19Z</time>
      </trkpt>
      <trkpt lat="42.799482" lon="-.731063">
        <ele>968.108</ele>
        <time>2020-09-06T16:56:23Z</time>
      </trkpt>
      <trkpt lat="42.799522" lon="-.731028">
        <ele>967.838</ele>
        <time>2020-09-06T16:56:27Z</time>
      </trkpt>
      <trkpt lat="42.799557" lon="-.730982">
        <ele>967.889</ele>
        <time>2020-09-06T16:56:34Z</time>
      </trkpt>
      <trkpt lat="42.799572" lon="-.730918">
        <ele>968.065</ele>
        <time>2020-09-06T16:56:41Z</time>
      </trkpt>
      <trkpt lat="42.7996" lon="-.730864">
        <ele>968.150</ele>
        <time>2020-09-06T16:56:47Z</time>
      </trkpt>
      <trkpt lat="42.799623" lon="-.730799">
        <ele>968.218</ele>
        <time>2020-09-06T16:56:54Z</time>
      </trkpt>
      <trkpt lat="42.799639" lon="-.730741">
        <ele>968.797</ele>
        <time>2020-09-06T16:57:00Z</time>
      </trkpt>
      <trkpt lat="42.799656" lon="-.730679">
        <ele>969.150</ele>
        <time>2020-09-06T16:57:06Z</time>
      </trkpt>
      <trkpt lat="42.799669" lon="-.730616">
        <ele>969.443</ele>
        <time>2020-09-06T16:57:11Z</time>
      </trkpt>
      <trkpt lat="42.799674" lon="-.730545">
        <ele>969.772</ele>
        <time>2020-09-06T16:57:16Z</time>
      </trkpt>
      <trkpt lat="42.799686" lon="-.730484">
        <ele>969.813</ele>
        <time>2020-09-06T16:57:20Z</time>
      </trkpt>
      <trkpt lat="42.799714" lon="-.730432">
        <ele>970.014</ele>
        <time>2020-09-06T16:57:25Z</time>
      </trkpt>
      <trkpt lat="42.799744" lon="-.730373">
        <ele>970.308</ele>
        <time>2020-09-06T16:57:29Z</time>
      </trkpt>
      <trkpt lat="42.799773" lon="-.730326">
        <ele>970.722</ele>
        <time>2020-09-06T16:57:32Z</time>
      </trkpt>
      <trkpt lat="42.799812" lon="-.730279">
        <ele>971.263</ele>
        <time>2020-09-06T16:57:36Z</time>
      </trkpt>
      <trkpt lat="42.799828" lon="-.730214">
        <ele>971.789</ele>
        <time>2020-09-06T16:57:41Z</time>
      </trkpt>
      <trkpt lat="42.799842" lon="-.730151">
        <ele>972.184</ele>
        <time>2020-09-06T16:57:45Z</time>
      </trkpt>
      <trkpt lat="42.799856" lon="-.730089">
        <ele>972.672</ele>
        <time>2020-09-06T16:57:50Z</time>
      </trkpt>
      <trkpt lat="42.799865" lon="-.730028">
        <ele>973.061</ele>
        <time>2020-09-06T16:57:55Z</time>
      </trkpt>
      <trkpt lat="42.799867" lon="-.72996">
        <ele>973.564</ele>
        <time>2020-09-06T16:58:00Z</time>
      </trkpt>
      <trkpt lat="42.799872" lon="-.729892">
        <ele>974.177</ele>
        <time>2020-09-06T16:58:04Z</time>
      </trkpt>
      <trkpt lat="42.799881" lon="-.729829">
        <ele>974.789</ele>
        <time>2020-09-06T16:58:09Z</time>
      </trkpt>
      <trkpt lat="42.799913" lon="-.729779">
        <ele>975.306</ele>
        <time>2020-09-06T16:58:15Z</time>
      </trkpt>
      <trkpt lat="42.799945" lon="-.729736">
        <ele>975.926</ele>
        <time>2020-09-06T16:58:21Z</time>
      </trkpt>
      <trkpt lat="42.799961" lon="-.729678">
        <ele>976.608</ele>
        <time>2020-09-06T16:58:27Z</time>
      </trkpt>
      <trkpt lat="42.799974" lon="-.729612">
        <ele>977.343</ele>
        <time>2020-09-06T16:58:33Z</time>
      </trkpt>
      <trkpt lat="42.800005" lon="-.729555">
        <ele>977.984</ele>
        <time>2020-09-06T16:58:38Z</time>
      </trkpt>
      <trkpt lat="42.800037" lon="-.729505">
        <ele>978.590</ele>
        <time>2020-09-06T16:58:43Z</time>
      </trkpt>
      <trkpt lat="42.800063" lon="-.729454">
        <ele>979.225</ele>
        <time>2020-09-06T16:58:49Z</time>
      </trkpt>
      <trkpt lat="42.800093" lon="-.729398">
        <ele>979.833</ele>
        <time>2020-09-06T16:58:55Z</time>
      </trkpt>
      <trkpt lat="42.800128" lon="-.729352">
        <ele>980.582</ele>
        <time>2020-09-06T16:59:03Z</time>
      </trkpt>
      <trkpt lat="42.800157" lon="-.729299">
        <ele>981.235</ele>
        <time>2020-09-06T16:59:09Z</time>
      </trkpt>
      <trkpt lat="42.80017" lon="-.729234">
        <ele>982.038</ele>
        <time>2020-09-06T16:59:16Z</time>
      </trkpt>
      <trkpt lat="42.800198" lon="-.729184">
        <ele>982.621</ele>
        <time>2020-09-06T16:59:20Z</time>
      </trkpt>
      <trkpt lat="42.800235" lon="-.729136">
        <ele>983.141</ele>
        <time>2020-09-06T16:59:25Z</time>
      </trkpt>
      <trkpt lat="42.800269" lon="-.729086">
        <ele>983.505</ele>
        <time>2020-09-06T16:59:29Z</time>
      </trkpt>
      <trkpt lat="42.800296" lon="-.729033">
        <ele>984.008</ele>
        <time>2020-09-06T16:59:33Z</time>
      </trkpt>
      <trkpt lat="42.800321" lon="-.728975">
        <ele>984.647</ele>
        <time>2020-09-06T16:59:38Z</time>
      </trkpt>
      <trkpt lat="42.80034" lon="-.728918">
        <ele>985.268</ele>
        <time>2020-09-06T16:59:43Z</time>
      </trkpt>
      <trkpt lat="42.800369" lon="-.728871">
        <ele>985.844</ele>
        <time>2020-09-06T16:59:48Z</time>
      </trkpt>
      <trkpt lat="42.800394" lon="-.728819">
        <ele>986.489</ele>
        <time>2020-09-06T16:59:52Z</time>
      </trkpt>
      <trkpt lat="42.800421" lon="-.728764">
        <ele>986.767</ele>
        <time>2020-09-06T16:59:56Z</time>
      </trkpt>
      <trkpt lat="42.800453" lon="-.728715">
        <ele>986.956</ele>
        <time>2020-09-06T17:00:00Z</time>
      </trkpt>
      <trkpt lat="42.800472" lon="-.728656">
        <ele>987.259</ele>
        <time>2020-09-06T17:00:05Z</time>
      </trkpt>
      <trkpt lat="42.800472" lon="-.728656">
        <ele>987.262</ele>
        <time>2020-09-06T17:00:05Z</time>
      </trkpt>
      <trkpt lat="42.800507" lon="-.728607">
        <ele>987.492</ele>
        <time>2020-09-06T17:00:10Z</time>
      </trkpt>
      <trkpt lat="42.800535" lon="-.72855">
        <ele>987.873</ele>
        <time>2020-09-06T17:00:14Z</time>
      </trkpt>
      <trkpt lat="42.80056" lon="-.728493">
        <ele>988.120</ele>
        <time>2020-09-06T17:00:19Z</time>
      </trkpt>
      <trkpt lat="42.800589" lon="-.728444">
        <ele>988.408</ele>
        <time>2020-09-06T17:00:25Z</time>
      </trkpt>
      <trkpt lat="42.800618" lon="-.728394">
        <ele>988.884</ele>
        <time>2020-09-06T17:00:30Z</time>
      </trkpt>
      <trkpt lat="42.800648" lon="-.728342">
        <ele>989.345</ele>
        <time>2020-09-06T17:00:37Z</time>
      </trkpt>
      <trkpt lat="42.800678" lon="-.728291">
        <ele>990.091</ele>
        <time>2020-09-06T17:00:45Z</time>
      </trkpt>
      <trkpt lat="42.800723" lon="-.728278">
        <ele>990.686</ele>
        <time>2020-09-06T17:00:52Z</time>
      </trkpt>
      <trkpt lat="42.800736" lon="-.728218">
        <ele>991.584</ele>
        <time>2020-09-06T17:01:00Z</time>
      </trkpt>
      <trkpt lat="42.800739" lon="-.728157">
        <ele>992.493</ele>
        <time>2020-09-06T17:01:05Z</time>
      </trkpt>
      <trkpt lat="42.800741" lon="-.728085">
        <ele>993.336</ele>
        <time>2020-09-06T17:01:10Z</time>
      </trkpt>
      <trkpt lat="42.800748" lon="-.728018">
        <ele>994.159</ele>
        <time>2020-09-06T17:01:15Z</time>
      </trkpt>
      <trkpt lat="42.800766" lon="-.72796">
        <ele>994.838</ele>
        <time>2020-09-06T17:01:18Z</time>
      </trkpt>
      <trkpt lat="42.800799" lon="-.727906">
        <ele>995.370</ele>
        <time>2020-09-06T17:01:22Z</time>
      </trkpt>
      <trkpt lat="42.800837" lon="-.727864">
        <ele>995.717</ele>
        <time>2020-09-06T17:01:26Z</time>
      </trkpt>
      <trkpt lat="42.800874" lon="-.727828">
        <ele>996.008</ele>
        <time>2020-09-06T17:01:30Z</time>
      </trkpt>
      <trkpt lat="42.800909" lon="-.727783">
        <ele>996.288</ele>
        <time>2020-09-06T17:01:34Z</time>
      </trkpt>
      <trkpt lat="42.800937" lon="-.727727">
        <ele>996.729</ele>
        <time>2020-09-06T17:01:39Z</time>
      </trkpt>
      <trkpt lat="42.800937" lon="-.727727">
        <ele>996.785</ele>
        <time>2020-09-06T17:01:39Z</time>
      </trkpt>
      <trkpt lat="42.800965" lon="-.727674">
        <ele>996.980</ele>
        <time>2020-09-06T17:01:44Z</time>
      </trkpt>
      <trkpt lat="42.80099" lon="-.72762">
        <ele>997.038</ele>
        <time>2020-09-06T17:01:49Z</time>
      </trkpt>
      <trkpt lat="42.801008" lon="-.727563">
        <ele>997.097</ele>
        <time>2020-09-06T17:01:53Z</time>
      </trkpt>
      <trkpt lat="42.801024" lon="-.727492">
        <ele>997.190</ele>
        <time>2020-09-06T17:01:58Z</time>
      </trkpt>
      <trkpt lat="42.801044" lon="-.727435">
        <ele>997.323</ele>
        <time>2020-09-06T17:02:02Z</time>
      </trkpt>
      <trkpt lat="42.801044" lon="-.727435">
        <ele>997.373</ele>
        <time>2020-09-06T17:02:02Z</time>
      </trkpt>
      <trkpt lat="42.801062" lon="-.727371">
        <ele>997.585</ele>
        <time>2020-09-06T17:02:07Z</time>
      </trkpt>
      <trkpt lat="42.801078" lon="-.727311">
        <ele>997.813</ele>
        <time>2020-09-06T17:02:11Z</time>
      </trkpt>
      <trkpt lat="42.801094" lon="-.727244">
        <ele>998.308</ele>
        <time>2020-09-06T17:02:14Z</time>
      </trkpt>
      <trkpt lat="42.801109" lon="-.727174">
        <ele>999.042</ele>
        <time>2020-09-06T17:02:21Z</time>
      </trkpt>
      <trkpt lat="42.801121" lon="-.727105">
        <ele>999.743</ele>
        <time>2020-09-06T17:02:28Z</time>
      </trkpt>
      <trkpt lat="42.801121" lon="-.72704">
        <ele>1000.429</ele>
        <time>2020-09-06T17:02:43Z</time>
      </trkpt>
      <trkpt lat="42.801144" lon="-.726976">
        <ele>1001.084</ele>
        <time>2020-09-06T17:02:49Z</time>
      </trkpt>
      <trkpt lat="42.801174" lon="-.726923">
        <ele>1001.442</ele>
        <time>2020-09-06T17:02:53Z</time>
      </trkpt>
      <trkpt lat="42.801198" lon="-.726869">
        <ele>1001.731</ele>
        <time>2020-09-06T17:02:59Z</time>
      </trkpt>
      <trkpt lat="42.801232" lon="-.726828">
        <ele>1002.044</ele>
        <time>2020-09-06T17:03:05Z</time>
      </trkpt>
      <trkpt lat="42.801258" lon="-.726768">
        <ele>1002.027</ele>
        <time>2020-09-06T17:03:10Z</time>
      </trkpt>
      <trkpt lat="42.80127" lon="-.726704">
        <ele>1002.123</ele>
        <time>2020-09-06T17:03:16Z</time>
      </trkpt>
      <trkpt lat="42.801279" lon="-.726642">
        <ele>1002.183</ele>
        <time>2020-09-06T17:03:20Z</time>
      </trkpt>
      <trkpt lat="42.80128" lon="-.726579">
        <ele>1002.211</ele>
        <time>2020-09-06T17:03:26Z</time>
      </trkpt>
      <trkpt lat="42.801285" lon="-.72651">
        <ele>1002.308</ele>
        <time>2020-09-06T17:03:31Z</time>
      </trkpt>
      <trkpt lat="42.801291" lon="-.726445">
        <ele>1002.567</ele>
        <time>2020-09-06T17:03:37Z</time>
      </trkpt>
      <trkpt lat="42.801303" lon="-.726383">
        <ele>1003.268</ele>
        <time>2020-09-06T17:03:42Z</time>
      </trkpt>
      <trkpt lat="42.801303" lon="-.726383">
        <ele>1003.214</ele>
        <time>2020-09-06T17:03:42Z</time>
      </trkpt>
      <trkpt lat="42.801305" lon="-.726317">
        <ele>1004.039</ele>
        <time>2020-09-06T17:03:49Z</time>
      </trkpt>
      <trkpt lat="42.801286" lon="-.726257">
        <ele>1005.137</ele>
        <time>2020-09-06T17:03:54Z</time>
      </trkpt>
      <trkpt lat="42.801265" lon="-.726195">
        <ele>1006.386</ele>
        <time>2020-09-06T17:04:00Z</time>
      </trkpt>
      <trkpt lat="42.801251" lon="-.726137">
        <ele>1007.959</ele>
        <time>2020-09-06T17:04:06Z</time>
      </trkpt>
      <trkpt lat="42.80124" lon="-.726074">
        <ele>1009.542</ele>
        <time>2020-09-06T17:04:14Z</time>
      </trkpt>
      <trkpt lat="42.801232" lon="-.726011">
        <ele>1011.157</ele>
        <time>2020-09-06T17:04:20Z</time>
      </trkpt>
      <trkpt lat="42.801225" lon="-.725948">
        <ele>1012.800</ele>
        <time>2020-09-06T17:04:25Z</time>
      </trkpt>
      <trkpt lat="42.801203" lon="-.725883">
        <ele>1014.420</ele>
        <time>2020-09-06T17:04:31Z</time>
      </trkpt>
      <trkpt lat="42.801194" lon="-.725821">
        <ele>1015.908</ele>
        <time>2020-09-06T17:04:36Z</time>
      </trkpt>
      <trkpt lat="42.801225" lon="-.725775">
        <ele>1017.760</ele>
        <time>2020-09-06T17:04:58Z</time>
      </trkpt>
      <trkpt lat="42.801261" lon="-.725813">
        <ele>1019.581</ele>
        <time>2020-09-06T17:05:07Z</time>
      </trkpt>
      <trkpt lat="42.801303" lon="-.72584">
        <ele>1020.947</ele>
        <time>2020-09-06T17:05:12Z</time>
      </trkpt>
      <trkpt lat="42.801338" lon="-.725883">
        <ele>1022.112</ele>
        <time>2020-09-06T17:05:17Z</time>
      </trkpt>
      <trkpt lat="42.801376" lon="-.725848">
        <ele>1023.250</ele>
        <time>2020-09-06T17:05:25Z</time>
      </trkpt>
      <trkpt lat="42.801365" lon="-.725787">
        <ele>1024.479</ele>
        <time>2020-09-06T17:05:34Z</time>
      </trkpt>
      <trkpt lat="42.801343" lon="-.725727">
        <ele>1025.672</ele>
        <time>2020-09-06T17:05:43Z</time>
      </trkpt>
      <trkpt lat="42.801326" lon="-.725665">
        <ele>1027.385</ele>
        <time>2020-09-06T17:05:48Z</time>
      </trkpt>
      <trkpt lat="42.801326" lon="-.725665">
        <ele>1027.317</ele>
        <time>2020-09-06T17:05:48Z</time>
      </trkpt>
      <trkpt lat="42.801306" lon="-.725609">
        <ele>1028.087</ele>
        <time>2020-09-06T17:05:53Z</time>
      </trkpt>
      <trkpt lat="42.801291" lon="-.725546">
        <ele>1028.715</ele>
        <time>2020-09-06T17:05:58Z</time>
      </trkpt>
      <trkpt lat="42.801272" lon="-.725478">
        <ele>1029.308</ele>
        <time>2020-09-06T17:06:04Z</time>
      </trkpt>
      <trkpt lat="42.801242" lon="-.725426">
        <ele>1030.746</ele>
        <time>2020-09-06T17:06:27Z</time>
      </trkpt>
      <trkpt lat="42.801215" lon="-.725371">
        <ele>1031.997</ele>
        <time>2020-09-06T17:06:31Z</time>
      </trkpt>
      <trkpt lat="42.801192" lon="-.725318">
        <ele>1033.073</ele>
        <time>2020-09-06T17:06:34Z</time>
      </trkpt>
      <trkpt lat="42.801168" lon="-.725263">
        <ele>1033.938</ele>
        <time>2020-09-06T17:06:38Z</time>
      </trkpt>
      <trkpt lat="42.801152" lon="-.725198">
        <ele>1034.736</ele>
        <time>2020-09-06T17:06:42Z</time>
      </trkpt>
      <trkpt lat="42.801156" lon="-.725133">
        <ele>1035.585</ele>
        <time>2020-09-06T17:06:47Z</time>
      </trkpt>
      <trkpt lat="42.801168" lon="-.725071">
        <ele>1036.328</ele>
        <time>2020-09-06T17:06:52Z</time>
      </trkpt>
      <trkpt lat="42.801189" lon="-.725014">
        <ele>1037.021</ele>
        <time>2020-09-06T17:06:58Z</time>
      </trkpt>
      <trkpt lat="42.801199" lon="-.724952">
        <ele>1037.565</ele>
        <time>2020-09-06T17:07:03Z</time>
      </trkpt>
      <trkpt lat="42.801202" lon="-.724887">
        <ele>1037.968</ele>
        <time>2020-09-06T17:07:08Z</time>
      </trkpt>
      <trkpt lat="42.801211" lon="-.724821">
        <ele>1038.314</ele>
        <time>2020-09-06T17:07:13Z</time>
      </trkpt>
      <trkpt lat="42.801208" lon="-.724755">
        <ele>1038.708</ele>
        <time>2020-09-06T17:07:19Z</time>
      </trkpt>
      <trkpt lat="42.801215" lon="-.72469">
        <ele>1039.231</ele>
        <time>2020-09-06T17:07:25Z</time>
      </trkpt>
      <trkpt lat="42.801232" lon="-.724627">
        <ele>1039.752</ele>
        <time>2020-09-06T17:07:32Z</time>
      </trkpt>
      <trkpt lat="42.801254" lon="-.724565">
        <ele>1040.478</ele>
        <time>2020-09-06T17:07:38Z</time>
      </trkpt>
      <trkpt lat="42.801272" lon="-.724503">
        <ele>1041.163</ele>
        <time>2020-09-06T17:07:44Z</time>
      </trkpt>
      <trkpt lat="42.801293" lon="-.724439">
        <ele>1041.731</ele>
        <time>2020-09-06T17:07:49Z</time>
      </trkpt>
      <trkpt lat="42.801308" lon="-.724374">
        <ele>1042.340</ele>
        <time>2020-09-06T17:07:53Z</time>
      </trkpt>
      <trkpt lat="42.801315" lon="-.724303">
        <ele>1042.993</ele>
        <time>2020-09-06T17:07:59Z</time>
      </trkpt>
      <trkpt lat="42.80133" lon="-.724237">
        <ele>1043.676</ele>
        <time>2020-09-06T17:08:06Z</time>
      </trkpt>
      <trkpt lat="42.801346" lon="-.724172">
        <ele>1044.017</ele>
        <time>2020-09-06T17:08:11Z</time>
      </trkpt>
      <trkpt lat="42.801364" lon="-.724105">
        <ele>1044.187</ele>
        <time>2020-09-06T17:08:16Z</time>
      </trkpt>
      <trkpt lat="42.801383" lon="-.724043">
        <ele>1044.115</ele>
        <time>2020-09-06T17:08:22Z</time>
      </trkpt>
      <trkpt lat="42.801397" lon="-.723977">
        <ele>1044.108</ele>
        <time>2020-09-06T17:08:27Z</time>
      </trkpt>
      <trkpt lat="42.801404" lon="-.723911">
        <ele>1044.046</ele>
        <time>2020-09-06T17:08:32Z</time>
      </trkpt>
      <trkpt lat="42.801417" lon="-.72385">
        <ele>1043.977</ele>
        <time>2020-09-06T17:08:38Z</time>
      </trkpt>
      <trkpt lat="42.80144" lon="-.723791">
        <ele>1043.853</ele>
        <time>2020-09-06T17:08:43Z</time>
      </trkpt>
      <trkpt lat="42.801455" lon="-.723727">
        <ele>1043.818</ele>
        <time>2020-09-06T17:08:48Z</time>
      </trkpt>
      <trkpt lat="42.801466" lon="-.723663">
        <ele>1043.866</ele>
        <time>2020-09-06T17:08:52Z</time>
      </trkpt>
      <trkpt lat="42.801478" lon="-.723601">
        <ele>1043.935</ele>
        <time>2020-09-06T17:08:57Z</time>
      </trkpt>
      <trkpt lat="42.80149" lon="-.723541">
        <ele>1044.188</ele>
        <time>2020-09-06T17:09:01Z</time>
      </trkpt>
      <trkpt lat="42.801501" lon="-.72348">
        <ele>1044.461</ele>
        <time>2020-09-06T17:09:05Z</time>
      </trkpt>
      <trkpt lat="42.801518" lon="-.723421">
        <ele>1044.791</ele>
        <time>2020-09-06T17:09:09Z</time>
      </trkpt>
      <trkpt lat="42.801526" lon="-.723356">
        <ele>1045.181</ele>
        <time>2020-09-06T17:09:14Z</time>
      </trkpt>
      <trkpt lat="42.801536" lon="-.723295">
        <ele>1045.619</ele>
        <time>2020-09-06T17:09:19Z</time>
      </trkpt>
      <trkpt lat="42.801553" lon="-.72323">
        <ele>1046.008</ele>
        <time>2020-09-06T17:09:24Z</time>
      </trkpt>
      <trkpt lat="42.801573" lon="-.723172">
        <ele>1046.394</ele>
        <time>2020-09-06T17:09:29Z</time>
      </trkpt>
      <trkpt lat="42.801581" lon="-.723111">
        <ele>1046.755</ele>
        <time>2020-09-06T17:09:33Z</time>
      </trkpt>
      <trkpt lat="42.801585" lon="-.723048">
        <ele>1047.221</ele>
        <time>2020-09-06T17:09:39Z</time>
      </trkpt>
      <trkpt lat="42.801585" lon="-.722983">
        <ele>1047.746</ele>
        <time>2020-09-06T17:09:44Z</time>
      </trkpt>
      <trkpt lat="42.801598" lon="-.722923">
        <ele>1048.384</ele>
        <time>2020-09-06T17:09:49Z</time>
      </trkpt>
      <trkpt lat="42.801636" lon="-.722876">
        <ele>1048.933</ele>
        <time>2020-09-06T17:09:56Z</time>
      </trkpt>
      <trkpt lat="42.801667" lon="-.722831">
        <ele>1049.676</ele>
        <time>2020-09-06T17:10:02Z</time>
      </trkpt>
      <trkpt lat="42.801681" lon="-.722772">
        <ele>1050.519</ele>
        <time>2020-09-06T17:10:07Z</time>
      </trkpt>
      <trkpt lat="42.801694" lon="-.722712">
        <ele>1051.314</ele>
        <time>2020-09-06T17:10:13Z</time>
      </trkpt>
      <trkpt lat="42.801709" lon="-.72265">
        <ele>1052.254</ele>
        <time>2020-09-06T17:10:18Z</time>
      </trkpt>
      <trkpt lat="42.80174" lon="-.722596">
        <ele>1053.009</ele>
        <time>2020-09-06T17:10:23Z</time>
      </trkpt>
      <trkpt lat="42.801782" lon="-.722552">
        <ele>1053.808</ele>
        <time>2020-09-06T17:10:29Z</time>
      </trkpt>
      <trkpt lat="42.801813" lon="-.722504">
        <ele>1054.936</ele>
        <time>2020-09-06T17:10:35Z</time>
      </trkpt>
      <trkpt lat="42.801845" lon="-.722455">
        <ele>1056.277</ele>
        <time>2020-09-06T17:10:41Z</time>
      </trkpt>
      <trkpt lat="42.801892" lon="-.722413">
        <ele>1057.913</ele>
        <time>2020-09-06T17:10:46Z</time>
      </trkpt>
      <trkpt lat="42.801892" lon="-.722413">
        <ele>1057.968</ele>
        <time>2020-09-06T17:10:46Z</time>
      </trkpt>
      <trkpt lat="42.801933" lon="-.722376">
        <ele>1058.526</ele>
        <time>2020-09-06T17:10:51Z</time>
      </trkpt>
      <trkpt lat="42.801962" lon="-.722318">
        <ele>1059.355</ele>
        <time>2020-09-06T17:10:56Z</time>
      </trkpt>
      <trkpt lat="42.801976" lon="-.722256">
        <ele>1060.158</ele>
        <time>2020-09-06T17:11:01Z</time>
      </trkpt>
      <trkpt lat="42.801996" lon="-.722194">
        <ele>1061.791</ele>
        <time>2020-09-06T17:11:06Z</time>
      </trkpt>
      <trkpt lat="42.801996" lon="-.722194">
        <ele>1061.755</ele>
        <time>2020-09-06T17:11:06Z</time>
      </trkpt>
      <trkpt lat="42.802009" lon="-.72213">
        <ele>1062.807</ele>
        <time>2020-09-06T17:11:18Z</time>
      </trkpt>
      <trkpt lat="42.802031" lon="-.722075">
        <ele>1063.917</ele>
        <time>2020-09-06T17:11:22Z</time>
      </trkpt>
      <trkpt lat="42.802053" lon="-.722011">
        <ele>1064.708</ele>
        <time>2020-09-06T17:11:27Z</time>
      </trkpt>
      <trkpt lat="42.802087" lon="-.721971">
        <ele>1065.470</ele>
        <time>2020-09-06T17:11:31Z</time>
      </trkpt>
      <trkpt lat="42.802121" lon="-.721928">
        <ele>1066.061</ele>
        <time>2020-09-06T17:11:35Z</time>
      </trkpt>
      <trkpt lat="42.802151" lon="-.721878">
        <ele>1066.697</ele>
        <time>2020-09-06T17:11:40Z</time>
      </trkpt>
      <trkpt lat="42.80218" lon="-.721826">
        <ele>1067.262</ele>
        <time>2020-09-06T17:11:46Z</time>
      </trkpt>
      <trkpt lat="42.802224" lon="-.72178">
        <ele>1067.680</ele>
        <time>2020-09-06T17:11:51Z</time>
      </trkpt>
      <trkpt lat="42.802261" lon="-.721737">
        <ele>1068.159</ele>
        <time>2020-09-06T17:11:55Z</time>
      </trkpt>
      <trkpt lat="42.802292" lon="-.721691">
        <ele>1068.572</ele>
        <time>2020-09-06T17:12:00Z</time>
      </trkpt>
      <trkpt lat="42.802334" lon="-.721658">
        <ele>1069.215</ele>
        <time>2020-09-06T17:12:05Z</time>
      </trkpt>
      <trkpt lat="42.802375" lon="-.721615">
        <ele>1069.924</ele>
        <time>2020-09-06T17:12:09Z</time>
      </trkpt>
      <trkpt lat="42.802418" lon="-.72158">
        <ele>1070.304</ele>
        <time>2020-09-06T17:12:14Z</time>
      </trkpt>
      <trkpt lat="42.802459" lon="-.721554">
        <ele>1070.314</ele>
        <time>2020-09-06T17:12:18Z</time>
      </trkpt>
      <trkpt lat="42.802504" lon="-.721526">
        <ele>1070.108</ele>
        <time>2020-09-06T17:12:22Z</time>
      </trkpt>
      <trkpt lat="42.802549" lon="-.721501">
        <ele>1069.717</ele>
        <time>2020-09-06T17:12:25Z</time>
      </trkpt>
      <trkpt lat="42.802603" lon="-.72148">
        <ele>1069.488</ele>
        <time>2020-09-06T17:12:28Z</time>
      </trkpt>
      <trkpt lat="42.80265" lon="-.721465">
        <ele>1069.024</ele>
        <time>2020-09-06T17:12:31Z</time>
      </trkpt>
      <trkpt lat="42.802698" lon="-.721461">
        <ele>1068.499</ele>
        <time>2020-09-06T17:12:35Z</time>
      </trkpt>
      <trkpt lat="42.802744" lon="-.721443">
        <ele>1067.827</ele>
        <time>2020-09-06T17:12:39Z</time>
      </trkpt>
      <trkpt lat="42.802788" lon="-.721409">
        <ele>1067.136</ele>
        <time>2020-09-06T17:12:43Z</time>
      </trkpt>
      <trkpt lat="42.802829" lon="-.721377">
        <ele>1066.229</ele>
        <time>2020-09-06T17:12:46Z</time>
      </trkpt>
      <trkpt lat="42.802829" lon="-.721377">
        <ele>1066.222</ele>
        <time>2020-09-06T17:12:46Z</time>
      </trkpt>
      <trkpt lat="42.802876" lon="-.72135">
        <ele>1065.836</ele>
        <time>2020-09-06T17:12:50Z</time>
      </trkpt>
      <trkpt lat="42.802923" lon="-.721334">
        <ele>1065.417</ele>
        <time>2020-09-06T17:12:54Z</time>
      </trkpt>
      <trkpt lat="42.802971" lon="-.721306">
        <ele>1064.918</ele>
        <time>2020-09-06T17:12:59Z</time>
      </trkpt>
      <trkpt lat="42.803011" lon="-.721272">
        <ele>1064.308</ele>
        <time>2020-09-06T17:13:03Z</time>
      </trkpt>
      <trkpt lat="42.803058" lon="-.721244">
        <ele>1063.798</ele>
        <time>2020-09-06T17:13:07Z</time>
      </trkpt>
      <trkpt lat="42.803104" lon="-.721213">
        <ele>1063.099</ele>
        <time>2020-09-06T17:13:11Z</time>
      </trkpt>
      <trkpt lat="42.803147" lon="-.721192">
        <ele>1062.195</ele>
        <time>2020-09-06T17:13:16Z</time>
      </trkpt>
      <trkpt lat="42.803191" lon="-.721178">
        <ele>1061.180</ele>
        <time>2020-09-06T17:13:22Z</time>
      </trkpt>
      <trkpt lat="42.803236" lon="-.721164">
        <ele>1060.118</ele>
        <time>2020-09-06T17:13:27Z</time>
      </trkpt>
      <trkpt lat="42.803287" lon="-.721167">
        <ele>1059.147</ele>
        <time>2020-09-06T17:13:33Z</time>
      </trkpt>
      <trkpt lat="42.803335" lon="-.721168">
        <ele>1058.260</ele>
        <time>2020-09-06T17:13:37Z</time>
      </trkpt>
      <trkpt lat="42.803384" lon="-.721141">
        <ele>1057.393</ele>
        <time>2020-09-06T17:13:42Z</time>
      </trkpt>
      <trkpt lat="42.803429" lon="-.721131">
        <ele>1056.451</ele>
        <time>2020-09-06T17:13:48Z</time>
      </trkpt>
      <trkpt lat="42.803474" lon="-.721117">
        <ele>1055.401</ele>
        <time>2020-09-06T17:13:56Z</time>
      </trkpt>
      <trkpt lat="42.80352" lon="-.721103">
        <ele>1054.611</ele>
        <time>2020-09-06T17:14:01Z</time>
      </trkpt>
      <trkpt lat="42.803565" lon="-.721087">
        <ele>1053.908</ele>
        <time>2020-09-06T17:14:05Z</time>
      </trkpt>
      <trkpt lat="42.803608" lon="-.721063">
        <ele>1053.330</ele>
        <time>2020-09-06T17:14:10Z</time>
      </trkpt>
      <trkpt lat="42.80365" lon="-.721039">
        <ele>1052.791</ele>
        <time>2020-09-06T17:14:15Z</time>
      </trkpt>
      <trkpt lat="42.803699" lon="-.721031">
        <ele>1052.117</ele>
        <time>2020-09-06T17:14:20Z</time>
      </trkpt>
      <trkpt lat="42.803745" lon="-.721018">
        <ele>1051.522</ele>
        <time>2020-09-06T17:14:24Z</time>
      </trkpt>
      <trkpt lat="42.803794" lon="-.721001">
        <ele>1050.830</ele>
        <time>2020-09-06T17:14:30Z</time>
      </trkpt>
      <trkpt lat="42.803833" lon="-.720958">
        <ele>1049.919</ele>
        <time>2020-09-06T17:14:37Z</time>
      </trkpt>
      <trkpt lat="42.803867" lon="-.720917">
        <ele>1049.132</ele>
        <time>2020-09-06T17:14:43Z</time>
      </trkpt>
      <trkpt lat="42.80391" lon="-.720893">
        <ele>1048.335</ele>
        <time>2020-09-06T17:14:49Z</time>
      </trkpt>
      <trkpt lat="42.803961" lon="-.720887">
        <ele>1047.568</ele>
        <time>2020-09-06T17:14:55Z</time>
      </trkpt>
      <trkpt lat="42.804014" lon="-.720876">
        <ele>1046.842</ele>
        <time>2020-09-06T17:15:00Z</time>
      </trkpt>
      <trkpt lat="42.804061" lon="-.720854">
        <ele>1046.126</ele>
        <time>2020-09-06T17:15:05Z</time>
      </trkpt>
      <trkpt lat="42.804106" lon="-.720832">
        <ele>1045.408</ele>
        <time>2020-09-06T17:15:09Z</time>
      </trkpt>
      <trkpt lat="42.804151" lon="-.720818">
        <ele>1044.831</ele>
        <time>2020-09-06T17:15:14Z</time>
      </trkpt>
      <trkpt lat="42.804196" lon="-.720799">
        <ele>1044.292</ele>
        <time>2020-09-06T17:15:19Z</time>
      </trkpt>
      <trkpt lat="42.804245" lon="-.720767">
        <ele>1043.698</ele>
        <time>2020-09-06T17:15:25Z</time>
      </trkpt>
      <trkpt lat="42.804297" lon="-.72075">
        <ele>1042.953</ele>
        <time>2020-09-06T17:15:30Z</time>
      </trkpt>
      <trkpt lat="42.804338" lon="-.720722">
        <ele>1042.381</ele>
        <time>2020-09-06T17:15:35Z</time>
      </trkpt>
      <trkpt lat="42.804379" lon="-.720695">
        <ele>1041.770</ele>
        <time>2020-09-06T17:15:39Z</time>
      </trkpt>
      <trkpt lat="42.804424" lon="-.720663">
        <ele>1041.083</ele>
        <time>2020-09-06T17:15:43Z</time>
      </trkpt>
      <trkpt lat="42.804471" lon="-.720641">
        <ele>1040.346</ele>
        <time>2020-09-06T17:15:50Z</time>
      </trkpt>
      <trkpt lat="42.80451" lon="-.720609">
        <ele>1039.724</ele>
        <time>2020-09-06T17:15:55Z</time>
      </trkpt>
      <trkpt lat="42.804541" lon="-.720563">
        <ele>1039.204</ele>
        <time>2020-09-06T17:16:00Z</time>
      </trkpt>
      <trkpt lat="42.80457" lon="-.720506">
        <ele>1038.914</ele>
        <time>2020-09-06T17:16:06Z</time>
      </trkpt>
      <trkpt lat="42.804605" lon="-.720459">
        <ele>1039.608</ele>
        <time>2020-09-06T17:16:19Z</time>
      </trkpt>
      <trkpt lat="42.804638" lon="-.720415">
        <ele>1040.377</ele>
        <time>2020-09-06T17:16:25Z</time>
      </trkpt>
      <trkpt lat="42.804679" lon="-.72038">
        <ele>1040.988</ele>
        <time>2020-09-06T17:16:32Z</time>
      </trkpt>
      <trkpt lat="42.804717" lon="-.720335">
        <ele>1041.494</ele>
        <time>2020-09-06T17:16:40Z</time>
      </trkpt>
      <trkpt lat="42.804747" lon="-.720284">
        <ele>1041.739</ele>
        <time>2020-09-06T17:16:46Z</time>
      </trkpt>
      <trkpt lat="42.804775" lon="-.720236">
        <ele>1041.967</ele>
        <time>2020-09-06T17:16:52Z</time>
      </trkpt>
      <trkpt lat="42.804815" lon="-.720203">
        <ele>1042.326</ele>
        <time>2020-09-06T17:16:59Z</time>
      </trkpt>
      <trkpt lat="42.804859" lon="-.720184">
        <ele>1043.059</ele>
        <time>2020-09-06T17:17:07Z</time>
      </trkpt>
      <trkpt lat="42.804898" lon="-.720147">
        <ele>1044.112</ele>
        <time>2020-09-06T17:17:13Z</time>
      </trkpt>
      <trkpt lat="42.804913" lon="-.720089">
        <ele>1045.511</ele>
        <time>2020-09-06T17:17:18Z</time>
      </trkpt>
      <trkpt lat="42.804913" lon="-.720089">
        <ele>1045.521</ele>
        <time>2020-09-06T17:17:18Z</time>
      </trkpt>
      <trkpt lat="42.804935" lon="-.720028">
        <ele>1046.303</ele>
        <time>2020-09-06T17:17:23Z</time>
      </trkpt>
      <trkpt lat="42.804968" lon="-.719982">
        <ele>1047.508</ele>
        <time>2020-09-06T17:17:29Z</time>
      </trkpt>
      <trkpt lat="42.804968" lon="-.719982">
        <ele>1047.576</ele>
        <time>2020-09-06T17:17:29Z</time>
      </trkpt>
      <trkpt lat="42.805003" lon="-.71994">
        <ele>1048.217</ele>
        <time>2020-09-06T17:17:35Z</time>
      </trkpt>
      <trkpt lat="42.805051" lon="-.719917">
        <ele>1048.893</ele>
        <time>2020-09-06T17:17:40Z</time>
      </trkpt>
      <trkpt lat="42.805097" lon="-.719909">
        <ele>1049.518</ele>
        <time>2020-09-06T17:17:49Z</time>
      </trkpt>
      <trkpt lat="42.805133" lon="-.719868">
        <ele>1050.236</ele>
        <time>2020-09-06T17:17:57Z</time>
      </trkpt>
      <trkpt lat="42.805174" lon="-.719839">
        <ele>1051.165</ele>
        <time>2020-09-06T17:18:05Z</time>
      </trkpt>
      <trkpt lat="42.805206" lon="-.719792">
        <ele>1052.118</ele>
        <time>2020-09-06T17:18:13Z</time>
      </trkpt>
      <trkpt lat="42.805244" lon="-.719747">
        <ele>1052.921</ele>
        <time>2020-09-06T17:18:19Z</time>
      </trkpt>
      <trkpt lat="42.805282" lon="-.719708">
        <ele>1053.729</ele>
        <time>2020-09-06T17:18:25Z</time>
      </trkpt>
      <trkpt lat="42.805322" lon="-.719671">
        <ele>1054.400</ele>
        <time>2020-09-06T17:18:32Z</time>
      </trkpt>
      <trkpt lat="42.805361" lon="-.719628">
        <ele>1055.220</ele>
        <time>2020-09-06T17:18:38Z</time>
      </trkpt>
      <trkpt lat="42.80539" lon="-.719581">
        <ele>1056.108</ele>
        <time>2020-09-06T17:18:45Z</time>
      </trkpt>
      <trkpt lat="42.805425" lon="-.719537">
        <ele>1057.017</ele>
        <time>2020-09-06T17:18:53Z</time>
      </trkpt>
      <trkpt lat="42.805466" lon="-.719506">
        <ele>1058.058</ele>
        <time>2020-09-06T17:19:08Z</time>
      </trkpt>
      <trkpt lat="42.805508" lon="-.719463">
        <ele>1058.914</ele>
        <time>2020-09-06T17:19:13Z</time>
      </trkpt>
      <trkpt lat="42.805546" lon="-.719426">
        <ele>1059.769</ele>
        <time>2020-09-06T17:19:19Z</time>
      </trkpt>
      <trkpt lat="42.805582" lon="-.719382">
        <ele>1060.667</ele>
        <time>2020-09-06T17:19:25Z</time>
      </trkpt>
      <trkpt lat="42.805612" lon="-.719329">
        <ele>1061.696</ele>
        <time>2020-09-06T17:19:33Z</time>
      </trkpt>
      <trkpt lat="42.805644" lon="-.71928">
        <ele>1062.729</ele>
        <time>2020-09-06T17:19:38Z</time>
      </trkpt>
      <trkpt lat="42.805673" lon="-.719225">
        <ele>1064.022</ele>
        <time>2020-09-06T17:19:52Z</time>
      </trkpt>
      <trkpt lat="42.805694" lon="-.719169">
        <ele>1064.994</ele>
        <time>2020-09-06T17:19:58Z</time>
      </trkpt>
      <trkpt lat="42.805722" lon="-.719117">
        <ele>1065.557</ele>
        <time>2020-09-06T17:20:03Z</time>
      </trkpt>
      <trkpt lat="42.805742" lon="-.71906">
        <ele>1066.022</ele>
        <time>2020-09-06T17:20:09Z</time>
      </trkpt>
      <trkpt lat="42.805764" lon="-.719004">
        <ele>1066.708</ele>
        <time>2020-09-06T17:20:19Z</time>
      </trkpt>
      <trkpt lat="42.805775" lon="-.718944">
        <ele>1067.714</ele>
        <time>2020-09-06T17:20:28Z</time>
      </trkpt>
      <trkpt lat="42.805796" lon="-.718888">
        <ele>1068.795</ele>
        <time>2020-09-06T17:20:35Z</time>
      </trkpt>
      <trkpt lat="42.805812" lon="-.718826">
        <ele>1069.911</ele>
        <time>2020-09-06T17:20:43Z</time>
      </trkpt>
      <trkpt lat="42.805812" lon="-.718757">
        <ele>1070.996</ele>
        <time>2020-09-06T17:20:49Z</time>
      </trkpt>
      <trkpt lat="42.805805" lon="-.718696">
        <ele>1072.084</ele>
        <time>2020-09-06T17:20:55Z</time>
      </trkpt>
      <trkpt lat="42.805796" lon="-.718629">
        <ele>1073.273</ele>
        <time>2020-09-06T17:21:02Z</time>
      </trkpt>
      <trkpt lat="42.805833" lon="-.718588">
        <ele>1074.926</ele>
        <time>2020-09-06T17:21:13Z</time>
      </trkpt>
      <trkpt lat="42.805861" lon="-.718534">
        <ele>1076.299</ele>
        <time>2020-09-06T17:21:18Z</time>
      </trkpt>
      <trkpt lat="42.805873" lon="-.718472">
        <ele>1077.089</ele>
        <time>2020-09-06T17:21:23Z</time>
      </trkpt>
      <trkpt lat="42.805893" lon="-.718407">
        <ele>1077.606</ele>
        <time>2020-09-06T17:21:27Z</time>
      </trkpt>
      <trkpt lat="42.805921" lon="-.718355">
        <ele>1078.126</ele>
        <time>2020-09-06T17:21:33Z</time>
      </trkpt>
      <trkpt lat="42.805944" lon="-.71829">
        <ele>1078.708</ele>
        <time>2020-09-06T17:21:39Z</time>
      </trkpt>
      <trkpt lat="42.80593" lon="-.718194">
        <ele>1082.753</ele>
        <time>2020-09-06T17:22:51Z</time>
      </trkpt>
      <trkpt lat="42.805931" lon="-.718117">
        <ele>1086.794</ele>
        <time>2020-09-06T17:23:00Z</time>
      </trkpt>
      <trkpt lat="42.805941" lon="-.718053">
        <ele>1089.570</ele>
        <time>2020-09-06T17:23:04Z</time>
      </trkpt>
      <trkpt lat="42.805961" lon="-.717988">
        <ele>1092.645</ele>
        <time>2020-09-06T17:23:09Z</time>
      </trkpt>
      <trkpt lat="42.805961" lon="-.717988">
        <ele>1092.653</ele>
        <time>2020-09-06T17:23:09Z</time>
      </trkpt>
      <trkpt lat="42.805988" lon="-.717936">
        <ele>1093.692</ele>
        <time>2020-09-06T17:23:14Z</time>
      </trkpt>
      <trkpt lat="42.806027" lon="-.717894">
        <ele>1094.555</ele>
        <time>2020-09-06T17:23:19Z</time>
      </trkpt>
      <trkpt lat="42.806066" lon="-.717851">
        <ele>1095.398</ele>
        <time>2020-09-06T17:23:24Z</time>
      </trkpt>
      <trkpt lat="42.8061" lon="-.717804">
        <ele>1096.073</ele>
        <time>2020-09-06T17:23:28Z</time>
      </trkpt>
      <trkpt lat="42.806134" lon="-.717753">
        <ele>1096.685</ele>
        <time>2020-09-06T17:23:32Z</time>
      </trkpt>
      <trkpt lat="42.806167" lon="-.717706">
        <ele>1097.213</ele>
        <time>2020-09-06T17:23:36Z</time>
      </trkpt>
      <trkpt lat="42.806194" lon="-.71765">
        <ele>1097.808</ele>
        <time>2020-09-06T17:23:40Z</time>
      </trkpt>
      <trkpt lat="42.806215" lon="-.717593">
        <ele>1098.422</ele>
        <time>2020-09-06T17:23:44Z</time>
      </trkpt>
      <trkpt lat="42.806241" lon="-.717539">
        <ele>1099.083</ele>
        <time>2020-09-06T17:23:50Z</time>
      </trkpt>
      <trkpt lat="42.806274" lon="-.717489">
        <ele>1099.659</ele>
        <time>2020-09-06T17:23:54Z</time>
      </trkpt>
      <trkpt lat="42.806297" lon="-.717436">
        <ele>1100.224</ele>
        <time>2020-09-06T17:23:59Z</time>
      </trkpt>
      <trkpt lat="42.806332" lon="-.717391">
        <ele>1100.682</ele>
        <time>2020-09-06T17:24:04Z</time>
      </trkpt>
      <trkpt lat="42.806372" lon="-.71736">
        <ele>1100.951</ele>
        <time>2020-09-06T17:24:09Z</time>
      </trkpt>
      <trkpt lat="42.806413" lon="-.717329">
        <ele>1101.244</ele>
        <time>2020-09-06T17:24:14Z</time>
      </trkpt>
      <trkpt lat="42.806457" lon="-.717311">
        <ele>1101.627</ele>
        <time>2020-09-06T17:24:22Z</time>
      </trkpt>
      <trkpt lat="42.806506" lon="-.717299">
        <ele>1102.271</ele>
        <time>2020-09-06T17:24:28Z</time>
      </trkpt>
      <trkpt lat="42.806556" lon="-.717282">
        <ele>1102.641</ele>
        <time>2020-09-06T17:24:33Z</time>
      </trkpt>
      <trkpt lat="42.806601" lon="-.717273">
        <ele>1103.015</ele>
        <time>2020-09-06T17:24:38Z</time>
      </trkpt>
      <trkpt lat="42.806647" lon="-.717261">
        <ele>1103.308</ele>
        <time>2020-09-06T17:24:42Z</time>
      </trkpt>
      <trkpt lat="42.806691" lon="-.717239">
        <ele>1103.942</ele>
        <time>2020-09-06T17:24:47Z</time>
      </trkpt>
      <trkpt lat="42.806691" lon="-.717239">
        <ele>1103.943</ele>
        <time>2020-09-06T17:24:47Z</time>
      </trkpt>
      <trkpt lat="42.806734" lon="-.717215">
        <ele>1104.199</ele>
        <time>2020-09-06T17:24:51Z</time>
      </trkpt>
      <trkpt lat="42.806776" lon="-.717192">
        <ele>1104.344</ele>
        <time>2020-09-06T17:24:55Z</time>
      </trkpt>
      <trkpt lat="42.806819" lon="-.717166">
        <ele>1104.582</ele>
        <time>2020-09-06T17:25:00Z</time>
      </trkpt>
      <trkpt lat="42.806862" lon="-.717146">
        <ele>1104.741</ele>
        <time>2020-09-06T17:25:04Z</time>
      </trkpt>
      <trkpt lat="42.80691" lon="-.717115">
        <ele>1104.924</ele>
        <time>2020-09-06T17:25:09Z</time>
      </trkpt>
      <trkpt lat="42.806948" lon="-.717079">
        <ele>1105.177</ele>
        <time>2020-09-06T17:25:14Z</time>
      </trkpt>
      <trkpt lat="42.806983" lon="-.717041">
        <ele>1105.442</ele>
        <time>2020-09-06T17:25:20Z</time>
      </trkpt>
      <trkpt lat="42.807016" lon="-.716995">
        <ele>1105.822</ele>
        <time>2020-09-06T17:25:24Z</time>
      </trkpt>
      <trkpt lat="42.807052" lon="-.716953">
        <ele>1106.114</ele>
        <time>2020-09-06T17:25:28Z</time>
      </trkpt>
      <trkpt lat="42.807097" lon="-.716928">
        <ele>1106.308</ele>
        <time>2020-09-06T17:25:32Z</time>
      </trkpt>
      <trkpt lat="42.807146" lon="-.716893">
        <ele>1107.059</ele>
        <time>2020-09-06T17:25:37Z</time>
      </trkpt>
      <trkpt lat="42.807188" lon="-.716866">
        <ele>1107.990</ele>
        <time>2020-09-06T17:25:42Z</time>
      </trkpt>
      <trkpt lat="42.807223" lon="-.716825">
        <ele>1108.536</ele>
        <time>2020-09-06T17:25:47Z</time>
      </trkpt>
      <trkpt lat="42.807257" lon="-.716785">
        <ele>1109.311</ele>
        <time>2020-09-06T17:25:52Z</time>
      </trkpt>
      <trkpt lat="42.807283" lon="-.716735">
        <ele>1109.919</ele>
        <time>2020-09-06T17:25:58Z</time>
      </trkpt>
      <trkpt lat="42.807291" lon="-.716672">
        <ele>1111.228</ele>
        <time>2020-09-06T17:26:02Z</time>
      </trkpt>
      <trkpt lat="42.807305" lon="-.716611">
        <ele>1112.791</ele>
        <time>2020-09-06T17:26:05Z</time>
      </trkpt>
      <trkpt lat="42.807317" lon="-.716548">
        <ele>1113.734</ele>
        <time>2020-09-06T17:26:09Z</time>
      </trkpt>
      <trkpt lat="42.807343" lon="-.716498">
        <ele>1114.482</ele>
        <time>2020-09-06T17:26:13Z</time>
      </trkpt>
      <trkpt lat="42.807373" lon="-.716448">
        <ele>1115.043</ele>
        <time>2020-09-06T17:26:19Z</time>
      </trkpt>
      <trkpt lat="42.807407" lon="-.716398">
        <ele>1115.517</ele>
        <time>2020-09-06T17:26:24Z</time>
      </trkpt>
      <trkpt lat="42.807439" lon="-.716354">
        <ele>1116.008</ele>
        <time>2020-09-06T17:26:30Z</time>
      </trkpt>
      <trkpt lat="42.807476" lon="-.716298">
        <ele>1116.353</ele>
        <time>2020-09-06T17:26:34Z</time>
      </trkpt>
      <trkpt lat="42.80751" lon="-.716252">
        <ele>1116.534</ele>
        <time>2020-09-06T17:26:38Z</time>
      </trkpt>
      <trkpt lat="42.807551" lon="-.716209">
        <ele>1116.670</ele>
        <time>2020-09-06T17:26:43Z</time>
      </trkpt>
      <trkpt lat="42.807586" lon="-.716169">
        <ele>1116.955</ele>
        <time>2020-09-06T17:26:48Z</time>
      </trkpt>
      <trkpt lat="42.807617" lon="-.716113">
        <ele>1117.543</ele>
        <time>2020-09-06T17:26:53Z</time>
      </trkpt>
      <trkpt lat="42.807648" lon="-.716062">
        <ele>1119.042</ele>
        <time>2020-09-06T17:26:59Z</time>
      </trkpt>
      <trkpt lat="42.807677" lon="-.71601">
        <ele>1120.355</ele>
        <time>2020-09-06T17:27:05Z</time>
      </trkpt>
      <trkpt lat="42.807713" lon="-.71597">
        <ele>1121.278</ele>
        <time>2020-09-06T17:27:13Z</time>
      </trkpt>
      <trkpt lat="42.807755" lon="-.715942">
        <ele>1121.826</ele>
        <time>2020-09-06T17:27:22Z</time>
      </trkpt>
      <trkpt lat="42.8078" lon="-.71592">
        <ele>1122.147</ele>
        <time>2020-09-06T17:27:28Z</time>
      </trkpt>
      <trkpt lat="42.807841" lon="-.715879">
        <ele>1122.311</ele>
        <time>2020-09-06T17:27:33Z</time>
      </trkpt>
      <trkpt lat="42.807882" lon="-.715847">
        <ele>1122.408</ele>
        <time>2020-09-06T17:27:38Z</time>
      </trkpt>
      <trkpt lat="42.807917" lon="-.715806">
        <ele>1122.517</ele>
        <time>2020-09-06T17:27:43Z</time>
      </trkpt>
      <trkpt lat="42.807951" lon="-.71575">
        <ele>1122.738</ele>
        <time>2020-09-06T17:27:48Z</time>
      </trkpt>
      <trkpt lat="42.807979" lon="-.7157">
        <ele>1122.874</ele>
        <time>2020-09-06T17:27:53Z</time>
      </trkpt>
      <trkpt lat="42.80801" lon="-.715652">
        <ele>1123.099</ele>
        <time>2020-09-06T17:27:57Z</time>
      </trkpt>
      <trkpt lat="42.808031" lon="-.71559">
        <ele>1123.137</ele>
        <time>2020-09-06T17:28:03Z</time>
      </trkpt>
      <trkpt lat="42.808054" lon="-.715531">
        <ele>1123.396</ele>
        <time>2020-09-06T17:28:07Z</time>
      </trkpt>
      <trkpt lat="42.808072" lon="-.715463">
        <ele>1123.819</ele>
        <time>2020-09-06T17:28:12Z</time>
      </trkpt>
      <trkpt lat="42.808093" lon="-.7154">
        <ele>1124.252</ele>
        <time>2020-09-06T17:28:19Z</time>
      </trkpt>
      <trkpt lat="42.808113" lon="-.715337">
        <ele>1124.636</ele>
        <time>2020-09-06T17:28:26Z</time>
      </trkpt>
      <trkpt lat="42.808127" lon="-.715271">
        <ele>1124.917</ele>
        <time>2020-09-06T17:28:31Z</time>
      </trkpt>
      <trkpt lat="42.808139" lon="-.71521">
        <ele>1125.318</ele>
        <time>2020-09-06T17:28:35Z</time>
      </trkpt>
      <trkpt lat="42.808153" lon="-.715144">
        <ele>1125.808</ele>
        <time>2020-09-06T17:28:41Z</time>
      </trkpt>
      <trkpt lat="42.808168" lon="-.715081">
        <ele>1127.158</ele>
        <time>2020-09-06T17:28:47Z</time>
      </trkpt>
      <trkpt lat="42.808168" lon="-.715081">
        <ele>1127.149</ele>
        <time>2020-09-06T17:28:47Z</time>
      </trkpt>
      <trkpt lat="42.808187" lon="-.715023">
        <ele>1128.495</ele>
        <time>2020-09-06T17:28:52Z</time>
      </trkpt>
      <trkpt lat="42.808207" lon="-.714961">
        <ele>1129.860</ele>
        <time>2020-09-06T17:29:00Z</time>
      </trkpt>
      <trkpt lat="42.808226" lon="-.714905">
        <ele>1131.448</ele>
        <time>2020-09-06T17:29:08Z</time>
      </trkpt>
      <trkpt lat="42.808253" lon="-.714834">
        <ele>1134.087</ele>
        <time>2020-09-06T17:29:36Z</time>
      </trkpt>
      <trkpt lat="42.80827" lon="-.714774">
        <ele>1135.750</ele>
        <time>2020-09-06T17:29:40Z</time>
      </trkpt>
      <trkpt lat="42.808291" lon="-.714709">
        <ele>1136.953</ele>
        <time>2020-09-06T17:29:43Z</time>
      </trkpt>
      <trkpt lat="42.808307" lon="-.714644">
        <ele>1137.966</ele>
        <time>2020-09-06T17:29:47Z</time>
      </trkpt>
      <trkpt lat="42.808324" lon="-.71458">
        <ele>1140.229</ele>
        <time>2020-09-06T17:30:07Z</time>
      </trkpt>
      <trkpt lat="42.808346" lon="-.714523">
        <ele>1142.321</ele>
        <time>2020-09-06T17:30:13Z</time>
      </trkpt>
      <trkpt lat="42.808382" lon="-.714477">
        <ele>1146.308</ele>
        <time>2020-09-06T17:30:55Z</time>
      </trkpt>
      <trkpt lat="42.808409" lon="-.714425">
        <ele>1149.591</ele>
        <time>2020-09-06T17:31:01Z</time>
      </trkpt>
      <trkpt lat="42.80845" lon="-.714395">
        <ele>1151.272</ele>
        <time>2020-09-06T17:31:25Z</time>
      </trkpt>
      <trkpt lat="42.808495" lon="-.714414">
        <ele>1152.688</ele>
        <time>2020-09-06T17:31:30Z</time>
      </trkpt>
      <trkpt lat="42.80854" lon="-.714422">
        <ele>1153.693</ele>
        <time>2020-09-06T17:31:37Z</time>
      </trkpt>
      <trkpt lat="42.808587" lon="-.71441">
        <ele>1154.341</ele>
        <time>2020-09-06T17:31:43Z</time>
      </trkpt>
      <trkpt lat="42.808636" lon="-.714381">
        <ele>1154.940</ele>
        <time>2020-09-06T17:31:48Z</time>
      </trkpt>
      <trkpt lat="42.808676" lon="-.714351">
        <ele>1155.523</ele>
        <time>2020-09-06T17:31:54Z</time>
      </trkpt>
      <trkpt lat="42.808722" lon="-.71433">
        <ele>1156.156</ele>
        <time>2020-09-06T17:32:01Z</time>
      </trkpt>
      <trkpt lat="42.808768" lon="-.71432">
        <ele>1156.521</ele>
        <time>2020-09-06T17:32:06Z</time>
      </trkpt>
      <trkpt lat="42.80881" lon="-.714289">
        <ele>1157.041</ele>
        <time>2020-09-06T17:32:12Z</time>
      </trkpt>
      <trkpt lat="42.80881" lon="-.714289">
        <ele>1157.005</ele>
        <time>2020-09-06T17:32:12Z</time>
      </trkpt>
      <trkpt lat="42.808857" lon="-.714271">
        <ele>1157.108</ele>
        <time>2020-09-06T17:32:19Z</time>
      </trkpt>
      <trkpt lat="42.808903" lon="-.714229">
        <ele>1157.387</ele>
        <time>2020-09-06T17:32:25Z</time>
      </trkpt>
      <trkpt lat="42.808952" lon="-.71422">
        <ele>1157.848</ele>
        <time>2020-09-06T17:32:39Z</time>
      </trkpt>
      <trkpt lat="42.808992" lon="-.714192">
        <ele>1158.374</ele>
        <time>2020-09-06T17:32:44Z</time>
      </trkpt>
      <trkpt lat="42.809035" lon="-.714169">
        <ele>1158.779</ele>
        <time>2020-09-06T17:32:51Z</time>
      </trkpt>
      <trkpt lat="42.809079" lon="-.71415">
        <ele>1158.927</ele>
        <time>2020-09-06T17:32:57Z</time>
      </trkpt>
      <trkpt lat="42.809124" lon="-.714142">
        <ele>1159.286</ele>
        <time>2020-09-06T17:33:04Z</time>
      </trkpt>
      <trkpt lat="42.809165" lon="-.714101">
        <ele>1159.549</ele>
        <time>2020-09-06T17:33:10Z</time>
      </trkpt>
      <trkpt lat="42.809198" lon="-.714052">
        <ele>1159.832</ele>
        <time>2020-09-06T17:33:15Z</time>
      </trkpt>
      <trkpt lat="42.809241" lon="-.714022">
        <ele>1160.186</ele>
        <time>2020-09-06T17:33:21Z</time>
      </trkpt>
      <trkpt lat="42.809288" lon="-.71403">
        <ele>1160.360</ele>
        <time>2020-09-06T17:33:27Z</time>
      </trkpt>
      <trkpt lat="42.809336" lon="-.714009">
        <ele>1160.626</ele>
        <time>2020-09-06T17:33:34Z</time>
      </trkpt>
      <trkpt lat="42.809382" lon="-.714004">
        <ele>1160.908</ele>
        <time>2020-09-06T17:33:41Z</time>
      </trkpt>
      <trkpt lat="42.809435" lon="-.713999">
        <ele>1161.153</ele>
        <time>2020-09-06T17:33:47Z</time>
      </trkpt>
      <trkpt lat="42.809479" lon="-.713969">
        <ele>1161.244</ele>
        <time>2020-09-06T17:33:51Z</time>
      </trkpt>
      <trkpt lat="42.809521" lon="-.713942">
        <ele>1161.250</ele>
        <time>2020-09-06T17:33:55Z</time>
      </trkpt>
      <trkpt lat="42.809567" lon="-.713939">
        <ele>1161.115</ele>
        <time>2020-09-06T17:33:59Z</time>
      </trkpt>
      <trkpt lat="42.809617" lon="-.713923">
        <ele>1161.033</ele>
        <time>2020-09-06T17:34:03Z</time>
      </trkpt>
      <trkpt lat="42.809664" lon="-.713916">
        <ele>1160.932</ele>
        <time>2020-09-06T17:34:09Z</time>
      </trkpt>
      <trkpt lat="42.809706" lon="-.713891">
        <ele>1160.765</ele>
        <time>2020-09-06T17:34:25Z</time>
      </trkpt>
      <trkpt lat="42.809745" lon="-.713858">
        <ele>1160.318</ele>
        <time>2020-09-06T17:34:52Z</time>
      </trkpt>
      <trkpt lat="42.809782" lon="-.713908">
        <ele>1159.669</ele>
        <time>2020-09-06T17:35:08Z</time>
      </trkpt>
      <trkpt lat="42.809782" lon="-.713908">
        <ele>1159.604</ele>
        <time>2020-09-06T17:35:08Z</time>
      </trkpt>
      <trkpt lat="42.809829" lon="-.713911">
        <ele>1158.624</ele>
        <time>2020-09-06T17:35:40Z</time>
      </trkpt>
      <trkpt lat="42.809878" lon="-.713905">
        <ele>1157.808</ele>
        <time>2020-09-06T17:35:45Z</time>
      </trkpt>
      <trkpt lat="42.809925" lon="-.713906">
        <ele>1157.191</ele>
        <time>2020-09-06T17:35:51Z</time>
      </trkpt>
      <trkpt lat="42.809971" lon="-.713878">
        <ele>1156.612</ele>
        <time>2020-09-06T17:35:55Z</time>
      </trkpt>
      <trkpt lat="42.810007" lon="-.713841">
        <ele>1156.268</ele>
        <time>2020-09-06T17:36:00Z</time>
      </trkpt>
      <trkpt lat="42.810061" lon="-.713815">
        <ele>1155.513</ele>
        <time>2020-09-06T17:36:06Z</time>
      </trkpt>
      <trkpt lat="42.810113" lon="-.713813">
        <ele>1154.391</ele>
        <time>2020-09-06T17:36:14Z</time>
      </trkpt>
      <trkpt lat="42.810113" lon="-.713813">
        <ele>1154.310</ele>
        <time>2020-09-06T17:36:14Z</time>
      </trkpt>
      <trkpt lat="42.810158" lon="-.713827">
        <ele>1153.793</ele>
        <time>2020-09-06T17:36:18Z</time>
      </trkpt>
      <trkpt lat="42.810205" lon="-.71381">
        <ele>1153.086</ele>
        <time>2020-09-06T17:36:23Z</time>
      </trkpt>
      <trkpt lat="42.810248" lon="-.71383">
        <ele>1152.278</ele>
        <time>2020-09-06T17:36:27Z</time>
      </trkpt>
      <trkpt lat="42.810299" lon="-.713844">
        <ele>1151.133</ele>
        <time>2020-09-06T17:36:34Z</time>
      </trkpt>
      <trkpt lat="42.810344" lon="-.713876">
        <ele>1149.726</ele>
        <time>2020-09-06T17:36:41Z</time>
      </trkpt>
      <trkpt lat="42.810388" lon="-.713894">
        <ele>1148.308</ele>
        <time>2020-09-06T17:36:49Z</time>
      </trkpt>
      <trkpt lat="42.810434" lon="-.713909">
        <ele>1146.972</ele>
        <time>2020-09-06T17:36:56Z</time>
      </trkpt>
      <trkpt lat="42.810481" lon="-.713916">
        <ele>1145.663</ele>
        <time>2020-09-06T17:37:01Z</time>
      </trkpt>
      <trkpt lat="42.810533" lon="-.713913">
        <ele>1144.599</ele>
        <time>2020-09-06T17:37:07Z</time>
      </trkpt>
      <trkpt lat="42.810578" lon="-.713884">
        <ele>1143.694</ele>
        <time>2020-09-06T17:37:12Z</time>
      </trkpt>
      <trkpt lat="42.810618" lon="-.713855">
        <ele>1142.462</ele>
        <time>2020-09-06T17:37:30Z</time>
      </trkpt>
      <trkpt lat="42.810664" lon="-.713845">
        <ele>1141.281</ele>
        <time>2020-09-06T17:37:46Z</time>
      </trkpt>
      <trkpt lat="42.810711" lon="-.713831">
        <ele>1140.284</ele>
        <time>2020-09-06T17:37:54Z</time>
      </trkpt>
      <trkpt lat="42.810763" lon="-.713824">
        <ele>1139.347</ele>
        <time>2020-09-06T17:38:01Z</time>
      </trkpt>
      <trkpt lat="42.810816" lon="-.713809">
        <ele>1138.556</ele>
        <time>2020-09-06T17:38:06Z</time>
      </trkpt>
      <trkpt lat="42.810864" lon="-.713798">
        <ele>1137.959</ele>
        <time>2020-09-06T17:38:10Z</time>
      </trkpt>
      <trkpt lat="42.810906" lon="-.713776">
        <ele>1137.414</ele>
        <time>2020-09-06T17:38:17Z</time>
      </trkpt>
      <trkpt lat="42.810954" lon="-.713778">
        <ele>1136.808</ele>
        <time>2020-09-06T17:38:23Z</time>
      </trkpt>
      <trkpt lat="42.810995" lon="-.713803">
        <ele>1136.110</ele>
        <time>2020-09-06T17:38:31Z</time>
      </trkpt>
      <trkpt lat="42.811042" lon="-.713814">
        <ele>1135.451</ele>
        <time>2020-09-06T17:38:39Z</time>
      </trkpt>
      <trkpt lat="42.81109" lon="-.713812">
        <ele>1134.597</ele>
        <time>2020-09-06T17:38:49Z</time>
      </trkpt>
      <trkpt lat="42.811136" lon="-.713782">
        <ele>1133.642</ele>
        <time>2020-09-06T17:38:54Z</time>
      </trkpt>
      <trkpt lat="42.811178" lon="-.713751">
        <ele>1132.690</ele>
        <time>2020-09-06T17:38:59Z</time>
      </trkpt>
      <trkpt lat="42.811231" lon="-.713757">
        <ele>1131.899</ele>
        <time>2020-09-06T17:39:05Z</time>
      </trkpt>
      <trkpt lat="42.811277" lon="-.713722">
        <ele>1131.132</ele>
        <time>2020-09-06T17:39:12Z</time>
      </trkpt>
      <trkpt lat="42.811317" lon="-.713678">
        <ele>1130.545</ele>
        <time>2020-09-06T17:39:17Z</time>
      </trkpt>
      <trkpt lat="42.811356" lon="-.713642">
        <ele>1129.787</ele>
        <time>2020-09-06T17:39:24Z</time>
      </trkpt>
      <trkpt lat="42.811391" lon="-.713597">
        <ele>1128.942</ele>
        <time>2020-09-06T17:39:32Z</time>
      </trkpt>
      <trkpt lat="42.811433" lon="-.713559">
        <ele>1128.026</ele>
        <time>2020-09-06T17:39:39Z</time>
      </trkpt>
      <trkpt lat="42.811473" lon="-.713527">
        <ele>1126.908</ele>
        <time>2020-09-06T17:39:46Z</time>
      </trkpt>
      <trkpt lat="42.811519" lon="-.713513">
        <ele>1125.993</ele>
        <time>2020-09-06T17:39:54Z</time>
      </trkpt>
      <trkpt lat="42.811562" lon="-.713487">
        <ele>1125.024</ele>
        <time>2020-09-06T17:40:01Z</time>
      </trkpt>
      <trkpt lat="42.811602" lon="-.71346">
        <ele>1123.970</ele>
        <time>2020-09-06T17:40:06Z</time>
      </trkpt>
      <trkpt lat="42.811653" lon="-.713469">
        <ele>1122.585</ele>
        <time>2020-09-06T17:40:12Z</time>
      </trkpt>
      <trkpt lat="42.8117" lon="-.713472">
        <ele>1121.383</ele>
        <time>2020-09-06T17:40:18Z</time>
      </trkpt>
      <trkpt lat="42.811747" lon="-.713472">
        <ele>1120.292</ele>
        <time>2020-09-06T17:40:23Z</time>
      </trkpt>
      <trkpt lat="42.811787" lon="-.713444">
        <ele>1119.225</ele>
        <time>2020-09-06T17:40:28Z</time>
      </trkpt>
      <trkpt lat="42.81183" lon="-.713421">
        <ele>1118.488</ele>
        <time>2020-09-06T17:40:33Z</time>
      </trkpt>
      <trkpt lat="42.811877" lon="-.713392">
        <ele>1117.728</ele>
        <time>2020-09-06T17:40:38Z</time>
      </trkpt>
      <trkpt lat="42.811921" lon="-.713376">
        <ele>1117.189</ele>
        <time>2020-09-06T17:40:43Z</time>
      </trkpt>
      <trkpt lat="42.811966" lon="-.71337">
        <ele>1116.617</ele>
        <time>2020-09-06T17:40:47Z</time>
      </trkpt>
      <trkpt lat="42.812011" lon="-.713402">
        <ele>1115.808</ele>
        <time>2020-09-06T17:40:55Z</time>
      </trkpt>
      <trkpt lat="42.812056" lon="-.713392">
        <ele>1114.917</ele>
        <time>2020-09-06T17:41:03Z</time>
      </trkpt>
      <trkpt lat="42.812101" lon="-.713403">
        <ele>1114.028</ele>
        <time>2020-09-06T17:41:16Z</time>
      </trkpt>
      <trkpt lat="42.812146" lon="-.713423">
        <ele>1112.934</ele>
        <time>2020-09-06T17:41:28Z</time>
      </trkpt>
      <trkpt lat="42.812193" lon="-.713398">
        <ele>1112.169</ele>
        <time>2020-09-06T17:41:34Z</time>
      </trkpt>
      <trkpt lat="42.812234" lon="-.713362">
        <ele>1111.597</ele>
        <time>2020-09-06T17:41:38Z</time>
      </trkpt>
      <trkpt lat="42.812276" lon="-.713335">
        <ele>1111.026</ele>
        <time>2020-09-06T17:41:43Z</time>
      </trkpt>
      <trkpt lat="42.812323" lon="-.713317">
        <ele>1110.539</ele>
        <time>2020-09-06T17:41:48Z</time>
      </trkpt>
      <trkpt lat="42.812366" lon="-.713298">
        <ele>1110.152</ele>
        <time>2020-09-06T17:41:56Z</time>
      </trkpt>
      <trkpt lat="42.812411" lon="-.71331">
        <ele>1109.746</ele>
        <time>2020-09-06T17:42:03Z</time>
      </trkpt>
      <trkpt lat="42.81245" lon="-.713273">
        <ele>1109.588</ele>
        <time>2020-09-06T17:42:08Z</time>
      </trkpt>
      <trkpt lat="42.812493" lon="-.713248">
        <ele>1109.216</ele>
        <time>2020-09-06T17:42:15Z</time>
      </trkpt>
      <trkpt lat="42.812528" lon="-.713209">
        <ele>1108.608</ele>
        <time>2020-09-06T17:42:21Z</time>
      </trkpt>
      <trkpt lat="42.812528" lon="-.713209">
        <ele>1108.689</ele>
        <time>2020-09-06T17:42:21Z</time>
      </trkpt>
      <trkpt lat="42.812548" lon="-.713153">
        <ele>1108.340</ele>
        <time>2020-09-06T17:42:27Z</time>
      </trkpt>
      <trkpt lat="42.812592" lon="-.713136">
        <ele>1108.076</ele>
        <time>2020-09-06T17:42:34Z</time>
      </trkpt>
      <trkpt lat="42.812633" lon="-.71311">
        <ele>1107.631</ele>
        <time>2020-09-06T17:42:40Z</time>
      </trkpt>
      <trkpt lat="42.81268" lon="-.713129">
        <ele>1107.129</ele>
        <time>2020-09-06T17:42:48Z</time>
      </trkpt>
      <trkpt lat="42.812727" lon="-.713116">
        <ele>1106.538</ele>
        <time>2020-09-06T17:42:55Z</time>
      </trkpt>
      <trkpt lat="42.812738" lon="-.713056">
        <ele>1105.981</ele>
        <time>2020-09-06T17:43:02Z</time>
      </trkpt>
      <trkpt lat="42.812773" lon="-.713009">
        <ele>1105.334</ele>
        <time>2020-09-06T17:43:09Z</time>
      </trkpt>
      <trkpt lat="42.812807" lon="-.712969">
        <ele>1104.695</ele>
        <time>2020-09-06T17:43:13Z</time>
      </trkpt>
      <trkpt lat="42.812835" lon="-.712913">
        <ele>1104.149</ele>
        <time>2020-09-06T17:43:19Z</time>
      </trkpt>
      <trkpt lat="42.812844" lon="-.712853">
        <ele>1103.623</ele>
        <time>2020-09-06T17:43:24Z</time>
      </trkpt>
      <trkpt lat="42.812873" lon="-.712797">
        <ele>1102.908</ele>
        <time>2020-09-06T17:43:32Z</time>
      </trkpt>
      <trkpt lat="42.812908" lon="-.712753">
        <ele>1102.274</ele>
        <time>2020-09-06T17:43:37Z</time>
      </trkpt>
      <trkpt lat="42.81295" lon="-.712711">
        <ele>1101.625</ele>
        <time>2020-09-06T17:43:46Z</time>
      </trkpt>
      <trkpt lat="42.812995" lon="-.712673">
        <ele>1101.131</ele>
        <time>2020-09-06T17:43:50Z</time>
      </trkpt>
      <trkpt lat="42.813018" lon="-.712619">
        <ele>1100.516</ele>
        <time>2020-09-06T17:43:55Z</time>
      </trkpt>
      <trkpt lat="42.813048" lon="-.712572">
        <ele>1099.944</ele>
        <time>2020-09-06T17:44:02Z</time>
      </trkpt>
      <trkpt lat="42.81308" lon="-.712529">
        <ele>1099.143</ele>
        <time>2020-09-06T17:44:07Z</time>
      </trkpt>
      <trkpt lat="42.813121" lon="-.712499">
        <ele>1098.366</ele>
        <time>2020-09-06T17:44:15Z</time>
      </trkpt>
      <trkpt lat="42.813154" lon="-.712456">
        <ele>1096.889</ele>
        <time>2020-09-06T17:44:22Z</time>
      </trkpt>
      <trkpt lat="42.813154" lon="-.712456">
        <ele>1096.834</ele>
        <time>2020-09-06T17:44:22Z</time>
      </trkpt>
      <trkpt lat="42.813175" lon="-.7124">
        <ele>1095.855</ele>
        <time>2020-09-06T17:44:30Z</time>
      </trkpt>
      <trkpt lat="42.81315" lon="-.712347">
        <ele>1094.810</ele>
        <time>2020-09-06T17:44:39Z</time>
      </trkpt>
      <trkpt lat="42.813107" lon="-.712315">
        <ele>1094.208</ele>
        <time>2020-09-06T17:44:47Z</time>
      </trkpt>
      <trkpt lat="42.813062" lon="-.712288">
        <ele>1093.858</ele>
        <time>2020-09-06T17:44:53Z</time>
      </trkpt>
      <trkpt lat="42.813013" lon="-.712276">
        <ele>1093.639</ele>
        <time>2020-09-06T17:44:59Z</time>
      </trkpt>
      <trkpt lat="42.812966" lon="-.712278">
        <ele>1093.475</ele>
        <time>2020-09-06T17:45:04Z</time>
      </trkpt>
      <trkpt lat="42.812918" lon="-.712269">
        <ele>1093.230</ele>
        <time>2020-09-06T17:45:10Z</time>
      </trkpt>
      <trkpt lat="42.812878" lon="-.712234">
        <ele>1093.058</ele>
        <time>2020-09-06T17:45:15Z</time>
      </trkpt>
      <trkpt lat="42.81284" lon="-.712196">
        <ele>1092.717</ele>
        <time>2020-09-06T17:45:21Z</time>
      </trkpt>
      <trkpt lat="42.812797" lon="-.712172">
        <ele>1092.420</ele>
        <time>2020-09-06T17:45:25Z</time>
      </trkpt>
      <trkpt lat="42.812755" lon="-.712149">
        <ele>1092.143</ele>
        <time>2020-09-06T17:45:29Z</time>
      </trkpt>
      <trkpt lat="42.812718" lon="-.712109">
        <ele>1091.861</ele>
        <time>2020-09-06T17:45:34Z</time>
      </trkpt>
      <trkpt lat="42.812683" lon="-.712061">
        <ele>1091.521</ele>
        <time>2020-09-06T17:45:39Z</time>
      </trkpt>
      <trkpt lat="42.812655" lon="-.712012">
        <ele>1091.313</ele>
        <time>2020-09-06T17:45:44Z</time>
      </trkpt>
      <trkpt lat="42.812627" lon="-.711959">
        <ele>1091.108</ele>
        <time>2020-09-06T17:45:49Z</time>
      </trkpt>
      <trkpt lat="42.812592" lon="-.711906">
        <ele>1090.831</ele>
        <time>2020-09-06T17:45:53Z</time>
      </trkpt>
      <trkpt lat="42.812554" lon="-.711865">
        <ele>1090.562</ele>
        <time>2020-09-06T17:45:57Z</time>
      </trkpt>
      <trkpt lat="42.81252" lon="-.711819">
        <ele>1090.318</ele>
        <time>2020-09-06T17:46:01Z</time>
      </trkpt>
      <trkpt lat="42.812507" lon="-.71176">
        <ele>1090.083</ele>
        <time>2020-09-06T17:46:06Z</time>
      </trkpt>
      <trkpt lat="42.81251" lon="-.711687">
        <ele>1089.231</ele>
        <time>2020-09-06T17:46:13Z</time>
      </trkpt>
      <trkpt lat="42.81251" lon="-.711687">
        <ele>1089.270</ele>
        <time>2020-09-06T17:46:13Z</time>
      </trkpt>
      <trkpt lat="42.812542" lon="-.71164">
        <ele>1088.623</ele>
        <time>2020-09-06T17:46:18Z</time>
      </trkpt>
      <trkpt lat="42.812589" lon="-.711646">
        <ele>1087.636</ele>
        <time>2020-09-06T17:46:21Z</time>
      </trkpt>
      <trkpt lat="42.812589" lon="-.711646">
        <ele>1087.633</ele>
        <time>2020-09-06T17:46:21Z</time>
      </trkpt>
      <trkpt lat="42.812637" lon="-.711649">
        <ele>1087.223</ele>
        <time>2020-09-06T17:46:24Z</time>
      </trkpt>
      <trkpt lat="42.812694" lon="-.711635">
        <ele>1086.815</ele>
        <time>2020-09-06T17:46:28Z</time>
      </trkpt>
      <trkpt lat="42.812745" lon="-.711611">
        <ele>1086.408</ele>
        <time>2020-09-06T17:46:32Z</time>
      </trkpt>
      <trkpt lat="42.812726" lon="-.711553">
        <ele>1085.588</ele>
        <time>2020-09-06T17:46:56Z</time>
      </trkpt>
      <trkpt lat="42.812692" lon="-.711511">
        <ele>1084.769</ele>
        <time>2020-09-06T17:47:25Z</time>
      </trkpt>
      <trkpt lat="42.812672" lon="-.711451">
        <ele>1084.275</ele>
        <time>2020-09-06T17:47:30Z</time>
      </trkpt>
      <trkpt lat="42.812669" lon="-.711388">
        <ele>1083.850</ele>
        <time>2020-09-06T17:47:33Z</time>
      </trkpt>
      <trkpt lat="42.81267" lon="-.711326">
        <ele>1083.018</ele>
        <time>2020-09-06T17:47:38Z</time>
      </trkpt>
      <trkpt lat="42.812682" lon="-.711263">
        <ele>1082.077</ele>
        <time>2020-09-06T17:47:42Z</time>
      </trkpt>
      <trkpt lat="42.812707" lon="-.711202">
        <ele>1080.960</ele>
        <time>2020-09-06T17:47:45Z</time>
      </trkpt>
      <trkpt lat="42.812751" lon="-.711184">
        <ele>1079.463</ele>
        <time>2020-09-06T17:47:49Z</time>
      </trkpt>
      <trkpt lat="42.812775" lon="-.711131">
        <ele>1077.887</ele>
        <time>2020-09-06T17:47:55Z</time>
      </trkpt>
      <trkpt lat="42.81282" lon="-.711138">
        <ele>1073.842</ele>
        <time>2020-09-06T17:51:02Z</time>
      </trkpt>
      <trkpt lat="42.812842" lon="-.711195">
        <ele>1069.826</ele>
        <time>2020-09-06T17:51:11Z</time>
      </trkpt>
      <trkpt lat="42.812822" lon="-.711251">
        <ele>1065.808</ele>
        <time>2020-09-06T17:51:19Z</time>
      </trkpt>
      <trkpt lat="42.812872" lon="-.711265">
        <ele>1061.863</ele>
        <time>2020-09-06T17:51:32Z</time>
      </trkpt>
      <trkpt lat="42.812916" lon="-.711244">
        <ele>1059.164</ele>
        <time>2020-09-06T17:51:37Z</time>
      </trkpt>
      <trkpt lat="42.812913" lon="-.711181">
        <ele>1058.150</ele>
        <time>2020-09-06T17:51:48Z</time>
      </trkpt>
      <trkpt lat="42.812959" lon="-.711188">
        <ele>1056.695</ele>
        <time>2020-09-06T17:52:22Z</time>
      </trkpt>
      <trkpt lat="42.813004" lon="-.711185">
        <ele>1056.643</ele>
        <time>2020-09-06T17:52:53Z</time>
      </trkpt>
      <trkpt lat="42.813037" lon="-.711133">
        <ele>1056.622</ele>
        <time>2020-09-06T17:52:57Z</time>
      </trkpt>
      <trkpt lat="42.81306" lon="-.711078">
        <ele>1056.745</ele>
        <time>2020-09-06T17:53:01Z</time>
      </trkpt>
      <trkpt lat="42.813044" lon="-.711018">
        <ele>1056.728</ele>
        <time>2020-09-06T17:53:07Z</time>
      </trkpt>
      <trkpt lat="42.813033" lon="-.710958">
        <ele>1056.773</ele>
        <time>2020-09-06T17:53:15Z</time>
      </trkpt>
      <trkpt lat="42.812995" lon="-.710909">
        <ele>1056.685</ele>
        <time>2020-09-06T17:53:21Z</time>
      </trkpt>
      <trkpt lat="42.81295" lon="-.710875">
        <ele>1056.513</ele>
        <time>2020-09-06T17:53:25Z</time>
      </trkpt>
      <trkpt lat="42.812906" lon="-.710854">
        <ele>1056.408</ele>
        <time>2020-09-06T17:53:31Z</time>
      </trkpt>
      <trkpt lat="42.81286" lon="-.710849">
        <ele>1056.382</ele>
        <time>2020-09-06T17:53:38Z</time>
      </trkpt>
      <trkpt lat="42.812803" lon="-.710824">
        <ele>1056.123</ele>
        <time>2020-09-06T17:53:42Z</time>
      </trkpt>
      <trkpt lat="42.81276" lon="-.710783">
        <ele>1055.939</ele>
        <time>2020-09-06T17:53:46Z</time>
      </trkpt>
      <trkpt lat="42.812717" lon="-.710763">
        <ele>1055.794</ele>
        <time>2020-09-06T17:53:49Z</time>
      </trkpt>
      <trkpt lat="42.812676" lon="-.710735">
        <ele>1055.552</ele>
        <time>2020-09-06T17:53:54Z</time>
      </trkpt>
      <trkpt lat="42.812638" lon="-.710702">
        <ele>1055.351</ele>
        <time>2020-09-06T17:53:58Z</time>
      </trkpt>
      <trkpt lat="42.812593" lon="-.710678">
        <ele>1055.254</ele>
        <time>2020-09-06T17:54:05Z</time>
      </trkpt>
      <trkpt lat="42.812546" lon="-.710657">
        <ele>1055.127</ele>
        <time>2020-09-06T17:54:11Z</time>
      </trkpt>
      <trkpt lat="42.812508" lon="-.710613">
        <ele>1055.062</ele>
        <time>2020-09-06T17:54:15Z</time>
      </trkpt>
      <trkpt lat="42.812508" lon="-.710551">
        <ele>1054.883</ele>
        <time>2020-09-06T17:54:24Z</time>
      </trkpt>
      <trkpt lat="42.812525" lon="-.710486">
        <ele>1054.611</ele>
        <time>2020-09-06T17:54:28Z</time>
      </trkpt>
      <trkpt lat="42.812551" lon="-.710433">
        <ele>1054.408</ele>
        <time>2020-09-06T17:54:31Z</time>
      </trkpt>
      <trkpt lat="42.812584" lon="-.710382">
        <ele>1054.341</ele>
        <time>2020-09-06T17:54:34Z</time>
      </trkpt>
      <trkpt lat="42.812618" lon="-.710336">
        <ele>1054.372</ele>
        <time>2020-09-06T17:54:37Z</time>
      </trkpt>
      <trkpt lat="42.812649" lon="-.710287">
        <ele>1054.568</ele>
        <time>2020-09-06T17:54:41Z</time>
      </trkpt>
      <trkpt lat="42.812686" lon="-.71024">
        <ele>1054.743</ele>
        <time>2020-09-06T17:54:45Z</time>
      </trkpt>
      <trkpt lat="42.812716" lon="-.710185">
        <ele>1055.191</ele>
        <time>2020-09-06T17:54:49Z</time>
      </trkpt>
      <trkpt lat="42.812743" lon="-.710128">
        <ele>1055.420</ele>
        <time>2020-09-06T17:54:53Z</time>
      </trkpt>
      <trkpt lat="42.812774" lon="-.710072">
        <ele>1055.653</ele>
        <time>2020-09-06T17:54:58Z</time>
      </trkpt>
      <trkpt lat="42.812807" lon="-.710022">
        <ele>1055.826</ele>
        <time>2020-09-06T17:55:03Z</time>
      </trkpt>
      <trkpt lat="42.812843" lon="-.709984">
        <ele>1056.044</ele>
        <time>2020-09-06T17:55:07Z</time>
      </trkpt>
      <trkpt lat="42.812862" lon="-.709928">
        <ele>1056.405</ele>
        <time>2020-09-06T17:55:20Z</time>
      </trkpt>
      <trkpt lat="42.812871" lon="-.709868">
        <ele>1056.715</ele>
        <time>2020-09-06T17:55:30Z</time>
      </trkpt>
      <trkpt lat="42.812874" lon="-.709804">
        <ele>1056.908</ele>
        <time>2020-09-06T17:55:42Z</time>
      </trkpt>
      <trkpt lat="42.81286" lon="-.709742">
        <ele>1056.979</ele>
        <time>2020-09-06T17:55:49Z</time>
      </trkpt>
      <trkpt lat="42.812845" lon="-.709678">
        <ele>1056.820</ele>
        <time>2020-09-06T17:55:55Z</time>
      </trkpt>
      <trkpt lat="42.812833" lon="-.709619">
        <ele>1056.986</ele>
        <time>2020-09-06T17:56:00Z</time>
      </trkpt>
      <trkpt lat="42.812838" lon="-.70955">
        <ele>1057.291</ele>
        <time>2020-09-06T17:56:05Z</time>
      </trkpt>
      <trkpt lat="42.812848" lon="-.709486">
        <ele>1057.799</ele>
        <time>2020-09-06T17:56:13Z</time>
      </trkpt>
      <trkpt lat="42.812823" lon="-.709428">
        <ele>1058.198</ele>
        <time>2020-09-06T17:56:19Z</time>
      </trkpt>
      <trkpt lat="42.812799" lon="-.709376">
        <ele>1058.441</ele>
        <time>2020-09-06T17:56:24Z</time>
      </trkpt>
      <trkpt lat="42.812801" lon="-.709306">
        <ele>1058.744</ele>
        <time>2020-09-06T17:56:30Z</time>
      </trkpt>
      <trkpt lat="42.812798" lon="-.709241">
        <ele>1058.955</ele>
        <time>2020-09-06T17:56:37Z</time>
      </trkpt>
      <trkpt lat="42.812781" lon="-.709184">
        <ele>1058.907</ele>
        <time>2020-09-06T17:56:42Z</time>
      </trkpt>
      <trkpt lat="42.812765" lon="-.709121">
        <ele>1059.317</ele>
        <time>2020-09-06T17:56:47Z</time>
      </trkpt>
      <trkpt lat="42.812747" lon="-.709064">
        <ele>1059.608</ele>
        <time>2020-09-06T17:56:56Z</time>
      </trkpt>
      <trkpt lat="42.812707" lon="-.709031">
        <ele>1059.910</ele>
        <time>2020-09-06T17:57:04Z</time>
      </trkpt>
      <trkpt lat="42.812686" lon="-.708971">
        <ele>1060.221</ele>
        <time>2020-09-06T17:57:14Z</time>
      </trkpt>
      <trkpt lat="42.812645" lon="-.708897">
        <ele>1061.337</ele>
        <time>2020-09-06T17:57:52Z</time>
      </trkpt>
      <trkpt lat="42.812645" lon="-.708973">
        <ele>1061.792</ele>
        <time>2020-09-06T17:58:10Z</time>
      </trkpt>
      <trkpt lat="42.812642" lon="-.70904">
        <ele>1061.790</ele>
        <time>2020-09-06T17:58:22Z</time>
      </trkpt>
      <trkpt lat="42.812587" lon="-.709018">
        <ele>1061.539</ele>
        <time>2020-09-06T17:58:33Z</time>
      </trkpt>
      <trkpt lat="42.812545" lon="-.708987">
        <ele>1061.332</ele>
        <time>2020-09-06T17:58:38Z</time>
      </trkpt>
      <trkpt lat="42.812605" lon="-.708967">
        <ele>1061.155</ele>
        <time>2020-09-06T17:58:49Z</time>
      </trkpt>
      <trkpt lat="42.812658" lon="-.708968">
        <ele>1061.062</ele>
        <time>2020-09-06T17:58:53Z</time>
      </trkpt>
      <trkpt lat="42.812717" lon="-.70897">
        <ele>1060.983</ele>
        <time>2020-09-06T17:58:58Z</time>
      </trkpt>
      <trkpt lat="42.812769" lon="-.708967">
        <ele>1060.911</ele>
        <time>2020-09-06T17:59:02Z</time>
      </trkpt>
      <trkpt lat="42.812815" lon="-.708952">
        <ele>1060.908</ele>
        <time>2020-09-06T17:59:05Z</time>
      </trkpt>
      <trkpt lat="42.812821" lon="-.708887">
        <ele>1060.981</ele>
        <time>2020-09-06T17:59:11Z</time>
      </trkpt>
      <trkpt lat="42.812855" lon="-.708837">
        <ele>1060.992</ele>
        <time>2020-09-06T17:59:24Z</time>
      </trkpt>
      <trkpt lat="42.812845" lon="-.708767">
        <ele>1060.888</ele>
        <time>2020-09-06T17:59:29Z</time>
      </trkpt>
      <trkpt lat="42.812848" lon="-.708698">
        <ele>1060.893</ele>
        <time>2020-09-06T17:59:37Z</time>
      </trkpt>
      <trkpt lat="42.812833" lon="-.708638">
        <ele>1060.721</ele>
        <time>2020-09-06T17:59:46Z</time>
      </trkpt>
      <trkpt lat="42.812791" lon="-.708667">
        <ele>1060.760</ele>
        <time>2020-09-06T17:59:51Z</time>
      </trkpt>
      <trkpt lat="42.81275" lon="-.708692">
        <ele>1060.653</ele>
        <time>2020-09-06T17:59:58Z</time>
      </trkpt>
      <trkpt lat="42.812745" lon="-.708627">
        <ele>1060.776</ele>
        <time>2020-09-06T18:00:29Z</time>
      </trkpt>
      <trkpt lat="42.812795" lon="-.70864">
        <ele>1061.151</ele>
        <time>2020-09-06T18:00:39Z</time>
      </trkpt>
      <trkpt lat="42.812845" lon="-.708638">
        <ele>1061.601</ele>
        <time>2020-09-06T18:00:44Z</time>
      </trkpt>
      <trkpt lat="42.81288" lon="-.7086">
        <ele>1062.211</ele>
        <time>2020-09-06T18:00:53Z</time>
      </trkpt>
      <trkpt lat="42.812926" lon="-.708584">
        <ele>1062.908</ele>
        <time>2020-09-06T18:01:03Z</time>
      </trkpt>
      <trkpt lat="42.812989" lon="-.708579">
        <ele>1064.560</ele>
        <time>2020-09-06T18:01:37Z</time>
      </trkpt>
      <trkpt lat="42.813032" lon="-.708597">
        <ele>1065.771</ele>
        <time>2020-09-06T18:01:42Z</time>
      </trkpt>
      <trkpt lat="42.813072" lon="-.708646">
        <ele>1066.797</ele>
        <time>2020-09-06T18:01:47Z</time>
      </trkpt>
      <trkpt lat="42.81312" lon="-.708658">
        <ele>1067.712</ele>
        <time>2020-09-06T18:01:53Z</time>
      </trkpt>
      <trkpt lat="42.813166" lon="-.708642">
        <ele>1068.690</ele>
        <time>2020-09-06T18:01:59Z</time>
      </trkpt>
      <trkpt lat="42.813217" lon="-.708646">
        <ele>1069.549</ele>
        <time>2020-09-06T18:02:06Z</time>
      </trkpt>
      <trkpt lat="42.813262" lon="-.708635">
        <ele>1070.452</ele>
        <time>2020-09-06T18:02:18Z</time>
      </trkpt>
      <trkpt lat="42.813307" lon="-.70866">
        <ele>1071.155</ele>
        <time>2020-09-06T18:02:38Z</time>
      </trkpt>
      <trkpt lat="42.813354" lon="-.708641">
        <ele>1071.598</ele>
        <time>2020-09-06T18:02:47Z</time>
      </trkpt>
      <trkpt lat="42.813402" lon="-.708635">
        <ele>1071.815</ele>
        <time>2020-09-06T18:02:53Z</time>
      </trkpt>
      <trkpt lat="42.813448" lon="-.708622">
        <ele>1072.226</ele>
        <time>2020-09-06T18:02:58Z</time>
      </trkpt>
      <trkpt lat="42.813502" lon="-.708615">
        <ele>1072.708</ele>
        <time>2020-09-06T18:03:03Z</time>
      </trkpt>
      <trkpt lat="42.813553" lon="-.708624">
        <ele>1073.454</ele>
        <time>2020-09-06T18:03:08Z</time>
      </trkpt>
      <trkpt lat="42.813602" lon="-.708621">
        <ele>1074.155</ele>
        <time>2020-09-06T18:03:14Z</time>
      </trkpt>
      <trkpt lat="42.813647" lon="-.708604">
        <ele>1074.721</ele>
        <time>2020-09-06T18:03:19Z</time>
      </trkpt>
      <trkpt lat="42.813694" lon="-.708598">
        <ele>1075.556</ele>
        <time>2020-09-06T18:03:25Z</time>
      </trkpt>
      <trkpt lat="42.81374" lon="-.708616">
        <ele>1076.274</ele>
        <time>2020-09-06T18:03:41Z</time>
      </trkpt>
      <trkpt lat="42.813787" lon="-.708588">
        <ele>1076.783</ele>
        <time>2020-09-06T18:03:50Z</time>
      </trkpt>
      <trkpt lat="42.813811" lon="-.708531">
        <ele>1077.136</ele>
        <time>2020-09-06T18:04:01Z</time>
      </trkpt>
      <trkpt lat="42.813853" lon="-.708508">
        <ele>1077.759</ele>
        <time>2020-09-06T18:04:06Z</time>
      </trkpt>
      <trkpt lat="42.813897" lon="-.708493">
        <ele>1078.431</ele>
        <time>2020-09-06T18:04:10Z</time>
      </trkpt>
      <trkpt lat="42.813946" lon="-.708462">
        <ele>1079.061</ele>
        <time>2020-09-06T18:04:14Z</time>
      </trkpt>
      <trkpt lat="42.81399" lon="-.708431">
        <ele>1079.607</ele>
        <time>2020-09-06T18:04:18Z</time>
      </trkpt>
      <trkpt lat="42.814037" lon="-.708406">
        <ele>1080.108</ele>
        <time>2020-09-06T18:04:23Z</time>
      </trkpt>
      <trkpt lat="42.81408" lon="-.708388">
        <ele>1080.748</ele>
        <time>2020-09-06T18:04:31Z</time>
      </trkpt>
      <trkpt lat="42.814123" lon="-.708413">
        <ele>1081.539</ele>
        <time>2020-09-06T18:04:48Z</time>
      </trkpt>
      <trkpt lat="42.814171" lon="-.708398">
        <ele>1082.585</ele>
        <time>2020-09-06T18:05:01Z</time>
      </trkpt>
      <trkpt lat="42.814214" lon="-.708363">
        <ele>1083.660</ele>
        <time>2020-09-06T18:05:06Z</time>
      </trkpt>
      <trkpt lat="42.814262" lon="-.708359">
        <ele>1085.848</ele>
        <time>2020-09-06T18:05:13Z</time>
      </trkpt>
      <trkpt lat="42.814303" lon="-.708387">
        <ele>1088.237</ele>
        <time>2020-09-06T18:05:20Z</time>
      </trkpt>
      <trkpt lat="42.814317" lon="-.708446">
        <ele>1090.650</ele>
        <time>2020-09-06T18:05:27Z</time>
      </trkpt>
      <trkpt lat="42.814329" lon="-.708506">
        <ele>1093.023</ele>
        <time>2020-09-06T18:05:32Z</time>
      </trkpt>
      <trkpt lat="42.814334" lon="-.708567">
        <ele>1095.376</ele>
        <time>2020-09-06T18:05:36Z</time>
      </trkpt>
      <trkpt lat="42.814344" lon="-.70863">
        <ele>1097.590</ele>
        <time>2020-09-06T18:05:40Z</time>
      </trkpt>
      <trkpt lat="42.814385" lon="-.70866">
        <ele>1100.619</ele>
        <time>2020-09-06T18:05:53Z</time>
      </trkpt>
      <trkpt lat="42.814422" lon="-.708701">
        <ele>1103.508</ele>
        <time>2020-09-06T18:06:02Z</time>
      </trkpt>
      <trkpt lat="42.814471" lon="-.708719">
        <ele>1106.442</ele>
        <time>2020-09-06T18:06:11Z</time>
      </trkpt>
      <trkpt lat="42.814519" lon="-.70871">
        <ele>1109.253</ele>
        <time>2020-09-06T18:06:18Z</time>
      </trkpt>
      <trkpt lat="42.814556" lon="-.708756">
        <ele>1112.719</ele>
        <time>2020-09-06T18:06:25Z</time>
      </trkpt>
      <trkpt lat="42.814595" lon="-.708804">
        <ele>1115.434</ele>
        <time>2020-09-06T18:06:33Z</time>
      </trkpt>
      <trkpt lat="42.814631" lon="-.708841">
        <ele>1117.912</ele>
        <time>2020-09-06T18:06:43Z</time>
      </trkpt>
      <trkpt lat="42.814676" lon="-.708844">
        <ele>1120.721</ele>
        <time>2020-09-06T18:07:05Z</time>
      </trkpt>
      <trkpt lat="42.814718" lon="-.708819">
        <ele>1123.254</ele>
        <time>2020-09-06T18:07:11Z</time>
      </trkpt>
      <trkpt lat="42.814766" lon="-.70882">
        <ele>1125.637</ele>
        <time>2020-09-06T18:07:18Z</time>
      </trkpt>
      <trkpt lat="42.81481" lon="-.708802">
        <ele>1128.198</ele>
        <time>2020-09-06T18:07:28Z</time>
      </trkpt>
      <trkpt lat="42.814853" lon="-.708779">
        <ele>1130.315</ele>
        <time>2020-09-06T18:07:33Z</time>
      </trkpt>
      <trkpt lat="42.814896" lon="-.708751">
        <ele>1132.426</ele>
        <time>2020-09-06T18:07:42Z</time>
      </trkpt>
      <trkpt lat="42.814943" lon="-.708771">
        <ele>1134.908</ele>
        <time>2020-09-06T18:07:50Z</time>
      </trkpt>
      <trkpt lat="42.814979" lon="-.708816">
        <ele>1137.234</ele>
        <time>2020-09-06T18:07:56Z</time>
      </trkpt>
      <trkpt lat="42.815011" lon="-.70886">
        <ele>1139.495</ele>
        <time>2020-09-06T18:08:01Z</time>
      </trkpt>
      <trkpt lat="42.815058" lon="-.708847">
        <ele>1141.621</ele>
        <time>2020-09-06T18:08:07Z</time>
      </trkpt>
      <trkpt lat="42.8151" lon="-.708871">
        <ele>1143.786</ele>
        <time>2020-09-06T18:08:14Z</time>
      </trkpt>
      <trkpt lat="42.815147" lon="-.708869">
        <ele>1145.434</ele>
        <time>2020-09-06T18:08:19Z</time>
      </trkpt>
      <trkpt lat="42.815192" lon="-.708853">
        <ele>1146.643</ele>
        <time>2020-09-06T18:08:26Z</time>
      </trkpt>
      <trkpt lat="42.815238" lon="-.70884">
        <ele>1147.656</ele>
        <time>2020-09-06T18:08:33Z</time>
      </trkpt>
      <trkpt lat="42.815284" lon="-.708846">
        <ele>1148.769</ele>
        <time>2020-09-06T18:08:43Z</time>
      </trkpt>
      <trkpt lat="42.815327" lon="-.708816">
        <ele>1149.366</ele>
        <time>2020-09-06T18:08:49Z</time>
      </trkpt>
      <trkpt lat="42.81536" lon="-.708767">
        <ele>1149.829</ele>
        <time>2020-09-06T18:08:56Z</time>
      </trkpt>
      <trkpt lat="42.815377" lon="-.70871">
        <ele>1150.221</ele>
        <time>2020-09-06T18:09:04Z</time>
      </trkpt>
      <trkpt lat="42.815417" lon="-.708665">
        <ele>1150.308</ele>
        <time>2020-09-06T18:09:13Z</time>
      </trkpt>
      <trkpt lat="42.815447" lon="-.708617">
        <ele>1150.311</ele>
        <time>2020-09-06T18:09:20Z</time>
      </trkpt>
      <trkpt lat="42.815459" lon="-.708556">
        <ele>1150.112</ele>
        <time>2020-09-06T18:09:25Z</time>
      </trkpt>
      <trkpt lat="42.815459" lon="-.708556">
        <ele>1150.178</ele>
        <time>2020-09-06T18:09:25Z</time>
      </trkpt>
      <trkpt lat="42.815484" lon="-.708503">
        <ele>1150.153</ele>
        <time>2020-09-06T18:09:31Z</time>
      </trkpt>
      <trkpt lat="42.81552" lon="-.708457">
        <ele>1150.141</ele>
        <time>2020-09-06T18:09:37Z</time>
      </trkpt>
      <trkpt lat="42.815555" lon="-.708411">
        <ele>1150.550</ele>
        <time>2020-09-06T18:09:43Z</time>
      </trkpt>
      <trkpt lat="42.815555" lon="-.708411">
        <ele>1150.573</ele>
        <time>2020-09-06T18:09:43Z</time>
      </trkpt>
      <trkpt lat="42.815588" lon="-.708358">
        <ele>1150.886</ele>
        <time>2020-09-06T18:09:49Z</time>
      </trkpt>
      <trkpt lat="42.815625" lon="-.708316">
        <ele>1151.063</ele>
        <time>2020-09-06T18:09:54Z</time>
      </trkpt>
      <trkpt lat="42.815671" lon="-.708288">
        <ele>1151.144</ele>
        <time>2020-09-06T18:09:59Z</time>
      </trkpt>
      <trkpt lat="42.815711" lon="-.708255">
        <ele>1151.118</ele>
        <time>2020-09-06T18:10:04Z</time>
      </trkpt>
      <trkpt lat="42.815755" lon="-.708212">
        <ele>1151.108</ele>
        <time>2020-09-06T18:10:09Z</time>
      </trkpt>
      <trkpt lat="42.815803" lon="-.708185">
        <ele>1151.171</ele>
        <time>2020-09-06T18:10:15Z</time>
      </trkpt>
      <trkpt lat="42.815846" lon="-.70815">
        <ele>1151.142</ele>
        <time>2020-09-06T18:10:22Z</time>
      </trkpt>
      <trkpt lat="42.815886" lon="-.708104">
        <ele>1151.218</ele>
        <time>2020-09-06T18:10:31Z</time>
      </trkpt>
      <trkpt lat="42.815923" lon="-.708066">
        <ele>1151.363</ele>
        <time>2020-09-06T18:10:36Z</time>
      </trkpt>
      <trkpt lat="42.815968" lon="-.708048">
        <ele>1151.061</ele>
        <time>2020-09-06T18:10:46Z</time>
      </trkpt>
      <trkpt lat="42.816011" lon="-.708031">
        <ele>1150.740</ele>
        <time>2020-09-06T18:10:55Z</time>
      </trkpt>
      <trkpt lat="42.816056" lon="-.708007">
        <ele>1150.363</ele>
        <time>2020-09-06T18:10:59Z</time>
      </trkpt>
      <trkpt lat="42.8161" lon="-.707987">
        <ele>1150.086</ele>
        <time>2020-09-06T18:11:04Z</time>
      </trkpt>
      <trkpt lat="42.81615" lon="-.707972">
        <ele>1149.676</ele>
        <time>2020-09-06T18:11:09Z</time>
      </trkpt>
      <trkpt lat="42.816196" lon="-.707961">
        <ele>1149.490</ele>
        <time>2020-09-06T18:11:13Z</time>
      </trkpt>
      <trkpt lat="42.816238" lon="-.707929">
        <ele>1149.319</ele>
        <time>2020-09-06T18:11:18Z</time>
      </trkpt>
      <trkpt lat="42.816274" lon="-.707893">
        <ele>1149.308</ele>
        <time>2020-09-06T18:11:26Z</time>
      </trkpt>
      <trkpt lat="42.816319" lon="-.70789">
        <ele>1149.282</ele>
        <time>2020-09-06T18:11:36Z</time>
      </trkpt>
      <trkpt lat="42.816361" lon="-.707926">
        <ele>1149.093</ele>
        <time>2020-09-06T18:11:42Z</time>
      </trkpt>
      <trkpt lat="42.816408" lon="-.70792">
        <ele>1148.769</ele>
        <time>2020-09-06T18:11:50Z</time>
      </trkpt>
      <trkpt lat="42.816448" lon="-.707881">
        <ele>1148.694</ele>
        <time>2020-09-06T18:12:03Z</time>
      </trkpt>
      <trkpt lat="42.816494" lon="-.707862">
        <ele>1148.692</ele>
        <time>2020-09-06T18:12:08Z</time>
      </trkpt>
      <trkpt lat="42.81654" lon="-.707846">
        <ele>1148.721</ele>
        <time>2020-09-06T18:12:12Z</time>
      </trkpt>
      <trkpt lat="42.816589" lon="-.707836">
        <ele>1148.824</ele>
        <time>2020-09-06T18:12:17Z</time>
      </trkpt>
      <trkpt lat="42.816641" lon="-.707828">
        <ele>1148.947</ele>
        <time>2020-09-06T18:12:22Z</time>
      </trkpt>
      <trkpt lat="42.816689" lon="-.707817">
        <ele>1149.055</ele>
        <time>2020-09-06T18:12:26Z</time>
      </trkpt>
      <trkpt lat="42.816735" lon="-.707804">
        <ele>1149.107</ele>
        <time>2020-09-06T18:12:30Z</time>
      </trkpt>
      <trkpt lat="42.816778" lon="-.707826">
        <ele>1149.417</ele>
        <time>2020-09-06T18:12:41Z</time>
      </trkpt>
      <trkpt lat="42.816778" lon="-.707826">
        <ele>1149.408</ele>
        <time>2020-09-06T18:12:41Z</time>
      </trkpt>
      <trkpt lat="42.81682" lon="-.707789">
        <ele>1149.570</ele>
        <time>2020-09-06T18:12:58Z</time>
      </trkpt>
      <trkpt lat="42.81686" lon="-.707742">
        <ele>1149.641</ele>
        <time>2020-09-06T18:13:02Z</time>
      </trkpt>
      <trkpt lat="42.816908" lon="-.707711">
        <ele>1149.797</ele>
        <time>2020-09-06T18:13:06Z</time>
      </trkpt>
      <trkpt lat="42.81695" lon="-.707679">
        <ele>1149.982</ele>
        <time>2020-09-06T18:13:09Z</time>
      </trkpt>
      <trkpt lat="42.816992" lon="-.70763">
        <ele>1150.110</ele>
        <time>2020-09-06T18:13:13Z</time>
      </trkpt>
      <trkpt lat="42.817034" lon="-.707594">
        <ele>1150.299</ele>
        <time>2020-09-06T18:13:18Z</time>
      </trkpt>
      <trkpt lat="42.817072" lon="-.707559">
        <ele>1150.432</ele>
        <time>2020-09-06T18:13:23Z</time>
      </trkpt>
      <trkpt lat="42.817109" lon="-.707523">
        <ele>1150.355</ele>
        <time>2020-09-06T18:13:31Z</time>
      </trkpt>
      <trkpt lat="42.817135" lon="-.707466">
        <ele>1150.566</ele>
        <time>2020-09-06T18:13:41Z</time>
      </trkpt>
      <trkpt lat="42.817169" lon="-.707418">
        <ele>1150.529</ele>
        <time>2020-09-06T18:13:49Z</time>
      </trkpt>
      <trkpt lat="42.817201" lon="-.707364">
        <ele>1150.621</ele>
        <time>2020-09-06T18:13:58Z</time>
      </trkpt>
      <trkpt lat="42.817194" lon="-.707303">
        <ele>1150.508</ele>
        <time>2020-09-06T18:14:06Z</time>
      </trkpt>
      <trkpt lat="42.817194" lon="-.707303">
        <ele>1150.531</ele>
        <time>2020-09-06T18:14:06Z</time>
      </trkpt>
      <trkpt lat="42.817167" lon="-.707248">
        <ele>1150.612</ele>
        <time>2020-09-06T18:14:23Z</time>
      </trkpt>
      <trkpt lat="42.817137" lon="-.7072">
        <ele>1150.818</ele>
        <time>2020-09-06T18:14:31Z</time>
      </trkpt>
      <trkpt lat="42.817198" lon="-.707183">
        <ele>1151.693</ele>
        <time>2020-09-06T18:15:09Z</time>
      </trkpt>
      <trkpt lat="42.817242" lon="-.707171">
        <ele>1152.051</ele>
        <time>2020-09-06T18:15:37Z</time>
      </trkpt>
      <trkpt lat="42.817264" lon="-.707225">
        <ele>1151.520</ele>
        <time>2020-09-06T18:16:01Z</time>
      </trkpt>
      <trkpt lat="42.817287" lon="-.70728">
        <ele>1151.233</ele>
        <time>2020-09-06T18:16:14Z</time>
      </trkpt>
      <trkpt lat="42.817278" lon="-.70734">
        <ele>1150.746</ele>
        <time>2020-09-06T18:16:23Z</time>
      </trkpt>
      <trkpt lat="42.8173" lon="-.707395">
        <ele>1150.152</ele>
        <time>2020-09-06T18:16:45Z</time>
      </trkpt>
      <trkpt lat="42.817344" lon="-.707419">
        <ele>1149.853</ele>
        <time>2020-09-06T18:16:54Z</time>
      </trkpt>
      <trkpt lat="42.817325" lon="-.707478">
        <ele>1149.408</ele>
        <time>2020-09-06T18:17:01Z</time>
      </trkpt>
      <trkpt lat="42.817283" lon="-.707516">
        <ele>1149.208</ele>
        <time>2020-09-06T18:17:10Z</time>
      </trkpt>
      <trkpt lat="42.817242" lon="-.707548">
        <ele>1147.880</ele>
        <time>2020-09-06T18:17:20Z</time>
      </trkpt>
      <trkpt lat="42.817242" lon="-.707548">
        <ele>1147.811</ele>
        <time>2020-09-06T18:17:20Z</time>
      </trkpt>
      <trkpt lat="42.817242" lon="-.707548">
        <ele>1147.877</ele>
        <time>2020-09-06T18:17:20Z</time>
      </trkpt>
      <trkpt lat="42.817242" lon="-.707548">
        <ele>1147.852</ele>
        <time>2020-09-06T18:17:20Z</time>
      </trkpt>
      <trkpt lat="42.817242" lon="-.707548">
        <ele>1147.860</ele>
        <time>2020-09-06T18:17:20Z</time>
      </trkpt>
      <trkpt lat="42.817242" lon="-.707548">
        <ele>1147.819</ele>
        <time>2020-09-06T18:17:20Z</time>
      </trkpt>
      <trkpt lat="42.817242" lon="-.707548">
        <ele>1147.862</ele>
        <time>2020-09-06T18:17:20Z</time>
      </trkpt>
      <trkpt lat="42.817242" lon="-.707548">
        <ele>1147.875</ele>
        <time>2020-09-06T18:17:20Z</time>
      </trkpt>
      <trkpt lat="42.817242" lon="-.707548">
        <ele>1147.824</ele>
        <time>2020-09-06T18:17:20Z</time>
      </trkpt>
      <trkpt lat="42.817242" lon="-.707548">
        <ele>1147.804</ele>
        <time>2020-09-06T18:17:20Z</time>
      </trkpt>
      <trkpt lat="42.817242" lon="-.707548">
        <ele>1147.814</ele>
        <time>2020-09-06T18:17:20Z</time>
      </trkpt>
      <trkpt lat="42.817242" lon="-.707548">
        <ele>1147.808</ele>
        <time>2020-09-06T18:17:20Z</time>
      </trkpt>
      <trkpt lat="42.817242" lon="-.707548">
        <ele>1147.867</ele>
        <time>2020-09-06T18:17:20Z</time>
      </trkpt>
      <trkpt lat="42.817242" lon="-.707548">
        <ele>1147.818</ele>
        <time>2020-09-06T18:17:20Z</time>
      </trkpt>
      <trkpt lat="42.818148" lon="-.707792">
        <ele>1150.114</ele>
        <time>2020-09-06T18:17:28Z</time>
      </trkpt>
      <trkpt lat="42.818148" lon="-.707792">
        <ele>1150.169</ele>
        <time>2020-09-06T18:17:28Z</time>
      </trkpt>
      <trkpt lat="42.818148" lon="-.707792">
        <ele>1150.127</ele>
        <time>2020-09-06T18:17:28Z</time>
      </trkpt>
      <trkpt lat="42.818148" lon="-.707792">
        <ele>1150.136</ele>
        <time>2020-09-06T18:17:28Z</time>
      </trkpt>
      <trkpt lat="42.818148" lon="-.707792">
        <ele>1150.179</ele>
        <time>2020-09-06T18:17:28Z</time>
      </trkpt>
      <trkpt lat="42.818148" lon="-.707792">
        <ele>1150.122</ele>
        <time>2020-09-06T18:17:28Z</time>
      </trkpt>
      <trkpt lat="42.818148" lon="-.707792">
        <ele>1150.194</ele>
        <time>2020-09-06T18:17:28Z</time>
      </trkpt>
      <trkpt lat="42.818148" lon="-.707792">
        <ele>1150.157</ele>
        <time>2020-09-06T18:17:28Z</time>
      </trkpt>
      <trkpt lat="42.818148" lon="-.707792">
        <ele>1150.122</ele>
        <time>2020-09-06T18:17:28Z</time>
      </trkpt>
      <trkpt lat="42.818148" lon="-.707792">
        <ele>1150.108</ele>
        <time>2020-09-06T18:17:28Z</time>
      </trkpt>
      <trkpt lat="42.818148" lon="-.707792">
        <ele>1150.114</ele>
        <time>2020-09-06T18:17:28Z</time>
      </trkpt>
      <trkpt lat="42.818148" lon="-.707792">
        <ele>1150.185</ele>
        <time>2020-09-06T18:17:28Z</time>
      </trkpt>
      <trkpt lat="42.818148" lon="-.707792">
        <ele>1150.121</ele>
        <time>2020-09-06T18:17:28Z</time>
      </trkpt>
      <trkpt lat="42.818148" lon="-.707792">
        <ele>1150.196</ele>
        <time>2020-09-06T18:17:28Z</time>
      </trkpt>
      <trkpt lat="42.818148" lon="-.707792">
        <ele>1150.114</ele>
        <time>2020-09-06T18:17:28Z</time>
      </trkpt>
      <trkpt lat="42.818057" lon="-.707749">
        <ele>1151.453</ele>
        <time>2020-09-06T18:17:29Z</time>
      </trkpt>
      <trkpt lat="42.818057" lon="-.707749">
        <ele>1151.456</ele>
        <time>2020-09-06T18:17:29Z</time>
      </trkpt>
      <trkpt lat="42.817637" lon="-.70763">
        <ele>1152.939</ele>
        <time>2020-09-06T18:17:31Z</time>
      </trkpt>
      <trkpt lat="42.817412" lon="-.708087">
        <ele>1154.046</ele>
        <time>2020-09-06T18:17:33Z</time>
      </trkpt>
      <trkpt lat="42.81726" lon="-.708178">
        <ele>1154.988</ele>
        <time>2020-09-06T18:17:35Z</time>
      </trkpt>
      <trkpt lat="42.817192" lon="-.708098">
        <ele>1155.516</ele>
        <time>2020-09-06T18:17:37Z</time>
      </trkpt>
      <trkpt lat="42.81713" lon="-.707908">
        <ele>1156.008</ele>
        <time>2020-09-06T18:17:39Z</time>
      </trkpt>
      <trkpt lat="42.817117" lon="-.707838">
        <ele>1156.349</ele>
        <time>2020-09-06T18:17:40Z</time>
      </trkpt>
      <trkpt lat="42.817116" lon="-.707757">
        <ele>1156.460</ele>
        <time>2020-09-06T18:17:42Z</time>
      </trkpt>
      <trkpt lat="42.817151" lon="-.707704">
        <ele>1156.496</ele>
        <time>2020-09-06T18:17:50Z</time>
      </trkpt>
      <trkpt lat="42.817133" lon="-.707631">
        <ele>1159.291</ele>
        <time>2020-09-06T18:18:26Z</time>
      </trkpt>
      <trkpt lat="42.817137" lon="-.707558">
        <ele>1160.799</ele>
        <time>2020-09-06T18:18:30Z</time>
      </trkpt>
      <trkpt lat="42.817168" lon="-.707497">
        <ele>1161.198</ele>
        <time>2020-09-06T18:18:33Z</time>
      </trkpt>
      <trkpt lat="42.817214" lon="-.707472">
        <ele>1161.481</ele>
        <time>2020-09-06T18:18:37Z</time>
      </trkpt>
      <trkpt lat="42.817258" lon="-.707451">
        <ele>1161.584</ele>
        <time>2020-09-06T18:18:48Z</time>
      </trkpt>
      <trkpt lat="42.817271" lon="-.70739">
        <ele>1161.234</ele>
        <time>2020-09-06T18:19:07Z</time>
      </trkpt>
      <trkpt lat="42.81731" lon="-.707356">
        <ele>1160.855</ele>
        <time>2020-09-06T18:19:14Z</time>
      </trkpt>
      <trkpt lat="42.81735" lon="-.707388">
        <ele>1160.510</ele>
        <time>2020-09-06T18:19:24Z</time>
      </trkpt>
      <trkpt lat="42.817393" lon="-.70742">
        <ele>1160.308</ele>
        <time>2020-09-06T18:19:48Z</time>
      </trkpt>
      <trkpt lat="42.817407" lon="-.70748">
        <ele>1160.588</ele>
        <time>2020-09-06T18:19:53Z</time>
      </trkpt>
      <trkpt lat="42.817412" lon="-.707544">
        <ele>1160.719</ele>
        <time>2020-09-06T18:19:58Z</time>
      </trkpt>
      <trkpt lat="42.817424" lon="-.707607">
        <ele>1160.875</ele>
        <time>2020-09-06T18:20:03Z</time>
      </trkpt>
      <trkpt lat="42.817453" lon="-.707659">
        <ele>1160.930</ele>
        <time>2020-09-06T18:20:08Z</time>
      </trkpt>
      <trkpt lat="42.817482" lon="-.707718">
        <ele>1160.738</ele>
        <time>2020-09-06T18:20:13Z</time>
      </trkpt>
      <trkpt lat="42.817509" lon="-.70777">
        <ele>1160.557</ele>
        <time>2020-09-06T18:20:19Z</time>
      </trkpt>
      <trkpt lat="42.817532" lon="-.707825">
        <ele>1160.110</ele>
        <time>2020-09-06T18:20:24Z</time>
      </trkpt>
      <trkpt lat="42.817559" lon="-.707875">
        <ele>1159.723</ele>
        <time>2020-09-06T18:20:28Z</time>
      </trkpt>
      <trkpt lat="42.81757" lon="-.707936">
        <ele>1159.573</ele>
        <time>2020-09-06T18:20:33Z</time>
      </trkpt>
      <trkpt lat="42.817561" lon="-.707998">
        <ele>1159.485</ele>
        <time>2020-09-06T18:20:38Z</time>
      </trkpt>
      <trkpt lat="42.817535" lon="-.708054">
        <ele>1159.213</ele>
        <time>2020-09-06T18:20:48Z</time>
      </trkpt>
      <trkpt lat="42.817516" lon="-.708112">
        <ele>1159.308</ele>
        <time>2020-09-06T18:20:53Z</time>
      </trkpt>
      <trkpt lat="42.817492" lon="-.70817">
        <ele>1159.572</ele>
        <time>2020-09-06T18:20:56Z</time>
      </trkpt>
      <trkpt lat="42.817469" lon="-.708227">
        <ele>1159.713</ele>
        <time>2020-09-06T18:21:00Z</time>
      </trkpt>
      <trkpt lat="42.817449" lon="-.708291">
        <ele>1159.859</ele>
        <time>2020-09-06T18:21:05Z</time>
      </trkpt>
      <trkpt lat="42.817432" lon="-.708353">
        <ele>1160.114</ele>
        <time>2020-09-06T18:21:11Z</time>
      </trkpt>
      <trkpt lat="42.817421" lon="-.708418">
        <ele>1160.362</ele>
        <time>2020-09-06T18:21:16Z</time>
      </trkpt>
      <trkpt lat="42.817402" lon="-.708478">
        <ele>1160.491</ele>
        <time>2020-09-06T18:21:22Z</time>
      </trkpt>
      <trkpt lat="42.817385" lon="-.708537">
        <ele>1160.214</ele>
        <time>2020-09-06T18:21:28Z</time>
      </trkpt>
      <trkpt lat="42.817384" lon="-.708605">
        <ele>1159.837</ele>
        <time>2020-09-06T18:21:32Z</time>
      </trkpt>
      <trkpt lat="42.81739" lon="-.708671">
        <ele>1159.592</ele>
        <time>2020-09-06T18:21:36Z</time>
      </trkpt>
      <trkpt lat="42.817392" lon="-.708733">
        <ele>1159.273</ele>
        <time>2020-09-06T18:21:39Z</time>
      </trkpt>
      <trkpt lat="42.817393" lon="-.70881">
        <ele>1159.020</ele>
        <time>2020-09-06T18:21:43Z</time>
      </trkpt>
      <trkpt lat="42.817384" lon="-.708876">
        <ele>1158.908</ele>
        <time>2020-09-06T18:21:48Z</time>
      </trkpt>
      <trkpt lat="42.817379" lon="-.708939">
        <ele>1158.864</ele>
        <time>2020-09-06T18:21:52Z</time>
      </trkpt>
      <trkpt lat="42.817371" lon="-.709005">
        <ele>1158.795</ele>
        <time>2020-09-06T18:21:56Z</time>
      </trkpt>
      <trkpt lat="42.817369" lon="-.709068">
        <ele>1158.431</ele>
        <time>2020-09-06T18:22:00Z</time>
      </trkpt>
      <trkpt lat="42.81738" lon="-.709129">
        <ele>1158.176</ele>
        <time>2020-09-06T18:22:05Z</time>
      </trkpt>
      <trkpt lat="42.817397" lon="-.70919">
        <ele>1157.724</ele>
        <time>2020-09-06T18:22:09Z</time>
      </trkpt>
      <trkpt lat="42.817422" lon="-.709246">
        <ele>1157.543</ele>
        <time>2020-09-06T18:22:14Z</time>
      </trkpt>
      <trkpt lat="42.817459" lon="-.709286">
        <ele>1157.566</ele>
        <time>2020-09-06T18:22:18Z</time>
      </trkpt>
      <trkpt lat="42.817499" lon="-.709318">
        <ele>1157.549</ele>
        <time>2020-09-06T18:22:23Z</time>
      </trkpt>
      <trkpt lat="42.817546" lon="-.709366">
        <ele>1157.331</ele>
        <time>2020-09-06T18:22:28Z</time>
      </trkpt>
      <trkpt lat="42.817589" lon="-.709401">
        <ele>1157.261</ele>
        <time>2020-09-06T18:22:33Z</time>
      </trkpt>
      <trkpt lat="42.817625" lon="-.709439">
        <ele>1157.107</ele>
        <time>2020-09-06T18:22:37Z</time>
      </trkpt>
      <trkpt lat="42.817663" lon="-.709473">
        <ele>1156.908</ele>
        <time>2020-09-06T18:22:46Z</time>
      </trkpt>
      <trkpt lat="42.817703" lon="-.709513">
        <ele>1156.728</ele>
        <time>2020-09-06T18:22:51Z</time>
      </trkpt>
      <trkpt lat="42.817737" lon="-.709561">
        <ele>1156.449</ele>
        <time>2020-09-06T18:22:56Z</time>
      </trkpt>
      <trkpt lat="42.817765" lon="-.709609">
        <ele>1156.145</ele>
        <time>2020-09-06T18:23:00Z</time>
      </trkpt>
      <trkpt lat="42.81779" lon="-.709667">
        <ele>1155.790</ele>
        <time>2020-09-06T18:23:05Z</time>
      </trkpt>
      <trkpt lat="42.817823" lon="-.709724">
        <ele>1155.358</ele>
        <time>2020-09-06T18:23:10Z</time>
      </trkpt>
      <trkpt lat="42.817856" lon="-.709767">
        <ele>1154.827</ele>
        <time>2020-09-06T18:23:15Z</time>
      </trkpt>
      <trkpt lat="42.817898" lon="-.709797">
        <ele>1154.470</ele>
        <time>2020-09-06T18:23:22Z</time>
      </trkpt>
      <trkpt lat="42.817939" lon="-.709824">
        <ele>1153.913</ele>
        <time>2020-09-06T18:23:29Z</time>
      </trkpt>
      <trkpt lat="42.817986" lon="-.709845">
        <ele>1153.319</ele>
        <time>2020-09-06T18:23:41Z</time>
      </trkpt>
      <trkpt lat="42.81804" lon="-.709849">
        <ele>1152.509</ele>
        <time>2020-09-06T18:23:49Z</time>
      </trkpt>
      <trkpt lat="42.818087" lon="-.709848">
        <ele>1151.919</ele>
        <time>2020-09-06T18:23:53Z</time>
      </trkpt>
      <trkpt lat="42.818134" lon="-.709847">
        <ele>1151.408</ele>
        <time>2020-09-06T18:23:59Z</time>
      </trkpt>
      <trkpt lat="42.818181" lon="-.709847">
        <ele>1150.866</ele>
        <time>2020-09-06T18:24:04Z</time>
      </trkpt>
      <trkpt lat="42.818222" lon="-.709888">
        <ele>1150.117</ele>
        <time>2020-09-06T18:24:11Z</time>
      </trkpt>
      <trkpt lat="42.818261" lon="-.70992">
        <ele>1149.793</ele>
        <time>2020-09-06T18:24:17Z</time>
      </trkpt>
      <trkpt lat="42.818296" lon="-.709967">
        <ele>1149.488</ele>
        <time>2020-09-06T18:24:22Z</time>
      </trkpt>
      <trkpt lat="42.818329" lon="-.710015">
        <ele>1149.256</ele>
        <time>2020-09-06T18:24:29Z</time>
      </trkpt>
      <trkpt lat="42.818366" lon="-.710053">
        <ele>1148.995</ele>
        <time>2020-09-06T18:24:36Z</time>
      </trkpt>
      <trkpt lat="42.818409" lon="-.710072">
        <ele>1148.518</ele>
        <time>2020-09-06T18:24:42Z</time>
      </trkpt>
      <trkpt lat="42.81846" lon="-.710075">
        <ele>1148.271</ele>
        <time>2020-09-06T18:24:47Z</time>
      </trkpt>
      <trkpt lat="42.818511" lon="-.710072">
        <ele>1147.969</ele>
        <time>2020-09-06T18:24:52Z</time>
      </trkpt>
      <trkpt lat="42.818556" lon="-.710064">
        <ele>1147.704</ele>
        <time>2020-09-06T18:24:58Z</time>
      </trkpt>
      <trkpt lat="42.818583" lon="-.710013">
        <ele>1147.624</ele>
        <time>2020-09-06T18:25:09Z</time>
      </trkpt>
      <trkpt lat="42.818618" lon="-.709974">
        <ele>1147.508</ele>
        <time>2020-09-06T18:25:19Z</time>
      </trkpt>
      <trkpt lat="42.818664" lon="-.709964">
        <ele>1146.621</ele>
        <time>2020-09-06T18:25:30Z</time>
      </trkpt>
      <trkpt lat="42.818711" lon="-.709981">
        <ele>1146.012</ele>
        <time>2020-09-06T18:25:35Z</time>
      </trkpt>
      <trkpt lat="42.818755" lon="-.709959">
        <ele>1145.798</ele>
        <time>2020-09-06T18:25:42Z</time>
      </trkpt>
      <trkpt lat="42.818794" lon="-.709928">
        <ele>1145.263</ele>
        <time>2020-09-06T18:25:53Z</time>
      </trkpt>
      <trkpt lat="42.818836" lon="-.709951">
        <ele>1144.521</ele>
        <time>2020-09-06T18:26:03Z</time>
      </trkpt>
      <trkpt lat="42.818876" lon="-.709988">
        <ele>1143.750</ele>
        <time>2020-09-06T18:26:12Z</time>
      </trkpt>
      <trkpt lat="42.818924" lon="-.709988">
        <ele>1143.263</ele>
        <time>2020-09-06T18:26:17Z</time>
      </trkpt>
      <trkpt lat="42.818969" lon="-.709982">
        <ele>1143.046</ele>
        <time>2020-09-06T18:26:25Z</time>
      </trkpt>
      <trkpt lat="42.819014" lon="-.709961">
        <ele>1142.983</ele>
        <time>2020-09-06T18:26:33Z</time>
      </trkpt>
      <trkpt lat="42.819045" lon="-.709913">
        <ele>1142.625</ele>
        <time>2020-09-06T18:26:47Z</time>
      </trkpt>
      <trkpt lat="42.819094" lon="-.709919">
        <ele>1141.817</ele>
        <time>2020-09-06T18:27:02Z</time>
      </trkpt>
      <trkpt lat="42.819136" lon="-.709949">
        <ele>1141.308</ele>
        <time>2020-09-06T18:27:08Z</time>
      </trkpt>
      <trkpt lat="42.819173" lon="-.709997">
        <ele>1140.313</ele>
        <time>2020-09-06T18:27:17Z</time>
      </trkpt>
      <trkpt lat="42.819214" lon="-.710028">
        <ele>1139.674</ele>
        <time>2020-09-06T18:27:24Z</time>
      </trkpt>
      <trkpt lat="42.819256" lon="-.710048">
        <ele>1139.120</ele>
        <time>2020-09-06T18:27:30Z</time>
      </trkpt>
      <trkpt lat="42.819295" lon="-.710092">
        <ele>1138.745</ele>
        <time>2020-09-06T18:27:37Z</time>
      </trkpt>
      <trkpt lat="42.819333" lon="-.710134">
        <ele>1138.043</ele>
        <time>2020-09-06T18:27:42Z</time>
      </trkpt>
      <trkpt lat="42.819371" lon="-.710168">
        <ele>1137.562</ele>
        <time>2020-09-06T18:27:47Z</time>
      </trkpt>
      <trkpt lat="42.819416" lon="-.710184">
        <ele>1136.985</ele>
        <time>2020-09-06T18:27:53Z</time>
      </trkpt>
      <trkpt lat="42.819461" lon="-.710184">
        <ele>1136.348</ele>
        <time>2020-09-06T18:28:03Z</time>
      </trkpt>
      <trkpt lat="42.819506" lon="-.710192">
        <ele>1135.444</ele>
        <time>2020-09-06T18:28:20Z</time>
      </trkpt>
      <trkpt lat="42.819553" lon="-.710198">
        <ele>1134.805</ele>
        <time>2020-09-06T18:28:30Z</time>
      </trkpt>
      <trkpt lat="42.819601" lon="-.710209">
        <ele>1134.415</ele>
        <time>2020-09-06T18:28:35Z</time>
      </trkpt>
      <trkpt lat="42.819632" lon="-.710256">
        <ele>1134.008</ele>
        <time>2020-09-06T18:28:40Z</time>
      </trkpt>
      <trkpt lat="42.819658" lon="-.710306">
        <ele>1133.789</ele>
        <time>2020-09-06T18:28:44Z</time>
      </trkpt>
      <trkpt lat="42.81969" lon="-.710349">
        <ele>1133.480</ele>
        <time>2020-09-06T18:28:48Z</time>
      </trkpt>
      <trkpt lat="42.819726" lon="-.710394">
        <ele>1132.936</ele>
        <time>2020-09-06T18:28:54Z</time>
      </trkpt>
      <trkpt lat="42.819772" lon="-.710403">
        <ele>1132.411</ele>
        <time>2020-09-06T18:29:04Z</time>
      </trkpt>
      <trkpt lat="42.819815" lon="-.710433">
        <ele>1132.239</ele>
        <time>2020-09-06T18:29:14Z</time>
      </trkpt>
      <trkpt lat="42.819863" lon="-.710442">
        <ele>1132.098</ele>
        <time>2020-09-06T18:29:23Z</time>
      </trkpt>
      <trkpt lat="42.819904" lon="-.710414">
        <ele>1132.081</ele>
        <time>2020-09-06T18:29:39Z</time>
      </trkpt>
      <trkpt lat="42.819939" lon="-.710454">
        <ele>1131.854</ele>
        <time>2020-09-06T18:29:50Z</time>
      </trkpt>
      <trkpt lat="42.819967" lon="-.710512">
        <ele>1131.771</ele>
        <time>2020-09-06T18:29:55Z</time>
      </trkpt>
      <trkpt lat="42.820006" lon="-.710546">
        <ele>1131.541</ele>
        <time>2020-09-06T18:30:04Z</time>
      </trkpt>
      <trkpt lat="42.820041" lon="-.71059">
        <ele>1131.215</ele>
        <time>2020-09-06T18:30:13Z</time>
      </trkpt>
      <trkpt lat="42.820086" lon="-.710601">
        <ele>1130.808</ele>
        <time>2020-09-06T18:30:22Z</time>
      </trkpt>
      <trkpt lat="42.820127" lon="-.710629">
        <ele>1130.372</ele>
        <time>2020-09-06T18:30:29Z</time>
      </trkpt>
      <trkpt lat="42.820155" lon="-.71068">
        <ele>1129.773</ele>
        <time>2020-09-06T18:30:36Z</time>
      </trkpt>
      <trkpt lat="42.820172" lon="-.710737">
        <ele>1129.279</ele>
        <time>2020-09-06T18:30:42Z</time>
      </trkpt>
      <trkpt lat="42.820211" lon="-.710771">
        <ele>1128.624</ele>
        <time>2020-09-06T18:30:53Z</time>
      </trkpt>
      <trkpt lat="42.820253" lon="-.710793">
        <ele>1128.092</ele>
        <time>2020-09-06T18:31:02Z</time>
      </trkpt>
      <trkpt lat="42.820301" lon="-.710788">
        <ele>1127.511</ele>
        <time>2020-09-06T18:31:08Z</time>
      </trkpt>
      <trkpt lat="42.820345" lon="-.710802">
        <ele>1127.184</ele>
        <time>2020-09-06T18:31:14Z</time>
      </trkpt>
      <trkpt lat="42.82039" lon="-.710822">
        <ele>1126.687</ele>
        <time>2020-09-06T18:31:19Z</time>
      </trkpt>
      <trkpt lat="42.82044" lon="-.710827">
        <ele>1126.036</ele>
        <time>2020-09-06T18:31:25Z</time>
      </trkpt>
      <trkpt lat="42.820486" lon="-.71084">
        <ele>1125.317</ele>
        <time>2020-09-06T18:31:31Z</time>
      </trkpt>
      <trkpt lat="42.820532" lon="-.710855">
        <ele>1124.618</ele>
        <time>2020-09-06T18:31:40Z</time>
      </trkpt>
      <trkpt lat="42.820575" lon="-.710872">
        <ele>1124.008</ele>
        <time>2020-09-06T18:31:48Z</time>
      </trkpt>
      <trkpt lat="42.820619" lon="-.710849">
        <ele>1123.638</ele>
        <time>2020-09-06T18:31:56Z</time>
      </trkpt>
      <trkpt lat="42.820657" lon="-.710889">
        <ele>1123.089</ele>
        <time>2020-09-06T18:32:06Z</time>
      </trkpt>
      <trkpt lat="42.8207" lon="-.710912">
        <ele>1122.655</ele>
        <time>2020-09-06T18:32:10Z</time>
      </trkpt>
      <trkpt lat="42.820745" lon="-.710928">
        <ele>1122.190</ele>
        <time>2020-09-06T18:32:14Z</time>
      </trkpt>
      <trkpt lat="42.820787" lon="-.710951">
        <ele>1121.738</ele>
        <time>2020-09-06T18:32:20Z</time>
      </trkpt>
      <trkpt lat="42.820833" lon="-.710984">
        <ele>1121.237</ele>
        <time>2020-09-06T18:32:25Z</time>
      </trkpt>
      <trkpt lat="42.820872" lon="-.711019">
        <ele>1120.710</ele>
        <time>2020-09-06T18:32:29Z</time>
      </trkpt>
      <trkpt lat="42.820915" lon="-.711043">
        <ele>1120.173</ele>
        <time>2020-09-06T18:32:35Z</time>
      </trkpt>
      <trkpt lat="42.820961" lon="-.711063">
        <ele>1119.551</ele>
        <time>2020-09-06T18:32:41Z</time>
      </trkpt>
      <trkpt lat="42.821002" lon="-.711094">
        <ele>1118.901</ele>
        <time>2020-09-06T18:32:59Z</time>
      </trkpt>
      <trkpt lat="42.821023" lon="-.711158">
        <ele>1118.611</ele>
        <time>2020-09-06T18:33:05Z</time>
      </trkpt>
      <trkpt lat="42.821035" lon="-.711217">
        <ele>1118.508</ele>
        <time>2020-09-06T18:33:13Z</time>
      </trkpt>
      <trkpt lat="42.821081" lon="-.711221">
        <ele>1118.430</ele>
        <time>2020-09-06T18:33:27Z</time>
      </trkpt>
      <trkpt lat="42.821109" lon="-.711272">
        <ele>1118.281</ele>
        <time>2020-09-06T18:33:42Z</time>
      </trkpt>
      <trkpt lat="42.821063" lon="-.711271">
        <ele>1118.167</ele>
        <time>2020-09-06T18:33:57Z</time>
      </trkpt>
      <trkpt lat="42.821083" lon="-.71133">
        <ele>1117.422</ele>
        <time>2020-09-06T18:34:24Z</time>
      </trkpt>
      <trkpt lat="42.821085" lon="-.711395">
        <ele>1116.950</ele>
        <time>2020-09-06T18:34:29Z</time>
      </trkpt>
      <trkpt lat="42.821084" lon="-.711457">
        <ele>1116.619</ele>
        <time>2020-09-06T18:34:36Z</time>
      </trkpt>
      <trkpt lat="42.821118" lon="-.711497">
        <ele>1116.342</ele>
        <time>2020-09-06T18:34:58Z</time>
      </trkpt>
      <trkpt lat="42.821131" lon="-.711587">
        <ele>1116.055</ele>
        <time>2020-09-06T18:35:12Z</time>
      </trkpt>
      <trkpt lat="42.82111" lon="-.711521">
        <ele>1115.976</ele>
        <time>2020-09-06T18:36:03Z</time>
      </trkpt>
      <trkpt lat="42.821127" lon="-.711462">
        <ele>1114.990</ele>
        <time>2020-09-06T18:36:44Z</time>
      </trkpt>
      <trkpt lat="42.821165" lon="-.711428">
        <ele>1114.119</ele>
        <time>2020-09-06T18:36:50Z</time>
      </trkpt>
      <trkpt lat="42.821207" lon="-.711399">
        <ele>1113.508</ele>
        <time>2020-09-06T18:36:55Z</time>
      </trkpt>
      <trkpt lat="42.821256" lon="-.711387">
        <ele>1113.072</ele>
        <time>2020-09-06T18:37:00Z</time>
      </trkpt>
      <trkpt lat="42.821303" lon="-.711395">
        <ele>1112.443</ele>
        <time>2020-09-06T18:37:11Z</time>
      </trkpt>
      <trkpt lat="42.821344" lon="-.711369">
        <ele>1111.999</ele>
        <time>2020-09-06T18:37:27Z</time>
      </trkpt>
      <trkpt lat="42.821388" lon="-.711346">
        <ele>1111.264</ele>
        <time>2020-09-06T18:37:37Z</time>
      </trkpt>
      <trkpt lat="42.821435" lon="-.71133">
        <ele>1110.722</ele>
        <time>2020-09-06T18:37:45Z</time>
      </trkpt>
      <trkpt lat="42.821479" lon="-.711347">
        <ele>1110.391</ele>
        <time>2020-09-06T18:37:52Z</time>
      </trkpt>
      <trkpt lat="42.821523" lon="-.711372">
        <ele>1110.084</ele>
        <time>2020-09-06T18:37:57Z</time>
      </trkpt>
      <trkpt lat="42.821567" lon="-.711392">
        <ele>1109.617</ele>
        <time>2020-09-06T18:38:05Z</time>
      </trkpt>
      <trkpt lat="42.8216" lon="-.711348">
        <ele>1109.262</ele>
        <time>2020-09-06T18:38:12Z</time>
      </trkpt>
      <trkpt lat="42.821648" lon="-.711325">
        <ele>1108.883</ele>
        <time>2020-09-06T18:38:20Z</time>
      </trkpt>
      <trkpt lat="42.821698" lon="-.711314">
        <ele>1108.511</ele>
        <time>2020-09-06T18:38:26Z</time>
      </trkpt>
      <trkpt lat="42.821745" lon="-.711311">
        <ele>1108.208</ele>
        <time>2020-09-06T18:38:32Z</time>
      </trkpt>
      <trkpt lat="42.82179" lon="-.711291">
        <ele>1108.081</ele>
        <time>2020-09-06T18:38:44Z</time>
      </trkpt>
      <trkpt lat="42.821833" lon="-.711317">
        <ele>1108.072</ele>
        <time>2020-09-06T18:38:51Z</time>
      </trkpt>
      <trkpt lat="42.821878" lon="-.711324">
        <ele>1108.038</ele>
        <time>2020-09-06T18:38:58Z</time>
      </trkpt>
      <trkpt lat="42.821927" lon="-.711345">
        <ele>1107.913</ele>
        <time>2020-09-06T18:39:08Z</time>
      </trkpt>
      <trkpt lat="42.821959" lon="-.711389">
        <ele>1107.961</ele>
        <time>2020-09-06T18:39:15Z</time>
      </trkpt>
      <trkpt lat="42.821998" lon="-.711422">
        <ele>1107.650</ele>
        <time>2020-09-06T18:39:37Z</time>
      </trkpt>
      <trkpt lat="42.821982" lon="-.711364">
        <ele>1108.123</ele>
        <time>2020-09-06T18:39:55Z</time>
      </trkpt>
      <trkpt lat="42.821966" lon="-.711301">
        <ele>1108.346</ele>
        <time>2020-09-06T18:40:01Z</time>
      </trkpt>
      <trkpt lat="42.822008" lon="-.711278">
        <ele>1108.447</ele>
        <time>2020-09-06T18:40:09Z</time>
      </trkpt>
      <trkpt lat="42.82204" lon="-.711327">
        <ele>1108.729</ele>
        <time>2020-09-06T18:40:24Z</time>
      </trkpt>
      <trkpt lat="42.822022" lon="-.711264">
        <ele>1109.121</ele>
        <time>2020-09-06T18:40:40Z</time>
      </trkpt>
      <trkpt lat="42.822068" lon="-.711265">
        <ele>1108.008</ele>
        <time>2020-09-06T18:40:57Z</time>
      </trkpt>
      <trkpt lat="42.822112" lon="-.711246">
        <ele>1107.019</ele>
        <time>2020-09-06T18:41:19Z</time>
      </trkpt>
      <trkpt lat="42.822156" lon="-.711224">
        <ele>1106.690</ele>
        <time>2020-09-06T18:41:26Z</time>
      </trkpt>
      <trkpt lat="42.822208" lon="-.711215">
        <ele>1106.586</ele>
        <time>2020-09-06T18:41:32Z</time>
      </trkpt>
      <trkpt lat="42.822254" lon="-.711224">
        <ele>1107.231</ele>
        <time>2020-09-06T18:41:39Z</time>
      </trkpt>
      <trkpt lat="42.822295" lon="-.711254">
        <ele>1107.419</ele>
        <time>2020-09-06T18:41:44Z</time>
      </trkpt>
      <trkpt lat="42.822341" lon="-.711277">
        <ele>1106.938</ele>
        <time>2020-09-06T18:41:49Z</time>
      </trkpt>
      <trkpt lat="42.822391" lon="-.711277">
        <ele>1105.521</ele>
        <time>2020-09-06T18:42:00Z</time>
      </trkpt>
      <trkpt lat="42.822435" lon="-.711298">
        <ele>1104.624</ele>
        <time>2020-09-06T18:42:06Z</time>
      </trkpt>
      <trkpt lat="42.82247" lon="-.711342">
        <ele>1103.847</ele>
        <time>2020-09-06T18:42:13Z</time>
      </trkpt>
      <trkpt lat="42.822515" lon="-.711371">
        <ele>1103.429</ele>
        <time>2020-09-06T18:42:19Z</time>
      </trkpt>
      <trkpt lat="42.822564" lon="-.711392">
        <ele>1103.221</ele>
        <time>2020-09-06T18:42:25Z</time>
      </trkpt>
      <trkpt lat="42.8226" lon="-.711438">
        <ele>1103.208</ele>
        <time>2020-09-06T18:42:31Z</time>
      </trkpt>
      <trkpt lat="42.822608" lon="-.711511">
        <ele>1104.089</ele>
        <time>2020-09-06T18:42:36Z</time>
      </trkpt>
      <trkpt lat="42.82265" lon="-.711544">
        <ele>1105.260</ele>
        <time>2020-09-06T18:42:45Z</time>
      </trkpt>
      <trkpt lat="42.822695" lon="-.711573">
        <ele>1106.116</ele>
        <time>2020-09-06T18:42:50Z</time>
      </trkpt>
      <trkpt lat="42.82274" lon="-.711579">
        <ele>1106.581</ele>
        <time>2020-09-06T18:42:56Z</time>
      </trkpt>
      <trkpt lat="42.822786" lon="-.711563">
        <ele>1106.739</ele>
        <time>2020-09-06T18:43:02Z</time>
      </trkpt>
      <trkpt lat="42.822833" lon="-.711542">
        <ele>1106.898</ele>
        <time>2020-09-06T18:43:10Z</time>
      </trkpt>
      <trkpt lat="42.822852" lon="-.711483">
        <ele>1106.811</ele>
        <time>2020-09-06T18:43:17Z</time>
      </trkpt>
      <trkpt lat="42.82288" lon="-.711434">
        <ele>1106.724</ele>
        <time>2020-09-06T18:43:24Z</time>
      </trkpt>
      <trkpt lat="42.822922" lon="-.711394">
        <ele>1106.672</ele>
        <time>2020-09-06T18:43:30Z</time>
      </trkpt>
      <trkpt lat="42.82296" lon="-.71136">
        <ele>1106.513</ele>
        <time>2020-09-06T18:43:35Z</time>
      </trkpt>
      <trkpt lat="42.823003" lon="-.711327">
        <ele>1106.614</ele>
        <time>2020-09-06T18:43:40Z</time>
      </trkpt>
      <trkpt lat="42.823049" lon="-.711294">
        <ele>1106.908</ele>
        <time>2020-09-06T18:43:44Z</time>
      </trkpt>
      <trkpt lat="42.823094" lon="-.711274">
        <ele>1107.192</ele>
        <time>2020-09-06T18:43:48Z</time>
      </trkpt>
      <trkpt lat="42.823141" lon="-.711259">
        <ele>1107.263</ele>
        <time>2020-09-06T18:43:53Z</time>
      </trkpt>
      <trkpt lat="42.823193" lon="-.71126">
        <ele>1107.459</ele>
        <time>2020-09-06T18:43:58Z</time>
      </trkpt>
      <trkpt lat="42.823245" lon="-.711255">
        <ele>1107.514</ele>
        <time>2020-09-06T18:44:02Z</time>
      </trkpt>
      <trkpt lat="42.823289" lon="-.711244">
        <ele>1107.372</ele>
        <time>2020-09-06T18:44:06Z</time>
      </trkpt>
      <trkpt lat="42.823336" lon="-.711249">
        <ele>1107.111</ele>
        <time>2020-09-06T18:44:11Z</time>
      </trkpt>
      <trkpt lat="42.823381" lon="-.711255">
        <ele>1106.794</ele>
        <time>2020-09-06T18:44:17Z</time>
      </trkpt>
      <trkpt lat="42.823427" lon="-.711237">
        <ele>1106.467</ele>
        <time>2020-09-06T18:44:22Z</time>
      </trkpt>
      <trkpt lat="42.823473" lon="-.711233">
        <ele>1106.028</ele>
        <time>2020-09-06T18:44:27Z</time>
      </trkpt>
      <trkpt lat="42.823518" lon="-.711249">
        <ele>1106.189</ele>
        <time>2020-09-06T18:44:31Z</time>
      </trkpt>
      <trkpt lat="42.823565" lon="-.711246">
        <ele>1106.517</ele>
        <time>2020-09-06T18:44:36Z</time>
      </trkpt>
      <trkpt lat="42.823616" lon="-.711233">
        <ele>1107.308</ele>
        <time>2020-09-06T18:44:41Z</time>
      </trkpt>
      <trkpt lat="42.823659" lon="-.71121">
        <ele>1108.117</ele>
        <time>2020-09-06T18:44:45Z</time>
      </trkpt>
      <trkpt lat="42.823706" lon="-.711221">
        <ele>1108.768</ele>
        <time>2020-09-06T18:44:50Z</time>
      </trkpt>
      <trkpt lat="42.823761" lon="-.711233">
        <ele>1109.074</ele>
        <time>2020-09-06T18:44:56Z</time>
      </trkpt>
      <trkpt lat="42.823802" lon="-.711266">
        <ele>1108.679</ele>
        <time>2020-09-06T18:45:02Z</time>
      </trkpt>
      <trkpt lat="42.82383" lon="-.711323">
        <ele>1107.917</ele>
        <time>2020-09-06T18:45:11Z</time>
      </trkpt>
      <trkpt lat="42.823863" lon="-.711371">
        <ele>1107.566</ele>
        <time>2020-09-06T18:45:18Z</time>
      </trkpt>
      <trkpt lat="42.823912" lon="-.711372">
        <ele>1107.249</ele>
        <time>2020-09-06T18:45:29Z</time>
      </trkpt>
      <trkpt lat="42.823953" lon="-.711346">
        <ele>1106.942</ele>
        <time>2020-09-06T18:45:36Z</time>
      </trkpt>
      <trkpt lat="42.823998" lon="-.711347">
        <ele>1106.569</ele>
        <time>2020-09-06T18:45:43Z</time>
      </trkpt>
      <trkpt lat="42.824043" lon="-.711346">
        <ele>1106.104</ele>
        <time>2020-09-06T18:45:51Z</time>
      </trkpt>
      <trkpt lat="42.824089" lon="-.711363">
        <ele>1105.724</ele>
        <time>2020-09-06T18:45:56Z</time>
      </trkpt>
      <trkpt lat="42.824137" lon="-.711352">
        <ele>1105.608</ele>
        <time>2020-09-06T18:46:01Z</time>
      </trkpt>
      <trkpt lat="42.82418" lon="-.711326">
        <ele>1105.691</ele>
        <time>2020-09-06T18:46:07Z</time>
      </trkpt>
      <trkpt lat="42.824226" lon="-.711312">
        <ele>1105.762</ele>
        <time>2020-09-06T18:46:13Z</time>
      </trkpt>
      <trkpt lat="42.824273" lon="-.711307">
        <ele>1105.888</ele>
        <time>2020-09-06T18:46:19Z</time>
      </trkpt>
      <trkpt lat="42.824316" lon="-.711334">
        <ele>1105.993</ele>
        <time>2020-09-06T18:46:28Z</time>
      </trkpt>
      <trkpt lat="42.82436" lon="-.711365">
        <ele>1106.021</ele>
        <time>2020-09-06T18:46:34Z</time>
      </trkpt>
      <trkpt lat="42.824406" lon="-.711359">
        <ele>1106.130</ele>
        <time>2020-09-06T18:46:41Z</time>
      </trkpt>
      <trkpt lat="42.824426" lon="-.711293">
        <ele>1106.673</ele>
        <time>2020-09-06T18:46:49Z</time>
      </trkpt>
      <trkpt lat="42.824431" lon="-.711228">
        <ele>1107.036</ele>
        <time>2020-09-06T18:46:59Z</time>
      </trkpt>
      <trkpt lat="42.824393" lon="-.711193">
        <ele>1107.587</ele>
        <time>2020-09-06T18:47:11Z</time>
      </trkpt>
      <trkpt lat="42.824347" lon="-.711207">
        <ele>1108.042</ele>
        <time>2020-09-06T18:47:19Z</time>
      </trkpt>
      <trkpt lat="42.824303" lon="-.711186">
        <ele>1108.726</ele>
        <time>2020-09-06T18:47:26Z</time>
      </trkpt>
      <trkpt lat="42.824349" lon="-.71119">
        <ele>1109.708</ele>
        <time>2020-09-06T18:47:41Z</time>
      </trkpt>
      <trkpt lat="42.824386" lon="-.711152">
        <ele>1110.513</ele>
        <time>2020-09-06T18:47:48Z</time>
      </trkpt>
      <trkpt lat="42.824417" lon="-.711104">
        <ele>1111.534</ele>
        <time>2020-09-06T18:47:59Z</time>
      </trkpt>
      <trkpt lat="42.824447" lon="-.711058">
        <ele>1112.310</ele>
        <time>2020-09-06T18:48:08Z</time>
      </trkpt>
      <trkpt lat="42.82448" lon="-.711014">
        <ele>1112.965</ele>
        <time>2020-09-06T18:48:21Z</time>
      </trkpt>
      <trkpt lat="42.82452" lon="-.710985">
        <ele>1113.543</ele>
        <time>2020-09-06T18:48:28Z</time>
      </trkpt>
      <trkpt lat="42.824559" lon="-.710954">
        <ele>1114.052</ele>
        <time>2020-09-06T18:48:40Z</time>
      </trkpt>
      <trkpt lat="42.824515" lon="-.710935">
        <ele>1114.765</ele>
        <time>2020-09-06T18:48:59Z</time>
      </trkpt>
      <trkpt lat="42.824531" lon="-.710873">
        <ele>1115.468</ele>
        <time>2020-09-06T18:49:10Z</time>
      </trkpt>
      <trkpt lat="42.824567" lon="-.710826">
        <ele>1116.057</ele>
        <time>2020-09-06T18:49:18Z</time>
      </trkpt>
      <trkpt lat="42.824594" lon="-.710771">
        <ele>1116.600</ele>
        <time>2020-09-06T18:49:25Z</time>
      </trkpt>
      <trkpt lat="42.824566" lon="-.710721">
        <ele>1117.420</ele>
        <time>2020-09-06T18:49:38Z</time>
      </trkpt>
      <trkpt lat="42.824564" lon="-.710645">
        <ele>1117.808</ele>
        <time>2020-09-06T18:50:12Z</time>
      </trkpt>
      <trkpt lat="42.824522" lon="-.710612">
        <ele>1118.620</ele>
        <time>2020-09-06T18:50:24Z</time>
      </trkpt>
      <trkpt lat="42.824478" lon="-.710637">
        <ele>1119.591</ele>
        <time>2020-09-06T18:50:30Z</time>
      </trkpt>
      <trkpt lat="42.824433" lon="-.710662">
        <ele>1120.317</ele>
        <time>2020-09-06T18:50:35Z</time>
      </trkpt>
      <trkpt lat="42.824448" lon="-.710601">
        <ele>1121.752</ele>
        <time>2020-09-06T18:50:48Z</time>
      </trkpt>
      <trkpt lat="42.82449" lon="-.710574">
        <ele>1125.770</ele>
        <time>2020-09-06T18:51:04Z</time>
      </trkpt>
      <trkpt lat="42.82454" lon="-.710571">
        <ele>1129.519</ele>
        <time>2020-09-06T18:51:10Z</time>
      </trkpt>
      <trkpt lat="42.824589" lon="-.710571">
        <ele>1132.282</ele>
        <time>2020-09-06T18:51:16Z</time>
      </trkpt>
      <trkpt lat="42.824637" lon="-.710579">
        <ele>1134.155</ele>
        <time>2020-09-06T18:51:20Z</time>
      </trkpt>
      <trkpt lat="42.824682" lon="-.710583">
        <ele>1135.719</ele>
        <time>2020-09-06T18:51:26Z</time>
      </trkpt>
      <trkpt lat="42.824731" lon="-.710576">
        <ele>1137.109</ele>
        <time>2020-09-06T18:51:30Z</time>
      </trkpt>
      <trkpt lat="42.824778" lon="-.710563">
        <ele>1139.219</ele>
        <time>2020-09-06T18:51:35Z</time>
      </trkpt>
      <trkpt lat="42.824778" lon="-.710563">
        <ele>1139.208</ele>
        <time>2020-09-06T18:51:35Z</time>
      </trkpt>
      <trkpt lat="42.82482" lon="-.710539">
        <ele>1140.836</ele>
        <time>2020-09-06T18:51:40Z</time>
      </trkpt>
      <trkpt lat="42.824867" lon="-.710542">
        <ele>1142.067</ele>
        <time>2020-09-06T18:51:50Z</time>
      </trkpt>
      <trkpt lat="42.824908" lon="-.710574">
        <ele>1142.753</ele>
        <time>2020-09-06T18:51:55Z</time>
      </trkpt>
      <trkpt lat="42.824937" lon="-.710621">
        <ele>1143.018</ele>
        <time>2020-09-06T18:52:01Z</time>
      </trkpt>
      <trkpt lat="42.824977" lon="-.710655">
        <ele>1143.156</ele>
        <time>2020-09-06T18:52:06Z</time>
      </trkpt>
      <trkpt lat="42.825024" lon="-.710651">
        <ele>1143.355</ele>
        <time>2020-09-06T18:52:10Z</time>
      </trkpt>
      <trkpt lat="42.825072" lon="-.710631">
        <ele>1143.538</ele>
        <time>2020-09-06T18:52:14Z</time>
      </trkpt>
      <trkpt lat="42.825111" lon="-.710596">
        <ele>1143.891</ele>
        <time>2020-09-06T18:52:18Z</time>
      </trkpt>
      <trkpt lat="42.825144" lon="-.710553">
        <ele>1143.985</ele>
        <time>2020-09-06T18:52:23Z</time>
      </trkpt>
      <trkpt lat="42.825183" lon="-.710518">
        <ele>1144.089</ele>
        <time>2020-09-06T18:52:30Z</time>
      </trkpt>
      <trkpt lat="42.82523" lon="-.710495">
        <ele>1144.717</ele>
        <time>2020-09-06T18:52:43Z</time>
      </trkpt>
      <trkpt lat="42.825277" lon="-.710483">
        <ele>1145.808</ele>
        <time>2020-09-06T18:52:49Z</time>
      </trkpt>
      <trkpt lat="42.825322" lon="-.710472">
        <ele>1146.673</ele>
        <time>2020-09-06T18:52:55Z</time>
      </trkpt>
      <trkpt lat="42.825359" lon="-.710437">
        <ele>1147.154</ele>
        <time>2020-09-06T18:53:03Z</time>
      </trkpt>
      <trkpt lat="42.825384" lon="-.710381">
        <ele>1147.990</ele>
        <time>2020-09-06T18:53:10Z</time>
      </trkpt>
      <trkpt lat="42.825435" lon="-.710379">
        <ele>1148.745</ele>
        <time>2020-09-06T18:53:17Z</time>
      </trkpt>
      <trkpt lat="42.825478" lon="-.710403">
        <ele>1149.283</ele>
        <time>2020-09-06T18:53:23Z</time>
      </trkpt>
      <trkpt lat="42.825518" lon="-.710362">
        <ele>1149.642</ele>
        <time>2020-09-06T18:53:30Z</time>
      </trkpt>
      <trkpt lat="42.825546" lon="-.71031">
        <ele>1149.845</ele>
        <time>2020-09-06T18:53:38Z</time>
      </trkpt>
      <trkpt lat="42.825591" lon="-.710288">
        <ele>1150.178</ele>
        <time>2020-09-06T18:53:45Z</time>
      </trkpt>
      <trkpt lat="42.825635" lon="-.710255">
        <ele>1150.971</ele>
        <time>2020-09-06T18:53:54Z</time>
      </trkpt>
      <trkpt lat="42.825667" lon="-.710201">
        <ele>1151.541</ele>
        <time>2020-09-06T18:54:01Z</time>
      </trkpt>
      <trkpt lat="42.825716" lon="-.710196">
        <ele>1152.415</ele>
        <time>2020-09-06T18:54:09Z</time>
      </trkpt>
      <trkpt lat="42.825759" lon="-.710167">
        <ele>1153.608</ele>
        <time>2020-09-06T18:54:16Z</time>
      </trkpt>
      <trkpt lat="42.825799" lon="-.710139">
        <ele>1155.292</ele>
        <time>2020-09-06T18:54:24Z</time>
      </trkpt>
      <trkpt lat="42.825847" lon="-.71014">
        <ele>1156.743</ele>
        <time>2020-09-06T18:54:31Z</time>
      </trkpt>
      <trkpt lat="42.82589" lon="-.710163">
        <ele>1158.749</ele>
        <time>2020-09-06T18:54:39Z</time>
      </trkpt>
      <trkpt lat="42.82594" lon="-.710174">
        <ele>1161.134</ele>
        <time>2020-09-06T18:54:47Z</time>
      </trkpt>
      <trkpt lat="42.825994" lon="-.710172">
        <ele>1163.042</ele>
        <time>2020-09-06T18:54:52Z</time>
      </trkpt>
      <trkpt lat="42.826044" lon="-.710172">
        <ele>1164.361</ele>
        <time>2020-09-06T18:54:56Z</time>
      </trkpt>
      <trkpt lat="42.82609" lon="-.710169">
        <ele>1165.494</ele>
        <time>2020-09-06T18:55:00Z</time>
      </trkpt>
      <trkpt lat="42.826138" lon="-.710174">
        <ele>1166.517</ele>
        <time>2020-09-06T18:55:07Z</time>
      </trkpt>
      <trkpt lat="42.826183" lon="-.710168">
        <ele>1168.072</ele>
        <time>2020-09-06T18:55:12Z</time>
      </trkpt>
      <trkpt lat="42.826229" lon="-.710158">
        <ele>1169.013</ele>
        <time>2020-09-06T18:55:16Z</time>
      </trkpt>
      <trkpt lat="42.826276" lon="-.710114">
        <ele>1169.614</ele>
        <time>2020-09-06T18:55:22Z</time>
      </trkpt>
      <trkpt lat="42.826318" lon="-.710079">
        <ele>1170.008</ele>
        <time>2020-09-06T18:55:27Z</time>
      </trkpt>
      <trkpt lat="42.826344" lon="-.710021">
        <ele>1170.492</ele>
        <time>2020-09-06T18:55:35Z</time>
      </trkpt>
      <trkpt lat="42.826421" lon="-.710035">
        <ele>1171.593</ele>
        <time>2020-09-06T18:55:56Z</time>
      </trkpt>
      <trkpt lat="42.826478" lon="-.710046">
        <ele>1172.969</ele>
        <time>2020-09-06T18:55:58Z</time>
      </trkpt>
      <trkpt lat="42.826523" lon="-.710055">
        <ele>1174.054</ele>
        <time>2020-09-06T18:56:01Z</time>
      </trkpt>
      <trkpt lat="42.826468" lon="-.710021">
        <ele>1178.042</ele>
        <time>2020-09-06T18:58:20Z</time>
      </trkpt>
      <trkpt lat="42.826515" lon="-.71002">
        <ele>1182.041</ele>
        <time>2020-09-06T18:59:14Z</time>
      </trkpt>
      <trkpt lat="42.826566" lon="-.710033">
        <ele>1185.994</ele>
        <time>2020-09-06T18:59:17Z</time>
      </trkpt>
      <trkpt lat="42.826612" lon="-.710042">
        <ele>1188.427</ele>
        <time>2020-09-06T18:59:22Z</time>
      </trkpt>
      <trkpt lat="42.826659" lon="-.71005">
        <ele>1190.016</ele>
        <time>2020-09-06T18:59:40Z</time>
      </trkpt>
      <trkpt lat="42.826709" lon="-.710064">
        <ele>1190.776</ele>
        <time>2020-09-06T18:59:47Z</time>
      </trkpt>
      <trkpt lat="42.82676" lon="-.710073">
        <ele>1191.113</ele>
        <time>2020-09-06T18:59:52Z</time>
      </trkpt>
      <trkpt lat="42.82681" lon="-.710095">
        <ele>1191.408</ele>
        <time>2020-09-06T18:59:57Z</time>
      </trkpt>
      <trkpt lat="42.826855" lon="-.710118">
        <ele>1191.686</ele>
        <time>2020-09-06T19:00:04Z</time>
      </trkpt>
      <trkpt lat="42.8269" lon="-.710098">
        <ele>1191.357</ele>
        <time>2020-09-06T19:00:24Z</time>
      </trkpt>
      <trkpt lat="42.826947" lon="-.710086">
        <ele>1190.933</ele>
        <time>2020-09-06T19:00:37Z</time>
      </trkpt>
      <trkpt lat="42.826994" lon="-.710088">
        <ele>1190.878</ele>
        <time>2020-09-06T19:00:42Z</time>
      </trkpt>
      <trkpt lat="42.827036" lon="-.710064">
        <ele>1190.936</ele>
        <time>2020-09-06T19:00:47Z</time>
      </trkpt>
      <trkpt lat="42.82706" lon="-.710008">
        <ele>1190.555</ele>
        <time>2020-09-06T19:00:53Z</time>
      </trkpt>
      <trkpt lat="42.827084" lon="-.709948">
        <ele>1190.258</ele>
        <time>2020-09-06T19:00:58Z</time>
      </trkpt>
      <trkpt lat="42.827114" lon="-.70989">
        <ele>1190.091</ele>
        <time>2020-09-06T19:01:03Z</time>
      </trkpt>
      <trkpt lat="42.827157" lon="-.709849">
        <ele>1189.769</ele>
        <time>2020-09-06T19:01:07Z</time>
      </trkpt>
      <trkpt lat="42.82719" lon="-.709804">
        <ele>1189.304</ele>
        <time>2020-09-06T19:01:11Z</time>
      </trkpt>
      <trkpt lat="42.827209" lon="-.709743">
        <ele>1188.824</ele>
        <time>2020-09-06T19:01:16Z</time>
      </trkpt>
      <trkpt lat="42.827221" lon="-.709677">
        <ele>1188.008</ele>
        <time>2020-09-06T19:01:21Z</time>
      </trkpt>
      <trkpt lat="42.827206" lon="-.709616">
        <ele>1187.191</ele>
        <time>2020-09-06T19:01:30Z</time>
      </trkpt>
      <trkpt lat="42.827192" lon="-.709558">
        <ele>1186.462</ele>
        <time>2020-09-06T19:01:36Z</time>
      </trkpt>
      <trkpt lat="42.827165" lon="-.709509">
        <ele>1185.938</ele>
        <time>2020-09-06T19:01:40Z</time>
      </trkpt>
      <trkpt lat="42.827143" lon="-.709455">
        <ele>1185.353</ele>
        <time>2020-09-06T19:01:46Z</time>
      </trkpt>
      <trkpt lat="42.827174" lon="-.709409">
        <ele>1184.971</ele>
        <time>2020-09-06T19:01:59Z</time>
      </trkpt>
      <trkpt lat="42.82715" lon="-.709349">
        <ele>1184.860</ele>
        <time>2020-09-06T19:02:06Z</time>
      </trkpt>
      <trkpt lat="42.827174" lon="-.709294">
        <ele>1184.733</ele>
        <time>2020-09-06T19:02:20Z</time>
      </trkpt>
      <trkpt lat="42.827185" lon="-.709234">
        <ele>1184.756</ele>
        <time>2020-09-06T19:02:24Z</time>
      </trkpt>
      <trkpt lat="42.82718" lon="-.709167">
        <ele>1184.638</ele>
        <time>2020-09-06T19:02:28Z</time>
      </trkpt>
      <trkpt lat="42.827162" lon="-.709097">
        <ele>1184.270</ele>
        <time>2020-09-06T19:02:33Z</time>
      </trkpt>
      <trkpt lat="42.827135" lon="-.709039">
        <ele>1183.717</ele>
        <time>2020-09-06T19:02:37Z</time>
      </trkpt>
      <trkpt lat="42.827114" lon="-.708974">
        <ele>1183.408</ele>
        <time>2020-09-06T19:02:41Z</time>
      </trkpt>
      <trkpt lat="42.827101" lon="-.708913">
        <ele>1183.028</ele>
        <time>2020-09-06T19:02:46Z</time>
      </trkpt>
      <trkpt lat="42.827105" lon="-.708848">
        <ele>1182.799</ele>
        <time>2020-09-06T19:02:52Z</time>
      </trkpt>
      <trkpt lat="42.82712" lon="-.708789">
        <ele>1182.425</ele>
        <time>2020-09-06T19:02:58Z</time>
      </trkpt>
      <trkpt lat="42.827122" lon="-.70872">
        <ele>1181.650</ele>
        <time>2020-09-06T19:03:05Z</time>
      </trkpt>
      <trkpt lat="42.827106" lon="-.708661">
        <ele>1180.868</ele>
        <time>2020-09-06T19:03:10Z</time>
      </trkpt>
      <trkpt lat="42.827109" lon="-.708599">
        <ele>1180.257</ele>
        <time>2020-09-06T19:03:15Z</time>
      </trkpt>
      <trkpt lat="42.827089" lon="-.708538">
        <ele>1179.890</ele>
        <time>2020-09-06T19:03:21Z</time>
      </trkpt>
      <trkpt lat="42.827075" lon="-.708478">
        <ele>1179.493</ele>
        <time>2020-09-06T19:03:28Z</time>
      </trkpt>
      <trkpt lat="42.82709" lon="-.708413">
        <ele>1179.332</ele>
        <time>2020-09-06T19:03:35Z</time>
      </trkpt>
      <trkpt lat="42.827115" lon="-.708354">
        <ele>1179.492</ele>
        <time>2020-09-06T19:03:42Z</time>
      </trkpt>
      <trkpt lat="42.827142" lon="-.708305">
        <ele>1179.511</ele>
        <time>2020-09-06T19:03:48Z</time>
      </trkpt>
      <trkpt lat="42.827173" lon="-.70826">
        <ele>1179.608</ele>
        <time>2020-09-06T19:03:55Z</time>
      </trkpt>
      <trkpt lat="42.82718" lon="-.708199">
        <ele>1179.748</ele>
        <time>2020-09-06T19:04:01Z</time>
      </trkpt>
      <trkpt lat="42.827178" lon="-.708134">
        <ele>1179.999</ele>
        <time>2020-09-06T19:04:07Z</time>
      </trkpt>
      <trkpt lat="42.827199" lon="-.708071">
        <ele>1180.095</ele>
        <time>2020-09-06T19:04:15Z</time>
      </trkpt>
      <trkpt lat="42.827213" lon="-.708012">
        <ele>1180.130</ele>
        <time>2020-09-06T19:04:22Z</time>
      </trkpt>
      <trkpt lat="42.827197" lon="-.707945">
        <ele>1180.228</ele>
        <time>2020-09-06T19:04:30Z</time>
      </trkpt>
      <trkpt lat="42.827186" lon="-.70788">
        <ele>1180.367</ele>
        <time>2020-09-06T19:04:35Z</time>
      </trkpt>
      <trkpt lat="42.827193" lon="-.707814">
        <ele>1180.430</ele>
        <time>2020-09-06T19:04:41Z</time>
      </trkpt>
      <trkpt lat="42.827197" lon="-.70775">
        <ele>1180.253</ele>
        <time>2020-09-06T19:04:46Z</time>
      </trkpt>
      <trkpt lat="42.827186" lon="-.70769">
        <ele>1180.149</ele>
        <time>2020-09-06T19:04:54Z</time>
      </trkpt>
      <trkpt lat="42.827185" lon="-.707621">
        <ele>1179.602</ele>
        <time>2020-09-06T19:05:01Z</time>
      </trkpt>
      <trkpt lat="42.827199" lon="-.707562">
        <ele>1179.322</ele>
        <time>2020-09-06T19:05:05Z</time>
      </trkpt>
      <trkpt lat="42.82722" lon="-.707505">
        <ele>1179.108</ele>
        <time>2020-09-06T19:05:09Z</time>
      </trkpt>
      <trkpt lat="42.827235" lon="-.707446">
        <ele>1179.059</ele>
        <time>2020-09-06T19:05:13Z</time>
      </trkpt>
      <trkpt lat="42.827249" lon="-.707384">
        <ele>1178.940</ele>
        <time>2020-09-06T19:05:17Z</time>
      </trkpt>
      <trkpt lat="42.827268" lon="-.707322">
        <ele>1178.826</ele>
        <time>2020-09-06T19:05:24Z</time>
      </trkpt>
      <trkpt lat="42.827275" lon="-.707256">
        <ele>1178.761</ele>
        <time>2020-09-06T19:05:31Z</time>
      </trkpt>
      <trkpt lat="42.827284" lon="-.707194">
        <ele>1178.689</ele>
        <time>2020-09-06T19:05:36Z</time>
      </trkpt>
      <trkpt lat="42.827281" lon="-.707129">
        <ele>1178.588</ele>
        <time>2020-09-06T19:05:43Z</time>
      </trkpt>
      <trkpt lat="42.827259" lon="-.707065">
        <ele>1178.331</ele>
        <time>2020-09-06T19:05:49Z</time>
      </trkpt>
      <trkpt lat="42.827232" lon="-.707016">
        <ele>1178.264</ele>
        <time>2020-09-06T19:05:55Z</time>
      </trkpt>
      <trkpt lat="42.827204" lon="-.706961">
        <ele>1178.181</ele>
        <time>2020-09-06T19:06:01Z</time>
      </trkpt>
      <trkpt lat="42.827186" lon="-.7069">
        <ele>1178.061</ele>
        <time>2020-09-06T19:06:07Z</time>
      </trkpt>
      <trkpt lat="42.827179" lon="-.706828">
        <ele>1178.117</ele>
        <time>2020-09-06T19:06:12Z</time>
      </trkpt>
      <trkpt lat="42.827181" lon="-.706751">
        <ele>1178.108</ele>
        <time>2020-09-06T19:06:17Z</time>
      </trkpt>
      <trkpt lat="42.82719" lon="-.70669">
        <ele>1178.013</ele>
        <time>2020-09-06T19:06:27Z</time>
      </trkpt>
      <trkpt lat="42.827181" lon="-.7066">
        <ele>1177.454</ele>
        <time>2020-09-06T19:06:37Z</time>
      </trkpt>
      <trkpt lat="42.827164" lon="-.706537">
        <ele>1176.880</ele>
        <time>2020-09-06T19:06:44Z</time>
      </trkpt>
      <trkpt lat="42.82715" lon="-.706476">
        <ele>1176.395</ele>
        <time>2020-09-06T19:06:49Z</time>
      </trkpt>
      <trkpt lat="42.827149" lon="-.706414">
        <ele>1176.093</ele>
        <time>2020-09-06T19:06:54Z</time>
      </trkpt>
      <trkpt lat="42.827136" lon="-.706349">
        <ele>1175.932</ele>
        <time>2020-09-06T19:06:59Z</time>
      </trkpt>
      <trkpt lat="42.827122" lon="-.70629">
        <ele>1176.095</ele>
        <time>2020-09-06T19:07:05Z</time>
      </trkpt>
      <trkpt lat="42.827129" lon="-.706222">
        <ele>1176.248</ele>
        <time>2020-09-06T19:07:10Z</time>
      </trkpt>
      <trkpt lat="42.827133" lon="-.706156">
        <ele>1176.668</ele>
        <time>2020-09-06T19:07:18Z</time>
      </trkpt>
      <trkpt lat="42.827124" lon="-.706095">
        <ele>1177.042</ele>
        <time>2020-09-06T19:07:23Z</time>
      </trkpt>
      <trkpt lat="42.827106" lon="-.706037">
        <ele>1177.626</ele>
        <time>2020-09-06T19:07:30Z</time>
      </trkpt>
      <trkpt lat="42.827083" lon="-.705983">
        <ele>1178.308</ele>
        <time>2020-09-06T19:07:36Z</time>
      </trkpt>
      <trkpt lat="42.8271" lon="-.705923">
        <ele>1179.291</ele>
        <time>2020-09-06T19:07:43Z</time>
      </trkpt>
      <trkpt lat="42.827115" lon="-.70586">
        <ele>1180.042</ele>
        <time>2020-09-06T19:07:53Z</time>
      </trkpt>
      <trkpt lat="42.827125" lon="-.7058">
        <ele>1180.028</ele>
        <time>2020-09-06T19:08:00Z</time>
      </trkpt>
      <trkpt lat="42.827144" lon="-.705741">
        <ele>1179.563</ele>
        <time>2020-09-06T19:08:07Z</time>
      </trkpt>
      <trkpt lat="42.827164" lon="-.70568">
        <ele>1179.111</ele>
        <time>2020-09-06T19:08:13Z</time>
      </trkpt>
      <trkpt lat="42.827195" lon="-.705629">
        <ele>1178.870</ele>
        <time>2020-09-06T19:08:38Z</time>
      </trkpt>
      <trkpt lat="42.827235" lon="-.705592">
        <ele>1178.693</ele>
        <time>2020-09-06T19:08:46Z</time>
      </trkpt>
      <trkpt lat="42.827286" lon="-.705582">
        <ele>1178.546</ele>
        <time>2020-09-06T19:08:51Z</time>
      </trkpt>
      <trkpt lat="42.827335" lon="-.705578">
        <ele>1178.496</ele>
        <time>2020-09-06T19:08:54Z</time>
      </trkpt>
      <trkpt lat="42.827312" lon="-.705512">
        <ele>1177.431</ele>
        <time>2020-09-06T19:09:27Z</time>
      </trkpt>
      <trkpt lat="42.827301" lon="-.705448">
        <ele>1176.724</ele>
        <time>2020-09-06T19:09:34Z</time>
      </trkpt>
      <trkpt lat="42.827318" lon="-.705389">
        <ele>1176.308</ele>
        <time>2020-09-06T19:09:46Z</time>
      </trkpt>
      <trkpt lat="42.827233" lon="-.705405">
        <ele>1175.834</ele>
        <time>2020-09-06T19:10:24Z</time>
      </trkpt>
      <trkpt lat="42.82719" lon="-.705428">
        <ele>1175.595</ele>
        <time>2020-09-06T19:10:27Z</time>
      </trkpt>
      <trkpt lat="42.827251" lon="-.70542">
        <ele>1175.211</ele>
        <time>2020-09-06T19:10:42Z</time>
      </trkpt>
      <trkpt lat="42.827297" lon="-.705389">
        <ele>1174.136</ele>
        <time>2020-09-06T19:12:14Z</time>
      </trkpt>
      <trkpt lat="42.82727" lon="-.705336">
        <ele>1173.744</ele>
        <time>2020-09-06T19:12:56Z</time>
      </trkpt>
      <trkpt lat="42.82727" lon="-.70527">
        <ele>1173.963</ele>
        <time>2020-09-06T19:13:07Z</time>
      </trkpt>
      <trkpt lat="42.827307" lon="-.705234">
        <ele>1174.146</ele>
        <time>2020-09-06T19:13:15Z</time>
      </trkpt>
      <trkpt lat="42.827338" lon="-.705283">
        <ele>1174.959</ele>
        <time>2020-09-06T19:13:23Z</time>
      </trkpt>
      <trkpt lat="42.827371" lon="-.705325">
        <ele>1175.551</ele>
        <time>2020-09-06T19:13:26Z</time>
      </trkpt>
      <trkpt lat="42.827405" lon="-.705369">
        <ele>1176.001</ele>
        <time>2020-09-06T19:13:30Z</time>
      </trkpt>
      <trkpt lat="42.827435" lon="-.705418">
        <ele>1176.511</ele>
        <time>2020-09-06T19:13:33Z</time>
      </trkpt>
      <trkpt lat="42.827465" lon="-.705467">
        <ele>1176.908</ele>
        <time>2020-09-06T19:13:36Z</time>
      </trkpt>
      <trkpt lat="42.827504" lon="-.705518">
        <ele>1177.220</ele>
        <time>2020-09-06T19:13:40Z</time>
      </trkpt>
      <trkpt lat="42.827539" lon="-.705563">
        <ele>1177.521</ele>
        <time>2020-09-06T19:13:44Z</time>
      </trkpt>
      <trkpt lat="42.827571" lon="-.705616">
        <ele>1177.897</ele>
        <time>2020-09-06T19:13:48Z</time>
      </trkpt>
      <trkpt lat="42.827594" lon="-.70567">
        <ele>1178.132</ele>
        <time>2020-09-06T19:13:53Z</time>
      </trkpt>
      <trkpt lat="42.827606" lon="-.705735">
        <ele>1178.450</ele>
        <time>2020-09-06T19:13:59Z</time>
      </trkpt>
      <trkpt lat="42.827615" lon="-.705797">
        <ele>1178.779</ele>
        <time>2020-09-06T19:14:04Z</time>
      </trkpt>
      <trkpt lat="42.827629" lon="-.705857">
        <ele>1178.962</ele>
        <time>2020-09-06T19:14:08Z</time>
      </trkpt>
      <trkpt lat="42.827647" lon="-.705916">
        <ele>1179.075</ele>
        <time>2020-09-06T19:14:13Z</time>
      </trkpt>
      <trkpt lat="42.827673" lon="-.705973">
        <ele>1179.134</ele>
        <time>2020-09-06T19:14:17Z</time>
      </trkpt>
      <trkpt lat="42.827704" lon="-.706021">
        <ele>1179.255</ele>
        <time>2020-09-06T19:14:21Z</time>
      </trkpt>
      <trkpt lat="42.82773" lon="-.706075">
        <ele>1179.310</ele>
        <time>2020-09-06T19:14:25Z</time>
      </trkpt>
      <trkpt lat="42.827756" lon="-.706127">
        <ele>1179.508</ele>
        <time>2020-09-06T19:14:29Z</time>
      </trkpt>
      <trkpt lat="42.827761" lon="-.706189">
        <ele>1179.738</ele>
        <time>2020-09-06T19:14:35Z</time>
      </trkpt>
      <trkpt lat="42.827771" lon="-.706255">
        <ele>1179.879</ele>
        <time>2020-09-06T19:14:39Z</time>
      </trkpt>
      <trkpt lat="42.827789" lon="-.706313">
        <ele>1179.995</ele>
        <time>2020-09-06T19:14:43Z</time>
      </trkpt>
      <trkpt lat="42.827814" lon="-.706378">
        <ele>1180.120</ele>
        <time>2020-09-06T19:14:47Z</time>
      </trkpt>
      <trkpt lat="42.827835" lon="-.70644">
        <ele>1180.388</ele>
        <time>2020-09-06T19:14:51Z</time>
      </trkpt>
      <trkpt lat="42.827851" lon="-.7065">
        <ele>1180.587</ele>
        <time>2020-09-06T19:14:55Z</time>
      </trkpt>
      <trkpt lat="42.827878" lon="-.706559">
        <ele>1180.830</ele>
        <time>2020-09-06T19:15:00Z</time>
      </trkpt>
      <trkpt lat="42.827897" lon="-.706618">
        <ele>1181.373</ele>
        <time>2020-09-06T19:15:05Z</time>
      </trkpt>
      <trkpt lat="42.827908" lon="-.706679">
        <ele>1181.787</ele>
        <time>2020-09-06T19:15:10Z</time>
      </trkpt>
      <trkpt lat="42.827909" lon="-.706744">
        <ele>1182.142</ele>
        <time>2020-09-06T19:15:14Z</time>
      </trkpt>
      <trkpt lat="42.827897" lon="-.706803">
        <ele>1182.526</ele>
        <time>2020-09-06T19:15:18Z</time>
      </trkpt>
      <trkpt lat="42.82788" lon="-.706874">
        <ele>1182.808</ele>
        <time>2020-09-06T19:15:22Z</time>
      </trkpt>
      <trkpt lat="42.82787" lon="-.70694">
        <ele>1183.153</ele>
        <time>2020-09-06T19:15:26Z</time>
      </trkpt>
      <trkpt lat="42.827862" lon="-.707002">
        <ele>1183.364</ele>
        <time>2020-09-06T19:15:30Z</time>
      </trkpt>
      <trkpt lat="42.82787" lon="-.707076">
        <ele>1183.530</ele>
        <time>2020-09-06T19:15:34Z</time>
      </trkpt>
      <trkpt lat="42.827889" lon="-.707149">
        <ele>1183.785</ele>
        <time>2020-09-06T19:15:37Z</time>
      </trkpt>
      <trkpt lat="42.827911" lon="-.70721">
        <ele>1183.963</ele>
        <time>2020-09-06T19:15:40Z</time>
      </trkpt>
      <trkpt lat="42.827934" lon="-.707265">
        <ele>1184.012</ele>
        <time>2020-09-06T19:15:43Z</time>
      </trkpt>
      <trkpt lat="42.827953" lon="-.707322">
        <ele>1184.295</ele>
        <time>2020-09-06T19:15:47Z</time>
      </trkpt>
      <trkpt lat="42.827977" lon="-.707387">
        <ele>1184.348</ele>
        <time>2020-09-06T19:15:52Z</time>
      </trkpt>
      <trkpt lat="42.827999" lon="-.707449">
        <ele>1184.434</ele>
        <time>2020-09-06T19:15:56Z</time>
      </trkpt>
      <trkpt lat="42.828022" lon="-.707506">
        <ele>1184.655</ele>
        <time>2020-09-06T19:16:00Z</time>
      </trkpt>
      <trkpt lat="42.828043" lon="-.707568">
        <ele>1184.910</ele>
        <time>2020-09-06T19:16:05Z</time>
      </trkpt>
      <trkpt lat="42.82807" lon="-.707628">
        <ele>1185.208</ele>
        <time>2020-09-06T19:16:10Z</time>
      </trkpt>
      <trkpt lat="42.82809" lon="-.707686">
        <ele>1185.418</ele>
        <time>2020-09-06T19:16:14Z</time>
      </trkpt>
      <trkpt lat="42.828097" lon="-.707753">
        <ele>1185.639</ele>
        <time>2020-09-06T19:16:19Z</time>
      </trkpt>
      <trkpt lat="42.828104" lon="-.707818">
        <ele>1185.995</ele>
        <time>2020-09-06T19:16:24Z</time>
      </trkpt>
      <trkpt lat="42.828111" lon="-.707888">
        <ele>1186.210</ele>
        <time>2020-09-06T19:16:29Z</time>
      </trkpt>
      <trkpt lat="42.828124" lon="-.70796">
        <ele>1186.628</ele>
        <time>2020-09-06T19:16:33Z</time>
      </trkpt>
      <trkpt lat="42.828145" lon="-.708036">
        <ele>1187.037</ele>
        <time>2020-09-06T19:16:37Z</time>
      </trkpt>
      <trkpt lat="42.828161" lon="-.7081">
        <ele>1187.360</ele>
        <time>2020-09-06T19:16:40Z</time>
      </trkpt>
      <trkpt lat="42.828179" lon="-.708175">
        <ele>1187.743</ele>
        <time>2020-09-06T19:16:44Z</time>
      </trkpt>
      <trkpt lat="42.828198" lon="-.708235">
        <ele>1188.048</ele>
        <time>2020-09-06T19:16:48Z</time>
      </trkpt>
      <trkpt lat="42.828222" lon="-.708287">
        <ele>1188.261</ele>
        <time>2020-09-06T19:16:54Z</time>
      </trkpt>
      <trkpt lat="42.828239" lon="-.708348">
        <ele>1188.417</ele>
        <time>2020-09-06T19:16:59Z</time>
      </trkpt>
      <trkpt lat="42.828257" lon="-.708414">
        <ele>1188.808</ele>
        <time>2020-09-06T19:17:03Z</time>
      </trkpt>
      <trkpt lat="42.828276" lon="-.70847">
        <ele>1189.149</ele>
        <time>2020-09-06T19:17:05Z</time>
      </trkpt>
      <trkpt lat="42.828298" lon="-.708529">
        <ele>1189.320</ele>
        <time>2020-09-06T19:17:08Z</time>
      </trkpt>
      <trkpt lat="42.828325" lon="-.70858">
        <ele>1189.586</ele>
        <time>2020-09-06T19:17:13Z</time>
      </trkpt>
      <trkpt lat="42.82836" lon="-.708621">
        <ele>1189.771</ele>
        <time>2020-09-06T19:17:19Z</time>
      </trkpt>
      <trkpt lat="42.828399" lon="-.708651">
        <ele>1189.819</ele>
        <time>2020-09-06T19:17:24Z</time>
      </trkpt>
      <trkpt lat="42.828433" lon="-.708698">
        <ele>1189.818</ele>
        <time>2020-09-06T19:17:29Z</time>
      </trkpt>
      <trkpt lat="42.828467" lon="-.708758">
        <ele>1189.461</ele>
        <time>2020-09-06T19:17:33Z</time>
      </trkpt>
      <trkpt lat="42.828498" lon="-.70881">
        <ele>1189.184</ele>
        <time>2020-09-06T19:17:37Z</time>
      </trkpt>
      <trkpt lat="42.82853" lon="-.708864">
        <ele>1188.689</ele>
        <time>2020-09-06T19:17:41Z</time>
      </trkpt>
      <trkpt lat="42.828559" lon="-.708919">
        <ele>1188.206</ele>
        <time>2020-09-06T19:17:46Z</time>
      </trkpt>
      <trkpt lat="42.828576" lon="-.708985">
        <ele>1187.926</ele>
        <time>2020-09-06T19:17:50Z</time>
      </trkpt>
      <trkpt lat="42.828584" lon="-.709049">
        <ele>1187.708</ele>
        <time>2020-09-06T19:17:55Z</time>
      </trkpt>
      <trkpt lat="42.828579" lon="-.709126">
        <ele>1187.533</ele>
        <time>2020-09-06T19:18:01Z</time>
      </trkpt>
      <trkpt lat="42.828582" lon="-.709195">
        <ele>1187.224</ele>
        <time>2020-09-06T19:18:06Z</time>
      </trkpt>
      <trkpt lat="42.828618" lon="-.709237">
        <ele>1187.020</ele>
        <time>2020-09-06T19:18:12Z</time>
      </trkpt>
      <trkpt lat="42.828661" lon="-.709261">
        <ele>1186.745</ele>
        <time>2020-09-06T19:18:17Z</time>
      </trkpt>
      <trkpt lat="42.828704" lon="-.709289">
        <ele>1186.563</ele>
        <time>2020-09-06T19:18:21Z</time>
      </trkpt>
      <trkpt lat="42.828752" lon="-.709306">
        <ele>1186.582</ele>
        <time>2020-09-06T19:18:25Z</time>
      </trkpt>
      <trkpt lat="42.828801" lon="-.709314">
        <ele>1186.885</ele>
        <time>2020-09-06T19:18:29Z</time>
      </trkpt>
      <trkpt lat="42.828849" lon="-.709292">
        <ele>1187.438</ele>
        <time>2020-09-06T19:18:34Z</time>
      </trkpt>
      <trkpt lat="42.828899" lon="-.709271">
        <ele>1187.746</ele>
        <time>2020-09-06T19:18:38Z</time>
      </trkpt>
      <trkpt lat="42.82895" lon="-.70926">
        <ele>1187.788</ele>
        <time>2020-09-06T19:18:42Z</time>
      </trkpt>
      <trkpt lat="42.828998" lon="-.709257">
        <ele>1187.616</ele>
        <time>2020-09-06T19:18:48Z</time>
      </trkpt>
      <trkpt lat="42.829044" lon="-.709256">
        <ele>1187.408</ele>
        <time>2020-09-06T19:18:53Z</time>
      </trkpt>
      <trkpt lat="42.829089" lon="-.709264">
        <ele>1187.259</ele>
        <time>2020-09-06T19:18:57Z</time>
      </trkpt>
      <trkpt lat="42.829135" lon="-.709272">
        <ele>1187.060</ele>
        <time>2020-09-06T19:19:01Z</time>
      </trkpt>
      <trkpt lat="42.829181" lon="-.709267">
        <ele>1187.056</ele>
        <time>2020-09-06T19:19:05Z</time>
      </trkpt>
      <trkpt lat="42.829228" lon="-.709256">
        <ele>1187.591</ele>
        <time>2020-09-06T19:19:09Z</time>
      </trkpt>
      <trkpt lat="42.829273" lon="-.70924">
        <ele>1188.229</ele>
        <time>2020-09-06T19:19:18Z</time>
      </trkpt>
      <trkpt lat="42.829318" lon="-.709234">
        <ele>1188.888</ele>
        <time>2020-09-06T19:19:23Z</time>
      </trkpt>
      <trkpt lat="42.829359" lon="-.709191">
        <ele>1188.931</ele>
        <time>2020-09-06T19:19:28Z</time>
      </trkpt>
      <trkpt lat="42.829396" lon="-.709143">
        <ele>1188.964</ele>
        <time>2020-09-06T19:19:32Z</time>
      </trkpt>
      <trkpt lat="42.829442" lon="-.709107">
        <ele>1188.412</ele>
        <time>2020-09-06T19:19:36Z</time>
      </trkpt>
      <trkpt lat="42.82948" lon="-.709073">
        <ele>1187.932</ele>
        <time>2020-09-06T19:19:40Z</time>
      </trkpt>
      <trkpt lat="42.829515" lon="-.70903">
        <ele>1187.505</ele>
        <time>2020-09-06T19:19:45Z</time>
      </trkpt>
      <trkpt lat="42.829551" lon="-.708989">
        <ele>1187.108</ele>
        <time>2020-09-06T19:19:51Z</time>
      </trkpt>
      <trkpt lat="42.829586" lon="-.708939">
        <ele>1186.526</ele>
        <time>2020-09-06T19:19:56Z</time>
      </trkpt>
      <trkpt lat="42.829612" lon="-.708888">
        <ele>1186.037</ele>
        <time>2020-09-06T19:20:01Z</time>
      </trkpt>
      <trkpt lat="42.829642" lon="-.708834">
        <ele>1185.513</ele>
        <time>2020-09-06T19:20:05Z</time>
      </trkpt>
      <trkpt lat="42.829665" lon="-.70878">
        <ele>1184.958</ele>
        <time>2020-09-06T19:20:10Z</time>
      </trkpt>
      <trkpt lat="42.829673" lon="-.708718">
        <ele>1184.246</ele>
        <time>2020-09-06T19:20:18Z</time>
      </trkpt>
      <trkpt lat="42.829691" lon="-.70866">
        <ele>1183.645</ele>
        <time>2020-09-06T19:20:23Z</time>
      </trkpt>
      <trkpt lat="42.829724" lon="-.708605">
        <ele>1183.068</ele>
        <time>2020-09-06T19:20:28Z</time>
      </trkpt>
      <trkpt lat="42.829757" lon="-.708552">
        <ele>1182.671</ele>
        <time>2020-09-06T19:20:31Z</time>
      </trkpt>
      <trkpt lat="42.829789" lon="-.708499">
        <ele>1182.328</ele>
        <time>2020-09-06T19:20:35Z</time>
      </trkpt>
      <trkpt lat="42.829823" lon="-.708441">
        <ele>1181.789</ele>
        <time>2020-09-06T19:20:40Z</time>
      </trkpt>
      <trkpt lat="42.829858" lon="-.708395">
        <ele>1181.117</ele>
        <time>2020-09-06T19:20:45Z</time>
      </trkpt>
      <trkpt lat="42.8299" lon="-.708359">
        <ele>1180.208</ele>
        <time>2020-09-06T19:20:50Z</time>
      </trkpt>
      <trkpt lat="42.829933" lon="-.70831">
        <ele>1179.267</ele>
        <time>2020-09-06T19:20:55Z</time>
      </trkpt>
      <trkpt lat="42.829972" lon="-.70827">
        <ele>1178.168</ele>
        <time>2020-09-06T19:21:00Z</time>
      </trkpt>
      <trkpt lat="42.830016" lon="-.708294">
        <ele>1177.374</ele>
        <time>2020-09-06T19:21:07Z</time>
      </trkpt>
      <trkpt lat="42.830055" lon="-.708328">
        <ele>1176.699</ele>
        <time>2020-09-06T19:21:13Z</time>
      </trkpt>
      <trkpt lat="42.8301" lon="-.708371">
        <ele>1175.937</ele>
        <time>2020-09-06T19:21:19Z</time>
      </trkpt>
      <trkpt lat="42.830142" lon="-.708399">
        <ele>1175.566</ele>
        <time>2020-09-06T19:21:25Z</time>
      </trkpt>
      <trkpt lat="42.830179" lon="-.708438">
        <ele>1175.319</ele>
        <time>2020-09-06T19:21:31Z</time>
      </trkpt>
      <trkpt lat="42.83022" lon="-.708472">
        <ele>1174.912</ele>
        <time>2020-09-06T19:21:36Z</time>
      </trkpt>
      <trkpt lat="42.830263" lon="-.708494">
        <ele>1174.696</ele>
        <time>2020-09-06T19:21:40Z</time>
      </trkpt>
      <trkpt lat="42.830296" lon="-.708537">
        <ele>1174.231</ele>
        <time>2020-09-06T19:21:47Z</time>
      </trkpt>
      <trkpt lat="42.830319" lon="-.708603">
        <ele>1173.124</ele>
        <time>2020-09-06T19:21:54Z</time>
      </trkpt>
      <trkpt lat="42.830344" lon="-.708656">
        <ele>1172.108</ele>
        <time>2020-09-06T19:21:58Z</time>
      </trkpt>
      <trkpt lat="42.830371" lon="-.70871">
        <ele>1171.114</ele>
        <time>2020-09-06T19:22:03Z</time>
      </trkpt>
      <trkpt lat="42.830411" lon="-.708754">
        <ele>1170.365</ele>
        <time>2020-09-06T19:22:08Z</time>
      </trkpt>
      <trkpt lat="42.830434" lon="-.708816">
        <ele>1169.681</ele>
        <time>2020-09-06T19:22:12Z</time>
      </trkpt>
      <trkpt lat="42.830453" lon="-.708875">
        <ele>1169.116</ele>
        <time>2020-09-06T19:22:17Z</time>
      </trkpt>
      <trkpt lat="42.830461" lon="-.708937">
        <ele>1168.734</ele>
        <time>2020-09-06T19:22:22Z</time>
      </trkpt>
      <trkpt lat="42.830443" lon="-.709006">
        <ele>1168.543</ele>
        <time>2020-09-06T19:22:27Z</time>
      </trkpt>
      <trkpt lat="42.830424" lon="-.709078">
        <ele>1168.366</ele>
        <time>2020-09-06T19:22:32Z</time>
      </trkpt>
      <trkpt lat="42.830414" lon="-.70914">
        <ele>1168.129</ele>
        <time>2020-09-06T19:22:37Z</time>
      </trkpt>
      <trkpt lat="42.830406" lon="-.709213">
        <ele>1167.289</ele>
        <time>2020-09-06T19:22:43Z</time>
      </trkpt>
      <trkpt lat="42.830415" lon="-.709278">
        <ele>1166.106</ele>
        <time>2020-09-06T19:22:48Z</time>
      </trkpt>
      <trkpt lat="42.830427" lon="-.70934">
        <ele>1164.926</ele>
        <time>2020-09-06T19:22:53Z</time>
      </trkpt>
      <trkpt lat="42.830432" lon="-.709403">
        <ele>1163.808</ele>
        <time>2020-09-06T19:23:02Z</time>
      </trkpt>
      <trkpt lat="42.8304" lon="-.709446">
        <ele>1163.013</ele>
        <time>2020-09-06T19:23:08Z</time>
      </trkpt>
      <trkpt lat="42.830345" lon="-.709469">
        <ele>1162.334</ele>
        <time>2020-09-06T19:23:13Z</time>
      </trkpt>
      <trkpt lat="42.830307" lon="-.709502">
        <ele>1161.990</ele>
        <time>2020-09-06T19:23:17Z</time>
      </trkpt>
      <trkpt lat="42.830285" lon="-.709558">
        <ele>1161.385</ele>
        <time>2020-09-06T19:23:21Z</time>
      </trkpt>
      <trkpt lat="42.830282" lon="-.709619">
        <ele>1160.693</ele>
        <time>2020-09-06T19:23:26Z</time>
      </trkpt>
      <trkpt lat="42.830281" lon="-.709684">
        <ele>1159.972</ele>
        <time>2020-09-06T19:23:30Z</time>
      </trkpt>
      <trkpt lat="42.830276" lon="-.709746">
        <ele>1159.265</ele>
        <time>2020-09-06T19:23:34Z</time>
      </trkpt>
      <trkpt lat="42.830258" lon="-.709804">
        <ele>1158.488</ele>
        <time>2020-09-06T19:23:38Z</time>
      </trkpt>
      <trkpt lat="42.830234" lon="-.709859">
        <ele>1157.546</ele>
        <time>2020-09-06T19:23:43Z</time>
      </trkpt>
      <trkpt lat="42.83021" lon="-.709917">
        <ele>1156.588</ele>
        <time>2020-09-06T19:23:46Z</time>
      </trkpt>
      <trkpt lat="42.830206" lon="-.709979">
        <ele>1155.216</ele>
        <time>2020-09-06T19:23:51Z</time>
      </trkpt>
      <trkpt lat="42.830188" lon="-.71004">
        <ele>1153.708</ele>
        <time>2020-09-06T19:23:56Z</time>
      </trkpt>
      <trkpt lat="42.83019" lon="-.710109">
        <ele>1152.359</ele>
        <time>2020-09-06T19:24:00Z</time>
      </trkpt>
      <trkpt lat="42.830205" lon="-.710172">
        <ele>1150.890</ele>
        <time>2020-09-06T19:24:05Z</time>
      </trkpt>
      <trkpt lat="42.830214" lon="-.71024">
        <ele>1149.336</ele>
        <time>2020-09-06T19:24:12Z</time>
      </trkpt>
      <trkpt lat="42.83022" lon="-.710304">
        <ele>1148.221</ele>
        <time>2020-09-06T19:24:16Z</time>
      </trkpt>
      <trkpt lat="42.830226" lon="-.710368">
        <ele>1147.319</ele>
        <time>2020-09-06T19:24:20Z</time>
      </trkpt>
      <trkpt lat="42.830243" lon="-.710426">
        <ele>1146.528</ele>
        <time>2020-09-06T19:24:24Z</time>
      </trkpt>
      <trkpt lat="42.830278" lon="-.710471">
        <ele>1145.621</ele>
        <time>2020-09-06T19:24:28Z</time>
      </trkpt>
      <trkpt lat="42.830313" lon="-.710513">
        <ele>1144.654</ele>
        <time>2020-09-06T19:24:33Z</time>
      </trkpt>
      <trkpt lat="42.830356" lon="-.710546">
        <ele>1143.683</ele>
        <time>2020-09-06T19:24:39Z</time>
      </trkpt>
      <trkpt lat="42.830398" lon="-.710593">
        <ele>1142.725</ele>
        <time>2020-09-06T19:24:43Z</time>
      </trkpt>
      <trkpt lat="42.830427" lon="-.71064">
        <ele>1142.117</ele>
        <time>2020-09-06T19:24:47Z</time>
      </trkpt>
      <trkpt lat="42.830454" lon="-.710695">
        <ele>1141.508</ele>
        <time>2020-09-06T19:24:55Z</time>
      </trkpt>
      <trkpt lat="42.830493" lon="-.710732">
        <ele>1140.833</ele>
        <time>2020-09-06T19:25:01Z</time>
      </trkpt>
      <trkpt lat="42.83054" lon="-.710743">
        <ele>1140.024</ele>
        <time>2020-09-06T19:25:07Z</time>
      </trkpt>
      <trkpt lat="42.830585" lon="-.710755">
        <ele>1139.260</ele>
        <time>2020-09-06T19:25:15Z</time>
      </trkpt>
      <trkpt lat="42.830617" lon="-.710802">
        <ele>1138.585</ele>
        <time>2020-09-06T19:25:19Z</time>
      </trkpt>
      <trkpt lat="42.830646" lon="-.71085">
        <ele>1137.943</ele>
        <time>2020-09-06T19:25:22Z</time>
      </trkpt>
      <trkpt lat="42.830684" lon="-.710891">
        <ele>1137.322</ele>
        <time>2020-09-06T19:25:25Z</time>
      </trkpt>
      <trkpt lat="42.830729" lon="-.710923">
        <ele>1136.685</ele>
        <time>2020-09-06T19:25:28Z</time>
      </trkpt>
      <trkpt lat="42.830776" lon="-.710956">
        <ele>1136.058</ele>
        <time>2020-09-06T19:25:32Z</time>
      </trkpt>
      <trkpt lat="42.830815" lon="-.710996">
        <ele>1135.497</ele>
        <time>2020-09-06T19:25:36Z</time>
      </trkpt>
      <trkpt lat="42.830854" lon="-.711037">
        <ele>1134.923</ele>
        <time>2020-09-06T19:25:40Z</time>
      </trkpt>
      <trkpt lat="42.830896" lon="-.711063">
        <ele>1134.425</ele>
        <time>2020-09-06T19:25:44Z</time>
      </trkpt>
      <trkpt lat="42.830942" lon="-.711087">
        <ele>1133.908</ele>
        <time>2020-09-06T19:25:47Z</time>
      </trkpt>
      <trkpt lat="42.830982" lon="-.711116">
        <ele>1133.414</ele>
        <time>2020-09-06T19:25:51Z</time>
      </trkpt>
      <trkpt lat="42.831022" lon="-.711153">
        <ele>1132.765</ele>
        <time>2020-09-06T19:25:55Z</time>
      </trkpt>
      <trkpt lat="42.831066" lon="-.711183">
        <ele>1131.981</ele>
        <time>2020-09-06T19:25:59Z</time>
      </trkpt>
      <trkpt lat="42.831114" lon="-.711209">
        <ele>1131.126</ele>
        <time>2020-09-06T19:26:05Z</time>
      </trkpt>
      <trkpt lat="42.831163" lon="-.711239">
        <ele>1130.314</ele>
        <time>2020-09-06T19:26:09Z</time>
      </trkpt>
      <trkpt lat="42.831209" lon="-.71122">
        <ele>1129.493</ele>
        <time>2020-09-06T19:26:16Z</time>
      </trkpt>
      <trkpt lat="42.831241" lon="-.711176">
        <ele>1128.616</ele>
        <time>2020-09-06T19:26:25Z</time>
      </trkpt>
      <trkpt lat="42.831277" lon="-.711135">
        <ele>1128.179</ele>
        <time>2020-09-06T19:26:32Z</time>
      </trkpt>
      <trkpt lat="42.831313" lon="-.711097">
        <ele>1127.758</ele>
        <time>2020-09-06T19:26:38Z</time>
      </trkpt>
      <trkpt lat="42.831345" lon="-.71104">
        <ele>1127.452</ele>
        <time>2020-09-06T19:26:44Z</time>
      </trkpt>
      <trkpt lat="42.831381" lon="-.711001">
        <ele>1126.917</ele>
        <time>2020-09-06T19:26:51Z</time>
      </trkpt>
      <trkpt lat="42.831423" lon="-.710977">
        <ele>1126.608</ele>
        <time>2020-09-06T19:26:56Z</time>
      </trkpt>
      <trkpt lat="42.831471" lon="-.710949">
        <ele>1126.650</ele>
        <time>2020-09-06T19:27:02Z</time>
      </trkpt>
      <trkpt lat="42.831514" lon="-.710927">
        <ele>1126.771</ele>
        <time>2020-09-06T19:27:06Z</time>
      </trkpt>
      <trkpt lat="42.831555" lon="-.710901">
        <ele>1126.827</ele>
        <time>2020-09-06T19:27:09Z</time>
      </trkpt>
      <trkpt lat="42.831602" lon="-.710874">
        <ele>1126.992</ele>
        <time>2020-09-06T19:27:14Z</time>
      </trkpt>
      <trkpt lat="42.831644" lon="-.710844">
        <ele>1127.510</ele>
        <time>2020-09-06T19:27:26Z</time>
      </trkpt>
      <trkpt lat="42.831682" lon="-.71081">
        <ele>1128.389</ele>
        <time>2020-09-06T19:27:33Z</time>
      </trkpt>
      <trkpt lat="42.831717" lon="-.710767">
        <ele>1129.142</ele>
        <time>2020-09-06T19:27:39Z</time>
      </trkpt>
      <trkpt lat="42.831762" lon="-.710772">
        <ele>1130.415</ele>
        <time>2020-09-06T19:27:59Z</time>
      </trkpt>
      <trkpt lat="42.831805" lon="-.71075">
        <ele>1131.452</ele>
        <time>2020-09-06T19:28:06Z</time>
      </trkpt>
      <trkpt lat="42.831837" lon="-.710701">
        <ele>1132.153</ele>
        <time>2020-09-06T19:28:13Z</time>
      </trkpt>
      <trkpt lat="42.831869" lon="-.710658">
        <ele>1132.508</ele>
        <time>2020-09-06T19:28:18Z</time>
      </trkpt>
      <trkpt lat="42.831887" lon="-.710718">
        <ele>1132.608</ele>
        <time>2020-09-06T19:28:24Z</time>
      </trkpt>
      <trkpt lat="42.831889" lon="-.710784">
        <ele>1132.530</ele>
        <time>2020-09-06T19:28:29Z</time>
      </trkpt>
      <trkpt lat="42.831915" lon="-.710837">
        <ele>1132.471</ele>
        <time>2020-09-06T19:28:34Z</time>
      </trkpt>
      <trkpt lat="42.83196" lon="-.710853">
        <ele>1132.337</ele>
        <time>2020-09-06T19:28:39Z</time>
      </trkpt>
      <trkpt lat="42.832006" lon="-.710856">
        <ele>1132.262</ele>
        <time>2020-09-06T19:28:44Z</time>
      </trkpt>
      <trkpt lat="42.832054" lon="-.710847">
        <ele>1132.440</ele>
        <time>2020-09-06T19:28:48Z</time>
      </trkpt>
      <trkpt lat="42.832106" lon="-.710839">
        <ele>1132.779</ele>
        <time>2020-09-06T19:28:52Z</time>
      </trkpt>
      <trkpt lat="42.832159" lon="-.710834">
        <ele>1133.032</ele>
        <time>2020-09-06T19:28:57Z</time>
      </trkpt>
      <trkpt lat="42.832209" lon="-.710831">
        <ele>1133.425</ele>
        <time>2020-09-06T19:29:03Z</time>
      </trkpt>
      <trkpt lat="42.832256" lon="-.710821">
        <ele>1133.724</ele>
        <time>2020-09-06T19:29:07Z</time>
      </trkpt>
      <trkpt lat="42.832303" lon="-.710819">
        <ele>1133.904</ele>
        <time>2020-09-06T19:29:11Z</time>
      </trkpt>
      <trkpt lat="42.832355" lon="-.710847">
        <ele>1134.114</ele>
        <time>2020-09-06T19:29:15Z</time>
      </trkpt>
      <trkpt lat="42.832401" lon="-.71087">
        <ele>1134.208</ele>
        <time>2020-09-06T19:29:19Z</time>
      </trkpt>
      <trkpt lat="42.832445" lon="-.710894">
        <ele>1134.377</ele>
        <time>2020-09-06T19:29:24Z</time>
      </trkpt>
      <trkpt lat="42.83249" lon="-.710918">
        <ele>1134.468</ele>
        <time>2020-09-06T19:29:28Z</time>
      </trkpt>
      <trkpt lat="42.832544" lon="-.710934">
        <ele>1134.484</ele>
        <time>2020-09-06T19:29:31Z</time>
      </trkpt>
      <trkpt lat="42.832591" lon="-.710946">
        <ele>1134.369</ele>
        <time>2020-09-06T19:29:35Z</time>
      </trkpt>
      <trkpt lat="42.832636" lon="-.710958">
        <ele>1134.377</ele>
        <time>2020-09-06T19:29:39Z</time>
      </trkpt>
      <trkpt lat="42.832684" lon="-.710976">
        <ele>1134.316</ele>
        <time>2020-09-06T19:29:44Z</time>
      </trkpt>
      <trkpt lat="42.832732" lon="-.710989">
        <ele>1134.449</ele>
        <time>2020-09-06T19:29:48Z</time>
      </trkpt>
      <trkpt lat="42.83278" lon="-.710993">
        <ele>1134.462</ele>
        <time>2020-09-06T19:29:52Z</time>
      </trkpt>
      <trkpt lat="42.832827" lon="-.711001">
        <ele>1134.199</ele>
        <time>2020-09-06T19:29:56Z</time>
      </trkpt>
      <trkpt lat="42.832876" lon="-.711013">
        <ele>1133.807</ele>
        <time>2020-09-06T19:30:01Z</time>
      </trkpt>
      <trkpt lat="42.832927" lon="-.711014">
        <ele>1133.527</ele>
        <time>2020-09-06T19:30:06Z</time>
      </trkpt>
      <trkpt lat="42.832978" lon="-.711019">
        <ele>1133.408</ele>
        <time>2020-09-06T19:30:10Z</time>
      </trkpt>
      <trkpt lat="42.833026" lon="-.711023">
        <ele>1133.394</ele>
        <time>2020-09-06T19:30:15Z</time>
      </trkpt>
      <trkpt lat="42.833072" lon="-.711028">
        <ele>1133.315</ele>
        <time>2020-09-06T19:30:20Z</time>
      </trkpt>
      <trkpt lat="42.83312" lon="-.711049">
        <ele>1133.451</ele>
        <time>2020-09-06T19:30:26Z</time>
      </trkpt>
      <trkpt lat="42.833168" lon="-.711069">
        <ele>1133.636</ele>
        <time>2020-09-06T19:30:30Z</time>
      </trkpt>
      <trkpt lat="42.833216" lon="-.711083">
        <ele>1133.844</ele>
        <time>2020-09-06T19:30:34Z</time>
      </trkpt>
      <trkpt lat="42.833263" lon="-.71109">
        <ele>1134.023</ele>
        <time>2020-09-06T19:30:37Z</time>
      </trkpt>
      <trkpt lat="42.833263" lon="-.71109">
        <ele>1134.036</ele>
        <time>2020-09-06T19:30:37Z</time>
      </trkpt>
      <trkpt lat="42.833312" lon="-.711097">
        <ele>1134.249</ele>
        <time>2020-09-06T19:30:42Z</time>
      </trkpt>
      <trkpt lat="42.833358" lon="-.711109">
        <ele>1134.432</ele>
        <time>2020-09-06T19:30:48Z</time>
      </trkpt>
      <trkpt lat="42.833405" lon="-.711116">
        <ele>1134.592</ele>
        <time>2020-09-06T19:30:52Z</time>
      </trkpt>
      <trkpt lat="42.833452" lon="-.711116">
        <ele>1134.611</ele>
        <time>2020-09-06T19:30:55Z</time>
      </trkpt>
      <trkpt lat="42.833497" lon="-.711124">
        <ele>1134.808</ele>
        <time>2020-09-06T19:30:59Z</time>
      </trkpt>
      <trkpt lat="42.833546" lon="-.711139">
        <ele>1135.098</ele>
        <time>2020-09-06T19:31:03Z</time>
      </trkpt>
      <trkpt lat="42.833598" lon="-.71115">
        <ele>1135.259</ele>
        <time>2020-09-06T19:31:07Z</time>
      </trkpt>
      <trkpt lat="42.833646" lon="-.71116">
        <ele>1135.365</ele>
        <time>2020-09-06T19:31:10Z</time>
      </trkpt>
      <trkpt lat="42.833693" lon="-.711174">
        <ele>1135.440</ele>
        <time>2020-09-06T19:31:13Z</time>
      </trkpt>
      <trkpt lat="42.83374" lon="-.71118">
        <ele>1135.658</ele>
        <time>2020-09-06T19:31:17Z</time>
      </trkpt>
      <trkpt lat="42.833785" lon="-.711188">
        <ele>1135.837</ele>
        <time>2020-09-06T19:31:21Z</time>
      </trkpt>
      <trkpt lat="42.83383" lon="-.711195">
        <ele>1136.040</ele>
        <time>2020-09-06T19:31:27Z</time>
      </trkpt>
      <trkpt lat="42.833877" lon="-.711201">
        <ele>1136.313</ele>
        <time>2020-09-06T19:31:31Z</time>
      </trkpt>
      <trkpt lat="42.833927" lon="-.711211">
        <ele>1136.659</ele>
        <time>2020-09-06T19:31:35Z</time>
      </trkpt>
      <trkpt lat="42.833979" lon="-.711214">
        <ele>1140.603</ele>
        <time>2020-09-06T19:31:39Z</time>
      </trkpt>
      <trkpt lat="42.834033" lon="-.711203">
        <ele>1144.623</ele>
        <time>2020-09-06T19:31:43Z</time>
      </trkpt>
      <trkpt lat="42.834085" lon="-.711196">
        <ele>1148.608</ele>
        <time>2020-09-06T19:31:46Z</time>
      </trkpt>
      <trkpt lat="42.834135" lon="-.711191">
        <ele>1152.630</ele>
        <time>2020-09-06T19:31:51Z</time>
      </trkpt>
      <trkpt lat="42.834181" lon="-.7112">
        <ele>1156.651</ele>
        <time>2020-09-06T19:31:55Z</time>
      </trkpt>
      <trkpt lat="42.834228" lon="-.711202">
        <ele>1160.687</ele>
        <time>2020-09-06T19:31:59Z</time>
      </trkpt>
      <trkpt lat="42.834275" lon="-.711195">
        <ele>1164.672</ele>
        <time>2020-09-06T19:32:02Z</time>
      </trkpt>
      <trkpt lat="42.834327" lon="-.711182">
        <ele>1168.610</ele>
        <time>2020-09-06T19:32:06Z</time>
      </trkpt>
      <trkpt lat="42.834383" lon="-.711165">
        <ele>1172.689</ele>
        <time>2020-09-06T19:32:10Z</time>
      </trkpt>
      <trkpt lat="42.834433" lon="-.711167">
        <ele>1176.632</ele>
        <time>2020-09-06T19:32:14Z</time>
      </trkpt>
      <trkpt lat="42.834489" lon="-.711164">
        <ele>1180.625</ele>
        <time>2020-09-06T19:32:18Z</time>
      </trkpt>
      <trkpt lat="42.834541" lon="-.711163">
        <ele>1184.698</ele>
        <time>2020-09-06T19:32:21Z</time>
      </trkpt>
      <trkpt lat="42.834594" lon="-.711158">
        <ele>1188.115</ele>
        <time>2020-09-06T19:32:26Z</time>
      </trkpt>
      <trkpt lat="42.834646" lon="-.711175">
        <ele>1190.226</ele>
        <time>2020-09-06T19:32:30Z</time>
      </trkpt>
      <trkpt lat="42.83468" lon="-.711217">
        <ele>1191.308</ele>
        <time>2020-09-06T19:32:38Z</time>
      </trkpt>
      <trkpt lat="42.834722" lon="-.711238">
        <ele>1192.144</ele>
        <time>2020-09-06T19:32:57Z</time>
      </trkpt>
      <trkpt lat="42.834784" lon="-.711273">
        <ele>1192.575</ele>
        <time>2020-09-06T19:34:47Z</time>
      </trkpt>
    </trkseg>
  </trk>
</gpx>
